<?xml version="1.0" encoding="UTF-8" standalone="no" ?>
<gpx xmlns="http://www.topografix.com/GPX/1/1" xmlns:xsi="http://www.w3.org/2001/XMLSchema-instance" xsi:schemaLocation="http://www.topografix.com/GPX/1/1 http://www.topografix.com/GPX/1/1/gpx.xsd" version="1.1" creator="VisuGPX - https://www.visugpx.com">
  <metadata>
    <name>2018-10-16 Bike ride-Ambérieux-Rancé O v38k</name>
    <desc><![CDATA[2018-10-16 Bike ride-Ambérieux-Rancé O v38k]]></desc>
  </metadata>
  <wpt lat="45.92458" lon="4.73714">
    <ele>174</ele>
    <name><![CDATA[2018-10-16 10:34 (Start)]]></name>
  </wpt>
  <wpt lat="45.92462" lon="4.73709">
    <ele>174</ele>
    <name><![CDATA[2018-10-16 10:34 (End)]]></name>
  </wpt>
  <trk>
    <name><![CDATA[2018-10-16 10:34]]></name>
    <trkseg>
      <trkpt lat="45.92458" lon="4.73714">
        <ele>174</ele>
        <time>2018-10-16T08:34:30.766Z</time>
      </trkpt>
      <trkpt lat="45.92465" lon="4.73708">
        <ele>174</ele>
        <time>2018-10-16T08:34:56Z</time>
      </trkpt>
      <trkpt lat="45.92466" lon="4.73707">
        <ele>174</ele>
        <time>2018-10-16T08:34:57Z</time>
      </trkpt>
      <trkpt lat="45.92467" lon="4.73694">
        <ele>174</ele>
        <time>2018-10-16T08:35:01Z</time>
      </trkpt>
      <trkpt lat="45.92467" lon="4.73691">
        <ele>174</ele>
        <time>2018-10-16T08:35:02Z</time>
      </trkpt>
      <trkpt lat="45.92467" lon="4.7368">
        <ele>174</ele>
        <time>2018-10-16T08:35:05Z</time>
      </trkpt>
      <trkpt lat="45.92467" lon="4.73675">
        <ele>174</ele>
        <time>2018-10-16T08:35:06Z</time>
      </trkpt>
      <trkpt lat="45.92468" lon="4.73662">
        <ele>174</ele>
        <time>2018-10-16T08:35:08Z</time>
      </trkpt>
      <trkpt lat="45.92468" lon="4.73658">
        <ele>174</ele>
        <time>2018-10-16T08:35:09Z</time>
      </trkpt>
      <trkpt lat="45.92469" lon="4.73654">
        <ele>174</ele>
        <time>2018-10-16T08:35:10Z</time>
      </trkpt>
      <trkpt lat="45.92471" lon="4.73643">
        <ele>174</ele>
        <time>2018-10-16T08:35:11Z</time>
      </trkpt>
      <trkpt lat="45.92475" lon="4.73637">
        <ele>174</ele>
        <time>2018-10-16T08:35:13Z</time>
      </trkpt>
      <trkpt lat="45.9248" lon="4.73635">
        <ele>174</ele>
        <time>2018-10-16T08:35:14Z</time>
      </trkpt>
      <trkpt lat="45.92488" lon="4.73637">
        <ele>174</ele>
        <time>2018-10-16T08:35:16Z</time>
      </trkpt>
      <trkpt lat="45.92493" lon="4.73638">
        <ele>174</ele>
        <time>2018-10-16T08:35:17Z</time>
      </trkpt>
      <trkpt lat="45.92501" lon="4.73638">
        <ele>174</ele>
        <time>2018-10-16T08:35:19Z</time>
      </trkpt>
      <trkpt lat="45.92506" lon="4.73637">
        <ele>174</ele>
        <time>2018-10-16T08:35:20Z</time>
      </trkpt>
      <trkpt lat="45.92514" lon="4.73635">
        <ele>173</ele>
        <time>2018-10-16T08:35:22Z</time>
      </trkpt>
      <trkpt lat="45.92518" lon="4.73635">
        <ele>173</ele>
        <time>2018-10-16T08:35:23Z</time>
      </trkpt>
      <trkpt lat="45.92525" lon="4.73638">
        <ele>173</ele>
        <time>2018-10-16T08:35:25Z</time>
      </trkpt>
      <trkpt lat="45.92529" lon="4.73639">
        <ele>173</ele>
        <time>2018-10-16T08:35:26Z</time>
      </trkpt>
      <trkpt lat="45.92533" lon="4.73638">
        <ele>173</ele>
        <time>2018-10-16T08:35:27Z</time>
      </trkpt>
      <trkpt lat="45.92538" lon="4.73637">
        <ele>173</ele>
        <time>2018-10-16T08:35:28Z</time>
      </trkpt>
      <trkpt lat="45.92544" lon="4.73636">
        <ele>173</ele>
        <time>2018-10-16T08:35:29Z</time>
      </trkpt>
      <trkpt lat="45.9255" lon="4.73635">
        <ele>173</ele>
        <time>2018-10-16T08:35:30Z</time>
      </trkpt>
      <trkpt lat="45.92559" lon="4.73634">
        <ele>173</ele>
        <time>2018-10-16T08:35:32Z</time>
      </trkpt>
      <trkpt lat="45.92564" lon="4.73632">
        <ele>173</ele>
        <time>2018-10-16T08:35:33Z</time>
      </trkpt>
      <trkpt lat="45.92568" lon="4.7363">
        <ele>173</ele>
        <time>2018-10-16T08:35:34Z</time>
      </trkpt>
      <trkpt lat="45.92572" lon="4.73629">
        <ele>173</ele>
        <time>2018-10-16T08:35:35Z</time>
      </trkpt>
      <trkpt lat="45.92578" lon="4.73627">
        <ele>173</ele>
        <time>2018-10-16T08:35:37Z</time>
      </trkpt>
      <trkpt lat="45.92584" lon="4.73626">
        <ele>172</ele>
        <time>2018-10-16T08:35:38Z</time>
      </trkpt>
      <trkpt lat="45.92587" lon="4.73622">
        <ele>173</ele>
        <time>2018-10-16T08:35:40Z</time>
      </trkpt>
      <trkpt lat="45.92592" lon="4.7362">
        <ele>173</ele>
        <time>2018-10-16T08:35:41Z</time>
      </trkpt>
      <trkpt lat="45.92601" lon="4.73623">
        <ele>173</ele>
        <time>2018-10-16T08:35:42Z</time>
      </trkpt>
      <trkpt lat="45.92607" lon="4.73624">
        <ele>173</ele>
        <time>2018-10-16T08:35:43Z</time>
      </trkpt>
      <trkpt lat="45.92611" lon="4.73627">
        <ele>173</ele>
        <time>2018-10-16T08:35:44Z</time>
      </trkpt>
      <trkpt lat="45.9262" lon="4.73635">
        <ele>173</ele>
        <time>2018-10-16T08:35:45Z</time>
      </trkpt>
      <trkpt lat="45.92624" lon="4.7364">
        <ele>173</ele>
        <time>2018-10-16T08:35:46Z</time>
      </trkpt>
      <trkpt lat="45.92627" lon="4.73648">
        <ele>173</ele>
        <time>2018-10-16T08:35:47Z</time>
      </trkpt>
      <trkpt lat="45.92629" lon="4.73654">
        <ele>173</ele>
        <time>2018-10-16T08:35:48Z</time>
      </trkpt>
      <trkpt lat="45.92632" lon="4.73662">
        <ele>173</ele>
        <time>2018-10-16T08:35:49Z</time>
      </trkpt>
      <trkpt lat="45.92634" lon="4.73668">
        <ele>173</ele>
        <time>2018-10-16T08:35:50Z</time>
      </trkpt>
      <trkpt lat="45.92637" lon="4.73673">
        <ele>173</ele>
        <time>2018-10-16T08:35:51Z</time>
      </trkpt>
      <trkpt lat="45.92642" lon="4.73679">
        <ele>173</ele>
        <time>2018-10-16T08:35:52Z</time>
      </trkpt>
      <trkpt lat="45.92646" lon="4.73685">
        <ele>173</ele>
        <time>2018-10-16T08:35:53Z</time>
      </trkpt>
      <trkpt lat="45.9265" lon="4.73689">
        <ele>173</ele>
        <time>2018-10-16T08:35:54Z</time>
      </trkpt>
      <trkpt lat="45.92656" lon="4.73693">
        <ele>173</ele>
        <time>2018-10-16T08:35:55Z</time>
      </trkpt>
      <trkpt lat="45.92662" lon="4.73696">
        <ele>173</ele>
        <time>2018-10-16T08:35:56Z</time>
      </trkpt>
      <trkpt lat="45.92668" lon="4.73699">
        <ele>174</ele>
        <time>2018-10-16T08:35:57Z</time>
      </trkpt>
      <trkpt lat="45.92672" lon="4.73702">
        <ele>174</ele>
        <time>2018-10-16T08:35:58Z</time>
      </trkpt>
      <trkpt lat="45.92679" lon="4.73703">
        <ele>173</ele>
        <time>2018-10-16T08:35:59Z</time>
      </trkpt>
      <trkpt lat="45.92684" lon="4.73705">
        <ele>173</ele>
        <time>2018-10-16T08:36:00Z</time>
      </trkpt>
      <trkpt lat="45.92689" lon="4.73706">
        <ele>173</ele>
        <time>2018-10-16T08:36:01Z</time>
      </trkpt>
      <trkpt lat="45.92694" lon="4.73708">
        <ele>173</ele>
        <time>2018-10-16T08:36:02Z</time>
      </trkpt>
      <trkpt lat="45.92701" lon="4.73708">
        <ele>173</ele>
        <time>2018-10-16T08:36:03Z</time>
      </trkpt>
      <trkpt lat="45.92708" lon="4.73711">
        <ele>173</ele>
        <time>2018-10-16T08:36:05Z</time>
      </trkpt>
      <trkpt lat="45.92712" lon="4.73711">
        <ele>173</ele>
        <time>2018-10-16T08:36:06Z</time>
      </trkpt>
      <trkpt lat="45.92718" lon="4.73713">
        <ele>173</ele>
        <time>2018-10-16T08:36:07Z</time>
      </trkpt>
      <trkpt lat="45.92723" lon="4.73714">
        <ele>173</ele>
        <time>2018-10-16T08:36:08Z</time>
      </trkpt>
      <trkpt lat="45.92728" lon="4.73715">
        <ele>173</ele>
        <time>2018-10-16T08:36:09Z</time>
      </trkpt>
      <trkpt lat="45.92734" lon="4.73716">
        <ele>173</ele>
        <time>2018-10-16T08:36:10Z</time>
      </trkpt>
      <trkpt lat="45.92739" lon="4.73718">
        <ele>173</ele>
        <time>2018-10-16T08:36:11Z</time>
      </trkpt>
      <trkpt lat="45.92742" lon="4.73719">
        <ele>173</ele>
        <time>2018-10-16T08:36:12Z</time>
      </trkpt>
      <trkpt lat="45.92747" lon="4.73719">
        <ele>173</ele>
        <time>2018-10-16T08:36:13Z</time>
      </trkpt>
      <trkpt lat="45.92753" lon="4.73723">
        <ele>172</ele>
        <time>2018-10-16T08:36:14Z</time>
      </trkpt>
      <trkpt lat="45.9276" lon="4.73728">
        <ele>172</ele>
        <time>2018-10-16T08:36:16Z</time>
      </trkpt>
      <trkpt lat="45.92766" lon="4.73731">
        <ele>172</ele>
        <time>2018-10-16T08:36:17Z</time>
      </trkpt>
      <trkpt lat="45.92772" lon="4.73738">
        <ele>172</ele>
        <time>2018-10-16T08:36:19Z</time>
      </trkpt>
      <trkpt lat="45.92773" lon="4.73739">
        <ele>172</ele>
        <time>2018-10-16T08:36:20Z</time>
      </trkpt>
      <trkpt lat="45.92785" lon="4.73743">
        <ele>172</ele>
        <time>2018-10-16T08:36:21Z</time>
      </trkpt>
      <trkpt lat="45.92791" lon="4.73748">
        <ele>172</ele>
        <time>2018-10-16T08:36:24Z</time>
      </trkpt>
      <trkpt lat="45.92794" lon="4.73752">
        <ele>173</ele>
        <time>2018-10-16T08:36:25Z</time>
      </trkpt>
      <trkpt lat="45.92798" lon="4.73758">
        <ele>173</ele>
        <time>2018-10-16T08:36:27Z</time>
      </trkpt>
      <trkpt lat="45.92802" lon="4.73763">
        <ele>173</ele>
        <time>2018-10-16T08:36:28Z</time>
      </trkpt>
      <trkpt lat="45.92808" lon="4.73768">
        <ele>173</ele>
        <time>2018-10-16T08:36:30Z</time>
      </trkpt>
      <trkpt lat="45.92812" lon="4.7377">
        <ele>173</ele>
        <time>2018-10-16T08:36:31Z</time>
      </trkpt>
      <trkpt lat="45.92817" lon="4.73772">
        <ele>173</ele>
        <time>2018-10-16T08:36:32Z</time>
      </trkpt>
      <trkpt lat="45.92822" lon="4.73775">
        <ele>173</ele>
        <time>2018-10-16T08:36:33Z</time>
      </trkpt>
      <trkpt lat="45.92826" lon="4.73778">
        <ele>173</ele>
        <time>2018-10-16T08:36:34Z</time>
      </trkpt>
      <trkpt lat="45.9283" lon="4.73782">
        <ele>173</ele>
        <time>2018-10-16T08:36:35Z</time>
      </trkpt>
      <trkpt lat="45.92835" lon="4.73785">
        <ele>173</ele>
        <time>2018-10-16T08:36:36Z</time>
      </trkpt>
      <trkpt lat="45.92841" lon="4.73788">
        <ele>173</ele>
        <time>2018-10-16T08:36:37Z</time>
      </trkpt>
      <trkpt lat="45.92848" lon="4.73791">
        <ele>173</ele>
        <time>2018-10-16T08:36:38Z</time>
      </trkpt>
      <trkpt lat="45.92851" lon="4.73796">
        <ele>173</ele>
        <time>2018-10-16T08:36:39Z</time>
      </trkpt>
      <trkpt lat="45.92855" lon="4.73801">
        <ele>173</ele>
        <time>2018-10-16T08:36:40Z</time>
      </trkpt>
      <trkpt lat="45.92858" lon="4.73807">
        <ele>173</ele>
        <time>2018-10-16T08:36:41Z</time>
      </trkpt>
      <trkpt lat="45.92859" lon="4.73814">
        <ele>173</ele>
        <time>2018-10-16T08:36:42Z</time>
      </trkpt>
      <trkpt lat="45.92861" lon="4.73823">
        <ele>173</ele>
        <time>2018-10-16T08:36:43Z</time>
      </trkpt>
      <trkpt lat="45.92863" lon="4.73829">
        <ele>173</ele>
        <time>2018-10-16T08:36:44Z</time>
      </trkpt>
      <trkpt lat="45.92865" lon="4.73835">
        <ele>173</ele>
        <time>2018-10-16T08:36:45Z</time>
      </trkpt>
      <trkpt lat="45.92867" lon="4.73842">
        <ele>173</ele>
        <time>2018-10-16T08:36:46Z</time>
      </trkpt>
      <trkpt lat="45.92869" lon="4.7385">
        <ele>173</ele>
        <time>2018-10-16T08:36:47Z</time>
      </trkpt>
      <trkpt lat="45.92869" lon="4.73857">
        <ele>173</ele>
        <time>2018-10-16T08:36:48Z</time>
      </trkpt>
      <trkpt lat="45.92871" lon="4.73864">
        <ele>173</ele>
        <time>2018-10-16T08:36:49Z</time>
      </trkpt>
      <trkpt lat="45.92873" lon="4.73869">
        <ele>173</ele>
        <time>2018-10-16T08:36:50Z</time>
      </trkpt>
      <trkpt lat="45.92877" lon="4.73878">
        <ele>173</ele>
        <time>2018-10-16T08:36:51Z</time>
      </trkpt>
      <trkpt lat="45.92877" lon="4.73886">
        <ele>173</ele>
        <time>2018-10-16T08:36:52Z</time>
      </trkpt>
      <trkpt lat="45.9288" lon="4.73895">
        <ele>173</ele>
        <time>2018-10-16T08:36:53Z</time>
      </trkpt>
      <trkpt lat="45.9288" lon="4.73903">
        <ele>173</ele>
        <time>2018-10-16T08:36:54Z</time>
      </trkpt>
      <trkpt lat="45.92888" lon="4.73916">
        <ele>173</ele>
        <time>2018-10-16T08:36:55Z</time>
      </trkpt>
      <trkpt lat="45.92887" lon="4.73924">
        <ele>172</ele>
        <time>2018-10-16T08:36:56Z</time>
      </trkpt>
      <trkpt lat="45.92887" lon="4.73932">
        <ele>172</ele>
        <time>2018-10-16T08:36:57Z</time>
      </trkpt>
      <trkpt lat="45.92887" lon="4.73939">
        <ele>172</ele>
        <time>2018-10-16T08:36:58Z</time>
      </trkpt>
      <trkpt lat="45.92886" lon="4.73946">
        <ele>172</ele>
        <time>2018-10-16T08:36:59Z</time>
      </trkpt>
      <trkpt lat="45.92885" lon="4.73958">
        <ele>172</ele>
        <time>2018-10-16T08:37:01Z</time>
      </trkpt>
      <trkpt lat="45.92884" lon="4.73966">
        <ele>172</ele>
        <time>2018-10-16T08:37:02Z</time>
      </trkpt>
      <trkpt lat="45.92883" lon="4.73978">
        <ele>172</ele>
        <time>2018-10-16T08:37:04Z</time>
      </trkpt>
      <trkpt lat="45.92882" lon="4.73984">
        <ele>172</ele>
        <time>2018-10-16T08:37:05Z</time>
      </trkpt>
      <trkpt lat="45.92881" lon="4.7399">
        <ele>172</ele>
        <time>2018-10-16T08:37:06Z</time>
      </trkpt>
      <trkpt lat="45.9288" lon="4.73997">
        <ele>172</ele>
        <time>2018-10-16T08:37:07Z</time>
      </trkpt>
      <trkpt lat="45.92878" lon="4.74003">
        <ele>172</ele>
        <time>2018-10-16T08:37:08Z</time>
      </trkpt>
      <trkpt lat="45.92877" lon="4.74011">
        <ele>172</ele>
        <time>2018-10-16T08:37:09Z</time>
      </trkpt>
      <trkpt lat="45.92875" lon="4.74016">
        <ele>172</ele>
        <time>2018-10-16T08:37:10Z</time>
      </trkpt>
      <trkpt lat="45.92874" lon="4.74024">
        <ele>172</ele>
        <time>2018-10-16T08:37:11Z</time>
      </trkpt>
      <trkpt lat="45.92872" lon="4.7403">
        <ele>172</ele>
        <time>2018-10-16T08:37:12Z</time>
      </trkpt>
      <trkpt lat="45.92869" lon="4.74038">
        <ele>172</ele>
        <time>2018-10-16T08:37:13Z</time>
      </trkpt>
      <trkpt lat="45.92867" lon="4.74046">
        <ele>172</ele>
        <time>2018-10-16T08:37:14Z</time>
      </trkpt>
      <trkpt lat="45.92864" lon="4.7405">
        <ele>172</ele>
        <time>2018-10-16T08:37:15Z</time>
      </trkpt>
      <trkpt lat="45.92859" lon="4.74057">
        <ele>172</ele>
        <time>2018-10-16T08:37:16Z</time>
      </trkpt>
      <trkpt lat="45.92856" lon="4.74061">
        <ele>172</ele>
        <time>2018-10-16T08:37:17Z</time>
      </trkpt>
      <trkpt lat="45.92852" lon="4.74065">
        <ele>172</ele>
        <time>2018-10-16T08:37:18Z</time>
      </trkpt>
      <trkpt lat="45.92847" lon="4.74069">
        <ele>172</ele>
        <time>2018-10-16T08:37:19Z</time>
      </trkpt>
      <trkpt lat="45.92842" lon="4.74073">
        <ele>172</ele>
        <time>2018-10-16T08:37:20Z</time>
      </trkpt>
      <trkpt lat="45.92838" lon="4.74078">
        <ele>171</ele>
        <time>2018-10-16T08:37:21Z</time>
      </trkpt>
      <trkpt lat="45.92834" lon="4.74083">
        <ele>171</ele>
        <time>2018-10-16T08:37:22Z</time>
      </trkpt>
      <trkpt lat="45.9283" lon="4.74088">
        <ele>171</ele>
        <time>2018-10-16T08:37:23Z</time>
      </trkpt>
      <trkpt lat="45.92826" lon="4.74092">
        <ele>171</ele>
        <time>2018-10-16T08:37:24Z</time>
      </trkpt>
      <trkpt lat="45.92822" lon="4.74098">
        <ele>171</ele>
        <time>2018-10-16T08:37:25Z</time>
      </trkpt>
      <trkpt lat="45.92818" lon="4.74101">
        <ele>171</ele>
        <time>2018-10-16T08:37:26Z</time>
      </trkpt>
      <trkpt lat="45.92814" lon="4.74105">
        <ele>172</ele>
        <time>2018-10-16T08:37:27Z</time>
      </trkpt>
      <trkpt lat="45.9281" lon="4.7411">
        <ele>172</ele>
        <time>2018-10-16T08:37:28Z</time>
      </trkpt>
      <trkpt lat="45.92805" lon="4.74114">
        <ele>172</ele>
        <time>2018-10-16T08:37:29Z</time>
      </trkpt>
      <trkpt lat="45.92801" lon="4.74119">
        <ele>172</ele>
        <time>2018-10-16T08:37:30Z</time>
      </trkpt>
      <trkpt lat="45.92797" lon="4.74123">
        <ele>172</ele>
        <time>2018-10-16T08:37:31Z</time>
      </trkpt>
      <trkpt lat="45.92793" lon="4.74127">
        <ele>172</ele>
        <time>2018-10-16T08:37:32Z</time>
      </trkpt>
      <trkpt lat="45.9279" lon="4.74132">
        <ele>172</ele>
        <time>2018-10-16T08:37:33Z</time>
      </trkpt>
      <trkpt lat="45.92785" lon="4.74136">
        <ele>172</ele>
        <time>2018-10-16T08:37:34Z</time>
      </trkpt>
      <trkpt lat="45.92781" lon="4.7414">
        <ele>172</ele>
        <time>2018-10-16T08:37:35Z</time>
      </trkpt>
      <trkpt lat="45.92777" lon="4.74145">
        <ele>172</ele>
        <time>2018-10-16T08:37:36Z</time>
      </trkpt>
      <trkpt lat="45.92773" lon="4.7415">
        <ele>172</ele>
        <time>2018-10-16T08:37:37Z</time>
      </trkpt>
      <trkpt lat="45.9277" lon="4.74155">
        <ele>172</ele>
        <time>2018-10-16T08:37:38Z</time>
      </trkpt>
      <trkpt lat="45.92765" lon="4.74158">
        <ele>172</ele>
        <time>2018-10-16T08:37:39Z</time>
      </trkpt>
      <trkpt lat="45.92761" lon="4.74163">
        <ele>172</ele>
        <time>2018-10-16T08:37:40Z</time>
      </trkpt>
      <trkpt lat="45.92757" lon="4.74168">
        <ele>172</ele>
        <time>2018-10-16T08:37:41Z</time>
      </trkpt>
      <trkpt lat="45.92752" lon="4.74173">
        <ele>172</ele>
        <time>2018-10-16T08:37:42Z</time>
      </trkpt>
      <trkpt lat="45.92748" lon="4.74178">
        <ele>172</ele>
        <time>2018-10-16T08:37:43Z</time>
      </trkpt>
      <trkpt lat="45.92743" lon="4.74183">
        <ele>172</ele>
        <time>2018-10-16T08:37:44Z</time>
      </trkpt>
      <trkpt lat="45.92739" lon="4.74187">
        <ele>172</ele>
        <time>2018-10-16T08:37:45Z</time>
      </trkpt>
      <trkpt lat="45.92735" lon="4.74193">
        <ele>171</ele>
        <time>2018-10-16T08:37:46Z</time>
      </trkpt>
      <trkpt lat="45.92731" lon="4.74198">
        <ele>171</ele>
        <time>2018-10-16T08:37:47Z</time>
      </trkpt>
      <trkpt lat="45.92726" lon="4.74204">
        <ele>171</ele>
        <time>2018-10-16T08:37:48Z</time>
      </trkpt>
      <trkpt lat="45.92722" lon="4.7421">
        <ele>171</ele>
        <time>2018-10-16T08:37:49Z</time>
      </trkpt>
      <trkpt lat="45.92717" lon="4.74215">
        <ele>171</ele>
        <time>2018-10-16T08:37:50Z</time>
      </trkpt>
      <trkpt lat="45.92714" lon="4.74221">
        <ele>171</ele>
        <time>2018-10-16T08:37:51Z</time>
      </trkpt>
      <trkpt lat="45.9271" lon="4.74227">
        <ele>171</ele>
        <time>2018-10-16T08:37:52Z</time>
      </trkpt>
      <trkpt lat="45.92707" lon="4.74234">
        <ele>171</ele>
        <time>2018-10-16T08:37:53Z</time>
      </trkpt>
      <trkpt lat="45.92703" lon="4.7424">
        <ele>171</ele>
        <time>2018-10-16T08:37:54Z</time>
      </trkpt>
      <trkpt lat="45.92699" lon="4.74246">
        <ele>171</ele>
        <time>2018-10-16T08:37:55Z</time>
      </trkpt>
      <trkpt lat="45.92696" lon="4.74251">
        <ele>171</ele>
        <time>2018-10-16T08:37:56Z</time>
      </trkpt>
      <trkpt lat="45.92693" lon="4.74257">
        <ele>171</ele>
        <time>2018-10-16T08:37:57Z</time>
      </trkpt>
      <trkpt lat="45.92689" lon="4.74262">
        <ele>171</ele>
        <time>2018-10-16T08:37:58Z</time>
      </trkpt>
      <trkpt lat="45.92686" lon="4.74268">
        <ele>171</ele>
        <time>2018-10-16T08:37:59Z</time>
      </trkpt>
      <trkpt lat="45.92683" lon="4.74274">
        <ele>171</ele>
        <time>2018-10-16T08:38:00Z</time>
      </trkpt>
      <trkpt lat="45.92679" lon="4.7428">
        <ele>171</ele>
        <time>2018-10-16T08:38:01Z</time>
      </trkpt>
      <trkpt lat="45.92676" lon="4.74286">
        <ele>171</ele>
        <time>2018-10-16T08:38:02Z</time>
      </trkpt>
      <trkpt lat="45.92673" lon="4.74291">
        <ele>171</ele>
        <time>2018-10-16T08:38:03Z</time>
      </trkpt>
      <trkpt lat="45.92669" lon="4.74297">
        <ele>171</ele>
        <time>2018-10-16T08:38:04Z</time>
      </trkpt>
      <trkpt lat="45.92665" lon="4.74304">
        <ele>171</ele>
        <time>2018-10-16T08:38:05Z</time>
      </trkpt>
      <trkpt lat="45.92661" lon="4.74311">
        <ele>171</ele>
        <time>2018-10-16T08:38:06Z</time>
      </trkpt>
      <trkpt lat="45.92658" lon="4.74318">
        <ele>171</ele>
        <time>2018-10-16T08:38:07Z</time>
      </trkpt>
      <trkpt lat="45.92654" lon="4.74324">
        <ele>171</ele>
        <time>2018-10-16T08:38:08Z</time>
      </trkpt>
      <trkpt lat="45.92651" lon="4.74331">
        <ele>171</ele>
        <time>2018-10-16T08:38:09Z</time>
      </trkpt>
      <trkpt lat="45.92647" lon="4.74338">
        <ele>171</ele>
        <time>2018-10-16T08:38:10Z</time>
      </trkpt>
      <trkpt lat="45.92643" lon="4.74345">
        <ele>171</ele>
        <time>2018-10-16T08:38:11Z</time>
      </trkpt>
      <trkpt lat="45.9264" lon="4.74351">
        <ele>171</ele>
        <time>2018-10-16T08:38:12Z</time>
      </trkpt>
      <trkpt lat="45.92636" lon="4.74358">
        <ele>171</ele>
        <time>2018-10-16T08:38:13Z</time>
      </trkpt>
      <trkpt lat="45.92633" lon="4.74365">
        <ele>171</ele>
        <time>2018-10-16T08:38:14Z</time>
      </trkpt>
      <trkpt lat="45.92629" lon="4.74371">
        <ele>171</ele>
        <time>2018-10-16T08:38:15Z</time>
      </trkpt>
      <trkpt lat="45.92626" lon="4.74377">
        <ele>170</ele>
        <time>2018-10-16T08:38:16Z</time>
      </trkpt>
      <trkpt lat="45.92622" lon="4.74384">
        <ele>170</ele>
        <time>2018-10-16T08:38:17Z</time>
      </trkpt>
      <trkpt lat="45.92618" lon="4.74391">
        <ele>170</ele>
        <time>2018-10-16T08:38:18Z</time>
      </trkpt>
      <trkpt lat="45.92615" lon="4.74396">
        <ele>170</ele>
        <time>2018-10-16T08:38:19Z</time>
      </trkpt>
      <trkpt lat="45.92611" lon="4.74402">
        <ele>170</ele>
        <time>2018-10-16T08:38:20Z</time>
      </trkpt>
      <trkpt lat="45.92608" lon="4.74409">
        <ele>170</ele>
        <time>2018-10-16T08:38:21Z</time>
      </trkpt>
      <trkpt lat="45.92604" lon="4.74416">
        <ele>170</ele>
        <time>2018-10-16T08:38:22Z</time>
      </trkpt>
      <trkpt lat="45.926" lon="4.74423">
        <ele>170</ele>
        <time>2018-10-16T08:38:23Z</time>
      </trkpt>
      <trkpt lat="45.92597" lon="4.7443">
        <ele>170</ele>
        <time>2018-10-16T08:38:24Z</time>
      </trkpt>
      <trkpt lat="45.92593" lon="4.74438">
        <ele>170</ele>
        <time>2018-10-16T08:38:25Z</time>
      </trkpt>
      <trkpt lat="45.92589" lon="4.74445">
        <ele>170</ele>
        <time>2018-10-16T08:38:26Z</time>
      </trkpt>
      <trkpt lat="45.92586" lon="4.74452">
        <ele>170</ele>
        <time>2018-10-16T08:38:27Z</time>
      </trkpt>
      <trkpt lat="45.92582" lon="4.74459">
        <ele>170</ele>
        <time>2018-10-16T08:38:28Z</time>
      </trkpt>
      <trkpt lat="45.92578" lon="4.74465">
        <ele>170</ele>
        <time>2018-10-16T08:38:29Z</time>
      </trkpt>
      <trkpt lat="45.92574" lon="4.74472">
        <ele>170</ele>
        <time>2018-10-16T08:38:30Z</time>
      </trkpt>
      <trkpt lat="45.92571" lon="4.74479">
        <ele>170</ele>
        <time>2018-10-16T08:38:31Z</time>
      </trkpt>
      <trkpt lat="45.92567" lon="4.74487">
        <ele>170</ele>
        <time>2018-10-16T08:38:32Z</time>
      </trkpt>
      <trkpt lat="45.92563" lon="4.74494">
        <ele>170</ele>
        <time>2018-10-16T08:38:33Z</time>
      </trkpt>
      <trkpt lat="45.9256" lon="4.74501">
        <ele>170</ele>
        <time>2018-10-16T08:38:34Z</time>
      </trkpt>
      <trkpt lat="45.92556" lon="4.74508">
        <ele>170</ele>
        <time>2018-10-16T08:38:35Z</time>
      </trkpt>
      <trkpt lat="45.92552" lon="4.74514">
        <ele>170</ele>
        <time>2018-10-16T08:38:36Z</time>
      </trkpt>
      <trkpt lat="45.92549" lon="4.74521">
        <ele>170</ele>
        <time>2018-10-16T08:38:37Z</time>
      </trkpt>
      <trkpt lat="45.92545" lon="4.74527">
        <ele>170</ele>
        <time>2018-10-16T08:38:38Z</time>
      </trkpt>
      <trkpt lat="45.92541" lon="4.74533">
        <ele>171</ele>
        <time>2018-10-16T08:38:39Z</time>
      </trkpt>
      <trkpt lat="45.92536" lon="4.74541">
        <ele>171</ele>
        <time>2018-10-16T08:38:40Z</time>
      </trkpt>
      <trkpt lat="45.92532" lon="4.74548">
        <ele>171</ele>
        <time>2018-10-16T08:38:41Z</time>
      </trkpt>
      <trkpt lat="45.92527" lon="4.74555">
        <ele>171</ele>
        <time>2018-10-16T08:38:42Z</time>
      </trkpt>
      <trkpt lat="45.92523" lon="4.74561">
        <ele>171</ele>
        <time>2018-10-16T08:38:43Z</time>
      </trkpt>
      <trkpt lat="45.92518" lon="4.74567">
        <ele>171</ele>
        <time>2018-10-16T08:38:44Z</time>
      </trkpt>
      <trkpt lat="45.92514" lon="4.74572">
        <ele>171</ele>
        <time>2018-10-16T08:38:45Z</time>
      </trkpt>
      <trkpt lat="45.9251" lon="4.74578">
        <ele>171</ele>
        <time>2018-10-16T08:38:46Z</time>
      </trkpt>
      <trkpt lat="45.92507" lon="4.74586">
        <ele>171</ele>
        <time>2018-10-16T08:38:47Z</time>
      </trkpt>
      <trkpt lat="45.92503" lon="4.74591">
        <ele>171</ele>
        <time>2018-10-16T08:38:48Z</time>
      </trkpt>
      <trkpt lat="45.92499" lon="4.74598">
        <ele>171</ele>
        <time>2018-10-16T08:38:49Z</time>
      </trkpt>
      <trkpt lat="45.92493" lon="4.74604">
        <ele>171</ele>
        <time>2018-10-16T08:38:50Z</time>
      </trkpt>
      <trkpt lat="45.92489" lon="4.74609">
        <ele>171</ele>
        <time>2018-10-16T08:38:51Z</time>
      </trkpt>
      <trkpt lat="45.92486" lon="4.74616">
        <ele>171</ele>
        <time>2018-10-16T08:38:52Z</time>
      </trkpt>
      <trkpt lat="45.92481" lon="4.74621">
        <ele>171</ele>
        <time>2018-10-16T08:38:53Z</time>
      </trkpt>
      <trkpt lat="45.92479" lon="4.74628">
        <ele>171</ele>
        <time>2018-10-16T08:38:54Z</time>
      </trkpt>
      <trkpt lat="45.92475" lon="4.74634">
        <ele>171</ele>
        <time>2018-10-16T08:38:55Z</time>
      </trkpt>
      <trkpt lat="45.92472" lon="4.74638">
        <ele>171</ele>
        <time>2018-10-16T08:38:56Z</time>
      </trkpt>
      <trkpt lat="45.92468" lon="4.74644">
        <ele>171</ele>
        <time>2018-10-16T08:38:57Z</time>
      </trkpt>
      <trkpt lat="45.92465" lon="4.74649">
        <ele>171</ele>
        <time>2018-10-16T08:38:58Z</time>
      </trkpt>
      <trkpt lat="45.92461" lon="4.74655">
        <ele>171</ele>
        <time>2018-10-16T08:38:59Z</time>
      </trkpt>
      <trkpt lat="45.92451" lon="4.7467">
        <ele>171</ele>
        <time>2018-10-16T08:39:02Z</time>
      </trkpt>
      <trkpt lat="45.92448" lon="4.74675">
        <ele>171</ele>
        <time>2018-10-16T08:39:03Z</time>
      </trkpt>
      <trkpt lat="45.92444" lon="4.74681">
        <ele>171</ele>
        <time>2018-10-16T08:39:04Z</time>
      </trkpt>
      <trkpt lat="45.9244" lon="4.74685">
        <ele>171</ele>
        <time>2018-10-16T08:39:05Z</time>
      </trkpt>
      <trkpt lat="45.92438" lon="4.74693">
        <ele>171</ele>
        <time>2018-10-16T08:39:06Z</time>
      </trkpt>
      <trkpt lat="45.92434" lon="4.74697">
        <ele>171</ele>
        <time>2018-10-16T08:39:07Z</time>
      </trkpt>
      <trkpt lat="45.9243" lon="4.74705">
        <ele>171</ele>
        <time>2018-10-16T08:39:08Z</time>
      </trkpt>
      <trkpt lat="45.92429" lon="4.74711">
        <ele>171</ele>
        <time>2018-10-16T08:39:09Z</time>
      </trkpt>
      <trkpt lat="45.92426" lon="4.74718">
        <ele>171</ele>
        <time>2018-10-16T08:39:10Z</time>
      </trkpt>
      <trkpt lat="45.92424" lon="4.74726">
        <ele>171</ele>
        <time>2018-10-16T08:39:11Z</time>
      </trkpt>
      <trkpt lat="45.92421" lon="4.74734">
        <ele>171</ele>
        <time>2018-10-16T08:39:12Z</time>
      </trkpt>
      <trkpt lat="45.92419" lon="4.7474">
        <ele>172</ele>
        <time>2018-10-16T08:39:13Z</time>
      </trkpt>
      <trkpt lat="45.92417" lon="4.74748">
        <ele>172</ele>
        <time>2018-10-16T08:39:14Z</time>
      </trkpt>
      <trkpt lat="45.92414" lon="4.74755">
        <ele>172</ele>
        <time>2018-10-16T08:39:15Z</time>
      </trkpt>
      <trkpt lat="45.92414" lon="4.74762">
        <ele>172</ele>
        <time>2018-10-16T08:39:16Z</time>
      </trkpt>
      <trkpt lat="45.92412" lon="4.74769">
        <ele>172</ele>
        <time>2018-10-16T08:39:17Z</time>
      </trkpt>
      <trkpt lat="45.92412" lon="4.74777">
        <ele>171</ele>
        <time>2018-10-16T08:39:18Z</time>
      </trkpt>
      <trkpt lat="45.9241" lon="4.74785">
        <ele>171</ele>
        <time>2018-10-16T08:39:19Z</time>
      </trkpt>
      <trkpt lat="45.92408" lon="4.74793">
        <ele>171</ele>
        <time>2018-10-16T08:39:20Z</time>
      </trkpt>
      <trkpt lat="45.92407" lon="4.74802">
        <ele>171</ele>
        <time>2018-10-16T08:39:21Z</time>
      </trkpt>
      <trkpt lat="45.92406" lon="4.7481">
        <ele>171</ele>
        <time>2018-10-16T08:39:22Z</time>
      </trkpt>
      <trkpt lat="45.92404" lon="4.74817">
        <ele>171</ele>
        <time>2018-10-16T08:39:23Z</time>
      </trkpt>
      <trkpt lat="45.92401" lon="4.74825">
        <ele>171</ele>
        <time>2018-10-16T08:39:24Z</time>
      </trkpt>
      <trkpt lat="45.924" lon="4.74833">
        <ele>171</ele>
        <time>2018-10-16T08:39:25Z</time>
      </trkpt>
      <trkpt lat="45.92398" lon="4.74841">
        <ele>171</ele>
        <time>2018-10-16T08:39:26Z</time>
      </trkpt>
      <trkpt lat="45.92395" lon="4.7485">
        <ele>171</ele>
        <time>2018-10-16T08:39:27Z</time>
      </trkpt>
      <trkpt lat="45.92393" lon="4.74856">
        <ele>171</ele>
        <time>2018-10-16T08:39:28Z</time>
      </trkpt>
      <trkpt lat="45.9239" lon="4.74863">
        <ele>171</ele>
        <time>2018-10-16T08:39:29Z</time>
      </trkpt>
      <trkpt lat="45.92387" lon="4.74873">
        <ele>171</ele>
        <time>2018-10-16T08:39:30Z</time>
      </trkpt>
      <trkpt lat="45.92383" lon="4.74881">
        <ele>171</ele>
        <time>2018-10-16T08:39:31Z</time>
      </trkpt>
      <trkpt lat="45.9238" lon="4.74888">
        <ele>171</ele>
        <time>2018-10-16T08:39:32Z</time>
      </trkpt>
      <trkpt lat="45.92376" lon="4.74897">
        <ele>171</ele>
        <time>2018-10-16T08:39:33Z</time>
      </trkpt>
      <trkpt lat="45.92373" lon="4.74904">
        <ele>171</ele>
        <time>2018-10-16T08:39:34Z</time>
      </trkpt>
      <trkpt lat="45.9237" lon="4.74912">
        <ele>171</ele>
        <time>2018-10-16T08:39:35Z</time>
      </trkpt>
      <trkpt lat="45.92367" lon="4.74919">
        <ele>170</ele>
        <time>2018-10-16T08:39:36Z</time>
      </trkpt>
      <trkpt lat="45.92364" lon="4.74926">
        <ele>170</ele>
        <time>2018-10-16T08:39:37Z</time>
      </trkpt>
      <trkpt lat="45.92362" lon="4.74932">
        <ele>170</ele>
        <time>2018-10-16T08:39:38Z</time>
      </trkpt>
      <trkpt lat="45.9236" lon="4.74938">
        <ele>170</ele>
        <time>2018-10-16T08:39:39Z</time>
      </trkpt>
      <trkpt lat="45.92355" lon="4.74945">
        <ele>170</ele>
        <time>2018-10-16T08:39:40Z</time>
      </trkpt>
      <trkpt lat="45.92352" lon="4.74953">
        <ele>170</ele>
        <time>2018-10-16T08:39:41Z</time>
      </trkpt>
      <trkpt lat="45.92349" lon="4.74961">
        <ele>170</ele>
        <time>2018-10-16T08:39:42Z</time>
      </trkpt>
      <trkpt lat="45.92346" lon="4.74968">
        <ele>170</ele>
        <time>2018-10-16T08:39:43Z</time>
      </trkpt>
      <trkpt lat="45.92344" lon="4.74976">
        <ele>170</ele>
        <time>2018-10-16T08:39:44Z</time>
      </trkpt>
      <trkpt lat="45.92342" lon="4.74986">
        <ele>170</ele>
        <time>2018-10-16T08:39:45Z</time>
      </trkpt>
      <trkpt lat="45.9234" lon="4.74994">
        <ele>170</ele>
        <time>2018-10-16T08:39:46Z</time>
      </trkpt>
      <trkpt lat="45.92336" lon="4.75002">
        <ele>170</ele>
        <time>2018-10-16T08:39:47Z</time>
      </trkpt>
      <trkpt lat="45.92333" lon="4.7501">
        <ele>170</ele>
        <time>2018-10-16T08:39:48Z</time>
      </trkpt>
      <trkpt lat="45.9233" lon="4.75017">
        <ele>171</ele>
        <time>2018-10-16T08:39:49Z</time>
      </trkpt>
      <trkpt lat="45.92327" lon="4.75023">
        <ele>171</ele>
        <time>2018-10-16T08:39:50Z</time>
      </trkpt>
      <trkpt lat="45.92324" lon="4.75029">
        <ele>171</ele>
        <time>2018-10-16T08:39:51Z</time>
      </trkpt>
      <trkpt lat="45.92319" lon="4.75036">
        <ele>171</ele>
        <time>2018-10-16T08:39:52Z</time>
      </trkpt>
      <trkpt lat="45.92317" lon="4.75042">
        <ele>172</ele>
        <time>2018-10-16T08:39:53Z</time>
      </trkpt>
      <trkpt lat="45.92313" lon="4.75048">
        <ele>172</ele>
        <time>2018-10-16T08:39:54Z</time>
      </trkpt>
      <trkpt lat="45.92309" lon="4.75054">
        <ele>172</ele>
        <time>2018-10-16T08:39:55Z</time>
      </trkpt>
      <trkpt lat="45.92303" lon="4.7506">
        <ele>172</ele>
        <time>2018-10-16T08:39:56Z</time>
      </trkpt>
      <trkpt lat="45.923" lon="4.75067">
        <ele>172</ele>
        <time>2018-10-16T08:39:57Z</time>
      </trkpt>
      <trkpt lat="45.92296" lon="4.75072">
        <ele>172</ele>
        <time>2018-10-16T08:39:58Z</time>
      </trkpt>
      <trkpt lat="45.92291" lon="4.75078">
        <ele>172</ele>
        <time>2018-10-16T08:39:59Z</time>
      </trkpt>
      <trkpt lat="45.92286" lon="4.75083">
        <ele>172</ele>
        <time>2018-10-16T08:40:00Z</time>
      </trkpt>
      <trkpt lat="45.92283" lon="4.7509">
        <ele>173</ele>
        <time>2018-10-16T08:40:01Z</time>
      </trkpt>
      <trkpt lat="45.92278" lon="4.75096">
        <ele>173</ele>
        <time>2018-10-16T08:40:02Z</time>
      </trkpt>
      <trkpt lat="45.92272" lon="4.75101">
        <ele>173</ele>
        <time>2018-10-16T08:40:03Z</time>
      </trkpt>
      <trkpt lat="45.92268" lon="4.75107">
        <ele>174</ele>
        <time>2018-10-16T08:40:04Z</time>
      </trkpt>
      <trkpt lat="45.92263" lon="4.75112">
        <ele>174</ele>
        <time>2018-10-16T08:40:05Z</time>
      </trkpt>
      <trkpt lat="45.92258" lon="4.75117">
        <ele>174</ele>
        <time>2018-10-16T08:40:06Z</time>
      </trkpt>
      <trkpt lat="45.92252" lon="4.75122">
        <ele>174</ele>
        <time>2018-10-16T08:40:07Z</time>
      </trkpt>
      <trkpt lat="45.92249" lon="4.75129">
        <ele>174</ele>
        <time>2018-10-16T08:40:08Z</time>
      </trkpt>
      <trkpt lat="45.92245" lon="4.75135">
        <ele>174</ele>
        <time>2018-10-16T08:40:09Z</time>
      </trkpt>
      <trkpt lat="45.92241" lon="4.75141">
        <ele>174</ele>
        <time>2018-10-16T08:40:10Z</time>
      </trkpt>
      <trkpt lat="45.92236" lon="4.75146">
        <ele>174</ele>
        <time>2018-10-16T08:40:11Z</time>
      </trkpt>
      <trkpt lat="45.92234" lon="4.75152">
        <ele>174</ele>
        <time>2018-10-16T08:40:12Z</time>
      </trkpt>
      <trkpt lat="45.9223" lon="4.75159">
        <ele>174</ele>
        <time>2018-10-16T08:40:13Z</time>
      </trkpt>
      <trkpt lat="45.92226" lon="4.75166">
        <ele>174</ele>
        <time>2018-10-16T08:40:14Z</time>
      </trkpt>
      <trkpt lat="45.92224" lon="4.75173">
        <ele>175</ele>
        <time>2018-10-16T08:40:15Z</time>
      </trkpt>
      <trkpt lat="45.92221" lon="4.7518">
        <ele>175</ele>
        <time>2018-10-16T08:40:16Z</time>
      </trkpt>
      <trkpt lat="45.92218" lon="4.75191">
        <ele>175</ele>
        <time>2018-10-16T08:40:18Z</time>
      </trkpt>
      <trkpt lat="45.92217" lon="4.75199">
        <ele>175</ele>
        <time>2018-10-16T08:40:19Z</time>
      </trkpt>
      <trkpt lat="45.92214" lon="4.7521">
        <ele>175</ele>
        <time>2018-10-16T08:40:21Z</time>
      </trkpt>
      <trkpt lat="45.92213" lon="4.75216">
        <ele>175</ele>
        <time>2018-10-16T08:40:22Z</time>
      </trkpt>
      <trkpt lat="45.92212" lon="4.75228">
        <ele>175</ele>
        <time>2018-10-16T08:40:24Z</time>
      </trkpt>
      <trkpt lat="45.92211" lon="4.75233">
        <ele>175</ele>
        <time>2018-10-16T08:40:25Z</time>
      </trkpt>
      <trkpt lat="45.92209" lon="4.75245">
        <ele>175</ele>
        <time>2018-10-16T08:40:27Z</time>
      </trkpt>
      <trkpt lat="45.92208" lon="4.75251">
        <ele>175</ele>
        <time>2018-10-16T08:40:28Z</time>
      </trkpt>
      <trkpt lat="45.92208" lon="4.75261">
        <ele>176</ele>
        <time>2018-10-16T08:40:30Z</time>
      </trkpt>
      <trkpt lat="45.92206" lon="4.75266">
        <ele>176</ele>
        <time>2018-10-16T08:40:31Z</time>
      </trkpt>
      <trkpt lat="45.92205" lon="4.75273">
        <ele>176</ele>
        <time>2018-10-16T08:40:32Z</time>
      </trkpt>
      <trkpt lat="45.92207" lon="4.75283">
        <ele>176</ele>
        <time>2018-10-16T08:40:33Z</time>
      </trkpt>
      <trkpt lat="45.92207" lon="4.75296">
        <ele>176</ele>
        <time>2018-10-16T08:40:35Z</time>
      </trkpt>
      <trkpt lat="45.92207" lon="4.75302">
        <ele>176</ele>
        <time>2018-10-16T08:40:36Z</time>
      </trkpt>
      <trkpt lat="45.92207" lon="4.75312">
        <ele>176</ele>
        <time>2018-10-16T08:40:37Z</time>
      </trkpt>
      <trkpt lat="45.92204" lon="4.75319">
        <ele>176</ele>
        <time>2018-10-16T08:40:38Z</time>
      </trkpt>
      <trkpt lat="45.92205" lon="4.75329">
        <ele>176</ele>
        <time>2018-10-16T08:40:40Z</time>
      </trkpt>
      <trkpt lat="45.92203" lon="4.75333">
        <ele>177</ele>
        <time>2018-10-16T08:40:41Z</time>
      </trkpt>
      <trkpt lat="45.92201" lon="4.75346">
        <ele>177</ele>
        <time>2018-10-16T08:40:43Z</time>
      </trkpt>
      <trkpt lat="45.922" lon="4.75352">
        <ele>177</ele>
        <time>2018-10-16T08:40:44Z</time>
      </trkpt>
      <trkpt lat="45.92198" lon="4.75358">
        <ele>177</ele>
        <time>2018-10-16T08:40:45Z</time>
      </trkpt>
      <trkpt lat="45.92197" lon="4.75364">
        <ele>177</ele>
        <time>2018-10-16T08:40:46Z</time>
      </trkpt>
      <trkpt lat="45.92195" lon="4.75372">
        <ele>177</ele>
        <time>2018-10-16T08:40:47Z</time>
      </trkpt>
      <trkpt lat="45.92193" lon="4.75377">
        <ele>177</ele>
        <time>2018-10-16T08:40:48Z</time>
      </trkpt>
      <trkpt lat="45.92191" lon="4.75383">
        <ele>177</ele>
        <time>2018-10-16T08:40:49Z</time>
      </trkpt>
      <trkpt lat="45.92189" lon="4.75389">
        <ele>177</ele>
        <time>2018-10-16T08:40:50Z</time>
      </trkpt>
      <trkpt lat="45.92186" lon="4.75396">
        <ele>177</ele>
        <time>2018-10-16T08:40:51Z</time>
      </trkpt>
      <trkpt lat="45.92184" lon="4.75405">
        <ele>177</ele>
        <time>2018-10-16T08:40:52Z</time>
      </trkpt>
      <trkpt lat="45.92181" lon="4.75409">
        <ele>177</ele>
        <time>2018-10-16T08:40:53Z</time>
      </trkpt>
      <trkpt lat="45.92178" lon="4.75416">
        <ele>178</ele>
        <time>2018-10-16T08:40:54Z</time>
      </trkpt>
      <trkpt lat="45.92175" lon="4.75422">
        <ele>177</ele>
        <time>2018-10-16T08:40:55Z</time>
      </trkpt>
      <trkpt lat="45.92172" lon="4.75429">
        <ele>177</ele>
        <time>2018-10-16T08:40:56Z</time>
      </trkpt>
      <trkpt lat="45.92169" lon="4.75435">
        <ele>177</ele>
        <time>2018-10-16T08:40:57Z</time>
      </trkpt>
      <trkpt lat="45.92167" lon="4.75442">
        <ele>177</ele>
        <time>2018-10-16T08:40:58Z</time>
      </trkpt>
      <trkpt lat="45.92164" lon="4.75448">
        <ele>176</ele>
        <time>2018-10-16T08:40:59Z</time>
      </trkpt>
      <trkpt lat="45.92161" lon="4.75456">
        <ele>176</ele>
        <time>2018-10-16T08:41:00Z</time>
      </trkpt>
      <trkpt lat="45.92158" lon="4.75462">
        <ele>176</ele>
        <time>2018-10-16T08:41:01Z</time>
      </trkpt>
      <trkpt lat="45.92154" lon="4.7547">
        <ele>176</ele>
        <time>2018-10-16T08:41:02Z</time>
      </trkpt>
      <trkpt lat="45.92151" lon="4.75478">
        <ele>176</ele>
        <time>2018-10-16T08:41:03Z</time>
      </trkpt>
      <trkpt lat="45.92148" lon="4.75487">
        <ele>176</ele>
        <time>2018-10-16T08:41:04Z</time>
      </trkpt>
      <trkpt lat="45.92146" lon="4.75495">
        <ele>175</ele>
        <time>2018-10-16T08:41:05Z</time>
      </trkpt>
      <trkpt lat="45.92144" lon="4.75503">
        <ele>175</ele>
        <time>2018-10-16T08:41:06Z</time>
      </trkpt>
      <trkpt lat="45.9214" lon="4.7551">
        <ele>174</ele>
        <time>2018-10-16T08:41:07Z</time>
      </trkpt>
      <trkpt lat="45.92137" lon="4.75516">
        <ele>174</ele>
        <time>2018-10-16T08:41:08Z</time>
      </trkpt>
      <trkpt lat="45.92132" lon="4.75523">
        <ele>174</ele>
        <time>2018-10-16T08:41:09Z</time>
      </trkpt>
      <trkpt lat="45.92129" lon="4.7553">
        <ele>174</ele>
        <time>2018-10-16T08:41:10Z</time>
      </trkpt>
      <trkpt lat="45.92125" lon="4.75537">
        <ele>174</ele>
        <time>2018-10-16T08:41:11Z</time>
      </trkpt>
      <trkpt lat="45.92124" lon="4.75545">
        <ele>174</ele>
        <time>2018-10-16T08:41:12Z</time>
      </trkpt>
      <trkpt lat="45.9212" lon="4.75553">
        <ele>174</ele>
        <time>2018-10-16T08:41:13Z</time>
      </trkpt>
      <trkpt lat="45.92117" lon="4.75559">
        <ele>174</ele>
        <time>2018-10-16T08:41:14Z</time>
      </trkpt>
      <trkpt lat="45.92116" lon="4.75565">
        <ele>174</ele>
        <time>2018-10-16T08:41:15Z</time>
      </trkpt>
      <trkpt lat="45.92113" lon="4.75573">
        <ele>174</ele>
        <time>2018-10-16T08:41:16Z</time>
      </trkpt>
      <trkpt lat="45.92112" lon="4.7558">
        <ele>174</ele>
        <time>2018-10-16T08:41:17Z</time>
      </trkpt>
      <trkpt lat="45.92112" lon="4.75589">
        <ele>174</ele>
        <time>2018-10-16T08:41:18Z</time>
      </trkpt>
      <trkpt lat="45.92117" lon="4.75593">
        <ele>174</ele>
        <time>2018-10-16T08:41:19Z</time>
      </trkpt>
      <trkpt lat="45.92121" lon="4.75597">
        <ele>174</ele>
        <time>2018-10-16T08:41:20Z</time>
      </trkpt>
      <trkpt lat="45.92126" lon="4.75602">
        <ele>174</ele>
        <time>2018-10-16T08:41:21Z</time>
      </trkpt>
      <trkpt lat="45.9213" lon="4.75605">
        <ele>174</ele>
        <time>2018-10-16T08:41:22Z</time>
      </trkpt>
      <trkpt lat="45.92135" lon="4.75608">
        <ele>174</ele>
        <time>2018-10-16T08:41:23Z</time>
      </trkpt>
      <trkpt lat="45.92139" lon="4.75612">
        <ele>174</ele>
        <time>2018-10-16T08:41:24Z</time>
      </trkpt>
      <trkpt lat="45.92143" lon="4.75616">
        <ele>174</ele>
        <time>2018-10-16T08:41:25Z</time>
      </trkpt>
      <trkpt lat="45.92148" lon="4.75619">
        <ele>174</ele>
        <time>2018-10-16T08:41:26Z</time>
      </trkpt>
      <trkpt lat="45.92154" lon="4.75624">
        <ele>174</ele>
        <time>2018-10-16T08:41:27Z</time>
      </trkpt>
      <trkpt lat="45.92158" lon="4.75628">
        <ele>174</ele>
        <time>2018-10-16T08:41:28Z</time>
      </trkpt>
      <trkpt lat="45.92162" lon="4.75632">
        <ele>174</ele>
        <time>2018-10-16T08:41:29Z</time>
      </trkpt>
      <trkpt lat="45.92167" lon="4.75635">
        <ele>174</ele>
        <time>2018-10-16T08:41:30Z</time>
      </trkpt>
      <trkpt lat="45.92172" lon="4.75641">
        <ele>174</ele>
        <time>2018-10-16T08:41:31Z</time>
      </trkpt>
      <trkpt lat="45.92177" lon="4.75646">
        <ele>174</ele>
        <time>2018-10-16T08:41:32Z</time>
      </trkpt>
      <trkpt lat="45.92181" lon="4.7565">
        <ele>174</ele>
        <time>2018-10-16T08:41:33Z</time>
      </trkpt>
      <trkpt lat="45.92186" lon="4.75655">
        <ele>174</ele>
        <time>2018-10-16T08:41:34Z</time>
      </trkpt>
      <trkpt lat="45.9219" lon="4.75659">
        <ele>174</ele>
        <time>2018-10-16T08:41:35Z</time>
      </trkpt>
      <trkpt lat="45.92195" lon="4.75664">
        <ele>174</ele>
        <time>2018-10-16T08:41:36Z</time>
      </trkpt>
      <trkpt lat="45.92199" lon="4.75668">
        <ele>174</ele>
        <time>2018-10-16T08:41:37Z</time>
      </trkpt>
      <trkpt lat="45.92203" lon="4.75673">
        <ele>174</ele>
        <time>2018-10-16T08:41:38Z</time>
      </trkpt>
      <trkpt lat="45.92207" lon="4.75677">
        <ele>174</ele>
        <time>2018-10-16T08:41:39Z</time>
      </trkpt>
      <trkpt lat="45.92211" lon="4.75683">
        <ele>174</ele>
        <time>2018-10-16T08:41:40Z</time>
      </trkpt>
      <trkpt lat="45.92215" lon="4.75687">
        <ele>174</ele>
        <time>2018-10-16T08:41:41Z</time>
      </trkpt>
      <trkpt lat="45.92218" lon="4.75693">
        <ele>174</ele>
        <time>2018-10-16T08:41:42Z</time>
      </trkpt>
      <trkpt lat="45.92223" lon="4.75697">
        <ele>174</ele>
        <time>2018-10-16T08:41:43Z</time>
      </trkpt>
      <trkpt lat="45.92227" lon="4.75702">
        <ele>174</ele>
        <time>2018-10-16T08:41:44Z</time>
      </trkpt>
      <trkpt lat="45.92233" lon="4.75706">
        <ele>174</ele>
        <time>2018-10-16T08:41:45Z</time>
      </trkpt>
      <trkpt lat="45.92236" lon="4.75712">
        <ele>174</ele>
        <time>2018-10-16T08:41:46Z</time>
      </trkpt>
      <trkpt lat="45.92239" lon="4.75718">
        <ele>174</ele>
        <time>2018-10-16T08:41:47Z</time>
      </trkpt>
      <trkpt lat="45.92242" lon="4.75724">
        <ele>174</ele>
        <time>2018-10-16T08:41:48Z</time>
      </trkpt>
      <trkpt lat="45.92244" lon="4.75731">
        <ele>174</ele>
        <time>2018-10-16T08:41:49Z</time>
      </trkpt>
      <trkpt lat="45.92247" lon="4.75737">
        <ele>174</ele>
        <time>2018-10-16T08:41:50Z</time>
      </trkpt>
      <trkpt lat="45.92249" lon="4.75748">
        <ele>174</ele>
        <time>2018-10-16T08:41:52Z</time>
      </trkpt>
      <trkpt lat="45.92251" lon="4.75754">
        <ele>174</ele>
        <time>2018-10-16T08:41:53Z</time>
      </trkpt>
      <trkpt lat="45.92254" lon="4.75765">
        <ele>174</ele>
        <time>2018-10-16T08:41:55Z</time>
      </trkpt>
      <trkpt lat="45.92256" lon="4.75772">
        <ele>174</ele>
        <time>2018-10-16T08:41:56Z</time>
      </trkpt>
      <trkpt lat="45.92258" lon="4.75778">
        <ele>174</ele>
        <time>2018-10-16T08:41:57Z</time>
      </trkpt>
      <trkpt lat="45.9226" lon="4.75785">
        <ele>174</ele>
        <time>2018-10-16T08:41:58Z</time>
      </trkpt>
      <trkpt lat="45.92261" lon="4.75791">
        <ele>174</ele>
        <time>2018-10-16T08:41:59Z</time>
      </trkpt>
      <trkpt lat="45.92262" lon="4.75798">
        <ele>174</ele>
        <time>2018-10-16T08:42:00Z</time>
      </trkpt>
      <trkpt lat="45.92263" lon="4.75803">
        <ele>174</ele>
        <time>2018-10-16T08:42:01Z</time>
      </trkpt>
      <trkpt lat="45.92266" lon="4.7581">
        <ele>174</ele>
        <time>2018-10-16T08:42:02Z</time>
      </trkpt>
      <trkpt lat="45.92269" lon="4.75817">
        <ele>174</ele>
        <time>2018-10-16T08:42:03Z</time>
      </trkpt>
      <trkpt lat="45.92272" lon="4.75823">
        <ele>174</ele>
        <time>2018-10-16T08:42:04Z</time>
      </trkpt>
      <trkpt lat="45.92277" lon="4.75828">
        <ele>174</ele>
        <time>2018-10-16T08:42:05Z</time>
      </trkpt>
      <trkpt lat="45.92283" lon="4.75833">
        <ele>174</ele>
        <time>2018-10-16T08:42:06Z</time>
      </trkpt>
      <trkpt lat="45.92288" lon="4.75838">
        <ele>173</ele>
        <time>2018-10-16T08:42:07Z</time>
      </trkpt>
      <trkpt lat="45.92295" lon="4.75841">
        <ele>173</ele>
        <time>2018-10-16T08:42:08Z</time>
      </trkpt>
      <trkpt lat="45.92301" lon="4.75845">
        <ele>173</ele>
        <time>2018-10-16T08:42:09Z</time>
      </trkpt>
      <trkpt lat="45.92306" lon="4.75849">
        <ele>173</ele>
        <time>2018-10-16T08:42:10Z</time>
      </trkpt>
      <trkpt lat="45.92312" lon="4.75853">
        <ele>173</ele>
        <time>2018-10-16T08:42:11Z</time>
      </trkpt>
      <trkpt lat="45.92317" lon="4.75854">
        <ele>173</ele>
        <time>2018-10-16T08:42:12Z</time>
      </trkpt>
      <trkpt lat="45.92323" lon="4.75857">
        <ele>173</ele>
        <time>2018-10-16T08:42:13Z</time>
      </trkpt>
      <trkpt lat="45.9233" lon="4.7586">
        <ele>173</ele>
        <time>2018-10-16T08:42:14Z</time>
      </trkpt>
      <trkpt lat="45.92337" lon="4.75863">
        <ele>173</ele>
        <time>2018-10-16T08:42:15Z</time>
      </trkpt>
      <trkpt lat="45.92341" lon="4.75866">
        <ele>173</ele>
        <time>2018-10-16T08:42:16Z</time>
      </trkpt>
      <trkpt lat="45.92346" lon="4.7587">
        <ele>173</ele>
        <time>2018-10-16T08:42:17Z</time>
      </trkpt>
      <trkpt lat="45.92351" lon="4.75874">
        <ele>173</ele>
        <time>2018-10-16T08:42:18Z</time>
      </trkpt>
      <trkpt lat="45.92356" lon="4.75877">
        <ele>173</ele>
        <time>2018-10-16T08:42:19Z</time>
      </trkpt>
      <trkpt lat="45.92361" lon="4.75881">
        <ele>173</ele>
        <time>2018-10-16T08:42:20Z</time>
      </trkpt>
      <trkpt lat="45.92367" lon="4.75885">
        <ele>173</ele>
        <time>2018-10-16T08:42:21Z</time>
      </trkpt>
      <trkpt lat="45.92373" lon="4.75889">
        <ele>173</ele>
        <time>2018-10-16T08:42:22Z</time>
      </trkpt>
      <trkpt lat="45.92379" lon="4.75893">
        <ele>173</ele>
        <time>2018-10-16T08:42:23Z</time>
      </trkpt>
      <trkpt lat="45.92384" lon="4.75895">
        <ele>173</ele>
        <time>2018-10-16T08:42:24Z</time>
      </trkpt>
      <trkpt lat="45.9239" lon="4.75901">
        <ele>173</ele>
        <time>2018-10-16T08:42:25Z</time>
      </trkpt>
      <trkpt lat="45.92398" lon="4.75903">
        <ele>173</ele>
        <time>2018-10-16T08:42:26Z</time>
      </trkpt>
      <trkpt lat="45.92404" lon="4.75908">
        <ele>172</ele>
        <time>2018-10-16T08:42:27Z</time>
      </trkpt>
      <trkpt lat="45.92409" lon="4.75911">
        <ele>172</ele>
        <time>2018-10-16T08:42:28Z</time>
      </trkpt>
      <trkpt lat="45.92415" lon="4.75916">
        <ele>172</ele>
        <time>2018-10-16T08:42:29Z</time>
      </trkpt>
      <trkpt lat="45.92422" lon="4.7592">
        <ele>172</ele>
        <time>2018-10-16T08:42:30Z</time>
      </trkpt>
      <trkpt lat="45.92425" lon="4.75924">
        <ele>172</ele>
        <time>2018-10-16T08:42:31Z</time>
      </trkpt>
      <trkpt lat="45.92431" lon="4.75928">
        <ele>172</ele>
        <time>2018-10-16T08:42:32Z</time>
      </trkpt>
      <trkpt lat="45.92438" lon="4.75936">
        <ele>172</ele>
        <time>2018-10-16T08:42:34Z</time>
      </trkpt>
      <trkpt lat="45.92442" lon="4.75939">
        <ele>172</ele>
        <time>2018-10-16T08:42:35Z</time>
      </trkpt>
      <trkpt lat="45.92447" lon="4.75943">
        <ele>172</ele>
        <time>2018-10-16T08:42:36Z</time>
      </trkpt>
      <trkpt lat="45.92452" lon="4.75945">
        <ele>172</ele>
        <time>2018-10-16T08:42:37Z</time>
      </trkpt>
      <trkpt lat="45.92456" lon="4.75947">
        <ele>172</ele>
        <time>2018-10-16T08:42:38Z</time>
      </trkpt>
      <trkpt lat="45.9246" lon="4.7595">
        <ele>172</ele>
        <time>2018-10-16T08:42:39Z</time>
      </trkpt>
      <trkpt lat="45.92464" lon="4.75954">
        <ele>172</ele>
        <time>2018-10-16T08:42:40Z</time>
      </trkpt>
      <trkpt lat="45.92469" lon="4.75959">
        <ele>172</ele>
        <time>2018-10-16T08:42:41Z</time>
      </trkpt>
      <trkpt lat="45.92473" lon="4.75962">
        <ele>172</ele>
        <time>2018-10-16T08:42:42Z</time>
      </trkpt>
      <trkpt lat="45.92479" lon="4.75965">
        <ele>172</ele>
        <time>2018-10-16T08:42:43Z</time>
      </trkpt>
      <trkpt lat="45.92482" lon="4.75969">
        <ele>172</ele>
        <time>2018-10-16T08:42:44Z</time>
      </trkpt>
      <trkpt lat="45.92487" lon="4.75972">
        <ele>172</ele>
        <time>2018-10-16T08:42:45Z</time>
      </trkpt>
      <trkpt lat="45.92491" lon="4.75975">
        <ele>172</ele>
        <time>2018-10-16T08:42:46Z</time>
      </trkpt>
      <trkpt lat="45.92495" lon="4.75978">
        <ele>172</ele>
        <time>2018-10-16T08:42:47Z</time>
      </trkpt>
      <trkpt lat="45.92499" lon="4.75982">
        <ele>172</ele>
        <time>2018-10-16T08:42:48Z</time>
      </trkpt>
      <trkpt lat="45.92504" lon="4.75986">
        <ele>172</ele>
        <time>2018-10-16T08:42:49Z</time>
      </trkpt>
      <trkpt lat="45.92508" lon="4.75989">
        <ele>172</ele>
        <time>2018-10-16T08:42:50Z</time>
      </trkpt>
      <trkpt lat="45.92513" lon="4.75992">
        <ele>172</ele>
        <time>2018-10-16T08:42:51Z</time>
      </trkpt>
      <trkpt lat="45.92517" lon="4.75996">
        <ele>172</ele>
        <time>2018-10-16T08:42:52Z</time>
      </trkpt>
      <trkpt lat="45.92521" lon="4.76001">
        <ele>172</ele>
        <time>2018-10-16T08:42:53Z</time>
      </trkpt>
      <trkpt lat="45.92526" lon="4.76004">
        <ele>172</ele>
        <time>2018-10-16T08:42:54Z</time>
      </trkpt>
      <trkpt lat="45.92531" lon="4.76009">
        <ele>172</ele>
        <time>2018-10-16T08:42:55Z</time>
      </trkpt>
      <trkpt lat="45.92536" lon="4.76012">
        <ele>172</ele>
        <time>2018-10-16T08:42:56Z</time>
      </trkpt>
      <trkpt lat="45.9254" lon="4.76016">
        <ele>172</ele>
        <time>2018-10-16T08:42:57Z</time>
      </trkpt>
      <trkpt lat="45.92546" lon="4.76019">
        <ele>172</ele>
        <time>2018-10-16T08:42:58Z</time>
      </trkpt>
      <trkpt lat="45.92551" lon="4.76022">
        <ele>172</ele>
        <time>2018-10-16T08:42:59Z</time>
      </trkpt>
      <trkpt lat="45.92555" lon="4.76025">
        <ele>172</ele>
        <time>2018-10-16T08:43:00Z</time>
      </trkpt>
      <trkpt lat="45.92561" lon="4.76029">
        <ele>172</ele>
        <time>2018-10-16T08:43:01Z</time>
      </trkpt>
      <trkpt lat="45.92569" lon="4.76036">
        <ele>172</ele>
        <time>2018-10-16T08:43:03Z</time>
      </trkpt>
      <trkpt lat="45.92573" lon="4.7604">
        <ele>172</ele>
        <time>2018-10-16T08:43:04Z</time>
      </trkpt>
      <trkpt lat="45.92578" lon="4.76043">
        <ele>171</ele>
        <time>2018-10-16T08:43:05Z</time>
      </trkpt>
      <trkpt lat="45.92584" lon="4.76045">
        <ele>171</ele>
        <time>2018-10-16T08:43:06Z</time>
      </trkpt>
      <trkpt lat="45.92587" lon="4.76049">
        <ele>171</ele>
        <time>2018-10-16T08:43:07Z</time>
      </trkpt>
      <trkpt lat="45.92593" lon="4.76051">
        <ele>171</ele>
        <time>2018-10-16T08:43:08Z</time>
      </trkpt>
      <trkpt lat="45.92598" lon="4.76055">
        <ele>171</ele>
        <time>2018-10-16T08:43:09Z</time>
      </trkpt>
      <trkpt lat="45.92603" lon="4.76058">
        <ele>171</ele>
        <time>2018-10-16T08:43:10Z</time>
      </trkpt>
      <trkpt lat="45.92607" lon="4.76061">
        <ele>171</ele>
        <time>2018-10-16T08:43:11Z</time>
      </trkpt>
      <trkpt lat="45.92611" lon="4.76066">
        <ele>171</ele>
        <time>2018-10-16T08:43:12Z</time>
      </trkpt>
      <trkpt lat="45.92617" lon="4.7607">
        <ele>171</ele>
        <time>2018-10-16T08:43:13Z</time>
      </trkpt>
      <trkpt lat="45.92624" lon="4.76075">
        <ele>171</ele>
        <time>2018-10-16T08:43:14Z</time>
      </trkpt>
      <trkpt lat="45.9263" lon="4.76079">
        <ele>170</ele>
        <time>2018-10-16T08:43:15Z</time>
      </trkpt>
      <trkpt lat="45.92637" lon="4.76084">
        <ele>170</ele>
        <time>2018-10-16T08:43:16Z</time>
      </trkpt>
      <trkpt lat="45.92643" lon="4.76088">
        <ele>170</ele>
        <time>2018-10-16T08:43:17Z</time>
      </trkpt>
      <trkpt lat="45.9265" lon="4.76092">
        <ele>170</ele>
        <time>2018-10-16T08:43:18Z</time>
      </trkpt>
      <trkpt lat="45.92657" lon="4.76095">
        <ele>170</ele>
        <time>2018-10-16T08:43:19Z</time>
      </trkpt>
      <trkpt lat="45.92664" lon="4.76099">
        <ele>170</ele>
        <time>2018-10-16T08:43:20Z</time>
      </trkpt>
      <trkpt lat="45.92669" lon="4.76104">
        <ele>169</ele>
        <time>2018-10-16T08:43:21Z</time>
      </trkpt>
      <trkpt lat="45.92676" lon="4.76109">
        <ele>169</ele>
        <time>2018-10-16T08:43:22Z</time>
      </trkpt>
      <trkpt lat="45.92683" lon="4.76114">
        <ele>169</ele>
        <time>2018-10-16T08:43:23Z</time>
      </trkpt>
      <trkpt lat="45.92691" lon="4.76118">
        <ele>169</ele>
        <time>2018-10-16T08:43:24Z</time>
      </trkpt>
      <trkpt lat="45.92698" lon="4.76123">
        <ele>169</ele>
        <time>2018-10-16T08:43:25Z</time>
      </trkpt>
      <trkpt lat="45.92705" lon="4.76127">
        <ele>169</ele>
        <time>2018-10-16T08:43:26Z</time>
      </trkpt>
      <trkpt lat="45.92712" lon="4.76132">
        <ele>168</ele>
        <time>2018-10-16T08:43:27Z</time>
      </trkpt>
      <trkpt lat="45.9272" lon="4.76135">
        <ele>168</ele>
        <time>2018-10-16T08:43:28Z</time>
      </trkpt>
      <trkpt lat="45.92727" lon="4.7614">
        <ele>168</ele>
        <time>2018-10-16T08:43:29Z</time>
      </trkpt>
      <trkpt lat="45.92733" lon="4.76146">
        <ele>168</ele>
        <time>2018-10-16T08:43:30Z</time>
      </trkpt>
      <trkpt lat="45.92739" lon="4.76149">
        <ele>168</ele>
        <time>2018-10-16T08:43:31Z</time>
      </trkpt>
      <trkpt lat="45.92745" lon="4.76154">
        <ele>168</ele>
        <time>2018-10-16T08:43:32Z</time>
      </trkpt>
      <trkpt lat="45.92751" lon="4.76159">
        <ele>167</ele>
        <time>2018-10-16T08:43:33Z</time>
      </trkpt>
      <trkpt lat="45.92757" lon="4.76165">
        <ele>167</ele>
        <time>2018-10-16T08:43:34Z</time>
      </trkpt>
      <trkpt lat="45.92762" lon="4.7617">
        <ele>167</ele>
        <time>2018-10-16T08:43:35Z</time>
      </trkpt>
      <trkpt lat="45.92767" lon="4.76177">
        <ele>167</ele>
        <time>2018-10-16T08:43:36Z</time>
      </trkpt>
      <trkpt lat="45.92773" lon="4.7618">
        <ele>167</ele>
        <time>2018-10-16T08:43:37Z</time>
      </trkpt>
      <trkpt lat="45.92778" lon="4.76183">
        <ele>168</ele>
        <time>2018-10-16T08:43:38Z</time>
      </trkpt>
      <trkpt lat="45.92784" lon="4.76188">
        <ele>168</ele>
        <time>2018-10-16T08:43:39Z</time>
      </trkpt>
      <trkpt lat="45.92788" lon="4.76192">
        <ele>168</ele>
        <time>2018-10-16T08:43:40Z</time>
      </trkpt>
      <trkpt lat="45.92792" lon="4.76196">
        <ele>168</ele>
        <time>2018-10-16T08:43:41Z</time>
      </trkpt>
      <trkpt lat="45.92796" lon="4.76201">
        <ele>168</ele>
        <time>2018-10-16T08:43:42Z</time>
      </trkpt>
      <trkpt lat="45.928" lon="4.76206">
        <ele>168</ele>
        <time>2018-10-16T08:43:43Z</time>
      </trkpt>
      <trkpt lat="45.92805" lon="4.76212">
        <ele>168</ele>
        <time>2018-10-16T08:43:44Z</time>
      </trkpt>
      <trkpt lat="45.9281" lon="4.76216">
        <ele>168</ele>
        <time>2018-10-16T08:43:45Z</time>
      </trkpt>
      <trkpt lat="45.92813" lon="4.76218">
        <ele>168</ele>
        <time>2018-10-16T08:43:46Z</time>
      </trkpt>
      <trkpt lat="45.92819" lon="4.76223">
        <ele>168</ele>
        <time>2018-10-16T08:43:47Z</time>
      </trkpt>
      <trkpt lat="45.92823" lon="4.76229">
        <ele>168</ele>
        <time>2018-10-16T08:43:48Z</time>
      </trkpt>
      <trkpt lat="45.92829" lon="4.76234">
        <ele>168</ele>
        <time>2018-10-16T08:43:49Z</time>
      </trkpt>
      <trkpt lat="45.92834" lon="4.76239">
        <ele>169</ele>
        <time>2018-10-16T08:43:50Z</time>
      </trkpt>
      <trkpt lat="45.92839" lon="4.76244">
        <ele>169</ele>
        <time>2018-10-16T08:43:51Z</time>
      </trkpt>
      <trkpt lat="45.92844" lon="4.76248">
        <ele>169</ele>
        <time>2018-10-16T08:43:52Z</time>
      </trkpt>
      <trkpt lat="45.92848" lon="4.76252">
        <ele>169</ele>
        <time>2018-10-16T08:43:53Z</time>
      </trkpt>
      <trkpt lat="45.92852" lon="4.76257">
        <ele>169</ele>
        <time>2018-10-16T08:43:54Z</time>
      </trkpt>
      <trkpt lat="45.92859" lon="4.76265">
        <ele>169</ele>
        <time>2018-10-16T08:43:56Z</time>
      </trkpt>
      <trkpt lat="45.92865" lon="4.76271">
        <ele>169</ele>
        <time>2018-10-16T08:43:57Z</time>
      </trkpt>
      <trkpt lat="45.92871" lon="4.7628">
        <ele>169</ele>
        <time>2018-10-16T08:43:59Z</time>
      </trkpt>
      <trkpt lat="45.92875" lon="4.76284">
        <ele>169</ele>
        <time>2018-10-16T08:44:00Z</time>
      </trkpt>
      <trkpt lat="45.9288" lon="4.76289">
        <ele>169</ele>
        <time>2018-10-16T08:44:01Z</time>
      </trkpt>
      <trkpt lat="45.92886" lon="4.76293">
        <ele>169</ele>
        <time>2018-10-16T08:44:02Z</time>
      </trkpt>
      <trkpt lat="45.9289" lon="4.76298">
        <ele>169</ele>
        <time>2018-10-16T08:44:03Z</time>
      </trkpt>
      <trkpt lat="45.92893" lon="4.76303">
        <ele>169</ele>
        <time>2018-10-16T08:44:04Z</time>
      </trkpt>
      <trkpt lat="45.92898" lon="4.76308">
        <ele>169</ele>
        <time>2018-10-16T08:44:05Z</time>
      </trkpt>
      <trkpt lat="45.92902" lon="4.76312">
        <ele>169</ele>
        <time>2018-10-16T08:44:06Z</time>
      </trkpt>
      <trkpt lat="45.92909" lon="4.76317">
        <ele>169</ele>
        <time>2018-10-16T08:44:07Z</time>
      </trkpt>
      <trkpt lat="45.92913" lon="4.76322">
        <ele>169</ele>
        <time>2018-10-16T08:44:08Z</time>
      </trkpt>
      <trkpt lat="45.92918" lon="4.76328">
        <ele>169</ele>
        <time>2018-10-16T08:44:09Z</time>
      </trkpt>
      <trkpt lat="45.92924" lon="4.76333">
        <ele>169</ele>
        <time>2018-10-16T08:44:10Z</time>
      </trkpt>
      <trkpt lat="45.92928" lon="4.76336">
        <ele>169</ele>
        <time>2018-10-16T08:44:11Z</time>
      </trkpt>
      <trkpt lat="45.92932" lon="4.76339">
        <ele>169</ele>
        <time>2018-10-16T08:44:12Z</time>
      </trkpt>
      <trkpt lat="45.92935" lon="4.76342">
        <ele>169</ele>
        <time>2018-10-16T08:44:13Z</time>
      </trkpt>
      <trkpt lat="45.9294" lon="4.76347">
        <ele>169</ele>
        <time>2018-10-16T08:44:14Z</time>
      </trkpt>
      <trkpt lat="45.92944" lon="4.7635">
        <ele>169</ele>
        <time>2018-10-16T08:44:15Z</time>
      </trkpt>
      <trkpt lat="45.92947" lon="4.76355">
        <ele>169</ele>
        <time>2018-10-16T08:44:16Z</time>
      </trkpt>
      <trkpt lat="45.92951" lon="4.76359">
        <ele>169</ele>
        <time>2018-10-16T08:44:17Z</time>
      </trkpt>
      <trkpt lat="45.92956" lon="4.76364">
        <ele>169</ele>
        <time>2018-10-16T08:44:18Z</time>
      </trkpt>
      <trkpt lat="45.92961" lon="4.76368">
        <ele>169</ele>
        <time>2018-10-16T08:44:19Z</time>
      </trkpt>
      <trkpt lat="45.92966" lon="4.76373">
        <ele>169</ele>
        <time>2018-10-16T08:44:20Z</time>
      </trkpt>
      <trkpt lat="45.92971" lon="4.7638">
        <ele>169</ele>
        <time>2018-10-16T08:44:21Z</time>
      </trkpt>
      <trkpt lat="45.92976" lon="4.76383">
        <ele>169</ele>
        <time>2018-10-16T08:44:22Z</time>
      </trkpt>
      <trkpt lat="45.92982" lon="4.76388">
        <ele>169</ele>
        <time>2018-10-16T08:44:23Z</time>
      </trkpt>
      <trkpt lat="45.92988" lon="4.76393">
        <ele>169</ele>
        <time>2018-10-16T08:44:24Z</time>
      </trkpt>
      <trkpt lat="45.92994" lon="4.76398">
        <ele>169</ele>
        <time>2018-10-16T08:44:25Z</time>
      </trkpt>
      <trkpt lat="45.92998" lon="4.76401">
        <ele>169</ele>
        <time>2018-10-16T08:44:26Z</time>
      </trkpt>
      <trkpt lat="45.93004" lon="4.76407">
        <ele>169</ele>
        <time>2018-10-16T08:44:27Z</time>
      </trkpt>
      <trkpt lat="45.93009" lon="4.76411">
        <ele>169</ele>
        <time>2018-10-16T08:44:28Z</time>
      </trkpt>
      <trkpt lat="45.93013" lon="4.76416">
        <ele>169</ele>
        <time>2018-10-16T08:44:29Z</time>
      </trkpt>
      <trkpt lat="45.93016" lon="4.76421">
        <ele>169</ele>
        <time>2018-10-16T08:44:30Z</time>
      </trkpt>
      <trkpt lat="45.93022" lon="4.76427">
        <ele>169</ele>
        <time>2018-10-16T08:44:31Z</time>
      </trkpt>
      <trkpt lat="45.93026" lon="4.76431">
        <ele>169</ele>
        <time>2018-10-16T08:44:32Z</time>
      </trkpt>
      <trkpt lat="45.93031" lon="4.76435">
        <ele>169</ele>
        <time>2018-10-16T08:44:33Z</time>
      </trkpt>
      <trkpt lat="45.93037" lon="4.76438">
        <ele>169</ele>
        <time>2018-10-16T08:44:34Z</time>
      </trkpt>
      <trkpt lat="45.93042" lon="4.76443">
        <ele>169</ele>
        <time>2018-10-16T08:44:35Z</time>
      </trkpt>
      <trkpt lat="45.93047" lon="4.76449">
        <ele>169</ele>
        <time>2018-10-16T08:44:36Z</time>
      </trkpt>
      <trkpt lat="45.93052" lon="4.76454">
        <ele>169</ele>
        <time>2018-10-16T08:44:37Z</time>
      </trkpt>
      <trkpt lat="45.93058" lon="4.76461">
        <ele>169</ele>
        <time>2018-10-16T08:44:38Z</time>
      </trkpt>
      <trkpt lat="45.93064" lon="4.76465">
        <ele>169</ele>
        <time>2018-10-16T08:44:39Z</time>
      </trkpt>
      <trkpt lat="45.93069" lon="4.76469">
        <ele>169</ele>
        <time>2018-10-16T08:44:40Z</time>
      </trkpt>
      <trkpt lat="45.93074" lon="4.76473">
        <ele>169</ele>
        <time>2018-10-16T08:44:41Z</time>
      </trkpt>
      <trkpt lat="45.93079" lon="4.76479">
        <ele>169</ele>
        <time>2018-10-16T08:44:42Z</time>
      </trkpt>
      <trkpt lat="45.93084" lon="4.76484">
        <ele>170</ele>
        <time>2018-10-16T08:44:43Z</time>
      </trkpt>
      <trkpt lat="45.93089" lon="4.76491">
        <ele>170</ele>
        <time>2018-10-16T08:44:44Z</time>
      </trkpt>
      <trkpt lat="45.93093" lon="4.76496">
        <ele>170</ele>
        <time>2018-10-16T08:44:45Z</time>
      </trkpt>
      <trkpt lat="45.93097" lon="4.765">
        <ele>170</ele>
        <time>2018-10-16T08:44:46Z</time>
      </trkpt>
      <trkpt lat="45.93101" lon="4.76506">
        <ele>170</ele>
        <time>2018-10-16T08:44:47Z</time>
      </trkpt>
      <trkpt lat="45.93106" lon="4.76511">
        <ele>170</ele>
        <time>2018-10-16T08:44:48Z</time>
      </trkpt>
      <trkpt lat="45.93111" lon="4.76516">
        <ele>170</ele>
        <time>2018-10-16T08:44:49Z</time>
      </trkpt>
      <trkpt lat="45.93116" lon="4.76521">
        <ele>170</ele>
        <time>2018-10-16T08:44:50Z</time>
      </trkpt>
      <trkpt lat="45.9312" lon="4.76524">
        <ele>170</ele>
        <time>2018-10-16T08:44:51Z</time>
      </trkpt>
      <trkpt lat="45.93126" lon="4.76528">
        <ele>170</ele>
        <time>2018-10-16T08:44:52Z</time>
      </trkpt>
      <trkpt lat="45.93131" lon="4.76534">
        <ele>170</ele>
        <time>2018-10-16T08:44:53Z</time>
      </trkpt>
      <trkpt lat="45.93135" lon="4.76538">
        <ele>170</ele>
        <time>2018-10-16T08:44:54Z</time>
      </trkpt>
      <trkpt lat="45.93138" lon="4.76543">
        <ele>170</ele>
        <time>2018-10-16T08:44:55Z</time>
      </trkpt>
      <trkpt lat="45.93142" lon="4.76548">
        <ele>170</ele>
        <time>2018-10-16T08:44:56Z</time>
      </trkpt>
      <trkpt lat="45.93146" lon="4.76552">
        <ele>170</ele>
        <time>2018-10-16T08:44:57Z</time>
      </trkpt>
      <trkpt lat="45.9315" lon="4.76556">
        <ele>170</ele>
        <time>2018-10-16T08:44:58Z</time>
      </trkpt>
      <trkpt lat="45.93155" lon="4.76559">
        <ele>170</ele>
        <time>2018-10-16T08:44:59Z</time>
      </trkpt>
      <trkpt lat="45.9316" lon="4.76564">
        <ele>170</ele>
        <time>2018-10-16T08:45:00Z</time>
      </trkpt>
      <trkpt lat="45.93164" lon="4.76569">
        <ele>170</ele>
        <time>2018-10-16T08:45:01Z</time>
      </trkpt>
      <trkpt lat="45.9317" lon="4.76575">
        <ele>170</ele>
        <time>2018-10-16T08:45:02Z</time>
      </trkpt>
      <trkpt lat="45.93177" lon="4.76582">
        <ele>170</ele>
        <time>2018-10-16T08:45:04Z</time>
      </trkpt>
      <trkpt lat="45.93179" lon="4.76585">
        <ele>171</ele>
        <time>2018-10-16T08:45:05Z</time>
      </trkpt>
      <trkpt lat="45.93185" lon="4.76591">
        <ele>171</ele>
        <time>2018-10-16T08:45:06Z</time>
      </trkpt>
      <trkpt lat="45.93194" lon="4.76595">
        <ele>170</ele>
        <time>2018-10-16T08:45:07Z</time>
      </trkpt>
      <trkpt lat="45.93199" lon="4.766">
        <ele>170</ele>
        <time>2018-10-16T08:45:08Z</time>
      </trkpt>
      <trkpt lat="45.93201" lon="4.76604">
        <ele>170</ele>
        <time>2018-10-16T08:45:09Z</time>
      </trkpt>
      <trkpt lat="45.93205" lon="4.76608">
        <ele>170</ele>
        <time>2018-10-16T08:45:10Z</time>
      </trkpt>
      <trkpt lat="45.9321" lon="4.76612">
        <ele>170</ele>
        <time>2018-10-16T08:45:11Z</time>
      </trkpt>
      <trkpt lat="45.93216" lon="4.7662">
        <ele>170</ele>
        <time>2018-10-16T08:45:13Z</time>
      </trkpt>
      <trkpt lat="45.93221" lon="4.76626">
        <ele>170</ele>
        <time>2018-10-16T08:45:14Z</time>
      </trkpt>
      <trkpt lat="45.93226" lon="4.76632">
        <ele>170</ele>
        <time>2018-10-16T08:45:15Z</time>
      </trkpt>
      <trkpt lat="45.93233" lon="4.76637">
        <ele>171</ele>
        <time>2018-10-16T08:45:16Z</time>
      </trkpt>
      <trkpt lat="45.93238" lon="4.76642">
        <ele>171</ele>
        <time>2018-10-16T08:45:17Z</time>
      </trkpt>
      <trkpt lat="45.93243" lon="4.76647">
        <ele>171</ele>
        <time>2018-10-16T08:45:18Z</time>
      </trkpt>
      <trkpt lat="45.93248" lon="4.76651">
        <ele>171</ele>
        <time>2018-10-16T08:45:19Z</time>
      </trkpt>
      <trkpt lat="45.93253" lon="4.76656">
        <ele>171</ele>
        <time>2018-10-16T08:45:20Z</time>
      </trkpt>
      <trkpt lat="45.93257" lon="4.7666">
        <ele>171</ele>
        <time>2018-10-16T08:45:21Z</time>
      </trkpt>
      <trkpt lat="45.93262" lon="4.76664">
        <ele>171</ele>
        <time>2018-10-16T08:45:22Z</time>
      </trkpt>
      <trkpt lat="45.93267" lon="4.76669">
        <ele>172</ele>
        <time>2018-10-16T08:45:23Z</time>
      </trkpt>
      <trkpt lat="45.93271" lon="4.76673">
        <ele>172</ele>
        <time>2018-10-16T08:45:24Z</time>
      </trkpt>
      <trkpt lat="45.93278" lon="4.76678">
        <ele>172</ele>
        <time>2018-10-16T08:45:25Z</time>
      </trkpt>
      <trkpt lat="45.93282" lon="4.76683">
        <ele>172</ele>
        <time>2018-10-16T08:45:26Z</time>
      </trkpt>
      <trkpt lat="45.93286" lon="4.76686">
        <ele>172</ele>
        <time>2018-10-16T08:45:27Z</time>
      </trkpt>
      <trkpt lat="45.93292" lon="4.76693">
        <ele>172</ele>
        <time>2018-10-16T08:45:28Z</time>
      </trkpt>
      <trkpt lat="45.93294" lon="4.76697">
        <ele>172</ele>
        <time>2018-10-16T08:45:29Z</time>
      </trkpt>
      <trkpt lat="45.93299" lon="4.76703">
        <ele>172</ele>
        <time>2018-10-16T08:45:30Z</time>
      </trkpt>
      <trkpt lat="45.93305" lon="4.76711">
        <ele>172</ele>
        <time>2018-10-16T08:45:32Z</time>
      </trkpt>
      <trkpt lat="45.93308" lon="4.76713">
        <ele>172</ele>
        <time>2018-10-16T08:45:33Z</time>
      </trkpt>
      <trkpt lat="45.93314" lon="4.76718">
        <ele>172</ele>
        <time>2018-10-16T08:45:34Z</time>
      </trkpt>
      <trkpt lat="45.93318" lon="4.76722">
        <ele>172</ele>
        <time>2018-10-16T08:45:35Z</time>
      </trkpt>
      <trkpt lat="45.93322" lon="4.76726">
        <ele>172</ele>
        <time>2018-10-16T08:45:36Z</time>
      </trkpt>
      <trkpt lat="45.93326" lon="4.76731">
        <ele>172</ele>
        <time>2018-10-16T08:45:37Z</time>
      </trkpt>
      <trkpt lat="45.9333" lon="4.76735">
        <ele>172</ele>
        <time>2018-10-16T08:45:38Z</time>
      </trkpt>
      <trkpt lat="45.93334" lon="4.7674">
        <ele>173</ele>
        <time>2018-10-16T08:45:39Z</time>
      </trkpt>
      <trkpt lat="45.93339" lon="4.76743">
        <ele>173</ele>
        <time>2018-10-16T08:45:40Z</time>
      </trkpt>
      <trkpt lat="45.93344" lon="4.76748">
        <ele>173</ele>
        <time>2018-10-16T08:45:41Z</time>
      </trkpt>
      <trkpt lat="45.93348" lon="4.76752">
        <ele>172</ele>
        <time>2018-10-16T08:45:42Z</time>
      </trkpt>
      <trkpt lat="45.93352" lon="4.76756">
        <ele>172</ele>
        <time>2018-10-16T08:45:43Z</time>
      </trkpt>
      <trkpt lat="45.93356" lon="4.76761">
        <ele>172</ele>
        <time>2018-10-16T08:45:44Z</time>
      </trkpt>
      <trkpt lat="45.93361" lon="4.76765">
        <ele>172</ele>
        <time>2018-10-16T08:45:45Z</time>
      </trkpt>
      <trkpt lat="45.93367" lon="4.76774">
        <ele>172</ele>
        <time>2018-10-16T08:45:47Z</time>
      </trkpt>
      <trkpt lat="45.9337" lon="4.76778">
        <ele>172</ele>
        <time>2018-10-16T08:45:48Z</time>
      </trkpt>
      <trkpt lat="45.93374" lon="4.76781">
        <ele>172</ele>
        <time>2018-10-16T08:45:49Z</time>
      </trkpt>
      <trkpt lat="45.93378" lon="4.76785">
        <ele>172</ele>
        <time>2018-10-16T08:45:50Z</time>
      </trkpt>
      <trkpt lat="45.93382" lon="4.76789">
        <ele>172</ele>
        <time>2018-10-16T08:45:51Z</time>
      </trkpt>
      <trkpt lat="45.93386" lon="4.76793">
        <ele>172</ele>
        <time>2018-10-16T08:45:52Z</time>
      </trkpt>
      <trkpt lat="45.93389" lon="4.76798">
        <ele>172</ele>
        <time>2018-10-16T08:45:53Z</time>
      </trkpt>
      <trkpt lat="45.93393" lon="4.76803">
        <ele>172</ele>
        <time>2018-10-16T08:45:54Z</time>
      </trkpt>
      <trkpt lat="45.93398" lon="4.76809">
        <ele>172</ele>
        <time>2018-10-16T08:45:55Z</time>
      </trkpt>
      <trkpt lat="45.93402" lon="4.76815">
        <ele>172</ele>
        <time>2018-10-16T08:45:56Z</time>
      </trkpt>
      <trkpt lat="45.93406" lon="4.76822">
        <ele>172</ele>
        <time>2018-10-16T08:45:57Z</time>
      </trkpt>
      <trkpt lat="45.9341" lon="4.76829">
        <ele>172</ele>
        <time>2018-10-16T08:45:58Z</time>
      </trkpt>
      <trkpt lat="45.93414" lon="4.76835">
        <ele>172</ele>
        <time>2018-10-16T08:45:59Z</time>
      </trkpt>
      <trkpt lat="45.93418" lon="4.76842">
        <ele>171</ele>
        <time>2018-10-16T08:46:00Z</time>
      </trkpt>
      <trkpt lat="45.93421" lon="4.76849">
        <ele>171</ele>
        <time>2018-10-16T08:46:01Z</time>
      </trkpt>
      <trkpt lat="45.93425" lon="4.76855">
        <ele>171</ele>
        <time>2018-10-16T08:46:02Z</time>
      </trkpt>
      <trkpt lat="45.93428" lon="4.7686">
        <ele>171</ele>
        <time>2018-10-16T08:46:03Z</time>
      </trkpt>
      <trkpt lat="45.93431" lon="4.76867">
        <ele>171</ele>
        <time>2018-10-16T08:46:04Z</time>
      </trkpt>
      <trkpt lat="45.93433" lon="4.76874">
        <ele>171</ele>
        <time>2018-10-16T08:46:05Z</time>
      </trkpt>
      <trkpt lat="45.93437" lon="4.7688">
        <ele>171</ele>
        <time>2018-10-16T08:46:06Z</time>
      </trkpt>
      <trkpt lat="45.93438" lon="4.76887">
        <ele>170</ele>
        <time>2018-10-16T08:46:07Z</time>
      </trkpt>
      <trkpt lat="45.93441" lon="4.76894">
        <ele>170</ele>
        <time>2018-10-16T08:46:08Z</time>
      </trkpt>
      <trkpt lat="45.93443" lon="4.76902">
        <ele>170</ele>
        <time>2018-10-16T08:46:09Z</time>
      </trkpt>
      <trkpt lat="45.93445" lon="4.7691">
        <ele>170</ele>
        <time>2018-10-16T08:46:10Z</time>
      </trkpt>
      <trkpt lat="45.93448" lon="4.76917">
        <ele>170</ele>
        <time>2018-10-16T08:46:11Z</time>
      </trkpt>
      <trkpt lat="45.9345" lon="4.76926">
        <ele>170</ele>
        <time>2018-10-16T08:46:12Z</time>
      </trkpt>
      <trkpt lat="45.93451" lon="4.76933">
        <ele>170</ele>
        <time>2018-10-16T08:46:13Z</time>
      </trkpt>
      <trkpt lat="45.93453" lon="4.76941">
        <ele>170</ele>
        <time>2018-10-16T08:46:14Z</time>
      </trkpt>
      <trkpt lat="45.93455" lon="4.76948">
        <ele>170</ele>
        <time>2018-10-16T08:46:15Z</time>
      </trkpt>
      <trkpt lat="45.93456" lon="4.76956">
        <ele>170</ele>
        <time>2018-10-16T08:46:16Z</time>
      </trkpt>
      <trkpt lat="45.93458" lon="4.76963">
        <ele>170</ele>
        <time>2018-10-16T08:46:17Z</time>
      </trkpt>
      <trkpt lat="45.93459" lon="4.7697">
        <ele>170</ele>
        <time>2018-10-16T08:46:18Z</time>
      </trkpt>
      <trkpt lat="45.9346" lon="4.76975">
        <ele>170</ele>
        <time>2018-10-16T08:46:19Z</time>
      </trkpt>
      <trkpt lat="45.9346" lon="4.76983">
        <ele>170</ele>
        <time>2018-10-16T08:46:20Z</time>
      </trkpt>
      <trkpt lat="45.93463" lon="4.76994">
        <ele>170</ele>
        <time>2018-10-16T08:46:22Z</time>
      </trkpt>
      <trkpt lat="45.93465" lon="4.77">
        <ele>170</ele>
        <time>2018-10-16T08:46:23Z</time>
      </trkpt>
      <trkpt lat="45.93466" lon="4.77007">
        <ele>170</ele>
        <time>2018-10-16T08:46:24Z</time>
      </trkpt>
      <trkpt lat="45.93467" lon="4.77014">
        <ele>170</ele>
        <time>2018-10-16T08:46:25Z</time>
      </trkpt>
      <trkpt lat="45.93469" lon="4.77022">
        <ele>170</ele>
        <time>2018-10-16T08:46:26Z</time>
      </trkpt>
      <trkpt lat="45.9347" lon="4.77029">
        <ele>170</ele>
        <time>2018-10-16T08:46:27Z</time>
      </trkpt>
      <trkpt lat="45.93472" lon="4.77036">
        <ele>170</ele>
        <time>2018-10-16T08:46:28Z</time>
      </trkpt>
      <trkpt lat="45.93474" lon="4.77043">
        <ele>170</ele>
        <time>2018-10-16T08:46:29Z</time>
      </trkpt>
      <trkpt lat="45.93474" lon="4.7705">
        <ele>170</ele>
        <time>2018-10-16T08:46:30Z</time>
      </trkpt>
      <trkpt lat="45.93475" lon="4.77056">
        <ele>170</ele>
        <time>2018-10-16T08:46:31Z</time>
      </trkpt>
      <trkpt lat="45.93476" lon="4.77063">
        <ele>170</ele>
        <time>2018-10-16T08:46:32Z</time>
      </trkpt>
      <trkpt lat="45.93477" lon="4.77071">
        <ele>170</ele>
        <time>2018-10-16T08:46:33Z</time>
      </trkpt>
      <trkpt lat="45.93478" lon="4.77079">
        <ele>170</ele>
        <time>2018-10-16T08:46:34Z</time>
      </trkpt>
      <trkpt lat="45.9348" lon="4.77086">
        <ele>169</ele>
        <time>2018-10-16T08:46:35Z</time>
      </trkpt>
      <trkpt lat="45.93481" lon="4.77093">
        <ele>169</ele>
        <time>2018-10-16T08:46:36Z</time>
      </trkpt>
      <trkpt lat="45.93482" lon="4.77102">
        <ele>169</ele>
        <time>2018-10-16T08:46:37Z</time>
      </trkpt>
      <trkpt lat="45.93484" lon="4.7711">
        <ele>169</ele>
        <time>2018-10-16T08:46:38Z</time>
      </trkpt>
      <trkpt lat="45.93485" lon="4.77117">
        <ele>169</ele>
        <time>2018-10-16T08:46:39Z</time>
      </trkpt>
      <trkpt lat="45.93487" lon="4.77124">
        <ele>169</ele>
        <time>2018-10-16T08:46:40Z</time>
      </trkpt>
      <trkpt lat="45.93488" lon="4.77132">
        <ele>169</ele>
        <time>2018-10-16T08:46:41Z</time>
      </trkpt>
      <trkpt lat="45.93489" lon="4.77139">
        <ele>169</ele>
        <time>2018-10-16T08:46:42Z</time>
      </trkpt>
      <trkpt lat="45.93491" lon="4.77147">
        <ele>169</ele>
        <time>2018-10-16T08:46:43Z</time>
      </trkpt>
      <trkpt lat="45.93492" lon="4.77155">
        <ele>169</ele>
        <time>2018-10-16T08:46:44Z</time>
      </trkpt>
      <trkpt lat="45.93493" lon="4.77162">
        <ele>169</ele>
        <time>2018-10-16T08:46:45Z</time>
      </trkpt>
      <trkpt lat="45.93494" lon="4.77169">
        <ele>169</ele>
        <time>2018-10-16T08:46:46Z</time>
      </trkpt>
      <trkpt lat="45.93497" lon="4.77178">
        <ele>169</ele>
        <time>2018-10-16T08:46:47Z</time>
      </trkpt>
      <trkpt lat="45.93498" lon="4.77186">
        <ele>169</ele>
        <time>2018-10-16T08:46:48Z</time>
      </trkpt>
      <trkpt lat="45.935" lon="4.77193">
        <ele>169</ele>
        <time>2018-10-16T08:46:49Z</time>
      </trkpt>
      <trkpt lat="45.93501" lon="4.77201">
        <ele>169</ele>
        <time>2018-10-16T08:46:50Z</time>
      </trkpt>
      <trkpt lat="45.93502" lon="4.77209">
        <ele>169</ele>
        <time>2018-10-16T08:46:51Z</time>
      </trkpt>
      <trkpt lat="45.93504" lon="4.77217">
        <ele>169</ele>
        <time>2018-10-16T08:46:52Z</time>
      </trkpt>
      <trkpt lat="45.93505" lon="4.77224">
        <ele>169</ele>
        <time>2018-10-16T08:46:53Z</time>
      </trkpt>
      <trkpt lat="45.93507" lon="4.77232">
        <ele>169</ele>
        <time>2018-10-16T08:46:54Z</time>
      </trkpt>
      <trkpt lat="45.93508" lon="4.77239">
        <ele>169</ele>
        <time>2018-10-16T08:46:55Z</time>
      </trkpt>
      <trkpt lat="45.9351" lon="4.77246">
        <ele>169</ele>
        <time>2018-10-16T08:46:56Z</time>
      </trkpt>
      <trkpt lat="45.93511" lon="4.77253">
        <ele>170</ele>
        <time>2018-10-16T08:46:57Z</time>
      </trkpt>
      <trkpt lat="45.93512" lon="4.77261">
        <ele>170</ele>
        <time>2018-10-16T08:46:58Z</time>
      </trkpt>
      <trkpt lat="45.93514" lon="4.77269">
        <ele>170</ele>
        <time>2018-10-16T08:46:59Z</time>
      </trkpt>
      <trkpt lat="45.93515" lon="4.77277">
        <ele>170</ele>
        <time>2018-10-16T08:47:00Z</time>
      </trkpt>
      <trkpt lat="45.93516" lon="4.77284">
        <ele>170</ele>
        <time>2018-10-16T08:47:01Z</time>
      </trkpt>
      <trkpt lat="45.93517" lon="4.77292">
        <ele>170</ele>
        <time>2018-10-16T08:47:02Z</time>
      </trkpt>
      <trkpt lat="45.93518" lon="4.77299">
        <ele>170</ele>
        <time>2018-10-16T08:47:03Z</time>
      </trkpt>
      <trkpt lat="45.9352" lon="4.77306">
        <ele>170</ele>
        <time>2018-10-16T08:47:04Z</time>
      </trkpt>
      <trkpt lat="45.93521" lon="4.77314">
        <ele>170</ele>
        <time>2018-10-16T08:47:05Z</time>
      </trkpt>
      <trkpt lat="45.93523" lon="4.77322">
        <ele>170</ele>
        <time>2018-10-16T08:47:06Z</time>
      </trkpt>
      <trkpt lat="45.93525" lon="4.7733">
        <ele>170</ele>
        <time>2018-10-16T08:47:07Z</time>
      </trkpt>
      <trkpt lat="45.93528" lon="4.77338">
        <ele>170</ele>
        <time>2018-10-16T08:47:08Z</time>
      </trkpt>
      <trkpt lat="45.9353" lon="4.77345">
        <ele>170</ele>
        <time>2018-10-16T08:47:09Z</time>
      </trkpt>
      <trkpt lat="45.93532" lon="4.77353">
        <ele>170</ele>
        <time>2018-10-16T08:47:10Z</time>
      </trkpt>
      <trkpt lat="45.93534" lon="4.77359">
        <ele>170</ele>
        <time>2018-10-16T08:47:11Z</time>
      </trkpt>
      <trkpt lat="45.93535" lon="4.7737">
        <ele>170</ele>
        <time>2018-10-16T08:47:12Z</time>
      </trkpt>
      <trkpt lat="45.93536" lon="4.77377">
        <ele>170</ele>
        <time>2018-10-16T08:47:13Z</time>
      </trkpt>
      <trkpt lat="45.93538" lon="4.77387">
        <ele>170</ele>
        <time>2018-10-16T08:47:15Z</time>
      </trkpt>
      <trkpt lat="45.93539" lon="4.77394">
        <ele>170</ele>
        <time>2018-10-16T08:47:16Z</time>
      </trkpt>
      <trkpt lat="45.93541" lon="4.77406">
        <ele>170</ele>
        <time>2018-10-16T08:47:18Z</time>
      </trkpt>
      <trkpt lat="45.93542" lon="4.77411">
        <ele>170</ele>
        <time>2018-10-16T08:47:19Z</time>
      </trkpt>
      <trkpt lat="45.93544" lon="4.77419">
        <ele>170</ele>
        <time>2018-10-16T08:47:20Z</time>
      </trkpt>
      <trkpt lat="45.93545" lon="4.77425">
        <ele>170</ele>
        <time>2018-10-16T08:47:21Z</time>
      </trkpt>
      <trkpt lat="45.93545" lon="4.77431">
        <ele>169</ele>
        <time>2018-10-16T08:47:22Z</time>
      </trkpt>
      <trkpt lat="45.93547" lon="4.77438">
        <ele>169</ele>
        <time>2018-10-16T08:47:23Z</time>
      </trkpt>
      <trkpt lat="45.93545" lon="4.7745">
        <ele>169</ele>
        <time>2018-10-16T08:47:25Z</time>
      </trkpt>
      <trkpt lat="45.93548" lon="4.77458">
        <ele>169</ele>
        <time>2018-10-16T08:47:26Z</time>
      </trkpt>
      <trkpt lat="45.93553" lon="4.77468">
        <ele>169</ele>
        <time>2018-10-16T08:47:28Z</time>
      </trkpt>
      <trkpt lat="45.93555" lon="4.77475">
        <ele>169</ele>
        <time>2018-10-16T08:47:29Z</time>
      </trkpt>
      <trkpt lat="45.93557" lon="4.77482">
        <ele>169</ele>
        <time>2018-10-16T08:47:30Z</time>
      </trkpt>
      <trkpt lat="45.93559" lon="4.77489">
        <ele>169</ele>
        <time>2018-10-16T08:47:31Z</time>
      </trkpt>
      <trkpt lat="45.93562" lon="4.77497">
        <ele>169</ele>
        <time>2018-10-16T08:47:32Z</time>
      </trkpt>
      <trkpt lat="45.93563" lon="4.77504">
        <ele>169</ele>
        <time>2018-10-16T08:47:33Z</time>
      </trkpt>
      <trkpt lat="45.93565" lon="4.77514">
        <ele>169</ele>
        <time>2018-10-16T08:47:34Z</time>
      </trkpt>
      <trkpt lat="45.93567" lon="4.77522">
        <ele>169</ele>
        <time>2018-10-16T08:47:35Z</time>
      </trkpt>
      <trkpt lat="45.93568" lon="4.77529">
        <ele>169</ele>
        <time>2018-10-16T08:47:36Z</time>
      </trkpt>
      <trkpt lat="45.93571" lon="4.77534">
        <ele>169</ele>
        <time>2018-10-16T08:47:37Z</time>
      </trkpt>
      <trkpt lat="45.93573" lon="4.77541">
        <ele>169</ele>
        <time>2018-10-16T08:47:38Z</time>
      </trkpt>
      <trkpt lat="45.93575" lon="4.77547">
        <ele>169</ele>
        <time>2018-10-16T08:47:39Z</time>
      </trkpt>
      <trkpt lat="45.93576" lon="4.77554">
        <ele>169</ele>
        <time>2018-10-16T08:47:40Z</time>
      </trkpt>
      <trkpt lat="45.93578" lon="4.7756">
        <ele>169</ele>
        <time>2018-10-16T08:47:41Z</time>
      </trkpt>
      <trkpt lat="45.93579" lon="4.77566">
        <ele>170</ele>
        <time>2018-10-16T08:47:42Z</time>
      </trkpt>
      <trkpt lat="45.93581" lon="4.77573">
        <ele>170</ele>
        <time>2018-10-16T08:47:43Z</time>
      </trkpt>
      <trkpt lat="45.93583" lon="4.77581">
        <ele>170</ele>
        <time>2018-10-16T08:47:44Z</time>
      </trkpt>
      <trkpt lat="45.93586" lon="4.77588">
        <ele>170</ele>
        <time>2018-10-16T08:47:45Z</time>
      </trkpt>
      <trkpt lat="45.93587" lon="4.77594">
        <ele>170</ele>
        <time>2018-10-16T08:47:46Z</time>
      </trkpt>
      <trkpt lat="45.93589" lon="4.77603">
        <ele>170</ele>
        <time>2018-10-16T08:47:47Z</time>
      </trkpt>
      <trkpt lat="45.93591" lon="4.7761">
        <ele>170</ele>
        <time>2018-10-16T08:47:48Z</time>
      </trkpt>
      <trkpt lat="45.93594" lon="4.77617">
        <ele>170</ele>
        <time>2018-10-16T08:47:49Z</time>
      </trkpt>
      <trkpt lat="45.93596" lon="4.77623">
        <ele>170</ele>
        <time>2018-10-16T08:47:50Z</time>
      </trkpt>
      <trkpt lat="45.93598" lon="4.7763">
        <ele>169</ele>
        <time>2018-10-16T08:47:51Z</time>
      </trkpt>
      <trkpt lat="45.93602" lon="4.77636">
        <ele>169</ele>
        <time>2018-10-16T08:47:52Z</time>
      </trkpt>
      <trkpt lat="45.93606" lon="4.77642">
        <ele>169</ele>
        <time>2018-10-16T08:47:53Z</time>
      </trkpt>
      <trkpt lat="45.93609" lon="4.77649">
        <ele>169</ele>
        <time>2018-10-16T08:47:54Z</time>
      </trkpt>
      <trkpt lat="45.93611" lon="4.77655">
        <ele>169</ele>
        <time>2018-10-16T08:47:55Z</time>
      </trkpt>
      <trkpt lat="45.93615" lon="4.77659">
        <ele>169</ele>
        <time>2018-10-16T08:47:56Z</time>
      </trkpt>
      <trkpt lat="45.93619" lon="4.77664">
        <ele>169</ele>
        <time>2018-10-16T08:47:57Z</time>
      </trkpt>
      <trkpt lat="45.93621" lon="4.77671">
        <ele>169</ele>
        <time>2018-10-16T08:47:58Z</time>
      </trkpt>
      <trkpt lat="45.93624" lon="4.77677">
        <ele>169</ele>
        <time>2018-10-16T08:47:59Z</time>
      </trkpt>
      <trkpt lat="45.93627" lon="4.77683">
        <ele>169</ele>
        <time>2018-10-16T08:48:00Z</time>
      </trkpt>
      <trkpt lat="45.9363" lon="4.77689">
        <ele>169</ele>
        <time>2018-10-16T08:48:01Z</time>
      </trkpt>
      <trkpt lat="45.93632" lon="4.77695">
        <ele>169</ele>
        <time>2018-10-16T08:48:02Z</time>
      </trkpt>
      <trkpt lat="45.93635" lon="4.777">
        <ele>169</ele>
        <time>2018-10-16T08:48:03Z</time>
      </trkpt>
      <trkpt lat="45.93637" lon="4.77706">
        <ele>170</ele>
        <time>2018-10-16T08:48:04Z</time>
      </trkpt>
      <trkpt lat="45.9364" lon="4.77712">
        <ele>170</ele>
        <time>2018-10-16T08:48:05Z</time>
      </trkpt>
      <trkpt lat="45.93644" lon="4.77717">
        <ele>170</ele>
        <time>2018-10-16T08:48:06Z</time>
      </trkpt>
      <trkpt lat="45.93647" lon="4.77723">
        <ele>170</ele>
        <time>2018-10-16T08:48:07Z</time>
      </trkpt>
      <trkpt lat="45.9365" lon="4.77727">
        <ele>170</ele>
        <time>2018-10-16T08:48:08Z</time>
      </trkpt>
      <trkpt lat="45.93654" lon="4.77731">
        <ele>170</ele>
        <time>2018-10-16T08:48:09Z</time>
      </trkpt>
      <trkpt lat="45.93658" lon="4.77739">
        <ele>170</ele>
        <time>2018-10-16T08:48:11Z</time>
      </trkpt>
      <trkpt lat="45.9366" lon="4.77743">
        <ele>170</ele>
        <time>2018-10-16T08:48:12Z</time>
      </trkpt>
      <trkpt lat="45.93666" lon="4.77748">
        <ele>171</ele>
        <time>2018-10-16T08:48:14Z</time>
      </trkpt>
      <trkpt lat="45.93668" lon="4.77752">
        <ele>171</ele>
        <time>2018-10-16T08:48:15Z</time>
      </trkpt>
      <trkpt lat="45.93673" lon="4.77762">
        <ele>170</ele>
        <time>2018-10-16T08:48:19Z</time>
      </trkpt>
      <trkpt lat="45.93678" lon="4.77771">
        <ele>170</ele>
        <time>2018-10-16T08:48:20Z</time>
      </trkpt>
      <trkpt lat="45.93683" lon="4.77779">
        <ele>170</ele>
        <time>2018-10-16T08:48:22Z</time>
      </trkpt>
      <trkpt lat="45.93686" lon="4.77783">
        <ele>170</ele>
        <time>2018-10-16T08:48:23Z</time>
      </trkpt>
      <trkpt lat="45.93691" lon="4.77791">
        <ele>170</ele>
        <time>2018-10-16T08:48:26Z</time>
      </trkpt>
      <trkpt lat="45.93696" lon="4.77797">
        <ele>169</ele>
        <time>2018-10-16T08:48:27Z</time>
      </trkpt>
      <trkpt lat="45.93702" lon="4.77805">
        <ele>169</ele>
        <time>2018-10-16T08:48:29Z</time>
      </trkpt>
      <trkpt lat="45.93704" lon="4.77808">
        <ele>169</ele>
        <time>2018-10-16T08:48:30Z</time>
      </trkpt>
      <trkpt lat="45.9371" lon="4.77816">
        <ele>169</ele>
        <time>2018-10-16T08:48:32Z</time>
      </trkpt>
      <trkpt lat="45.93713" lon="4.7782">
        <ele>169</ele>
        <time>2018-10-16T08:48:33Z</time>
      </trkpt>
      <trkpt lat="45.93719" lon="4.77828">
        <ele>168</ele>
        <time>2018-10-16T08:48:35Z</time>
      </trkpt>
      <trkpt lat="45.93722" lon="4.77832">
        <ele>168</ele>
        <time>2018-10-16T08:48:36Z</time>
      </trkpt>
      <trkpt lat="45.93728" lon="4.7784">
        <ele>167</ele>
        <time>2018-10-16T08:48:38Z</time>
      </trkpt>
      <trkpt lat="45.9373" lon="4.77843">
        <ele>167</ele>
        <time>2018-10-16T08:48:39Z</time>
      </trkpt>
      <trkpt lat="45.93736" lon="4.77851">
        <ele>167</ele>
        <time>2018-10-16T08:48:41Z</time>
      </trkpt>
      <trkpt lat="45.93739" lon="4.77855">
        <ele>167</ele>
        <time>2018-10-16T08:48:42Z</time>
      </trkpt>
      <trkpt lat="45.93745" lon="4.77863">
        <ele>167</ele>
        <time>2018-10-16T08:48:44Z</time>
      </trkpt>
      <trkpt lat="45.93749" lon="4.77867">
        <ele>167</ele>
        <time>2018-10-16T08:48:45Z</time>
      </trkpt>
      <trkpt lat="45.93752" lon="4.77871">
        <ele>166</ele>
        <time>2018-10-16T08:48:46Z</time>
      </trkpt>
      <trkpt lat="45.93757" lon="4.77874">
        <ele>166</ele>
        <time>2018-10-16T08:48:47Z</time>
      </trkpt>
      <trkpt lat="45.93761" lon="4.7788">
        <ele>166</ele>
        <time>2018-10-16T08:48:48Z</time>
      </trkpt>
      <trkpt lat="45.93766" lon="4.77884">
        <ele>166</ele>
        <time>2018-10-16T08:48:49Z</time>
      </trkpt>
      <trkpt lat="45.93769" lon="4.77889">
        <ele>166</ele>
        <time>2018-10-16T08:48:50Z</time>
      </trkpt>
      <trkpt lat="45.93772" lon="4.77894">
        <ele>166</ele>
        <time>2018-10-16T08:48:51Z</time>
      </trkpt>
      <trkpt lat="45.93777" lon="4.77901">
        <ele>166</ele>
        <time>2018-10-16T08:48:53Z</time>
      </trkpt>
      <trkpt lat="45.9378" lon="4.77904">
        <ele>166</ele>
        <time>2018-10-16T08:48:54Z</time>
      </trkpt>
      <trkpt lat="45.93785" lon="4.77912">
        <ele>166</ele>
        <time>2018-10-16T08:48:56Z</time>
      </trkpt>
      <trkpt lat="45.93789" lon="4.77917">
        <ele>166</ele>
        <time>2018-10-16T08:48:57Z</time>
      </trkpt>
      <trkpt lat="45.93793" lon="4.77921">
        <ele>168</ele>
        <time>2018-10-16T08:48:58Z</time>
      </trkpt>
      <trkpt lat="45.93796" lon="4.77924">
        <ele>168</ele>
        <time>2018-10-16T08:48:59Z</time>
      </trkpt>
      <trkpt lat="45.938" lon="4.7793">
        <ele>168</ele>
        <time>2018-10-16T08:49:00Z</time>
      </trkpt>
      <trkpt lat="45.93803" lon="4.77934">
        <ele>168</ele>
        <time>2018-10-16T08:49:01Z</time>
      </trkpt>
      <trkpt lat="45.93807" lon="4.77938">
        <ele>169</ele>
        <time>2018-10-16T08:49:02Z</time>
      </trkpt>
      <trkpt lat="45.93811" lon="4.77943">
        <ele>169</ele>
        <time>2018-10-16T08:49:03Z</time>
      </trkpt>
      <trkpt lat="45.93815" lon="4.77949">
        <ele>169</ele>
        <time>2018-10-16T08:49:04Z</time>
      </trkpt>
      <trkpt lat="45.93819" lon="4.77954">
        <ele>170</ele>
        <time>2018-10-16T08:49:05Z</time>
      </trkpt>
      <trkpt lat="45.93823" lon="4.77959">
        <ele>170</ele>
        <time>2018-10-16T08:49:06Z</time>
      </trkpt>
      <trkpt lat="45.93827" lon="4.77964">
        <ele>171</ele>
        <time>2018-10-16T08:49:07Z</time>
      </trkpt>
      <trkpt lat="45.9383" lon="4.7797">
        <ele>172</ele>
        <time>2018-10-16T08:49:08Z</time>
      </trkpt>
      <trkpt lat="45.93834" lon="4.77978">
        <ele>178</ele>
        <time>2018-10-16T08:49:09Z</time>
      </trkpt>
      <trkpt lat="45.93839" lon="4.77983">
        <ele>178</ele>
        <time>2018-10-16T08:49:10Z</time>
      </trkpt>
      <trkpt lat="45.93841" lon="4.77988">
        <ele>179</ele>
        <time>2018-10-16T08:49:11Z</time>
      </trkpt>
      <trkpt lat="45.93845" lon="4.77999">
        <ele>179</ele>
        <time>2018-10-16T08:49:13Z</time>
      </trkpt>
      <trkpt lat="45.93846" lon="4.78002">
        <ele>181</ele>
        <time>2018-10-16T08:49:14Z</time>
      </trkpt>
      <trkpt lat="45.93848" lon="4.78013">
        <ele>182</ele>
        <time>2018-10-16T08:49:15Z</time>
      </trkpt>
      <trkpt lat="45.93848" lon="4.78019">
        <ele>182</ele>
        <time>2018-10-16T08:49:16Z</time>
      </trkpt>
      <trkpt lat="45.93849" lon="4.78027">
        <ele>182</ele>
        <time>2018-10-16T08:49:17Z</time>
      </trkpt>
      <trkpt lat="45.9385" lon="4.78033">
        <ele>182</ele>
        <time>2018-10-16T08:49:18Z</time>
      </trkpt>
      <trkpt lat="45.9385" lon="4.78045">
        <ele>183</ele>
        <time>2018-10-16T08:49:20Z</time>
      </trkpt>
      <trkpt lat="45.93851" lon="4.78052">
        <ele>183</ele>
        <time>2018-10-16T08:49:21Z</time>
      </trkpt>
      <trkpt lat="45.93849" lon="4.78063">
        <ele>182</ele>
        <time>2018-10-16T08:49:23Z</time>
      </trkpt>
      <trkpt lat="45.93849" lon="4.78069">
        <ele>182</ele>
        <time>2018-10-16T08:49:24Z</time>
      </trkpt>
      <trkpt lat="45.93847" lon="4.78076">
        <ele>182</ele>
        <time>2018-10-16T08:49:25Z</time>
      </trkpt>
      <trkpt lat="45.93847" lon="4.78082">
        <ele>182</ele>
        <time>2018-10-16T08:49:26Z</time>
      </trkpt>
      <trkpt lat="45.93842" lon="4.78092">
        <ele>182</ele>
        <time>2018-10-16T08:49:28Z</time>
      </trkpt>
      <trkpt lat="45.93839" lon="4.78097">
        <ele>183</ele>
        <time>2018-10-16T08:49:29Z</time>
      </trkpt>
      <trkpt lat="45.93836" lon="4.78103">
        <ele>183</ele>
        <time>2018-10-16T08:49:30Z</time>
      </trkpt>
      <trkpt lat="45.93834" lon="4.78112">
        <ele>184</ele>
        <time>2018-10-16T08:49:31Z</time>
      </trkpt>
      <trkpt lat="45.9383" lon="4.78122">
        <ele>180</ele>
        <time>2018-10-16T08:49:33Z</time>
      </trkpt>
      <trkpt lat="45.93826" lon="4.78128">
        <ele>180</ele>
        <time>2018-10-16T08:49:34Z</time>
      </trkpt>
      <trkpt lat="45.93825" lon="4.78136">
        <ele>180</ele>
        <time>2018-10-16T08:49:35Z</time>
      </trkpt>
      <trkpt lat="45.93823" lon="4.78143">
        <ele>180</ele>
        <time>2018-10-16T08:49:36Z</time>
      </trkpt>
      <trkpt lat="45.93822" lon="4.78149">
        <ele>180</ele>
        <time>2018-10-16T08:49:37Z</time>
      </trkpt>
      <trkpt lat="45.9382" lon="4.78156">
        <ele>180</ele>
        <time>2018-10-16T08:49:38Z</time>
      </trkpt>
      <trkpt lat="45.93817" lon="4.78164">
        <ele>180</ele>
        <time>2018-10-16T08:49:40Z</time>
      </trkpt>
      <trkpt lat="45.93816" lon="4.78171">
        <ele>182</ele>
        <time>2018-10-16T08:49:41Z</time>
      </trkpt>
      <trkpt lat="45.93816" lon="4.78178">
        <ele>182</ele>
        <time>2018-10-16T08:49:42Z</time>
      </trkpt>
      <trkpt lat="45.93813" lon="4.78183">
        <ele>182</ele>
        <time>2018-10-16T08:49:43Z</time>
      </trkpt>
      <trkpt lat="45.9381" lon="4.78195">
        <ele>182</ele>
        <time>2018-10-16T08:49:45Z</time>
      </trkpt>
      <trkpt lat="45.93809" lon="4.78203">
        <ele>182</ele>
        <time>2018-10-16T08:49:46Z</time>
      </trkpt>
      <trkpt lat="45.93805" lon="4.78214">
        <ele>182</ele>
        <time>2018-10-16T08:49:48Z</time>
      </trkpt>
      <trkpt lat="45.93804" lon="4.7822">
        <ele>182</ele>
        <time>2018-10-16T08:49:49Z</time>
      </trkpt>
      <trkpt lat="45.938" lon="4.7823">
        <ele>182</ele>
        <time>2018-10-16T08:49:51Z</time>
      </trkpt>
      <trkpt lat="45.93798" lon="4.78234">
        <ele>182</ele>
        <time>2018-10-16T08:49:52Z</time>
      </trkpt>
      <trkpt lat="45.93794" lon="4.78243">
        <ele>182</ele>
        <time>2018-10-16T08:49:54Z</time>
      </trkpt>
      <trkpt lat="45.93791" lon="4.78248">
        <ele>182</ele>
        <time>2018-10-16T08:49:55Z</time>
      </trkpt>
      <trkpt lat="45.9379" lon="4.78253">
        <ele>183</ele>
        <time>2018-10-16T08:49:56Z</time>
      </trkpt>
      <trkpt lat="45.93789" lon="4.78261">
        <ele>183</ele>
        <time>2018-10-16T08:49:57Z</time>
      </trkpt>
      <trkpt lat="45.93789" lon="4.78268">
        <ele>183</ele>
        <time>2018-10-16T08:49:58Z</time>
      </trkpt>
      <trkpt lat="45.93787" lon="4.78276">
        <ele>183</ele>
        <time>2018-10-16T08:49:59Z</time>
      </trkpt>
      <trkpt lat="45.93788" lon="4.78282">
        <ele>183</ele>
        <time>2018-10-16T08:50:00Z</time>
      </trkpt>
      <trkpt lat="45.93786" lon="4.7829">
        <ele>183</ele>
        <time>2018-10-16T08:50:01Z</time>
      </trkpt>
      <trkpt lat="45.93784" lon="4.78296">
        <ele>183</ele>
        <time>2018-10-16T08:50:02Z</time>
      </trkpt>
      <trkpt lat="45.93782" lon="4.78302">
        <ele>183</ele>
        <time>2018-10-16T08:50:03Z</time>
      </trkpt>
      <trkpt lat="45.93779" lon="4.78307">
        <ele>183</ele>
        <time>2018-10-16T08:50:04Z</time>
      </trkpt>
      <trkpt lat="45.93777" lon="4.78314">
        <ele>183</ele>
        <time>2018-10-16T08:50:05Z</time>
      </trkpt>
      <trkpt lat="45.93776" lon="4.7832">
        <ele>183</ele>
        <time>2018-10-16T08:50:06Z</time>
      </trkpt>
      <trkpt lat="45.93774" lon="4.78326">
        <ele>183</ele>
        <time>2018-10-16T08:50:07Z</time>
      </trkpt>
      <trkpt lat="45.93771" lon="4.78338">
        <ele>183</ele>
        <time>2018-10-16T08:50:09Z</time>
      </trkpt>
      <trkpt lat="45.9377" lon="4.78345">
        <ele>183</ele>
        <time>2018-10-16T08:50:10Z</time>
      </trkpt>
      <trkpt lat="45.93766" lon="4.78357">
        <ele>183</ele>
        <time>2018-10-16T08:50:12Z</time>
      </trkpt>
      <trkpt lat="45.93763" lon="4.78361">
        <ele>183</ele>
        <time>2018-10-16T08:50:13Z</time>
      </trkpt>
      <trkpt lat="45.93763" lon="4.7837">
        <ele>183</ele>
        <time>2018-10-16T08:50:14Z</time>
      </trkpt>
      <trkpt lat="45.93763" lon="4.78379">
        <ele>183</ele>
        <time>2018-10-16T08:50:15Z</time>
      </trkpt>
      <trkpt lat="45.93759" lon="4.78383">
        <ele>183</ele>
        <time>2018-10-16T08:50:16Z</time>
      </trkpt>
      <trkpt lat="45.93758" lon="4.78392">
        <ele>183</ele>
        <time>2018-10-16T08:50:17Z</time>
      </trkpt>
      <trkpt lat="45.93754" lon="4.78396">
        <ele>183</ele>
        <time>2018-10-16T08:50:18Z</time>
      </trkpt>
      <trkpt lat="45.93755" lon="4.78405">
        <ele>182</ele>
        <time>2018-10-16T08:50:19Z</time>
      </trkpt>
      <trkpt lat="45.93752" lon="4.7841">
        <ele>182</ele>
        <time>2018-10-16T08:50:20Z</time>
      </trkpt>
      <trkpt lat="45.93751" lon="4.78419">
        <ele>181</ele>
        <time>2018-10-16T08:50:21Z</time>
      </trkpt>
      <trkpt lat="45.93747" lon="4.78423">
        <ele>181</ele>
        <time>2018-10-16T08:50:22Z</time>
      </trkpt>
      <trkpt lat="45.93748" lon="4.78435">
        <ele>180</ele>
        <time>2018-10-16T08:50:23Z</time>
      </trkpt>
      <trkpt lat="45.93744" lon="4.78441">
        <ele>180</ele>
        <time>2018-10-16T08:50:24Z</time>
      </trkpt>
      <trkpt lat="45.93744" lon="4.78448">
        <ele>180</ele>
        <time>2018-10-16T08:50:25Z</time>
      </trkpt>
      <trkpt lat="45.93741" lon="4.78455">
        <ele>180</ele>
        <time>2018-10-16T08:50:26Z</time>
      </trkpt>
      <trkpt lat="45.93739" lon="4.78464">
        <ele>180</ele>
        <time>2018-10-16T08:50:27Z</time>
      </trkpt>
      <trkpt lat="45.93736" lon="4.78471">
        <ele>180</ele>
        <time>2018-10-16T08:50:28Z</time>
      </trkpt>
      <trkpt lat="45.93736" lon="4.78481">
        <ele>180</ele>
        <time>2018-10-16T08:50:29Z</time>
      </trkpt>
      <trkpt lat="45.93732" lon="4.78487">
        <ele>180</ele>
        <time>2018-10-16T08:50:30Z</time>
      </trkpt>
      <trkpt lat="45.9373" lon="4.78494">
        <ele>180</ele>
        <time>2018-10-16T08:50:31Z</time>
      </trkpt>
      <trkpt lat="45.93726" lon="4.78502">
        <ele>179</ele>
        <time>2018-10-16T08:50:32Z</time>
      </trkpt>
      <trkpt lat="45.93724" lon="4.7851">
        <ele>179</ele>
        <time>2018-10-16T08:50:33Z</time>
      </trkpt>
      <trkpt lat="45.93722" lon="4.78517">
        <ele>179</ele>
        <time>2018-10-16T08:50:34Z</time>
      </trkpt>
      <trkpt lat="45.93721" lon="4.78525">
        <ele>178</ele>
        <time>2018-10-16T08:50:35Z</time>
      </trkpt>
      <trkpt lat="45.93718" lon="4.78533">
        <ele>178</ele>
        <time>2018-10-16T08:50:36Z</time>
      </trkpt>
      <trkpt lat="45.93718" lon="4.78541">
        <ele>178</ele>
        <time>2018-10-16T08:50:37Z</time>
      </trkpt>
      <trkpt lat="45.93717" lon="4.78548">
        <ele>178</ele>
        <time>2018-10-16T08:50:38Z</time>
      </trkpt>
      <trkpt lat="45.93714" lon="4.78558">
        <ele>178</ele>
        <time>2018-10-16T08:50:39Z</time>
      </trkpt>
      <trkpt lat="45.93712" lon="4.78565">
        <ele>178</ele>
        <time>2018-10-16T08:50:40Z</time>
      </trkpt>
      <trkpt lat="45.9371" lon="4.78573">
        <ele>177</ele>
        <time>2018-10-16T08:50:41Z</time>
      </trkpt>
      <trkpt lat="45.93709" lon="4.78582">
        <ele>177</ele>
        <time>2018-10-16T08:50:42Z</time>
      </trkpt>
      <trkpt lat="45.93708" lon="4.78593">
        <ele>176</ele>
        <time>2018-10-16T08:50:43Z</time>
      </trkpt>
      <trkpt lat="45.93705" lon="4.78603">
        <ele>176</ele>
        <time>2018-10-16T08:50:44Z</time>
      </trkpt>
      <trkpt lat="45.93703" lon="4.78608">
        <ele>176</ele>
        <time>2018-10-16T08:50:45Z</time>
      </trkpt>
      <trkpt lat="45.937" lon="4.78615">
        <ele>176</ele>
        <time>2018-10-16T08:50:46Z</time>
      </trkpt>
      <trkpt lat="45.93699" lon="4.78622">
        <ele>176</ele>
        <time>2018-10-16T08:50:47Z</time>
      </trkpt>
      <trkpt lat="45.93703" lon="4.78632">
        <ele>176</ele>
        <time>2018-10-16T08:50:49Z</time>
      </trkpt>
      <trkpt lat="45.93704" lon="4.78634">
        <ele>176</ele>
        <time>2018-10-16T08:50:50Z</time>
      </trkpt>
      <trkpt lat="45.93711" lon="4.78634">
        <ele>176</ele>
        <time>2018-10-16T08:50:52Z</time>
      </trkpt>
      <trkpt lat="45.93713" lon="4.78633">
        <ele>176</ele>
        <time>2018-10-16T08:50:53Z</time>
      </trkpt>
      <trkpt lat="45.93718" lon="4.78631">
        <ele>176</ele>
        <time>2018-10-16T08:50:55Z</time>
      </trkpt>
      <trkpt lat="45.93727" lon="4.78629">
        <ele>177</ele>
        <time>2018-10-16T08:50:56Z</time>
      </trkpt>
      <trkpt lat="45.93735" lon="4.78627">
        <ele>177</ele>
        <time>2018-10-16T08:51:00Z</time>
      </trkpt>
      <trkpt lat="45.93743" lon="4.7863">
        <ele>177</ele>
        <time>2018-10-16T08:51:01Z</time>
      </trkpt>
      <trkpt lat="45.93751" lon="4.78628">
        <ele>180</ele>
        <time>2018-10-16T08:51:05Z</time>
      </trkpt>
      <trkpt lat="45.93753" lon="4.78627">
        <ele>181</ele>
        <time>2018-10-16T08:51:06Z</time>
      </trkpt>
      <trkpt lat="45.93761" lon="4.78625">
        <ele>181</ele>
        <time>2018-10-16T08:51:09Z</time>
      </trkpt>
      <trkpt lat="45.93764" lon="4.78624">
        <ele>181</ele>
        <time>2018-10-16T08:51:10Z</time>
      </trkpt>
      <trkpt lat="45.93772" lon="4.78622">
        <ele>181</ele>
        <time>2018-10-16T08:51:13Z</time>
      </trkpt>
      <trkpt lat="45.93775" lon="4.78621">
        <ele>181</ele>
        <time>2018-10-16T08:51:14Z</time>
      </trkpt>
      <trkpt lat="45.93781" lon="4.78619">
        <ele>181</ele>
        <time>2018-10-16T08:51:16Z</time>
      </trkpt>
      <trkpt lat="45.93785" lon="4.78618">
        <ele>182</ele>
        <time>2018-10-16T08:51:17Z</time>
      </trkpt>
      <trkpt lat="45.93791" lon="4.78616">
        <ele>182</ele>
        <time>2018-10-16T08:51:19Z</time>
      </trkpt>
      <trkpt lat="45.93802" lon="4.78612">
        <ele>182</ele>
        <time>2018-10-16T08:51:20Z</time>
      </trkpt>
      <trkpt lat="45.93808" lon="4.7861">
        <ele>183</ele>
        <time>2018-10-16T08:51:23Z</time>
      </trkpt>
      <trkpt lat="45.93811" lon="4.78609">
        <ele>183</ele>
        <time>2018-10-16T08:51:24Z</time>
      </trkpt>
      <trkpt lat="45.93818" lon="4.78607">
        <ele>183</ele>
        <time>2018-10-16T08:51:27Z</time>
      </trkpt>
      <trkpt lat="45.93821" lon="4.78606">
        <ele>184</ele>
        <time>2018-10-16T08:51:28Z</time>
      </trkpt>
      <trkpt lat="45.93829" lon="4.78604">
        <ele>184</ele>
        <time>2018-10-16T08:51:31Z</time>
      </trkpt>
      <trkpt lat="45.93831" lon="4.78603">
        <ele>184</ele>
        <time>2018-10-16T08:51:32Z</time>
      </trkpt>
      <trkpt lat="45.93838" lon="4.78602">
        <ele>187</ele>
        <time>2018-10-16T08:51:35Z</time>
      </trkpt>
      <trkpt lat="45.9384" lon="4.78602">
        <ele>188</ele>
        <time>2018-10-16T08:51:36Z</time>
      </trkpt>
      <trkpt lat="45.93848" lon="4.78603">
        <ele>188</ele>
        <time>2018-10-16T08:51:40Z</time>
      </trkpt>
      <trkpt lat="45.93851" lon="4.78603">
        <ele>188</ele>
        <time>2018-10-16T08:51:41Z</time>
      </trkpt>
      <trkpt lat="45.93859" lon="4.78602">
        <ele>188</ele>
        <time>2018-10-16T08:51:45Z</time>
      </trkpt>
      <trkpt lat="45.93861" lon="4.78602">
        <ele>188</ele>
        <time>2018-10-16T08:51:46Z</time>
      </trkpt>
      <trkpt lat="45.93868" lon="4.786">
        <ele>188</ele>
        <time>2018-10-16T08:51:49Z</time>
      </trkpt>
      <trkpt lat="45.9387" lon="4.786">
        <ele>189</ele>
        <time>2018-10-16T08:51:50Z</time>
      </trkpt>
      <trkpt lat="45.93877" lon="4.78597">
        <ele>189</ele>
        <time>2018-10-16T08:51:53Z</time>
      </trkpt>
      <trkpt lat="45.93879" lon="4.78596">
        <ele>189</ele>
        <time>2018-10-16T08:51:54Z</time>
      </trkpt>
      <trkpt lat="45.93887" lon="4.7859">
        <ele>190</ele>
        <time>2018-10-16T08:51:58Z</time>
      </trkpt>
      <trkpt lat="45.93889" lon="4.78589">
        <ele>190</ele>
        <time>2018-10-16T08:51:59Z</time>
      </trkpt>
      <trkpt lat="45.93897" lon="4.78588">
        <ele>190</ele>
        <time>2018-10-16T08:52:03Z</time>
      </trkpt>
      <trkpt lat="45.93898" lon="4.78587">
        <ele>190</ele>
        <time>2018-10-16T08:52:04Z</time>
      </trkpt>
      <trkpt lat="45.93906" lon="4.78585">
        <ele>191</ele>
        <time>2018-10-16T08:52:08Z</time>
      </trkpt>
      <trkpt lat="45.93908" lon="4.78584">
        <ele>192</ele>
        <time>2018-10-16T08:52:09Z</time>
      </trkpt>
      <trkpt lat="45.93915" lon="4.7858">
        <ele>193</ele>
        <time>2018-10-16T08:52:13Z</time>
      </trkpt>
      <trkpt lat="45.93916" lon="4.78579">
        <ele>193</ele>
        <time>2018-10-16T08:52:14Z</time>
      </trkpt>
      <trkpt lat="45.93923" lon="4.78573">
        <ele>195</ele>
        <time>2018-10-16T08:52:19Z</time>
      </trkpt>
      <trkpt lat="45.93925" lon="4.78574">
        <ele>195</ele>
        <time>2018-10-16T08:52:20Z</time>
      </trkpt>
      <trkpt lat="45.9393" lon="4.78582">
        <ele>195</ele>
        <time>2018-10-16T08:52:24Z</time>
      </trkpt>
      <trkpt lat="45.93931" lon="4.78584">
        <ele>195</ele>
        <time>2018-10-16T08:52:25Z</time>
      </trkpt>
      <trkpt lat="45.93933" lon="4.78596">
        <ele>195</ele>
        <time>2018-10-16T08:52:28Z</time>
      </trkpt>
      <trkpt lat="45.93934" lon="4.786">
        <ele>195</ele>
        <time>2018-10-16T08:52:29Z</time>
      </trkpt>
      <trkpt lat="45.93935" lon="4.78612">
        <ele>196</ele>
        <time>2018-10-16T08:52:32Z</time>
      </trkpt>
      <trkpt lat="45.93935" lon="4.78615">
        <ele>196</ele>
        <time>2018-10-16T08:52:33Z</time>
      </trkpt>
      <trkpt lat="45.93935" lon="4.78619">
        <ele>195</ele>
        <time>2018-10-16T08:52:34Z</time>
      </trkpt>
      <trkpt lat="45.93936" lon="4.78634">
        <ele>195</ele>
        <time>2018-10-16T08:52:35Z</time>
      </trkpt>
      <trkpt lat="45.93938" lon="4.78646">
        <ele>195</ele>
        <time>2018-10-16T08:52:37Z</time>
      </trkpt>
      <trkpt lat="45.93939" lon="4.78649">
        <ele>195</ele>
        <time>2018-10-16T08:52:38Z</time>
      </trkpt>
      <trkpt lat="45.93939" lon="4.78661">
        <ele>194</ele>
        <time>2018-10-16T08:52:42Z</time>
      </trkpt>
      <trkpt lat="45.93939" lon="4.78664">
        <ele>194</ele>
        <time>2018-10-16T08:52:43Z</time>
      </trkpt>
      <trkpt lat="45.93939" lon="4.78672">
        <ele>193</ele>
        <time>2018-10-16T08:52:45Z</time>
      </trkpt>
      <trkpt lat="45.93939" lon="4.78686">
        <ele>194</ele>
        <time>2018-10-16T08:52:46Z</time>
      </trkpt>
      <trkpt lat="45.93938" lon="4.78694">
        <ele>194</ele>
        <time>2018-10-16T08:52:48Z</time>
      </trkpt>
      <trkpt lat="45.93937" lon="4.78702">
        <ele>194</ele>
        <time>2018-10-16T08:52:49Z</time>
      </trkpt>
      <trkpt lat="45.93937" lon="4.78714">
        <ele>194</ele>
        <time>2018-10-16T08:52:52Z</time>
      </trkpt>
      <trkpt lat="45.93937" lon="4.78717">
        <ele>194</ele>
        <time>2018-10-16T08:52:53Z</time>
      </trkpt>
      <trkpt lat="45.93937" lon="4.7873">
        <ele>194</ele>
        <time>2018-10-16T08:52:54Z</time>
      </trkpt>
      <trkpt lat="45.93937" lon="4.78736">
        <ele>193</ele>
        <time>2018-10-16T08:52:55Z</time>
      </trkpt>
      <trkpt lat="45.93937" lon="4.78743">
        <ele>193</ele>
        <time>2018-10-16T08:52:56Z</time>
      </trkpt>
      <trkpt lat="45.93937" lon="4.78752">
        <ele>193</ele>
        <time>2018-10-16T08:52:57Z</time>
      </trkpt>
      <trkpt lat="45.93931" lon="4.78762">
        <ele>193</ele>
        <time>2018-10-16T08:52:59Z</time>
      </trkpt>
      <trkpt lat="45.93932" lon="4.78769">
        <ele>193</ele>
        <time>2018-10-16T08:53:00Z</time>
      </trkpt>
      <trkpt lat="45.93932" lon="4.78776">
        <ele>193</ele>
        <time>2018-10-16T08:53:01Z</time>
      </trkpt>
      <trkpt lat="45.93935" lon="4.78783">
        <ele>194</ele>
        <time>2018-10-16T08:53:02Z</time>
      </trkpt>
      <trkpt lat="45.93933" lon="4.78796">
        <ele>194</ele>
        <time>2018-10-16T08:53:04Z</time>
      </trkpt>
      <trkpt lat="45.93935" lon="4.78802">
        <ele>194</ele>
        <time>2018-10-16T08:53:05Z</time>
      </trkpt>
      <trkpt lat="45.93934" lon="4.78808">
        <ele>194</ele>
        <time>2018-10-16T08:53:06Z</time>
      </trkpt>
      <trkpt lat="45.93936" lon="4.78816">
        <ele>194</ele>
        <time>2018-10-16T08:53:07Z</time>
      </trkpt>
      <trkpt lat="45.93936" lon="4.78824">
        <ele>193</ele>
        <time>2018-10-16T08:53:08Z</time>
      </trkpt>
      <trkpt lat="45.93936" lon="4.7883">
        <ele>193</ele>
        <time>2018-10-16T08:53:09Z</time>
      </trkpt>
      <trkpt lat="45.93936" lon="4.78841">
        <ele>193</ele>
        <time>2018-10-16T08:53:11Z</time>
      </trkpt>
      <trkpt lat="45.93937" lon="4.78847">
        <ele>193</ele>
        <time>2018-10-16T08:53:12Z</time>
      </trkpt>
      <trkpt lat="45.93936" lon="4.78859">
        <ele>193</ele>
        <time>2018-10-16T08:53:14Z</time>
      </trkpt>
      <trkpt lat="45.93936" lon="4.78864">
        <ele>193</ele>
        <time>2018-10-16T08:53:15Z</time>
      </trkpt>
      <trkpt lat="45.93936" lon="4.78869">
        <ele>194</ele>
        <time>2018-10-16T08:53:16Z</time>
      </trkpt>
      <trkpt lat="45.93936" lon="4.78877">
        <ele>193</ele>
        <time>2018-10-16T08:53:17Z</time>
      </trkpt>
      <trkpt lat="45.93935" lon="4.78886">
        <ele>193</ele>
        <time>2018-10-16T08:53:19Z</time>
      </trkpt>
      <trkpt lat="45.93934" lon="4.78893">
        <ele>193</ele>
        <time>2018-10-16T08:53:20Z</time>
      </trkpt>
      <trkpt lat="45.93936" lon="4.78901">
        <ele>193</ele>
        <time>2018-10-16T08:53:21Z</time>
      </trkpt>
      <trkpt lat="45.93936" lon="4.78907">
        <ele>193</ele>
        <time>2018-10-16T08:53:22Z</time>
      </trkpt>
      <trkpt lat="45.93937" lon="4.78913">
        <ele>193</ele>
        <time>2018-10-16T08:53:23Z</time>
      </trkpt>
      <trkpt lat="45.93939" lon="4.78921">
        <ele>193</ele>
        <time>2018-10-16T08:53:24Z</time>
      </trkpt>
      <trkpt lat="45.9394" lon="4.78923">
        <ele>193</ele>
        <time>2018-10-16T08:53:25Z</time>
      </trkpt>
      <trkpt lat="45.93943" lon="4.78933">
        <ele>193</ele>
        <time>2018-10-16T08:53:26Z</time>
      </trkpt>
      <trkpt lat="45.93944" lon="4.78942">
        <ele>194</ele>
        <time>2018-10-16T08:53:27Z</time>
      </trkpt>
      <trkpt lat="45.93945" lon="4.7895">
        <ele>194</ele>
        <time>2018-10-16T08:53:28Z</time>
      </trkpt>
      <trkpt lat="45.93943" lon="4.78958">
        <ele>194</ele>
        <time>2018-10-16T08:53:30Z</time>
      </trkpt>
      <trkpt lat="45.93943" lon="4.78964">
        <ele>194</ele>
        <time>2018-10-16T08:53:31Z</time>
      </trkpt>
      <trkpt lat="45.93944" lon="4.78974">
        <ele>194</ele>
        <time>2018-10-16T08:53:33Z</time>
      </trkpt>
      <trkpt lat="45.93944" lon="4.78979">
        <ele>194</ele>
        <time>2018-10-16T08:53:34Z</time>
      </trkpt>
      <trkpt lat="45.93944" lon="4.7899">
        <ele>194</ele>
        <time>2018-10-16T08:53:36Z</time>
      </trkpt>
      <trkpt lat="45.93944" lon="4.78995">
        <ele>194</ele>
        <time>2018-10-16T08:53:37Z</time>
      </trkpt>
      <trkpt lat="45.93944" lon="4.79003">
        <ele>195</ele>
        <time>2018-10-16T08:53:40Z</time>
      </trkpt>
      <trkpt lat="45.93943" lon="4.79013">
        <ele>195</ele>
        <time>2018-10-16T08:53:41Z</time>
      </trkpt>
      <trkpt lat="45.93941" lon="4.79024">
        <ele>195</ele>
        <time>2018-10-16T08:53:43Z</time>
      </trkpt>
      <trkpt lat="45.9394" lon="4.7903">
        <ele>195</ele>
        <time>2018-10-16T08:53:44Z</time>
      </trkpt>
      <trkpt lat="45.9394" lon="4.79041">
        <ele>195</ele>
        <time>2018-10-16T08:53:45Z</time>
      </trkpt>
      <trkpt lat="45.9394" lon="4.79048">
        <ele>195</ele>
        <time>2018-10-16T08:53:46Z</time>
      </trkpt>
      <trkpt lat="45.93943" lon="4.79058">
        <ele>195</ele>
        <time>2018-10-16T08:53:47Z</time>
      </trkpt>
      <trkpt lat="45.93945" lon="4.79065">
        <ele>195</ele>
        <time>2018-10-16T08:53:48Z</time>
      </trkpt>
      <trkpt lat="45.93944" lon="4.79069">
        <ele>195</ele>
        <time>2018-10-16T08:53:49Z</time>
      </trkpt>
      <trkpt lat="45.93947" lon="4.79079">
        <ele>196</ele>
        <time>2018-10-16T08:53:50Z</time>
      </trkpt>
      <trkpt lat="45.93943" lon="4.79086">
        <ele>196</ele>
        <time>2018-10-16T08:53:53Z</time>
      </trkpt>
      <trkpt lat="45.93945" lon="4.79095">
        <ele>196</ele>
        <time>2018-10-16T08:53:54Z</time>
      </trkpt>
      <trkpt lat="45.93946" lon="4.79108">
        <ele>196</ele>
        <time>2018-10-16T08:53:56Z</time>
      </trkpt>
      <trkpt lat="45.93947" lon="4.79115">
        <ele>196</ele>
        <time>2018-10-16T08:53:57Z</time>
      </trkpt>
      <trkpt lat="45.93947" lon="4.79122">
        <ele>197</ele>
        <time>2018-10-16T08:53:58Z</time>
      </trkpt>
      <trkpt lat="45.93944" lon="4.79129">
        <ele>196</ele>
        <time>2018-10-16T08:53:59Z</time>
      </trkpt>
      <trkpt lat="45.93946" lon="4.79135">
        <ele>196</ele>
        <time>2018-10-16T08:54:00Z</time>
      </trkpt>
      <trkpt lat="45.93946" lon="4.79142">
        <ele>196</ele>
        <time>2018-10-16T08:54:01Z</time>
      </trkpt>
      <trkpt lat="45.93947" lon="4.79148">
        <ele>196</ele>
        <time>2018-10-16T08:54:02Z</time>
      </trkpt>
      <trkpt lat="45.93947" lon="4.79155">
        <ele>196</ele>
        <time>2018-10-16T08:54:03Z</time>
      </trkpt>
      <trkpt lat="45.93949" lon="4.79167">
        <ele>197</ele>
        <time>2018-10-16T08:54:05Z</time>
      </trkpt>
      <trkpt lat="45.9395" lon="4.79173">
        <ele>197</ele>
        <time>2018-10-16T08:54:06Z</time>
      </trkpt>
      <trkpt lat="45.93951" lon="4.79179">
        <ele>197</ele>
        <time>2018-10-16T08:54:07Z</time>
      </trkpt>
      <trkpt lat="45.93953" lon="4.79187">
        <ele>197</ele>
        <time>2018-10-16T08:54:08Z</time>
      </trkpt>
      <trkpt lat="45.93954" lon="4.79199">
        <ele>197</ele>
        <time>2018-10-16T08:54:10Z</time>
      </trkpt>
      <trkpt lat="45.93954" lon="4.79205">
        <ele>197</ele>
        <time>2018-10-16T08:54:11Z</time>
      </trkpt>
      <trkpt lat="45.93954" lon="4.79212">
        <ele>197</ele>
        <time>2018-10-16T08:54:12Z</time>
      </trkpt>
      <trkpt lat="45.93955" lon="4.7922">
        <ele>197</ele>
        <time>2018-10-16T08:54:13Z</time>
      </trkpt>
      <trkpt lat="45.93954" lon="4.79226">
        <ele>197</ele>
        <time>2018-10-16T08:54:14Z</time>
      </trkpt>
      <trkpt lat="45.93956" lon="4.79233">
        <ele>197</ele>
        <time>2018-10-16T08:54:15Z</time>
      </trkpt>
      <trkpt lat="45.93956" lon="4.79239">
        <ele>197</ele>
        <time>2018-10-16T08:54:16Z</time>
      </trkpt>
      <trkpt lat="45.93956" lon="4.79246">
        <ele>197</ele>
        <time>2018-10-16T08:54:17Z</time>
      </trkpt>
      <trkpt lat="45.93956" lon="4.79258">
        <ele>198</ele>
        <time>2018-10-16T08:54:19Z</time>
      </trkpt>
      <trkpt lat="45.93956" lon="4.79263">
        <ele>198</ele>
        <time>2018-10-16T08:54:20Z</time>
      </trkpt>
      <trkpt lat="45.93955" lon="4.79275">
        <ele>198</ele>
        <time>2018-10-16T08:54:24Z</time>
      </trkpt>
      <trkpt lat="45.93955" lon="4.79287">
        <ele>198</ele>
        <time>2018-10-16T08:54:25Z</time>
      </trkpt>
      <trkpt lat="45.93955" lon="4.79299">
        <ele>199</ele>
        <time>2018-10-16T08:54:27Z</time>
      </trkpt>
      <trkpt lat="45.93956" lon="4.79305">
        <ele>199</ele>
        <time>2018-10-16T08:54:28Z</time>
      </trkpt>
      <trkpt lat="45.93956" lon="4.79311">
        <ele>199</ele>
        <time>2018-10-16T08:54:30Z</time>
      </trkpt>
      <trkpt lat="45.93955" lon="4.79321">
        <ele>199</ele>
        <time>2018-10-16T08:54:31Z</time>
      </trkpt>
      <trkpt lat="45.93955" lon="4.79332">
        <ele>199</ele>
        <time>2018-10-16T08:54:33Z</time>
      </trkpt>
      <trkpt lat="45.93954" lon="4.79338">
        <ele>200</ele>
        <time>2018-10-16T08:54:34Z</time>
      </trkpt>
      <trkpt lat="45.93953" lon="4.7935">
        <ele>200</ele>
        <time>2018-10-16T08:54:36Z</time>
      </trkpt>
      <trkpt lat="45.93953" lon="4.79355">
        <ele>200</ele>
        <time>2018-10-16T08:54:37Z</time>
      </trkpt>
      <trkpt lat="45.93953" lon="4.79367">
        <ele>201</ele>
        <time>2018-10-16T08:54:39Z</time>
      </trkpt>
      <trkpt lat="45.93953" lon="4.79372">
        <ele>201</ele>
        <time>2018-10-16T08:54:40Z</time>
      </trkpt>
      <trkpt lat="45.93951" lon="4.79381">
        <ele>201</ele>
        <time>2018-10-16T08:54:42Z</time>
      </trkpt>
      <trkpt lat="45.93951" lon="4.79386">
        <ele>201</ele>
        <time>2018-10-16T08:54:43Z</time>
      </trkpt>
      <trkpt lat="45.93949" lon="4.79395">
        <ele>201</ele>
        <time>2018-10-16T08:54:45Z</time>
      </trkpt>
      <trkpt lat="45.93947" lon="4.79402">
        <ele>200</ele>
        <time>2018-10-16T08:54:46Z</time>
      </trkpt>
      <trkpt lat="45.93948" lon="4.79413">
        <ele>200</ele>
        <time>2018-10-16T08:54:48Z</time>
      </trkpt>
      <trkpt lat="45.93949" lon="4.7942">
        <ele>202</ele>
        <time>2018-10-16T08:54:49Z</time>
      </trkpt>
      <trkpt lat="45.9395" lon="4.79431">
        <ele>202</ele>
        <time>2018-10-16T08:54:51Z</time>
      </trkpt>
      <trkpt lat="45.9395" lon="4.79437">
        <ele>202</ele>
        <time>2018-10-16T08:54:52Z</time>
      </trkpt>
      <trkpt lat="45.9395" lon="4.7945">
        <ele>202</ele>
        <time>2018-10-16T08:54:54Z</time>
      </trkpt>
      <trkpt lat="45.9395" lon="4.79456">
        <ele>202</ele>
        <time>2018-10-16T08:54:55Z</time>
      </trkpt>
      <trkpt lat="45.9395" lon="4.79468">
        <ele>202</ele>
        <time>2018-10-16T08:54:57Z</time>
      </trkpt>
      <trkpt lat="45.9395" lon="4.79475">
        <ele>202</ele>
        <time>2018-10-16T08:54:58Z</time>
      </trkpt>
      <trkpt lat="45.93951" lon="4.79487">
        <ele>202</ele>
        <time>2018-10-16T08:55:00Z</time>
      </trkpt>
      <trkpt lat="45.93951" lon="4.79493">
        <ele>202</ele>
        <time>2018-10-16T08:55:01Z</time>
      </trkpt>
      <trkpt lat="45.93951" lon="4.79506">
        <ele>204</ele>
        <time>2018-10-16T08:55:03Z</time>
      </trkpt>
      <trkpt lat="45.93952" lon="4.79512">
        <ele>204</ele>
        <time>2018-10-16T08:55:04Z</time>
      </trkpt>
      <trkpt lat="45.93952" lon="4.79524">
        <ele>204</ele>
        <time>2018-10-16T08:55:06Z</time>
      </trkpt>
      <trkpt lat="45.93953" lon="4.79529">
        <ele>204</ele>
        <time>2018-10-16T08:55:07Z</time>
      </trkpt>
      <trkpt lat="45.93954" lon="4.7954">
        <ele>205</ele>
        <time>2018-10-16T08:55:09Z</time>
      </trkpt>
      <trkpt lat="45.93954" lon="4.79546">
        <ele>205</ele>
        <time>2018-10-16T08:55:10Z</time>
      </trkpt>
      <trkpt lat="45.93954" lon="4.79552">
        <ele>205</ele>
        <time>2018-10-16T08:55:11Z</time>
      </trkpt>
      <trkpt lat="45.93954" lon="4.79559">
        <ele>205</ele>
        <time>2018-10-16T08:55:12Z</time>
      </trkpt>
      <trkpt lat="45.93956" lon="4.79571">
        <ele>205</ele>
        <time>2018-10-16T08:55:14Z</time>
      </trkpt>
      <trkpt lat="45.93956" lon="4.79577">
        <ele>205</ele>
        <time>2018-10-16T08:55:15Z</time>
      </trkpt>
      <trkpt lat="45.93957" lon="4.79589">
        <ele>207</ele>
        <time>2018-10-16T08:55:17Z</time>
      </trkpt>
      <trkpt lat="45.93958" lon="4.79594">
        <ele>207</ele>
        <time>2018-10-16T08:55:18Z</time>
      </trkpt>
      <trkpt lat="45.9396" lon="4.79606">
        <ele>207</ele>
        <time>2018-10-16T08:55:20Z</time>
      </trkpt>
      <trkpt lat="45.9396" lon="4.79612">
        <ele>207</ele>
        <time>2018-10-16T08:55:21Z</time>
      </trkpt>
      <trkpt lat="45.93961" lon="4.79619">
        <ele>207</ele>
        <time>2018-10-16T08:55:22Z</time>
      </trkpt>
      <trkpt lat="45.93962" lon="4.79627">
        <ele>207</ele>
        <time>2018-10-16T08:55:23Z</time>
      </trkpt>
      <trkpt lat="45.93964" lon="4.79639">
        <ele>207</ele>
        <time>2018-10-16T08:55:25Z</time>
      </trkpt>
      <trkpt lat="45.93965" lon="4.79645">
        <ele>207</ele>
        <time>2018-10-16T08:55:26Z</time>
      </trkpt>
      <trkpt lat="45.93965" lon="4.79652">
        <ele>207</ele>
        <time>2018-10-16T08:55:27Z</time>
      </trkpt>
      <trkpt lat="45.93968" lon="4.79659">
        <ele>208</ele>
        <time>2018-10-16T08:55:28Z</time>
      </trkpt>
      <trkpt lat="45.93965" lon="4.79668">
        <ele>207</ele>
        <time>2018-10-16T08:55:30Z</time>
      </trkpt>
      <trkpt lat="45.93969" lon="4.79677">
        <ele>207</ele>
        <time>2018-10-16T08:55:31Z</time>
      </trkpt>
      <trkpt lat="45.93968" lon="4.79689">
        <ele>207</ele>
        <time>2018-10-16T08:55:33Z</time>
      </trkpt>
      <trkpt lat="45.93969" lon="4.79694">
        <ele>207</ele>
        <time>2018-10-16T08:55:34Z</time>
      </trkpt>
      <trkpt lat="45.93969" lon="4.79701">
        <ele>207</ele>
        <time>2018-10-16T08:55:35Z</time>
      </trkpt>
      <trkpt lat="45.93971" lon="4.79708">
        <ele>207</ele>
        <time>2018-10-16T08:55:36Z</time>
      </trkpt>
      <trkpt lat="45.93971" lon="4.7972">
        <ele>207</ele>
        <time>2018-10-16T08:55:38Z</time>
      </trkpt>
      <trkpt lat="45.93972" lon="4.79728">
        <ele>207</ele>
        <time>2018-10-16T08:55:39Z</time>
      </trkpt>
      <trkpt lat="45.9397" lon="4.79739">
        <ele>207</ele>
        <time>2018-10-16T08:55:41Z</time>
      </trkpt>
      <trkpt lat="45.93972" lon="4.79746">
        <ele>207</ele>
        <time>2018-10-16T08:55:42Z</time>
      </trkpt>
      <trkpt lat="45.93973" lon="4.79753">
        <ele>206</ele>
        <time>2018-10-16T08:55:43Z</time>
      </trkpt>
      <trkpt lat="45.93974" lon="4.7976">
        <ele>206</ele>
        <time>2018-10-16T08:55:44Z</time>
      </trkpt>
      <trkpt lat="45.93973" lon="4.79767">
        <ele>206</ele>
        <time>2018-10-16T08:55:45Z</time>
      </trkpt>
      <trkpt lat="45.93976" lon="4.79777">
        <ele>206</ele>
        <time>2018-10-16T08:55:46Z</time>
      </trkpt>
      <trkpt lat="45.93976" lon="4.79785">
        <ele>206</ele>
        <time>2018-10-16T08:55:47Z</time>
      </trkpt>
      <trkpt lat="45.93976" lon="4.79792">
        <ele>207</ele>
        <time>2018-10-16T08:55:48Z</time>
      </trkpt>
      <trkpt lat="45.93974" lon="4.79798">
        <ele>207</ele>
        <time>2018-10-16T08:55:49Z</time>
      </trkpt>
      <trkpt lat="45.93972" lon="4.79804">
        <ele>207</ele>
        <time>2018-10-16T08:55:50Z</time>
      </trkpt>
      <trkpt lat="45.93972" lon="4.79811">
        <ele>207</ele>
        <time>2018-10-16T08:55:51Z</time>
      </trkpt>
      <trkpt lat="45.93971" lon="4.79819">
        <ele>207</ele>
        <time>2018-10-16T08:55:52Z</time>
      </trkpt>
      <trkpt lat="45.93971" lon="4.79825">
        <ele>207</ele>
        <time>2018-10-16T08:55:53Z</time>
      </trkpt>
      <trkpt lat="45.9397" lon="4.79832">
        <ele>207</ele>
        <time>2018-10-16T08:55:54Z</time>
      </trkpt>
      <trkpt lat="45.93969" lon="4.79839">
        <ele>207</ele>
        <time>2018-10-16T08:55:55Z</time>
      </trkpt>
      <trkpt lat="45.93967" lon="4.79847">
        <ele>206</ele>
        <time>2018-10-16T08:55:56Z</time>
      </trkpt>
      <trkpt lat="45.93967" lon="4.79854">
        <ele>206</ele>
        <time>2018-10-16T08:55:57Z</time>
      </trkpt>
      <trkpt lat="45.93966" lon="4.79862">
        <ele>206</ele>
        <time>2018-10-16T08:55:58Z</time>
      </trkpt>
      <trkpt lat="45.93962" lon="4.79869">
        <ele>206</ele>
        <time>2018-10-16T08:55:59Z</time>
      </trkpt>
      <trkpt lat="45.93962" lon="4.79878">
        <ele>206</ele>
        <time>2018-10-16T08:56:00Z</time>
      </trkpt>
      <trkpt lat="45.93962" lon="4.79884">
        <ele>206</ele>
        <time>2018-10-16T08:56:01Z</time>
      </trkpt>
      <trkpt lat="45.93961" lon="4.79892">
        <ele>206</ele>
        <time>2018-10-16T08:56:02Z</time>
      </trkpt>
      <trkpt lat="45.93958" lon="4.79897">
        <ele>206</ele>
        <time>2018-10-16T08:56:03Z</time>
      </trkpt>
      <trkpt lat="45.93955" lon="4.79903">
        <ele>205</ele>
        <time>2018-10-16T08:56:04Z</time>
      </trkpt>
      <trkpt lat="45.93951" lon="4.79915">
        <ele>205</ele>
        <time>2018-10-16T08:56:06Z</time>
      </trkpt>
      <trkpt lat="45.93948" lon="4.7992">
        <ele>205</ele>
        <time>2018-10-16T08:56:07Z</time>
      </trkpt>
      <trkpt lat="45.93947" lon="4.79928">
        <ele>205</ele>
        <time>2018-10-16T08:56:08Z</time>
      </trkpt>
      <trkpt lat="45.93946" lon="4.79935">
        <ele>205</ele>
        <time>2018-10-16T08:56:09Z</time>
      </trkpt>
      <trkpt lat="45.93946" lon="4.79943">
        <ele>205</ele>
        <time>2018-10-16T08:56:10Z</time>
      </trkpt>
      <trkpt lat="45.93946" lon="4.79949">
        <ele>205</ele>
        <time>2018-10-16T08:56:11Z</time>
      </trkpt>
      <trkpt lat="45.93945" lon="4.79956">
        <ele>205</ele>
        <time>2018-10-16T08:56:12Z</time>
      </trkpt>
      <trkpt lat="45.93944" lon="4.79963">
        <ele>205</ele>
        <time>2018-10-16T08:56:13Z</time>
      </trkpt>
      <trkpt lat="45.93943" lon="4.79971">
        <ele>205</ele>
        <time>2018-10-16T08:56:14Z</time>
      </trkpt>
      <trkpt lat="45.93942" lon="4.79978">
        <ele>205</ele>
        <time>2018-10-16T08:56:15Z</time>
      </trkpt>
      <trkpt lat="45.9394" lon="4.79986">
        <ele>204</ele>
        <time>2018-10-16T08:56:16Z</time>
      </trkpt>
      <trkpt lat="45.9394" lon="4.79993">
        <ele>204</ele>
        <time>2018-10-16T08:56:17Z</time>
      </trkpt>
      <trkpt lat="45.93939" lon="4.8">
        <ele>205</ele>
        <time>2018-10-16T08:56:18Z</time>
      </trkpt>
      <trkpt lat="45.93939" lon="4.80009">
        <ele>205</ele>
        <time>2018-10-16T08:56:19Z</time>
      </trkpt>
      <trkpt lat="45.93939" lon="4.80016">
        <ele>206</ele>
        <time>2018-10-16T08:56:20Z</time>
      </trkpt>
      <trkpt lat="45.93937" lon="4.80023">
        <ele>206</ele>
        <time>2018-10-16T08:56:21Z</time>
      </trkpt>
      <trkpt lat="45.93937" lon="4.80029">
        <ele>206</ele>
        <time>2018-10-16T08:56:22Z</time>
      </trkpt>
      <trkpt lat="45.93935" lon="4.80037">
        <ele>207</ele>
        <time>2018-10-16T08:56:23Z</time>
      </trkpt>
      <trkpt lat="45.93935" lon="4.80044">
        <ele>207</ele>
        <time>2018-10-16T08:56:24Z</time>
      </trkpt>
      <trkpt lat="45.93933" lon="4.80051">
        <ele>207</ele>
        <time>2018-10-16T08:56:25Z</time>
      </trkpt>
      <trkpt lat="45.93931" lon="4.80059">
        <ele>207</ele>
        <time>2018-10-16T08:56:26Z</time>
      </trkpt>
      <trkpt lat="45.93933" lon="4.80067">
        <ele>207</ele>
        <time>2018-10-16T08:56:27Z</time>
      </trkpt>
      <trkpt lat="45.93933" lon="4.80075">
        <ele>207</ele>
        <time>2018-10-16T08:56:28Z</time>
      </trkpt>
      <trkpt lat="45.93934" lon="4.80082">
        <ele>207</ele>
        <time>2018-10-16T08:56:29Z</time>
      </trkpt>
      <trkpt lat="45.93933" lon="4.80088">
        <ele>207</ele>
        <time>2018-10-16T08:56:30Z</time>
      </trkpt>
      <trkpt lat="45.93935" lon="4.80097">
        <ele>208</ele>
        <time>2018-10-16T08:56:31Z</time>
      </trkpt>
      <trkpt lat="45.93935" lon="4.80104">
        <ele>208</ele>
        <time>2018-10-16T08:56:32Z</time>
      </trkpt>
      <trkpt lat="45.93937" lon="4.80112">
        <ele>208</ele>
        <time>2018-10-16T08:56:33Z</time>
      </trkpt>
      <trkpt lat="45.9394" lon="4.80121">
        <ele>208</ele>
        <time>2018-10-16T08:56:34Z</time>
      </trkpt>
      <trkpt lat="45.93939" lon="4.80127">
        <ele>208</ele>
        <time>2018-10-16T08:56:35Z</time>
      </trkpt>
      <trkpt lat="45.93941" lon="4.80139">
        <ele>208</ele>
        <time>2018-10-16T08:56:37Z</time>
      </trkpt>
      <trkpt lat="45.93941" lon="4.80145">
        <ele>208</ele>
        <time>2018-10-16T08:56:38Z</time>
      </trkpt>
      <trkpt lat="45.93942" lon="4.80151">
        <ele>208</ele>
        <time>2018-10-16T08:56:39Z</time>
      </trkpt>
      <trkpt lat="45.93944" lon="4.80158">
        <ele>208</ele>
        <time>2018-10-16T08:56:40Z</time>
      </trkpt>
      <trkpt lat="45.93945" lon="4.80165">
        <ele>208</ele>
        <time>2018-10-16T08:56:41Z</time>
      </trkpt>
      <trkpt lat="45.93947" lon="4.80171">
        <ele>206</ele>
        <time>2018-10-16T08:56:42Z</time>
      </trkpt>
      <trkpt lat="45.93948" lon="4.80179">
        <ele>206</ele>
        <time>2018-10-16T08:56:43Z</time>
      </trkpt>
      <trkpt lat="45.9395" lon="4.80186">
        <ele>206</ele>
        <time>2018-10-16T08:56:44Z</time>
      </trkpt>
      <trkpt lat="45.93952" lon="4.80195">
        <ele>205</ele>
        <time>2018-10-16T08:56:45Z</time>
      </trkpt>
      <trkpt lat="45.93954" lon="4.80202">
        <ele>205</ele>
        <time>2018-10-16T08:56:46Z</time>
      </trkpt>
      <trkpt lat="45.93956" lon="4.80211">
        <ele>205</ele>
        <time>2018-10-16T08:56:47Z</time>
      </trkpt>
      <trkpt lat="45.93958" lon="4.80218">
        <ele>205</ele>
        <time>2018-10-16T08:56:48Z</time>
      </trkpt>
      <trkpt lat="45.9396" lon="4.80226">
        <ele>205</ele>
        <time>2018-10-16T08:56:49Z</time>
      </trkpt>
      <trkpt lat="45.93961" lon="4.80233">
        <ele>204</ele>
        <time>2018-10-16T08:56:50Z</time>
      </trkpt>
      <trkpt lat="45.93964" lon="4.8024">
        <ele>204</ele>
        <time>2018-10-16T08:56:51Z</time>
      </trkpt>
      <trkpt lat="45.93966" lon="4.80247">
        <ele>204</ele>
        <time>2018-10-16T08:56:52Z</time>
      </trkpt>
      <trkpt lat="45.93968" lon="4.80259">
        <ele>202</ele>
        <time>2018-10-16T08:56:54Z</time>
      </trkpt>
      <trkpt lat="45.9397" lon="4.80265">
        <ele>202</ele>
        <time>2018-10-16T08:56:55Z</time>
      </trkpt>
      <trkpt lat="45.93972" lon="4.80271">
        <ele>202</ele>
        <time>2018-10-16T08:56:56Z</time>
      </trkpt>
      <trkpt lat="45.93975" lon="4.80277">
        <ele>203</ele>
        <time>2018-10-16T08:56:57Z</time>
      </trkpt>
      <trkpt lat="45.93977" lon="4.80284">
        <ele>203</ele>
        <time>2018-10-16T08:56:58Z</time>
      </trkpt>
      <trkpt lat="45.93979" lon="4.80289">
        <ele>203</ele>
        <time>2018-10-16T08:56:59Z</time>
      </trkpt>
      <trkpt lat="45.93983" lon="4.803">
        <ele>203</ele>
        <time>2018-10-16T08:57:01Z</time>
      </trkpt>
      <trkpt lat="45.93983" lon="4.80302">
        <ele>203</ele>
        <time>2018-10-16T08:57:02Z</time>
      </trkpt>
      <trkpt lat="45.93986" lon="4.80312">
        <ele>203</ele>
        <time>2018-10-16T08:57:05Z</time>
      </trkpt>
      <trkpt lat="45.93987" lon="4.80315">
        <ele>204</ele>
        <time>2018-10-16T08:57:06Z</time>
      </trkpt>
      <trkpt lat="45.93989" lon="4.80326">
        <ele>204</ele>
        <time>2018-10-16T08:57:09Z</time>
      </trkpt>
      <trkpt lat="45.9399" lon="4.8033">
        <ele>205</ele>
        <time>2018-10-16T08:57:10Z</time>
      </trkpt>
      <trkpt lat="45.93994" lon="4.80341">
        <ele>206</ele>
        <time>2018-10-16T08:57:13Z</time>
      </trkpt>
      <trkpt lat="45.93995" lon="4.80345">
        <ele>206</ele>
        <time>2018-10-16T08:57:14Z</time>
      </trkpt>
      <trkpt lat="45.93998" lon="4.80356">
        <ele>206</ele>
        <time>2018-10-16T08:57:17Z</time>
      </trkpt>
      <trkpt lat="45.93999" lon="4.80359">
        <ele>207</ele>
        <time>2018-10-16T08:57:18Z</time>
      </trkpt>
      <trkpt lat="45.94002" lon="4.80371">
        <ele>215</ele>
        <time>2018-10-16T08:57:21Z</time>
      </trkpt>
      <trkpt lat="45.94003" lon="4.80374">
        <ele>216</ele>
        <time>2018-10-16T08:57:22Z</time>
      </trkpt>
      <trkpt lat="45.94007" lon="4.80385">
        <ele>217</ele>
        <time>2018-10-16T08:57:25Z</time>
      </trkpt>
      <trkpt lat="45.94008" lon="4.80389">
        <ele>217</ele>
        <time>2018-10-16T08:57:26Z</time>
      </trkpt>
      <trkpt lat="45.94011" lon="4.80399">
        <ele>217</ele>
        <time>2018-10-16T08:57:29Z</time>
      </trkpt>
      <trkpt lat="45.94013" lon="4.80403">
        <ele>217</ele>
        <time>2018-10-16T08:57:30Z</time>
      </trkpt>
      <trkpt lat="45.94016" lon="4.80414">
        <ele>218</ele>
        <time>2018-10-16T08:57:33Z</time>
      </trkpt>
      <trkpt lat="45.94017" lon="4.80418">
        <ele>221</ele>
        <time>2018-10-16T08:57:34Z</time>
      </trkpt>
      <trkpt lat="45.94019" lon="4.80429">
        <ele>222</ele>
        <time>2018-10-16T08:57:37Z</time>
      </trkpt>
      <trkpt lat="45.9402" lon="4.80432">
        <ele>222</ele>
        <time>2018-10-16T08:57:38Z</time>
      </trkpt>
      <trkpt lat="45.94021" lon="4.80444">
        <ele>223</ele>
        <time>2018-10-16T08:57:41Z</time>
      </trkpt>
      <trkpt lat="45.94021" lon="4.80448">
        <ele>223</ele>
        <time>2018-10-16T08:57:42Z</time>
      </trkpt>
      <trkpt lat="45.94021" lon="4.8046">
        <ele>223</ele>
        <time>2018-10-16T08:57:45Z</time>
      </trkpt>
      <trkpt lat="45.94021" lon="4.80463">
        <ele>223</ele>
        <time>2018-10-16T08:57:46Z</time>
      </trkpt>
      <trkpt lat="45.9402" lon="4.80474">
        <ele>223</ele>
        <time>2018-10-16T08:57:49Z</time>
      </trkpt>
      <trkpt lat="45.9402" lon="4.80478">
        <ele>223</ele>
        <time>2018-10-16T08:57:50Z</time>
      </trkpt>
      <trkpt lat="45.94019" lon="4.80488">
        <ele>222</ele>
        <time>2018-10-16T08:57:53Z</time>
      </trkpt>
      <trkpt lat="45.94018" lon="4.80491">
        <ele>222</ele>
        <time>2018-10-16T08:57:54Z</time>
      </trkpt>
      <trkpt lat="45.94017" lon="4.80503">
        <ele>223</ele>
        <time>2018-10-16T08:57:58Z</time>
      </trkpt>
      <trkpt lat="45.94017" lon="4.80507">
        <ele>223</ele>
        <time>2018-10-16T08:57:59Z</time>
      </trkpt>
      <trkpt lat="45.94018" lon="4.80517">
        <ele>224</ele>
        <time>2018-10-16T08:58:02Z</time>
      </trkpt>
      <trkpt lat="45.94019" lon="4.80521">
        <ele>224</ele>
        <time>2018-10-16T08:58:03Z</time>
      </trkpt>
      <trkpt lat="45.94021" lon="4.80533">
        <ele>225</ele>
        <time>2018-10-16T08:58:06Z</time>
      </trkpt>
      <trkpt lat="45.94021" lon="4.80538">
        <ele>225</ele>
        <time>2018-10-16T08:58:07Z</time>
      </trkpt>
      <trkpt lat="45.94023" lon="4.80549">
        <ele>225</ele>
        <time>2018-10-16T08:58:10Z</time>
      </trkpt>
      <trkpt lat="45.94023" lon="4.80553">
        <ele>225</ele>
        <time>2018-10-16T08:58:11Z</time>
      </trkpt>
      <trkpt lat="45.94024" lon="4.80563">
        <ele>224</ele>
        <time>2018-10-16T08:58:14Z</time>
      </trkpt>
      <trkpt lat="45.94024" lon="4.80567">
        <ele>224</ele>
        <time>2018-10-16T08:58:15Z</time>
      </trkpt>
      <trkpt lat="45.94023" lon="4.80579">
        <ele>224</ele>
        <time>2018-10-16T08:58:18Z</time>
      </trkpt>
      <trkpt lat="45.94023" lon="4.80583">
        <ele>224</ele>
        <time>2018-10-16T08:58:19Z</time>
      </trkpt>
      <trkpt lat="45.94022" lon="4.80595">
        <ele>224</ele>
        <time>2018-10-16T08:58:22Z</time>
      </trkpt>
      <trkpt lat="45.94023" lon="4.80599">
        <ele>224</ele>
        <time>2018-10-16T08:58:23Z</time>
      </trkpt>
      <trkpt lat="45.94023" lon="4.8061">
        <ele>224</ele>
        <time>2018-10-16T08:58:26Z</time>
      </trkpt>
      <trkpt lat="45.94023" lon="4.80614">
        <ele>225</ele>
        <time>2018-10-16T08:58:27Z</time>
      </trkpt>
      <trkpt lat="45.94023" lon="4.80624">
        <ele>225</ele>
        <time>2018-10-16T08:58:30Z</time>
      </trkpt>
      <trkpt lat="45.94023" lon="4.80627">
        <ele>225</ele>
        <time>2018-10-16T08:58:31Z</time>
      </trkpt>
      <trkpt lat="45.94023" lon="4.80638">
        <ele>224</ele>
        <time>2018-10-16T08:58:34Z</time>
      </trkpt>
      <trkpt lat="45.94024" lon="4.80642">
        <ele>224</ele>
        <time>2018-10-16T08:58:35Z</time>
      </trkpt>
      <trkpt lat="45.94025" lon="4.80654">
        <ele>224</ele>
        <time>2018-10-16T08:58:38Z</time>
      </trkpt>
      <trkpt lat="45.94026" lon="4.80657">
        <ele>224</ele>
        <time>2018-10-16T08:58:39Z</time>
      </trkpt>
      <trkpt lat="45.94027" lon="4.80669">
        <ele>224</ele>
        <time>2018-10-16T08:58:42Z</time>
      </trkpt>
      <trkpt lat="45.94027" lon="4.80673">
        <ele>224</ele>
        <time>2018-10-16T08:58:43Z</time>
      </trkpt>
      <trkpt lat="45.94029" lon="4.80681">
        <ele>224</ele>
        <time>2018-10-16T08:58:45Z</time>
      </trkpt>
      <trkpt lat="45.9403" lon="4.80686">
        <ele>225</ele>
        <time>2018-10-16T08:58:46Z</time>
      </trkpt>
      <trkpt lat="45.94031" lon="4.80695">
        <ele>225</ele>
        <time>2018-10-16T08:58:48Z</time>
      </trkpt>
      <trkpt lat="45.94032" lon="4.80699">
        <ele>225</ele>
        <time>2018-10-16T08:58:49Z</time>
      </trkpt>
      <trkpt lat="45.94034" lon="4.80708">
        <ele>226</ele>
        <time>2018-10-16T08:58:51Z</time>
      </trkpt>
      <trkpt lat="45.94034" lon="4.80712">
        <ele>226</ele>
        <time>2018-10-16T08:58:52Z</time>
      </trkpt>
      <trkpt lat="45.94036" lon="4.80723">
        <ele>226</ele>
        <time>2018-10-16T08:58:55Z</time>
      </trkpt>
      <trkpt lat="45.94037" lon="4.80726">
        <ele>226</ele>
        <time>2018-10-16T08:58:56Z</time>
      </trkpt>
      <trkpt lat="45.94038" lon="4.80737">
        <ele>226</ele>
        <time>2018-10-16T08:58:59Z</time>
      </trkpt>
      <trkpt lat="45.94038" lon="4.8074">
        <ele>226</ele>
        <time>2018-10-16T08:59:00Z</time>
      </trkpt>
      <trkpt lat="45.9404" lon="4.80752">
        <ele>228</ele>
        <time>2018-10-16T08:59:03Z</time>
      </trkpt>
      <trkpt lat="45.94041" lon="4.80756">
        <ele>228</ele>
        <time>2018-10-16T08:59:04Z</time>
      </trkpt>
      <trkpt lat="45.94043" lon="4.80768">
        <ele>228</ele>
        <time>2018-10-16T08:59:07Z</time>
      </trkpt>
      <trkpt lat="45.94044" lon="4.80772">
        <ele>228</ele>
        <time>2018-10-16T08:59:08Z</time>
      </trkpt>
      <trkpt lat="45.94045" lon="4.80783">
        <ele>228</ele>
        <time>2018-10-16T08:59:11Z</time>
      </trkpt>
      <trkpt lat="45.94045" lon="4.80787">
        <ele>228</ele>
        <time>2018-10-16T08:59:12Z</time>
      </trkpt>
      <trkpt lat="45.94046" lon="4.80799">
        <ele>229</ele>
        <time>2018-10-16T08:59:15Z</time>
      </trkpt>
      <trkpt lat="45.94047" lon="4.80803">
        <ele>229</ele>
        <time>2018-10-16T08:59:16Z</time>
      </trkpt>
      <trkpt lat="45.94048" lon="4.80814">
        <ele>229</ele>
        <time>2018-10-16T08:59:19Z</time>
      </trkpt>
      <trkpt lat="45.94049" lon="4.80818">
        <ele>229</ele>
        <time>2018-10-16T08:59:20Z</time>
      </trkpt>
      <trkpt lat="45.9405" lon="4.80829">
        <ele>230</ele>
        <time>2018-10-16T08:59:23Z</time>
      </trkpt>
      <trkpt lat="45.9405" lon="4.80833">
        <ele>230</ele>
        <time>2018-10-16T08:59:24Z</time>
      </trkpt>
      <trkpt lat="45.94052" lon="4.80844">
        <ele>230</ele>
        <time>2018-10-16T08:59:27Z</time>
      </trkpt>
      <trkpt lat="45.94052" lon="4.80847">
        <ele>230</ele>
        <time>2018-10-16T08:59:28Z</time>
      </trkpt>
      <trkpt lat="45.94054" lon="4.80859">
        <ele>230</ele>
        <time>2018-10-16T08:59:31Z</time>
      </trkpt>
      <trkpt lat="45.94055" lon="4.80863">
        <ele>230</ele>
        <time>2018-10-16T08:59:32Z</time>
      </trkpt>
      <trkpt lat="45.94057" lon="4.80874">
        <ele>230</ele>
        <time>2018-10-16T08:59:35Z</time>
      </trkpt>
      <trkpt lat="45.94057" lon="4.80878">
        <ele>231</ele>
        <time>2018-10-16T08:59:36Z</time>
      </trkpt>
      <trkpt lat="45.94059" lon="4.80889">
        <ele>231</ele>
        <time>2018-10-16T08:59:39Z</time>
      </trkpt>
      <trkpt lat="45.9406" lon="4.80893">
        <ele>231</ele>
        <time>2018-10-16T08:59:40Z</time>
      </trkpt>
      <trkpt lat="45.94061" lon="4.80905">
        <ele>232</ele>
        <time>2018-10-16T08:59:43Z</time>
      </trkpt>
      <trkpt lat="45.94062" lon="4.80908">
        <ele>232</ele>
        <time>2018-10-16T08:59:44Z</time>
      </trkpt>
      <trkpt lat="45.94063" lon="4.8092">
        <ele>233</ele>
        <time>2018-10-16T08:59:47Z</time>
      </trkpt>
      <trkpt lat="45.94064" lon="4.80923">
        <ele>233</ele>
        <time>2018-10-16T08:59:48Z</time>
      </trkpt>
      <trkpt lat="45.94065" lon="4.80935">
        <ele>233</ele>
        <time>2018-10-16T08:59:51Z</time>
      </trkpt>
      <trkpt lat="45.94065" lon="4.80938">
        <ele>233</ele>
        <time>2018-10-16T08:59:52Z</time>
      </trkpt>
      <trkpt lat="45.94067" lon="4.80949">
        <ele>232</ele>
        <time>2018-10-16T08:59:55Z</time>
      </trkpt>
      <trkpt lat="45.94067" lon="4.80953">
        <ele>232</ele>
        <time>2018-10-16T08:59:56Z</time>
      </trkpt>
      <trkpt lat="45.94068" lon="4.80963">
        <ele>232</ele>
        <time>2018-10-16T08:59:59Z</time>
      </trkpt>
      <trkpt lat="45.94069" lon="4.80967">
        <ele>233</ele>
        <time>2018-10-16T09:00:00Z</time>
      </trkpt>
      <trkpt lat="45.94071" lon="4.80978">
        <ele>234</ele>
        <time>2018-10-16T09:00:03Z</time>
      </trkpt>
      <trkpt lat="45.94072" lon="4.80981">
        <ele>234</ele>
        <time>2018-10-16T09:00:04Z</time>
      </trkpt>
      <trkpt lat="45.94074" lon="4.80992">
        <ele>236</ele>
        <time>2018-10-16T09:00:07Z</time>
      </trkpt>
      <trkpt lat="45.94074" lon="4.80995">
        <ele>237</ele>
        <time>2018-10-16T09:00:08Z</time>
      </trkpt>
      <trkpt lat="45.94077" lon="4.81005">
        <ele>237</ele>
        <time>2018-10-16T09:00:11Z</time>
      </trkpt>
      <trkpt lat="45.94077" lon="4.81008">
        <ele>237</ele>
        <time>2018-10-16T09:00:12Z</time>
      </trkpt>
      <trkpt lat="45.94079" lon="4.81019">
        <ele>235</ele>
        <time>2018-10-16T09:00:15Z</time>
      </trkpt>
      <trkpt lat="45.9408" lon="4.81025">
        <ele>234</ele>
        <time>2018-10-16T09:00:16Z</time>
      </trkpt>
      <trkpt lat="45.94083" lon="4.81036">
        <ele>234</ele>
        <time>2018-10-16T09:00:19Z</time>
      </trkpt>
      <trkpt lat="45.94084" lon="4.81038">
        <ele>244</ele>
        <time>2018-10-16T09:00:20Z</time>
      </trkpt>
      <trkpt lat="45.94087" lon="4.81048">
        <ele>243</ele>
        <time>2018-10-16T09:00:23Z</time>
      </trkpt>
      <trkpt lat="45.94088" lon="4.81051">
        <ele>243</ele>
        <time>2018-10-16T09:00:24Z</time>
      </trkpt>
      <trkpt lat="45.94092" lon="4.8106">
        <ele>243</ele>
        <time>2018-10-16T09:00:27Z</time>
      </trkpt>
      <trkpt lat="45.94094" lon="4.81064">
        <ele>242</ele>
        <time>2018-10-16T09:00:28Z</time>
      </trkpt>
      <trkpt lat="45.94098" lon="4.81075">
        <ele>242</ele>
        <time>2018-10-16T09:00:31Z</time>
      </trkpt>
      <trkpt lat="45.94099" lon="4.81077">
        <ele>242</ele>
        <time>2018-10-16T09:00:32Z</time>
      </trkpt>
      <trkpt lat="45.94104" lon="4.81086">
        <ele>241</ele>
        <time>2018-10-16T09:00:35Z</time>
      </trkpt>
      <trkpt lat="45.94105" lon="4.81087">
        <ele>241</ele>
        <time>2018-10-16T09:00:36Z</time>
      </trkpt>
      <trkpt lat="45.94112" lon="4.81096">
        <ele>242</ele>
        <time>2018-10-16T09:00:39Z</time>
      </trkpt>
      <trkpt lat="45.94113" lon="4.81098">
        <ele>242</ele>
        <time>2018-10-16T09:00:40Z</time>
      </trkpt>
      <trkpt lat="45.94118" lon="4.81106">
        <ele>243</ele>
        <time>2018-10-16T09:00:42Z</time>
      </trkpt>
      <trkpt lat="45.94119" lon="4.81108">
        <ele>243</ele>
        <time>2018-10-16T09:00:43Z</time>
      </trkpt>
      <trkpt lat="45.94123" lon="4.81118">
        <ele>243</ele>
        <time>2018-10-16T09:00:46Z</time>
      </trkpt>
      <trkpt lat="45.94125" lon="4.81121">
        <ele>243</ele>
        <time>2018-10-16T09:00:47Z</time>
      </trkpt>
      <trkpt lat="45.9413" lon="4.81131">
        <ele>244</ele>
        <time>2018-10-16T09:00:50Z</time>
      </trkpt>
      <trkpt lat="45.94132" lon="4.81134">
        <ele>244</ele>
        <time>2018-10-16T09:00:51Z</time>
      </trkpt>
      <trkpt lat="45.94136" lon="4.81143">
        <ele>244</ele>
        <time>2018-10-16T09:00:54Z</time>
      </trkpt>
      <trkpt lat="45.94138" lon="4.81146">
        <ele>244</ele>
        <time>2018-10-16T09:00:55Z</time>
      </trkpt>
      <trkpt lat="45.94141" lon="4.81154">
        <ele>244</ele>
        <time>2018-10-16T09:00:57Z</time>
      </trkpt>
      <trkpt lat="45.94142" lon="4.81158">
        <ele>245</ele>
        <time>2018-10-16T09:00:58Z</time>
      </trkpt>
      <trkpt lat="45.94147" lon="4.81167">
        <ele>245</ele>
        <time>2018-10-16T09:01:01Z</time>
      </trkpt>
      <trkpt lat="45.94149" lon="4.81172">
        <ele>245</ele>
        <time>2018-10-16T09:01:02Z</time>
      </trkpt>
      <trkpt lat="45.94153" lon="4.81183">
        <ele>245</ele>
        <time>2018-10-16T09:01:05Z</time>
      </trkpt>
      <trkpt lat="45.94154" lon="4.81187">
        <ele>245</ele>
        <time>2018-10-16T09:01:06Z</time>
      </trkpt>
      <trkpt lat="45.94157" lon="4.81196">
        <ele>245</ele>
        <time>2018-10-16T09:01:09Z</time>
      </trkpt>
      <trkpt lat="45.94158" lon="4.812">
        <ele>245</ele>
        <time>2018-10-16T09:01:10Z</time>
      </trkpt>
      <trkpt lat="45.94162" lon="4.8121">
        <ele>245</ele>
        <time>2018-10-16T09:01:13Z</time>
      </trkpt>
      <trkpt lat="45.94163" lon="4.81213">
        <ele>245</ele>
        <time>2018-10-16T09:01:14Z</time>
      </trkpt>
      <trkpt lat="45.94165" lon="4.81224">
        <ele>246</ele>
        <time>2018-10-16T09:01:17Z</time>
      </trkpt>
      <trkpt lat="45.94166" lon="4.81228">
        <ele>246</ele>
        <time>2018-10-16T09:01:18Z</time>
      </trkpt>
      <trkpt lat="45.94167" lon="4.81239">
        <ele>252</ele>
        <time>2018-10-16T09:01:21Z</time>
      </trkpt>
      <trkpt lat="45.94167" lon="4.81243">
        <ele>251</ele>
        <time>2018-10-16T09:01:22Z</time>
      </trkpt>
      <trkpt lat="45.94167" lon="4.81255">
        <ele>251</ele>
        <time>2018-10-16T09:01:26Z</time>
      </trkpt>
      <trkpt lat="45.94167" lon="4.81259">
        <ele>252</ele>
        <time>2018-10-16T09:01:27Z</time>
      </trkpt>
      <trkpt lat="45.94167" lon="4.8127">
        <ele>248</ele>
        <time>2018-10-16T09:01:30Z</time>
      </trkpt>
      <trkpt lat="45.94167" lon="4.81275">
        <ele>254</ele>
        <time>2018-10-16T09:01:31Z</time>
      </trkpt>
      <trkpt lat="45.94169" lon="4.81287">
        <ele>255</ele>
        <time>2018-10-16T09:01:34Z</time>
      </trkpt>
      <trkpt lat="45.94169" lon="4.81292">
        <ele>255</ele>
        <time>2018-10-16T09:01:35Z</time>
      </trkpt>
      <trkpt lat="45.9417" lon="4.81302">
        <ele>255</ele>
        <time>2018-10-16T09:01:38Z</time>
      </trkpt>
      <trkpt lat="45.9417" lon="4.81305">
        <ele>255</ele>
        <time>2018-10-16T09:01:39Z</time>
      </trkpt>
      <trkpt lat="45.9417" lon="4.81315">
        <ele>255</ele>
        <time>2018-10-16T09:01:42Z</time>
      </trkpt>
      <trkpt lat="45.9417" lon="4.81318">
        <ele>255</ele>
        <time>2018-10-16T09:01:43Z</time>
      </trkpt>
      <trkpt lat="45.94171" lon="4.81329">
        <ele>253</ele>
        <time>2018-10-16T09:01:46Z</time>
      </trkpt>
      <trkpt lat="45.94171" lon="4.81332">
        <ele>253</ele>
        <time>2018-10-16T09:01:47Z</time>
      </trkpt>
      <trkpt lat="45.94171" lon="4.81342">
        <ele>254</ele>
        <time>2018-10-16T09:01:51Z</time>
      </trkpt>
      <trkpt lat="45.94171" lon="4.81346">
        <ele>255</ele>
        <time>2018-10-16T09:01:52Z</time>
      </trkpt>
      <trkpt lat="45.9417" lon="4.81354">
        <ele>256</ele>
        <time>2018-10-16T09:01:54Z</time>
      </trkpt>
      <trkpt lat="45.94168" lon="4.81359">
        <ele>257</ele>
        <time>2018-10-16T09:01:55Z</time>
      </trkpt>
      <trkpt lat="45.94166" lon="4.81368">
        <ele>251</ele>
        <time>2018-10-16T09:01:57Z</time>
      </trkpt>
      <trkpt lat="45.94165" lon="4.81372">
        <ele>251</ele>
        <time>2018-10-16T09:01:58Z</time>
      </trkpt>
      <trkpt lat="45.94162" lon="4.81384">
        <ele>251</ele>
        <time>2018-10-16T09:02:01Z</time>
      </trkpt>
      <trkpt lat="45.94161" lon="4.81388">
        <ele>251</ele>
        <time>2018-10-16T09:02:02Z</time>
      </trkpt>
      <trkpt lat="45.9416" lon="4.81395">
        <ele>252</ele>
        <time>2018-10-16T09:02:04Z</time>
      </trkpt>
      <trkpt lat="45.94159" lon="4.81408">
        <ele>253</ele>
        <time>2018-10-16T09:02:05Z</time>
      </trkpt>
      <trkpt lat="45.94157" lon="4.8142">
        <ele>256</ele>
        <time>2018-10-16T09:02:09Z</time>
      </trkpt>
      <trkpt lat="45.94157" lon="4.81423">
        <ele>256</ele>
        <time>2018-10-16T09:02:10Z</time>
      </trkpt>
      <trkpt lat="45.94155" lon="4.81432">
        <ele>256</ele>
        <time>2018-10-16T09:02:13Z</time>
      </trkpt>
      <trkpt lat="45.94155" lon="4.81436">
        <ele>256</ele>
        <time>2018-10-16T09:02:14Z</time>
      </trkpt>
      <trkpt lat="45.94153" lon="4.81446">
        <ele>256</ele>
        <time>2018-10-16T09:02:17Z</time>
      </trkpt>
      <trkpt lat="45.94152" lon="4.8145">
        <ele>257</ele>
        <time>2018-10-16T09:02:18Z</time>
      </trkpt>
      <trkpt lat="45.94149" lon="4.81459">
        <ele>257</ele>
        <time>2018-10-16T09:02:21Z</time>
      </trkpt>
      <trkpt lat="45.94148" lon="4.81463">
        <ele>257</ele>
        <time>2018-10-16T09:02:22Z</time>
      </trkpt>
      <trkpt lat="45.94148" lon="4.81474">
        <ele>258</ele>
        <time>2018-10-16T09:02:25Z</time>
      </trkpt>
      <trkpt lat="45.94148" lon="4.81478">
        <ele>258</ele>
        <time>2018-10-16T09:02:26Z</time>
      </trkpt>
      <trkpt lat="45.94149" lon="4.81488">
        <ele>259</ele>
        <time>2018-10-16T09:02:29Z</time>
      </trkpt>
      <trkpt lat="45.94149" lon="4.81491">
        <ele>259</ele>
        <time>2018-10-16T09:02:30Z</time>
      </trkpt>
      <trkpt lat="45.94149" lon="4.81503">
        <ele>263</ele>
        <time>2018-10-16T09:02:33Z</time>
      </trkpt>
      <trkpt lat="45.94149" lon="4.81508">
        <ele>263</ele>
        <time>2018-10-16T09:02:34Z</time>
      </trkpt>
      <trkpt lat="45.9415" lon="4.81518">
        <ele>263</ele>
        <time>2018-10-16T09:02:36Z</time>
      </trkpt>
      <trkpt lat="45.9415" lon="4.81522">
        <ele>263</ele>
        <time>2018-10-16T09:02:37Z</time>
      </trkpt>
      <trkpt lat="45.9415" lon="4.8153">
        <ele>264</ele>
        <time>2018-10-16T09:02:39Z</time>
      </trkpt>
      <trkpt lat="45.94151" lon="4.81535">
        <ele>264</ele>
        <time>2018-10-16T09:02:40Z</time>
      </trkpt>
      <trkpt lat="45.94152" lon="4.81544">
        <ele>264</ele>
        <time>2018-10-16T09:02:42Z</time>
      </trkpt>
      <trkpt lat="45.94152" lon="4.81549">
        <ele>264</ele>
        <time>2018-10-16T09:02:43Z</time>
      </trkpt>
      <trkpt lat="45.94153" lon="4.81558">
        <ele>265</ele>
        <time>2018-10-16T09:02:45Z</time>
      </trkpt>
      <trkpt lat="45.94154" lon="4.81562">
        <ele>265</ele>
        <time>2018-10-16T09:02:46Z</time>
      </trkpt>
      <trkpt lat="45.94155" lon="4.81571">
        <ele>265</ele>
        <time>2018-10-16T09:02:48Z</time>
      </trkpt>
      <trkpt lat="45.94155" lon="4.81575">
        <ele>266</ele>
        <time>2018-10-16T09:02:49Z</time>
      </trkpt>
      <trkpt lat="45.94156" lon="4.81584">
        <ele>267</ele>
        <time>2018-10-16T09:02:51Z</time>
      </trkpt>
      <trkpt lat="45.94156" lon="4.81588">
        <ele>267</ele>
        <time>2018-10-16T09:02:52Z</time>
      </trkpt>
      <trkpt lat="45.94157" lon="4.81598">
        <ele>267</ele>
        <time>2018-10-16T09:02:54Z</time>
      </trkpt>
      <trkpt lat="45.94158" lon="4.81602">
        <ele>267</ele>
        <time>2018-10-16T09:02:55Z</time>
      </trkpt>
      <trkpt lat="45.94159" lon="4.81612">
        <ele>267</ele>
        <time>2018-10-16T09:02:57Z</time>
      </trkpt>
      <trkpt lat="45.9416" lon="4.81616">
        <ele>268</ele>
        <time>2018-10-16T09:02:58Z</time>
      </trkpt>
      <trkpt lat="45.94162" lon="4.81624">
        <ele>268</ele>
        <time>2018-10-16T09:03:00Z</time>
      </trkpt>
      <trkpt lat="45.94163" lon="4.81628">
        <ele>268</ele>
        <time>2018-10-16T09:03:01Z</time>
      </trkpt>
      <trkpt lat="45.94165" lon="4.81637">
        <ele>268</ele>
        <time>2018-10-16T09:03:03Z</time>
      </trkpt>
      <trkpt lat="45.94166" lon="4.81642">
        <ele>268</ele>
        <time>2018-10-16T09:03:04Z</time>
      </trkpt>
      <trkpt lat="45.94167" lon="4.81653">
        <ele>268</ele>
        <time>2018-10-16T09:03:07Z</time>
      </trkpt>
      <trkpt lat="45.94168" lon="4.81657">
        <ele>268</ele>
        <time>2018-10-16T09:03:08Z</time>
      </trkpt>
      <trkpt lat="45.9417" lon="4.81669">
        <ele>269</ele>
        <time>2018-10-16T09:03:11Z</time>
      </trkpt>
      <trkpt lat="45.94171" lon="4.81673">
        <ele>268</ele>
        <time>2018-10-16T09:03:12Z</time>
      </trkpt>
      <trkpt lat="45.94174" lon="4.81682">
        <ele>268</ele>
        <time>2018-10-16T09:03:14Z</time>
      </trkpt>
      <trkpt lat="45.94175" lon="4.81686">
        <ele>268</ele>
        <time>2018-10-16T09:03:15Z</time>
      </trkpt>
      <trkpt lat="45.94178" lon="4.81695">
        <ele>267</ele>
        <time>2018-10-16T09:03:17Z</time>
      </trkpt>
      <trkpt lat="45.94183" lon="4.8171">
        <ele>267</ele>
        <time>2018-10-16T09:03:18Z</time>
      </trkpt>
      <trkpt lat="45.94187" lon="4.81721">
        <ele>267</ele>
        <time>2018-10-16T09:03:20Z</time>
      </trkpt>
      <trkpt lat="45.94187" lon="4.81724">
        <ele>267</ele>
        <time>2018-10-16T09:03:21Z</time>
      </trkpt>
      <trkpt lat="45.94187" lon="4.81736">
        <ele>267</ele>
        <time>2018-10-16T09:03:24Z</time>
      </trkpt>
      <trkpt lat="45.94187" lon="4.81739">
        <ele>267</ele>
        <time>2018-10-16T09:03:25Z</time>
      </trkpt>
      <trkpt lat="45.94189" lon="4.81752">
        <ele>266</ele>
        <time>2018-10-16T09:03:28Z</time>
      </trkpt>
      <trkpt lat="45.94193" lon="4.81765">
        <ele>266</ele>
        <time>2018-10-16T09:03:29Z</time>
      </trkpt>
      <trkpt lat="45.94196" lon="4.81775">
        <ele>266</ele>
        <time>2018-10-16T09:03:32Z</time>
      </trkpt>
      <trkpt lat="45.94197" lon="4.81778">
        <ele>266</ele>
        <time>2018-10-16T09:03:33Z</time>
      </trkpt>
      <trkpt lat="45.94197" lon="4.81788">
        <ele>266</ele>
        <time>2018-10-16T09:03:36Z</time>
      </trkpt>
      <trkpt lat="45.94197" lon="4.81792">
        <ele>266</ele>
        <time>2018-10-16T09:03:37Z</time>
      </trkpt>
      <trkpt lat="45.94197" lon="4.81806">
        <ele>266</ele>
        <time>2018-10-16T09:03:38Z</time>
      </trkpt>
      <trkpt lat="45.94197" lon="4.81817">
        <ele>266</ele>
        <time>2018-10-16T09:03:41Z</time>
      </trkpt>
      <trkpt lat="45.94197" lon="4.8182">
        <ele>266</ele>
        <time>2018-10-16T09:03:42Z</time>
      </trkpt>
      <trkpt lat="45.94199" lon="4.8183">
        <ele>266</ele>
        <time>2018-10-16T09:03:45Z</time>
      </trkpt>
      <trkpt lat="45.942" lon="4.81833">
        <ele>266</ele>
        <time>2018-10-16T09:03:46Z</time>
      </trkpt>
      <trkpt lat="45.94201" lon="4.81837">
        <ele>266</ele>
        <time>2018-10-16T09:03:47Z</time>
      </trkpt>
      <trkpt lat="45.94204" lon="4.81851">
        <ele>266</ele>
        <time>2018-10-16T09:03:48Z</time>
      </trkpt>
      <trkpt lat="45.94206" lon="4.81862">
        <ele>265</ele>
        <time>2018-10-16T09:03:50Z</time>
      </trkpt>
      <trkpt lat="45.94207" lon="4.81867">
        <ele>265</ele>
        <time>2018-10-16T09:03:51Z</time>
      </trkpt>
      <trkpt lat="45.9421" lon="4.81878">
        <ele>265</ele>
        <time>2018-10-16T09:03:53Z</time>
      </trkpt>
      <trkpt lat="45.94211" lon="4.81884">
        <ele>265</ele>
        <time>2018-10-16T09:03:54Z</time>
      </trkpt>
      <trkpt lat="45.94212" lon="4.81891">
        <ele>265</ele>
        <time>2018-10-16T09:03:55Z</time>
      </trkpt>
      <trkpt lat="45.94213" lon="4.81897">
        <ele>265</ele>
        <time>2018-10-16T09:03:56Z</time>
      </trkpt>
      <trkpt lat="45.94216" lon="4.81909">
        <ele>265</ele>
        <time>2018-10-16T09:03:58Z</time>
      </trkpt>
      <trkpt lat="45.94217" lon="4.81915">
        <ele>265</ele>
        <time>2018-10-16T09:03:59Z</time>
      </trkpt>
      <trkpt lat="45.9422" lon="4.81925">
        <ele>264</ele>
        <time>2018-10-16T09:04:01Z</time>
      </trkpt>
      <trkpt lat="45.94221" lon="4.81931">
        <ele>264</ele>
        <time>2018-10-16T09:04:02Z</time>
      </trkpt>
      <trkpt lat="45.94224" lon="4.81943">
        <ele>264</ele>
        <time>2018-10-16T09:04:04Z</time>
      </trkpt>
      <trkpt lat="45.94225" lon="4.81948">
        <ele>264</ele>
        <time>2018-10-16T09:04:05Z</time>
      </trkpt>
      <trkpt lat="45.94227" lon="4.81959">
        <ele>264</ele>
        <time>2018-10-16T09:04:07Z</time>
      </trkpt>
      <trkpt lat="45.94228" lon="4.81964">
        <ele>264</ele>
        <time>2018-10-16T09:04:08Z</time>
      </trkpt>
      <trkpt lat="45.94231" lon="4.81975">
        <ele>264</ele>
        <time>2018-10-16T09:04:11Z</time>
      </trkpt>
      <trkpt lat="45.94231" lon="4.81978">
        <ele>264</ele>
        <time>2018-10-16T09:04:12Z</time>
      </trkpt>
      <trkpt lat="45.94233" lon="4.8199">
        <ele>263</ele>
        <time>2018-10-16T09:04:15Z</time>
      </trkpt>
      <trkpt lat="45.94236" lon="4.82002">
        <ele>263</ele>
        <time>2018-10-16T09:04:16Z</time>
      </trkpt>
      <trkpt lat="45.94238" lon="4.82014">
        <ele>263</ele>
        <time>2018-10-16T09:04:18Z</time>
      </trkpt>
      <trkpt lat="45.94239" lon="4.82019">
        <ele>263</ele>
        <time>2018-10-16T09:04:19Z</time>
      </trkpt>
      <trkpt lat="45.94241" lon="4.82026">
        <ele>263</ele>
        <time>2018-10-16T09:04:20Z</time>
      </trkpt>
      <trkpt lat="45.94239" lon="4.82035">
        <ele>263</ele>
        <time>2018-10-16T09:04:21Z</time>
      </trkpt>
      <trkpt lat="45.94241" lon="4.82043">
        <ele>263</ele>
        <time>2018-10-16T09:04:22Z</time>
      </trkpt>
      <trkpt lat="45.94242" lon="4.82048">
        <ele>263</ele>
        <time>2018-10-16T09:04:23Z</time>
      </trkpt>
      <trkpt lat="45.94245" lon="4.82056">
        <ele>263</ele>
        <time>2018-10-16T09:04:25Z</time>
      </trkpt>
      <trkpt lat="45.94248" lon="4.8206">
        <ele>263</ele>
        <time>2018-10-16T09:04:26Z</time>
      </trkpt>
      <trkpt lat="45.94249" lon="4.82067">
        <ele>263</ele>
        <time>2018-10-16T09:04:27Z</time>
      </trkpt>
      <trkpt lat="45.9425" lon="4.82073">
        <ele>262</ele>
        <time>2018-10-16T09:04:28Z</time>
      </trkpt>
      <trkpt lat="45.94252" lon="4.82084">
        <ele>262</ele>
        <time>2018-10-16T09:04:30Z</time>
      </trkpt>
      <trkpt lat="45.94252" lon="4.82089">
        <ele>262</ele>
        <time>2018-10-16T09:04:31Z</time>
      </trkpt>
      <trkpt lat="45.94253" lon="4.82097">
        <ele>262</ele>
        <time>2018-10-16T09:04:32Z</time>
      </trkpt>
      <trkpt lat="45.94254" lon="4.82104">
        <ele>262</ele>
        <time>2018-10-16T09:04:33Z</time>
      </trkpt>
      <trkpt lat="45.94255" lon="4.82111">
        <ele>263</ele>
        <time>2018-10-16T09:04:34Z</time>
      </trkpt>
      <trkpt lat="45.94257" lon="4.82118">
        <ele>263</ele>
        <time>2018-10-16T09:04:35Z</time>
      </trkpt>
      <trkpt lat="45.94257" lon="4.82124">
        <ele>263</ele>
        <time>2018-10-16T09:04:36Z</time>
      </trkpt>
      <trkpt lat="45.94259" lon="4.82131">
        <ele>263</ele>
        <time>2018-10-16T09:04:37Z</time>
      </trkpt>
      <trkpt lat="45.94262" lon="4.82138">
        <ele>263</ele>
        <time>2018-10-16T09:04:38Z</time>
      </trkpt>
      <trkpt lat="45.94264" lon="4.82144">
        <ele>263</ele>
        <time>2018-10-16T09:04:39Z</time>
      </trkpt>
      <trkpt lat="45.94268" lon="4.82155">
        <ele>263</ele>
        <time>2018-10-16T09:04:41Z</time>
      </trkpt>
      <trkpt lat="45.94269" lon="4.82161">
        <ele>263</ele>
        <time>2018-10-16T09:04:42Z</time>
      </trkpt>
      <trkpt lat="45.9427" lon="4.82168">
        <ele>263</ele>
        <time>2018-10-16T09:04:43Z</time>
      </trkpt>
      <trkpt lat="45.94272" lon="4.82174">
        <ele>264</ele>
        <time>2018-10-16T09:04:44Z</time>
      </trkpt>
      <trkpt lat="45.94274" lon="4.82182">
        <ele>264</ele>
        <time>2018-10-16T09:04:45Z</time>
      </trkpt>
      <trkpt lat="45.94277" lon="4.82188">
        <ele>264</ele>
        <time>2018-10-16T09:04:46Z</time>
      </trkpt>
      <trkpt lat="45.94278" lon="4.82195">
        <ele>264</ele>
        <time>2018-10-16T09:04:47Z</time>
      </trkpt>
      <trkpt lat="45.9428" lon="4.82201">
        <ele>264</ele>
        <time>2018-10-16T09:04:48Z</time>
      </trkpt>
      <trkpt lat="45.94281" lon="4.82208">
        <ele>264</ele>
        <time>2018-10-16T09:04:49Z</time>
      </trkpt>
      <trkpt lat="45.94283" lon="4.82216">
        <ele>264</ele>
        <time>2018-10-16T09:04:50Z</time>
      </trkpt>
      <trkpt lat="45.94282" lon="4.82228">
        <ele>264</ele>
        <time>2018-10-16T09:04:52Z</time>
      </trkpt>
      <trkpt lat="45.94282" lon="4.82233">
        <ele>264</ele>
        <time>2018-10-16T09:04:53Z</time>
      </trkpt>
      <trkpt lat="45.94283" lon="4.82244">
        <ele>264</ele>
        <time>2018-10-16T09:04:55Z</time>
      </trkpt>
      <trkpt lat="45.94282" lon="4.8225">
        <ele>264</ele>
        <time>2018-10-16T09:04:56Z</time>
      </trkpt>
      <trkpt lat="45.94283" lon="4.82257">
        <ele>265</ele>
        <time>2018-10-16T09:04:57Z</time>
      </trkpt>
      <trkpt lat="45.94284" lon="4.82263">
        <ele>265</ele>
        <time>2018-10-16T09:04:58Z</time>
      </trkpt>
      <trkpt lat="45.94284" lon="4.8227">
        <ele>265</ele>
        <time>2018-10-16T09:04:59Z</time>
      </trkpt>
      <trkpt lat="45.94283" lon="4.82277">
        <ele>265</ele>
        <time>2018-10-16T09:05:00Z</time>
      </trkpt>
      <trkpt lat="45.94285" lon="4.82285">
        <ele>265</ele>
        <time>2018-10-16T09:05:01Z</time>
      </trkpt>
      <trkpt lat="45.94285" lon="4.82292">
        <ele>265</ele>
        <time>2018-10-16T09:05:02Z</time>
      </trkpt>
      <trkpt lat="45.94286" lon="4.82298">
        <ele>265</ele>
        <time>2018-10-16T09:05:03Z</time>
      </trkpt>
      <trkpt lat="45.94286" lon="4.82306">
        <ele>265</ele>
        <time>2018-10-16T09:05:04Z</time>
      </trkpt>
      <trkpt lat="45.94286" lon="4.82312">
        <ele>265</ele>
        <time>2018-10-16T09:05:05Z</time>
      </trkpt>
      <trkpt lat="45.94286" lon="4.82319">
        <ele>265</ele>
        <time>2018-10-16T09:05:06Z</time>
      </trkpt>
      <trkpt lat="45.94288" lon="4.8233">
        <ele>265</ele>
        <time>2018-10-16T09:05:08Z</time>
      </trkpt>
      <trkpt lat="45.94288" lon="4.82336">
        <ele>264</ele>
        <time>2018-10-16T09:05:09Z</time>
      </trkpt>
      <trkpt lat="45.94289" lon="4.82347">
        <ele>264</ele>
        <time>2018-10-16T09:05:11Z</time>
      </trkpt>
      <trkpt lat="45.94289" lon="4.82352">
        <ele>264</ele>
        <time>2018-10-16T09:05:12Z</time>
      </trkpt>
      <trkpt lat="45.9429" lon="4.82364">
        <ele>264</ele>
        <time>2018-10-16T09:05:14Z</time>
      </trkpt>
      <trkpt lat="45.9429" lon="4.82371">
        <ele>264</ele>
        <time>2018-10-16T09:05:15Z</time>
      </trkpt>
      <trkpt lat="45.9429" lon="4.82378">
        <ele>264</ele>
        <time>2018-10-16T09:05:16Z</time>
      </trkpt>
      <trkpt lat="45.94289" lon="4.82385">
        <ele>264</ele>
        <time>2018-10-16T09:05:17Z</time>
      </trkpt>
      <trkpt lat="45.94289" lon="4.82392">
        <ele>264</ele>
        <time>2018-10-16T09:05:18Z</time>
      </trkpt>
      <trkpt lat="45.9429" lon="4.824">
        <ele>264</ele>
        <time>2018-10-16T09:05:19Z</time>
      </trkpt>
      <trkpt lat="45.9429" lon="4.82412">
        <ele>264</ele>
        <time>2018-10-16T09:05:21Z</time>
      </trkpt>
      <trkpt lat="45.94292" lon="4.82418">
        <ele>264</ele>
        <time>2018-10-16T09:05:22Z</time>
      </trkpt>
      <trkpt lat="45.94293" lon="4.8243">
        <ele>264</ele>
        <time>2018-10-16T09:05:24Z</time>
      </trkpt>
      <trkpt lat="45.94293" lon="4.82437">
        <ele>264</ele>
        <time>2018-10-16T09:05:25Z</time>
      </trkpt>
      <trkpt lat="45.94293" lon="4.82444">
        <ele>264</ele>
        <time>2018-10-16T09:05:26Z</time>
      </trkpt>
      <trkpt lat="45.94294" lon="4.82452">
        <ele>264</ele>
        <time>2018-10-16T09:05:27Z</time>
      </trkpt>
      <trkpt lat="45.94294" lon="4.8246">
        <ele>264</ele>
        <time>2018-10-16T09:05:28Z</time>
      </trkpt>
      <trkpt lat="45.94294" lon="4.82466">
        <ele>264</ele>
        <time>2018-10-16T09:05:29Z</time>
      </trkpt>
      <trkpt lat="45.94294" lon="4.82479">
        <ele>264</ele>
        <time>2018-10-16T09:05:31Z</time>
      </trkpt>
      <trkpt lat="45.94295" lon="4.82485">
        <ele>264</ele>
        <time>2018-10-16T09:05:32Z</time>
      </trkpt>
      <trkpt lat="45.94295" lon="4.82496">
        <ele>264</ele>
        <time>2018-10-16T09:05:34Z</time>
      </trkpt>
      <trkpt lat="45.94296" lon="4.82503">
        <ele>264</ele>
        <time>2018-10-16T09:05:35Z</time>
      </trkpt>
      <trkpt lat="45.94297" lon="4.82515">
        <ele>264</ele>
        <time>2018-10-16T09:05:37Z</time>
      </trkpt>
      <trkpt lat="45.94297" lon="4.82521">
        <ele>264</ele>
        <time>2018-10-16T09:05:38Z</time>
      </trkpt>
      <trkpt lat="45.94299" lon="4.82528">
        <ele>264</ele>
        <time>2018-10-16T09:05:39Z</time>
      </trkpt>
      <trkpt lat="45.94299" lon="4.82536">
        <ele>264</ele>
        <time>2018-10-16T09:05:40Z</time>
      </trkpt>
      <trkpt lat="45.943" lon="4.82543">
        <ele>264</ele>
        <time>2018-10-16T09:05:41Z</time>
      </trkpt>
      <trkpt lat="45.943" lon="4.8255">
        <ele>264</ele>
        <time>2018-10-16T09:05:42Z</time>
      </trkpt>
      <trkpt lat="45.943" lon="4.82557">
        <ele>264</ele>
        <time>2018-10-16T09:05:43Z</time>
      </trkpt>
      <trkpt lat="45.943" lon="4.82565">
        <ele>264</ele>
        <time>2018-10-16T09:05:44Z</time>
      </trkpt>
      <trkpt lat="45.94301" lon="4.82573">
        <ele>264</ele>
        <time>2018-10-16T09:05:45Z</time>
      </trkpt>
      <trkpt lat="45.94301" lon="4.8258">
        <ele>264</ele>
        <time>2018-10-16T09:05:46Z</time>
      </trkpt>
      <trkpt lat="45.94301" lon="4.82587">
        <ele>265</ele>
        <time>2018-10-16T09:05:47Z</time>
      </trkpt>
      <trkpt lat="45.943" lon="4.82594">
        <ele>265</ele>
        <time>2018-10-16T09:05:48Z</time>
      </trkpt>
      <trkpt lat="45.94301" lon="4.826">
        <ele>265</ele>
        <time>2018-10-16T09:05:49Z</time>
      </trkpt>
      <trkpt lat="45.94301" lon="4.82607">
        <ele>265</ele>
        <time>2018-10-16T09:05:50Z</time>
      </trkpt>
      <trkpt lat="45.94301" lon="4.82615">
        <ele>265</ele>
        <time>2018-10-16T09:05:51Z</time>
      </trkpt>
      <trkpt lat="45.94301" lon="4.82622">
        <ele>265</ele>
        <time>2018-10-16T09:05:52Z</time>
      </trkpt>
      <trkpt lat="45.943" lon="4.82635">
        <ele>265</ele>
        <time>2018-10-16T09:05:54Z</time>
      </trkpt>
      <trkpt lat="45.94299" lon="4.82643">
        <ele>265</ele>
        <time>2018-10-16T09:05:55Z</time>
      </trkpt>
      <trkpt lat="45.94298" lon="4.8265">
        <ele>265</ele>
        <time>2018-10-16T09:05:56Z</time>
      </trkpt>
      <trkpt lat="45.94299" lon="4.82658">
        <ele>265</ele>
        <time>2018-10-16T09:05:57Z</time>
      </trkpt>
      <trkpt lat="45.94299" lon="4.82665">
        <ele>265</ele>
        <time>2018-10-16T09:05:58Z</time>
      </trkpt>
      <trkpt lat="45.94298" lon="4.82673">
        <ele>265</ele>
        <time>2018-10-16T09:05:59Z</time>
      </trkpt>
      <trkpt lat="45.94299" lon="4.82679">
        <ele>265</ele>
        <time>2018-10-16T09:06:00Z</time>
      </trkpt>
      <trkpt lat="45.94299" lon="4.82686">
        <ele>265</ele>
        <time>2018-10-16T09:06:01Z</time>
      </trkpt>
      <trkpt lat="45.94299" lon="4.82693">
        <ele>265</ele>
        <time>2018-10-16T09:06:02Z</time>
      </trkpt>
      <trkpt lat="45.94299" lon="4.82699">
        <ele>265</ele>
        <time>2018-10-16T09:06:03Z</time>
      </trkpt>
      <trkpt lat="45.94299" lon="4.82706">
        <ele>265</ele>
        <time>2018-10-16T09:06:04Z</time>
      </trkpt>
      <trkpt lat="45.94298" lon="4.82712">
        <ele>265</ele>
        <time>2018-10-16T09:06:05Z</time>
      </trkpt>
      <trkpt lat="45.94298" lon="4.82719">
        <ele>265</ele>
        <time>2018-10-16T09:06:06Z</time>
      </trkpt>
      <trkpt lat="45.94299" lon="4.82726">
        <ele>265</ele>
        <time>2018-10-16T09:06:07Z</time>
      </trkpt>
      <trkpt lat="45.94298" lon="4.82732">
        <ele>265</ele>
        <time>2018-10-16T09:06:08Z</time>
      </trkpt>
      <trkpt lat="45.94299" lon="4.8274">
        <ele>265</ele>
        <time>2018-10-16T09:06:09Z</time>
      </trkpt>
      <trkpt lat="45.94297" lon="4.82752">
        <ele>265</ele>
        <time>2018-10-16T09:06:11Z</time>
      </trkpt>
      <trkpt lat="45.94297" lon="4.82759">
        <ele>265</ele>
        <time>2018-10-16T09:06:12Z</time>
      </trkpt>
      <trkpt lat="45.94296" lon="4.82771">
        <ele>265</ele>
        <time>2018-10-16T09:06:14Z</time>
      </trkpt>
      <trkpt lat="45.94297" lon="4.82778">
        <ele>265</ele>
        <time>2018-10-16T09:06:15Z</time>
      </trkpt>
      <trkpt lat="45.94296" lon="4.82788">
        <ele>265</ele>
        <time>2018-10-16T09:06:17Z</time>
      </trkpt>
      <trkpt lat="45.94295" lon="4.82795">
        <ele>265</ele>
        <time>2018-10-16T09:06:18Z</time>
      </trkpt>
      <trkpt lat="45.94296" lon="4.82806">
        <ele>265</ele>
        <time>2018-10-16T09:06:20Z</time>
      </trkpt>
      <trkpt lat="45.94295" lon="4.82813">
        <ele>265</ele>
        <time>2018-10-16T09:06:21Z</time>
      </trkpt>
      <trkpt lat="45.94295" lon="4.82821">
        <ele>265</ele>
        <time>2018-10-16T09:06:22Z</time>
      </trkpt>
      <trkpt lat="45.94294" lon="4.82829">
        <ele>265</ele>
        <time>2018-10-16T09:06:23Z</time>
      </trkpt>
      <trkpt lat="45.94295" lon="4.82837">
        <ele>265</ele>
        <time>2018-10-16T09:06:24Z</time>
      </trkpt>
      <trkpt lat="45.94295" lon="4.82843">
        <ele>265</ele>
        <time>2018-10-16T09:06:25Z</time>
      </trkpt>
      <trkpt lat="45.94294" lon="4.82855">
        <ele>265</ele>
        <time>2018-10-16T09:06:27Z</time>
      </trkpt>
      <trkpt lat="45.94293" lon="4.8286">
        <ele>265</ele>
        <time>2018-10-16T09:06:28Z</time>
      </trkpt>
      <trkpt lat="45.94292" lon="4.82872">
        <ele>265</ele>
        <time>2018-10-16T09:06:30Z</time>
      </trkpt>
      <trkpt lat="45.94293" lon="4.82878">
        <ele>265</ele>
        <time>2018-10-16T09:06:31Z</time>
      </trkpt>
      <trkpt lat="45.94292" lon="4.82887">
        <ele>265</ele>
        <time>2018-10-16T09:06:33Z</time>
      </trkpt>
      <trkpt lat="45.94292" lon="4.82893">
        <ele>265</ele>
        <time>2018-10-16T09:06:34Z</time>
      </trkpt>
      <trkpt lat="45.94291" lon="4.82905">
        <ele>265</ele>
        <time>2018-10-16T09:06:36Z</time>
      </trkpt>
      <trkpt lat="45.94291" lon="4.82911">
        <ele>265</ele>
        <time>2018-10-16T09:06:37Z</time>
      </trkpt>
      <trkpt lat="45.9429" lon="4.82923">
        <ele>265</ele>
        <time>2018-10-16T09:06:39Z</time>
      </trkpt>
      <trkpt lat="45.9429" lon="4.82929">
        <ele>265</ele>
        <time>2018-10-16T09:06:40Z</time>
      </trkpt>
      <trkpt lat="45.94288" lon="4.82941">
        <ele>265</ele>
        <time>2018-10-16T09:06:42Z</time>
      </trkpt>
      <trkpt lat="45.94287" lon="4.82948">
        <ele>265</ele>
        <time>2018-10-16T09:06:43Z</time>
      </trkpt>
      <trkpt lat="45.94287" lon="4.82956">
        <ele>265</ele>
        <time>2018-10-16T09:06:44Z</time>
      </trkpt>
      <trkpt lat="45.94288" lon="4.82962">
        <ele>265</ele>
        <time>2018-10-16T09:06:45Z</time>
      </trkpt>
      <trkpt lat="45.9429" lon="4.82975">
        <ele>265</ele>
        <time>2018-10-16T09:06:47Z</time>
      </trkpt>
      <trkpt lat="45.94293" lon="4.82982">
        <ele>265</ele>
        <time>2018-10-16T09:06:48Z</time>
      </trkpt>
      <trkpt lat="45.94295" lon="4.82988">
        <ele>265</ele>
        <time>2018-10-16T09:06:49Z</time>
      </trkpt>
      <trkpt lat="45.94298" lon="4.82995">
        <ele>265</ele>
        <time>2018-10-16T09:06:50Z</time>
      </trkpt>
      <trkpt lat="45.94301" lon="4.83002">
        <ele>266</ele>
        <time>2018-10-16T09:06:51Z</time>
      </trkpt>
      <trkpt lat="45.94302" lon="4.83009">
        <ele>266</ele>
        <time>2018-10-16T09:06:52Z</time>
      </trkpt>
      <trkpt lat="45.94302" lon="4.8302">
        <ele>266</ele>
        <time>2018-10-16T09:06:54Z</time>
      </trkpt>
      <trkpt lat="45.94302" lon="4.83025">
        <ele>266</ele>
        <time>2018-10-16T09:06:55Z</time>
      </trkpt>
      <trkpt lat="45.94306" lon="4.83037">
        <ele>266</ele>
        <time>2018-10-16T09:06:57Z</time>
      </trkpt>
      <trkpt lat="45.94306" lon="4.83043">
        <ele>266</ele>
        <time>2018-10-16T09:06:58Z</time>
      </trkpt>
      <trkpt lat="45.94307" lon="4.83049">
        <ele>266</ele>
        <time>2018-10-16T09:06:59Z</time>
      </trkpt>
      <trkpt lat="45.94309" lon="4.83055">
        <ele>266</ele>
        <time>2018-10-16T09:07:00Z</time>
      </trkpt>
      <trkpt lat="45.9431" lon="4.83063">
        <ele>266</ele>
        <time>2018-10-16T09:07:01Z</time>
      </trkpt>
      <trkpt lat="45.94312" lon="4.8307">
        <ele>266</ele>
        <time>2018-10-16T09:07:02Z</time>
      </trkpt>
      <trkpt lat="45.94314" lon="4.83078">
        <ele>266</ele>
        <time>2018-10-16T09:07:03Z</time>
      </trkpt>
      <trkpt lat="45.94316" lon="4.83085">
        <ele>266</ele>
        <time>2018-10-16T09:07:04Z</time>
      </trkpt>
      <trkpt lat="45.94317" lon="4.83091">
        <ele>266</ele>
        <time>2018-10-16T09:07:05Z</time>
      </trkpt>
      <trkpt lat="45.94319" lon="4.83098">
        <ele>266</ele>
        <time>2018-10-16T09:07:06Z</time>
      </trkpt>
      <trkpt lat="45.94322" lon="4.83105">
        <ele>266</ele>
        <time>2018-10-16T09:07:07Z</time>
      </trkpt>
      <trkpt lat="45.94323" lon="4.83112">
        <ele>266</ele>
        <time>2018-10-16T09:07:08Z</time>
      </trkpt>
      <trkpt lat="45.94326" lon="4.83123">
        <ele>266</ele>
        <time>2018-10-16T09:07:10Z</time>
      </trkpt>
      <trkpt lat="45.94328" lon="4.83128">
        <ele>266</ele>
        <time>2018-10-16T09:07:11Z</time>
      </trkpt>
      <trkpt lat="45.94331" lon="4.83134">
        <ele>266</ele>
        <time>2018-10-16T09:07:12Z</time>
      </trkpt>
      <trkpt lat="45.94334" lon="4.8314">
        <ele>266</ele>
        <time>2018-10-16T09:07:13Z</time>
      </trkpt>
      <trkpt lat="45.94336" lon="4.83146">
        <ele>266</ele>
        <time>2018-10-16T09:07:14Z</time>
      </trkpt>
      <trkpt lat="45.94338" lon="4.83152">
        <ele>266</ele>
        <time>2018-10-16T09:07:15Z</time>
      </trkpt>
      <trkpt lat="45.9434" lon="4.8316">
        <ele>266</ele>
        <time>2018-10-16T09:07:16Z</time>
      </trkpt>
      <trkpt lat="45.94344" lon="4.83169">
        <ele>266</ele>
        <time>2018-10-16T09:07:17Z</time>
      </trkpt>
      <trkpt lat="45.94345" lon="4.83176">
        <ele>266</ele>
        <time>2018-10-16T09:07:18Z</time>
      </trkpt>
      <trkpt lat="45.94348" lon="4.83182">
        <ele>266</ele>
        <time>2018-10-16T09:07:19Z</time>
      </trkpt>
      <trkpt lat="45.9435" lon="4.83189">
        <ele>266</ele>
        <time>2018-10-16T09:07:20Z</time>
      </trkpt>
      <trkpt lat="45.94352" lon="4.83197">
        <ele>266</ele>
        <time>2018-10-16T09:07:21Z</time>
      </trkpt>
      <trkpt lat="45.94354" lon="4.83204">
        <ele>266</ele>
        <time>2018-10-16T09:07:22Z</time>
      </trkpt>
      <trkpt lat="45.94358" lon="4.83211">
        <ele>266</ele>
        <time>2018-10-16T09:07:23Z</time>
      </trkpt>
      <trkpt lat="45.94359" lon="4.83218">
        <ele>266</ele>
        <time>2018-10-16T09:07:24Z</time>
      </trkpt>
      <trkpt lat="45.9436" lon="4.83224">
        <ele>266</ele>
        <time>2018-10-16T09:07:25Z</time>
      </trkpt>
      <trkpt lat="45.94363" lon="4.83232">
        <ele>266</ele>
        <time>2018-10-16T09:07:26Z</time>
      </trkpt>
      <trkpt lat="45.94364" lon="4.83238">
        <ele>265</ele>
        <time>2018-10-16T09:07:27Z</time>
      </trkpt>
      <trkpt lat="45.94366" lon="4.83246">
        <ele>265</ele>
        <time>2018-10-16T09:07:28Z</time>
      </trkpt>
      <trkpt lat="45.94371" lon="4.83254">
        <ele>265</ele>
        <time>2018-10-16T09:07:29Z</time>
      </trkpt>
      <trkpt lat="45.94373" lon="4.83261">
        <ele>264</ele>
        <time>2018-10-16T09:07:30Z</time>
      </trkpt>
      <trkpt lat="45.94375" lon="4.83268">
        <ele>264</ele>
        <time>2018-10-16T09:07:31Z</time>
      </trkpt>
      <trkpt lat="45.94378" lon="4.83276">
        <ele>264</ele>
        <time>2018-10-16T09:07:32Z</time>
      </trkpt>
      <trkpt lat="45.94381" lon="4.83282">
        <ele>264</ele>
        <time>2018-10-16T09:07:33Z</time>
      </trkpt>
      <trkpt lat="45.94383" lon="4.83287">
        <ele>264</ele>
        <time>2018-10-16T09:07:34Z</time>
      </trkpt>
      <trkpt lat="45.94385" lon="4.83294">
        <ele>264</ele>
        <time>2018-10-16T09:07:35Z</time>
      </trkpt>
      <trkpt lat="45.94388" lon="4.833">
        <ele>264</ele>
        <time>2018-10-16T09:07:36Z</time>
      </trkpt>
      <trkpt lat="45.94391" lon="4.83306">
        <ele>264</ele>
        <time>2018-10-16T09:07:37Z</time>
      </trkpt>
      <trkpt lat="45.94394" lon="4.83317">
        <ele>264</ele>
        <time>2018-10-16T09:07:39Z</time>
      </trkpt>
      <trkpt lat="45.94397" lon="4.83323">
        <ele>264</ele>
        <time>2018-10-16T09:07:40Z</time>
      </trkpt>
      <trkpt lat="45.94399" lon="4.8333">
        <ele>264</ele>
        <time>2018-10-16T09:07:41Z</time>
      </trkpt>
      <trkpt lat="45.94402" lon="4.83337">
        <ele>263</ele>
        <time>2018-10-16T09:07:42Z</time>
      </trkpt>
      <trkpt lat="45.94405" lon="4.83345">
        <ele>263</ele>
        <time>2018-10-16T09:07:43Z</time>
      </trkpt>
      <trkpt lat="45.94409" lon="4.83351">
        <ele>263</ele>
        <time>2018-10-16T09:07:44Z</time>
      </trkpt>
      <trkpt lat="45.94412" lon="4.83359">
        <ele>264</ele>
        <time>2018-10-16T09:07:45Z</time>
      </trkpt>
      <trkpt lat="45.94415" lon="4.83366">
        <ele>264</ele>
        <time>2018-10-16T09:07:46Z</time>
      </trkpt>
      <trkpt lat="45.94419" lon="4.83372">
        <ele>264</ele>
        <time>2018-10-16T09:07:47Z</time>
      </trkpt>
      <trkpt lat="45.94422" lon="4.83378">
        <ele>264</ele>
        <time>2018-10-16T09:07:48Z</time>
      </trkpt>
      <trkpt lat="45.94425" lon="4.83385">
        <ele>264</ele>
        <time>2018-10-16T09:07:49Z</time>
      </trkpt>
      <trkpt lat="45.94428" lon="4.83392">
        <ele>264</ele>
        <time>2018-10-16T09:07:50Z</time>
      </trkpt>
      <trkpt lat="45.94431" lon="4.83398">
        <ele>264</ele>
        <time>2018-10-16T09:07:51Z</time>
      </trkpt>
      <trkpt lat="45.94434" lon="4.83406">
        <ele>264</ele>
        <time>2018-10-16T09:07:52Z</time>
      </trkpt>
      <trkpt lat="45.94439" lon="4.83413">
        <ele>264</ele>
        <time>2018-10-16T09:07:53Z</time>
      </trkpt>
      <trkpt lat="45.94442" lon="4.8342">
        <ele>264</ele>
        <time>2018-10-16T09:07:54Z</time>
      </trkpt>
      <trkpt lat="45.94444" lon="4.83425">
        <ele>264</ele>
        <time>2018-10-16T09:07:55Z</time>
      </trkpt>
      <trkpt lat="45.94447" lon="4.83431">
        <ele>263</ele>
        <time>2018-10-16T09:07:56Z</time>
      </trkpt>
      <trkpt lat="45.94453" lon="4.8344">
        <ele>263</ele>
        <time>2018-10-16T09:07:58Z</time>
      </trkpt>
      <trkpt lat="45.94457" lon="4.83445">
        <ele>263</ele>
        <time>2018-10-16T09:07:59Z</time>
      </trkpt>
      <trkpt lat="45.9446" lon="4.83451">
        <ele>263</ele>
        <time>2018-10-16T09:08:00Z</time>
      </trkpt>
      <trkpt lat="45.94466" lon="4.8346">
        <ele>263</ele>
        <time>2018-10-16T09:08:01Z</time>
      </trkpt>
      <trkpt lat="45.9447" lon="4.83467">
        <ele>263</ele>
        <time>2018-10-16T09:08:02Z</time>
      </trkpt>
      <trkpt lat="45.94474" lon="4.83475">
        <ele>263</ele>
        <time>2018-10-16T09:08:03Z</time>
      </trkpt>
      <trkpt lat="45.94479" lon="4.83482">
        <ele>263</ele>
        <time>2018-10-16T09:08:04Z</time>
      </trkpt>
      <trkpt lat="45.94483" lon="4.83489">
        <ele>263</ele>
        <time>2018-10-16T09:08:05Z</time>
      </trkpt>
      <trkpt lat="45.94486" lon="4.83496">
        <ele>263</ele>
        <time>2018-10-16T09:08:06Z</time>
      </trkpt>
      <trkpt lat="45.9449" lon="4.83502">
        <ele>263</ele>
        <time>2018-10-16T09:08:07Z</time>
      </trkpt>
      <trkpt lat="45.94494" lon="4.83509">
        <ele>262</ele>
        <time>2018-10-16T09:08:08Z</time>
      </trkpt>
      <trkpt lat="45.94498" lon="4.83515">
        <ele>262</ele>
        <time>2018-10-16T09:08:09Z</time>
      </trkpt>
      <trkpt lat="45.94501" lon="4.8352">
        <ele>262</ele>
        <time>2018-10-16T09:08:10Z</time>
      </trkpt>
      <trkpt lat="45.94504" lon="4.83525">
        <ele>262</ele>
        <time>2018-10-16T09:08:11Z</time>
      </trkpt>
      <trkpt lat="45.94507" lon="4.83531">
        <ele>262</ele>
        <time>2018-10-16T09:08:12Z</time>
      </trkpt>
      <trkpt lat="45.9451" lon="4.83537">
        <ele>262</ele>
        <time>2018-10-16T09:08:13Z</time>
      </trkpt>
      <trkpt lat="45.94514" lon="4.83543">
        <ele>261</ele>
        <time>2018-10-16T09:08:14Z</time>
      </trkpt>
      <trkpt lat="45.94517" lon="4.8355">
        <ele>261</ele>
        <time>2018-10-16T09:08:15Z</time>
      </trkpt>
      <trkpt lat="45.94519" lon="4.83556">
        <ele>261</ele>
        <time>2018-10-16T09:08:16Z</time>
      </trkpt>
      <trkpt lat="45.94522" lon="4.83562">
        <ele>261</ele>
        <time>2018-10-16T09:08:17Z</time>
      </trkpt>
      <trkpt lat="45.94525" lon="4.83568">
        <ele>261</ele>
        <time>2018-10-16T09:08:18Z</time>
      </trkpt>
      <trkpt lat="45.94527" lon="4.83575">
        <ele>261</ele>
        <time>2018-10-16T09:08:19Z</time>
      </trkpt>
      <trkpt lat="45.94527" lon="4.83581">
        <ele>261</ele>
        <time>2018-10-16T09:08:20Z</time>
      </trkpt>
      <trkpt lat="45.94529" lon="4.83587">
        <ele>261</ele>
        <time>2018-10-16T09:08:21Z</time>
      </trkpt>
      <trkpt lat="45.94534" lon="4.83594">
        <ele>261</ele>
        <time>2018-10-16T09:08:22Z</time>
      </trkpt>
      <trkpt lat="45.94535" lon="4.83601">
        <ele>261</ele>
        <time>2018-10-16T09:08:23Z</time>
      </trkpt>
      <trkpt lat="45.94535" lon="4.83607">
        <ele>261</ele>
        <time>2018-10-16T09:08:24Z</time>
      </trkpt>
      <trkpt lat="45.94536" lon="4.83614">
        <ele>261</ele>
        <time>2018-10-16T09:08:25Z</time>
      </trkpt>
      <trkpt lat="45.94538" lon="4.8362">
        <ele>261</ele>
        <time>2018-10-16T09:08:26Z</time>
      </trkpt>
      <trkpt lat="45.9454" lon="4.83629">
        <ele>261</ele>
        <time>2018-10-16T09:08:27Z</time>
      </trkpt>
      <trkpt lat="45.9454" lon="4.83636">
        <ele>261</ele>
        <time>2018-10-16T09:08:28Z</time>
      </trkpt>
      <trkpt lat="45.94541" lon="4.83643">
        <ele>261</ele>
        <time>2018-10-16T09:08:29Z</time>
      </trkpt>
      <trkpt lat="45.94542" lon="4.83651">
        <ele>261</ele>
        <time>2018-10-16T09:08:30Z</time>
      </trkpt>
      <trkpt lat="45.94543" lon="4.83659">
        <ele>261</ele>
        <time>2018-10-16T09:08:31Z</time>
      </trkpt>
      <trkpt lat="45.94544" lon="4.83667">
        <ele>262</ele>
        <time>2018-10-16T09:08:32Z</time>
      </trkpt>
      <trkpt lat="45.94545" lon="4.83675">
        <ele>262</ele>
        <time>2018-10-16T09:08:33Z</time>
      </trkpt>
      <trkpt lat="45.94546" lon="4.83684">
        <ele>262</ele>
        <time>2018-10-16T09:08:34Z</time>
      </trkpt>
      <trkpt lat="45.94547" lon="4.83692">
        <ele>262</ele>
        <time>2018-10-16T09:08:35Z</time>
      </trkpt>
      <trkpt lat="45.94549" lon="4.83699">
        <ele>262</ele>
        <time>2018-10-16T09:08:36Z</time>
      </trkpt>
      <trkpt lat="45.94549" lon="4.83706">
        <ele>262</ele>
        <time>2018-10-16T09:08:37Z</time>
      </trkpt>
      <trkpt lat="45.9455" lon="4.83712">
        <ele>262</ele>
        <time>2018-10-16T09:08:38Z</time>
      </trkpt>
      <trkpt lat="45.9455" lon="4.8372">
        <ele>262</ele>
        <time>2018-10-16T09:08:39Z</time>
      </trkpt>
      <trkpt lat="45.94551" lon="4.83727">
        <ele>262</ele>
        <time>2018-10-16T09:08:40Z</time>
      </trkpt>
      <trkpt lat="45.94553" lon="4.83734">
        <ele>262</ele>
        <time>2018-10-16T09:08:41Z</time>
      </trkpt>
      <trkpt lat="45.94554" lon="4.83739">
        <ele>262</ele>
        <time>2018-10-16T09:08:42Z</time>
      </trkpt>
      <trkpt lat="45.94555" lon="4.83746">
        <ele>262</ele>
        <time>2018-10-16T09:08:43Z</time>
      </trkpt>
      <trkpt lat="45.94557" lon="4.83754">
        <ele>263</ele>
        <time>2018-10-16T09:08:44Z</time>
      </trkpt>
      <trkpt lat="45.94558" lon="4.83761">
        <ele>263</ele>
        <time>2018-10-16T09:08:45Z</time>
      </trkpt>
      <trkpt lat="45.94561" lon="4.83768">
        <ele>263</ele>
        <time>2018-10-16T09:08:46Z</time>
      </trkpt>
      <trkpt lat="45.94562" lon="4.83776">
        <ele>264</ele>
        <time>2018-10-16T09:08:47Z</time>
      </trkpt>
      <trkpt lat="45.94563" lon="4.83784">
        <ele>264</ele>
        <time>2018-10-16T09:08:48Z</time>
      </trkpt>
      <trkpt lat="45.94564" lon="4.83792">
        <ele>264</ele>
        <time>2018-10-16T09:08:49Z</time>
      </trkpt>
      <trkpt lat="45.94565" lon="4.83799">
        <ele>264</ele>
        <time>2018-10-16T09:08:50Z</time>
      </trkpt>
      <trkpt lat="45.94567" lon="4.83807">
        <ele>264</ele>
        <time>2018-10-16T09:08:51Z</time>
      </trkpt>
      <trkpt lat="45.94569" lon="4.83812">
        <ele>264</ele>
        <time>2018-10-16T09:08:52Z</time>
      </trkpt>
      <trkpt lat="45.94569" lon="4.83819">
        <ele>264</ele>
        <time>2018-10-16T09:08:53Z</time>
      </trkpt>
      <trkpt lat="45.9457" lon="4.83826">
        <ele>265</ele>
        <time>2018-10-16T09:08:54Z</time>
      </trkpt>
      <trkpt lat="45.94572" lon="4.83833">
        <ele>265</ele>
        <time>2018-10-16T09:08:55Z</time>
      </trkpt>
      <trkpt lat="45.94573" lon="4.8384">
        <ele>266</ele>
        <time>2018-10-16T09:08:56Z</time>
      </trkpt>
      <trkpt lat="45.94574" lon="4.83847">
        <ele>266</ele>
        <time>2018-10-16T09:08:57Z</time>
      </trkpt>
      <trkpt lat="45.94576" lon="4.83859">
        <ele>266</ele>
        <time>2018-10-16T09:08:59Z</time>
      </trkpt>
      <trkpt lat="45.94577" lon="4.83865">
        <ele>267</ele>
        <time>2018-10-16T09:09:00Z</time>
      </trkpt>
      <trkpt lat="45.94578" lon="4.83876">
        <ele>267</ele>
        <time>2018-10-16T09:09:02Z</time>
      </trkpt>
      <trkpt lat="45.9458" lon="4.83882">
        <ele>267</ele>
        <time>2018-10-16T09:09:03Z</time>
      </trkpt>
      <trkpt lat="45.94581" lon="4.83894">
        <ele>267</ele>
        <time>2018-10-16T09:09:05Z</time>
      </trkpt>
      <trkpt lat="45.94581" lon="4.839">
        <ele>268</ele>
        <time>2018-10-16T09:09:06Z</time>
      </trkpt>
      <trkpt lat="45.94582" lon="4.83912">
        <ele>268</ele>
        <time>2018-10-16T09:09:08Z</time>
      </trkpt>
      <trkpt lat="45.94583" lon="4.83918">
        <ele>268</ele>
        <time>2018-10-16T09:09:09Z</time>
      </trkpt>
      <trkpt lat="45.94585" lon="4.8393">
        <ele>268</ele>
        <time>2018-10-16T09:09:11Z</time>
      </trkpt>
      <trkpt lat="45.94586" lon="4.83935">
        <ele>268</ele>
        <time>2018-10-16T09:09:12Z</time>
      </trkpt>
      <trkpt lat="45.94589" lon="4.83947">
        <ele>268</ele>
        <time>2018-10-16T09:09:14Z</time>
      </trkpt>
      <trkpt lat="45.9459" lon="4.83953">
        <ele>268</ele>
        <time>2018-10-16T09:09:15Z</time>
      </trkpt>
      <trkpt lat="45.94593" lon="4.83963">
        <ele>268</ele>
        <time>2018-10-16T09:09:17Z</time>
      </trkpt>
      <trkpt lat="45.94594" lon="4.83969">
        <ele>268</ele>
        <time>2018-10-16T09:09:18Z</time>
      </trkpt>
      <trkpt lat="45.94595" lon="4.8398">
        <ele>268</ele>
        <time>2018-10-16T09:09:20Z</time>
      </trkpt>
      <trkpt lat="45.94596" lon="4.83986">
        <ele>268</ele>
        <time>2018-10-16T09:09:21Z</time>
      </trkpt>
      <trkpt lat="45.94597" lon="4.83993">
        <ele>269</ele>
        <time>2018-10-16T09:09:22Z</time>
      </trkpt>
      <trkpt lat="45.94598" lon="4.83999">
        <ele>269</ele>
        <time>2018-10-16T09:09:23Z</time>
      </trkpt>
      <trkpt lat="45.946" lon="4.84008">
        <ele>269</ele>
        <time>2018-10-16T09:09:24Z</time>
      </trkpt>
      <trkpt lat="45.946" lon="4.84015">
        <ele>269</ele>
        <time>2018-10-16T09:09:25Z</time>
      </trkpt>
      <trkpt lat="45.94602" lon="4.84028">
        <ele>269</ele>
        <time>2018-10-16T09:09:27Z</time>
      </trkpt>
      <trkpt lat="45.94603" lon="4.84034">
        <ele>269</ele>
        <time>2018-10-16T09:09:28Z</time>
      </trkpt>
      <trkpt lat="45.94605" lon="4.84046">
        <ele>269</ele>
        <time>2018-10-16T09:09:30Z</time>
      </trkpt>
      <trkpt lat="45.94606" lon="4.84052">
        <ele>269</ele>
        <time>2018-10-16T09:09:31Z</time>
      </trkpt>
      <trkpt lat="45.94607" lon="4.84058">
        <ele>269</ele>
        <time>2018-10-16T09:09:32Z</time>
      </trkpt>
      <trkpt lat="45.94608" lon="4.84065">
        <ele>269</ele>
        <time>2018-10-16T09:09:33Z</time>
      </trkpt>
      <trkpt lat="45.94608" lon="4.84077">
        <ele>269</ele>
        <time>2018-10-16T09:09:35Z</time>
      </trkpt>
      <trkpt lat="45.94609" lon="4.84083">
        <ele>269</ele>
        <time>2018-10-16T09:09:36Z</time>
      </trkpt>
      <trkpt lat="45.9461" lon="4.84094">
        <ele>269</ele>
        <time>2018-10-16T09:09:38Z</time>
      </trkpt>
      <trkpt lat="45.9461" lon="4.84101">
        <ele>269</ele>
        <time>2018-10-16T09:09:39Z</time>
      </trkpt>
      <trkpt lat="45.94612" lon="4.84112">
        <ele>269</ele>
        <time>2018-10-16T09:09:41Z</time>
      </trkpt>
      <trkpt lat="45.94614" lon="4.84118">
        <ele>269</ele>
        <time>2018-10-16T09:09:42Z</time>
      </trkpt>
      <trkpt lat="45.94615" lon="4.84125">
        <ele>269</ele>
        <time>2018-10-16T09:09:43Z</time>
      </trkpt>
      <trkpt lat="45.94618" lon="4.84132">
        <ele>269</ele>
        <time>2018-10-16T09:09:44Z</time>
      </trkpt>
      <trkpt lat="45.94619" lon="4.84139">
        <ele>269</ele>
        <time>2018-10-16T09:09:45Z</time>
      </trkpt>
      <trkpt lat="45.9462" lon="4.84146">
        <ele>269</ele>
        <time>2018-10-16T09:09:46Z</time>
      </trkpt>
      <trkpt lat="45.94621" lon="4.84152">
        <ele>269</ele>
        <time>2018-10-16T09:09:47Z</time>
      </trkpt>
      <trkpt lat="45.94622" lon="4.8416">
        <ele>269</ele>
        <time>2018-10-16T09:09:48Z</time>
      </trkpt>
      <trkpt lat="45.94623" lon="4.84172">
        <ele>269</ele>
        <time>2018-10-16T09:09:50Z</time>
      </trkpt>
      <trkpt lat="45.94624" lon="4.84179">
        <ele>269</ele>
        <time>2018-10-16T09:09:51Z</time>
      </trkpt>
      <trkpt lat="45.94624" lon="4.84189">
        <ele>269</ele>
        <time>2018-10-16T09:09:53Z</time>
      </trkpt>
      <trkpt lat="45.94624" lon="4.84194">
        <ele>269</ele>
        <time>2018-10-16T09:09:54Z</time>
      </trkpt>
      <trkpt lat="45.94625" lon="4.84201">
        <ele>269</ele>
        <time>2018-10-16T09:09:55Z</time>
      </trkpt>
      <trkpt lat="45.94626" lon="4.84209">
        <ele>269</ele>
        <time>2018-10-16T09:09:56Z</time>
      </trkpt>
      <trkpt lat="45.94627" lon="4.84221">
        <ele>269</ele>
        <time>2018-10-16T09:09:58Z</time>
      </trkpt>
      <trkpt lat="45.94628" lon="4.84225">
        <ele>269</ele>
        <time>2018-10-16T09:09:59Z</time>
      </trkpt>
      <trkpt lat="45.9463" lon="4.84233">
        <ele>269</ele>
        <time>2018-10-16T09:10:00Z</time>
      </trkpt>
      <trkpt lat="45.9463" lon="4.84238">
        <ele>269</ele>
        <time>2018-10-16T09:10:01Z</time>
      </trkpt>
      <trkpt lat="45.9463" lon="4.84247">
        <ele>269</ele>
        <time>2018-10-16T09:10:03Z</time>
      </trkpt>
      <trkpt lat="45.94632" lon="4.84254">
        <ele>269</ele>
        <time>2018-10-16T09:10:04Z</time>
      </trkpt>
      <trkpt lat="45.94633" lon="4.84261">
        <ele>269</ele>
        <time>2018-10-16T09:10:05Z</time>
      </trkpt>
      <trkpt lat="45.94636" lon="4.84267">
        <ele>269</ele>
        <time>2018-10-16T09:10:06Z</time>
      </trkpt>
      <trkpt lat="45.94637" lon="4.84273">
        <ele>269</ele>
        <time>2018-10-16T09:10:07Z</time>
      </trkpt>
      <trkpt lat="45.94638" lon="4.84281">
        <ele>269</ele>
        <time>2018-10-16T09:10:08Z</time>
      </trkpt>
      <trkpt lat="45.94638" lon="4.84288">
        <ele>269</ele>
        <time>2018-10-16T09:10:09Z</time>
      </trkpt>
      <trkpt lat="45.94639" lon="4.84295">
        <ele>269</ele>
        <time>2018-10-16T09:10:10Z</time>
      </trkpt>
      <trkpt lat="45.9464" lon="4.84302">
        <ele>269</ele>
        <time>2018-10-16T09:10:11Z</time>
      </trkpt>
      <trkpt lat="45.9464" lon="4.84309">
        <ele>269</ele>
        <time>2018-10-16T09:10:12Z</time>
      </trkpt>
      <trkpt lat="45.94642" lon="4.84319">
        <ele>269</ele>
        <time>2018-10-16T09:10:14Z</time>
      </trkpt>
      <trkpt lat="45.94643" lon="4.84325">
        <ele>268</ele>
        <time>2018-10-16T09:10:15Z</time>
      </trkpt>
      <trkpt lat="45.94643" lon="4.84336">
        <ele>268</ele>
        <time>2018-10-16T09:10:17Z</time>
      </trkpt>
      <trkpt lat="45.94644" lon="4.84343">
        <ele>268</ele>
        <time>2018-10-16T09:10:18Z</time>
      </trkpt>
      <trkpt lat="45.94646" lon="4.8435">
        <ele>268</ele>
        <time>2018-10-16T09:10:19Z</time>
      </trkpt>
      <trkpt lat="45.94646" lon="4.84356">
        <ele>268</ele>
        <time>2018-10-16T09:10:20Z</time>
      </trkpt>
      <trkpt lat="45.94647" lon="4.84363">
        <ele>268</ele>
        <time>2018-10-16T09:10:21Z</time>
      </trkpt>
      <trkpt lat="45.94648" lon="4.84371">
        <ele>268</ele>
        <time>2018-10-16T09:10:22Z</time>
      </trkpt>
      <trkpt lat="45.94649" lon="4.84378">
        <ele>268</ele>
        <time>2018-10-16T09:10:23Z</time>
      </trkpt>
      <trkpt lat="45.9465" lon="4.84384">
        <ele>268</ele>
        <time>2018-10-16T09:10:24Z</time>
      </trkpt>
      <trkpt lat="45.94651" lon="4.84397">
        <ele>268</ele>
        <time>2018-10-16T09:10:26Z</time>
      </trkpt>
      <trkpt lat="45.94652" lon="4.84403">
        <ele>268</ele>
        <time>2018-10-16T09:10:27Z</time>
      </trkpt>
      <trkpt lat="45.94654" lon="4.84414">
        <ele>268</ele>
        <time>2018-10-16T09:10:29Z</time>
      </trkpt>
      <trkpt lat="45.94654" lon="4.8442">
        <ele>268</ele>
        <time>2018-10-16T09:10:30Z</time>
      </trkpt>
      <trkpt lat="45.94656" lon="4.8443">
        <ele>268</ele>
        <time>2018-10-16T09:10:32Z</time>
      </trkpt>
      <trkpt lat="45.94657" lon="4.84436">
        <ele>268</ele>
        <time>2018-10-16T09:10:33Z</time>
      </trkpt>
      <trkpt lat="45.94657" lon="4.84442">
        <ele>268</ele>
        <time>2018-10-16T09:10:34Z</time>
      </trkpt>
      <trkpt lat="45.94659" lon="4.84449">
        <ele>268</ele>
        <time>2018-10-16T09:10:35Z</time>
      </trkpt>
      <trkpt lat="45.94661" lon="4.84461">
        <ele>268</ele>
        <time>2018-10-16T09:10:37Z</time>
      </trkpt>
      <trkpt lat="45.94662" lon="4.84468">
        <ele>268</ele>
        <time>2018-10-16T09:10:38Z</time>
      </trkpt>
      <trkpt lat="45.94663" lon="4.84477">
        <ele>268</ele>
        <time>2018-10-16T09:10:39Z</time>
      </trkpt>
      <trkpt lat="45.94664" lon="4.84485">
        <ele>268</ele>
        <time>2018-10-16T09:10:40Z</time>
      </trkpt>
      <trkpt lat="45.94664" lon="4.84492">
        <ele>268</ele>
        <time>2018-10-16T09:10:41Z</time>
      </trkpt>
      <trkpt lat="45.94664" lon="4.84498">
        <ele>268</ele>
        <time>2018-10-16T09:10:42Z</time>
      </trkpt>
      <trkpt lat="45.94665" lon="4.84504">
        <ele>268</ele>
        <time>2018-10-16T09:10:43Z</time>
      </trkpt>
      <trkpt lat="45.94666" lon="4.84512">
        <ele>268</ele>
        <time>2018-10-16T09:10:44Z</time>
      </trkpt>
      <trkpt lat="45.94666" lon="4.84518">
        <ele>268</ele>
        <time>2018-10-16T09:10:45Z</time>
      </trkpt>
      <trkpt lat="45.94665" lon="4.84527">
        <ele>268</ele>
        <time>2018-10-16T09:10:46Z</time>
      </trkpt>
      <trkpt lat="45.94665" lon="4.84534">
        <ele>268</ele>
        <time>2018-10-16T09:10:47Z</time>
      </trkpt>
      <trkpt lat="45.94666" lon="4.8454">
        <ele>268</ele>
        <time>2018-10-16T09:10:48Z</time>
      </trkpt>
      <trkpt lat="45.94669" lon="4.84551">
        <ele>268</ele>
        <time>2018-10-16T09:10:50Z</time>
      </trkpt>
      <trkpt lat="45.9467" lon="4.84559">
        <ele>268</ele>
        <time>2018-10-16T09:10:51Z</time>
      </trkpt>
      <trkpt lat="45.94671" lon="4.84566">
        <ele>268</ele>
        <time>2018-10-16T09:10:52Z</time>
      </trkpt>
      <trkpt lat="45.94671" lon="4.84574">
        <ele>268</ele>
        <time>2018-10-16T09:10:53Z</time>
      </trkpt>
      <trkpt lat="45.94671" lon="4.84583">
        <ele>268</ele>
        <time>2018-10-16T09:10:54Z</time>
      </trkpt>
      <trkpt lat="45.94672" lon="4.84591">
        <ele>268</ele>
        <time>2018-10-16T09:10:55Z</time>
      </trkpt>
      <trkpt lat="45.94672" lon="4.84599">
        <ele>268</ele>
        <time>2018-10-16T09:10:56Z</time>
      </trkpt>
      <trkpt lat="45.94672" lon="4.84608">
        <ele>268</ele>
        <time>2018-10-16T09:10:57Z</time>
      </trkpt>
      <trkpt lat="45.94671" lon="4.84615">
        <ele>268</ele>
        <time>2018-10-16T09:10:58Z</time>
      </trkpt>
      <trkpt lat="45.94672" lon="4.84622">
        <ele>268</ele>
        <time>2018-10-16T09:10:59Z</time>
      </trkpt>
      <trkpt lat="45.94672" lon="4.8463">
        <ele>268</ele>
        <time>2018-10-16T09:11:00Z</time>
      </trkpt>
      <trkpt lat="45.94672" lon="4.84637">
        <ele>268</ele>
        <time>2018-10-16T09:11:01Z</time>
      </trkpt>
      <trkpt lat="45.94672" lon="4.84644">
        <ele>268</ele>
        <time>2018-10-16T09:11:02Z</time>
      </trkpt>
      <trkpt lat="45.94673" lon="4.84651">
        <ele>268</ele>
        <time>2018-10-16T09:11:03Z</time>
      </trkpt>
      <trkpt lat="45.94673" lon="4.84658">
        <ele>268</ele>
        <time>2018-10-16T09:11:04Z</time>
      </trkpt>
      <trkpt lat="45.94674" lon="4.84667">
        <ele>269</ele>
        <time>2018-10-16T09:11:05Z</time>
      </trkpt>
      <trkpt lat="45.94672" lon="4.84679">
        <ele>269</ele>
        <time>2018-10-16T09:11:07Z</time>
      </trkpt>
      <trkpt lat="45.94673" lon="4.84686">
        <ele>269</ele>
        <time>2018-10-16T09:11:08Z</time>
      </trkpt>
      <trkpt lat="45.94674" lon="4.84694">
        <ele>269</ele>
        <time>2018-10-16T09:11:09Z</time>
      </trkpt>
      <trkpt lat="45.94674" lon="4.84702">
        <ele>268</ele>
        <time>2018-10-16T09:11:10Z</time>
      </trkpt>
      <trkpt lat="45.94675" lon="4.84711">
        <ele>269</ele>
        <time>2018-10-16T09:11:11Z</time>
      </trkpt>
      <trkpt lat="45.94675" lon="4.84718">
        <ele>269</ele>
        <time>2018-10-16T09:11:12Z</time>
      </trkpt>
      <trkpt lat="45.94675" lon="4.84725">
        <ele>269</ele>
        <time>2018-10-16T09:11:13Z</time>
      </trkpt>
      <trkpt lat="45.94675" lon="4.84733">
        <ele>269</ele>
        <time>2018-10-16T09:11:14Z</time>
      </trkpt>
      <trkpt lat="45.94674" lon="4.84739">
        <ele>269</ele>
        <time>2018-10-16T09:11:15Z</time>
      </trkpt>
      <trkpt lat="45.94676" lon="4.84746">
        <ele>269</ele>
        <time>2018-10-16T09:11:16Z</time>
      </trkpt>
      <trkpt lat="45.94676" lon="4.84753">
        <ele>269</ele>
        <time>2018-10-16T09:11:17Z</time>
      </trkpt>
      <trkpt lat="45.94677" lon="4.84761">
        <ele>269</ele>
        <time>2018-10-16T09:11:18Z</time>
      </trkpt>
      <trkpt lat="45.94678" lon="4.84768">
        <ele>269</ele>
        <time>2018-10-16T09:11:19Z</time>
      </trkpt>
      <trkpt lat="45.94678" lon="4.84775">
        <ele>269</ele>
        <time>2018-10-16T09:11:20Z</time>
      </trkpt>
      <trkpt lat="45.94678" lon="4.84781">
        <ele>269</ele>
        <time>2018-10-16T09:11:21Z</time>
      </trkpt>
      <trkpt lat="45.94679" lon="4.84788">
        <ele>269</ele>
        <time>2018-10-16T09:11:22Z</time>
      </trkpt>
      <trkpt lat="45.9468" lon="4.84796">
        <ele>268</ele>
        <time>2018-10-16T09:11:23Z</time>
      </trkpt>
      <trkpt lat="45.9468" lon="4.84805">
        <ele>268</ele>
        <time>2018-10-16T09:11:24Z</time>
      </trkpt>
      <trkpt lat="45.94681" lon="4.84813">
        <ele>268</ele>
        <time>2018-10-16T09:11:25Z</time>
      </trkpt>
      <trkpt lat="45.94681" lon="4.84819">
        <ele>268</ele>
        <time>2018-10-16T09:11:26Z</time>
      </trkpt>
      <trkpt lat="45.94682" lon="4.84827">
        <ele>268</ele>
        <time>2018-10-16T09:11:27Z</time>
      </trkpt>
      <trkpt lat="45.94682" lon="4.84835">
        <ele>268</ele>
        <time>2018-10-16T09:11:28Z</time>
      </trkpt>
      <trkpt lat="45.94682" lon="4.84841">
        <ele>268</ele>
        <time>2018-10-16T09:11:29Z</time>
      </trkpt>
      <trkpt lat="45.94683" lon="4.84849">
        <ele>268</ele>
        <time>2018-10-16T09:11:30Z</time>
      </trkpt>
      <trkpt lat="45.94684" lon="4.84856">
        <ele>268</ele>
        <time>2018-10-16T09:11:31Z</time>
      </trkpt>
      <trkpt lat="45.94685" lon="4.84865">
        <ele>268</ele>
        <time>2018-10-16T09:11:32Z</time>
      </trkpt>
      <trkpt lat="45.94686" lon="4.84872">
        <ele>268</ele>
        <time>2018-10-16T09:11:33Z</time>
      </trkpt>
      <trkpt lat="45.94687" lon="4.84879">
        <ele>268</ele>
        <time>2018-10-16T09:11:34Z</time>
      </trkpt>
      <trkpt lat="45.94687" lon="4.8489">
        <ele>268</ele>
        <time>2018-10-16T09:11:36Z</time>
      </trkpt>
      <trkpt lat="45.94688" lon="4.84896">
        <ele>268</ele>
        <time>2018-10-16T09:11:37Z</time>
      </trkpt>
      <trkpt lat="45.94689" lon="4.84904">
        <ele>268</ele>
        <time>2018-10-16T09:11:38Z</time>
      </trkpt>
      <trkpt lat="45.94689" lon="4.84912">
        <ele>269</ele>
        <time>2018-10-16T09:11:39Z</time>
      </trkpt>
      <trkpt lat="45.9469" lon="4.84919">
        <ele>269</ele>
        <time>2018-10-16T09:11:40Z</time>
      </trkpt>
      <trkpt lat="45.94691" lon="4.84926">
        <ele>269</ele>
        <time>2018-10-16T09:11:41Z</time>
      </trkpt>
      <trkpt lat="45.94692" lon="4.84934">
        <ele>269</ele>
        <time>2018-10-16T09:11:42Z</time>
      </trkpt>
      <trkpt lat="45.94693" lon="4.84941">
        <ele>269</ele>
        <time>2018-10-16T09:11:43Z</time>
      </trkpt>
      <trkpt lat="45.94693" lon="4.84948">
        <ele>269</ele>
        <time>2018-10-16T09:11:44Z</time>
      </trkpt>
      <trkpt lat="45.94694" lon="4.84955">
        <ele>269</ele>
        <time>2018-10-16T09:11:45Z</time>
      </trkpt>
      <trkpt lat="45.94695" lon="4.84967">
        <ele>269</ele>
        <time>2018-10-16T09:11:47Z</time>
      </trkpt>
      <trkpt lat="45.94695" lon="4.84973">
        <ele>269</ele>
        <time>2018-10-16T09:11:48Z</time>
      </trkpt>
      <trkpt lat="45.94696" lon="4.8498">
        <ele>269</ele>
        <time>2018-10-16T09:11:49Z</time>
      </trkpt>
      <trkpt lat="45.94697" lon="4.84987">
        <ele>269</ele>
        <time>2018-10-16T09:11:50Z</time>
      </trkpt>
      <trkpt lat="45.94699" lon="4.84995">
        <ele>269</ele>
        <time>2018-10-16T09:11:51Z</time>
      </trkpt>
      <trkpt lat="45.947" lon="4.85001">
        <ele>269</ele>
        <time>2018-10-16T09:11:52Z</time>
      </trkpt>
      <trkpt lat="45.94701" lon="4.85008">
        <ele>269</ele>
        <time>2018-10-16T09:11:53Z</time>
      </trkpt>
      <trkpt lat="45.94703" lon="4.85015">
        <ele>269</ele>
        <time>2018-10-16T09:11:54Z</time>
      </trkpt>
      <trkpt lat="45.94704" lon="4.85022">
        <ele>269</ele>
        <time>2018-10-16T09:11:55Z</time>
      </trkpt>
      <trkpt lat="45.94704" lon="4.8503">
        <ele>269</ele>
        <time>2018-10-16T09:11:56Z</time>
      </trkpt>
      <trkpt lat="45.94706" lon="4.85039">
        <ele>269</ele>
        <time>2018-10-16T09:11:57Z</time>
      </trkpt>
      <trkpt lat="45.94707" lon="4.85046">
        <ele>269</ele>
        <time>2018-10-16T09:11:58Z</time>
      </trkpt>
      <trkpt lat="45.94707" lon="4.85052">
        <ele>269</ele>
        <time>2018-10-16T09:11:59Z</time>
      </trkpt>
      <trkpt lat="45.94708" lon="4.85059">
        <ele>269</ele>
        <time>2018-10-16T09:12:00Z</time>
      </trkpt>
      <trkpt lat="45.9471" lon="4.8507">
        <ele>269</ele>
        <time>2018-10-16T09:12:02Z</time>
      </trkpt>
      <trkpt lat="45.94712" lon="4.85077">
        <ele>269</ele>
        <time>2018-10-16T09:12:03Z</time>
      </trkpt>
      <trkpt lat="45.94712" lon="4.85089">
        <ele>269</ele>
        <time>2018-10-16T09:12:05Z</time>
      </trkpt>
      <trkpt lat="45.94713" lon="4.85094">
        <ele>269</ele>
        <time>2018-10-16T09:12:06Z</time>
      </trkpt>
      <trkpt lat="45.94713" lon="4.85107">
        <ele>269</ele>
        <time>2018-10-16T09:12:08Z</time>
      </trkpt>
      <trkpt lat="45.94714" lon="4.85114">
        <ele>269</ele>
        <time>2018-10-16T09:12:09Z</time>
      </trkpt>
      <trkpt lat="45.94714" lon="4.85121">
        <ele>269</ele>
        <time>2018-10-16T09:12:10Z</time>
      </trkpt>
      <trkpt lat="45.94715" lon="4.85128">
        <ele>269</ele>
        <time>2018-10-16T09:12:11Z</time>
      </trkpt>
      <trkpt lat="45.94716" lon="4.85136">
        <ele>269</ele>
        <time>2018-10-16T09:12:12Z</time>
      </trkpt>
      <trkpt lat="45.94717" lon="4.85144">
        <ele>269</ele>
        <time>2018-10-16T09:12:13Z</time>
      </trkpt>
      <trkpt lat="45.94717" lon="4.8515">
        <ele>269</ele>
        <time>2018-10-16T09:12:14Z</time>
      </trkpt>
      <trkpt lat="45.94718" lon="4.85157">
        <ele>269</ele>
        <time>2018-10-16T09:12:15Z</time>
      </trkpt>
      <trkpt lat="45.94718" lon="4.85168">
        <ele>269</ele>
        <time>2018-10-16T09:12:17Z</time>
      </trkpt>
      <trkpt lat="45.94718" lon="4.85174">
        <ele>269</ele>
        <time>2018-10-16T09:12:18Z</time>
      </trkpt>
      <trkpt lat="45.94721" lon="4.85185">
        <ele>269</ele>
        <time>2018-10-16T09:12:20Z</time>
      </trkpt>
      <trkpt lat="45.94719" lon="4.85192">
        <ele>269</ele>
        <time>2018-10-16T09:12:21Z</time>
      </trkpt>
      <trkpt lat="45.94718" lon="4.852">
        <ele>269</ele>
        <time>2018-10-16T09:12:22Z</time>
      </trkpt>
      <trkpt lat="45.94719" lon="4.85209">
        <ele>269</ele>
        <time>2018-10-16T09:12:23Z</time>
      </trkpt>
      <trkpt lat="45.94722" lon="4.85216">
        <ele>269</ele>
        <time>2018-10-16T09:12:24Z</time>
      </trkpt>
      <trkpt lat="45.94723" lon="4.85224">
        <ele>269</ele>
        <time>2018-10-16T09:12:25Z</time>
      </trkpt>
      <trkpt lat="45.94723" lon="4.85234">
        <ele>269</ele>
        <time>2018-10-16T09:12:26Z</time>
      </trkpt>
      <trkpt lat="45.94724" lon="4.85241">
        <ele>269</ele>
        <time>2018-10-16T09:12:27Z</time>
      </trkpt>
      <trkpt lat="45.94726" lon="4.85253">
        <ele>269</ele>
        <time>2018-10-16T09:12:29Z</time>
      </trkpt>
      <trkpt lat="45.94727" lon="4.8526">
        <ele>269</ele>
        <time>2018-10-16T09:12:30Z</time>
      </trkpt>
      <trkpt lat="45.94727" lon="4.85273">
        <ele>269</ele>
        <time>2018-10-16T09:12:32Z</time>
      </trkpt>
      <trkpt lat="45.94728" lon="4.85277">
        <ele>269</ele>
        <time>2018-10-16T09:12:33Z</time>
      </trkpt>
      <trkpt lat="45.9473" lon="4.85289">
        <ele>269</ele>
        <time>2018-10-16T09:12:35Z</time>
      </trkpt>
      <trkpt lat="45.94732" lon="4.85295">
        <ele>270</ele>
        <time>2018-10-16T09:12:36Z</time>
      </trkpt>
      <trkpt lat="45.94731" lon="4.85301">
        <ele>270</ele>
        <time>2018-10-16T09:12:37Z</time>
      </trkpt>
      <trkpt lat="45.94731" lon="4.85308">
        <ele>270</ele>
        <time>2018-10-16T09:12:38Z</time>
      </trkpt>
      <trkpt lat="45.94731" lon="4.85316">
        <ele>270</ele>
        <time>2018-10-16T09:12:39Z</time>
      </trkpt>
      <trkpt lat="45.94732" lon="4.85323">
        <ele>270</ele>
        <time>2018-10-16T09:12:40Z</time>
      </trkpt>
      <trkpt lat="45.94732" lon="4.8533">
        <ele>270</ele>
        <time>2018-10-16T09:12:41Z</time>
      </trkpt>
      <trkpt lat="45.94733" lon="4.85338">
        <ele>271</ele>
        <time>2018-10-16T09:12:42Z</time>
      </trkpt>
      <trkpt lat="45.94733" lon="4.85346">
        <ele>271</ele>
        <time>2018-10-16T09:12:43Z</time>
      </trkpt>
      <trkpt lat="45.94734" lon="4.85354">
        <ele>271</ele>
        <time>2018-10-16T09:12:44Z</time>
      </trkpt>
      <trkpt lat="45.94735" lon="4.85361">
        <ele>271</ele>
        <time>2018-10-16T09:12:45Z</time>
      </trkpt>
      <trkpt lat="45.94736" lon="4.85368">
        <ele>271</ele>
        <time>2018-10-16T09:12:46Z</time>
      </trkpt>
      <trkpt lat="45.94738" lon="4.8538">
        <ele>271</ele>
        <time>2018-10-16T09:12:48Z</time>
      </trkpt>
      <trkpt lat="45.94741" lon="4.85386">
        <ele>272</ele>
        <time>2018-10-16T09:12:49Z</time>
      </trkpt>
      <trkpt lat="45.94742" lon="4.85392">
        <ele>272</ele>
        <time>2018-10-16T09:12:50Z</time>
      </trkpt>
      <trkpt lat="45.94742" lon="4.85399">
        <ele>272</ele>
        <time>2018-10-16T09:12:51Z</time>
      </trkpt>
      <trkpt lat="45.94743" lon="4.85405">
        <ele>272</ele>
        <time>2018-10-16T09:12:52Z</time>
      </trkpt>
      <trkpt lat="45.94744" lon="4.85413">
        <ele>273</ele>
        <time>2018-10-16T09:12:53Z</time>
      </trkpt>
      <trkpt lat="45.94746" lon="4.85425">
        <ele>273</ele>
        <time>2018-10-16T09:12:55Z</time>
      </trkpt>
      <trkpt lat="45.94748" lon="4.85432">
        <ele>273</ele>
        <time>2018-10-16T09:12:56Z</time>
      </trkpt>
      <trkpt lat="45.94748" lon="4.85443">
        <ele>274</ele>
        <time>2018-10-16T09:12:58Z</time>
      </trkpt>
      <trkpt lat="45.94749" lon="4.85448">
        <ele>274</ele>
        <time>2018-10-16T09:12:59Z</time>
      </trkpt>
      <trkpt lat="45.9475" lon="4.85459">
        <ele>275</ele>
        <time>2018-10-16T09:13:01Z</time>
      </trkpt>
      <trkpt lat="45.94751" lon="4.85464">
        <ele>275</ele>
        <time>2018-10-16T09:13:02Z</time>
      </trkpt>
      <trkpt lat="45.94752" lon="4.85475">
        <ele>275</ele>
        <time>2018-10-16T09:13:04Z</time>
      </trkpt>
      <trkpt lat="45.94753" lon="4.8548">
        <ele>275</ele>
        <time>2018-10-16T09:13:05Z</time>
      </trkpt>
      <trkpt lat="45.94753" lon="4.8549">
        <ele>276</ele>
        <time>2018-10-16T09:13:08Z</time>
      </trkpt>
      <trkpt lat="45.94754" lon="4.85501">
        <ele>276</ele>
        <time>2018-10-16T09:13:09Z</time>
      </trkpt>
      <trkpt lat="45.94756" lon="4.8551">
        <ele>277</ele>
        <time>2018-10-16T09:13:11Z</time>
      </trkpt>
      <trkpt lat="45.94757" lon="4.85515">
        <ele>277</ele>
        <time>2018-10-16T09:13:12Z</time>
      </trkpt>
      <trkpt lat="45.94758" lon="4.85525">
        <ele>277</ele>
        <time>2018-10-16T09:13:15Z</time>
      </trkpt>
      <trkpt lat="45.94758" lon="4.8553">
        <ele>278</ele>
        <time>2018-10-16T09:13:16Z</time>
      </trkpt>
      <trkpt lat="45.94759" lon="4.8554">
        <ele>278</ele>
        <time>2018-10-16T09:13:17Z</time>
      </trkpt>
      <trkpt lat="45.94759" lon="4.85543">
        <ele>278</ele>
        <time>2018-10-16T09:13:18Z</time>
      </trkpt>
      <trkpt lat="45.94761" lon="4.85555">
        <ele>278</ele>
        <time>2018-10-16T09:13:22Z</time>
      </trkpt>
      <trkpt lat="45.94761" lon="4.8556">
        <ele>278</ele>
        <time>2018-10-16T09:13:23Z</time>
      </trkpt>
      <trkpt lat="45.94763" lon="4.85571">
        <ele>279</ele>
        <time>2018-10-16T09:13:26Z</time>
      </trkpt>
      <trkpt lat="45.94764" lon="4.85575">
        <ele>279</ele>
        <time>2018-10-16T09:13:27Z</time>
      </trkpt>
      <trkpt lat="45.94766" lon="4.85587">
        <ele>280</ele>
        <time>2018-10-16T09:13:30Z</time>
      </trkpt>
      <trkpt lat="45.94767" lon="4.8559">
        <ele>280</ele>
        <time>2018-10-16T09:13:31Z</time>
      </trkpt>
      <trkpt lat="45.94769" lon="4.85602">
        <ele>280</ele>
        <time>2018-10-16T09:13:33Z</time>
      </trkpt>
      <trkpt lat="45.9477" lon="4.85605">
        <ele>280</ele>
        <time>2018-10-16T09:13:34Z</time>
      </trkpt>
      <trkpt lat="45.94773" lon="4.85614">
        <ele>280</ele>
        <time>2018-10-16T09:13:36Z</time>
      </trkpt>
      <trkpt lat="45.94774" lon="4.85619">
        <ele>280</ele>
        <time>2018-10-16T09:13:37Z</time>
      </trkpt>
      <trkpt lat="45.94777" lon="4.85631">
        <ele>280</ele>
        <time>2018-10-16T09:13:40Z</time>
      </trkpt>
      <trkpt lat="45.94779" lon="4.85636">
        <ele>281</ele>
        <time>2018-10-16T09:13:41Z</time>
      </trkpt>
      <trkpt lat="45.94782" lon="4.85648">
        <ele>281</ele>
        <time>2018-10-16T09:13:42Z</time>
      </trkpt>
      <trkpt lat="45.94784" lon="4.85658">
        <ele>281</ele>
        <time>2018-10-16T09:13:44Z</time>
      </trkpt>
      <trkpt lat="45.94785" lon="4.85663">
        <ele>281</ele>
        <time>2018-10-16T09:13:45Z</time>
      </trkpt>
      <trkpt lat="45.94788" lon="4.85673">
        <ele>280</ele>
        <time>2018-10-16T09:13:47Z</time>
      </trkpt>
      <trkpt lat="45.9479" lon="4.85678">
        <ele>280</ele>
        <time>2018-10-16T09:13:48Z</time>
      </trkpt>
      <trkpt lat="45.94793" lon="4.85689">
        <ele>280</ele>
        <time>2018-10-16T09:13:50Z</time>
      </trkpt>
      <trkpt lat="45.94795" lon="4.85694">
        <ele>280</ele>
        <time>2018-10-16T09:13:51Z</time>
      </trkpt>
      <trkpt lat="45.94797" lon="4.85706">
        <ele>280</ele>
        <time>2018-10-16T09:13:53Z</time>
      </trkpt>
      <trkpt lat="45.94798" lon="4.85712">
        <ele>280</ele>
        <time>2018-10-16T09:13:54Z</time>
      </trkpt>
      <trkpt lat="45.94801" lon="4.85723">
        <ele>280</ele>
        <time>2018-10-16T09:13:56Z</time>
      </trkpt>
      <trkpt lat="45.94804" lon="4.85729">
        <ele>280</ele>
        <time>2018-10-16T09:13:57Z</time>
      </trkpt>
      <trkpt lat="45.94808" lon="4.8574">
        <ele>279</ele>
        <time>2018-10-16T09:13:59Z</time>
      </trkpt>
      <trkpt lat="45.9481" lon="4.85746">
        <ele>279</ele>
        <time>2018-10-16T09:14:00Z</time>
      </trkpt>
      <trkpt lat="45.94812" lon="4.85752">
        <ele>278</ele>
        <time>2018-10-16T09:14:01Z</time>
      </trkpt>
      <trkpt lat="45.94814" lon="4.8576">
        <ele>278</ele>
        <time>2018-10-16T09:14:02Z</time>
      </trkpt>
      <trkpt lat="45.94815" lon="4.85767">
        <ele>278</ele>
        <time>2018-10-16T09:14:03Z</time>
      </trkpt>
      <trkpt lat="45.94816" lon="4.85774">
        <ele>278</ele>
        <time>2018-10-16T09:14:04Z</time>
      </trkpt>
      <trkpt lat="45.94817" lon="4.85781">
        <ele>278</ele>
        <time>2018-10-16T09:14:05Z</time>
      </trkpt>
      <trkpt lat="45.94818" lon="4.85788">
        <ele>278</ele>
        <time>2018-10-16T09:14:06Z</time>
      </trkpt>
      <trkpt lat="45.9482" lon="4.85796">
        <ele>278</ele>
        <time>2018-10-16T09:14:07Z</time>
      </trkpt>
      <trkpt lat="45.94823" lon="4.85802">
        <ele>278</ele>
        <time>2018-10-16T09:14:08Z</time>
      </trkpt>
      <trkpt lat="45.94824" lon="4.85809">
        <ele>278</ele>
        <time>2018-10-16T09:14:09Z</time>
      </trkpt>
      <trkpt lat="45.94826" lon="4.85816">
        <ele>278</ele>
        <time>2018-10-16T09:14:10Z</time>
      </trkpt>
      <trkpt lat="45.94828" lon="4.85822">
        <ele>277</ele>
        <time>2018-10-16T09:14:11Z</time>
      </trkpt>
      <trkpt lat="45.94831" lon="4.8583">
        <ele>277</ele>
        <time>2018-10-16T09:14:12Z</time>
      </trkpt>
      <trkpt lat="45.94833" lon="4.85836">
        <ele>277</ele>
        <time>2018-10-16T09:14:13Z</time>
      </trkpt>
      <trkpt lat="45.94834" lon="4.85842">
        <ele>277</ele>
        <time>2018-10-16T09:14:14Z</time>
      </trkpt>
      <trkpt lat="45.94836" lon="4.85849">
        <ele>277</ele>
        <time>2018-10-16T09:14:15Z</time>
      </trkpt>
      <trkpt lat="45.94838" lon="4.85854">
        <ele>276</ele>
        <time>2018-10-16T09:14:16Z</time>
      </trkpt>
      <trkpt lat="45.9484" lon="4.85862">
        <ele>276</ele>
        <time>2018-10-16T09:14:17Z</time>
      </trkpt>
      <trkpt lat="45.94842" lon="4.85869">
        <ele>276</ele>
        <time>2018-10-16T09:14:18Z</time>
      </trkpt>
      <trkpt lat="45.94844" lon="4.85876">
        <ele>276</ele>
        <time>2018-10-16T09:14:19Z</time>
      </trkpt>
      <trkpt lat="45.94848" lon="4.85881">
        <ele>276</ele>
        <time>2018-10-16T09:14:20Z</time>
      </trkpt>
      <trkpt lat="45.94849" lon="4.85887">
        <ele>276</ele>
        <time>2018-10-16T09:14:21Z</time>
      </trkpt>
      <trkpt lat="45.94852" lon="4.85897">
        <ele>276</ele>
        <time>2018-10-16T09:14:22Z</time>
      </trkpt>
      <trkpt lat="45.94855" lon="4.85905">
        <ele>276</ele>
        <time>2018-10-16T09:14:23Z</time>
      </trkpt>
      <trkpt lat="45.94857" lon="4.85911">
        <ele>276</ele>
        <time>2018-10-16T09:14:24Z</time>
      </trkpt>
      <trkpt lat="45.94859" lon="4.8592">
        <ele>275</ele>
        <time>2018-10-16T09:14:25Z</time>
      </trkpt>
      <trkpt lat="45.94861" lon="4.85929">
        <ele>275</ele>
        <time>2018-10-16T09:14:26Z</time>
      </trkpt>
      <trkpt lat="45.94862" lon="4.85937">
        <ele>275</ele>
        <time>2018-10-16T09:14:27Z</time>
      </trkpt>
      <trkpt lat="45.94864" lon="4.85945">
        <ele>275</ele>
        <time>2018-10-16T09:14:28Z</time>
      </trkpt>
      <trkpt lat="45.94866" lon="4.85953">
        <ele>275</ele>
        <time>2018-10-16T09:14:29Z</time>
      </trkpt>
      <trkpt lat="45.94868" lon="4.85962">
        <ele>275</ele>
        <time>2018-10-16T09:14:30Z</time>
      </trkpt>
      <trkpt lat="45.9487" lon="4.85969">
        <ele>275</ele>
        <time>2018-10-16T09:14:31Z</time>
      </trkpt>
      <trkpt lat="45.94871" lon="4.85977">
        <ele>275</ele>
        <time>2018-10-16T09:14:32Z</time>
      </trkpt>
      <trkpt lat="45.94873" lon="4.85984">
        <ele>275</ele>
        <time>2018-10-16T09:14:33Z</time>
      </trkpt>
      <trkpt lat="45.94875" lon="4.85993">
        <ele>275</ele>
        <time>2018-10-16T09:14:34Z</time>
      </trkpt>
      <trkpt lat="45.94877" lon="4.86001">
        <ele>274</ele>
        <time>2018-10-16T09:14:35Z</time>
      </trkpt>
      <trkpt lat="45.9488" lon="4.86008">
        <ele>274</ele>
        <time>2018-10-16T09:14:36Z</time>
      </trkpt>
      <trkpt lat="45.94882" lon="4.86015">
        <ele>274</ele>
        <time>2018-10-16T09:14:37Z</time>
      </trkpt>
      <trkpt lat="45.94883" lon="4.86023">
        <ele>274</ele>
        <time>2018-10-16T09:14:38Z</time>
      </trkpt>
      <trkpt lat="45.94885" lon="4.8603">
        <ele>274</ele>
        <time>2018-10-16T09:14:39Z</time>
      </trkpt>
      <trkpt lat="45.94886" lon="4.86037">
        <ele>274</ele>
        <time>2018-10-16T09:14:40Z</time>
      </trkpt>
      <trkpt lat="45.94888" lon="4.86044">
        <ele>274</ele>
        <time>2018-10-16T09:14:41Z</time>
      </trkpt>
      <trkpt lat="45.9489" lon="4.86052">
        <ele>274</ele>
        <time>2018-10-16T09:14:42Z</time>
      </trkpt>
      <trkpt lat="45.94892" lon="4.86061">
        <ele>274</ele>
        <time>2018-10-16T09:14:43Z</time>
      </trkpt>
      <trkpt lat="45.94894" lon="4.8607">
        <ele>274</ele>
        <time>2018-10-16T09:14:44Z</time>
      </trkpt>
      <trkpt lat="45.94896" lon="4.86078">
        <ele>274</ele>
        <time>2018-10-16T09:14:45Z</time>
      </trkpt>
      <trkpt lat="45.94899" lon="4.86086">
        <ele>274</ele>
        <time>2018-10-16T09:14:46Z</time>
      </trkpt>
      <trkpt lat="45.94901" lon="4.86094">
        <ele>274</ele>
        <time>2018-10-16T09:14:47Z</time>
      </trkpt>
      <trkpt lat="45.94904" lon="4.86102">
        <ele>274</ele>
        <time>2018-10-16T09:14:48Z</time>
      </trkpt>
      <trkpt lat="45.94907" lon="4.8611">
        <ele>274</ele>
        <time>2018-10-16T09:14:49Z</time>
      </trkpt>
      <trkpt lat="45.94911" lon="4.86116">
        <ele>274</ele>
        <time>2018-10-16T09:14:50Z</time>
      </trkpt>
      <trkpt lat="45.94913" lon="4.86122">
        <ele>274</ele>
        <time>2018-10-16T09:14:51Z</time>
      </trkpt>
      <trkpt lat="45.94917" lon="4.86129">
        <ele>274</ele>
        <time>2018-10-16T09:14:52Z</time>
      </trkpt>
      <trkpt lat="45.9492" lon="4.86134">
        <ele>273</ele>
        <time>2018-10-16T09:14:53Z</time>
      </trkpt>
      <trkpt lat="45.94924" lon="4.86139">
        <ele>273</ele>
        <time>2018-10-16T09:14:54Z</time>
      </trkpt>
      <trkpt lat="45.94927" lon="4.86146">
        <ele>273</ele>
        <time>2018-10-16T09:14:55Z</time>
      </trkpt>
      <trkpt lat="45.94931" lon="4.86152">
        <ele>273</ele>
        <time>2018-10-16T09:14:56Z</time>
      </trkpt>
      <trkpt lat="45.94936" lon="4.86157">
        <ele>273</ele>
        <time>2018-10-16T09:14:57Z</time>
      </trkpt>
      <trkpt lat="45.94942" lon="4.86164">
        <ele>273</ele>
        <time>2018-10-16T09:14:58Z</time>
      </trkpt>
      <trkpt lat="45.94946" lon="4.8617">
        <ele>273</ele>
        <time>2018-10-16T09:14:59Z</time>
      </trkpt>
      <trkpt lat="45.94952" lon="4.86175">
        <ele>273</ele>
        <time>2018-10-16T09:15:00Z</time>
      </trkpt>
      <trkpt lat="45.94957" lon="4.86182">
        <ele>273</ele>
        <time>2018-10-16T09:15:01Z</time>
      </trkpt>
      <trkpt lat="45.94961" lon="4.86188">
        <ele>272</ele>
        <time>2018-10-16T09:15:02Z</time>
      </trkpt>
      <trkpt lat="45.94964" lon="4.86192">
        <ele>272</ele>
        <time>2018-10-16T09:15:03Z</time>
      </trkpt>
      <trkpt lat="45.94969" lon="4.86198">
        <ele>272</ele>
        <time>2018-10-16T09:15:04Z</time>
      </trkpt>
      <trkpt lat="45.94973" lon="4.86203">
        <ele>272</ele>
        <time>2018-10-16T09:15:05Z</time>
      </trkpt>
      <trkpt lat="45.94977" lon="4.86209">
        <ele>272</ele>
        <time>2018-10-16T09:15:06Z</time>
      </trkpt>
      <trkpt lat="45.94982" lon="4.86216">
        <ele>272</ele>
        <time>2018-10-16T09:15:07Z</time>
      </trkpt>
      <trkpt lat="45.94987" lon="4.86222">
        <ele>272</ele>
        <time>2018-10-16T09:15:08Z</time>
      </trkpt>
      <trkpt lat="45.94994" lon="4.86229">
        <ele>272</ele>
        <time>2018-10-16T09:15:09Z</time>
      </trkpt>
      <trkpt lat="45.95" lon="4.86236">
        <ele>272</ele>
        <time>2018-10-16T09:15:10Z</time>
      </trkpt>
      <trkpt lat="45.95005" lon="4.86243">
        <ele>272</ele>
        <time>2018-10-16T09:15:11Z</time>
      </trkpt>
      <trkpt lat="45.9501" lon="4.8625">
        <ele>272</ele>
        <time>2018-10-16T09:15:12Z</time>
      </trkpt>
      <trkpt lat="45.95016" lon="4.86257">
        <ele>272</ele>
        <time>2018-10-16T09:15:13Z</time>
      </trkpt>
      <trkpt lat="45.95021" lon="4.86264">
        <ele>271</ele>
        <time>2018-10-16T09:15:14Z</time>
      </trkpt>
      <trkpt lat="45.95025" lon="4.8627">
        <ele>271</ele>
        <time>2018-10-16T09:15:15Z</time>
      </trkpt>
      <trkpt lat="45.95032" lon="4.86276">
        <ele>271</ele>
        <time>2018-10-16T09:15:16Z</time>
      </trkpt>
      <trkpt lat="45.95038" lon="4.86283">
        <ele>271</ele>
        <time>2018-10-16T09:15:17Z</time>
      </trkpt>
      <trkpt lat="45.95043" lon="4.86289">
        <ele>271</ele>
        <time>2018-10-16T09:15:18Z</time>
      </trkpt>
      <trkpt lat="45.95048" lon="4.86297">
        <ele>271</ele>
        <time>2018-10-16T09:15:19Z</time>
      </trkpt>
      <trkpt lat="45.95053" lon="4.86304">
        <ele>271</ele>
        <time>2018-10-16T09:15:20Z</time>
      </trkpt>
      <trkpt lat="45.95059" lon="4.8631">
        <ele>271</ele>
        <time>2018-10-16T09:15:21Z</time>
      </trkpt>
      <trkpt lat="45.95064" lon="4.86317">
        <ele>270</ele>
        <time>2018-10-16T09:15:22Z</time>
      </trkpt>
      <trkpt lat="45.95071" lon="4.86325">
        <ele>270</ele>
        <time>2018-10-16T09:15:23Z</time>
      </trkpt>
      <trkpt lat="45.95076" lon="4.86332">
        <ele>270</ele>
        <time>2018-10-16T09:15:24Z</time>
      </trkpt>
      <trkpt lat="45.95082" lon="4.86339">
        <ele>270</ele>
        <time>2018-10-16T09:15:25Z</time>
      </trkpt>
      <trkpt lat="45.95087" lon="4.86346">
        <ele>269</ele>
        <time>2018-10-16T09:15:26Z</time>
      </trkpt>
      <trkpt lat="45.95092" lon="4.86351">
        <ele>269</ele>
        <time>2018-10-16T09:15:27Z</time>
      </trkpt>
      <trkpt lat="45.95097" lon="4.86358">
        <ele>269</ele>
        <time>2018-10-16T09:15:28Z</time>
      </trkpt>
      <trkpt lat="45.95103" lon="4.86364">
        <ele>269</ele>
        <time>2018-10-16T09:15:29Z</time>
      </trkpt>
      <trkpt lat="45.95108" lon="4.8637">
        <ele>269</ele>
        <time>2018-10-16T09:15:30Z</time>
      </trkpt>
      <trkpt lat="45.95113" lon="4.86377">
        <ele>269</ele>
        <time>2018-10-16T09:15:31Z</time>
      </trkpt>
      <trkpt lat="45.95118" lon="4.86384">
        <ele>269</ele>
        <time>2018-10-16T09:15:32Z</time>
      </trkpt>
      <trkpt lat="45.95123" lon="4.86391">
        <ele>269</ele>
        <time>2018-10-16T09:15:33Z</time>
      </trkpt>
      <trkpt lat="45.95127" lon="4.86398">
        <ele>268</ele>
        <time>2018-10-16T09:15:34Z</time>
      </trkpt>
      <trkpt lat="45.95132" lon="4.86403">
        <ele>268</ele>
        <time>2018-10-16T09:15:35Z</time>
      </trkpt>
      <trkpt lat="45.95136" lon="4.86408">
        <ele>268</ele>
        <time>2018-10-16T09:15:36Z</time>
      </trkpt>
      <trkpt lat="45.95141" lon="4.86414">
        <ele>268</ele>
        <time>2018-10-16T09:15:37Z</time>
      </trkpt>
      <trkpt lat="45.95148" lon="4.86421">
        <ele>268</ele>
        <time>2018-10-16T09:15:38Z</time>
      </trkpt>
      <trkpt lat="45.95152" lon="4.86426">
        <ele>268</ele>
        <time>2018-10-16T09:15:39Z</time>
      </trkpt>
      <trkpt lat="45.95157" lon="4.86431">
        <ele>268</ele>
        <time>2018-10-16T09:15:40Z</time>
      </trkpt>
      <trkpt lat="45.95162" lon="4.86436">
        <ele>268</ele>
        <time>2018-10-16T09:15:41Z</time>
      </trkpt>
      <trkpt lat="45.95167" lon="4.86441">
        <ele>267</ele>
        <time>2018-10-16T09:15:42Z</time>
      </trkpt>
      <trkpt lat="45.95171" lon="4.86446">
        <ele>267</ele>
        <time>2018-10-16T09:15:43Z</time>
      </trkpt>
      <trkpt lat="45.95176" lon="4.8645">
        <ele>268</ele>
        <time>2018-10-16T09:15:44Z</time>
      </trkpt>
      <trkpt lat="45.9518" lon="4.86456">
        <ele>268</ele>
        <time>2018-10-16T09:15:45Z</time>
      </trkpt>
      <trkpt lat="45.95185" lon="4.86462">
        <ele>268</ele>
        <time>2018-10-16T09:15:46Z</time>
      </trkpt>
      <trkpt lat="45.95189" lon="4.86469">
        <ele>268</ele>
        <time>2018-10-16T09:15:47Z</time>
      </trkpt>
      <trkpt lat="45.95194" lon="4.86476">
        <ele>268</ele>
        <time>2018-10-16T09:15:48Z</time>
      </trkpt>
      <trkpt lat="45.95199" lon="4.86482">
        <ele>268</ele>
        <time>2018-10-16T09:15:49Z</time>
      </trkpt>
      <trkpt lat="45.95205" lon="4.86488">
        <ele>268</ele>
        <time>2018-10-16T09:15:50Z</time>
      </trkpt>
      <trkpt lat="45.9521" lon="4.86494">
        <ele>268</ele>
        <time>2018-10-16T09:15:51Z</time>
      </trkpt>
      <trkpt lat="45.95216" lon="4.86501">
        <ele>268</ele>
        <time>2018-10-16T09:15:52Z</time>
      </trkpt>
      <trkpt lat="45.95221" lon="4.86508">
        <ele>268</ele>
        <time>2018-10-16T09:15:53Z</time>
      </trkpt>
      <trkpt lat="45.95226" lon="4.86515">
        <ele>268</ele>
        <time>2018-10-16T09:15:54Z</time>
      </trkpt>
      <trkpt lat="45.95233" lon="4.86521">
        <ele>268</ele>
        <time>2018-10-16T09:15:55Z</time>
      </trkpt>
      <trkpt lat="45.95239" lon="4.86527">
        <ele>268</ele>
        <time>2018-10-16T09:15:56Z</time>
      </trkpt>
      <trkpt lat="45.95245" lon="4.86535">
        <ele>268</ele>
        <time>2018-10-16T09:15:57Z</time>
      </trkpt>
      <trkpt lat="45.9525" lon="4.86542">
        <ele>267</ele>
        <time>2018-10-16T09:15:58Z</time>
      </trkpt>
      <trkpt lat="45.95256" lon="4.8655">
        <ele>267</ele>
        <time>2018-10-16T09:16:00Z</time>
      </trkpt>
      <trkpt lat="45.95258" lon="4.86556">
        <ele>267</ele>
        <time>2018-10-16T09:16:01Z</time>
      </trkpt>
      <trkpt lat="45.95262" lon="4.86562">
        <ele>267</ele>
        <time>2018-10-16T09:16:02Z</time>
      </trkpt>
      <trkpt lat="45.95265" lon="4.86569">
        <ele>267</ele>
        <time>2018-10-16T09:16:03Z</time>
      </trkpt>
      <trkpt lat="45.95265" lon="4.86576">
        <ele>267</ele>
        <time>2018-10-16T09:16:04Z</time>
      </trkpt>
      <trkpt lat="45.95261" lon="4.86581">
        <ele>268</ele>
        <time>2018-10-16T09:16:05Z</time>
      </trkpt>
      <trkpt lat="45.95253" lon="4.86585">
        <ele>268</ele>
        <time>2018-10-16T09:16:07Z</time>
      </trkpt>
      <trkpt lat="45.95248" lon="4.86586">
        <ele>268</ele>
        <time>2018-10-16T09:16:08Z</time>
      </trkpt>
      <trkpt lat="45.95239" lon="4.86584">
        <ele>268</ele>
        <time>2018-10-16T09:16:11Z</time>
      </trkpt>
      <trkpt lat="45.95237" lon="4.86584">
        <ele>268</ele>
        <time>2018-10-16T09:16:12Z</time>
      </trkpt>
      <trkpt lat="45.95228" lon="4.86581">
        <ele>268</ele>
        <time>2018-10-16T09:16:14Z</time>
      </trkpt>
      <trkpt lat="45.95226" lon="4.8658">
        <ele>268</ele>
        <time>2018-10-16T09:16:15Z</time>
      </trkpt>
      <trkpt lat="45.95223" lon="4.8658">
        <ele>268</ele>
        <time>2018-10-16T09:16:16Z</time>
      </trkpt>
      <trkpt lat="45.95215" lon="4.8658">
        <ele>268</ele>
        <time>2018-10-16T09:16:17Z</time>
      </trkpt>
      <trkpt lat="45.95209" lon="4.8658">
        <ele>268</ele>
        <time>2018-10-16T09:16:20Z</time>
      </trkpt>
      <trkpt lat="45.95206" lon="4.8658">
        <ele>268</ele>
        <time>2018-10-16T09:16:21Z</time>
      </trkpt>
      <trkpt lat="45.95199" lon="4.8658">
        <ele>268</ele>
        <time>2018-10-16T09:16:23Z</time>
      </trkpt>
      <trkpt lat="45.95196" lon="4.8658">
        <ele>268</ele>
        <time>2018-10-16T09:16:24Z</time>
      </trkpt>
      <trkpt lat="45.95193" lon="4.8658">
        <ele>269</ele>
        <time>2018-10-16T09:16:25Z</time>
      </trkpt>
      <trkpt lat="45.95185" lon="4.86582">
        <ele>269</ele>
        <time>2018-10-16T09:16:26Z</time>
      </trkpt>
      <trkpt lat="45.95177" lon="4.86583">
        <ele>269</ele>
        <time>2018-10-16T09:16:29Z</time>
      </trkpt>
      <trkpt lat="45.95175" lon="4.86583">
        <ele>269</ele>
        <time>2018-10-16T09:16:30Z</time>
      </trkpt>
      <trkpt lat="45.95172" lon="4.86583">
        <ele>269</ele>
        <time>2018-10-16T09:16:31Z</time>
      </trkpt>
      <trkpt lat="45.95164" lon="4.86582">
        <ele>269</ele>
        <time>2018-10-16T09:16:32Z</time>
      </trkpt>
      <trkpt lat="45.95157" lon="4.86582">
        <ele>269</ele>
        <time>2018-10-16T09:16:34Z</time>
      </trkpt>
      <trkpt lat="45.95153" lon="4.86582">
        <ele>269</ele>
        <time>2018-10-16T09:16:35Z</time>
      </trkpt>
      <trkpt lat="45.95145" lon="4.86583">
        <ele>270</ele>
        <time>2018-10-16T09:16:37Z</time>
      </trkpt>
      <trkpt lat="45.95141" lon="4.86584">
        <ele>270</ele>
        <time>2018-10-16T09:16:38Z</time>
      </trkpt>
      <trkpt lat="45.95134" lon="4.86585">
        <ele>270</ele>
        <time>2018-10-16T09:16:40Z</time>
      </trkpt>
      <trkpt lat="45.9513" lon="4.86586">
        <ele>270</ele>
        <time>2018-10-16T09:16:41Z</time>
      </trkpt>
      <trkpt lat="45.95124" lon="4.86587">
        <ele>270</ele>
        <time>2018-10-16T09:16:43Z</time>
      </trkpt>
      <trkpt lat="45.9512" lon="4.86587">
        <ele>270</ele>
        <time>2018-10-16T09:16:44Z</time>
      </trkpt>
      <trkpt lat="45.95113" lon="4.86588">
        <ele>271</ele>
        <time>2018-10-16T09:16:46Z</time>
      </trkpt>
      <trkpt lat="45.95109" lon="4.86589">
        <ele>271</ele>
        <time>2018-10-16T09:16:47Z</time>
      </trkpt>
      <trkpt lat="45.95103" lon="4.86592">
        <ele>271</ele>
        <time>2018-10-16T09:16:49Z</time>
      </trkpt>
      <trkpt lat="45.95099" lon="4.86592">
        <ele>271</ele>
        <time>2018-10-16T09:16:50Z</time>
      </trkpt>
      <trkpt lat="45.95091" lon="4.86594">
        <ele>271</ele>
        <time>2018-10-16T09:16:52Z</time>
      </trkpt>
      <trkpt lat="45.95087" lon="4.86595">
        <ele>271</ele>
        <time>2018-10-16T09:16:53Z</time>
      </trkpt>
      <trkpt lat="45.9508" lon="4.86597">
        <ele>272</ele>
        <time>2018-10-16T09:16:55Z</time>
      </trkpt>
      <trkpt lat="45.95076" lon="4.86598">
        <ele>272</ele>
        <time>2018-10-16T09:16:56Z</time>
      </trkpt>
      <trkpt lat="45.95068" lon="4.86601">
        <ele>272</ele>
        <time>2018-10-16T09:16:58Z</time>
      </trkpt>
      <trkpt lat="45.95064" lon="4.86602">
        <ele>272</ele>
        <time>2018-10-16T09:16:59Z</time>
      </trkpt>
      <trkpt lat="45.95056" lon="4.86605">
        <ele>272</ele>
        <time>2018-10-16T09:17:01Z</time>
      </trkpt>
      <trkpt lat="45.95053" lon="4.86605">
        <ele>272</ele>
        <time>2018-10-16T09:17:02Z</time>
      </trkpt>
      <trkpt lat="45.95045" lon="4.86608">
        <ele>272</ele>
        <time>2018-10-16T09:17:04Z</time>
      </trkpt>
      <trkpt lat="45.95041" lon="4.8661">
        <ele>273</ele>
        <time>2018-10-16T09:17:05Z</time>
      </trkpt>
      <trkpt lat="45.95033" lon="4.86614">
        <ele>273</ele>
        <time>2018-10-16T09:17:07Z</time>
      </trkpt>
      <trkpt lat="45.95029" lon="4.86615">
        <ele>273</ele>
        <time>2018-10-16T09:17:08Z</time>
      </trkpt>
      <trkpt lat="45.95022" lon="4.86618">
        <ele>273</ele>
        <time>2018-10-16T09:17:10Z</time>
      </trkpt>
      <trkpt lat="45.95018" lon="4.86619">
        <ele>273</ele>
        <time>2018-10-16T09:17:11Z</time>
      </trkpt>
      <trkpt lat="45.9501" lon="4.8662">
        <ele>273</ele>
        <time>2018-10-16T09:17:13Z</time>
      </trkpt>
      <trkpt lat="45.95006" lon="4.86621">
        <ele>273</ele>
        <time>2018-10-16T09:17:14Z</time>
      </trkpt>
      <trkpt lat="45.94999" lon="4.86623">
        <ele>275</ele>
        <time>2018-10-16T09:17:16Z</time>
      </trkpt>
      <trkpt lat="45.94995" lon="4.86623">
        <ele>275</ele>
        <time>2018-10-16T09:17:17Z</time>
      </trkpt>
      <trkpt lat="45.94988" lon="4.86624">
        <ele>275</ele>
        <time>2018-10-16T09:17:19Z</time>
      </trkpt>
      <trkpt lat="45.94984" lon="4.86624">
        <ele>275</ele>
        <time>2018-10-16T09:17:20Z</time>
      </trkpt>
      <trkpt lat="45.94977" lon="4.86625">
        <ele>275</ele>
        <time>2018-10-16T09:17:22Z</time>
      </trkpt>
      <trkpt lat="45.94973" lon="4.86627">
        <ele>275</ele>
        <time>2018-10-16T09:17:23Z</time>
      </trkpt>
      <trkpt lat="45.94966" lon="4.8663">
        <ele>275</ele>
        <time>2018-10-16T09:17:25Z</time>
      </trkpt>
      <trkpt lat="45.94963" lon="4.86633">
        <ele>275</ele>
        <time>2018-10-16T09:17:26Z</time>
      </trkpt>
      <trkpt lat="45.94956" lon="4.86639">
        <ele>276</ele>
        <time>2018-10-16T09:17:28Z</time>
      </trkpt>
      <trkpt lat="45.94953" lon="4.86644">
        <ele>276</ele>
        <time>2018-10-16T09:17:29Z</time>
      </trkpt>
      <trkpt lat="45.9495" lon="4.86654">
        <ele>276</ele>
        <time>2018-10-16T09:17:31Z</time>
      </trkpt>
      <trkpt lat="45.94949" lon="4.86659">
        <ele>276</ele>
        <time>2018-10-16T09:17:32Z</time>
      </trkpt>
      <trkpt lat="45.94947" lon="4.86671">
        <ele>276</ele>
        <time>2018-10-16T09:17:34Z</time>
      </trkpt>
      <trkpt lat="45.94946" lon="4.86677">
        <ele>276</ele>
        <time>2018-10-16T09:17:35Z</time>
      </trkpt>
      <trkpt lat="45.94949" lon="4.86689">
        <ele>276</ele>
        <time>2018-10-16T09:17:37Z</time>
      </trkpt>
      <trkpt lat="45.9495" lon="4.86694">
        <ele>275</ele>
        <time>2018-10-16T09:17:38Z</time>
      </trkpt>
      <trkpt lat="45.94953" lon="4.86704">
        <ele>275</ele>
        <time>2018-10-16T09:17:40Z</time>
      </trkpt>
      <trkpt lat="45.94954" lon="4.86709">
        <ele>275</ele>
        <time>2018-10-16T09:17:41Z</time>
      </trkpt>
      <trkpt lat="45.94957" lon="4.86718">
        <ele>275</ele>
        <time>2018-10-16T09:17:43Z</time>
      </trkpt>
      <trkpt lat="45.94959" lon="4.86724">
        <ele>275</ele>
        <time>2018-10-16T09:17:44Z</time>
      </trkpt>
      <trkpt lat="45.9496" lon="4.86731">
        <ele>275</ele>
        <time>2018-10-16T09:17:45Z</time>
      </trkpt>
      <trkpt lat="45.94963" lon="4.86737">
        <ele>275</ele>
        <time>2018-10-16T09:17:46Z</time>
      </trkpt>
      <trkpt lat="45.94965" lon="4.86743">
        <ele>275</ele>
        <time>2018-10-16T09:17:47Z</time>
      </trkpt>
      <trkpt lat="45.94968" lon="4.86748">
        <ele>275</ele>
        <time>2018-10-16T09:17:48Z</time>
      </trkpt>
      <trkpt lat="45.9497" lon="4.86754">
        <ele>275</ele>
        <time>2018-10-16T09:17:49Z</time>
      </trkpt>
      <trkpt lat="45.94974" lon="4.86759">
        <ele>275</ele>
        <time>2018-10-16T09:17:50Z</time>
      </trkpt>
      <trkpt lat="45.94978" lon="4.86763">
        <ele>275</ele>
        <time>2018-10-16T09:17:51Z</time>
      </trkpt>
      <trkpt lat="45.94981" lon="4.86769">
        <ele>275</ele>
        <time>2018-10-16T09:17:52Z</time>
      </trkpt>
      <trkpt lat="45.94984" lon="4.86773">
        <ele>275</ele>
        <time>2018-10-16T09:17:53Z</time>
      </trkpt>
      <trkpt lat="45.9499" lon="4.86778">
        <ele>275</ele>
        <time>2018-10-16T09:17:54Z</time>
      </trkpt>
      <trkpt lat="45.94994" lon="4.86788">
        <ele>275</ele>
        <time>2018-10-16T09:17:56Z</time>
      </trkpt>
      <trkpt lat="45.94997" lon="4.86794">
        <ele>276</ele>
        <time>2018-10-16T09:17:57Z</time>
      </trkpt>
      <trkpt lat="45.95" lon="4.868">
        <ele>276</ele>
        <time>2018-10-16T09:17:58Z</time>
      </trkpt>
      <trkpt lat="45.95002" lon="4.86806">
        <ele>275</ele>
        <time>2018-10-16T09:17:59Z</time>
      </trkpt>
      <trkpt lat="45.95005" lon="4.86812">
        <ele>275</ele>
        <time>2018-10-16T09:18:00Z</time>
      </trkpt>
      <trkpt lat="45.95008" lon="4.86818">
        <ele>275</ele>
        <time>2018-10-16T09:18:01Z</time>
      </trkpt>
      <trkpt lat="45.9501" lon="4.86824">
        <ele>275</ele>
        <time>2018-10-16T09:18:02Z</time>
      </trkpt>
      <trkpt lat="45.95012" lon="4.86831">
        <ele>275</ele>
        <time>2018-10-16T09:18:03Z</time>
      </trkpt>
      <trkpt lat="45.95014" lon="4.86838">
        <ele>276</ele>
        <time>2018-10-16T09:18:04Z</time>
      </trkpt>
      <trkpt lat="45.95017" lon="4.86844">
        <ele>275</ele>
        <time>2018-10-16T09:18:05Z</time>
      </trkpt>
      <trkpt lat="45.95018" lon="4.86851">
        <ele>275</ele>
        <time>2018-10-16T09:18:06Z</time>
      </trkpt>
      <trkpt lat="45.95021" lon="4.86857">
        <ele>275</ele>
        <time>2018-10-16T09:18:07Z</time>
      </trkpt>
      <trkpt lat="45.95024" lon="4.86864">
        <ele>275</ele>
        <time>2018-10-16T09:18:08Z</time>
      </trkpt>
      <trkpt lat="45.95026" lon="4.86872">
        <ele>275</ele>
        <time>2018-10-16T09:18:09Z</time>
      </trkpt>
      <trkpt lat="45.9503" lon="4.86879">
        <ele>275</ele>
        <time>2018-10-16T09:18:10Z</time>
      </trkpt>
      <trkpt lat="45.95031" lon="4.86885">
        <ele>275</ele>
        <time>2018-10-16T09:18:11Z</time>
      </trkpt>
      <trkpt lat="45.95033" lon="4.86893">
        <ele>275</ele>
        <time>2018-10-16T09:18:12Z</time>
      </trkpt>
      <trkpt lat="45.95035" lon="4.869">
        <ele>275</ele>
        <time>2018-10-16T09:18:13Z</time>
      </trkpt>
      <trkpt lat="45.95037" lon="4.86908">
        <ele>275</ele>
        <time>2018-10-16T09:18:14Z</time>
      </trkpt>
      <trkpt lat="45.9504" lon="4.86914">
        <ele>275</ele>
        <time>2018-10-16T09:18:15Z</time>
      </trkpt>
      <trkpt lat="45.95043" lon="4.86921">
        <ele>276</ele>
        <time>2018-10-16T09:18:16Z</time>
      </trkpt>
      <trkpt lat="45.95044" lon="4.86928">
        <ele>276</ele>
        <time>2018-10-16T09:18:17Z</time>
      </trkpt>
      <trkpt lat="45.95046" lon="4.86935">
        <ele>276</ele>
        <time>2018-10-16T09:18:18Z</time>
      </trkpt>
      <trkpt lat="45.95048" lon="4.86941">
        <ele>276</ele>
        <time>2018-10-16T09:18:19Z</time>
      </trkpt>
      <trkpt lat="45.95048" lon="4.86952">
        <ele>276</ele>
        <time>2018-10-16T09:18:21Z</time>
      </trkpt>
      <trkpt lat="45.9505" lon="4.86959">
        <ele>276</ele>
        <time>2018-10-16T09:18:22Z</time>
      </trkpt>
      <trkpt lat="45.95051" lon="4.86964">
        <ele>276</ele>
        <time>2018-10-16T09:18:23Z</time>
      </trkpt>
      <trkpt lat="45.95053" lon="4.86971">
        <ele>276</ele>
        <time>2018-10-16T09:18:24Z</time>
      </trkpt>
      <trkpt lat="45.95056" lon="4.86978">
        <ele>276</ele>
        <time>2018-10-16T09:18:25Z</time>
      </trkpt>
      <trkpt lat="45.9506" lon="4.86983">
        <ele>276</ele>
        <time>2018-10-16T09:18:26Z</time>
      </trkpt>
      <trkpt lat="45.95062" lon="4.86991">
        <ele>276</ele>
        <time>2018-10-16T09:18:27Z</time>
      </trkpt>
      <trkpt lat="45.95066" lon="4.86999">
        <ele>277</ele>
        <time>2018-10-16T09:18:28Z</time>
      </trkpt>
      <trkpt lat="45.95069" lon="4.87006">
        <ele>277</ele>
        <time>2018-10-16T09:18:29Z</time>
      </trkpt>
      <trkpt lat="45.95072" lon="4.87012">
        <ele>277</ele>
        <time>2018-10-16T09:18:30Z</time>
      </trkpt>
      <trkpt lat="45.95073" lon="4.87017">
        <ele>277</ele>
        <time>2018-10-16T09:18:31Z</time>
      </trkpt>
      <trkpt lat="45.95078" lon="4.87023">
        <ele>277</ele>
        <time>2018-10-16T09:18:32Z</time>
      </trkpt>
      <trkpt lat="45.95081" lon="4.87029">
        <ele>277</ele>
        <time>2018-10-16T09:18:33Z</time>
      </trkpt>
      <trkpt lat="45.95084" lon="4.87034">
        <ele>277</ele>
        <time>2018-10-16T09:18:34Z</time>
      </trkpt>
      <trkpt lat="45.95088" lon="4.87041">
        <ele>277</ele>
        <time>2018-10-16T09:18:35Z</time>
      </trkpt>
      <trkpt lat="45.95091" lon="4.87046">
        <ele>277</ele>
        <time>2018-10-16T09:18:36Z</time>
      </trkpt>
      <trkpt lat="45.95094" lon="4.87052">
        <ele>277</ele>
        <time>2018-10-16T09:18:37Z</time>
      </trkpt>
      <trkpt lat="45.95096" lon="4.87058">
        <ele>277</ele>
        <time>2018-10-16T09:18:38Z</time>
      </trkpt>
      <trkpt lat="45.95098" lon="4.87063">
        <ele>277</ele>
        <time>2018-10-16T09:18:39Z</time>
      </trkpt>
      <trkpt lat="45.951" lon="4.8707">
        <ele>277</ele>
        <time>2018-10-16T09:18:40Z</time>
      </trkpt>
      <trkpt lat="45.95103" lon="4.87077">
        <ele>277</ele>
        <time>2018-10-16T09:18:41Z</time>
      </trkpt>
      <trkpt lat="45.95105" lon="4.87083">
        <ele>277</ele>
        <time>2018-10-16T09:18:42Z</time>
      </trkpt>
      <trkpt lat="45.95108" lon="4.87089">
        <ele>277</ele>
        <time>2018-10-16T09:18:43Z</time>
      </trkpt>
      <trkpt lat="45.95109" lon="4.87095">
        <ele>277</ele>
        <time>2018-10-16T09:18:44Z</time>
      </trkpt>
      <trkpt lat="45.9511" lon="4.87104">
        <ele>277</ele>
        <time>2018-10-16T09:18:45Z</time>
      </trkpt>
      <trkpt lat="45.95112" lon="4.87113">
        <ele>277</ele>
        <time>2018-10-16T09:18:46Z</time>
      </trkpt>
      <trkpt lat="45.95115" lon="4.87121">
        <ele>276</ele>
        <time>2018-10-16T09:18:47Z</time>
      </trkpt>
      <trkpt lat="45.95116" lon="4.87127">
        <ele>276</ele>
        <time>2018-10-16T09:18:48Z</time>
      </trkpt>
      <trkpt lat="45.95118" lon="4.87139">
        <ele>277</ele>
        <time>2018-10-16T09:18:50Z</time>
      </trkpt>
      <trkpt lat="45.95118" lon="4.87144">
        <ele>277</ele>
        <time>2018-10-16T09:18:51Z</time>
      </trkpt>
      <trkpt lat="45.95121" lon="4.87152">
        <ele>276</ele>
        <time>2018-10-16T09:18:52Z</time>
      </trkpt>
      <trkpt lat="45.95123" lon="4.87162">
        <ele>276</ele>
        <time>2018-10-16T09:18:53Z</time>
      </trkpt>
      <trkpt lat="45.95122" lon="4.8717">
        <ele>276</ele>
        <time>2018-10-16T09:18:54Z</time>
      </trkpt>
      <trkpt lat="45.95125" lon="4.87178">
        <ele>276</ele>
        <time>2018-10-16T09:18:55Z</time>
      </trkpt>
      <trkpt lat="45.95126" lon="4.87185">
        <ele>276</ele>
        <time>2018-10-16T09:18:56Z</time>
      </trkpt>
      <trkpt lat="45.95129" lon="4.87194">
        <ele>276</ele>
        <time>2018-10-16T09:18:57Z</time>
      </trkpt>
      <trkpt lat="45.9513" lon="4.87204">
        <ele>276</ele>
        <time>2018-10-16T09:18:58Z</time>
      </trkpt>
      <trkpt lat="45.95132" lon="4.87213">
        <ele>276</ele>
        <time>2018-10-16T09:18:59Z</time>
      </trkpt>
      <trkpt lat="45.95136" lon="4.87224">
        <ele>276</ele>
        <time>2018-10-16T09:19:00Z</time>
      </trkpt>
      <trkpt lat="45.95139" lon="4.87235">
        <ele>275</ele>
        <time>2018-10-16T09:19:01Z</time>
      </trkpt>
      <trkpt lat="45.95143" lon="4.87245">
        <ele>275</ele>
        <time>2018-10-16T09:19:02Z</time>
      </trkpt>
      <trkpt lat="45.95145" lon="4.87255">
        <ele>274</ele>
        <time>2018-10-16T09:19:03Z</time>
      </trkpt>
      <trkpt lat="45.95147" lon="4.87265">
        <ele>274</ele>
        <time>2018-10-16T09:19:04Z</time>
      </trkpt>
      <trkpt lat="45.95147" lon="4.87274">
        <ele>274</ele>
        <time>2018-10-16T09:19:05Z</time>
      </trkpt>
      <trkpt lat="45.9515" lon="4.87286">
        <ele>274</ele>
        <time>2018-10-16T09:19:06Z</time>
      </trkpt>
      <trkpt lat="45.95153" lon="4.87297">
        <ele>274</ele>
        <time>2018-10-16T09:19:07Z</time>
      </trkpt>
      <trkpt lat="45.95155" lon="4.87309">
        <ele>273</ele>
        <time>2018-10-16T09:19:08Z</time>
      </trkpt>
      <trkpt lat="45.95161" lon="4.87323">
        <ele>272</ele>
        <time>2018-10-16T09:19:09Z</time>
      </trkpt>
      <trkpt lat="45.95161" lon="4.87332">
        <ele>272</ele>
        <time>2018-10-16T09:19:10Z</time>
      </trkpt>
      <trkpt lat="45.95161" lon="4.87341">
        <ele>272</ele>
        <time>2018-10-16T09:19:11Z</time>
      </trkpt>
      <trkpt lat="45.95162" lon="4.8735">
        <ele>272</ele>
        <time>2018-10-16T09:19:12Z</time>
      </trkpt>
      <trkpt lat="45.95164" lon="4.87361">
        <ele>272</ele>
        <time>2018-10-16T09:19:13Z</time>
      </trkpt>
      <trkpt lat="45.95167" lon="4.87372">
        <ele>271</ele>
        <time>2018-10-16T09:19:14Z</time>
      </trkpt>
      <trkpt lat="45.9517" lon="4.87382">
        <ele>271</ele>
        <time>2018-10-16T09:19:15Z</time>
      </trkpt>
      <trkpt lat="45.95171" lon="4.87391">
        <ele>271</ele>
        <time>2018-10-16T09:19:16Z</time>
      </trkpt>
      <trkpt lat="45.95173" lon="4.87399">
        <ele>271</ele>
        <time>2018-10-16T09:19:17Z</time>
      </trkpt>
      <trkpt lat="45.95174" lon="4.87407">
        <ele>271</ele>
        <time>2018-10-16T09:19:18Z</time>
      </trkpt>
      <trkpt lat="45.95176" lon="4.87416">
        <ele>271</ele>
        <time>2018-10-16T09:19:19Z</time>
      </trkpt>
      <trkpt lat="45.95178" lon="4.87426">
        <ele>271</ele>
        <time>2018-10-16T09:19:20Z</time>
      </trkpt>
      <trkpt lat="45.95184" lon="4.87436">
        <ele>272</ele>
        <time>2018-10-16T09:19:21Z</time>
      </trkpt>
      <trkpt lat="45.95187" lon="4.87444">
        <ele>272</ele>
        <time>2018-10-16T09:19:22Z</time>
      </trkpt>
      <trkpt lat="45.95189" lon="4.87454">
        <ele>272</ele>
        <time>2018-10-16T09:19:23Z</time>
      </trkpt>
      <trkpt lat="45.95193" lon="4.87462">
        <ele>272</ele>
        <time>2018-10-16T09:19:24Z</time>
      </trkpt>
      <trkpt lat="45.95194" lon="4.8747">
        <ele>272</ele>
        <time>2018-10-16T09:19:25Z</time>
      </trkpt>
      <trkpt lat="45.95197" lon="4.87478">
        <ele>272</ele>
        <time>2018-10-16T09:19:26Z</time>
      </trkpt>
      <trkpt lat="45.95198" lon="4.87486">
        <ele>272</ele>
        <time>2018-10-16T09:19:27Z</time>
      </trkpt>
      <trkpt lat="45.95199" lon="4.87499">
        <ele>272</ele>
        <time>2018-10-16T09:19:29Z</time>
      </trkpt>
      <trkpt lat="45.95202" lon="4.87507">
        <ele>273</ele>
        <time>2018-10-16T09:19:30Z</time>
      </trkpt>
      <trkpt lat="45.95202" lon="4.87513">
        <ele>273</ele>
        <time>2018-10-16T09:19:31Z</time>
      </trkpt>
      <trkpt lat="45.95203" lon="4.87521">
        <ele>274</ele>
        <time>2018-10-16T09:19:32Z</time>
      </trkpt>
      <trkpt lat="45.95205" lon="4.87528">
        <ele>274</ele>
        <time>2018-10-16T09:19:33Z</time>
      </trkpt>
      <trkpt lat="45.95208" lon="4.87536">
        <ele>274</ele>
        <time>2018-10-16T09:19:34Z</time>
      </trkpt>
      <trkpt lat="45.95207" lon="4.87542">
        <ele>274</ele>
        <time>2018-10-16T09:19:35Z</time>
      </trkpt>
      <trkpt lat="45.95209" lon="4.87549">
        <ele>274</ele>
        <time>2018-10-16T09:19:36Z</time>
      </trkpt>
      <trkpt lat="45.95209" lon="4.87562">
        <ele>274</ele>
        <time>2018-10-16T09:19:38Z</time>
      </trkpt>
      <trkpt lat="45.9521" lon="4.87568">
        <ele>274</ele>
        <time>2018-10-16T09:19:39Z</time>
      </trkpt>
      <trkpt lat="45.9521" lon="4.87575">
        <ele>274</ele>
        <time>2018-10-16T09:19:40Z</time>
      </trkpt>
      <trkpt lat="45.95212" lon="4.87582">
        <ele>274</ele>
        <time>2018-10-16T09:19:41Z</time>
      </trkpt>
      <trkpt lat="45.95212" lon="4.87588">
        <ele>276</ele>
        <time>2018-10-16T09:19:42Z</time>
      </trkpt>
      <trkpt lat="45.95212" lon="4.87595">
        <ele>276</ele>
        <time>2018-10-16T09:19:43Z</time>
      </trkpt>
      <trkpt lat="45.95211" lon="4.87606">
        <ele>276</ele>
        <time>2018-10-16T09:19:46Z</time>
      </trkpt>
      <trkpt lat="45.95212" lon="4.87613">
        <ele>276</ele>
        <time>2018-10-16T09:19:47Z</time>
      </trkpt>
      <trkpt lat="45.95214" lon="4.87622">
        <ele>276</ele>
        <time>2018-10-16T09:19:49Z</time>
      </trkpt>
      <trkpt lat="45.95215" lon="4.87626">
        <ele>276</ele>
        <time>2018-10-16T09:19:50Z</time>
      </trkpt>
      <trkpt lat="45.95218" lon="4.87638">
        <ele>276</ele>
        <time>2018-10-16T09:19:53Z</time>
      </trkpt>
      <trkpt lat="45.95219" lon="4.87651">
        <ele>276</ele>
        <time>2018-10-16T09:19:54Z</time>
      </trkpt>
      <trkpt lat="45.95221" lon="4.87662">
        <ele>276</ele>
        <time>2018-10-16T09:19:56Z</time>
      </trkpt>
      <trkpt lat="45.95221" lon="4.87665">
        <ele>276</ele>
        <time>2018-10-16T09:19:57Z</time>
      </trkpt>
      <trkpt lat="45.95222" lon="4.87677">
        <ele>278</ele>
        <time>2018-10-16T09:19:59Z</time>
      </trkpt>
      <trkpt lat="45.95223" lon="4.87683">
        <ele>279</ele>
        <time>2018-10-16T09:20:00Z</time>
      </trkpt>
      <trkpt lat="45.95225" lon="4.87694">
        <ele>279</ele>
        <time>2018-10-16T09:20:02Z</time>
      </trkpt>
      <trkpt lat="45.95226" lon="4.87699">
        <ele>279</ele>
        <time>2018-10-16T09:20:03Z</time>
      </trkpt>
      <trkpt lat="45.95227" lon="4.8771">
        <ele>279</ele>
        <time>2018-10-16T09:20:05Z</time>
      </trkpt>
      <trkpt lat="45.95228" lon="4.87718">
        <ele>279</ele>
        <time>2018-10-16T09:20:06Z</time>
      </trkpt>
      <trkpt lat="45.95229" lon="4.87724">
        <ele>280</ele>
        <time>2018-10-16T09:20:08Z</time>
      </trkpt>
      <trkpt lat="45.95233" lon="4.87734">
        <ele>280</ele>
        <time>2018-10-16T09:20:09Z</time>
      </trkpt>
      <trkpt lat="45.95235" lon="4.87746">
        <ele>280</ele>
        <time>2018-10-16T09:20:11Z</time>
      </trkpt>
      <trkpt lat="45.95238" lon="4.87752">
        <ele>281</ele>
        <time>2018-10-16T09:20:12Z</time>
      </trkpt>
      <trkpt lat="45.95239" lon="4.87759">
        <ele>281</ele>
        <time>2018-10-16T09:20:13Z</time>
      </trkpt>
      <trkpt lat="45.95241" lon="4.87765">
        <ele>281</ele>
        <time>2018-10-16T09:20:14Z</time>
      </trkpt>
      <trkpt lat="45.95241" lon="4.87771">
        <ele>282</ele>
        <time>2018-10-16T09:20:15Z</time>
      </trkpt>
      <trkpt lat="45.95244" lon="4.87779">
        <ele>282</ele>
        <time>2018-10-16T09:20:16Z</time>
      </trkpt>
      <trkpt lat="45.95245" lon="4.87791">
        <ele>282</ele>
        <time>2018-10-16T09:20:18Z</time>
      </trkpt>
      <trkpt lat="45.95247" lon="4.87798">
        <ele>282</ele>
        <time>2018-10-16T09:20:19Z</time>
      </trkpt>
      <trkpt lat="45.95249" lon="4.8781">
        <ele>282</ele>
        <time>2018-10-16T09:20:21Z</time>
      </trkpt>
      <trkpt lat="45.9525" lon="4.87817">
        <ele>281</ele>
        <time>2018-10-16T09:20:22Z</time>
      </trkpt>
      <trkpt lat="45.9525" lon="4.87828">
        <ele>281</ele>
        <time>2018-10-16T09:20:24Z</time>
      </trkpt>
      <trkpt lat="45.95252" lon="4.87838">
        <ele>282</ele>
        <time>2018-10-16T09:20:25Z</time>
      </trkpt>
      <trkpt lat="45.95253" lon="4.87849">
        <ele>281</ele>
        <time>2018-10-16T09:20:27Z</time>
      </trkpt>
      <trkpt lat="45.95255" lon="4.87855">
        <ele>281</ele>
        <time>2018-10-16T09:20:28Z</time>
      </trkpt>
      <trkpt lat="45.95255" lon="4.87861">
        <ele>281</ele>
        <time>2018-10-16T09:20:29Z</time>
      </trkpt>
      <trkpt lat="45.95258" lon="4.87868">
        <ele>281</ele>
        <time>2018-10-16T09:20:30Z</time>
      </trkpt>
      <trkpt lat="45.9526" lon="4.87875">
        <ele>280</ele>
        <time>2018-10-16T09:20:31Z</time>
      </trkpt>
      <trkpt lat="45.95262" lon="4.87883">
        <ele>281</ele>
        <time>2018-10-16T09:20:32Z</time>
      </trkpt>
      <trkpt lat="45.95263" lon="4.87889">
        <ele>281</ele>
        <time>2018-10-16T09:20:33Z</time>
      </trkpt>
      <trkpt lat="45.95265" lon="4.87895">
        <ele>281</ele>
        <time>2018-10-16T09:20:34Z</time>
      </trkpt>
      <trkpt lat="45.95265" lon="4.87907">
        <ele>281</ele>
        <time>2018-10-16T09:20:36Z</time>
      </trkpt>
      <trkpt lat="45.95266" lon="4.87913">
        <ele>281</ele>
        <time>2018-10-16T09:20:37Z</time>
      </trkpt>
      <trkpt lat="45.95265" lon="4.87925">
        <ele>281</ele>
        <time>2018-10-16T09:20:39Z</time>
      </trkpt>
      <trkpt lat="45.95265" lon="4.87931">
        <ele>281</ele>
        <time>2018-10-16T09:20:40Z</time>
      </trkpt>
      <trkpt lat="45.95263" lon="4.87942">
        <ele>280</ele>
        <time>2018-10-16T09:20:42Z</time>
      </trkpt>
      <trkpt lat="45.95261" lon="4.87948">
        <ele>280</ele>
        <time>2018-10-16T09:20:43Z</time>
      </trkpt>
      <trkpt lat="45.95256" lon="4.87959">
        <ele>280</ele>
        <time>2018-10-16T09:20:45Z</time>
      </trkpt>
      <trkpt lat="45.95253" lon="4.87964">
        <ele>280</ele>
        <time>2018-10-16T09:20:46Z</time>
      </trkpt>
      <trkpt lat="45.95249" lon="4.87968">
        <ele>282</ele>
        <time>2018-10-16T09:20:47Z</time>
      </trkpt>
      <trkpt lat="45.95246" lon="4.87973">
        <ele>282</ele>
        <time>2018-10-16T09:20:48Z</time>
      </trkpt>
      <trkpt lat="45.95242" lon="4.87977">
        <ele>282</ele>
        <time>2018-10-16T09:20:49Z</time>
      </trkpt>
      <trkpt lat="45.95238" lon="4.87981">
        <ele>281</ele>
        <time>2018-10-16T09:20:50Z</time>
      </trkpt>
      <trkpt lat="45.95235" lon="4.87987">
        <ele>281</ele>
        <time>2018-10-16T09:20:51Z</time>
      </trkpt>
      <trkpt lat="45.95232" lon="4.87992">
        <ele>281</ele>
        <time>2018-10-16T09:20:52Z</time>
      </trkpt>
      <trkpt lat="45.95229" lon="4.87996">
        <ele>281</ele>
        <time>2018-10-16T09:20:53Z</time>
      </trkpt>
      <trkpt lat="45.95226" lon="4.88003">
        <ele>281</ele>
        <time>2018-10-16T09:20:54Z</time>
      </trkpt>
      <trkpt lat="45.95223" lon="4.88008">
        <ele>281</ele>
        <time>2018-10-16T09:20:55Z</time>
      </trkpt>
      <trkpt lat="45.9522" lon="4.88014">
        <ele>281</ele>
        <time>2018-10-16T09:20:56Z</time>
      </trkpt>
      <trkpt lat="45.95217" lon="4.88018">
        <ele>281</ele>
        <time>2018-10-16T09:20:57Z</time>
      </trkpt>
      <trkpt lat="45.95213" lon="4.88024">
        <ele>281</ele>
        <time>2018-10-16T09:20:58Z</time>
      </trkpt>
      <trkpt lat="45.95209" lon="4.88028">
        <ele>281</ele>
        <time>2018-10-16T09:20:59Z</time>
      </trkpt>
      <trkpt lat="45.95207" lon="4.88034">
        <ele>281</ele>
        <time>2018-10-16T09:21:00Z</time>
      </trkpt>
      <trkpt lat="45.95205" lon="4.88041">
        <ele>281</ele>
        <time>2018-10-16T09:21:01Z</time>
      </trkpt>
      <trkpt lat="45.95202" lon="4.88046">
        <ele>281</ele>
        <time>2018-10-16T09:21:02Z</time>
      </trkpt>
      <trkpt lat="45.95199" lon="4.88052">
        <ele>281</ele>
        <time>2018-10-16T09:21:03Z</time>
      </trkpt>
      <trkpt lat="45.95197" lon="4.8806">
        <ele>281</ele>
        <time>2018-10-16T09:21:04Z</time>
      </trkpt>
      <trkpt lat="45.95195" lon="4.88067">
        <ele>281</ele>
        <time>2018-10-16T09:21:05Z</time>
      </trkpt>
      <trkpt lat="45.95193" lon="4.88073">
        <ele>281</ele>
        <time>2018-10-16T09:21:06Z</time>
      </trkpt>
      <trkpt lat="45.95191" lon="4.88081">
        <ele>281</ele>
        <time>2018-10-16T09:21:07Z</time>
      </trkpt>
      <trkpt lat="45.95189" lon="4.88087">
        <ele>282</ele>
        <time>2018-10-16T09:21:08Z</time>
      </trkpt>
      <trkpt lat="45.95186" lon="4.88098">
        <ele>282</ele>
        <time>2018-10-16T09:21:10Z</time>
      </trkpt>
      <trkpt lat="45.95184" lon="4.88104">
        <ele>282</ele>
        <time>2018-10-16T09:21:11Z</time>
      </trkpt>
      <trkpt lat="45.95184" lon="4.88109">
        <ele>282</ele>
        <time>2018-10-16T09:21:13Z</time>
      </trkpt>
      <trkpt lat="45.95183" lon="4.88117">
        <ele>282</ele>
        <time>2018-10-16T09:21:14Z</time>
      </trkpt>
      <trkpt lat="45.95181" lon="4.88128">
        <ele>282</ele>
        <time>2018-10-16T09:21:16Z</time>
      </trkpt>
      <trkpt lat="45.9518" lon="4.88133">
        <ele>282</ele>
        <time>2018-10-16T09:21:17Z</time>
      </trkpt>
      <trkpt lat="45.95177" lon="4.88142">
        <ele>283</ele>
        <time>2018-10-16T09:21:19Z</time>
      </trkpt>
      <trkpt lat="45.95176" lon="4.88147">
        <ele>283</ele>
        <time>2018-10-16T09:21:20Z</time>
      </trkpt>
      <trkpt lat="45.95174" lon="4.88156">
        <ele>284</ele>
        <time>2018-10-16T09:21:23Z</time>
      </trkpt>
      <trkpt lat="45.95173" lon="4.8816">
        <ele>284</ele>
        <time>2018-10-16T09:21:24Z</time>
      </trkpt>
      <trkpt lat="45.95174" lon="4.88172">
        <ele>285</ele>
        <time>2018-10-16T09:21:27Z</time>
      </trkpt>
      <trkpt lat="45.95176" lon="4.88176">
        <ele>285</ele>
        <time>2018-10-16T09:21:28Z</time>
      </trkpt>
      <trkpt lat="45.95184" lon="4.88174">
        <ele>285</ele>
        <time>2018-10-16T09:21:29Z</time>
      </trkpt>
      <trkpt lat="45.95187" lon="4.88172">
        <ele>285</ele>
        <time>2018-10-16T09:21:30Z</time>
      </trkpt>
      <trkpt lat="45.95193" lon="4.88171">
        <ele>285</ele>
        <time>2018-10-16T09:21:32Z</time>
      </trkpt>
      <trkpt lat="45.95197" lon="4.8817">
        <ele>285</ele>
        <time>2018-10-16T09:21:33Z</time>
      </trkpt>
      <trkpt lat="45.95205" lon="4.88171">
        <ele>285</ele>
        <time>2018-10-16T09:21:35Z</time>
      </trkpt>
      <trkpt lat="45.9521" lon="4.8817">
        <ele>284</ele>
        <time>2018-10-16T09:21:36Z</time>
      </trkpt>
      <trkpt lat="45.95218" lon="4.88169">
        <ele>284</ele>
        <time>2018-10-16T09:21:37Z</time>
      </trkpt>
      <trkpt lat="45.95223" lon="4.88168">
        <ele>284</ele>
        <time>2018-10-16T09:21:38Z</time>
      </trkpt>
      <trkpt lat="45.95228" lon="4.88168">
        <ele>283</ele>
        <time>2018-10-16T09:21:39Z</time>
      </trkpt>
      <trkpt lat="45.95235" lon="4.88168">
        <ele>283</ele>
        <time>2018-10-16T09:21:40Z</time>
      </trkpt>
      <trkpt lat="45.95241" lon="4.88167">
        <ele>282</ele>
        <time>2018-10-16T09:21:41Z</time>
      </trkpt>
      <trkpt lat="45.95248" lon="4.88167">
        <ele>281</ele>
        <time>2018-10-16T09:21:42Z</time>
      </trkpt>
      <trkpt lat="45.95254" lon="4.88167">
        <ele>281</ele>
        <time>2018-10-16T09:21:43Z</time>
      </trkpt>
      <trkpt lat="45.95261" lon="4.88166">
        <ele>280</ele>
        <time>2018-10-16T09:21:44Z</time>
      </trkpt>
      <trkpt lat="45.95268" lon="4.88167">
        <ele>281</ele>
        <time>2018-10-16T09:21:45Z</time>
      </trkpt>
      <trkpt lat="45.95275" lon="4.88168">
        <ele>281</ele>
        <time>2018-10-16T09:21:46Z</time>
      </trkpt>
      <trkpt lat="45.95284" lon="4.88168">
        <ele>281</ele>
        <time>2018-10-16T09:21:47Z</time>
      </trkpt>
      <trkpt lat="45.95293" lon="4.88169">
        <ele>281</ele>
        <time>2018-10-16T09:21:48Z</time>
      </trkpt>
      <trkpt lat="45.95299" lon="4.8817">
        <ele>281</ele>
        <time>2018-10-16T09:21:49Z</time>
      </trkpt>
      <trkpt lat="45.95307" lon="4.88172">
        <ele>280</ele>
        <time>2018-10-16T09:21:50Z</time>
      </trkpt>
      <trkpt lat="45.95315" lon="4.88171">
        <ele>280</ele>
        <time>2018-10-16T09:21:51Z</time>
      </trkpt>
      <trkpt lat="45.95323" lon="4.88171">
        <ele>279</ele>
        <time>2018-10-16T09:21:52Z</time>
      </trkpt>
      <trkpt lat="45.95332" lon="4.88171">
        <ele>279</ele>
        <time>2018-10-16T09:21:53Z</time>
      </trkpt>
      <trkpt lat="45.95339" lon="4.8817">
        <ele>278</ele>
        <time>2018-10-16T09:21:54Z</time>
      </trkpt>
      <trkpt lat="45.95347" lon="4.8817">
        <ele>278</ele>
        <time>2018-10-16T09:21:55Z</time>
      </trkpt>
      <trkpt lat="45.95354" lon="4.88171">
        <ele>278</ele>
        <time>2018-10-16T09:21:56Z</time>
      </trkpt>
      <trkpt lat="45.95364" lon="4.88168">
        <ele>278</ele>
        <time>2018-10-16T09:21:57Z</time>
      </trkpt>
      <trkpt lat="45.95371" lon="4.88167">
        <ele>278</ele>
        <time>2018-10-16T09:21:58Z</time>
      </trkpt>
      <trkpt lat="45.95378" lon="4.88166">
        <ele>276</ele>
        <time>2018-10-16T09:21:59Z</time>
      </trkpt>
      <trkpt lat="45.95385" lon="4.88165">
        <ele>276</ele>
        <time>2018-10-16T09:22:00Z</time>
      </trkpt>
      <trkpt lat="45.95391" lon="4.88163">
        <ele>276</ele>
        <time>2018-10-16T09:22:01Z</time>
      </trkpt>
      <trkpt lat="45.95399" lon="4.88161">
        <ele>276</ele>
        <time>2018-10-16T09:22:02Z</time>
      </trkpt>
      <trkpt lat="45.95404" lon="4.88159">
        <ele>276</ele>
        <time>2018-10-16T09:22:03Z</time>
      </trkpt>
      <trkpt lat="45.95411" lon="4.88156">
        <ele>276</ele>
        <time>2018-10-16T09:22:04Z</time>
      </trkpt>
      <trkpt lat="45.95417" lon="4.88154">
        <ele>276</ele>
        <time>2018-10-16T09:22:05Z</time>
      </trkpt>
      <trkpt lat="45.95422" lon="4.88152">
        <ele>276</ele>
        <time>2018-10-16T09:22:06Z</time>
      </trkpt>
      <trkpt lat="45.95428" lon="4.8815">
        <ele>276</ele>
        <time>2018-10-16T09:22:07Z</time>
      </trkpt>
      <trkpt lat="45.95433" lon="4.8815">
        <ele>276</ele>
        <time>2018-10-16T09:22:08Z</time>
      </trkpt>
      <trkpt lat="45.95438" lon="4.88146">
        <ele>276</ele>
        <time>2018-10-16T09:22:09Z</time>
      </trkpt>
      <trkpt lat="45.95442" lon="4.88145">
        <ele>276</ele>
        <time>2018-10-16T09:22:10Z</time>
      </trkpt>
      <trkpt lat="45.95449" lon="4.88141">
        <ele>276</ele>
        <time>2018-10-16T09:22:11Z</time>
      </trkpt>
      <trkpt lat="45.95451" lon="4.8814">
        <ele>276</ele>
        <time>2018-10-16T09:22:12Z</time>
      </trkpt>
      <trkpt lat="45.95458" lon="4.88137">
        <ele>276</ele>
        <time>2018-10-16T09:22:13Z</time>
      </trkpt>
      <trkpt lat="45.95463" lon="4.88136">
        <ele>276</ele>
        <time>2018-10-16T09:22:14Z</time>
      </trkpt>
      <trkpt lat="45.95468" lon="4.88133">
        <ele>276</ele>
        <time>2018-10-16T09:22:15Z</time>
      </trkpt>
      <trkpt lat="45.95473" lon="4.8813">
        <ele>276</ele>
        <time>2018-10-16T09:22:16Z</time>
      </trkpt>
      <trkpt lat="45.95478" lon="4.88127">
        <ele>276</ele>
        <time>2018-10-16T09:22:17Z</time>
      </trkpt>
      <trkpt lat="45.95483" lon="4.88125">
        <ele>276</ele>
        <time>2018-10-16T09:22:18Z</time>
      </trkpt>
      <trkpt lat="45.95488" lon="4.88123">
        <ele>276</ele>
        <time>2018-10-16T09:22:19Z</time>
      </trkpt>
      <trkpt lat="45.95492" lon="4.88121">
        <ele>276</ele>
        <time>2018-10-16T09:22:20Z</time>
      </trkpt>
      <trkpt lat="45.95496" lon="4.88118">
        <ele>276</ele>
        <time>2018-10-16T09:22:21Z</time>
      </trkpt>
      <trkpt lat="45.95502" lon="4.88115">
        <ele>276</ele>
        <time>2018-10-16T09:22:22Z</time>
      </trkpt>
      <trkpt lat="45.95506" lon="4.88113">
        <ele>276</ele>
        <time>2018-10-16T09:22:23Z</time>
      </trkpt>
      <trkpt lat="45.9551" lon="4.88111">
        <ele>276</ele>
        <time>2018-10-16T09:22:24Z</time>
      </trkpt>
      <trkpt lat="45.95515" lon="4.8811">
        <ele>276</ele>
        <time>2018-10-16T09:22:25Z</time>
      </trkpt>
      <trkpt lat="45.95519" lon="4.88107">
        <ele>277</ele>
        <time>2018-10-16T09:22:26Z</time>
      </trkpt>
      <trkpt lat="45.95524" lon="4.88106">
        <ele>277</ele>
        <time>2018-10-16T09:22:27Z</time>
      </trkpt>
      <trkpt lat="45.95527" lon="4.88104">
        <ele>277</ele>
        <time>2018-10-16T09:22:28Z</time>
      </trkpt>
      <trkpt lat="45.95534" lon="4.88101">
        <ele>277</ele>
        <time>2018-10-16T09:22:29Z</time>
      </trkpt>
      <trkpt lat="45.95541" lon="4.88095">
        <ele>277</ele>
        <time>2018-10-16T09:22:31Z</time>
      </trkpt>
      <trkpt lat="45.95545" lon="4.88093">
        <ele>277</ele>
        <time>2018-10-16T09:22:32Z</time>
      </trkpt>
      <trkpt lat="45.95549" lon="4.88091">
        <ele>277</ele>
        <time>2018-10-16T09:22:33Z</time>
      </trkpt>
      <trkpt lat="45.95554" lon="4.88089">
        <ele>277</ele>
        <time>2018-10-16T09:22:34Z</time>
      </trkpt>
      <trkpt lat="45.95559" lon="4.88086">
        <ele>277</ele>
        <time>2018-10-16T09:22:35Z</time>
      </trkpt>
      <trkpt lat="45.95565" lon="4.88084">
        <ele>277</ele>
        <time>2018-10-16T09:22:36Z</time>
      </trkpt>
      <trkpt lat="45.95573" lon="4.88079">
        <ele>277</ele>
        <time>2018-10-16T09:22:38Z</time>
      </trkpt>
      <trkpt lat="45.95577" lon="4.88077">
        <ele>277</ele>
        <time>2018-10-16T09:22:39Z</time>
      </trkpt>
      <trkpt lat="45.95581" lon="4.88074">
        <ele>277</ele>
        <time>2018-10-16T09:22:40Z</time>
      </trkpt>
      <trkpt lat="45.95585" lon="4.88071">
        <ele>278</ele>
        <time>2018-10-16T09:22:41Z</time>
      </trkpt>
      <trkpt lat="45.95592" lon="4.88064">
        <ele>278</ele>
        <time>2018-10-16T09:22:43Z</time>
      </trkpt>
      <trkpt lat="45.95596" lon="4.8806">
        <ele>278</ele>
        <time>2018-10-16T09:22:44Z</time>
      </trkpt>
      <trkpt lat="45.95601" lon="4.88058">
        <ele>278</ele>
        <time>2018-10-16T09:22:45Z</time>
      </trkpt>
      <trkpt lat="45.95604" lon="4.88053">
        <ele>278</ele>
        <time>2018-10-16T09:22:46Z</time>
      </trkpt>
      <trkpt lat="45.95609" lon="4.88048">
        <ele>278</ele>
        <time>2018-10-16T09:22:47Z</time>
      </trkpt>
      <trkpt lat="45.95613" lon="4.88044">
        <ele>278</ele>
        <time>2018-10-16T09:22:48Z</time>
      </trkpt>
      <trkpt lat="45.95618" lon="4.8804">
        <ele>278</ele>
        <time>2018-10-16T09:22:49Z</time>
      </trkpt>
      <trkpt lat="45.95622" lon="4.88037">
        <ele>278</ele>
        <time>2018-10-16T09:22:50Z</time>
      </trkpt>
      <trkpt lat="45.95626" lon="4.88033">
        <ele>279</ele>
        <time>2018-10-16T09:22:51Z</time>
      </trkpt>
      <trkpt lat="45.9563" lon="4.88029">
        <ele>279</ele>
        <time>2018-10-16T09:22:52Z</time>
      </trkpt>
      <trkpt lat="45.95634" lon="4.88024">
        <ele>279</ele>
        <time>2018-10-16T09:22:53Z</time>
      </trkpt>
      <trkpt lat="45.95638" lon="4.88021">
        <ele>279</ele>
        <time>2018-10-16T09:22:54Z</time>
      </trkpt>
      <trkpt lat="45.95642" lon="4.88016">
        <ele>279</ele>
        <time>2018-10-16T09:22:55Z</time>
      </trkpt>
      <trkpt lat="45.95646" lon="4.88013">
        <ele>279</ele>
        <time>2018-10-16T09:22:56Z</time>
      </trkpt>
      <trkpt lat="45.95654" lon="4.88007">
        <ele>280</ele>
        <time>2018-10-16T09:22:58Z</time>
      </trkpt>
      <trkpt lat="45.95657" lon="4.88004">
        <ele>280</ele>
        <time>2018-10-16T09:22:59Z</time>
      </trkpt>
      <trkpt lat="45.95663" lon="4.87997">
        <ele>280</ele>
        <time>2018-10-16T09:23:01Z</time>
      </trkpt>
      <trkpt lat="45.95666" lon="4.87996">
        <ele>280</ele>
        <time>2018-10-16T09:23:02Z</time>
      </trkpt>
      <trkpt lat="45.95673" lon="4.87989">
        <ele>282</ele>
        <time>2018-10-16T09:23:05Z</time>
      </trkpt>
      <trkpt lat="45.95677" lon="4.87985">
        <ele>282</ele>
        <time>2018-10-16T09:23:06Z</time>
      </trkpt>
      <trkpt lat="45.95683" lon="4.8798">
        <ele>282</ele>
        <time>2018-10-16T09:23:08Z</time>
      </trkpt>
      <trkpt lat="45.95686" lon="4.87978">
        <ele>282</ele>
        <time>2018-10-16T09:23:09Z</time>
      </trkpt>
      <trkpt lat="45.95692" lon="4.87973">
        <ele>282</ele>
        <time>2018-10-16T09:23:12Z</time>
      </trkpt>
      <trkpt lat="45.95694" lon="4.87971">
        <ele>282</ele>
        <time>2018-10-16T09:23:13Z</time>
      </trkpt>
      <trkpt lat="45.95701" lon="4.87965">
        <ele>283</ele>
        <time>2018-10-16T09:23:16Z</time>
      </trkpt>
      <trkpt lat="45.95703" lon="4.87962">
        <ele>283</ele>
        <time>2018-10-16T09:23:17Z</time>
      </trkpt>
      <trkpt lat="45.95708" lon="4.87957">
        <ele>283</ele>
        <time>2018-10-16T09:23:19Z</time>
      </trkpt>
      <trkpt lat="45.9571" lon="4.87955">
        <ele>283</ele>
        <time>2018-10-16T09:23:20Z</time>
      </trkpt>
      <trkpt lat="45.95717" lon="4.87948">
        <ele>283</ele>
        <time>2018-10-16T09:23:21Z</time>
      </trkpt>
      <trkpt lat="45.95719" lon="4.87946">
        <ele>283</ele>
        <time>2018-10-16T09:23:22Z</time>
      </trkpt>
      <trkpt lat="45.95724" lon="4.87942">
        <ele>283</ele>
        <time>2018-10-16T09:23:24Z</time>
      </trkpt>
      <trkpt lat="45.95728" lon="4.87939">
        <ele>283</ele>
        <time>2018-10-16T09:23:25Z</time>
      </trkpt>
      <trkpt lat="45.95732" lon="4.87935">
        <ele>284</ele>
        <time>2018-10-16T09:23:27Z</time>
      </trkpt>
      <trkpt lat="45.95736" lon="4.87933">
        <ele>284</ele>
        <time>2018-10-16T09:23:28Z</time>
      </trkpt>
      <trkpt lat="45.95741" lon="4.87928">
        <ele>284</ele>
        <time>2018-10-16T09:23:30Z</time>
      </trkpt>
      <trkpt lat="45.95743" lon="4.87927">
        <ele>284</ele>
        <time>2018-10-16T09:23:31Z</time>
      </trkpt>
      <trkpt lat="45.95749" lon="4.87922">
        <ele>285</ele>
        <time>2018-10-16T09:23:33Z</time>
      </trkpt>
      <trkpt lat="45.95752" lon="4.8792">
        <ele>285</ele>
        <time>2018-10-16T09:23:34Z</time>
      </trkpt>
      <trkpt lat="45.95757" lon="4.87916">
        <ele>285</ele>
        <time>2018-10-16T09:23:36Z</time>
      </trkpt>
      <trkpt lat="45.95766" lon="4.87908">
        <ele>286</ele>
        <time>2018-10-16T09:23:37Z</time>
      </trkpt>
      <trkpt lat="45.95773" lon="4.87903">
        <ele>286</ele>
        <time>2018-10-16T09:23:40Z</time>
      </trkpt>
      <trkpt lat="45.95775" lon="4.87902">
        <ele>286</ele>
        <time>2018-10-16T09:23:41Z</time>
      </trkpt>
      <trkpt lat="45.95783" lon="4.87896">
        <ele>286</ele>
        <time>2018-10-16T09:23:44Z</time>
      </trkpt>
      <trkpt lat="45.95785" lon="4.87895">
        <ele>286</ele>
        <time>2018-10-16T09:23:45Z</time>
      </trkpt>
      <trkpt lat="45.95792" lon="4.87889">
        <ele>286</ele>
        <time>2018-10-16T09:23:48Z</time>
      </trkpt>
      <trkpt lat="45.95795" lon="4.87888">
        <ele>286</ele>
        <time>2018-10-16T09:23:49Z</time>
      </trkpt>
      <trkpt lat="45.95805" lon="4.87883">
        <ele>287</ele>
        <time>2018-10-16T09:23:50Z</time>
      </trkpt>
      <trkpt lat="45.95813" lon="4.8788">
        <ele>287</ele>
        <time>2018-10-16T09:23:54Z</time>
      </trkpt>
      <trkpt lat="45.95816" lon="4.87879">
        <ele>287</ele>
        <time>2018-10-16T09:23:55Z</time>
      </trkpt>
      <trkpt lat="45.95823" lon="4.87877">
        <ele>287</ele>
        <time>2018-10-16T09:23:58Z</time>
      </trkpt>
      <trkpt lat="45.95826" lon="4.87877">
        <ele>287</ele>
        <time>2018-10-16T09:23:59Z</time>
      </trkpt>
      <trkpt lat="45.95829" lon="4.87876">
        <ele>287</ele>
        <time>2018-10-16T09:24:00Z</time>
      </trkpt>
      <trkpt lat="45.95839" lon="4.8787">
        <ele>289</ele>
        <time>2018-10-16T09:24:01Z</time>
      </trkpt>
      <trkpt lat="45.95843" lon="4.87867">
        <ele>289</ele>
        <time>2018-10-16T09:24:03Z</time>
      </trkpt>
      <trkpt lat="45.95848" lon="4.87862">
        <ele>289</ele>
        <time>2018-10-16T09:24:04Z</time>
      </trkpt>
      <trkpt lat="45.95855" lon="4.87855">
        <ele>289</ele>
        <time>2018-10-16T09:24:06Z</time>
      </trkpt>
      <trkpt lat="45.95859" lon="4.87851">
        <ele>289</ele>
        <time>2018-10-16T09:24:07Z</time>
      </trkpt>
      <trkpt lat="45.95862" lon="4.87846">
        <ele>289</ele>
        <time>2018-10-16T09:24:08Z</time>
      </trkpt>
      <trkpt lat="45.95865" lon="4.87842">
        <ele>289</ele>
        <time>2018-10-16T09:24:09Z</time>
      </trkpt>
      <trkpt lat="45.95872" lon="4.87835">
        <ele>289</ele>
        <time>2018-10-16T09:24:11Z</time>
      </trkpt>
      <trkpt lat="45.95876" lon="4.87832">
        <ele>288</ele>
        <time>2018-10-16T09:24:12Z</time>
      </trkpt>
      <trkpt lat="45.95882" lon="4.87824">
        <ele>288</ele>
        <time>2018-10-16T09:24:14Z</time>
      </trkpt>
      <trkpt lat="45.95885" lon="4.87821">
        <ele>288</ele>
        <time>2018-10-16T09:24:15Z</time>
      </trkpt>
      <trkpt lat="45.95889" lon="4.87816">
        <ele>288</ele>
        <time>2018-10-16T09:24:16Z</time>
      </trkpt>
      <trkpt lat="45.95893" lon="4.87811">
        <ele>288</ele>
        <time>2018-10-16T09:24:17Z</time>
      </trkpt>
      <trkpt lat="45.95896" lon="4.87806">
        <ele>288</ele>
        <time>2018-10-16T09:24:18Z</time>
      </trkpt>
      <trkpt lat="45.959" lon="4.87801">
        <ele>288</ele>
        <time>2018-10-16T09:24:19Z</time>
      </trkpt>
      <trkpt lat="45.95904" lon="4.87796">
        <ele>288</ele>
        <time>2018-10-16T09:24:20Z</time>
      </trkpt>
      <trkpt lat="45.95907" lon="4.8779">
        <ele>288</ele>
        <time>2018-10-16T09:24:21Z</time>
      </trkpt>
      <trkpt lat="45.95911" lon="4.87784">
        <ele>288</ele>
        <time>2018-10-16T09:24:22Z</time>
      </trkpt>
      <trkpt lat="45.95915" lon="4.87779">
        <ele>288</ele>
        <time>2018-10-16T09:24:23Z</time>
      </trkpt>
      <trkpt lat="45.95917" lon="4.87773">
        <ele>289</ele>
        <time>2018-10-16T09:24:24Z</time>
      </trkpt>
      <trkpt lat="45.95921" lon="4.87767">
        <ele>289</ele>
        <time>2018-10-16T09:24:25Z</time>
      </trkpt>
      <trkpt lat="45.95925" lon="4.87762">
        <ele>288</ele>
        <time>2018-10-16T09:24:26Z</time>
      </trkpt>
      <trkpt lat="45.95928" lon="4.87756">
        <ele>288</ele>
        <time>2018-10-16T09:24:27Z</time>
      </trkpt>
      <trkpt lat="45.95934" lon="4.87748">
        <ele>288</ele>
        <time>2018-10-16T09:24:29Z</time>
      </trkpt>
      <trkpt lat="45.95937" lon="4.87743">
        <ele>288</ele>
        <time>2018-10-16T09:24:30Z</time>
      </trkpt>
      <trkpt lat="45.9594" lon="4.87739">
        <ele>288</ele>
        <time>2018-10-16T09:24:31Z</time>
      </trkpt>
      <trkpt lat="45.95944" lon="4.87734">
        <ele>289</ele>
        <time>2018-10-16T09:24:32Z</time>
      </trkpt>
      <trkpt lat="45.95948" lon="4.87728">
        <ele>289</ele>
        <time>2018-10-16T09:24:33Z</time>
      </trkpt>
      <trkpt lat="45.95951" lon="4.87721">
        <ele>289</ele>
        <time>2018-10-16T09:24:34Z</time>
      </trkpt>
      <trkpt lat="45.95956" lon="4.87715">
        <ele>289</ele>
        <time>2018-10-16T09:24:35Z</time>
      </trkpt>
      <trkpt lat="45.9596" lon="4.8771">
        <ele>289</ele>
        <time>2018-10-16T09:24:36Z</time>
      </trkpt>
      <trkpt lat="45.95964" lon="4.87705">
        <ele>289</ele>
        <time>2018-10-16T09:24:37Z</time>
      </trkpt>
      <trkpt lat="45.95968" lon="4.877">
        <ele>289</ele>
        <time>2018-10-16T09:24:38Z</time>
      </trkpt>
      <trkpt lat="45.95971" lon="4.87693">
        <ele>289</ele>
        <time>2018-10-16T09:24:39Z</time>
      </trkpt>
      <trkpt lat="45.95975" lon="4.87688">
        <ele>289</ele>
        <time>2018-10-16T09:24:40Z</time>
      </trkpt>
      <trkpt lat="45.95982" lon="4.87682">
        <ele>289</ele>
        <time>2018-10-16T09:24:42Z</time>
      </trkpt>
      <trkpt lat="45.95985" lon="4.87677">
        <ele>289</ele>
        <time>2018-10-16T09:24:43Z</time>
      </trkpt>
      <trkpt lat="45.95989" lon="4.87671">
        <ele>289</ele>
        <time>2018-10-16T09:24:44Z</time>
      </trkpt>
      <trkpt lat="45.95993" lon="4.87667">
        <ele>290</ele>
        <time>2018-10-16T09:24:45Z</time>
      </trkpt>
      <trkpt lat="45.96" lon="4.8766">
        <ele>290</ele>
        <time>2018-10-16T09:24:47Z</time>
      </trkpt>
      <trkpt lat="45.96003" lon="4.87658">
        <ele>290</ele>
        <time>2018-10-16T09:24:48Z</time>
      </trkpt>
      <trkpt lat="45.96007" lon="4.87653">
        <ele>289</ele>
        <time>2018-10-16T09:24:49Z</time>
      </trkpt>
      <trkpt lat="45.96011" lon="4.87648">
        <ele>289</ele>
        <time>2018-10-16T09:24:50Z</time>
      </trkpt>
      <trkpt lat="45.96015" lon="4.87643">
        <ele>289</ele>
        <time>2018-10-16T09:24:51Z</time>
      </trkpt>
      <trkpt lat="45.9602" lon="4.87637">
        <ele>289</ele>
        <time>2018-10-16T09:24:52Z</time>
      </trkpt>
      <trkpt lat="45.96024" lon="4.87632">
        <ele>289</ele>
        <time>2018-10-16T09:24:53Z</time>
      </trkpt>
      <trkpt lat="45.96027" lon="4.87628">
        <ele>289</ele>
        <time>2018-10-16T09:24:54Z</time>
      </trkpt>
      <trkpt lat="45.96031" lon="4.87624">
        <ele>289</ele>
        <time>2018-10-16T09:24:55Z</time>
      </trkpt>
      <trkpt lat="45.96035" lon="4.87619">
        <ele>289</ele>
        <time>2018-10-16T09:24:56Z</time>
      </trkpt>
      <trkpt lat="45.96041" lon="4.87613">
        <ele>289</ele>
        <time>2018-10-16T09:24:58Z</time>
      </trkpt>
      <trkpt lat="45.96045" lon="4.8761">
        <ele>289</ele>
        <time>2018-10-16T09:24:59Z</time>
      </trkpt>
      <trkpt lat="45.9605" lon="4.87601">
        <ele>289</ele>
        <time>2018-10-16T09:25:01Z</time>
      </trkpt>
      <trkpt lat="45.96053" lon="4.87599">
        <ele>289</ele>
        <time>2018-10-16T09:25:02Z</time>
      </trkpt>
      <trkpt lat="45.96057" lon="4.87595">
        <ele>288</ele>
        <time>2018-10-16T09:25:03Z</time>
      </trkpt>
      <trkpt lat="45.96061" lon="4.87592">
        <ele>288</ele>
        <time>2018-10-16T09:25:04Z</time>
      </trkpt>
      <trkpt lat="45.96069" lon="4.87588">
        <ele>288</ele>
        <time>2018-10-16T09:25:06Z</time>
      </trkpt>
      <trkpt lat="45.96074" lon="4.87581">
        <ele>288</ele>
        <time>2018-10-16T09:25:07Z</time>
      </trkpt>
      <trkpt lat="45.96079" lon="4.87574">
        <ele>288</ele>
        <time>2018-10-16T09:25:08Z</time>
      </trkpt>
      <trkpt lat="45.96084" lon="4.87569">
        <ele>287</ele>
        <time>2018-10-16T09:25:09Z</time>
      </trkpt>
      <trkpt lat="45.96089" lon="4.87563">
        <ele>287</ele>
        <time>2018-10-16T09:25:10Z</time>
      </trkpt>
      <trkpt lat="45.96094" lon="4.87558">
        <ele>287</ele>
        <time>2018-10-16T09:25:11Z</time>
      </trkpt>
      <trkpt lat="45.96099" lon="4.87553">
        <ele>287</ele>
        <time>2018-10-16T09:25:12Z</time>
      </trkpt>
      <trkpt lat="45.96103" lon="4.87548">
        <ele>287</ele>
        <time>2018-10-16T09:25:13Z</time>
      </trkpt>
      <trkpt lat="45.96107" lon="4.87543">
        <ele>287</ele>
        <time>2018-10-16T09:25:14Z</time>
      </trkpt>
      <trkpt lat="45.96112" lon="4.87538">
        <ele>287</ele>
        <time>2018-10-16T09:25:15Z</time>
      </trkpt>
      <trkpt lat="45.96117" lon="4.87533">
        <ele>287</ele>
        <time>2018-10-16T09:25:16Z</time>
      </trkpt>
      <trkpt lat="45.96121" lon="4.87527">
        <ele>286</ele>
        <time>2018-10-16T09:25:17Z</time>
      </trkpt>
      <trkpt lat="45.96125" lon="4.87521">
        <ele>286</ele>
        <time>2018-10-16T09:25:18Z</time>
      </trkpt>
      <trkpt lat="45.9613" lon="4.87516">
        <ele>286</ele>
        <time>2018-10-16T09:25:19Z</time>
      </trkpt>
      <trkpt lat="45.96135" lon="4.87509">
        <ele>286</ele>
        <time>2018-10-16T09:25:20Z</time>
      </trkpt>
      <trkpt lat="45.9614" lon="4.87502">
        <ele>286</ele>
        <time>2018-10-16T09:25:21Z</time>
      </trkpt>
      <trkpt lat="45.96145" lon="4.87497">
        <ele>285</ele>
        <time>2018-10-16T09:25:22Z</time>
      </trkpt>
      <trkpt lat="45.9615" lon="4.87492">
        <ele>285</ele>
        <time>2018-10-16T09:25:23Z</time>
      </trkpt>
      <trkpt lat="45.96153" lon="4.87486">
        <ele>285</ele>
        <time>2018-10-16T09:25:24Z</time>
      </trkpt>
      <trkpt lat="45.96158" lon="4.87481">
        <ele>285</ele>
        <time>2018-10-16T09:25:25Z</time>
      </trkpt>
      <trkpt lat="45.96165" lon="4.8747">
        <ele>285</ele>
        <time>2018-10-16T09:25:26Z</time>
      </trkpt>
      <trkpt lat="45.9617" lon="4.87464">
        <ele>284</ele>
        <time>2018-10-16T09:25:27Z</time>
      </trkpt>
      <trkpt lat="45.96174" lon="4.87458">
        <ele>284</ele>
        <time>2018-10-16T09:25:28Z</time>
      </trkpt>
      <trkpt lat="45.96179" lon="4.87453">
        <ele>284</ele>
        <time>2018-10-16T09:25:29Z</time>
      </trkpt>
      <trkpt lat="45.96184" lon="4.87448">
        <ele>284</ele>
        <time>2018-10-16T09:25:30Z</time>
      </trkpt>
      <trkpt lat="45.96188" lon="4.87441">
        <ele>284</ele>
        <time>2018-10-16T09:25:31Z</time>
      </trkpt>
      <trkpt lat="45.96193" lon="4.87434">
        <ele>284</ele>
        <time>2018-10-16T09:25:32Z</time>
      </trkpt>
      <trkpt lat="45.96199" lon="4.87429">
        <ele>284</ele>
        <time>2018-10-16T09:25:33Z</time>
      </trkpt>
      <trkpt lat="45.96204" lon="4.87424">
        <ele>284</ele>
        <time>2018-10-16T09:25:34Z</time>
      </trkpt>
      <trkpt lat="45.96208" lon="4.87417">
        <ele>284</ele>
        <time>2018-10-16T09:25:35Z</time>
      </trkpt>
      <trkpt lat="45.96212" lon="4.87411">
        <ele>283</ele>
        <time>2018-10-16T09:25:36Z</time>
      </trkpt>
      <trkpt lat="45.96217" lon="4.87406">
        <ele>283</ele>
        <time>2018-10-16T09:25:37Z</time>
      </trkpt>
      <trkpt lat="45.96222" lon="4.874">
        <ele>283</ele>
        <time>2018-10-16T09:25:38Z</time>
      </trkpt>
      <trkpt lat="45.96227" lon="4.87395">
        <ele>283</ele>
        <time>2018-10-16T09:25:39Z</time>
      </trkpt>
      <trkpt lat="45.96231" lon="4.87389">
        <ele>283</ele>
        <time>2018-10-16T09:25:40Z</time>
      </trkpt>
      <trkpt lat="45.96236" lon="4.87385">
        <ele>283</ele>
        <time>2018-10-16T09:25:41Z</time>
      </trkpt>
      <trkpt lat="45.9624" lon="4.8738">
        <ele>283</ele>
        <time>2018-10-16T09:25:42Z</time>
      </trkpt>
      <trkpt lat="45.96245" lon="4.87373">
        <ele>283</ele>
        <time>2018-10-16T09:25:43Z</time>
      </trkpt>
      <trkpt lat="45.96249" lon="4.87368">
        <ele>283</ele>
        <time>2018-10-16T09:25:44Z</time>
      </trkpt>
      <trkpt lat="45.96253" lon="4.87364">
        <ele>283</ele>
        <time>2018-10-16T09:25:45Z</time>
      </trkpt>
      <trkpt lat="45.96258" lon="4.87358">
        <ele>283</ele>
        <time>2018-10-16T09:25:46Z</time>
      </trkpt>
      <trkpt lat="45.96262" lon="4.87353">
        <ele>283</ele>
        <time>2018-10-16T09:25:47Z</time>
      </trkpt>
      <trkpt lat="45.96267" lon="4.87345">
        <ele>283</ele>
        <time>2018-10-16T09:25:48Z</time>
      </trkpt>
      <trkpt lat="45.96273" lon="4.87339">
        <ele>283</ele>
        <time>2018-10-16T09:25:49Z</time>
      </trkpt>
      <trkpt lat="45.96277" lon="4.87333">
        <ele>283</ele>
        <time>2018-10-16T09:25:50Z</time>
      </trkpt>
      <trkpt lat="45.96282" lon="4.87326">
        <ele>283</ele>
        <time>2018-10-16T09:25:51Z</time>
      </trkpt>
      <trkpt lat="45.96284" lon="4.87322">
        <ele>283</ele>
        <time>2018-10-16T09:25:52Z</time>
      </trkpt>
      <trkpt lat="45.96288" lon="4.87316">
        <ele>283</ele>
        <time>2018-10-16T09:25:53Z</time>
      </trkpt>
      <trkpt lat="45.96292" lon="4.87312">
        <ele>283</ele>
        <time>2018-10-16T09:25:54Z</time>
      </trkpt>
      <trkpt lat="45.96296" lon="4.87307">
        <ele>283</ele>
        <time>2018-10-16T09:25:55Z</time>
      </trkpt>
      <trkpt lat="45.96301" lon="4.87301">
        <ele>283</ele>
        <time>2018-10-16T09:25:56Z</time>
      </trkpt>
      <trkpt lat="45.96305" lon="4.87297">
        <ele>283</ele>
        <time>2018-10-16T09:25:57Z</time>
      </trkpt>
      <trkpt lat="45.96309" lon="4.87292">
        <ele>283</ele>
        <time>2018-10-16T09:25:58Z</time>
      </trkpt>
      <trkpt lat="45.96313" lon="4.87288">
        <ele>283</ele>
        <time>2018-10-16T09:25:59Z</time>
      </trkpt>
      <trkpt lat="45.96316" lon="4.87282">
        <ele>283</ele>
        <time>2018-10-16T09:26:00Z</time>
      </trkpt>
      <trkpt lat="45.9632" lon="4.87277">
        <ele>283</ele>
        <time>2018-10-16T09:26:01Z</time>
      </trkpt>
      <trkpt lat="45.96324" lon="4.87273">
        <ele>283</ele>
        <time>2018-10-16T09:26:02Z</time>
      </trkpt>
      <trkpt lat="45.96327" lon="4.87269">
        <ele>283</ele>
        <time>2018-10-16T09:26:03Z</time>
      </trkpt>
      <trkpt lat="45.96331" lon="4.87264">
        <ele>283</ele>
        <time>2018-10-16T09:26:04Z</time>
      </trkpt>
      <trkpt lat="45.96336" lon="4.87257">
        <ele>283</ele>
        <time>2018-10-16T09:26:05Z</time>
      </trkpt>
      <trkpt lat="45.9634" lon="4.87251">
        <ele>283</ele>
        <time>2018-10-16T09:26:06Z</time>
      </trkpt>
      <trkpt lat="45.96345" lon="4.87245">
        <ele>283</ele>
        <time>2018-10-16T09:26:07Z</time>
      </trkpt>
      <trkpt lat="45.96351" lon="4.8724">
        <ele>282</ele>
        <time>2018-10-16T09:26:08Z</time>
      </trkpt>
      <trkpt lat="45.96355" lon="4.87235">
        <ele>282</ele>
        <time>2018-10-16T09:26:09Z</time>
      </trkpt>
      <trkpt lat="45.9636" lon="4.87228">
        <ele>282</ele>
        <time>2018-10-16T09:26:10Z</time>
      </trkpt>
      <trkpt lat="45.96365" lon="4.87223">
        <ele>282</ele>
        <time>2018-10-16T09:26:11Z</time>
      </trkpt>
      <trkpt lat="45.96368" lon="4.87217">
        <ele>282</ele>
        <time>2018-10-16T09:26:12Z</time>
      </trkpt>
      <trkpt lat="45.96373" lon="4.87212">
        <ele>282</ele>
        <time>2018-10-16T09:26:13Z</time>
      </trkpt>
      <trkpt lat="45.96378" lon="4.87206">
        <ele>282</ele>
        <time>2018-10-16T09:26:14Z</time>
      </trkpt>
      <trkpt lat="45.96382" lon="4.872">
        <ele>282</ele>
        <time>2018-10-16T09:26:15Z</time>
      </trkpt>
      <trkpt lat="45.96386" lon="4.87195">
        <ele>282</ele>
        <time>2018-10-16T09:26:16Z</time>
      </trkpt>
      <trkpt lat="45.9639" lon="4.87185">
        <ele>282</ele>
        <time>2018-10-16T09:26:17Z</time>
      </trkpt>
      <trkpt lat="45.96394" lon="4.8718">
        <ele>282</ele>
        <time>2018-10-16T09:26:18Z</time>
      </trkpt>
      <trkpt lat="45.96398" lon="4.87176">
        <ele>282</ele>
        <time>2018-10-16T09:26:19Z</time>
      </trkpt>
      <trkpt lat="45.96402" lon="4.8717">
        <ele>281</ele>
        <time>2018-10-16T09:26:20Z</time>
      </trkpt>
      <trkpt lat="45.96405" lon="4.87162">
        <ele>281</ele>
        <time>2018-10-16T09:26:21Z</time>
      </trkpt>
      <trkpt lat="45.96409" lon="4.87157">
        <ele>281</ele>
        <time>2018-10-16T09:26:22Z</time>
      </trkpt>
      <trkpt lat="45.96413" lon="4.87152">
        <ele>281</ele>
        <time>2018-10-16T09:26:23Z</time>
      </trkpt>
      <trkpt lat="45.96416" lon="4.87148">
        <ele>281</ele>
        <time>2018-10-16T09:26:24Z</time>
      </trkpt>
      <trkpt lat="45.9642" lon="4.87144">
        <ele>281</ele>
        <time>2018-10-16T09:26:25Z</time>
      </trkpt>
      <trkpt lat="45.96424" lon="4.87138">
        <ele>281</ele>
        <time>2018-10-16T09:26:26Z</time>
      </trkpt>
      <trkpt lat="45.96427" lon="4.87133">
        <ele>281</ele>
        <time>2018-10-16T09:26:27Z</time>
      </trkpt>
      <trkpt lat="45.9643" lon="4.87128">
        <ele>281</ele>
        <time>2018-10-16T09:26:28Z</time>
      </trkpt>
      <trkpt lat="45.96433" lon="4.87124">
        <ele>281</ele>
        <time>2018-10-16T09:26:29Z</time>
      </trkpt>
      <trkpt lat="45.96437" lon="4.87119">
        <ele>281</ele>
        <time>2018-10-16T09:26:30Z</time>
      </trkpt>
      <trkpt lat="45.96444" lon="4.87112">
        <ele>281</ele>
        <time>2018-10-16T09:26:32Z</time>
      </trkpt>
      <trkpt lat="45.96448" lon="4.87109">
        <ele>281</ele>
        <time>2018-10-16T09:26:33Z</time>
      </trkpt>
      <trkpt lat="45.96455" lon="4.87103">
        <ele>281</ele>
        <time>2018-10-16T09:26:35Z</time>
      </trkpt>
      <trkpt lat="45.96458" lon="4.87098">
        <ele>281</ele>
        <time>2018-10-16T09:26:36Z</time>
      </trkpt>
      <trkpt lat="45.96464" lon="4.87089">
        <ele>282</ele>
        <time>2018-10-16T09:26:38Z</time>
      </trkpt>
      <trkpt lat="45.96468" lon="4.87086">
        <ele>282</ele>
        <time>2018-10-16T09:26:39Z</time>
      </trkpt>
      <trkpt lat="45.96472" lon="4.87081">
        <ele>281</ele>
        <time>2018-10-16T09:26:40Z</time>
      </trkpt>
      <trkpt lat="45.96477" lon="4.87076">
        <ele>282</ele>
        <time>2018-10-16T09:26:41Z</time>
      </trkpt>
      <trkpt lat="45.96483" lon="4.87069">
        <ele>282</ele>
        <time>2018-10-16T09:26:43Z</time>
      </trkpt>
      <trkpt lat="45.96486" lon="4.87064">
        <ele>282</ele>
        <time>2018-10-16T09:26:44Z</time>
      </trkpt>
      <trkpt lat="45.9649" lon="4.8706">
        <ele>281</ele>
        <time>2018-10-16T09:26:45Z</time>
      </trkpt>
      <trkpt lat="45.96493" lon="4.87055">
        <ele>281</ele>
        <time>2018-10-16T09:26:46Z</time>
      </trkpt>
      <trkpt lat="45.96498" lon="4.87046">
        <ele>281</ele>
        <time>2018-10-16T09:26:48Z</time>
      </trkpt>
      <trkpt lat="45.96502" lon="4.87046">
        <ele>282</ele>
        <time>2018-10-16T09:26:49Z</time>
      </trkpt>
      <trkpt lat="45.9651" lon="4.87048">
        <ele>283</ele>
        <time>2018-10-16T09:26:53Z</time>
      </trkpt>
      <trkpt lat="45.96512" lon="4.87051">
        <ele>283</ele>
        <time>2018-10-16T09:26:54Z</time>
      </trkpt>
      <trkpt lat="45.96515" lon="4.87056">
        <ele>283</ele>
        <time>2018-10-16T09:26:56Z</time>
      </trkpt>
      <trkpt lat="45.9652" lon="4.87062">
        <ele>283</ele>
        <time>2018-10-16T09:26:57Z</time>
      </trkpt>
      <trkpt lat="45.96527" lon="4.87066">
        <ele>283</ele>
        <time>2018-10-16T09:27:00Z</time>
      </trkpt>
      <trkpt lat="45.9653" lon="4.87066">
        <ele>283</ele>
        <time>2018-10-16T09:27:01Z</time>
      </trkpt>
      <trkpt lat="45.96536" lon="4.87061">
        <ele>283</ele>
        <time>2018-10-16T09:27:04Z</time>
      </trkpt>
      <trkpt lat="45.96538" lon="4.87059">
        <ele>283</ele>
        <time>2018-10-16T09:27:05Z</time>
      </trkpt>
      <trkpt lat="45.96545" lon="4.87064">
        <ele>283</ele>
        <time>2018-10-16T09:27:11Z</time>
      </trkpt>
      <trkpt lat="45.96546" lon="4.87066">
        <ele>283</ele>
        <time>2018-10-16T09:27:12Z</time>
      </trkpt>
      <trkpt lat="45.96552" lon="4.87071">
        <ele>283</ele>
        <time>2018-10-16T09:27:16Z</time>
      </trkpt>
      <trkpt lat="45.96555" lon="4.87072">
        <ele>283</ele>
        <time>2018-10-16T09:27:17Z</time>
      </trkpt>
      <trkpt lat="45.96564" lon="4.87071">
        <ele>283</ele>
        <time>2018-10-16T09:27:20Z</time>
      </trkpt>
      <trkpt lat="45.96563" lon="4.87061">
        <ele>283</ele>
        <time>2018-10-16T09:27:21Z</time>
      </trkpt>
      <trkpt lat="45.96561" lon="4.87049">
        <ele>283</ele>
        <time>2018-10-16T09:27:25Z</time>
      </trkpt>
      <trkpt lat="45.9656" lon="4.87045">
        <ele>283</ele>
        <time>2018-10-16T09:27:26Z</time>
      </trkpt>
      <trkpt lat="45.96558" lon="4.87037">
        <ele>283</ele>
        <time>2018-10-16T09:27:28Z</time>
      </trkpt>
      <trkpt lat="45.96556" lon="4.87033">
        <ele>283</ele>
        <time>2018-10-16T09:27:29Z</time>
      </trkpt>
      <trkpt lat="45.9655" lon="4.87027">
        <ele>283</ele>
        <time>2018-10-16T09:27:32Z</time>
      </trkpt>
      <trkpt lat="45.96548" lon="4.87027">
        <ele>283</ele>
        <time>2018-10-16T09:27:33Z</time>
      </trkpt>
      <trkpt lat="45.96541" lon="4.87028">
        <ele>283</ele>
        <time>2018-10-16T09:27:36Z</time>
      </trkpt>
      <trkpt lat="45.96538" lon="4.87029">
        <ele>283</ele>
        <time>2018-10-16T09:27:37Z</time>
      </trkpt>
      <trkpt lat="45.96531" lon="4.87028">
        <ele>283</ele>
        <time>2018-10-16T09:33:07.438Z</time>
      </trkpt>
      <trkpt lat="45.96526" lon="4.87027">
        <ele>283</ele>
        <time>2018-10-16T09:33:07.371Z</time>
      </trkpt>
      <trkpt lat="45.96533" lon="4.87031">
        <ele>283</ele>
        <time>2018-10-16T09:33:14Z</time>
      </trkpt>
      <trkpt lat="45.96532" lon="4.8703">
        <ele>283</ele>
        <time>2018-10-16T09:33:15Z</time>
      </trkpt>
      <trkpt lat="45.96532" lon="4.8703">
        <ele>283</ele>
        <time>2018-10-16T09:33:16Z</time>
      </trkpt>
      <trkpt lat="45.96531" lon="4.8703">
        <ele>283</ele>
        <time>2018-10-16T09:33:17Z</time>
      </trkpt>
      <trkpt lat="45.96531" lon="4.8703">
        <ele>283</ele>
        <time>2018-10-16T09:33:18Z</time>
      </trkpt>
      <trkpt lat="45.96532" lon="4.87019">
        <ele>283</ele>
        <time>2018-10-16T09:43:04Z</time>
      </trkpt>
      <trkpt lat="45.96533" lon="4.87016">
        <ele>283</ele>
        <time>2018-10-16T09:43:05Z</time>
      </trkpt>
      <trkpt lat="45.96535" lon="4.87007">
        <ele>283</ele>
        <time>2018-10-16T09:43:07Z</time>
      </trkpt>
      <trkpt lat="45.96536" lon="4.87002">
        <ele>283</ele>
        <time>2018-10-16T09:43:08Z</time>
      </trkpt>
      <trkpt lat="45.96541" lon="4.86992">
        <ele>283</ele>
        <time>2018-10-16T09:43:12Z</time>
      </trkpt>
      <trkpt lat="45.96543" lon="4.86989">
        <ele>283</ele>
        <time>2018-10-16T09:43:13Z</time>
      </trkpt>
      <trkpt lat="45.96548" lon="4.86982">
        <ele>283</ele>
        <time>2018-10-16T09:43:15Z</time>
      </trkpt>
      <trkpt lat="45.9655" lon="4.86979">
        <ele>283</ele>
        <time>2018-10-16T09:43:16Z</time>
      </trkpt>
      <trkpt lat="45.96555" lon="4.86972">
        <ele>283</ele>
        <time>2018-10-16T09:43:18Z</time>
      </trkpt>
      <trkpt lat="45.96562" lon="4.86962">
        <ele>283</ele>
        <time>2018-10-16T09:43:19Z</time>
      </trkpt>
      <trkpt lat="45.96566" lon="4.86955">
        <ele>284</ele>
        <time>2018-10-16T09:43:21Z</time>
      </trkpt>
      <trkpt lat="45.96568" lon="4.8695">
        <ele>284</ele>
        <time>2018-10-16T09:43:22Z</time>
      </trkpt>
      <trkpt lat="45.96572" lon="4.86941">
        <ele>284</ele>
        <time>2018-10-16T09:43:24Z</time>
      </trkpt>
      <trkpt lat="45.96574" lon="4.86936">
        <ele>284</ele>
        <time>2018-10-16T09:43:25Z</time>
      </trkpt>
      <trkpt lat="45.96578" lon="4.86926">
        <ele>284</ele>
        <time>2018-10-16T09:43:27Z</time>
      </trkpt>
      <trkpt lat="45.96581" lon="4.86922">
        <ele>285</ele>
        <time>2018-10-16T09:43:28Z</time>
      </trkpt>
      <trkpt lat="45.96586" lon="4.86913">
        <ele>285</ele>
        <time>2018-10-16T09:43:30Z</time>
      </trkpt>
      <trkpt lat="45.96589" lon="4.86909">
        <ele>286</ele>
        <time>2018-10-16T09:43:31Z</time>
      </trkpt>
      <trkpt lat="45.96594" lon="4.86901">
        <ele>286</ele>
        <time>2018-10-16T09:43:34Z</time>
      </trkpt>
      <trkpt lat="45.96595" lon="4.86899">
        <ele>286</ele>
        <time>2018-10-16T09:43:35Z</time>
      </trkpt>
      <trkpt lat="45.96601" lon="4.86892">
        <ele>286</ele>
        <time>2018-10-16T09:43:36Z</time>
      </trkpt>
      <trkpt lat="45.96603" lon="4.8689">
        <ele>287</ele>
        <time>2018-10-16T09:43:37Z</time>
      </trkpt>
      <trkpt lat="45.96606" lon="4.86884">
        <ele>287</ele>
        <time>2018-10-16T09:43:39Z</time>
      </trkpt>
      <trkpt lat="45.96612" lon="4.86876">
        <ele>287</ele>
        <time>2018-10-16T09:43:40Z</time>
      </trkpt>
      <trkpt lat="45.96621" lon="4.86865">
        <ele>287</ele>
        <time>2018-10-16T09:43:41Z</time>
      </trkpt>
      <trkpt lat="45.96625" lon="4.86861">
        <ele>287</ele>
        <time>2018-10-16T09:43:42Z</time>
      </trkpt>
      <trkpt lat="45.96631" lon="4.86855">
        <ele>287</ele>
        <time>2018-10-16T09:43:43Z</time>
      </trkpt>
      <trkpt lat="45.96637" lon="4.86847">
        <ele>287</ele>
        <time>2018-10-16T09:43:46Z</time>
      </trkpt>
      <trkpt lat="45.9664" lon="4.86842">
        <ele>287</ele>
        <time>2018-10-16T09:43:47Z</time>
      </trkpt>
      <trkpt lat="45.96643" lon="4.86835">
        <ele>287</ele>
        <time>2018-10-16T09:43:48Z</time>
      </trkpt>
      <trkpt lat="45.96646" lon="4.86832">
        <ele>288</ele>
        <time>2018-10-16T09:43:49Z</time>
      </trkpt>
      <trkpt lat="45.96651" lon="4.86824">
        <ele>288</ele>
        <time>2018-10-16T09:43:52Z</time>
      </trkpt>
      <trkpt lat="45.96656" lon="4.86815">
        <ele>288</ele>
        <time>2018-10-16T09:43:53Z</time>
      </trkpt>
      <trkpt lat="45.96661" lon="4.86812">
        <ele>288</ele>
        <time>2018-10-16T09:43:54Z</time>
      </trkpt>
      <trkpt lat="45.96664" lon="4.86807">
        <ele>288</ele>
        <time>2018-10-16T09:43:55Z</time>
      </trkpt>
      <trkpt lat="45.96668" lon="4.86796">
        <ele>289</ele>
        <time>2018-10-16T09:43:57Z</time>
      </trkpt>
      <trkpt lat="45.9667" lon="4.86789">
        <ele>289</ele>
        <time>2018-10-16T09:43:58Z</time>
      </trkpt>
      <trkpt lat="45.96674" lon="4.86781">
        <ele>289</ele>
        <time>2018-10-16T09:44:00Z</time>
      </trkpt>
      <trkpt lat="45.96677" lon="4.86776">
        <ele>289</ele>
        <time>2018-10-16T09:44:01Z</time>
      </trkpt>
      <trkpt lat="45.96683" lon="4.86767">
        <ele>289</ele>
        <time>2018-10-16T09:44:03Z</time>
      </trkpt>
      <trkpt lat="45.96685" lon="4.8676">
        <ele>289</ele>
        <time>2018-10-16T09:44:04Z</time>
      </trkpt>
      <trkpt lat="45.9669" lon="4.86749">
        <ele>289</ele>
        <time>2018-10-16T09:44:06Z</time>
      </trkpt>
      <trkpt lat="45.96694" lon="4.86745">
        <ele>289</ele>
        <time>2018-10-16T09:44:07Z</time>
      </trkpt>
      <trkpt lat="45.967" lon="4.86736">
        <ele>289</ele>
        <time>2018-10-16T09:44:09Z</time>
      </trkpt>
      <trkpt lat="45.96703" lon="4.8673">
        <ele>289</ele>
        <time>2018-10-16T09:44:10Z</time>
      </trkpt>
      <trkpt lat="45.96708" lon="4.86721">
        <ele>289</ele>
        <time>2018-10-16T09:44:12Z</time>
      </trkpt>
      <trkpt lat="45.96711" lon="4.86715">
        <ele>289</ele>
        <time>2018-10-16T09:44:13Z</time>
      </trkpt>
      <trkpt lat="45.96714" lon="4.8671">
        <ele>289</ele>
        <time>2018-10-16T09:44:14Z</time>
      </trkpt>
      <trkpt lat="45.96717" lon="4.86705">
        <ele>289</ele>
        <time>2018-10-16T09:44:15Z</time>
      </trkpt>
      <trkpt lat="45.96723" lon="4.86696">
        <ele>289</ele>
        <time>2018-10-16T09:44:17Z</time>
      </trkpt>
      <trkpt lat="45.96726" lon="4.8669">
        <ele>289</ele>
        <time>2018-10-16T09:44:18Z</time>
      </trkpt>
      <trkpt lat="45.96728" lon="4.86685">
        <ele>289</ele>
        <time>2018-10-16T09:44:19Z</time>
      </trkpt>
      <trkpt lat="45.96732" lon="4.8668">
        <ele>290</ele>
        <time>2018-10-16T09:44:20Z</time>
      </trkpt>
      <trkpt lat="45.96737" lon="4.86672">
        <ele>290</ele>
        <time>2018-10-16T09:44:22Z</time>
      </trkpt>
      <trkpt lat="45.9674" lon="4.86667">
        <ele>290</ele>
        <time>2018-10-16T09:44:23Z</time>
      </trkpt>
      <trkpt lat="45.96746" lon="4.86658">
        <ele>290</ele>
        <time>2018-10-16T09:44:25Z</time>
      </trkpt>
      <trkpt lat="45.96749" lon="4.86654">
        <ele>290</ele>
        <time>2018-10-16T09:44:26Z</time>
      </trkpt>
      <trkpt lat="45.96755" lon="4.86646">
        <ele>290</ele>
        <time>2018-10-16T09:44:28Z</time>
      </trkpt>
      <trkpt lat="45.96758" lon="4.86642">
        <ele>290</ele>
        <time>2018-10-16T09:44:29Z</time>
      </trkpt>
      <trkpt lat="45.96761" lon="4.86638">
        <ele>290</ele>
        <time>2018-10-16T09:44:30Z</time>
      </trkpt>
      <trkpt lat="45.96764" lon="4.86632">
        <ele>289</ele>
        <time>2018-10-16T09:44:31Z</time>
      </trkpt>
      <trkpt lat="45.96766" lon="4.86627">
        <ele>289</ele>
        <time>2018-10-16T09:44:32Z</time>
      </trkpt>
      <trkpt lat="45.96769" lon="4.86621">
        <ele>289</ele>
        <time>2018-10-16T09:44:33Z</time>
      </trkpt>
      <trkpt lat="45.96772" lon="4.86616">
        <ele>289</ele>
        <time>2018-10-16T09:44:34Z</time>
      </trkpt>
      <trkpt lat="45.96775" lon="4.8661">
        <ele>289</ele>
        <time>2018-10-16T09:44:35Z</time>
      </trkpt>
      <trkpt lat="45.96779" lon="4.86604">
        <ele>289</ele>
        <time>2018-10-16T09:44:36Z</time>
      </trkpt>
      <trkpt lat="45.96782" lon="4.86599">
        <ele>289</ele>
        <time>2018-10-16T09:44:37Z</time>
      </trkpt>
      <trkpt lat="45.96786" lon="4.86593">
        <ele>289</ele>
        <time>2018-10-16T09:44:38Z</time>
      </trkpt>
      <trkpt lat="45.96789" lon="4.86588">
        <ele>289</ele>
        <time>2018-10-16T09:44:39Z</time>
      </trkpt>
      <trkpt lat="45.96792" lon="4.86584">
        <ele>289</ele>
        <time>2018-10-16T09:44:40Z</time>
      </trkpt>
      <trkpt lat="45.96795" lon="4.86578">
        <ele>290</ele>
        <time>2018-10-16T09:44:41Z</time>
      </trkpt>
      <trkpt lat="45.96798" lon="4.86573">
        <ele>290</ele>
        <time>2018-10-16T09:44:42Z</time>
      </trkpt>
      <trkpt lat="45.96801" lon="4.86568">
        <ele>290</ele>
        <time>2018-10-16T09:44:43Z</time>
      </trkpt>
      <trkpt lat="45.96804" lon="4.86561">
        <ele>290</ele>
        <time>2018-10-16T09:44:44Z</time>
      </trkpt>
      <trkpt lat="45.96806" lon="4.86556">
        <ele>290</ele>
        <time>2018-10-16T09:44:45Z</time>
      </trkpt>
      <trkpt lat="45.96812" lon="4.86548">
        <ele>290</ele>
        <time>2018-10-16T09:44:47Z</time>
      </trkpt>
      <trkpt lat="45.96814" lon="4.86542">
        <ele>290</ele>
        <time>2018-10-16T09:44:48Z</time>
      </trkpt>
      <trkpt lat="45.96818" lon="4.86537">
        <ele>290</ele>
        <time>2018-10-16T09:44:49Z</time>
      </trkpt>
      <trkpt lat="45.96821" lon="4.86531">
        <ele>290</ele>
        <time>2018-10-16T09:44:50Z</time>
      </trkpt>
      <trkpt lat="45.96827" lon="4.86522">
        <ele>289</ele>
        <time>2018-10-16T09:44:52Z</time>
      </trkpt>
      <trkpt lat="45.9683" lon="4.86514">
        <ele>289</ele>
        <time>2018-10-16T09:44:53Z</time>
      </trkpt>
      <trkpt lat="45.96833" lon="4.86508">
        <ele>289</ele>
        <time>2018-10-16T09:44:54Z</time>
      </trkpt>
      <trkpt lat="45.96836" lon="4.86503">
        <ele>289</ele>
        <time>2018-10-16T09:44:55Z</time>
      </trkpt>
      <trkpt lat="45.96838" lon="4.86499">
        <ele>289</ele>
        <time>2018-10-16T09:44:56Z</time>
      </trkpt>
      <trkpt lat="45.96841" lon="4.86492">
        <ele>289</ele>
        <time>2018-10-16T09:44:57Z</time>
      </trkpt>
      <trkpt lat="45.96844" lon="4.86486">
        <ele>289</ele>
        <time>2018-10-16T09:44:58Z</time>
      </trkpt>
      <trkpt lat="45.96846" lon="4.86481">
        <ele>289</ele>
        <time>2018-10-16T09:44:59Z</time>
      </trkpt>
      <trkpt lat="45.96848" lon="4.86474">
        <ele>289</ele>
        <time>2018-10-16T09:45:00Z</time>
      </trkpt>
      <trkpt lat="45.96849" lon="4.86468">
        <ele>289</ele>
        <time>2018-10-16T09:45:01Z</time>
      </trkpt>
      <trkpt lat="45.96851" lon="4.86462">
        <ele>289</ele>
        <time>2018-10-16T09:45:02Z</time>
      </trkpt>
      <trkpt lat="45.96853" lon="4.86456">
        <ele>289</ele>
        <time>2018-10-16T09:45:03Z</time>
      </trkpt>
      <trkpt lat="45.96855" lon="4.86443">
        <ele>290</ele>
        <time>2018-10-16T09:45:05Z</time>
      </trkpt>
      <trkpt lat="45.96856" lon="4.86435">
        <ele>290</ele>
        <time>2018-10-16T09:45:06Z</time>
      </trkpt>
      <trkpt lat="45.96857" lon="4.8643">
        <ele>290</ele>
        <time>2018-10-16T09:45:07Z</time>
      </trkpt>
      <trkpt lat="45.96859" lon="4.86423">
        <ele>290</ele>
        <time>2018-10-16T09:45:08Z</time>
      </trkpt>
      <trkpt lat="45.9686" lon="4.86415">
        <ele>290</ele>
        <time>2018-10-16T09:45:09Z</time>
      </trkpt>
      <trkpt lat="45.96861" lon="4.86409">
        <ele>290</ele>
        <time>2018-10-16T09:45:10Z</time>
      </trkpt>
      <trkpt lat="45.96863" lon="4.86402">
        <ele>290</ele>
        <time>2018-10-16T09:45:11Z</time>
      </trkpt>
      <trkpt lat="45.96864" lon="4.86395">
        <ele>290</ele>
        <time>2018-10-16T09:45:12Z</time>
      </trkpt>
      <trkpt lat="45.96865" lon="4.86388">
        <ele>290</ele>
        <time>2018-10-16T09:45:13Z</time>
      </trkpt>
      <trkpt lat="45.96866" lon="4.86382">
        <ele>290</ele>
        <time>2018-10-16T09:45:14Z</time>
      </trkpt>
      <trkpt lat="45.96868" lon="4.86375">
        <ele>290</ele>
        <time>2018-10-16T09:45:15Z</time>
      </trkpt>
      <trkpt lat="45.96868" lon="4.86368">
        <ele>290</ele>
        <time>2018-10-16T09:45:16Z</time>
      </trkpt>
      <trkpt lat="45.9687" lon="4.86361">
        <ele>290</ele>
        <time>2018-10-16T09:45:17Z</time>
      </trkpt>
      <trkpt lat="45.9687" lon="4.86354">
        <ele>290</ele>
        <time>2018-10-16T09:45:18Z</time>
      </trkpt>
      <trkpt lat="45.96872" lon="4.86347">
        <ele>290</ele>
        <time>2018-10-16T09:45:19Z</time>
      </trkpt>
      <trkpt lat="45.96873" lon="4.8634">
        <ele>290</ele>
        <time>2018-10-16T09:45:20Z</time>
      </trkpt>
      <trkpt lat="45.96875" lon="4.86327">
        <ele>289</ele>
        <time>2018-10-16T09:45:22Z</time>
      </trkpt>
      <trkpt lat="45.96876" lon="4.86322">
        <ele>289</ele>
        <time>2018-10-16T09:45:23Z</time>
      </trkpt>
      <trkpt lat="45.96877" lon="4.86315">
        <ele>289</ele>
        <time>2018-10-16T09:45:24Z</time>
      </trkpt>
      <trkpt lat="45.96879" lon="4.86309">
        <ele>289</ele>
        <time>2018-10-16T09:45:25Z</time>
      </trkpt>
      <trkpt lat="45.96879" lon="4.86302">
        <ele>289</ele>
        <time>2018-10-16T09:45:26Z</time>
      </trkpt>
      <trkpt lat="45.96881" lon="4.86294">
        <ele>289</ele>
        <time>2018-10-16T09:45:27Z</time>
      </trkpt>
      <trkpt lat="45.96883" lon="4.86287">
        <ele>289</ele>
        <time>2018-10-16T09:45:28Z</time>
      </trkpt>
      <trkpt lat="45.96882" lon="4.8628">
        <ele>289</ele>
        <time>2018-10-16T09:45:29Z</time>
      </trkpt>
      <trkpt lat="45.96882" lon="4.86275">
        <ele>288</ele>
        <time>2018-10-16T09:45:30Z</time>
      </trkpt>
      <trkpt lat="45.96882" lon="4.86266">
        <ele>288</ele>
        <time>2018-10-16T09:45:31Z</time>
      </trkpt>
      <trkpt lat="45.96882" lon="4.86259">
        <ele>288</ele>
        <time>2018-10-16T09:45:32Z</time>
      </trkpt>
      <trkpt lat="45.96883" lon="4.86253">
        <ele>288</ele>
        <time>2018-10-16T09:45:33Z</time>
      </trkpt>
      <trkpt lat="45.96885" lon="4.86242">
        <ele>288</ele>
        <time>2018-10-16T09:45:35Z</time>
      </trkpt>
      <trkpt lat="45.96885" lon="4.86237">
        <ele>288</ele>
        <time>2018-10-16T09:45:36Z</time>
      </trkpt>
      <trkpt lat="45.96885" lon="4.8623">
        <ele>289</ele>
        <time>2018-10-16T09:45:37Z</time>
      </trkpt>
      <trkpt lat="45.96887" lon="4.86223">
        <ele>289</ele>
        <time>2018-10-16T09:45:38Z</time>
      </trkpt>
      <trkpt lat="45.96888" lon="4.86211">
        <ele>289</ele>
        <time>2018-10-16T09:45:40Z</time>
      </trkpt>
      <trkpt lat="45.96888" lon="4.86204">
        <ele>289</ele>
        <time>2018-10-16T09:45:41Z</time>
      </trkpt>
      <trkpt lat="45.96889" lon="4.86198">
        <ele>289</ele>
        <time>2018-10-16T09:45:42Z</time>
      </trkpt>
      <trkpt lat="45.9689" lon="4.86192">
        <ele>289</ele>
        <time>2018-10-16T09:45:43Z</time>
      </trkpt>
      <trkpt lat="45.96892" lon="4.86184">
        <ele>289</ele>
        <time>2018-10-16T09:45:44Z</time>
      </trkpt>
      <trkpt lat="45.96894" lon="4.86178">
        <ele>289</ele>
        <time>2018-10-16T09:45:45Z</time>
      </trkpt>
      <trkpt lat="45.96894" lon="4.86173">
        <ele>288</ele>
        <time>2018-10-16T09:45:46Z</time>
      </trkpt>
      <trkpt lat="45.96895" lon="4.86165">
        <ele>289</ele>
        <time>2018-10-16T09:45:47Z</time>
      </trkpt>
      <trkpt lat="45.96896" lon="4.86157">
        <ele>289</ele>
        <time>2018-10-16T09:45:48Z</time>
      </trkpt>
      <trkpt lat="45.96897" lon="4.8615">
        <ele>289</ele>
        <time>2018-10-16T09:45:49Z</time>
      </trkpt>
      <trkpt lat="45.96897" lon="4.8614">
        <ele>289</ele>
        <time>2018-10-16T09:45:50Z</time>
      </trkpt>
      <trkpt lat="45.96898" lon="4.86131">
        <ele>289</ele>
        <time>2018-10-16T09:45:51Z</time>
      </trkpt>
      <trkpt lat="45.96899" lon="4.8612">
        <ele>289</ele>
        <time>2018-10-16T09:45:52Z</time>
      </trkpt>
      <trkpt lat="45.96901" lon="4.86111">
        <ele>289</ele>
        <time>2018-10-16T09:45:53Z</time>
      </trkpt>
      <trkpt lat="45.96902" lon="4.86104">
        <ele>289</ele>
        <time>2018-10-16T09:45:54Z</time>
      </trkpt>
      <trkpt lat="45.96903" lon="4.86096">
        <ele>288</ele>
        <time>2018-10-16T09:45:55Z</time>
      </trkpt>
      <trkpt lat="45.96905" lon="4.86087">
        <ele>288</ele>
        <time>2018-10-16T09:45:56Z</time>
      </trkpt>
      <trkpt lat="45.96906" lon="4.86079">
        <ele>288</ele>
        <time>2018-10-16T09:45:57Z</time>
      </trkpt>
      <trkpt lat="45.96907" lon="4.8607">
        <ele>288</ele>
        <time>2018-10-16T09:45:58Z</time>
      </trkpt>
      <trkpt lat="45.96907" lon="4.86061">
        <ele>288</ele>
        <time>2018-10-16T09:45:59Z</time>
      </trkpt>
      <trkpt lat="45.96907" lon="4.86052">
        <ele>289</ele>
        <time>2018-10-16T09:46:00Z</time>
      </trkpt>
      <trkpt lat="45.96908" lon="4.86045">
        <ele>289</ele>
        <time>2018-10-16T09:46:01Z</time>
      </trkpt>
      <trkpt lat="45.96909" lon="4.86037">
        <ele>289</ele>
        <time>2018-10-16T09:46:02Z</time>
      </trkpt>
      <trkpt lat="45.9691" lon="4.8603">
        <ele>289</ele>
        <time>2018-10-16T09:46:03Z</time>
      </trkpt>
      <trkpt lat="45.9691" lon="4.86023">
        <ele>289</ele>
        <time>2018-10-16T09:46:04Z</time>
      </trkpt>
      <trkpt lat="45.96911" lon="4.86014">
        <ele>289</ele>
        <time>2018-10-16T09:46:05Z</time>
      </trkpt>
      <trkpt lat="45.96912" lon="4.86007">
        <ele>288</ele>
        <time>2018-10-16T09:46:06Z</time>
      </trkpt>
      <trkpt lat="45.96914" lon="4.86001">
        <ele>288</ele>
        <time>2018-10-16T09:46:07Z</time>
      </trkpt>
      <trkpt lat="45.96917" lon="4.85993">
        <ele>288</ele>
        <time>2018-10-16T09:46:08Z</time>
      </trkpt>
      <trkpt lat="45.96919" lon="4.85984">
        <ele>287</ele>
        <time>2018-10-16T09:46:09Z</time>
      </trkpt>
      <trkpt lat="45.96921" lon="4.85975">
        <ele>287</ele>
        <time>2018-10-16T09:46:10Z</time>
      </trkpt>
      <trkpt lat="45.96923" lon="4.85968">
        <ele>287</ele>
        <time>2018-10-16T09:46:11Z</time>
      </trkpt>
      <trkpt lat="45.96925" lon="4.85956">
        <ele>287</ele>
        <time>2018-10-16T09:46:12Z</time>
      </trkpt>
      <trkpt lat="45.96929" lon="4.85949">
        <ele>287</ele>
        <time>2018-10-16T09:46:13Z</time>
      </trkpt>
      <trkpt lat="45.96931" lon="4.85939">
        <ele>286</ele>
        <time>2018-10-16T09:46:14Z</time>
      </trkpt>
      <trkpt lat="45.96933" lon="4.8593">
        <ele>286</ele>
        <time>2018-10-16T09:46:15Z</time>
      </trkpt>
      <trkpt lat="45.96935" lon="4.85922">
        <ele>286</ele>
        <time>2018-10-16T09:46:16Z</time>
      </trkpt>
      <trkpt lat="45.96938" lon="4.85913">
        <ele>286</ele>
        <time>2018-10-16T09:46:17Z</time>
      </trkpt>
      <trkpt lat="45.96941" lon="4.85904">
        <ele>285</ele>
        <time>2018-10-16T09:46:18Z</time>
      </trkpt>
      <trkpt lat="45.96943" lon="4.85892">
        <ele>285</ele>
        <time>2018-10-16T09:46:19Z</time>
      </trkpt>
      <trkpt lat="45.96944" lon="4.85883">
        <ele>285</ele>
        <time>2018-10-16T09:46:20Z</time>
      </trkpt>
      <trkpt lat="45.96947" lon="4.85875">
        <ele>285</ele>
        <time>2018-10-16T09:46:21Z</time>
      </trkpt>
      <trkpt lat="45.96949" lon="4.85867">
        <ele>285</ele>
        <time>2018-10-16T09:46:22Z</time>
      </trkpt>
      <trkpt lat="45.96952" lon="4.8586">
        <ele>285</ele>
        <time>2018-10-16T09:46:23Z</time>
      </trkpt>
      <trkpt lat="45.96953" lon="4.85851">
        <ele>285</ele>
        <time>2018-10-16T09:46:24Z</time>
      </trkpt>
      <trkpt lat="45.96956" lon="4.85842">
        <ele>285</ele>
        <time>2018-10-16T09:46:25Z</time>
      </trkpt>
      <trkpt lat="45.96957" lon="4.85834">
        <ele>285</ele>
        <time>2018-10-16T09:46:26Z</time>
      </trkpt>
      <trkpt lat="45.96959" lon="4.85826">
        <ele>285</ele>
        <time>2018-10-16T09:46:27Z</time>
      </trkpt>
      <trkpt lat="45.96962" lon="4.85817">
        <ele>285</ele>
        <time>2018-10-16T09:46:28Z</time>
      </trkpt>
      <trkpt lat="45.96965" lon="4.8581">
        <ele>285</ele>
        <time>2018-10-16T09:46:29Z</time>
      </trkpt>
      <trkpt lat="45.96967" lon="4.858">
        <ele>285</ele>
        <time>2018-10-16T09:46:30Z</time>
      </trkpt>
      <trkpt lat="45.96968" lon="4.85791">
        <ele>285</ele>
        <time>2018-10-16T09:46:31Z</time>
      </trkpt>
      <trkpt lat="45.96972" lon="4.85781">
        <ele>285</ele>
        <time>2018-10-16T09:46:32Z</time>
      </trkpt>
      <trkpt lat="45.96973" lon="4.85772">
        <ele>285</ele>
        <time>2018-10-16T09:46:33Z</time>
      </trkpt>
      <trkpt lat="45.96976" lon="4.85764">
        <ele>285</ele>
        <time>2018-10-16T09:46:34Z</time>
      </trkpt>
      <trkpt lat="45.96979" lon="4.85755">
        <ele>285</ele>
        <time>2018-10-16T09:46:35Z</time>
      </trkpt>
      <trkpt lat="45.96982" lon="4.8575">
        <ele>285</ele>
        <time>2018-10-16T09:46:36Z</time>
      </trkpt>
      <trkpt lat="45.96984" lon="4.85743">
        <ele>285</ele>
        <time>2018-10-16T09:46:37Z</time>
      </trkpt>
      <trkpt lat="45.96987" lon="4.85735">
        <ele>285</ele>
        <time>2018-10-16T09:46:38Z</time>
      </trkpt>
      <trkpt lat="45.96989" lon="4.85727">
        <ele>285</ele>
        <time>2018-10-16T09:46:39Z</time>
      </trkpt>
      <trkpt lat="45.96992" lon="4.8572">
        <ele>285</ele>
        <time>2018-10-16T09:46:40Z</time>
      </trkpt>
      <trkpt lat="45.96995" lon="4.85712">
        <ele>285</ele>
        <time>2018-10-16T09:46:41Z</time>
      </trkpt>
      <trkpt lat="45.96997" lon="4.85705">
        <ele>285</ele>
        <time>2018-10-16T09:46:42Z</time>
      </trkpt>
      <trkpt lat="45.96999" lon="4.85698">
        <ele>285</ele>
        <time>2018-10-16T09:46:43Z</time>
      </trkpt>
      <trkpt lat="45.97" lon="4.85692">
        <ele>285</ele>
        <time>2018-10-16T09:46:44Z</time>
      </trkpt>
      <trkpt lat="45.97002" lon="4.85686">
        <ele>285</ele>
        <time>2018-10-16T09:46:45Z</time>
      </trkpt>
      <trkpt lat="45.97003" lon="4.85678">
        <ele>285</ele>
        <time>2018-10-16T09:46:46Z</time>
      </trkpt>
      <trkpt lat="45.97004" lon="4.85669">
        <ele>286</ele>
        <time>2018-10-16T09:46:47Z</time>
      </trkpt>
      <trkpt lat="45.97006" lon="4.85662">
        <ele>285</ele>
        <time>2018-10-16T09:46:48Z</time>
      </trkpt>
      <trkpt lat="45.97007" lon="4.85655">
        <ele>285</ele>
        <time>2018-10-16T09:46:49Z</time>
      </trkpt>
      <trkpt lat="45.97008" lon="4.85647">
        <ele>284</ele>
        <time>2018-10-16T09:46:50Z</time>
      </trkpt>
      <trkpt lat="45.9701" lon="4.85638">
        <ele>284</ele>
        <time>2018-10-16T09:46:51Z</time>
      </trkpt>
      <trkpt lat="45.97013" lon="4.85628">
        <ele>284</ele>
        <time>2018-10-16T09:46:52Z</time>
      </trkpt>
      <trkpt lat="45.97015" lon="4.8562">
        <ele>284</ele>
        <time>2018-10-16T09:46:53Z</time>
      </trkpt>
      <trkpt lat="45.97018" lon="4.8561">
        <ele>284</ele>
        <time>2018-10-16T09:46:54Z</time>
      </trkpt>
      <trkpt lat="45.9702" lon="4.85601">
        <ele>284</ele>
        <time>2018-10-16T09:46:55Z</time>
      </trkpt>
      <trkpt lat="45.97023" lon="4.85593">
        <ele>284</ele>
        <time>2018-10-16T09:46:56Z</time>
      </trkpt>
      <trkpt lat="45.97025" lon="4.85584">
        <ele>284</ele>
        <time>2018-10-16T09:46:57Z</time>
      </trkpt>
      <trkpt lat="45.97026" lon="4.85575">
        <ele>283</ele>
        <time>2018-10-16T09:46:58Z</time>
      </trkpt>
      <trkpt lat="45.97029" lon="4.85565">
        <ele>283</ele>
        <time>2018-10-16T09:46:59Z</time>
      </trkpt>
      <trkpt lat="45.97032" lon="4.85556">
        <ele>283</ele>
        <time>2018-10-16T09:47:00Z</time>
      </trkpt>
      <trkpt lat="45.97035" lon="4.85547">
        <ele>282</ele>
        <time>2018-10-16T09:47:01Z</time>
      </trkpt>
      <trkpt lat="45.97037" lon="4.85538">
        <ele>282</ele>
        <time>2018-10-16T09:47:02Z</time>
      </trkpt>
      <trkpt lat="45.97039" lon="4.85529">
        <ele>282</ele>
        <time>2018-10-16T09:47:03Z</time>
      </trkpt>
      <trkpt lat="45.97043" lon="4.8552">
        <ele>282</ele>
        <time>2018-10-16T09:47:04Z</time>
      </trkpt>
      <trkpt lat="45.97045" lon="4.85511">
        <ele>282</ele>
        <time>2018-10-16T09:47:05Z</time>
      </trkpt>
      <trkpt lat="45.97048" lon="4.855">
        <ele>282</ele>
        <time>2018-10-16T09:47:06Z</time>
      </trkpt>
      <trkpt lat="45.97051" lon="4.85492">
        <ele>281</ele>
        <time>2018-10-16T09:47:07Z</time>
      </trkpt>
      <trkpt lat="45.97054" lon="4.85484">
        <ele>281</ele>
        <time>2018-10-16T09:47:08Z</time>
      </trkpt>
      <trkpt lat="45.97057" lon="4.85475">
        <ele>281</ele>
        <time>2018-10-16T09:47:09Z</time>
      </trkpt>
      <trkpt lat="45.97059" lon="4.85467">
        <ele>281</ele>
        <time>2018-10-16T09:47:10Z</time>
      </trkpt>
      <trkpt lat="45.97062" lon="4.85458">
        <ele>281</ele>
        <time>2018-10-16T09:47:11Z</time>
      </trkpt>
      <trkpt lat="45.97065" lon="4.85449">
        <ele>281</ele>
        <time>2018-10-16T09:47:12Z</time>
      </trkpt>
      <trkpt lat="45.97068" lon="4.85441">
        <ele>281</ele>
        <time>2018-10-16T09:47:13Z</time>
      </trkpt>
      <trkpt lat="45.97071" lon="4.85432">
        <ele>281</ele>
        <time>2018-10-16T09:47:14Z</time>
      </trkpt>
      <trkpt lat="45.97074" lon="4.85424">
        <ele>281</ele>
        <time>2018-10-16T09:47:15Z</time>
      </trkpt>
      <trkpt lat="45.97077" lon="4.85415">
        <ele>280</ele>
        <time>2018-10-16T09:47:16Z</time>
      </trkpt>
      <trkpt lat="45.9708" lon="4.85407">
        <ele>281</ele>
        <time>2018-10-16T09:47:17Z</time>
      </trkpt>
      <trkpt lat="45.97082" lon="4.85397">
        <ele>281</ele>
        <time>2018-10-16T09:47:18Z</time>
      </trkpt>
      <trkpt lat="45.97085" lon="4.85388">
        <ele>280</ele>
        <time>2018-10-16T09:47:19Z</time>
      </trkpt>
      <trkpt lat="45.97088" lon="4.8538">
        <ele>280</ele>
        <time>2018-10-16T09:47:20Z</time>
      </trkpt>
      <trkpt lat="45.97091" lon="4.85372">
        <ele>280</ele>
        <time>2018-10-16T09:47:21Z</time>
      </trkpt>
      <trkpt lat="45.97094" lon="4.85363">
        <ele>280</ele>
        <time>2018-10-16T09:47:22Z</time>
      </trkpt>
      <trkpt lat="45.97096" lon="4.85353">
        <ele>280</ele>
        <time>2018-10-16T09:47:23Z</time>
      </trkpt>
      <trkpt lat="45.97099" lon="4.85344">
        <ele>280</ele>
        <time>2018-10-16T09:47:24Z</time>
      </trkpt>
      <trkpt lat="45.97103" lon="4.85335">
        <ele>280</ele>
        <time>2018-10-16T09:47:25Z</time>
      </trkpt>
      <trkpt lat="45.97107" lon="4.85326">
        <ele>280</ele>
        <time>2018-10-16T09:47:26Z</time>
      </trkpt>
      <trkpt lat="45.9711" lon="4.85317">
        <ele>280</ele>
        <time>2018-10-16T09:47:27Z</time>
      </trkpt>
      <trkpt lat="45.97114" lon="4.85307">
        <ele>280</ele>
        <time>2018-10-16T09:47:28Z</time>
      </trkpt>
      <trkpt lat="45.97116" lon="4.85298">
        <ele>280</ele>
        <time>2018-10-16T09:47:29Z</time>
      </trkpt>
      <trkpt lat="45.9712" lon="4.85289">
        <ele>280</ele>
        <time>2018-10-16T09:47:30Z</time>
      </trkpt>
      <trkpt lat="45.97125" lon="4.85279">
        <ele>280</ele>
        <time>2018-10-16T09:47:31Z</time>
      </trkpt>
      <trkpt lat="45.97128" lon="4.85271">
        <ele>279</ele>
        <time>2018-10-16T09:47:32Z</time>
      </trkpt>
      <trkpt lat="45.97133" lon="4.85262">
        <ele>279</ele>
        <time>2018-10-16T09:47:33Z</time>
      </trkpt>
      <trkpt lat="45.97137" lon="4.85255">
        <ele>279</ele>
        <time>2018-10-16T09:47:34Z</time>
      </trkpt>
      <trkpt lat="45.97141" lon="4.85247">
        <ele>279</ele>
        <time>2018-10-16T09:47:35Z</time>
      </trkpt>
      <trkpt lat="45.97144" lon="4.8524">
        <ele>279</ele>
        <time>2018-10-16T09:47:36Z</time>
      </trkpt>
      <trkpt lat="45.97148" lon="4.85232">
        <ele>279</ele>
        <time>2018-10-16T09:47:37Z</time>
      </trkpt>
      <trkpt lat="45.97152" lon="4.85224">
        <ele>279</ele>
        <time>2018-10-16T09:47:38Z</time>
      </trkpt>
      <trkpt lat="45.97155" lon="4.85216">
        <ele>279</ele>
        <time>2018-10-16T09:47:39Z</time>
      </trkpt>
      <trkpt lat="45.9716" lon="4.85209">
        <ele>279</ele>
        <time>2018-10-16T09:47:40Z</time>
      </trkpt>
      <trkpt lat="45.97164" lon="4.85202">
        <ele>279</ele>
        <time>2018-10-16T09:47:41Z</time>
      </trkpt>
      <trkpt lat="45.97168" lon="4.85193">
        <ele>278</ele>
        <time>2018-10-16T09:47:42Z</time>
      </trkpt>
      <trkpt lat="45.97172" lon="4.85186">
        <ele>278</ele>
        <time>2018-10-16T09:47:43Z</time>
      </trkpt>
      <trkpt lat="45.97175" lon="4.85178">
        <ele>278</ele>
        <time>2018-10-16T09:47:44Z</time>
      </trkpt>
      <trkpt lat="45.97178" lon="4.85173">
        <ele>278</ele>
        <time>2018-10-16T09:47:45Z</time>
      </trkpt>
      <trkpt lat="45.97183" lon="4.85162">
        <ele>278</ele>
        <time>2018-10-16T09:47:46Z</time>
      </trkpt>
      <trkpt lat="45.97187" lon="4.85156">
        <ele>278</ele>
        <time>2018-10-16T09:47:47Z</time>
      </trkpt>
      <trkpt lat="45.9719" lon="4.8515">
        <ele>278</ele>
        <time>2018-10-16T09:47:48Z</time>
      </trkpt>
      <trkpt lat="45.97193" lon="4.85144">
        <ele>278</ele>
        <time>2018-10-16T09:47:49Z</time>
      </trkpt>
      <trkpt lat="45.97196" lon="4.85138">
        <ele>278</ele>
        <time>2018-10-16T09:47:50Z</time>
      </trkpt>
      <trkpt lat="45.972" lon="4.85131">
        <ele>278</ele>
        <time>2018-10-16T09:47:51Z</time>
      </trkpt>
      <trkpt lat="45.97203" lon="4.85125">
        <ele>278</ele>
        <time>2018-10-16T09:47:52Z</time>
      </trkpt>
      <trkpt lat="45.97206" lon="4.85119">
        <ele>278</ele>
        <time>2018-10-16T09:47:53Z</time>
      </trkpt>
      <trkpt lat="45.97208" lon="4.85111">
        <ele>278</ele>
        <time>2018-10-16T09:47:54Z</time>
      </trkpt>
      <trkpt lat="45.97211" lon="4.85105">
        <ele>278</ele>
        <time>2018-10-16T09:47:55Z</time>
      </trkpt>
      <trkpt lat="45.97214" lon="4.851">
        <ele>278</ele>
        <time>2018-10-16T09:47:56Z</time>
      </trkpt>
      <trkpt lat="45.97219" lon="4.8509">
        <ele>278</ele>
        <time>2018-10-16T09:47:58Z</time>
      </trkpt>
      <trkpt lat="45.97221" lon="4.85084">
        <ele>278</ele>
        <time>2018-10-16T09:47:59Z</time>
      </trkpt>
      <trkpt lat="45.97224" lon="4.85078">
        <ele>278</ele>
        <time>2018-10-16T09:48:00Z</time>
      </trkpt>
      <trkpt lat="45.97227" lon="4.85071">
        <ele>278</ele>
        <time>2018-10-16T09:48:01Z</time>
      </trkpt>
      <trkpt lat="45.97231" lon="4.85064">
        <ele>278</ele>
        <time>2018-10-16T09:48:02Z</time>
      </trkpt>
      <trkpt lat="45.97235" lon="4.85058">
        <ele>279</ele>
        <time>2018-10-16T09:48:03Z</time>
      </trkpt>
      <trkpt lat="45.97238" lon="4.85051">
        <ele>279</ele>
        <time>2018-10-16T09:48:04Z</time>
      </trkpt>
      <trkpt lat="45.97242" lon="4.85041">
        <ele>279</ele>
        <time>2018-10-16T09:48:05Z</time>
      </trkpt>
      <trkpt lat="45.97247" lon="4.85033">
        <ele>279</ele>
        <time>2018-10-16T09:48:06Z</time>
      </trkpt>
      <trkpt lat="45.97251" lon="4.85023">
        <ele>279</ele>
        <time>2018-10-16T09:48:07Z</time>
      </trkpt>
      <trkpt lat="45.97254" lon="4.85015">
        <ele>279</ele>
        <time>2018-10-16T09:48:08Z</time>
      </trkpt>
      <trkpt lat="45.97258" lon="4.85009">
        <ele>279</ele>
        <time>2018-10-16T09:48:09Z</time>
      </trkpt>
      <trkpt lat="45.97261" lon="4.85001">
        <ele>279</ele>
        <time>2018-10-16T09:48:10Z</time>
      </trkpt>
      <trkpt lat="45.97264" lon="4.84994">
        <ele>279</ele>
        <time>2018-10-16T09:48:11Z</time>
      </trkpt>
      <trkpt lat="45.97267" lon="4.84987">
        <ele>279</ele>
        <time>2018-10-16T09:48:12Z</time>
      </trkpt>
      <trkpt lat="45.9727" lon="4.8498">
        <ele>279</ele>
        <time>2018-10-16T09:48:13Z</time>
      </trkpt>
      <trkpt lat="45.97273" lon="4.84972">
        <ele>278</ele>
        <time>2018-10-16T09:48:14Z</time>
      </trkpt>
      <trkpt lat="45.97276" lon="4.84965">
        <ele>278</ele>
        <time>2018-10-16T09:48:15Z</time>
      </trkpt>
      <trkpt lat="45.97279" lon="4.84959">
        <ele>278</ele>
        <time>2018-10-16T09:48:16Z</time>
      </trkpt>
      <trkpt lat="45.97282" lon="4.84952">
        <ele>278</ele>
        <time>2018-10-16T09:48:17Z</time>
      </trkpt>
      <trkpt lat="45.97285" lon="4.84947">
        <ele>278</ele>
        <time>2018-10-16T09:48:18Z</time>
      </trkpt>
      <trkpt lat="45.97289" lon="4.84941">
        <ele>278</ele>
        <time>2018-10-16T09:48:19Z</time>
      </trkpt>
      <trkpt lat="45.97294" lon="4.84936">
        <ele>278</ele>
        <time>2018-10-16T09:48:20Z</time>
      </trkpt>
      <trkpt lat="45.97299" lon="4.84928">
        <ele>278</ele>
        <time>2018-10-16T09:48:21Z</time>
      </trkpt>
      <trkpt lat="45.97303" lon="4.84919">
        <ele>278</ele>
        <time>2018-10-16T09:48:22Z</time>
      </trkpt>
      <trkpt lat="45.97306" lon="4.84913">
        <ele>278</ele>
        <time>2018-10-16T09:48:23Z</time>
      </trkpt>
      <trkpt lat="45.97311" lon="4.84907">
        <ele>278</ele>
        <time>2018-10-16T09:48:24Z</time>
      </trkpt>
      <trkpt lat="45.97315" lon="4.849">
        <ele>278</ele>
        <time>2018-10-16T09:48:25Z</time>
      </trkpt>
      <trkpt lat="45.97319" lon="4.84894">
        <ele>278</ele>
        <time>2018-10-16T09:48:26Z</time>
      </trkpt>
      <trkpt lat="45.97323" lon="4.84888">
        <ele>278</ele>
        <time>2018-10-16T09:48:27Z</time>
      </trkpt>
      <trkpt lat="45.97327" lon="4.84881">
        <ele>278</ele>
        <time>2018-10-16T09:48:28Z</time>
      </trkpt>
      <trkpt lat="45.97332" lon="4.84874">
        <ele>278</ele>
        <time>2018-10-16T09:48:29Z</time>
      </trkpt>
      <trkpt lat="45.97335" lon="4.84869">
        <ele>277</ele>
        <time>2018-10-16T09:48:30Z</time>
      </trkpt>
      <trkpt lat="45.97338" lon="4.8486">
        <ele>277</ele>
        <time>2018-10-16T09:48:31Z</time>
      </trkpt>
      <trkpt lat="45.97342" lon="4.84853">
        <ele>277</ele>
        <time>2018-10-16T09:48:32Z</time>
      </trkpt>
      <trkpt lat="45.97345" lon="4.84843">
        <ele>277</ele>
        <time>2018-10-16T09:48:33Z</time>
      </trkpt>
      <trkpt lat="45.97349" lon="4.84835">
        <ele>277</ele>
        <time>2018-10-16T09:48:34Z</time>
      </trkpt>
      <trkpt lat="45.97352" lon="4.84828">
        <ele>278</ele>
        <time>2018-10-16T09:48:35Z</time>
      </trkpt>
      <trkpt lat="45.97354" lon="4.84821">
        <ele>278</ele>
        <time>2018-10-16T09:48:36Z</time>
      </trkpt>
      <trkpt lat="45.97358" lon="4.84814">
        <ele>278</ele>
        <time>2018-10-16T09:48:37Z</time>
      </trkpt>
      <trkpt lat="45.9736" lon="4.84807">
        <ele>278</ele>
        <time>2018-10-16T09:48:38Z</time>
      </trkpt>
      <trkpt lat="45.97363" lon="4.84801">
        <ele>278</ele>
        <time>2018-10-16T09:48:39Z</time>
      </trkpt>
      <trkpt lat="45.97366" lon="4.84795">
        <ele>278</ele>
        <time>2018-10-16T09:48:40Z</time>
      </trkpt>
      <trkpt lat="45.97368" lon="4.84789">
        <ele>278</ele>
        <time>2018-10-16T09:48:41Z</time>
      </trkpt>
      <trkpt lat="45.97371" lon="4.84782">
        <ele>278</ele>
        <time>2018-10-16T09:48:42Z</time>
      </trkpt>
      <trkpt lat="45.97374" lon="4.84775">
        <ele>278</ele>
        <time>2018-10-16T09:48:43Z</time>
      </trkpt>
      <trkpt lat="45.97376" lon="4.84767">
        <ele>278</ele>
        <time>2018-10-16T09:48:44Z</time>
      </trkpt>
      <trkpt lat="45.97379" lon="4.84764">
        <ele>278</ele>
        <time>2018-10-16T09:48:45Z</time>
      </trkpt>
      <trkpt lat="45.97382" lon="4.84757">
        <ele>278</ele>
        <time>2018-10-16T09:48:46Z</time>
      </trkpt>
      <trkpt lat="45.97385" lon="4.8475">
        <ele>278</ele>
        <time>2018-10-16T09:48:47Z</time>
      </trkpt>
      <trkpt lat="45.97388" lon="4.84744">
        <ele>278</ele>
        <time>2018-10-16T09:48:48Z</time>
      </trkpt>
      <trkpt lat="45.97391" lon="4.84737">
        <ele>278</ele>
        <time>2018-10-16T09:48:49Z</time>
      </trkpt>
      <trkpt lat="45.97394" lon="4.84731">
        <ele>278</ele>
        <time>2018-10-16T09:48:50Z</time>
      </trkpt>
      <trkpt lat="45.97399" lon="4.84725">
        <ele>278</ele>
        <time>2018-10-16T09:48:51Z</time>
      </trkpt>
      <trkpt lat="45.97404" lon="4.8472">
        <ele>278</ele>
        <time>2018-10-16T09:48:52Z</time>
      </trkpt>
      <trkpt lat="45.97409" lon="4.84716">
        <ele>278</ele>
        <time>2018-10-16T09:48:53Z</time>
      </trkpt>
      <trkpt lat="45.97415" lon="4.84711">
        <ele>278</ele>
        <time>2018-10-16T09:48:54Z</time>
      </trkpt>
      <trkpt lat="45.97421" lon="4.84707">
        <ele>276</ele>
        <time>2018-10-16T09:48:55Z</time>
      </trkpt>
      <trkpt lat="45.97426" lon="4.84703">
        <ele>276</ele>
        <time>2018-10-16T09:48:56Z</time>
      </trkpt>
      <trkpt lat="45.97432" lon="4.84699">
        <ele>276</ele>
        <time>2018-10-16T09:48:57Z</time>
      </trkpt>
      <trkpt lat="45.97438" lon="4.84696">
        <ele>276</ele>
        <time>2018-10-16T09:48:58Z</time>
      </trkpt>
      <trkpt lat="45.97442" lon="4.84692">
        <ele>276</ele>
        <time>2018-10-16T09:48:59Z</time>
      </trkpt>
      <trkpt lat="45.97447" lon="4.84688">
        <ele>276</ele>
        <time>2018-10-16T09:49:00Z</time>
      </trkpt>
      <trkpt lat="45.97452" lon="4.84684">
        <ele>276</ele>
        <time>2018-10-16T09:49:01Z</time>
      </trkpt>
      <trkpt lat="45.97457" lon="4.8468">
        <ele>276</ele>
        <time>2018-10-16T09:49:02Z</time>
      </trkpt>
      <trkpt lat="45.97463" lon="4.84677">
        <ele>276</ele>
        <time>2018-10-16T09:49:03Z</time>
      </trkpt>
      <trkpt lat="45.97468" lon="4.84673">
        <ele>276</ele>
        <time>2018-10-16T09:49:04Z</time>
      </trkpt>
      <trkpt lat="45.97472" lon="4.84669">
        <ele>276</ele>
        <time>2018-10-16T09:49:05Z</time>
      </trkpt>
      <trkpt lat="45.97477" lon="4.84667">
        <ele>276</ele>
        <time>2018-10-16T09:49:06Z</time>
      </trkpt>
      <trkpt lat="45.97481" lon="4.84666">
        <ele>276</ele>
        <time>2018-10-16T09:49:07Z</time>
      </trkpt>
      <trkpt lat="45.97486" lon="4.84659">
        <ele>275</ele>
        <time>2018-10-16T09:49:08Z</time>
      </trkpt>
      <trkpt lat="45.97491" lon="4.84655">
        <ele>275</ele>
        <time>2018-10-16T09:49:09Z</time>
      </trkpt>
      <trkpt lat="45.97496" lon="4.84651">
        <ele>275</ele>
        <time>2018-10-16T09:49:10Z</time>
      </trkpt>
      <trkpt lat="45.97501" lon="4.84647">
        <ele>275</ele>
        <time>2018-10-16T09:49:11Z</time>
      </trkpt>
      <trkpt lat="45.97507" lon="4.84643">
        <ele>275</ele>
        <time>2018-10-16T09:49:12Z</time>
      </trkpt>
      <trkpt lat="45.97513" lon="4.8464">
        <ele>275</ele>
        <time>2018-10-16T09:49:13Z</time>
      </trkpt>
      <trkpt lat="45.97519" lon="4.84636">
        <ele>275</ele>
        <time>2018-10-16T09:49:14Z</time>
      </trkpt>
      <trkpt lat="45.97525" lon="4.84632">
        <ele>275</ele>
        <time>2018-10-16T09:49:15Z</time>
      </trkpt>
      <trkpt lat="45.97529" lon="4.84629">
        <ele>275</ele>
        <time>2018-10-16T09:49:16Z</time>
      </trkpt>
      <trkpt lat="45.97534" lon="4.84625">
        <ele>275</ele>
        <time>2018-10-16T09:49:17Z</time>
      </trkpt>
      <trkpt lat="45.97537" lon="4.84621">
        <ele>275</ele>
        <time>2018-10-16T09:49:18Z</time>
      </trkpt>
      <trkpt lat="45.97543" lon="4.84617">
        <ele>274</ele>
        <time>2018-10-16T09:49:19Z</time>
      </trkpt>
      <trkpt lat="45.97548" lon="4.84612">
        <ele>274</ele>
        <time>2018-10-16T09:49:20Z</time>
      </trkpt>
      <trkpt lat="45.97552" lon="4.84608">
        <ele>274</ele>
        <time>2018-10-16T09:49:21Z</time>
      </trkpt>
      <trkpt lat="45.97557" lon="4.84604">
        <ele>274</ele>
        <time>2018-10-16T09:49:22Z</time>
      </trkpt>
      <trkpt lat="45.97562" lon="4.84598">
        <ele>274</ele>
        <time>2018-10-16T09:49:23Z</time>
      </trkpt>
      <trkpt lat="45.97566" lon="4.84594">
        <ele>274</ele>
        <time>2018-10-16T09:49:24Z</time>
      </trkpt>
      <trkpt lat="45.9757" lon="4.84591">
        <ele>274</ele>
        <time>2018-10-16T09:49:25Z</time>
      </trkpt>
      <trkpt lat="45.97574" lon="4.84585">
        <ele>274</ele>
        <time>2018-10-16T09:49:26Z</time>
      </trkpt>
      <trkpt lat="45.97579" lon="4.8458">
        <ele>274</ele>
        <time>2018-10-16T09:49:27Z</time>
      </trkpt>
      <trkpt lat="45.97583" lon="4.84575">
        <ele>274</ele>
        <time>2018-10-16T09:49:28Z</time>
      </trkpt>
      <trkpt lat="45.97587" lon="4.8457">
        <ele>274</ele>
        <time>2018-10-16T09:49:29Z</time>
      </trkpt>
      <trkpt lat="45.97591" lon="4.84565">
        <ele>274</ele>
        <time>2018-10-16T09:49:30Z</time>
      </trkpt>
      <trkpt lat="45.97595" lon="4.84559">
        <ele>275</ele>
        <time>2018-10-16T09:49:31Z</time>
      </trkpt>
      <trkpt lat="45.97598" lon="4.84554">
        <ele>275</ele>
        <time>2018-10-16T09:49:32Z</time>
      </trkpt>
      <trkpt lat="45.97602" lon="4.84548">
        <ele>275</ele>
        <time>2018-10-16T09:49:33Z</time>
      </trkpt>
      <trkpt lat="45.97605" lon="4.84543">
        <ele>275</ele>
        <time>2018-10-16T09:49:34Z</time>
      </trkpt>
      <trkpt lat="45.97609" lon="4.84539">
        <ele>275</ele>
        <time>2018-10-16T09:49:35Z</time>
      </trkpt>
      <trkpt lat="45.97612" lon="4.84533">
        <ele>275</ele>
        <time>2018-10-16T09:49:36Z</time>
      </trkpt>
      <trkpt lat="45.97616" lon="4.84528">
        <ele>275</ele>
        <time>2018-10-16T09:49:37Z</time>
      </trkpt>
      <trkpt lat="45.9762" lon="4.84523">
        <ele>275</ele>
        <time>2018-10-16T09:49:38Z</time>
      </trkpt>
      <trkpt lat="45.97624" lon="4.84518">
        <ele>275</ele>
        <time>2018-10-16T09:49:39Z</time>
      </trkpt>
      <trkpt lat="45.97628" lon="4.84513">
        <ele>275</ele>
        <time>2018-10-16T09:49:40Z</time>
      </trkpt>
      <trkpt lat="45.97632" lon="4.84508">
        <ele>275</ele>
        <time>2018-10-16T09:49:41Z</time>
      </trkpt>
      <trkpt lat="45.97635" lon="4.84503">
        <ele>275</ele>
        <time>2018-10-16T09:49:42Z</time>
      </trkpt>
      <trkpt lat="45.9764" lon="4.84498">
        <ele>275</ele>
        <time>2018-10-16T09:49:43Z</time>
      </trkpt>
      <trkpt lat="45.97645" lon="4.84493">
        <ele>275</ele>
        <time>2018-10-16T09:49:44Z</time>
      </trkpt>
      <trkpt lat="45.97649" lon="4.84488">
        <ele>275</ele>
        <time>2018-10-16T09:49:45Z</time>
      </trkpt>
      <trkpt lat="45.97654" lon="4.84484">
        <ele>276</ele>
        <time>2018-10-16T09:49:46Z</time>
      </trkpt>
      <trkpt lat="45.97659" lon="4.84479">
        <ele>276</ele>
        <time>2018-10-16T09:49:47Z</time>
      </trkpt>
      <trkpt lat="45.97664" lon="4.84475">
        <ele>276</ele>
        <time>2018-10-16T09:49:48Z</time>
      </trkpt>
      <trkpt lat="45.97669" lon="4.84472">
        <ele>276</ele>
        <time>2018-10-16T09:49:49Z</time>
      </trkpt>
      <trkpt lat="45.97674" lon="4.84466">
        <ele>277</ele>
        <time>2018-10-16T09:49:50Z</time>
      </trkpt>
      <trkpt lat="45.97681" lon="4.84463">
        <ele>277</ele>
        <time>2018-10-16T09:49:51Z</time>
      </trkpt>
      <trkpt lat="45.97687" lon="4.84458">
        <ele>277</ele>
        <time>2018-10-16T09:49:52Z</time>
      </trkpt>
      <trkpt lat="45.97693" lon="4.84456">
        <ele>277</ele>
        <time>2018-10-16T09:49:53Z</time>
      </trkpt>
      <trkpt lat="45.97699" lon="4.84453">
        <ele>277</ele>
        <time>2018-10-16T09:49:54Z</time>
      </trkpt>
      <trkpt lat="45.97704" lon="4.84449">
        <ele>277</ele>
        <time>2018-10-16T09:49:55Z</time>
      </trkpt>
      <trkpt lat="45.9771" lon="4.84447">
        <ele>277</ele>
        <time>2018-10-16T09:49:56Z</time>
      </trkpt>
      <trkpt lat="45.97716" lon="4.84445">
        <ele>277</ele>
        <time>2018-10-16T09:49:57Z</time>
      </trkpt>
      <trkpt lat="45.97723" lon="4.84444">
        <ele>277</ele>
        <time>2018-10-16T09:49:58Z</time>
      </trkpt>
      <trkpt lat="45.97728" lon="4.84443">
        <ele>277</ele>
        <time>2018-10-16T09:49:59Z</time>
      </trkpt>
      <trkpt lat="45.97735" lon="4.8444">
        <ele>277</ele>
        <time>2018-10-16T09:50:00Z</time>
      </trkpt>
      <trkpt lat="45.9774" lon="4.84439">
        <ele>277</ele>
        <time>2018-10-16T09:50:01Z</time>
      </trkpt>
      <trkpt lat="45.97746" lon="4.84439">
        <ele>277</ele>
        <time>2018-10-16T09:50:02Z</time>
      </trkpt>
      <trkpt lat="45.97752" lon="4.84437">
        <ele>277</ele>
        <time>2018-10-16T09:50:03Z</time>
      </trkpt>
      <trkpt lat="45.97758" lon="4.84437">
        <ele>277</ele>
        <time>2018-10-16T09:50:04Z</time>
      </trkpt>
      <trkpt lat="45.97763" lon="4.84435">
        <ele>277</ele>
        <time>2018-10-16T09:50:05Z</time>
      </trkpt>
      <trkpt lat="45.97769" lon="4.84432">
        <ele>277</ele>
        <time>2018-10-16T09:50:06Z</time>
      </trkpt>
      <trkpt lat="45.97774" lon="4.8443">
        <ele>277</ele>
        <time>2018-10-16T09:50:07Z</time>
      </trkpt>
      <trkpt lat="45.97781" lon="4.84428">
        <ele>277</ele>
        <time>2018-10-16T09:50:08Z</time>
      </trkpt>
      <trkpt lat="45.97787" lon="4.84425">
        <ele>277</ele>
        <time>2018-10-16T09:50:09Z</time>
      </trkpt>
      <trkpt lat="45.97792" lon="4.84421">
        <ele>277</ele>
        <time>2018-10-16T09:50:10Z</time>
      </trkpt>
      <trkpt lat="45.97797" lon="4.84418">
        <ele>277</ele>
        <time>2018-10-16T09:50:11Z</time>
      </trkpt>
      <trkpt lat="45.97804" lon="4.84415">
        <ele>277</ele>
        <time>2018-10-16T09:50:12Z</time>
      </trkpt>
      <trkpt lat="45.97811" lon="4.8441">
        <ele>277</ele>
        <time>2018-10-16T09:50:13Z</time>
      </trkpt>
      <trkpt lat="45.97816" lon="4.84407">
        <ele>276</ele>
        <time>2018-10-16T09:50:14Z</time>
      </trkpt>
      <trkpt lat="45.97822" lon="4.84403">
        <ele>276</ele>
        <time>2018-10-16T09:50:15Z</time>
      </trkpt>
      <trkpt lat="45.97826" lon="4.84399">
        <ele>276</ele>
        <time>2018-10-16T09:50:16Z</time>
      </trkpt>
      <trkpt lat="45.97831" lon="4.84394">
        <ele>276</ele>
        <time>2018-10-16T09:50:17Z</time>
      </trkpt>
      <trkpt lat="45.97836" lon="4.8439">
        <ele>276</ele>
        <time>2018-10-16T09:50:18Z</time>
      </trkpt>
      <trkpt lat="45.9784" lon="4.84387">
        <ele>276</ele>
        <time>2018-10-16T09:50:19Z</time>
      </trkpt>
      <trkpt lat="45.97844" lon="4.84382">
        <ele>276</ele>
        <time>2018-10-16T09:50:20Z</time>
      </trkpt>
      <trkpt lat="45.97848" lon="4.84378">
        <ele>276</ele>
        <time>2018-10-16T09:50:21Z</time>
      </trkpt>
      <trkpt lat="45.97852" lon="4.84373">
        <ele>276</ele>
        <time>2018-10-16T09:50:22Z</time>
      </trkpt>
      <trkpt lat="45.97857" lon="4.84368">
        <ele>276</ele>
        <time>2018-10-16T09:50:23Z</time>
      </trkpt>
      <trkpt lat="45.97861" lon="4.84363">
        <ele>276</ele>
        <time>2018-10-16T09:50:24Z</time>
      </trkpt>
      <trkpt lat="45.97865" lon="4.84357">
        <ele>276</ele>
        <time>2018-10-16T09:50:25Z</time>
      </trkpt>
      <trkpt lat="45.97869" lon="4.84349">
        <ele>276</ele>
        <time>2018-10-16T09:50:26Z</time>
      </trkpt>
      <trkpt lat="45.97873" lon="4.84342">
        <ele>276</ele>
        <time>2018-10-16T09:50:27Z</time>
      </trkpt>
      <trkpt lat="45.97878" lon="4.84334">
        <ele>275</ele>
        <time>2018-10-16T09:50:28Z</time>
      </trkpt>
      <trkpt lat="45.97882" lon="4.84328">
        <ele>275</ele>
        <time>2018-10-16T09:50:29Z</time>
      </trkpt>
      <trkpt lat="45.97886" lon="4.84321">
        <ele>275</ele>
        <time>2018-10-16T09:50:30Z</time>
      </trkpt>
      <trkpt lat="45.9789" lon="4.84315">
        <ele>275</ele>
        <time>2018-10-16T09:50:31Z</time>
      </trkpt>
      <trkpt lat="45.97894" lon="4.84308">
        <ele>275</ele>
        <time>2018-10-16T09:50:32Z</time>
      </trkpt>
      <trkpt lat="45.97898" lon="4.843">
        <ele>275</ele>
        <time>2018-10-16T09:50:33Z</time>
      </trkpt>
      <trkpt lat="45.97903" lon="4.84294">
        <ele>275</ele>
        <time>2018-10-16T09:50:34Z</time>
      </trkpt>
      <trkpt lat="45.97906" lon="4.84287">
        <ele>275</ele>
        <time>2018-10-16T09:50:35Z</time>
      </trkpt>
      <trkpt lat="45.9791" lon="4.84284">
        <ele>275</ele>
        <time>2018-10-16T09:50:36Z</time>
      </trkpt>
      <trkpt lat="45.97914" lon="4.84278">
        <ele>275</ele>
        <time>2018-10-16T09:50:37Z</time>
      </trkpt>
      <trkpt lat="45.97918" lon="4.84273">
        <ele>275</ele>
        <time>2018-10-16T09:50:38Z</time>
      </trkpt>
      <trkpt lat="45.97922" lon="4.84268">
        <ele>275</ele>
        <time>2018-10-16T09:50:39Z</time>
      </trkpt>
      <trkpt lat="45.97926" lon="4.84263">
        <ele>275</ele>
        <time>2018-10-16T09:50:40Z</time>
      </trkpt>
      <trkpt lat="45.9793" lon="4.8426">
        <ele>275</ele>
        <time>2018-10-16T09:50:41Z</time>
      </trkpt>
      <trkpt lat="45.97935" lon="4.84254">
        <ele>275</ele>
        <time>2018-10-16T09:50:42Z</time>
      </trkpt>
      <trkpt lat="45.9794" lon="4.84249">
        <ele>275</ele>
        <time>2018-10-16T09:50:43Z</time>
      </trkpt>
      <trkpt lat="45.97945" lon="4.84245">
        <ele>275</ele>
        <time>2018-10-16T09:50:44Z</time>
      </trkpt>
      <trkpt lat="45.9795" lon="4.84241">
        <ele>275</ele>
        <time>2018-10-16T09:50:45Z</time>
      </trkpt>
      <trkpt lat="45.97956" lon="4.84234">
        <ele>275</ele>
        <time>2018-10-16T09:50:46Z</time>
      </trkpt>
      <trkpt lat="45.9796" lon="4.84229">
        <ele>274</ele>
        <time>2018-10-16T09:50:47Z</time>
      </trkpt>
      <trkpt lat="45.97965" lon="4.84224">
        <ele>274</ele>
        <time>2018-10-16T09:50:48Z</time>
      </trkpt>
      <trkpt lat="45.9797" lon="4.84219">
        <ele>274</ele>
        <time>2018-10-16T09:50:49Z</time>
      </trkpt>
      <trkpt lat="45.97975" lon="4.84216">
        <ele>274</ele>
        <time>2018-10-16T09:50:50Z</time>
      </trkpt>
      <trkpt lat="45.9798" lon="4.84211">
        <ele>274</ele>
        <time>2018-10-16T09:50:51Z</time>
      </trkpt>
      <trkpt lat="45.97985" lon="4.84206">
        <ele>274</ele>
        <time>2018-10-16T09:50:52Z</time>
      </trkpt>
      <trkpt lat="45.97991" lon="4.84202">
        <ele>274</ele>
        <time>2018-10-16T09:50:53Z</time>
      </trkpt>
      <trkpt lat="45.97996" lon="4.84197">
        <ele>274</ele>
        <time>2018-10-16T09:50:54Z</time>
      </trkpt>
      <trkpt lat="45.97999" lon="4.84191">
        <ele>274</ele>
        <time>2018-10-16T09:50:55Z</time>
      </trkpt>
      <trkpt lat="45.98004" lon="4.84185">
        <ele>274</ele>
        <time>2018-10-16T09:50:56Z</time>
      </trkpt>
      <trkpt lat="45.98009" lon="4.84181">
        <ele>274</ele>
        <time>2018-10-16T09:50:57Z</time>
      </trkpt>
      <trkpt lat="45.98015" lon="4.84176">
        <ele>274</ele>
        <time>2018-10-16T09:50:58Z</time>
      </trkpt>
      <trkpt lat="45.98019" lon="4.84172">
        <ele>274</ele>
        <time>2018-10-16T09:50:59Z</time>
      </trkpt>
      <trkpt lat="45.98025" lon="4.84167">
        <ele>273</ele>
        <time>2018-10-16T09:51:00Z</time>
      </trkpt>
      <trkpt lat="45.9803" lon="4.84162">
        <ele>273</ele>
        <time>2018-10-16T09:51:01Z</time>
      </trkpt>
      <trkpt lat="45.98036" lon="4.84157">
        <ele>273</ele>
        <time>2018-10-16T09:51:02Z</time>
      </trkpt>
      <trkpt lat="45.98041" lon="4.84152">
        <ele>273</ele>
        <time>2018-10-16T09:51:03Z</time>
      </trkpt>
      <trkpt lat="45.98047" lon="4.84147">
        <ele>273</ele>
        <time>2018-10-16T09:51:04Z</time>
      </trkpt>
      <trkpt lat="45.98053" lon="4.84143">
        <ele>273</ele>
        <time>2018-10-16T09:51:05Z</time>
      </trkpt>
      <trkpt lat="45.98059" lon="4.84138">
        <ele>273</ele>
        <time>2018-10-16T09:51:06Z</time>
      </trkpt>
      <trkpt lat="45.98063" lon="4.84134">
        <ele>273</ele>
        <time>2018-10-16T09:51:07Z</time>
      </trkpt>
      <trkpt lat="45.98069" lon="4.8413">
        <ele>273</ele>
        <time>2018-10-16T09:51:08Z</time>
      </trkpt>
      <trkpt lat="45.98074" lon="4.84126">
        <ele>273</ele>
        <time>2018-10-16T09:51:09Z</time>
      </trkpt>
      <trkpt lat="45.98079" lon="4.84121">
        <ele>273</ele>
        <time>2018-10-16T09:51:10Z</time>
      </trkpt>
      <trkpt lat="45.98083" lon="4.84117">
        <ele>273</ele>
        <time>2018-10-16T09:51:11Z</time>
      </trkpt>
      <trkpt lat="45.98087" lon="4.84114">
        <ele>273</ele>
        <time>2018-10-16T09:51:12Z</time>
      </trkpt>
      <trkpt lat="45.98091" lon="4.8411">
        <ele>273</ele>
        <time>2018-10-16T09:51:13Z</time>
      </trkpt>
      <trkpt lat="45.98098" lon="4.84103">
        <ele>273</ele>
        <time>2018-10-16T09:51:15Z</time>
      </trkpt>
      <trkpt lat="45.98103" lon="4.84099">
        <ele>273</ele>
        <time>2018-10-16T09:51:16Z</time>
      </trkpt>
      <trkpt lat="45.98106" lon="4.84095">
        <ele>273</ele>
        <time>2018-10-16T09:51:17Z</time>
      </trkpt>
      <trkpt lat="45.9811" lon="4.84091">
        <ele>273</ele>
        <time>2018-10-16T09:51:18Z</time>
      </trkpt>
      <trkpt lat="45.98114" lon="4.84087">
        <ele>273</ele>
        <time>2018-10-16T09:51:19Z</time>
      </trkpt>
      <trkpt lat="45.9812" lon="4.8408">
        <ele>273</ele>
        <time>2018-10-16T09:51:20Z</time>
      </trkpt>
      <trkpt lat="45.98123" lon="4.84074">
        <ele>273</ele>
        <time>2018-10-16T09:51:21Z</time>
      </trkpt>
      <trkpt lat="45.98128" lon="4.84069">
        <ele>273</ele>
        <time>2018-10-16T09:51:22Z</time>
      </trkpt>
      <trkpt lat="45.98132" lon="4.84064">
        <ele>273</ele>
        <time>2018-10-16T09:51:23Z</time>
      </trkpt>
      <trkpt lat="45.98137" lon="4.84058">
        <ele>273</ele>
        <time>2018-10-16T09:51:24Z</time>
      </trkpt>
      <trkpt lat="45.98142" lon="4.84052">
        <ele>273</ele>
        <time>2018-10-16T09:51:25Z</time>
      </trkpt>
      <trkpt lat="45.98148" lon="4.84046">
        <ele>273</ele>
        <time>2018-10-16T09:51:26Z</time>
      </trkpt>
      <trkpt lat="45.98153" lon="4.84038">
        <ele>273</ele>
        <time>2018-10-16T09:51:27Z</time>
      </trkpt>
      <trkpt lat="45.98158" lon="4.84029">
        <ele>273</ele>
        <time>2018-10-16T09:51:28Z</time>
      </trkpt>
      <trkpt lat="45.98163" lon="4.84024">
        <ele>273</ele>
        <time>2018-10-16T09:51:29Z</time>
      </trkpt>
      <trkpt lat="45.98168" lon="4.84016">
        <ele>273</ele>
        <time>2018-10-16T09:51:30Z</time>
      </trkpt>
      <trkpt lat="45.98169" lon="4.84006">
        <ele>273</ele>
        <time>2018-10-16T09:51:31Z</time>
      </trkpt>
      <trkpt lat="45.98173" lon="4.84">
        <ele>273</ele>
        <time>2018-10-16T09:51:32Z</time>
      </trkpt>
      <trkpt lat="45.98175" lon="4.83991">
        <ele>273</ele>
        <time>2018-10-16T09:51:33Z</time>
      </trkpt>
      <trkpt lat="45.98178" lon="4.83984">
        <ele>273</ele>
        <time>2018-10-16T09:51:34Z</time>
      </trkpt>
      <trkpt lat="45.98181" lon="4.83977">
        <ele>273</ele>
        <time>2018-10-16T09:51:35Z</time>
      </trkpt>
      <trkpt lat="45.98184" lon="4.83969">
        <ele>273</ele>
        <time>2018-10-16T09:51:36Z</time>
      </trkpt>
      <trkpt lat="45.98187" lon="4.83961">
        <ele>273</ele>
        <time>2018-10-16T09:51:37Z</time>
      </trkpt>
      <trkpt lat="45.9819" lon="4.83954">
        <ele>273</ele>
        <time>2018-10-16T09:51:38Z</time>
      </trkpt>
      <trkpt lat="45.98195" lon="4.83946">
        <ele>273</ele>
        <time>2018-10-16T09:51:39Z</time>
      </trkpt>
      <trkpt lat="45.98198" lon="4.83937">
        <ele>273</ele>
        <time>2018-10-16T09:51:40Z</time>
      </trkpt>
      <trkpt lat="45.98202" lon="4.83928">
        <ele>273</ele>
        <time>2018-10-16T09:51:41Z</time>
      </trkpt>
      <trkpt lat="45.98206" lon="4.83921">
        <ele>273</ele>
        <time>2018-10-16T09:51:42Z</time>
      </trkpt>
      <trkpt lat="45.98209" lon="4.83913">
        <ele>273</ele>
        <time>2018-10-16T09:51:43Z</time>
      </trkpt>
      <trkpt lat="45.98211" lon="4.83905">
        <ele>273</ele>
        <time>2018-10-16T09:51:44Z</time>
      </trkpt>
      <trkpt lat="45.98215" lon="4.83896">
        <ele>273</ele>
        <time>2018-10-16T09:51:45Z</time>
      </trkpt>
      <trkpt lat="45.98217" lon="4.83886">
        <ele>272</ele>
        <time>2018-10-16T09:51:46Z</time>
      </trkpt>
      <trkpt lat="45.9822" lon="4.83878">
        <ele>272</ele>
        <time>2018-10-16T09:51:47Z</time>
      </trkpt>
      <trkpt lat="45.98223" lon="4.83869">
        <ele>272</ele>
        <time>2018-10-16T09:51:48Z</time>
      </trkpt>
      <trkpt lat="45.98225" lon="4.8386">
        <ele>272</ele>
        <time>2018-10-16T09:51:49Z</time>
      </trkpt>
      <trkpt lat="45.98228" lon="4.83851">
        <ele>272</ele>
        <time>2018-10-16T09:51:50Z</time>
      </trkpt>
      <trkpt lat="45.98232" lon="4.83842">
        <ele>272</ele>
        <time>2018-10-16T09:51:51Z</time>
      </trkpt>
      <trkpt lat="45.98236" lon="4.83832">
        <ele>272</ele>
        <time>2018-10-16T09:51:52Z</time>
      </trkpt>
      <trkpt lat="45.9824" lon="4.83824">
        <ele>272</ele>
        <time>2018-10-16T09:51:53Z</time>
      </trkpt>
      <trkpt lat="45.98243" lon="4.83815">
        <ele>272</ele>
        <time>2018-10-16T09:51:54Z</time>
      </trkpt>
      <trkpt lat="45.98246" lon="4.83805">
        <ele>272</ele>
        <time>2018-10-16T09:51:55Z</time>
      </trkpt>
      <trkpt lat="45.98249" lon="4.83796">
        <ele>272</ele>
        <time>2018-10-16T09:51:56Z</time>
      </trkpt>
      <trkpt lat="45.98254" lon="4.83786">
        <ele>272</ele>
        <time>2018-10-16T09:51:57Z</time>
      </trkpt>
      <trkpt lat="45.98258" lon="4.83776">
        <ele>272</ele>
        <time>2018-10-16T09:51:58Z</time>
      </trkpt>
      <trkpt lat="45.98261" lon="4.83766">
        <ele>272</ele>
        <time>2018-10-16T09:51:59Z</time>
      </trkpt>
      <trkpt lat="45.98263" lon="4.83756">
        <ele>272</ele>
        <time>2018-10-16T09:52:00Z</time>
      </trkpt>
      <trkpt lat="45.98266" lon="4.83747">
        <ele>272</ele>
        <time>2018-10-16T09:52:01Z</time>
      </trkpt>
      <trkpt lat="45.9827" lon="4.83739">
        <ele>272</ele>
        <time>2018-10-16T09:52:02Z</time>
      </trkpt>
      <trkpt lat="45.98273" lon="4.83729">
        <ele>272</ele>
        <time>2018-10-16T09:52:03Z</time>
      </trkpt>
      <trkpt lat="45.98276" lon="4.8372">
        <ele>272</ele>
        <time>2018-10-16T09:52:04Z</time>
      </trkpt>
      <trkpt lat="45.98277" lon="4.83711">
        <ele>272</ele>
        <time>2018-10-16T09:52:05Z</time>
      </trkpt>
      <trkpt lat="45.98281" lon="4.83703">
        <ele>272</ele>
        <time>2018-10-16T09:52:06Z</time>
      </trkpt>
      <trkpt lat="45.98284" lon="4.83695">
        <ele>272</ele>
        <time>2018-10-16T09:52:07Z</time>
      </trkpt>
      <trkpt lat="45.98286" lon="4.83685">
        <ele>272</ele>
        <time>2018-10-16T09:52:08Z</time>
      </trkpt>
      <trkpt lat="45.9829" lon="4.8368">
        <ele>272</ele>
        <time>2018-10-16T09:52:09Z</time>
      </trkpt>
      <trkpt lat="45.98293" lon="4.83672">
        <ele>272</ele>
        <time>2018-10-16T09:52:10Z</time>
      </trkpt>
      <trkpt lat="45.98296" lon="4.83665">
        <ele>271</ele>
        <time>2018-10-16T09:52:11Z</time>
      </trkpt>
      <trkpt lat="45.98299" lon="4.83657">
        <ele>271</ele>
        <time>2018-10-16T09:52:12Z</time>
      </trkpt>
      <trkpt lat="45.98302" lon="4.8365">
        <ele>271</ele>
        <time>2018-10-16T09:52:13Z</time>
      </trkpt>
      <trkpt lat="45.98306" lon="4.83643">
        <ele>271</ele>
        <time>2018-10-16T09:52:14Z</time>
      </trkpt>
      <trkpt lat="45.9831" lon="4.83636">
        <ele>271</ele>
        <time>2018-10-16T09:52:15Z</time>
      </trkpt>
      <trkpt lat="45.98313" lon="4.83629">
        <ele>271</ele>
        <time>2018-10-16T09:52:16Z</time>
      </trkpt>
      <trkpt lat="45.98317" lon="4.83622">
        <ele>271</ele>
        <time>2018-10-16T09:52:17Z</time>
      </trkpt>
      <trkpt lat="45.98322" lon="4.83616">
        <ele>271</ele>
        <time>2018-10-16T09:52:18Z</time>
      </trkpt>
      <trkpt lat="45.98326" lon="4.83608">
        <ele>271</ele>
        <time>2018-10-16T09:52:19Z</time>
      </trkpt>
      <trkpt lat="45.98331" lon="4.83601">
        <ele>271</ele>
        <time>2018-10-16T09:52:20Z</time>
      </trkpt>
      <trkpt lat="45.98334" lon="4.83593">
        <ele>270</ele>
        <time>2018-10-16T09:52:21Z</time>
      </trkpt>
      <trkpt lat="45.98339" lon="4.83587">
        <ele>270</ele>
        <time>2018-10-16T09:52:22Z</time>
      </trkpt>
      <trkpt lat="45.98344" lon="4.83579">
        <ele>270</ele>
        <time>2018-10-16T09:52:23Z</time>
      </trkpt>
      <trkpt lat="45.9835" lon="4.8357">
        <ele>269</ele>
        <time>2018-10-16T09:52:24Z</time>
      </trkpt>
      <trkpt lat="45.98355" lon="4.83564">
        <ele>269</ele>
        <time>2018-10-16T09:52:25Z</time>
      </trkpt>
      <trkpt lat="45.9836" lon="4.83558">
        <ele>269</ele>
        <time>2018-10-16T09:52:26Z</time>
      </trkpt>
      <trkpt lat="45.98364" lon="4.83552">
        <ele>269</ele>
        <time>2018-10-16T09:52:27Z</time>
      </trkpt>
      <trkpt lat="45.98369" lon="4.83546">
        <ele>269</ele>
        <time>2018-10-16T09:52:28Z</time>
      </trkpt>
      <trkpt lat="45.98374" lon="4.8354">
        <ele>269</ele>
        <time>2018-10-16T09:52:29Z</time>
      </trkpt>
      <trkpt lat="45.98379" lon="4.83534">
        <ele>269</ele>
        <time>2018-10-16T09:52:30Z</time>
      </trkpt>
      <trkpt lat="45.98384" lon="4.83528">
        <ele>269</ele>
        <time>2018-10-16T09:52:31Z</time>
      </trkpt>
      <trkpt lat="45.98389" lon="4.83519">
        <ele>269</ele>
        <time>2018-10-16T09:52:32Z</time>
      </trkpt>
      <trkpt lat="45.98394" lon="4.83513">
        <ele>269</ele>
        <time>2018-10-16T09:52:33Z</time>
      </trkpt>
      <trkpt lat="45.98399" lon="4.83506">
        <ele>269</ele>
        <time>2018-10-16T09:52:34Z</time>
      </trkpt>
      <trkpt lat="45.98405" lon="4.83497">
        <ele>269</ele>
        <time>2018-10-16T09:52:35Z</time>
      </trkpt>
      <trkpt lat="45.9841" lon="4.8349">
        <ele>268</ele>
        <time>2018-10-16T09:52:36Z</time>
      </trkpt>
      <trkpt lat="45.98416" lon="4.83482">
        <ele>269</ele>
        <time>2018-10-16T09:52:37Z</time>
      </trkpt>
      <trkpt lat="45.9842" lon="4.83473">
        <ele>268</ele>
        <time>2018-10-16T09:52:38Z</time>
      </trkpt>
      <trkpt lat="45.98424" lon="4.83466">
        <ele>268</ele>
        <time>2018-10-16T09:52:39Z</time>
      </trkpt>
      <trkpt lat="45.9843" lon="4.83459">
        <ele>268</ele>
        <time>2018-10-16T09:52:40Z</time>
      </trkpt>
      <trkpt lat="45.98435" lon="4.83449">
        <ele>268</ele>
        <time>2018-10-16T09:52:41Z</time>
      </trkpt>
      <trkpt lat="45.9844" lon="4.83442">
        <ele>268</ele>
        <time>2018-10-16T09:52:42Z</time>
      </trkpt>
      <trkpt lat="45.98446" lon="4.83434">
        <ele>268</ele>
        <time>2018-10-16T09:52:43Z</time>
      </trkpt>
      <trkpt lat="45.98452" lon="4.83427">
        <ele>269</ele>
        <time>2018-10-16T09:52:44Z</time>
      </trkpt>
      <trkpt lat="45.98455" lon="4.83419">
        <ele>269</ele>
        <time>2018-10-16T09:52:45Z</time>
      </trkpt>
      <trkpt lat="45.98461" lon="4.83413">
        <ele>269</ele>
        <time>2018-10-16T09:52:46Z</time>
      </trkpt>
      <trkpt lat="45.98466" lon="4.83404">
        <ele>269</ele>
        <time>2018-10-16T09:52:47Z</time>
      </trkpt>
      <trkpt lat="45.98472" lon="4.83397">
        <ele>269</ele>
        <time>2018-10-16T09:52:48Z</time>
      </trkpt>
      <trkpt lat="45.98477" lon="4.83389">
        <ele>269</ele>
        <time>2018-10-16T09:52:49Z</time>
      </trkpt>
      <trkpt lat="45.98482" lon="4.83384">
        <ele>269</ele>
        <time>2018-10-16T09:52:50Z</time>
      </trkpt>
      <trkpt lat="45.98488" lon="4.83376">
        <ele>269</ele>
        <time>2018-10-16T09:52:51Z</time>
      </trkpt>
      <trkpt lat="45.98493" lon="4.8337">
        <ele>270</ele>
        <time>2018-10-16T09:52:52Z</time>
      </trkpt>
      <trkpt lat="45.98498" lon="4.83363">
        <ele>270</ele>
        <time>2018-10-16T09:52:53Z</time>
      </trkpt>
      <trkpt lat="45.98503" lon="4.83356">
        <ele>270</ele>
        <time>2018-10-16T09:52:54Z</time>
      </trkpt>
      <trkpt lat="45.98507" lon="4.8335">
        <ele>270</ele>
        <time>2018-10-16T09:52:55Z</time>
      </trkpt>
      <trkpt lat="45.98512" lon="4.83343">
        <ele>270</ele>
        <time>2018-10-16T09:52:56Z</time>
      </trkpt>
      <trkpt lat="45.98516" lon="4.83337">
        <ele>270</ele>
        <time>2018-10-16T09:52:57Z</time>
      </trkpt>
      <trkpt lat="45.98521" lon="4.83331">
        <ele>270</ele>
        <time>2018-10-16T09:52:58Z</time>
      </trkpt>
      <trkpt lat="45.98526" lon="4.83326">
        <ele>270</ele>
        <time>2018-10-16T09:52:59Z</time>
      </trkpt>
      <trkpt lat="45.9853" lon="4.83319">
        <ele>269</ele>
        <time>2018-10-16T09:53:00Z</time>
      </trkpt>
      <trkpt lat="45.98534" lon="4.83313">
        <ele>269</ele>
        <time>2018-10-16T09:53:01Z</time>
      </trkpt>
      <trkpt lat="45.98538" lon="4.83305">
        <ele>269</ele>
        <time>2018-10-16T09:53:02Z</time>
      </trkpt>
      <trkpt lat="45.98543" lon="4.833">
        <ele>269</ele>
        <time>2018-10-16T09:53:03Z</time>
      </trkpt>
      <trkpt lat="45.98548" lon="4.83294">
        <ele>269</ele>
        <time>2018-10-16T09:53:04Z</time>
      </trkpt>
      <trkpt lat="45.98552" lon="4.83289">
        <ele>269</ele>
        <time>2018-10-16T09:53:05Z</time>
      </trkpt>
      <trkpt lat="45.98556" lon="4.83284">
        <ele>269</ele>
        <time>2018-10-16T09:53:06Z</time>
      </trkpt>
      <trkpt lat="45.98561" lon="4.83279">
        <ele>269</ele>
        <time>2018-10-16T09:53:07Z</time>
      </trkpt>
      <trkpt lat="45.98564" lon="4.83275">
        <ele>269</ele>
        <time>2018-10-16T09:53:08Z</time>
      </trkpt>
      <trkpt lat="45.98569" lon="4.83269">
        <ele>269</ele>
        <time>2018-10-16T09:53:09Z</time>
      </trkpt>
      <trkpt lat="45.98573" lon="4.83264">
        <ele>269</ele>
        <time>2018-10-16T09:53:10Z</time>
      </trkpt>
      <trkpt lat="45.98577" lon="4.83259">
        <ele>268</ele>
        <time>2018-10-16T09:53:11Z</time>
      </trkpt>
      <trkpt lat="45.98581" lon="4.83253">
        <ele>268</ele>
        <time>2018-10-16T09:53:12Z</time>
      </trkpt>
      <trkpt lat="45.98585" lon="4.83249">
        <ele>268</ele>
        <time>2018-10-16T09:53:13Z</time>
      </trkpt>
      <trkpt lat="45.98589" lon="4.83243">
        <ele>268</ele>
        <time>2018-10-16T09:53:14Z</time>
      </trkpt>
      <trkpt lat="45.98593" lon="4.83235">
        <ele>268</ele>
        <time>2018-10-16T09:53:15Z</time>
      </trkpt>
      <trkpt lat="45.98596" lon="4.83231">
        <ele>268</ele>
        <time>2018-10-16T09:53:16Z</time>
      </trkpt>
      <trkpt lat="45.986" lon="4.83226">
        <ele>268</ele>
        <time>2018-10-16T09:53:17Z</time>
      </trkpt>
      <trkpt lat="45.98605" lon="4.83221">
        <ele>267</ele>
        <time>2018-10-16T09:53:18Z</time>
      </trkpt>
      <trkpt lat="45.98609" lon="4.83217">
        <ele>267</ele>
        <time>2018-10-16T09:53:19Z</time>
      </trkpt>
      <trkpt lat="45.98613" lon="4.83212">
        <ele>267</ele>
        <time>2018-10-16T09:53:20Z</time>
      </trkpt>
      <trkpt lat="45.98618" lon="4.83205">
        <ele>267</ele>
        <time>2018-10-16T09:53:21Z</time>
      </trkpt>
      <trkpt lat="45.98623" lon="4.83201">
        <ele>267</ele>
        <time>2018-10-16T09:53:22Z</time>
      </trkpt>
      <trkpt lat="45.98627" lon="4.83195">
        <ele>267</ele>
        <time>2018-10-16T09:53:23Z</time>
      </trkpt>
      <trkpt lat="45.98632" lon="4.8319">
        <ele>267</ele>
        <time>2018-10-16T09:53:24Z</time>
      </trkpt>
      <trkpt lat="45.98638" lon="4.83184">
        <ele>267</ele>
        <time>2018-10-16T09:53:25Z</time>
      </trkpt>
      <trkpt lat="45.98643" lon="4.83178">
        <ele>267</ele>
        <time>2018-10-16T09:53:26Z</time>
      </trkpt>
      <trkpt lat="45.98648" lon="4.83171">
        <ele>267</ele>
        <time>2018-10-16T09:53:27Z</time>
      </trkpt>
      <trkpt lat="45.98654" lon="4.83166">
        <ele>267</ele>
        <time>2018-10-16T09:53:28Z</time>
      </trkpt>
      <trkpt lat="45.9866" lon="4.83162">
        <ele>266</ele>
        <time>2018-10-16T09:53:29Z</time>
      </trkpt>
      <trkpt lat="45.98665" lon="4.83159">
        <ele>266</ele>
        <time>2018-10-16T09:53:30Z</time>
      </trkpt>
      <trkpt lat="45.98671" lon="4.83156">
        <ele>266</ele>
        <time>2018-10-16T09:53:31Z</time>
      </trkpt>
      <trkpt lat="45.98676" lon="4.83152">
        <ele>266</ele>
        <time>2018-10-16T09:53:32Z</time>
      </trkpt>
      <trkpt lat="45.98681" lon="4.83147">
        <ele>266</ele>
        <time>2018-10-16T09:53:33Z</time>
      </trkpt>
      <trkpt lat="45.98687" lon="4.83143">
        <ele>266</ele>
        <time>2018-10-16T09:53:34Z</time>
      </trkpt>
      <trkpt lat="45.98692" lon="4.83139">
        <ele>266</ele>
        <time>2018-10-16T09:53:35Z</time>
      </trkpt>
      <trkpt lat="45.98698" lon="4.83135">
        <ele>266</ele>
        <time>2018-10-16T09:53:36Z</time>
      </trkpt>
      <trkpt lat="45.98704" lon="4.8313">
        <ele>266</ele>
        <time>2018-10-16T09:53:37Z</time>
      </trkpt>
      <trkpt lat="45.9871" lon="4.83124">
        <ele>267</ele>
        <time>2018-10-16T09:53:38Z</time>
      </trkpt>
      <trkpt lat="45.98715" lon="4.83118">
        <ele>267</ele>
        <time>2018-10-16T09:53:39Z</time>
      </trkpt>
      <trkpt lat="45.9872" lon="4.83114">
        <ele>267</ele>
        <time>2018-10-16T09:53:40Z</time>
      </trkpt>
      <trkpt lat="45.98725" lon="4.83109">
        <ele>267</ele>
        <time>2018-10-16T09:53:41Z</time>
      </trkpt>
      <trkpt lat="45.9873" lon="4.83106">
        <ele>267</ele>
        <time>2018-10-16T09:53:42Z</time>
      </trkpt>
      <trkpt lat="45.98734" lon="4.83103">
        <ele>267</ele>
        <time>2018-10-16T09:53:43Z</time>
      </trkpt>
      <trkpt lat="45.98739" lon="4.83098">
        <ele>267</ele>
        <time>2018-10-16T09:53:44Z</time>
      </trkpt>
      <trkpt lat="45.98744" lon="4.83095">
        <ele>267</ele>
        <time>2018-10-16T09:53:45Z</time>
      </trkpt>
      <trkpt lat="45.98749" lon="4.83091">
        <ele>267</ele>
        <time>2018-10-16T09:53:46Z</time>
      </trkpt>
      <trkpt lat="45.98755" lon="4.83086">
        <ele>266</ele>
        <time>2018-10-16T09:53:47Z</time>
      </trkpt>
      <trkpt lat="45.98761" lon="4.83082">
        <ele>266</ele>
        <time>2018-10-16T09:53:48Z</time>
      </trkpt>
      <trkpt lat="45.98765" lon="4.83077">
        <ele>266</ele>
        <time>2018-10-16T09:53:49Z</time>
      </trkpt>
      <trkpt lat="45.98771" lon="4.83072">
        <ele>266</ele>
        <time>2018-10-16T09:53:50Z</time>
      </trkpt>
      <trkpt lat="45.98775" lon="4.83073">
        <ele>265</ele>
        <time>2018-10-16T09:53:51Z</time>
      </trkpt>
      <trkpt lat="45.98781" lon="4.83068">
        <ele>265</ele>
        <time>2018-10-16T09:53:52Z</time>
      </trkpt>
      <trkpt lat="45.98787" lon="4.83062">
        <ele>265</ele>
        <time>2018-10-16T09:53:53Z</time>
      </trkpt>
      <trkpt lat="45.98793" lon="4.83055">
        <ele>265</ele>
        <time>2018-10-16T09:53:54Z</time>
      </trkpt>
      <trkpt lat="45.988" lon="4.83049">
        <ele>264</ele>
        <time>2018-10-16T09:53:55Z</time>
      </trkpt>
      <trkpt lat="45.98805" lon="4.83046">
        <ele>264</ele>
        <time>2018-10-16T09:53:56Z</time>
      </trkpt>
      <trkpt lat="45.98811" lon="4.8304">
        <ele>264</ele>
        <time>2018-10-16T09:53:57Z</time>
      </trkpt>
      <trkpt lat="45.9882" lon="4.83031">
        <ele>264</ele>
        <time>2018-10-16T09:53:58Z</time>
      </trkpt>
      <trkpt lat="45.98827" lon="4.83028">
        <ele>264</ele>
        <time>2018-10-16T09:53:59Z</time>
      </trkpt>
      <trkpt lat="45.98835" lon="4.83021">
        <ele>261</ele>
        <time>2018-10-16T09:54:00Z</time>
      </trkpt>
      <trkpt lat="45.98841" lon="4.83016">
        <ele>261</ele>
        <time>2018-10-16T09:54:01Z</time>
      </trkpt>
      <trkpt lat="45.98848" lon="4.83012">
        <ele>261</ele>
        <time>2018-10-16T09:54:02Z</time>
      </trkpt>
      <trkpt lat="45.98855" lon="4.83007">
        <ele>261</ele>
        <time>2018-10-16T09:54:03Z</time>
      </trkpt>
      <trkpt lat="45.98863" lon="4.83003">
        <ele>260</ele>
        <time>2018-10-16T09:54:04Z</time>
      </trkpt>
      <trkpt lat="45.98869" lon="4.82997">
        <ele>260</ele>
        <time>2018-10-16T09:54:05Z</time>
      </trkpt>
      <trkpt lat="45.98877" lon="4.8299">
        <ele>260</ele>
        <time>2018-10-16T09:54:06Z</time>
      </trkpt>
      <trkpt lat="45.98885" lon="4.82984">
        <ele>259</ele>
        <time>2018-10-16T09:54:07Z</time>
      </trkpt>
      <trkpt lat="45.98894" lon="4.82979">
        <ele>259</ele>
        <time>2018-10-16T09:54:08Z</time>
      </trkpt>
      <trkpt lat="45.98902" lon="4.82972">
        <ele>259</ele>
        <time>2018-10-16T09:54:09Z</time>
      </trkpt>
      <trkpt lat="45.98909" lon="4.82964">
        <ele>259</ele>
        <time>2018-10-16T09:54:10Z</time>
      </trkpt>
      <trkpt lat="45.98917" lon="4.82957">
        <ele>258</ele>
        <time>2018-10-16T09:54:11Z</time>
      </trkpt>
      <trkpt lat="45.98924" lon="4.82945">
        <ele>255</ele>
        <time>2018-10-16T09:54:12Z</time>
      </trkpt>
      <trkpt lat="45.9893" lon="4.82931">
        <ele>255</ele>
        <time>2018-10-16T09:54:13Z</time>
      </trkpt>
      <trkpt lat="45.98936" lon="4.82918">
        <ele>255</ele>
        <time>2018-10-16T09:54:14Z</time>
      </trkpt>
      <trkpt lat="45.98942" lon="4.82905">
        <ele>253</ele>
        <time>2018-10-16T09:54:15Z</time>
      </trkpt>
      <trkpt lat="45.98948" lon="4.8289">
        <ele>253</ele>
        <time>2018-10-16T09:54:16Z</time>
      </trkpt>
      <trkpt lat="45.98955" lon="4.82876">
        <ele>253</ele>
        <time>2018-10-16T09:54:17Z</time>
      </trkpt>
      <trkpt lat="45.98962" lon="4.82861">
        <ele>252</ele>
        <time>2018-10-16T09:54:18Z</time>
      </trkpt>
      <trkpt lat="45.98967" lon="4.82845">
        <ele>252</ele>
        <time>2018-10-16T09:54:19Z</time>
      </trkpt>
      <trkpt lat="45.98974" lon="4.82828">
        <ele>249</ele>
        <time>2018-10-16T09:54:20Z</time>
      </trkpt>
      <trkpt lat="45.98982" lon="4.82812">
        <ele>248</ele>
        <time>2018-10-16T09:54:21Z</time>
      </trkpt>
      <trkpt lat="45.98988" lon="4.82796">
        <ele>247</ele>
        <time>2018-10-16T09:54:22Z</time>
      </trkpt>
      <trkpt lat="45.98995" lon="4.8278">
        <ele>246</ele>
        <time>2018-10-16T09:54:23Z</time>
      </trkpt>
      <trkpt lat="45.99002" lon="4.82764">
        <ele>241</ele>
        <time>2018-10-16T09:54:24Z</time>
      </trkpt>
      <trkpt lat="45.99009" lon="4.82749">
        <ele>240</ele>
        <time>2018-10-16T09:54:25Z</time>
      </trkpt>
      <trkpt lat="45.99017" lon="4.82733">
        <ele>239</ele>
        <time>2018-10-16T09:54:26Z</time>
      </trkpt>
      <trkpt lat="45.99024" lon="4.82717">
        <ele>239</ele>
        <time>2018-10-16T09:54:27Z</time>
      </trkpt>
      <trkpt lat="45.99031" lon="4.827">
        <ele>238</ele>
        <time>2018-10-16T09:54:28Z</time>
      </trkpt>
      <trkpt lat="45.99038" lon="4.82683">
        <ele>238</ele>
        <time>2018-10-16T09:54:29Z</time>
      </trkpt>
      <trkpt lat="45.99044" lon="4.82667">
        <ele>238</ele>
        <time>2018-10-16T09:54:30Z</time>
      </trkpt>
      <trkpt lat="45.9905" lon="4.82651">
        <ele>236</ele>
        <time>2018-10-16T09:54:31Z</time>
      </trkpt>
      <trkpt lat="45.99056" lon="4.82637">
        <ele>236</ele>
        <time>2018-10-16T09:54:32Z</time>
      </trkpt>
      <trkpt lat="45.99062" lon="4.82625">
        <ele>236</ele>
        <time>2018-10-16T09:54:33Z</time>
      </trkpt>
      <trkpt lat="45.99066" lon="4.82613">
        <ele>236</ele>
        <time>2018-10-16T09:54:34Z</time>
      </trkpt>
      <trkpt lat="45.9907" lon="4.82602">
        <ele>236</ele>
        <time>2018-10-16T09:54:35Z</time>
      </trkpt>
      <trkpt lat="45.99074" lon="4.82592">
        <ele>235</ele>
        <time>2018-10-16T09:54:36Z</time>
      </trkpt>
      <trkpt lat="45.99077" lon="4.82585">
        <ele>235</ele>
        <time>2018-10-16T09:54:37Z</time>
      </trkpt>
      <trkpt lat="45.99079" lon="4.82578">
        <ele>235</ele>
        <time>2018-10-16T09:54:38Z</time>
      </trkpt>
      <trkpt lat="45.99077" lon="4.82567">
        <ele>235</ele>
        <time>2018-10-16T09:54:40Z</time>
      </trkpt>
      <trkpt lat="45.99073" lon="4.82564">
        <ele>235</ele>
        <time>2018-10-16T09:54:41Z</time>
      </trkpt>
      <trkpt lat="45.99069" lon="4.82562">
        <ele>235</ele>
        <time>2018-10-16T09:54:42Z</time>
      </trkpt>
      <trkpt lat="45.99063" lon="4.82561">
        <ele>235</ele>
        <time>2018-10-16T09:54:43Z</time>
      </trkpt>
      <trkpt lat="45.99058" lon="4.8256">
        <ele>235</ele>
        <time>2018-10-16T09:54:44Z</time>
      </trkpt>
      <trkpt lat="45.99054" lon="4.82558">
        <ele>235</ele>
        <time>2018-10-16T09:54:45Z</time>
      </trkpt>
      <trkpt lat="45.99048" lon="4.82558">
        <ele>235</ele>
        <time>2018-10-16T09:54:46Z</time>
      </trkpt>
      <trkpt lat="45.99044" lon="4.82556">
        <ele>235</ele>
        <time>2018-10-16T09:54:47Z</time>
      </trkpt>
      <trkpt lat="45.99038" lon="4.82553">
        <ele>235</ele>
        <time>2018-10-16T09:54:48Z</time>
      </trkpt>
      <trkpt lat="45.99034" lon="4.82551">
        <ele>235</ele>
        <time>2018-10-16T09:54:49Z</time>
      </trkpt>
      <trkpt lat="45.99029" lon="4.82546">
        <ele>235</ele>
        <time>2018-10-16T09:54:50Z</time>
      </trkpt>
      <trkpt lat="45.99025" lon="4.82544">
        <ele>235</ele>
        <time>2018-10-16T09:54:51Z</time>
      </trkpt>
      <trkpt lat="45.99019" lon="4.82535">
        <ele>235</ele>
        <time>2018-10-16T09:54:53Z</time>
      </trkpt>
      <trkpt lat="45.99016" lon="4.8253">
        <ele>235</ele>
        <time>2018-10-16T09:54:54Z</time>
      </trkpt>
      <trkpt lat="45.99014" lon="4.82524">
        <ele>235</ele>
        <time>2018-10-16T09:54:55Z</time>
      </trkpt>
      <trkpt lat="45.99011" lon="4.82518">
        <ele>235</ele>
        <time>2018-10-16T09:54:56Z</time>
      </trkpt>
      <trkpt lat="45.99007" lon="4.82512">
        <ele>235</ele>
        <time>2018-10-16T09:54:57Z</time>
      </trkpt>
      <trkpt lat="45.99005" lon="4.82506">
        <ele>235</ele>
        <time>2018-10-16T09:54:58Z</time>
      </trkpt>
      <trkpt lat="45.99" lon="4.82501">
        <ele>235</ele>
        <time>2018-10-16T09:54:59Z</time>
      </trkpt>
      <trkpt lat="45.98996" lon="4.82497">
        <ele>235</ele>
        <time>2018-10-16T09:55:00Z</time>
      </trkpt>
      <trkpt lat="45.98987" lon="4.82495">
        <ele>236</ele>
        <time>2018-10-16T09:55:03Z</time>
      </trkpt>
      <trkpt lat="45.98984" lon="4.82495">
        <ele>236</ele>
        <time>2018-10-16T09:55:04Z</time>
      </trkpt>
      <trkpt lat="45.9898" lon="4.82495">
        <ele>236</ele>
        <time>2018-10-16T09:55:05Z</time>
      </trkpt>
      <trkpt lat="45.98972" lon="4.82497">
        <ele>236</ele>
        <time>2018-10-16T09:55:06Z</time>
      </trkpt>
      <trkpt lat="45.98964" lon="4.82501">
        <ele>238</ele>
        <time>2018-10-16T09:55:09Z</time>
      </trkpt>
      <trkpt lat="45.98962" lon="4.82502">
        <ele>238</ele>
        <time>2018-10-16T09:55:10Z</time>
      </trkpt>
      <trkpt lat="45.98953" lon="4.82504">
        <ele>238</ele>
        <time>2018-10-16T09:55:12Z</time>
      </trkpt>
      <trkpt lat="45.9895" lon="4.82506">
        <ele>238</ele>
        <time>2018-10-16T09:55:13Z</time>
      </trkpt>
      <trkpt lat="45.98942" lon="4.82508">
        <ele>239</ele>
        <time>2018-10-16T09:55:16Z</time>
      </trkpt>
      <trkpt lat="45.9894" lon="4.82509">
        <ele>239</ele>
        <time>2018-10-16T09:55:17Z</time>
      </trkpt>
      <trkpt lat="45.98933" lon="4.82512">
        <ele>239</ele>
        <time>2018-10-16T09:55:19Z</time>
      </trkpt>
      <trkpt lat="45.98931" lon="4.82513">
        <ele>239</ele>
        <time>2018-10-16T09:55:20Z</time>
      </trkpt>
      <trkpt lat="45.98922" lon="4.82517">
        <ele>239</ele>
        <time>2018-10-16T09:55:24Z</time>
      </trkpt>
      <trkpt lat="45.9892" lon="4.82517">
        <ele>239</ele>
        <time>2018-10-16T09:55:25Z</time>
      </trkpt>
      <trkpt lat="45.98912" lon="4.8252">
        <ele>243</ele>
        <time>2018-10-16T09:55:29Z</time>
      </trkpt>
      <trkpt lat="45.9891" lon="4.82521">
        <ele>243</ele>
        <time>2018-10-16T09:55:30Z</time>
      </trkpt>
      <trkpt lat="45.98903" lon="4.82524">
        <ele>243</ele>
        <time>2018-10-16T09:55:33Z</time>
      </trkpt>
      <trkpt lat="45.98901" lon="4.82525">
        <ele>244</ele>
        <time>2018-10-16T09:55:34Z</time>
      </trkpt>
      <trkpt lat="45.98894" lon="4.82528">
        <ele>244</ele>
        <time>2018-10-16T09:55:38Z</time>
      </trkpt>
      <trkpt lat="45.98892" lon="4.82529">
        <ele>244</ele>
        <time>2018-10-16T09:55:39Z</time>
      </trkpt>
      <trkpt lat="45.98883" lon="4.82534">
        <ele>245</ele>
        <time>2018-10-16T09:55:43Z</time>
      </trkpt>
      <trkpt lat="45.98881" lon="4.82535">
        <ele>245</ele>
        <time>2018-10-16T09:55:44Z</time>
      </trkpt>
      <trkpt lat="45.98874" lon="4.82539">
        <ele>245</ele>
        <time>2018-10-16T09:55:48Z</time>
      </trkpt>
      <trkpt lat="45.98873" lon="4.8254">
        <ele>245</ele>
        <time>2018-10-16T09:55:49Z</time>
      </trkpt>
      <trkpt lat="45.98865" lon="4.82542">
        <ele>246</ele>
        <time>2018-10-16T09:55:53Z</time>
      </trkpt>
      <trkpt lat="45.98864" lon="4.82542">
        <ele>246</ele>
        <time>2018-10-16T09:55:54Z</time>
      </trkpt>
      <trkpt lat="45.98855" lon="4.82545">
        <ele>246</ele>
        <time>2018-10-16T09:55:58Z</time>
      </trkpt>
      <trkpt lat="45.98853" lon="4.82546">
        <ele>246</ele>
        <time>2018-10-16T09:55:59Z</time>
      </trkpt>
      <trkpt lat="45.98844" lon="4.82548">
        <ele>247</ele>
        <time>2018-10-16T09:56:04Z</time>
      </trkpt>
      <trkpt lat="45.98843" lon="4.82549">
        <ele>247</ele>
        <time>2018-10-16T09:56:05Z</time>
      </trkpt>
      <trkpt lat="45.98835" lon="4.82553">
        <ele>247</ele>
        <time>2018-10-16T09:56:10Z</time>
      </trkpt>
      <trkpt lat="45.98834" lon="4.82554">
        <ele>247</ele>
        <time>2018-10-16T09:56:11Z</time>
      </trkpt>
      <trkpt lat="45.98826" lon="4.82558">
        <ele>252</ele>
        <time>2018-10-16T09:56:15Z</time>
      </trkpt>
      <trkpt lat="45.98824" lon="4.82559">
        <ele>252</ele>
        <time>2018-10-16T09:56:16Z</time>
      </trkpt>
      <trkpt lat="45.98817" lon="4.82562">
        <ele>253</ele>
        <time>2018-10-16T09:56:21Z</time>
      </trkpt>
      <trkpt lat="45.98815" lon="4.82562">
        <ele>253</ele>
        <time>2018-10-16T09:56:22Z</time>
      </trkpt>
      <trkpt lat="45.98807" lon="4.82566">
        <ele>253</ele>
        <time>2018-10-16T09:56:28Z</time>
      </trkpt>
      <trkpt lat="45.98805" lon="4.82567">
        <ele>253</ele>
        <time>2018-10-16T09:56:29Z</time>
      </trkpt>
      <trkpt lat="45.98797" lon="4.8257">
        <ele>254</ele>
        <time>2018-10-16T09:56:33Z</time>
      </trkpt>
      <trkpt lat="45.98796" lon="4.8257">
        <ele>254</ele>
        <time>2018-10-16T09:56:34Z</time>
      </trkpt>
      <trkpt lat="45.98789" lon="4.82571">
        <ele>255</ele>
        <time>2018-10-16T09:56:38Z</time>
      </trkpt>
      <trkpt lat="45.98786" lon="4.82571">
        <ele>255</ele>
        <time>2018-10-16T09:56:39Z</time>
      </trkpt>
      <trkpt lat="45.98778" lon="4.82571">
        <ele>256</ele>
        <time>2018-10-16T09:56:43Z</time>
      </trkpt>
      <trkpt lat="45.98776" lon="4.82571">
        <ele>256</ele>
        <time>2018-10-16T09:56:44Z</time>
      </trkpt>
      <trkpt lat="45.98768" lon="4.82569">
        <ele>257</ele>
        <time>2018-10-16T09:56:48Z</time>
      </trkpt>
      <trkpt lat="45.98766" lon="4.82569">
        <ele>257</ele>
        <time>2018-10-16T09:56:49Z</time>
      </trkpt>
      <trkpt lat="45.98759" lon="4.82568">
        <ele>257</ele>
        <time>2018-10-16T09:56:54Z</time>
      </trkpt>
      <trkpt lat="45.98757" lon="4.82568">
        <ele>257</ele>
        <time>2018-10-16T09:56:55Z</time>
      </trkpt>
      <trkpt lat="45.98749" lon="4.82566">
        <ele>261</ele>
        <time>2018-10-16T09:57:00Z</time>
      </trkpt>
      <trkpt lat="45.98747" lon="4.82565">
        <ele>261</ele>
        <time>2018-10-16T09:57:01Z</time>
      </trkpt>
      <trkpt lat="45.98739" lon="4.82566">
        <ele>261</ele>
        <time>2018-10-16T09:57:05Z</time>
      </trkpt>
      <trkpt lat="45.98737" lon="4.82566">
        <ele>261</ele>
        <time>2018-10-16T09:57:06Z</time>
      </trkpt>
      <trkpt lat="45.98729" lon="4.82566">
        <ele>261</ele>
        <time>2018-10-16T09:57:10Z</time>
      </trkpt>
      <trkpt lat="45.98728" lon="4.82567">
        <ele>261</ele>
        <time>2018-10-16T09:57:11Z</time>
      </trkpt>
      <trkpt lat="45.98719" lon="4.82565">
        <ele>261</ele>
        <time>2018-10-16T09:57:16Z</time>
      </trkpt>
      <trkpt lat="45.98718" lon="4.82565">
        <ele>261</ele>
        <time>2018-10-16T09:57:17Z</time>
      </trkpt>
      <trkpt lat="45.9871" lon="4.82563">
        <ele>261</ele>
        <time>2018-10-16T09:57:21Z</time>
      </trkpt>
      <trkpt lat="45.98708" lon="4.82563">
        <ele>261</ele>
        <time>2018-10-16T09:57:22Z</time>
      </trkpt>
      <trkpt lat="45.987" lon="4.82563">
        <ele>261</ele>
        <time>2018-10-16T09:57:26Z</time>
      </trkpt>
      <trkpt lat="45.98698" lon="4.82562">
        <ele>261</ele>
        <time>2018-10-16T09:57:27Z</time>
      </trkpt>
      <trkpt lat="45.98691" lon="4.82561">
        <ele>261</ele>
        <time>2018-10-16T09:57:31Z</time>
      </trkpt>
      <trkpt lat="45.98689" lon="4.82561">
        <ele>261</ele>
        <time>2018-10-16T09:57:32Z</time>
      </trkpt>
      <trkpt lat="45.98681" lon="4.82559">
        <ele>262</ele>
        <time>2018-10-16T09:57:36Z</time>
      </trkpt>
      <trkpt lat="45.98678" lon="4.82558">
        <ele>262</ele>
        <time>2018-10-16T09:57:37Z</time>
      </trkpt>
      <trkpt lat="45.9867" lon="4.82553">
        <ele>262</ele>
        <time>2018-10-16T09:58:44Z</time>
      </trkpt>
      <trkpt lat="45.9867" lon="4.82553">
        <ele>262</ele>
        <time>2018-10-16T09:58:45Z</time>
      </trkpt>
      <trkpt lat="45.98664" lon="4.82544">
        <ele>262</ele>
        <time>2018-10-16T09:59:24Z</time>
      </trkpt>
      <trkpt lat="45.98664" lon="4.82543">
        <ele>262</ele>
        <time>2018-10-16T09:59:25Z</time>
      </trkpt>
      <trkpt lat="45.9866" lon="4.82531">
        <ele>262</ele>
        <time>2018-10-16T10:00:11Z</time>
      </trkpt>
      <trkpt lat="45.98661" lon="4.8253">
        <ele>262</ele>
        <time>2018-10-16T10:00:12Z</time>
      </trkpt>
      <trkpt lat="45.98661" lon="4.82543">
        <ele>262</ele>
        <time>2018-10-16T10:03:06Z</time>
      </trkpt>
      <trkpt lat="45.98661" lon="4.82544">
        <ele>262</ele>
        <time>2018-10-16T10:03:07Z</time>
      </trkpt>
      <trkpt lat="45.9867" lon="4.82547">
        <ele>261</ele>
        <time>2018-10-16T10:03:17Z</time>
      </trkpt>
      <trkpt lat="45.9867" lon="4.82547">
        <ele>261</ele>
        <time>2018-10-16T10:03:18Z</time>
      </trkpt>
      <trkpt lat="45.98677" lon="4.8255">
        <ele>261</ele>
        <time>2018-10-16T10:03:29Z</time>
      </trkpt>
      <trkpt lat="45.9868" lon="4.82551">
        <ele>261</ele>
        <time>2018-10-16T10:03:30Z</time>
      </trkpt>
      <trkpt lat="45.98686" lon="4.8255">
        <ele>261</ele>
        <time>2018-10-16T10:03:32Z</time>
      </trkpt>
      <trkpt lat="45.98693" lon="4.8255">
        <ele>261</ele>
        <time>2018-10-16T10:03:33Z</time>
      </trkpt>
      <trkpt lat="45.98701" lon="4.82552">
        <ele>261</ele>
        <time>2018-10-16T10:03:35Z</time>
      </trkpt>
      <trkpt lat="45.98705" lon="4.82553">
        <ele>261</ele>
        <time>2018-10-16T10:03:36Z</time>
      </trkpt>
      <trkpt lat="45.98711" lon="4.82553">
        <ele>261</ele>
        <time>2018-10-16T10:03:37Z</time>
      </trkpt>
      <trkpt lat="45.98716" lon="4.82554">
        <ele>261</ele>
        <time>2018-10-16T10:03:38Z</time>
      </trkpt>
      <trkpt lat="45.98722" lon="4.82555">
        <ele>261</ele>
        <time>2018-10-16T10:03:39Z</time>
      </trkpt>
      <trkpt lat="45.98728" lon="4.82556">
        <ele>260</ele>
        <time>2018-10-16T10:03:40Z</time>
      </trkpt>
      <trkpt lat="45.98734" lon="4.82558">
        <ele>260</ele>
        <time>2018-10-16T10:03:41Z</time>
      </trkpt>
      <trkpt lat="45.9874" lon="4.82559">
        <ele>260</ele>
        <time>2018-10-16T10:03:42Z</time>
      </trkpt>
      <trkpt lat="45.98747" lon="4.82559">
        <ele>260</ele>
        <time>2018-10-16T10:03:43Z</time>
      </trkpt>
      <trkpt lat="45.98754" lon="4.82561">
        <ele>257</ele>
        <time>2018-10-16T10:03:44Z</time>
      </trkpt>
      <trkpt lat="45.9876" lon="4.82562">
        <ele>257</ele>
        <time>2018-10-16T10:03:45Z</time>
      </trkpt>
      <trkpt lat="45.98766" lon="4.82562">
        <ele>256</ele>
        <time>2018-10-16T10:03:46Z</time>
      </trkpt>
      <trkpt lat="45.98773" lon="4.82561">
        <ele>256</ele>
        <time>2018-10-16T10:03:47Z</time>
      </trkpt>
      <trkpt lat="45.9878" lon="4.82562">
        <ele>255</ele>
        <time>2018-10-16T10:03:48Z</time>
      </trkpt>
      <trkpt lat="45.98786" lon="4.8256">
        <ele>255</ele>
        <time>2018-10-16T10:03:49Z</time>
      </trkpt>
      <trkpt lat="45.98792" lon="4.82558">
        <ele>254</ele>
        <time>2018-10-16T10:03:50Z</time>
      </trkpt>
      <trkpt lat="45.98799" lon="4.82558">
        <ele>254</ele>
        <time>2018-10-16T10:03:51Z</time>
      </trkpt>
      <trkpt lat="45.98805" lon="4.82557">
        <ele>253</ele>
        <time>2018-10-16T10:03:52Z</time>
      </trkpt>
      <trkpt lat="45.98812" lon="4.82555">
        <ele>253</ele>
        <time>2018-10-16T10:03:53Z</time>
      </trkpt>
      <trkpt lat="45.9882" lon="4.82551">
        <ele>253</ele>
        <time>2018-10-16T10:03:54Z</time>
      </trkpt>
      <trkpt lat="45.98827" lon="4.82549">
        <ele>252</ele>
        <time>2018-10-16T10:03:55Z</time>
      </trkpt>
      <trkpt lat="45.98833" lon="4.82548">
        <ele>252</ele>
        <time>2018-10-16T10:03:56Z</time>
      </trkpt>
      <trkpt lat="45.9884" lon="4.82547">
        <ele>247</ele>
        <time>2018-10-16T10:03:57Z</time>
      </trkpt>
      <trkpt lat="45.98846" lon="4.82545">
        <ele>247</ele>
        <time>2018-10-16T10:03:58Z</time>
      </trkpt>
      <trkpt lat="45.98854" lon="4.82544">
        <ele>246</ele>
        <time>2018-10-16T10:03:59Z</time>
      </trkpt>
      <trkpt lat="45.9886" lon="4.82542">
        <ele>246</ele>
        <time>2018-10-16T10:04:00Z</time>
      </trkpt>
      <trkpt lat="45.98866" lon="4.82539">
        <ele>246</ele>
        <time>2018-10-16T10:04:01Z</time>
      </trkpt>
      <trkpt lat="45.98873" lon="4.82537">
        <ele>245</ele>
        <time>2018-10-16T10:04:02Z</time>
      </trkpt>
      <trkpt lat="45.9888" lon="4.82534">
        <ele>245</ele>
        <time>2018-10-16T10:04:03Z</time>
      </trkpt>
      <trkpt lat="45.98887" lon="4.82532">
        <ele>245</ele>
        <time>2018-10-16T10:04:04Z</time>
      </trkpt>
      <trkpt lat="45.98894" lon="4.82529">
        <ele>244</ele>
        <time>2018-10-16T10:04:05Z</time>
      </trkpt>
      <trkpt lat="45.98901" lon="4.82525">
        <ele>244</ele>
        <time>2018-10-16T10:04:06Z</time>
      </trkpt>
      <trkpt lat="45.98908" lon="4.82524">
        <ele>243</ele>
        <time>2018-10-16T10:04:07Z</time>
      </trkpt>
      <trkpt lat="45.98913" lon="4.82519">
        <ele>243</ele>
        <time>2018-10-16T10:04:08Z</time>
      </trkpt>
      <trkpt lat="45.9892" lon="4.82516">
        <ele>239</ele>
        <time>2018-10-16T10:04:09Z</time>
      </trkpt>
      <trkpt lat="45.98926" lon="4.82514">
        <ele>239</ele>
        <time>2018-10-16T10:04:10Z</time>
      </trkpt>
      <trkpt lat="45.98932" lon="4.82512">
        <ele>239</ele>
        <time>2018-10-16T10:04:11Z</time>
      </trkpt>
      <trkpt lat="45.98938" lon="4.82509">
        <ele>239</ele>
        <time>2018-10-16T10:04:12Z</time>
      </trkpt>
      <trkpt lat="45.98943" lon="4.82506">
        <ele>239</ele>
        <time>2018-10-16T10:04:13Z</time>
      </trkpt>
      <trkpt lat="45.98949" lon="4.82504">
        <ele>238</ele>
        <time>2018-10-16T10:04:14Z</time>
      </trkpt>
      <trkpt lat="45.98955" lon="4.82502">
        <ele>238</ele>
        <time>2018-10-16T10:04:15Z</time>
      </trkpt>
      <trkpt lat="45.98961" lon="4.82501">
        <ele>238</ele>
        <time>2018-10-16T10:04:16Z</time>
      </trkpt>
      <trkpt lat="45.98967" lon="4.82498">
        <ele>237</ele>
        <time>2018-10-16T10:04:17Z</time>
      </trkpt>
      <trkpt lat="45.98971" lon="4.82497">
        <ele>236</ele>
        <time>2018-10-16T10:04:18Z</time>
      </trkpt>
      <trkpt lat="45.98978" lon="4.82494">
        <ele>236</ele>
        <time>2018-10-16T10:04:20Z</time>
      </trkpt>
      <trkpt lat="45.9898" lon="4.82494">
        <ele>236</ele>
        <time>2018-10-16T10:04:21Z</time>
      </trkpt>
      <trkpt lat="45.98988" lon="4.82489">
        <ele>236</ele>
        <time>2018-10-16T10:04:24Z</time>
      </trkpt>
      <trkpt lat="45.98991" lon="4.82482">
        <ele>236</ele>
        <time>2018-10-16T10:04:25Z</time>
      </trkpt>
      <trkpt lat="45.9899" lon="4.82475">
        <ele>236</ele>
        <time>2018-10-16T10:04:27Z</time>
      </trkpt>
      <trkpt lat="45.98987" lon="4.82466">
        <ele>236</ele>
        <time>2018-10-16T10:04:28Z</time>
      </trkpt>
      <trkpt lat="45.98984" lon="4.82455">
        <ele>236</ele>
        <time>2018-10-16T10:04:30Z</time>
      </trkpt>
      <trkpt lat="45.98983" lon="4.8245">
        <ele>236</ele>
        <time>2018-10-16T10:04:31Z</time>
      </trkpt>
      <trkpt lat="45.98982" lon="4.82438">
        <ele>236</ele>
        <time>2018-10-16T10:04:33Z</time>
      </trkpt>
      <trkpt lat="45.9898" lon="4.82431">
        <ele>236</ele>
        <time>2018-10-16T10:04:34Z</time>
      </trkpt>
      <trkpt lat="45.98978" lon="4.82423">
        <ele>236</ele>
        <time>2018-10-16T10:04:35Z</time>
      </trkpt>
      <trkpt lat="45.98976" lon="4.82415">
        <ele>235</ele>
        <time>2018-10-16T10:04:36Z</time>
      </trkpt>
      <trkpt lat="45.98974" lon="4.82408">
        <ele>235</ele>
        <time>2018-10-16T10:04:37Z</time>
      </trkpt>
      <trkpt lat="45.98972" lon="4.82401">
        <ele>235</ele>
        <time>2018-10-16T10:04:38Z</time>
      </trkpt>
      <trkpt lat="45.98969" lon="4.82395">
        <ele>235</ele>
        <time>2018-10-16T10:04:39Z</time>
      </trkpt>
      <trkpt lat="45.98967" lon="4.82389">
        <ele>235</ele>
        <time>2018-10-16T10:04:40Z</time>
      </trkpt>
      <trkpt lat="45.98963" lon="4.82377">
        <ele>235</ele>
        <time>2018-10-16T10:04:42Z</time>
      </trkpt>
      <trkpt lat="45.9896" lon="4.82371">
        <ele>235</ele>
        <time>2018-10-16T10:04:43Z</time>
      </trkpt>
      <trkpt lat="45.98958" lon="4.82364">
        <ele>235</ele>
        <time>2018-10-16T10:04:44Z</time>
      </trkpt>
      <trkpt lat="45.98957" lon="4.82359">
        <ele>235</ele>
        <time>2018-10-16T10:04:45Z</time>
      </trkpt>
      <trkpt lat="45.98954" lon="4.82352">
        <ele>235</ele>
        <time>2018-10-16T10:04:46Z</time>
      </trkpt>
      <trkpt lat="45.98952" lon="4.82345">
        <ele>235</ele>
        <time>2018-10-16T10:04:47Z</time>
      </trkpt>
      <trkpt lat="45.98947" lon="4.82334">
        <ele>235</ele>
        <time>2018-10-16T10:04:49Z</time>
      </trkpt>
      <trkpt lat="45.98945" lon="4.82328">
        <ele>234</ele>
        <time>2018-10-16T10:04:50Z</time>
      </trkpt>
      <trkpt lat="45.9894" lon="4.82324">
        <ele>234</ele>
        <time>2018-10-16T10:04:51Z</time>
      </trkpt>
      <trkpt lat="45.98937" lon="4.82319">
        <ele>234</ele>
        <time>2018-10-16T10:04:52Z</time>
      </trkpt>
      <trkpt lat="45.98933" lon="4.82314">
        <ele>234</ele>
        <time>2018-10-16T10:04:53Z</time>
      </trkpt>
      <trkpt lat="45.98929" lon="4.8231">
        <ele>235</ele>
        <time>2018-10-16T10:04:54Z</time>
      </trkpt>
      <trkpt lat="45.98922" lon="4.82302">
        <ele>234</ele>
        <time>2018-10-16T10:04:56Z</time>
      </trkpt>
      <trkpt lat="45.98918" lon="4.82299">
        <ele>234</ele>
        <time>2018-10-16T10:04:57Z</time>
      </trkpt>
      <trkpt lat="45.98915" lon="4.82294">
        <ele>236</ele>
        <time>2018-10-16T10:04:58Z</time>
      </trkpt>
      <trkpt lat="45.9891" lon="4.8229">
        <ele>236</ele>
        <time>2018-10-16T10:04:59Z</time>
      </trkpt>
      <trkpt lat="45.98906" lon="4.82285">
        <ele>236</ele>
        <time>2018-10-16T10:05:00Z</time>
      </trkpt>
      <trkpt lat="45.98902" lon="4.82279">
        <ele>236</ele>
        <time>2018-10-16T10:05:01Z</time>
      </trkpt>
      <trkpt lat="45.98898" lon="4.82274">
        <ele>236</ele>
        <time>2018-10-16T10:05:02Z</time>
      </trkpt>
      <trkpt lat="45.98894" lon="4.82267">
        <ele>236</ele>
        <time>2018-10-16T10:05:03Z</time>
      </trkpt>
      <trkpt lat="45.98891" lon="4.82261">
        <ele>236</ele>
        <time>2018-10-16T10:05:04Z</time>
      </trkpt>
      <trkpt lat="45.98888" lon="4.82255">
        <ele>236</ele>
        <time>2018-10-16T10:05:05Z</time>
      </trkpt>
      <trkpt lat="45.98884" lon="4.8225">
        <ele>236</ele>
        <time>2018-10-16T10:05:06Z</time>
      </trkpt>
      <trkpt lat="45.98882" lon="4.82243">
        <ele>236</ele>
        <time>2018-10-16T10:05:07Z</time>
      </trkpt>
      <trkpt lat="45.98879" lon="4.82237">
        <ele>236</ele>
        <time>2018-10-16T10:05:08Z</time>
      </trkpt>
      <trkpt lat="45.98877" lon="4.82231">
        <ele>236</ele>
        <time>2018-10-16T10:05:09Z</time>
      </trkpt>
      <trkpt lat="45.98875" lon="4.82225">
        <ele>236</ele>
        <time>2018-10-16T10:05:10Z</time>
      </trkpt>
      <trkpt lat="45.98873" lon="4.82219">
        <ele>236</ele>
        <time>2018-10-16T10:05:11Z</time>
      </trkpt>
      <trkpt lat="45.98869" lon="4.8221">
        <ele>236</ele>
        <time>2018-10-16T10:05:13Z</time>
      </trkpt>
      <trkpt lat="45.98866" lon="4.82204">
        <ele>236</ele>
        <time>2018-10-16T10:05:14Z</time>
      </trkpt>
      <trkpt lat="45.98863" lon="4.82198">
        <ele>236</ele>
        <time>2018-10-16T10:05:15Z</time>
      </trkpt>
      <trkpt lat="45.98861" lon="4.82192">
        <ele>236</ele>
        <time>2018-10-16T10:05:16Z</time>
      </trkpt>
      <trkpt lat="45.9886" lon="4.82186">
        <ele>236</ele>
        <time>2018-10-16T10:05:17Z</time>
      </trkpt>
      <trkpt lat="45.98858" lon="4.82179">
        <ele>236</ele>
        <time>2018-10-16T10:05:18Z</time>
      </trkpt>
      <trkpt lat="45.98857" lon="4.82172">
        <ele>236</ele>
        <time>2018-10-16T10:05:19Z</time>
      </trkpt>
      <trkpt lat="45.98854" lon="4.82164">
        <ele>236</ele>
        <time>2018-10-16T10:05:20Z</time>
      </trkpt>
      <trkpt lat="45.98851" lon="4.82157">
        <ele>236</ele>
        <time>2018-10-16T10:05:21Z</time>
      </trkpt>
      <trkpt lat="45.98849" lon="4.82149">
        <ele>236</ele>
        <time>2018-10-16T10:05:22Z</time>
      </trkpt>
      <trkpt lat="45.98847" lon="4.82142">
        <ele>236</ele>
        <time>2018-10-16T10:05:23Z</time>
      </trkpt>
      <trkpt lat="45.98844" lon="4.82134">
        <ele>236</ele>
        <time>2018-10-16T10:05:24Z</time>
      </trkpt>
      <trkpt lat="45.98843" lon="4.82127">
        <ele>236</ele>
        <time>2018-10-16T10:05:25Z</time>
      </trkpt>
      <trkpt lat="45.98842" lon="4.82119">
        <ele>235</ele>
        <time>2018-10-16T10:05:26Z</time>
      </trkpt>
      <trkpt lat="45.98841" lon="4.82112">
        <ele>235</ele>
        <time>2018-10-16T10:05:27Z</time>
      </trkpt>
      <trkpt lat="45.9884" lon="4.82105">
        <ele>235</ele>
        <time>2018-10-16T10:05:28Z</time>
      </trkpt>
      <trkpt lat="45.98838" lon="4.82099">
        <ele>236</ele>
        <time>2018-10-16T10:05:29Z</time>
      </trkpt>
      <trkpt lat="45.98837" lon="4.82092">
        <ele>236</ele>
        <time>2018-10-16T10:05:30Z</time>
      </trkpt>
      <trkpt lat="45.98835" lon="4.82081">
        <ele>236</ele>
        <time>2018-10-16T10:05:32Z</time>
      </trkpt>
      <trkpt lat="45.98834" lon="4.82078">
        <ele>236</ele>
        <time>2018-10-16T10:05:33Z</time>
      </trkpt>
      <trkpt lat="45.98833" lon="4.82067">
        <ele>237</ele>
        <time>2018-10-16T10:05:37Z</time>
      </trkpt>
      <trkpt lat="45.98833" lon="4.82065">
        <ele>237</ele>
        <time>2018-10-16T10:05:38Z</time>
      </trkpt>
      <trkpt lat="45.98833" lon="4.82063">
        <ele>237</ele>
        <time>2018-10-16T10:05:39Z</time>
      </trkpt>
      <trkpt lat="45.98833" lon="4.82062">
        <ele>237</ele>
        <time>2018-10-16T10:05:40Z</time>
      </trkpt>
      <trkpt lat="45.98833" lon="4.82061">
        <ele>237</ele>
        <time>2018-10-16T10:05:43Z</time>
      </trkpt>
      <trkpt lat="45.98833" lon="4.8206">
        <ele>237</ele>
        <time>2018-10-16T10:05:44Z</time>
      </trkpt>
      <trkpt lat="45.98833" lon="4.8207">
        <ele>237</ele>
        <time>2018-10-16T10:05:52Z</time>
      </trkpt>
      <trkpt lat="45.98834" lon="4.82074">
        <ele>236</ele>
        <time>2018-10-16T10:05:53Z</time>
      </trkpt>
      <trkpt lat="45.98835" lon="4.82083">
        <ele>236</ele>
        <time>2018-10-16T10:05:54Z</time>
      </trkpt>
      <trkpt lat="45.98836" lon="4.82089">
        <ele>236</ele>
        <time>2018-10-16T10:05:55Z</time>
      </trkpt>
      <trkpt lat="45.98837" lon="4.821">
        <ele>236</ele>
        <time>2018-10-16T10:05:57Z</time>
      </trkpt>
      <trkpt lat="45.9884" lon="4.82108">
        <ele>235</ele>
        <time>2018-10-16T10:05:58Z</time>
      </trkpt>
      <trkpt lat="45.98841" lon="4.82115">
        <ele>235</ele>
        <time>2018-10-16T10:05:59Z</time>
      </trkpt>
      <trkpt lat="45.98843" lon="4.82123">
        <ele>235</ele>
        <time>2018-10-16T10:06:00Z</time>
      </trkpt>
      <trkpt lat="45.98846" lon="4.82131">
        <ele>236</ele>
        <time>2018-10-16T10:06:01Z</time>
      </trkpt>
      <trkpt lat="45.98847" lon="4.82137">
        <ele>236</ele>
        <time>2018-10-16T10:06:02Z</time>
      </trkpt>
      <trkpt lat="45.98849" lon="4.82144">
        <ele>236</ele>
        <time>2018-10-16T10:06:03Z</time>
      </trkpt>
      <trkpt lat="45.98851" lon="4.8215">
        <ele>236</ele>
        <time>2018-10-16T10:06:04Z</time>
      </trkpt>
      <trkpt lat="45.98854" lon="4.8216">
        <ele>236</ele>
        <time>2018-10-16T10:06:06Z</time>
      </trkpt>
      <trkpt lat="45.98855" lon="4.82164">
        <ele>236</ele>
        <time>2018-10-16T10:06:07Z</time>
      </trkpt>
      <trkpt lat="45.98856" lon="4.82169">
        <ele>236</ele>
        <time>2018-10-16T10:06:08Z</time>
      </trkpt>
      <trkpt lat="45.98859" lon="4.82176">
        <ele>236</ele>
        <time>2018-10-16T10:06:09Z</time>
      </trkpt>
      <trkpt lat="45.98863" lon="4.82186">
        <ele>236</ele>
        <time>2018-10-16T10:06:11Z</time>
      </trkpt>
      <trkpt lat="45.98865" lon="4.82194">
        <ele>236</ele>
        <time>2018-10-16T10:06:12Z</time>
      </trkpt>
      <trkpt lat="45.98868" lon="4.82199">
        <ele>236</ele>
        <time>2018-10-16T10:06:13Z</time>
      </trkpt>
      <trkpt lat="45.9887" lon="4.82205">
        <ele>236</ele>
        <time>2018-10-16T10:06:14Z</time>
      </trkpt>
      <trkpt lat="45.98873" lon="4.82212">
        <ele>236</ele>
        <time>2018-10-16T10:06:15Z</time>
      </trkpt>
      <trkpt lat="45.98875" lon="4.82218">
        <ele>236</ele>
        <time>2018-10-16T10:06:16Z</time>
      </trkpt>
      <trkpt lat="45.98879" lon="4.82227">
        <ele>236</ele>
        <time>2018-10-16T10:06:18Z</time>
      </trkpt>
      <trkpt lat="45.98882" lon="4.82231">
        <ele>236</ele>
        <time>2018-10-16T10:06:19Z</time>
      </trkpt>
      <trkpt lat="45.98885" lon="4.82238">
        <ele>236</ele>
        <time>2018-10-16T10:06:20Z</time>
      </trkpt>
      <trkpt lat="45.98888" lon="4.82244">
        <ele>235</ele>
        <time>2018-10-16T10:06:21Z</time>
      </trkpt>
      <trkpt lat="45.98891" lon="4.8225">
        <ele>235</ele>
        <time>2018-10-16T10:06:22Z</time>
      </trkpt>
      <trkpt lat="45.98894" lon="4.82254">
        <ele>236</ele>
        <time>2018-10-16T10:06:23Z</time>
      </trkpt>
      <trkpt lat="45.98896" lon="4.82261">
        <ele>236</ele>
        <time>2018-10-16T10:06:24Z</time>
      </trkpt>
      <trkpt lat="45.98899" lon="4.82266">
        <ele>236</ele>
        <time>2018-10-16T10:06:25Z</time>
      </trkpt>
      <trkpt lat="45.98905" lon="4.82276">
        <ele>236</ele>
        <time>2018-10-16T10:06:27Z</time>
      </trkpt>
      <trkpt lat="45.98908" lon="4.82281">
        <ele>236</ele>
        <time>2018-10-16T10:06:28Z</time>
      </trkpt>
      <trkpt lat="45.98915" lon="4.82287">
        <ele>236</ele>
        <time>2018-10-16T10:06:30Z</time>
      </trkpt>
      <trkpt lat="45.98919" lon="4.82292">
        <ele>234</ele>
        <time>2018-10-16T10:06:31Z</time>
      </trkpt>
      <trkpt lat="45.98922" lon="4.82298">
        <ele>234</ele>
        <time>2018-10-16T10:06:32Z</time>
      </trkpt>
      <trkpt lat="45.98926" lon="4.82303">
        <ele>234</ele>
        <time>2018-10-16T10:06:33Z</time>
      </trkpt>
      <trkpt lat="45.9893" lon="4.82305">
        <ele>234</ele>
        <time>2018-10-16T10:06:34Z</time>
      </trkpt>
      <trkpt lat="45.98934" lon="4.8231">
        <ele>234</ele>
        <time>2018-10-16T10:06:35Z</time>
      </trkpt>
      <trkpt lat="45.98941" lon="4.82317">
        <ele>234</ele>
        <time>2018-10-16T10:06:37Z</time>
      </trkpt>
      <trkpt lat="45.98945" lon="4.82322">
        <ele>234</ele>
        <time>2018-10-16T10:06:38Z</time>
      </trkpt>
      <trkpt lat="45.98948" lon="4.82328">
        <ele>234</ele>
        <time>2018-10-16T10:06:39Z</time>
      </trkpt>
      <trkpt lat="45.98952" lon="4.82333">
        <ele>234</ele>
        <time>2018-10-16T10:06:40Z</time>
      </trkpt>
      <trkpt lat="45.98957" lon="4.82338">
        <ele>235</ele>
        <time>2018-10-16T10:06:41Z</time>
      </trkpt>
      <trkpt lat="45.98959" lon="4.82345">
        <ele>235</ele>
        <time>2018-10-16T10:06:42Z</time>
      </trkpt>
      <trkpt lat="45.98962" lon="4.82351">
        <ele>235</ele>
        <time>2018-10-16T10:06:43Z</time>
      </trkpt>
      <trkpt lat="45.98964" lon="4.82359">
        <ele>235</ele>
        <time>2018-10-16T10:06:44Z</time>
      </trkpt>
      <trkpt lat="45.98966" lon="4.82366">
        <ele>235</ele>
        <time>2018-10-16T10:06:45Z</time>
      </trkpt>
      <trkpt lat="45.98968" lon="4.82373">
        <ele>235</ele>
        <time>2018-10-16T10:06:46Z</time>
      </trkpt>
      <trkpt lat="45.98969" lon="4.8238">
        <ele>235</ele>
        <time>2018-10-16T10:06:47Z</time>
      </trkpt>
      <trkpt lat="45.9897" lon="4.82386">
        <ele>235</ele>
        <time>2018-10-16T10:06:48Z</time>
      </trkpt>
      <trkpt lat="45.98971" lon="4.82394">
        <ele>235</ele>
        <time>2018-10-16T10:06:49Z</time>
      </trkpt>
      <trkpt lat="45.98972" lon="4.82401">
        <ele>235</ele>
        <time>2018-10-16T10:06:50Z</time>
      </trkpt>
      <trkpt lat="45.98975" lon="4.82408">
        <ele>235</ele>
        <time>2018-10-16T10:06:51Z</time>
      </trkpt>
      <trkpt lat="45.98976" lon="4.82415">
        <ele>235</ele>
        <time>2018-10-16T10:06:52Z</time>
      </trkpt>
      <trkpt lat="45.98977" lon="4.82421">
        <ele>236</ele>
        <time>2018-10-16T10:06:53Z</time>
      </trkpt>
      <trkpt lat="45.98979" lon="4.82427">
        <ele>236</ele>
        <time>2018-10-16T10:06:54Z</time>
      </trkpt>
      <trkpt lat="45.98982" lon="4.82438">
        <ele>236</ele>
        <time>2018-10-16T10:06:56Z</time>
      </trkpt>
      <trkpt lat="45.98983" lon="4.82444">
        <ele>236</ele>
        <time>2018-10-16T10:06:57Z</time>
      </trkpt>
      <trkpt lat="45.98985" lon="4.82451">
        <ele>236</ele>
        <time>2018-10-16T10:06:58Z</time>
      </trkpt>
      <trkpt lat="45.98986" lon="4.82458">
        <ele>236</ele>
        <time>2018-10-16T10:06:59Z</time>
      </trkpt>
      <trkpt lat="45.9899" lon="4.82469">
        <ele>236</ele>
        <time>2018-10-16T10:07:01Z</time>
      </trkpt>
      <trkpt lat="45.98992" lon="4.82474">
        <ele>236</ele>
        <time>2018-10-16T10:07:02Z</time>
      </trkpt>
      <trkpt lat="45.98989" lon="4.82485">
        <ele>236</ele>
        <time>2018-10-16T10:07:05Z</time>
      </trkpt>
      <trkpt lat="45.98984" lon="4.82491">
        <ele>236</ele>
        <time>2018-10-16T10:07:06Z</time>
      </trkpt>
      <trkpt lat="45.98976" lon="4.82492">
        <ele>236</ele>
        <time>2018-10-16T10:07:08Z</time>
      </trkpt>
      <trkpt lat="45.98973" lon="4.82494">
        <ele>236</ele>
        <time>2018-10-16T10:07:09Z</time>
      </trkpt>
      <trkpt lat="45.98965" lon="4.82496">
        <ele>237</ele>
        <time>2018-10-16T10:07:11Z</time>
      </trkpt>
      <trkpt lat="45.98961" lon="4.82497">
        <ele>237</ele>
        <time>2018-10-16T10:07:12Z</time>
      </trkpt>
      <trkpt lat="45.98954" lon="4.82499">
        <ele>237</ele>
        <time>2018-10-16T10:07:14Z</time>
      </trkpt>
      <trkpt lat="45.98952" lon="4.825">
        <ele>237</ele>
        <time>2018-10-16T10:07:15Z</time>
      </trkpt>
      <trkpt lat="45.98945" lon="4.82502">
        <ele>239</ele>
        <time>2018-10-16T10:07:17Z</time>
      </trkpt>
      <trkpt lat="45.98943" lon="4.82503">
        <ele>239</ele>
        <time>2018-10-16T10:07:18Z</time>
      </trkpt>
      <trkpt lat="45.98935" lon="4.82506">
        <ele>239</ele>
        <time>2018-10-16T10:07:21Z</time>
      </trkpt>
      <trkpt lat="45.98933" lon="4.82507">
        <ele>239</ele>
        <time>2018-10-16T10:07:22Z</time>
      </trkpt>
      <trkpt lat="45.98925" lon="4.8251">
        <ele>239</ele>
        <time>2018-10-16T10:07:25Z</time>
      </trkpt>
      <trkpt lat="45.98922" lon="4.82511">
        <ele>239</ele>
        <time>2018-10-16T10:07:26Z</time>
      </trkpt>
      <trkpt lat="45.98916" lon="4.82514">
        <ele>242</ele>
        <time>2018-10-16T10:07:29Z</time>
      </trkpt>
      <trkpt lat="45.98913" lon="4.82515">
        <ele>242</ele>
        <time>2018-10-16T10:07:30Z</time>
      </trkpt>
      <trkpt lat="45.98906" lon="4.82519">
        <ele>243</ele>
        <time>2018-10-16T10:07:33Z</time>
      </trkpt>
      <trkpt lat="45.98905" lon="4.82519">
        <ele>243</ele>
        <time>2018-10-16T10:07:34Z</time>
      </trkpt>
      <trkpt lat="45.98898" lon="4.82523">
        <ele>244</ele>
        <time>2018-10-16T10:07:37Z</time>
      </trkpt>
      <trkpt lat="45.98895" lon="4.82524">
        <ele>244</ele>
        <time>2018-10-16T10:07:38Z</time>
      </trkpt>
      <trkpt lat="45.98888" lon="4.82527">
        <ele>244</ele>
        <time>2018-10-16T10:07:42Z</time>
      </trkpt>
      <trkpt lat="45.98886" lon="4.82528">
        <ele>244</ele>
        <time>2018-10-16T10:07:43Z</time>
      </trkpt>
      <trkpt lat="45.98879" lon="4.82532">
        <ele>245</ele>
        <time>2018-10-16T10:07:47Z</time>
      </trkpt>
      <trkpt lat="45.98877" lon="4.82534">
        <ele>245</ele>
        <time>2018-10-16T10:07:48Z</time>
      </trkpt>
      <trkpt lat="45.9887" lon="4.82536">
        <ele>245</ele>
        <time>2018-10-16T10:07:53Z</time>
      </trkpt>
      <trkpt lat="45.98868" lon="4.82537">
        <ele>245</ele>
        <time>2018-10-16T10:07:54Z</time>
      </trkpt>
      <trkpt lat="45.9886" lon="4.8254">
        <ele>246</ele>
        <time>2018-10-16T10:07:59Z</time>
      </trkpt>
      <trkpt lat="45.98859" lon="4.82541">
        <ele>246</ele>
        <time>2018-10-16T10:08:00Z</time>
      </trkpt>
      <trkpt lat="45.98851" lon="4.82543">
        <ele>246</ele>
        <time>2018-10-16T10:08:05Z</time>
      </trkpt>
      <trkpt lat="45.98849" lon="4.82543">
        <ele>246</ele>
        <time>2018-10-16T10:08:06Z</time>
      </trkpt>
      <trkpt lat="45.98841" lon="4.82546">
        <ele>247</ele>
        <time>2018-10-16T10:08:11Z</time>
      </trkpt>
      <trkpt lat="45.98839" lon="4.82547">
        <ele>247</ele>
        <time>2018-10-16T10:08:12Z</time>
      </trkpt>
      <trkpt lat="45.98831" lon="4.82552">
        <ele>252</ele>
        <time>2018-10-16T10:08:17Z</time>
      </trkpt>
      <trkpt lat="45.98829" lon="4.82552">
        <ele>252</ele>
        <time>2018-10-16T10:08:18Z</time>
      </trkpt>
      <trkpt lat="45.98822" lon="4.82554">
        <ele>252</ele>
        <time>2018-10-16T10:08:24Z</time>
      </trkpt>
      <trkpt lat="45.98821" lon="4.82554">
        <ele>253</ele>
        <time>2018-10-16T10:08:25Z</time>
      </trkpt>
      <trkpt lat="45.98812" lon="4.82557">
        <ele>253</ele>
        <time>2018-10-16T10:08:30Z</time>
      </trkpt>
      <trkpt lat="45.9881" lon="4.82558">
        <ele>253</ele>
        <time>2018-10-16T10:08:31Z</time>
      </trkpt>
      <trkpt lat="45.98801" lon="4.82561">
        <ele>254</ele>
        <time>2018-10-16T10:08:36Z</time>
      </trkpt>
      <trkpt lat="45.988" lon="4.82562">
        <ele>254</ele>
        <time>2018-10-16T10:08:37Z</time>
      </trkpt>
      <trkpt lat="45.98794" lon="4.82564">
        <ele>254</ele>
        <time>2018-10-16T10:08:40Z</time>
      </trkpt>
      <trkpt lat="45.9879" lon="4.82565">
        <ele>254</ele>
        <time>2018-10-16T10:08:41Z</time>
      </trkpt>
      <trkpt lat="45.98781" lon="4.82567">
        <ele>255</ele>
        <time>2018-10-16T10:08:47Z</time>
      </trkpt>
      <trkpt lat="45.9878" lon="4.82568">
        <ele>255</ele>
        <time>2018-10-16T10:08:48Z</time>
      </trkpt>
      <trkpt lat="45.98771" lon="4.82571">
        <ele>256</ele>
        <time>2018-10-16T10:08:53Z</time>
      </trkpt>
      <trkpt lat="45.9877" lon="4.82571">
        <ele>257</ele>
        <time>2018-10-16T10:08:54Z</time>
      </trkpt>
      <trkpt lat="45.98762" lon="4.82571">
        <ele>257</ele>
        <time>2018-10-16T10:08:59Z</time>
      </trkpt>
      <trkpt lat="45.98761" lon="4.82571">
        <ele>258</ele>
        <time>2018-10-16T10:09:00Z</time>
      </trkpt>
      <trkpt lat="45.98752" lon="4.8257">
        <ele>258</ele>
        <time>2018-10-16T10:09:07Z</time>
      </trkpt>
      <trkpt lat="45.98751" lon="4.82569">
        <ele>258</ele>
        <time>2018-10-16T10:09:08Z</time>
      </trkpt>
      <trkpt lat="45.98743" lon="4.82567">
        <ele>261</ele>
        <time>2018-10-16T10:09:13Z</time>
      </trkpt>
      <trkpt lat="45.98742" lon="4.82566">
        <ele>261</ele>
        <time>2018-10-16T10:09:14Z</time>
      </trkpt>
      <trkpt lat="45.98734" lon="4.82564">
        <ele>261</ele>
        <time>2018-10-16T10:09:19Z</time>
      </trkpt>
      <trkpt lat="45.98732" lon="4.82564">
        <ele>261</ele>
        <time>2018-10-16T10:09:20Z</time>
      </trkpt>
      <trkpt lat="45.98725" lon="4.82563">
        <ele>261</ele>
        <time>2018-10-16T10:09:24Z</time>
      </trkpt>
      <trkpt lat="45.98723" lon="4.82563">
        <ele>261</ele>
        <time>2018-10-16T10:09:25Z</time>
      </trkpt>
      <trkpt lat="45.98714" lon="4.82562">
        <ele>261</ele>
        <time>2018-10-16T10:09:29Z</time>
      </trkpt>
      <trkpt lat="45.98711" lon="4.82562">
        <ele>261</ele>
        <time>2018-10-16T10:09:30Z</time>
      </trkpt>
      <trkpt lat="45.98703" lon="4.8256">
        <ele>261</ele>
        <time>2018-10-16T10:09:34Z</time>
      </trkpt>
      <trkpt lat="45.98701" lon="4.8256">
        <ele>261</ele>
        <time>2018-10-16T10:09:35Z</time>
      </trkpt>
      <trkpt lat="45.98694" lon="4.8256">
        <ele>261</ele>
        <time>2018-10-16T10:09:39Z</time>
      </trkpt>
      <trkpt lat="45.98691" lon="4.8256">
        <ele>261</ele>
        <time>2018-10-16T10:09:40Z</time>
      </trkpt>
      <trkpt lat="45.98684" lon="4.82559">
        <ele>262</ele>
        <time>2018-10-16T10:09:43Z</time>
      </trkpt>
      <trkpt lat="45.98681" lon="4.82558">
        <ele>262</ele>
        <time>2018-10-16T10:09:44Z</time>
      </trkpt>
      <trkpt lat="45.98673" lon="4.82557">
        <ele>262</ele>
        <time>2018-10-16T10:09:52Z</time>
      </trkpt>
      <trkpt lat="45.98672" lon="4.82557">
        <ele>262</ele>
        <time>2018-10-16T10:09:53Z</time>
      </trkpt>
      <trkpt lat="45.98679" lon="4.82558">
        <ele>262</ele>
        <time>2018-10-16T10:10:17Z</time>
      </trkpt>
      <trkpt lat="45.98682" lon="4.82558">
        <ele>262</ele>
        <time>2018-10-16T10:10:18Z</time>
      </trkpt>
      <trkpt lat="45.98688" lon="4.82558">
        <ele>261</ele>
        <time>2018-10-16T10:10:20Z</time>
      </trkpt>
      <trkpt lat="45.98691" lon="4.82559">
        <ele>261</ele>
        <time>2018-10-16T10:10:21Z</time>
      </trkpt>
      <trkpt lat="45.98699" lon="4.82559">
        <ele>261</ele>
        <time>2018-10-16T10:10:22Z</time>
      </trkpt>
      <trkpt lat="45.98703" lon="4.82559">
        <ele>261</ele>
        <time>2018-10-16T10:10:23Z</time>
      </trkpt>
      <trkpt lat="45.98707" lon="4.82558">
        <ele>261</ele>
        <time>2018-10-16T10:10:24Z</time>
      </trkpt>
      <trkpt lat="45.98712" lon="4.82558">
        <ele>261</ele>
        <time>2018-10-16T10:10:25Z</time>
      </trkpt>
      <trkpt lat="45.98717" lon="4.82557">
        <ele>261</ele>
        <time>2018-10-16T10:10:26Z</time>
      </trkpt>
      <trkpt lat="45.98723" lon="4.8256">
        <ele>261</ele>
        <time>2018-10-16T10:10:27Z</time>
      </trkpt>
      <trkpt lat="45.98729" lon="4.82561">
        <ele>261</ele>
        <time>2018-10-16T10:10:28Z</time>
      </trkpt>
      <trkpt lat="45.98735" lon="4.82562">
        <ele>261</ele>
        <time>2018-10-16T10:10:29Z</time>
      </trkpt>
      <trkpt lat="45.98742" lon="4.82562">
        <ele>261</ele>
        <time>2018-10-16T10:10:30Z</time>
      </trkpt>
      <trkpt lat="45.98748" lon="4.82563">
        <ele>260</ele>
        <time>2018-10-16T10:10:31Z</time>
      </trkpt>
      <trkpt lat="45.98755" lon="4.82563">
        <ele>257</ele>
        <time>2018-10-16T10:10:32Z</time>
      </trkpt>
      <trkpt lat="45.98763" lon="4.82564">
        <ele>257</ele>
        <time>2018-10-16T10:10:33Z</time>
      </trkpt>
      <trkpt lat="45.98771" lon="4.82564">
        <ele>256</ele>
        <time>2018-10-16T10:10:34Z</time>
      </trkpt>
      <trkpt lat="45.98779" lon="4.82563">
        <ele>255</ele>
        <time>2018-10-16T10:10:35Z</time>
      </trkpt>
      <trkpt lat="45.98787" lon="4.82562">
        <ele>255</ele>
        <time>2018-10-16T10:10:36Z</time>
      </trkpt>
      <trkpt lat="45.98793" lon="4.8256">
        <ele>254</ele>
        <time>2018-10-16T10:10:37Z</time>
      </trkpt>
      <trkpt lat="45.988" lon="4.82557">
        <ele>254</ele>
        <time>2018-10-16T10:10:38Z</time>
      </trkpt>
      <trkpt lat="45.98807" lon="4.82555">
        <ele>253</ele>
        <time>2018-10-16T10:10:39Z</time>
      </trkpt>
      <trkpt lat="45.98815" lon="4.82553">
        <ele>253</ele>
        <time>2018-10-16T10:10:40Z</time>
      </trkpt>
      <trkpt lat="45.98823" lon="4.8255">
        <ele>252</ele>
        <time>2018-10-16T10:10:41Z</time>
      </trkpt>
      <trkpt lat="45.98831" lon="4.82548">
        <ele>252</ele>
        <time>2018-10-16T10:10:42Z</time>
      </trkpt>
      <trkpt lat="45.9884" lon="4.82546">
        <ele>247</ele>
        <time>2018-10-16T10:10:43Z</time>
      </trkpt>
      <trkpt lat="45.98848" lon="4.82544">
        <ele>246</ele>
        <time>2018-10-16T10:10:44Z</time>
      </trkpt>
      <trkpt lat="45.98858" lon="4.8254">
        <ele>246</ele>
        <time>2018-10-16T10:10:45Z</time>
      </trkpt>
      <trkpt lat="45.98866" lon="4.82537">
        <ele>246</ele>
        <time>2018-10-16T10:10:46Z</time>
      </trkpt>
      <trkpt lat="45.98875" lon="4.82534">
        <ele>245</ele>
        <time>2018-10-16T10:10:47Z</time>
      </trkpt>
      <trkpt lat="45.98884" lon="4.82529">
        <ele>245</ele>
        <time>2018-10-16T10:10:48Z</time>
      </trkpt>
      <trkpt lat="45.98893" lon="4.82525">
        <ele>244</ele>
        <time>2018-10-16T10:10:49Z</time>
      </trkpt>
      <trkpt lat="45.98903" lon="4.82521">
        <ele>243</ele>
        <time>2018-10-16T10:10:50Z</time>
      </trkpt>
      <trkpt lat="45.98911" lon="4.82519">
        <ele>243</ele>
        <time>2018-10-16T10:10:51Z</time>
      </trkpt>
      <trkpt lat="45.98919" lon="4.82515">
        <ele>239</ele>
        <time>2018-10-16T10:10:52Z</time>
      </trkpt>
      <trkpt lat="45.98927" lon="4.82511">
        <ele>239</ele>
        <time>2018-10-16T10:10:53Z</time>
      </trkpt>
      <trkpt lat="45.98934" lon="4.82508">
        <ele>239</ele>
        <time>2018-10-16T10:10:54Z</time>
      </trkpt>
      <trkpt lat="45.9894" lon="4.82505">
        <ele>239</ele>
        <time>2018-10-16T10:10:55Z</time>
      </trkpt>
      <trkpt lat="45.98946" lon="4.82501">
        <ele>239</ele>
        <time>2018-10-16T10:10:56Z</time>
      </trkpt>
      <trkpt lat="45.98952" lon="4.82499">
        <ele>237</ele>
        <time>2018-10-16T10:10:57Z</time>
      </trkpt>
      <trkpt lat="45.98958" lon="4.82497">
        <ele>237</ele>
        <time>2018-10-16T10:10:58Z</time>
      </trkpt>
      <trkpt lat="45.98965" lon="4.82494">
        <ele>237</ele>
        <time>2018-10-16T10:10:59Z</time>
      </trkpt>
      <trkpt lat="45.98971" lon="4.82493">
        <ele>236</ele>
        <time>2018-10-16T10:11:00Z</time>
      </trkpt>
      <trkpt lat="45.98977" lon="4.82492">
        <ele>236</ele>
        <time>2018-10-16T10:11:01Z</time>
      </trkpt>
      <trkpt lat="45.98982" lon="4.8249">
        <ele>236</ele>
        <time>2018-10-16T10:11:02Z</time>
      </trkpt>
      <trkpt lat="45.9899" lon="4.82487">
        <ele>236</ele>
        <time>2018-10-16T10:11:04Z</time>
      </trkpt>
      <trkpt lat="45.98993" lon="4.82483">
        <ele>236</ele>
        <time>2018-10-16T10:11:05Z</time>
      </trkpt>
      <trkpt lat="45.98993" lon="4.82476">
        <ele>236</ele>
        <time>2018-10-16T10:11:08Z</time>
      </trkpt>
      <trkpt lat="45.98991" lon="4.82467">
        <ele>236</ele>
        <time>2018-10-16T10:11:09Z</time>
      </trkpt>
      <trkpt lat="45.98987" lon="4.82456">
        <ele>236</ele>
        <time>2018-10-16T10:11:11Z</time>
      </trkpt>
      <trkpt lat="45.98986" lon="4.82452">
        <ele>236</ele>
        <time>2018-10-16T10:11:12Z</time>
      </trkpt>
      <trkpt lat="45.98983" lon="4.82442">
        <ele>236</ele>
        <time>2018-10-16T10:11:14Z</time>
      </trkpt>
      <trkpt lat="45.98982" lon="4.82435">
        <ele>236</ele>
        <time>2018-10-16T10:11:15Z</time>
      </trkpt>
      <trkpt lat="45.9898" lon="4.82427">
        <ele>236</ele>
        <time>2018-10-16T10:11:16Z</time>
      </trkpt>
      <trkpt lat="45.98977" lon="4.8242">
        <ele>236</ele>
        <time>2018-10-16T10:11:17Z</time>
      </trkpt>
      <trkpt lat="45.98976" lon="4.82413">
        <ele>235</ele>
        <time>2018-10-16T10:11:18Z</time>
      </trkpt>
      <trkpt lat="45.98974" lon="4.82406">
        <ele>235</ele>
        <time>2018-10-16T10:11:19Z</time>
      </trkpt>
      <trkpt lat="45.9897" lon="4.82395">
        <ele>235</ele>
        <time>2018-10-16T10:11:21Z</time>
      </trkpt>
      <trkpt lat="45.98969" lon="4.82391">
        <ele>235</ele>
        <time>2018-10-16T10:11:22Z</time>
      </trkpt>
      <trkpt lat="45.98967" lon="4.8238">
        <ele>235</ele>
        <time>2018-10-16T10:11:24Z</time>
      </trkpt>
      <trkpt lat="45.98966" lon="4.82378">
        <ele>235</ele>
        <time>2018-10-16T10:11:25Z</time>
      </trkpt>
      <trkpt lat="45.98963" lon="4.82368">
        <ele>235</ele>
        <time>2018-10-16T10:11:27Z</time>
      </trkpt>
      <trkpt lat="45.98962" lon="4.82363">
        <ele>235</ele>
        <time>2018-10-16T10:11:28Z</time>
      </trkpt>
      <trkpt lat="45.98959" lon="4.82357">
        <ele>235</ele>
        <time>2018-10-16T10:11:29Z</time>
      </trkpt>
      <trkpt lat="45.98956" lon="4.82351">
        <ele>235</ele>
        <time>2018-10-16T10:11:30Z</time>
      </trkpt>
      <trkpt lat="45.98954" lon="4.82346">
        <ele>235</ele>
        <time>2018-10-16T10:11:31Z</time>
      </trkpt>
      <trkpt lat="45.98952" lon="4.82339">
        <ele>235</ele>
        <time>2018-10-16T10:11:32Z</time>
      </trkpt>
      <trkpt lat="45.9895" lon="4.82334">
        <ele>235</ele>
        <time>2018-10-16T10:11:33Z</time>
      </trkpt>
      <trkpt lat="45.98946" lon="4.82327">
        <ele>234</ele>
        <time>2018-10-16T10:11:34Z</time>
      </trkpt>
      <trkpt lat="45.98942" lon="4.82322">
        <ele>234</ele>
        <time>2018-10-16T10:11:35Z</time>
      </trkpt>
      <trkpt lat="45.98939" lon="4.82318">
        <ele>234</ele>
        <time>2018-10-16T10:11:36Z</time>
      </trkpt>
      <trkpt lat="45.98933" lon="4.82312">
        <ele>234</ele>
        <time>2018-10-16T10:11:37Z</time>
      </trkpt>
      <trkpt lat="45.9893" lon="4.82308">
        <ele>234</ele>
        <time>2018-10-16T10:11:38Z</time>
      </trkpt>
      <trkpt lat="45.98925" lon="4.82304">
        <ele>234</ele>
        <time>2018-10-16T10:11:39Z</time>
      </trkpt>
      <trkpt lat="45.98921" lon="4.823">
        <ele>234</ele>
        <time>2018-10-16T10:11:40Z</time>
      </trkpt>
      <trkpt lat="45.98918" lon="4.82296">
        <ele>234</ele>
        <time>2018-10-16T10:11:41Z</time>
      </trkpt>
      <trkpt lat="45.98914" lon="4.82293">
        <ele>236</ele>
        <time>2018-10-16T10:11:42Z</time>
      </trkpt>
      <trkpt lat="45.98908" lon="4.82284">
        <ele>236</ele>
        <time>2018-10-16T10:11:44Z</time>
      </trkpt>
      <trkpt lat="45.98904" lon="4.82279">
        <ele>236</ele>
        <time>2018-10-16T10:11:45Z</time>
      </trkpt>
      <trkpt lat="45.98898" lon="4.8227">
        <ele>236</ele>
        <time>2018-10-16T10:11:47Z</time>
      </trkpt>
      <trkpt lat="45.98895" lon="4.82265">
        <ele>236</ele>
        <time>2018-10-16T10:11:48Z</time>
      </trkpt>
      <trkpt lat="45.9889" lon="4.82255">
        <ele>236</ele>
        <time>2018-10-16T10:11:50Z</time>
      </trkpt>
      <trkpt lat="45.98885" lon="4.82249">
        <ele>235</ele>
        <time>2018-10-16T10:11:51Z</time>
      </trkpt>
      <trkpt lat="45.98881" lon="4.82238">
        <ele>236</ele>
        <time>2018-10-16T10:11:53Z</time>
      </trkpt>
      <trkpt lat="45.98878" lon="4.82231">
        <ele>236</ele>
        <time>2018-10-16T10:11:54Z</time>
      </trkpt>
      <trkpt lat="45.98874" lon="4.82224">
        <ele>236</ele>
        <time>2018-10-16T10:11:55Z</time>
      </trkpt>
      <trkpt lat="45.9887" lon="4.82217">
        <ele>236</ele>
        <time>2018-10-16T10:11:56Z</time>
      </trkpt>
      <trkpt lat="45.98868" lon="4.82211">
        <ele>236</ele>
        <time>2018-10-16T10:11:57Z</time>
      </trkpt>
      <trkpt lat="45.98865" lon="4.82204">
        <ele>236</ele>
        <time>2018-10-16T10:11:58Z</time>
      </trkpt>
      <trkpt lat="45.98862" lon="4.82197">
        <ele>236</ele>
        <time>2018-10-16T10:11:59Z</time>
      </trkpt>
      <trkpt lat="45.9886" lon="4.8219">
        <ele>236</ele>
        <time>2018-10-16T10:12:00Z</time>
      </trkpt>
      <trkpt lat="45.98859" lon="4.82183">
        <ele>236</ele>
        <time>2018-10-16T10:12:01Z</time>
      </trkpt>
      <trkpt lat="45.98857" lon="4.82177">
        <ele>236</ele>
        <time>2018-10-16T10:12:02Z</time>
      </trkpt>
      <trkpt lat="45.98855" lon="4.82171">
        <ele>236</ele>
        <time>2018-10-16T10:12:03Z</time>
      </trkpt>
      <trkpt lat="45.98853" lon="4.82164">
        <ele>236</ele>
        <time>2018-10-16T10:12:04Z</time>
      </trkpt>
      <trkpt lat="45.9885" lon="4.82158">
        <ele>236</ele>
        <time>2018-10-16T10:12:05Z</time>
      </trkpt>
      <trkpt lat="45.98847" lon="4.82152">
        <ele>236</ele>
        <time>2018-10-16T10:12:06Z</time>
      </trkpt>
      <trkpt lat="45.98845" lon="4.82145">
        <ele>236</ele>
        <time>2018-10-16T10:12:07Z</time>
      </trkpt>
      <trkpt lat="45.98843" lon="4.82138">
        <ele>236</ele>
        <time>2018-10-16T10:12:08Z</time>
      </trkpt>
      <trkpt lat="45.98842" lon="4.82131">
        <ele>236</ele>
        <time>2018-10-16T10:12:09Z</time>
      </trkpt>
      <trkpt lat="45.98841" lon="4.82124">
        <ele>236</ele>
        <time>2018-10-16T10:12:10Z</time>
      </trkpt>
      <trkpt lat="45.9884" lon="4.82117">
        <ele>235</ele>
        <time>2018-10-16T10:12:11Z</time>
      </trkpt>
      <trkpt lat="45.98839" lon="4.82109">
        <ele>235</ele>
        <time>2018-10-16T10:12:12Z</time>
      </trkpt>
      <trkpt lat="45.98838" lon="4.82101">
        <ele>236</ele>
        <time>2018-10-16T10:12:13Z</time>
      </trkpt>
      <trkpt lat="45.98837" lon="4.82094">
        <ele>236</ele>
        <time>2018-10-16T10:12:14Z</time>
      </trkpt>
      <trkpt lat="45.98835" lon="4.82086">
        <ele>236</ele>
        <time>2018-10-16T10:12:15Z</time>
      </trkpt>
      <trkpt lat="45.98835" lon="4.8208">
        <ele>236</ele>
        <time>2018-10-16T10:12:16Z</time>
      </trkpt>
      <trkpt lat="45.98832" lon="4.82074">
        <ele>237</ele>
        <time>2018-10-16T10:12:17Z</time>
      </trkpt>
      <trkpt lat="45.98831" lon="4.82068">
        <ele>237</ele>
        <time>2018-10-16T10:12:18Z</time>
      </trkpt>
      <trkpt lat="45.98831" lon="4.82061">
        <ele>237</ele>
        <time>2018-10-16T10:12:19Z</time>
      </trkpt>
      <trkpt lat="45.9883" lon="4.82054">
        <ele>237</ele>
        <time>2018-10-16T10:12:20Z</time>
      </trkpt>
      <trkpt lat="45.98829" lon="4.82047">
        <ele>238</ele>
        <time>2018-10-16T10:12:21Z</time>
      </trkpt>
      <trkpt lat="45.98828" lon="4.82041">
        <ele>238</ele>
        <time>2018-10-16T10:12:22Z</time>
      </trkpt>
      <trkpt lat="45.98826" lon="4.82033">
        <ele>238</ele>
        <time>2018-10-16T10:12:23Z</time>
      </trkpt>
      <trkpt lat="45.98825" lon="4.82025">
        <ele>238</ele>
        <time>2018-10-16T10:12:24Z</time>
      </trkpt>
      <trkpt lat="45.98824" lon="4.82018">
        <ele>238</ele>
        <time>2018-10-16T10:12:25Z</time>
      </trkpt>
      <trkpt lat="45.98822" lon="4.82012">
        <ele>238</ele>
        <time>2018-10-16T10:12:26Z</time>
      </trkpt>
      <trkpt lat="45.98821" lon="4.82005">
        <ele>238</ele>
        <time>2018-10-16T10:12:27Z</time>
      </trkpt>
      <trkpt lat="45.98821" lon="4.81997">
        <ele>238</ele>
        <time>2018-10-16T10:12:28Z</time>
      </trkpt>
      <trkpt lat="45.9882" lon="4.8199">
        <ele>238</ele>
        <time>2018-10-16T10:12:29Z</time>
      </trkpt>
      <trkpt lat="45.98818" lon="4.81983">
        <ele>238</ele>
        <time>2018-10-16T10:12:30Z</time>
      </trkpt>
      <trkpt lat="45.98817" lon="4.8197">
        <ele>239</ele>
        <time>2018-10-16T10:12:32Z</time>
      </trkpt>
      <trkpt lat="45.98816" lon="4.81963">
        <ele>239</ele>
        <time>2018-10-16T10:12:33Z</time>
      </trkpt>
      <trkpt lat="45.98815" lon="4.81958">
        <ele>239</ele>
        <time>2018-10-16T10:12:34Z</time>
      </trkpt>
      <trkpt lat="45.98815" lon="4.8195">
        <ele>239</ele>
        <time>2018-10-16T10:12:35Z</time>
      </trkpt>
      <trkpt lat="45.98815" lon="4.81943">
        <ele>239</ele>
        <time>2018-10-16T10:12:36Z</time>
      </trkpt>
      <trkpt lat="45.98814" lon="4.81935">
        <ele>239</ele>
        <time>2018-10-16T10:12:37Z</time>
      </trkpt>
      <trkpt lat="45.98813" lon="4.81928">
        <ele>239</ele>
        <time>2018-10-16T10:12:38Z</time>
      </trkpt>
      <trkpt lat="45.98812" lon="4.81921">
        <ele>239</ele>
        <time>2018-10-16T10:12:39Z</time>
      </trkpt>
      <trkpt lat="45.98811" lon="4.81913">
        <ele>239</ele>
        <time>2018-10-16T10:12:40Z</time>
      </trkpt>
      <trkpt lat="45.9881" lon="4.81908">
        <ele>239</ele>
        <time>2018-10-16T10:12:41Z</time>
      </trkpt>
      <trkpt lat="45.98809" lon="4.81901">
        <ele>239</ele>
        <time>2018-10-16T10:12:42Z</time>
      </trkpt>
      <trkpt lat="45.98807" lon="4.81894">
        <ele>239</ele>
        <time>2018-10-16T10:12:43Z</time>
      </trkpt>
      <trkpt lat="45.98801" lon="4.81888">
        <ele>239</ele>
        <time>2018-10-16T10:12:44Z</time>
      </trkpt>
      <trkpt lat="45.988" lon="4.81882">
        <ele>239</ele>
        <time>2018-10-16T10:12:45Z</time>
      </trkpt>
      <trkpt lat="45.98799" lon="4.81873">
        <ele>239</ele>
        <time>2018-10-16T10:12:46Z</time>
      </trkpt>
      <trkpt lat="45.98797" lon="4.81866">
        <ele>239</ele>
        <time>2018-10-16T10:12:47Z</time>
      </trkpt>
      <trkpt lat="45.98792" lon="4.81858">
        <ele>239</ele>
        <time>2018-10-16T10:12:49Z</time>
      </trkpt>
      <trkpt lat="45.98789" lon="4.81856">
        <ele>239</ele>
        <time>2018-10-16T10:12:50Z</time>
      </trkpt>
      <trkpt lat="45.98786" lon="4.8185">
        <ele>239</ele>
        <time>2018-10-16T10:12:51Z</time>
      </trkpt>
      <trkpt lat="45.98785" lon="4.81842">
        <ele>239</ele>
        <time>2018-10-16T10:12:52Z</time>
      </trkpt>
      <trkpt lat="45.98782" lon="4.8183">
        <ele>240</ele>
        <time>2018-10-16T10:12:54Z</time>
      </trkpt>
      <trkpt lat="45.98778" lon="4.81824">
        <ele>240</ele>
        <time>2018-10-16T10:12:55Z</time>
      </trkpt>
      <trkpt lat="45.98775" lon="4.81812">
        <ele>240</ele>
        <time>2018-10-16T10:12:57Z</time>
      </trkpt>
      <trkpt lat="45.98773" lon="4.81809">
        <ele>240</ele>
        <time>2018-10-16T10:12:58Z</time>
      </trkpt>
      <trkpt lat="45.9877" lon="4.81801">
        <ele>240</ele>
        <time>2018-10-16T10:13:00Z</time>
      </trkpt>
      <trkpt lat="45.98767" lon="4.81794">
        <ele>241</ele>
        <time>2018-10-16T10:13:01Z</time>
      </trkpt>
      <trkpt lat="45.98761" lon="4.81784">
        <ele>241</ele>
        <time>2018-10-16T10:13:03Z</time>
      </trkpt>
      <trkpt lat="45.98758" lon="4.81778">
        <ele>241</ele>
        <time>2018-10-16T10:13:04Z</time>
      </trkpt>
      <trkpt lat="45.98754" lon="4.81769">
        <ele>241</ele>
        <time>2018-10-16T10:13:06Z</time>
      </trkpt>
      <trkpt lat="45.98754" lon="4.81767">
        <ele>241</ele>
        <time>2018-10-16T10:13:07Z</time>
      </trkpt>
      <trkpt lat="45.98751" lon="4.8176">
        <ele>241</ele>
        <time>2018-10-16T10:13:08Z</time>
      </trkpt>
      <trkpt lat="45.98749" lon="4.81754">
        <ele>241</ele>
        <time>2018-10-16T10:13:09Z</time>
      </trkpt>
      <trkpt lat="45.98746" lon="4.81747">
        <ele>241</ele>
        <time>2018-10-16T10:13:10Z</time>
      </trkpt>
      <trkpt lat="45.98742" lon="4.81741">
        <ele>240</ele>
        <time>2018-10-16T10:13:11Z</time>
      </trkpt>
      <trkpt lat="45.98738" lon="4.81736">
        <ele>240</ele>
        <time>2018-10-16T10:13:12Z</time>
      </trkpt>
      <trkpt lat="45.98734" lon="4.81733">
        <ele>239</ele>
        <time>2018-10-16T10:13:13Z</time>
      </trkpt>
      <trkpt lat="45.98726" lon="4.81731">
        <ele>239</ele>
        <time>2018-10-16T10:13:14Z</time>
      </trkpt>
      <trkpt lat="45.98722" lon="4.8173">
        <ele>239</ele>
        <time>2018-10-16T10:13:15Z</time>
      </trkpt>
      <trkpt lat="45.98717" lon="4.81731">
        <ele>239</ele>
        <time>2018-10-16T10:13:16Z</time>
      </trkpt>
      <trkpt lat="45.98713" lon="4.81731">
        <ele>239</ele>
        <time>2018-10-16T10:13:17Z</time>
      </trkpt>
      <trkpt lat="45.98707" lon="4.81731">
        <ele>239</ele>
        <time>2018-10-16T10:13:18Z</time>
      </trkpt>
      <trkpt lat="45.98702" lon="4.81732">
        <ele>239</ele>
        <time>2018-10-16T10:13:19Z</time>
      </trkpt>
      <trkpt lat="45.98696" lon="4.81733">
        <ele>239</ele>
        <time>2018-10-16T10:13:20Z</time>
      </trkpt>
      <trkpt lat="45.98689" lon="4.81735">
        <ele>238</ele>
        <time>2018-10-16T10:13:21Z</time>
      </trkpt>
      <trkpt lat="45.98681" lon="4.81738">
        <ele>238</ele>
        <time>2018-10-16T10:13:23Z</time>
      </trkpt>
      <trkpt lat="45.98677" lon="4.81739">
        <ele>238</ele>
        <time>2018-10-16T10:13:24Z</time>
      </trkpt>
      <trkpt lat="45.9867" lon="4.81741">
        <ele>238</ele>
        <time>2018-10-16T10:13:28Z</time>
      </trkpt>
      <trkpt lat="45.98659" lon="4.81742">
        <ele>237</ele>
        <time>2018-10-16T10:13:29Z</time>
      </trkpt>
      <trkpt lat="45.98651" lon="4.81743">
        <ele>237</ele>
        <time>2018-10-16T10:13:31Z</time>
      </trkpt>
      <trkpt lat="45.98649" lon="4.81742">
        <ele>237</ele>
        <time>2018-10-16T10:13:32Z</time>
      </trkpt>
      <trkpt lat="45.98642" lon="4.81744">
        <ele>237</ele>
        <time>2018-10-16T10:13:34Z</time>
      </trkpt>
      <trkpt lat="45.98637" lon="4.81746">
        <ele>237</ele>
        <time>2018-10-16T10:13:35Z</time>
      </trkpt>
      <trkpt lat="45.9863" lon="4.81749">
        <ele>237</ele>
        <time>2018-10-16T10:13:37Z</time>
      </trkpt>
      <trkpt lat="45.98626" lon="4.81756">
        <ele>238</ele>
        <time>2018-10-16T10:13:38Z</time>
      </trkpt>
      <trkpt lat="45.98622" lon="4.81757">
        <ele>238</ele>
        <time>2018-10-16T10:13:39Z</time>
      </trkpt>
      <trkpt lat="45.98616" lon="4.81758">
        <ele>238</ele>
        <time>2018-10-16T10:13:40Z</time>
      </trkpt>
      <trkpt lat="45.98612" lon="4.81759">
        <ele>238</ele>
        <time>2018-10-16T10:13:41Z</time>
      </trkpt>
      <trkpt lat="45.98607" lon="4.8176">
        <ele>238</ele>
        <time>2018-10-16T10:13:42Z</time>
      </trkpt>
      <trkpt lat="45.98601" lon="4.81763">
        <ele>238</ele>
        <time>2018-10-16T10:13:43Z</time>
      </trkpt>
      <trkpt lat="45.98595" lon="4.81765">
        <ele>238</ele>
        <time>2018-10-16T10:13:44Z</time>
      </trkpt>
      <trkpt lat="45.98591" lon="4.8177">
        <ele>238</ele>
        <time>2018-10-16T10:13:45Z</time>
      </trkpt>
      <trkpt lat="45.98586" lon="4.81774">
        <ele>238</ele>
        <time>2018-10-16T10:13:46Z</time>
      </trkpt>
      <trkpt lat="45.98581" lon="4.81778">
        <ele>238</ele>
        <time>2018-10-16T10:13:47Z</time>
      </trkpt>
      <trkpt lat="45.98577" lon="4.81784">
        <ele>238</ele>
        <time>2018-10-16T10:13:48Z</time>
      </trkpt>
      <trkpt lat="45.98571" lon="4.81792">
        <ele>238</ele>
        <time>2018-10-16T10:13:50Z</time>
      </trkpt>
      <trkpt lat="45.98567" lon="4.81797">
        <ele>238</ele>
        <time>2018-10-16T10:13:51Z</time>
      </trkpt>
      <trkpt lat="45.98562" lon="4.81801">
        <ele>238</ele>
        <time>2018-10-16T10:13:52Z</time>
      </trkpt>
      <trkpt lat="45.98558" lon="4.81805">
        <ele>238</ele>
        <time>2018-10-16T10:13:53Z</time>
      </trkpt>
      <trkpt lat="45.9855" lon="4.81807">
        <ele>238</ele>
        <time>2018-10-16T10:13:55Z</time>
      </trkpt>
      <trkpt lat="45.98546" lon="4.81806">
        <ele>238</ele>
        <time>2018-10-16T10:13:56Z</time>
      </trkpt>
      <trkpt lat="45.98542" lon="4.81803">
        <ele>238</ele>
        <time>2018-10-16T10:13:57Z</time>
      </trkpt>
      <trkpt lat="45.98537" lon="4.81797">
        <ele>238</ele>
        <time>2018-10-16T10:13:58Z</time>
      </trkpt>
      <trkpt lat="45.98532" lon="4.81793">
        <ele>238</ele>
        <time>2018-10-16T10:13:59Z</time>
      </trkpt>
      <trkpt lat="45.9853" lon="4.81786">
        <ele>238</ele>
        <time>2018-10-16T10:14:00Z</time>
      </trkpt>
      <trkpt lat="45.98526" lon="4.81782">
        <ele>238</ele>
        <time>2018-10-16T10:14:01Z</time>
      </trkpt>
      <trkpt lat="45.98523" lon="4.81777">
        <ele>238</ele>
        <time>2018-10-16T10:14:02Z</time>
      </trkpt>
      <trkpt lat="45.98519" lon="4.81772">
        <ele>238</ele>
        <time>2018-10-16T10:14:03Z</time>
      </trkpt>
      <trkpt lat="45.98516" lon="4.81768">
        <ele>237</ele>
        <time>2018-10-16T10:14:04Z</time>
      </trkpt>
      <trkpt lat="45.9851" lon="4.81759">
        <ele>237</ele>
        <time>2018-10-16T10:14:06Z</time>
      </trkpt>
      <trkpt lat="45.98506" lon="4.81756">
        <ele>237</ele>
        <time>2018-10-16T10:14:07Z</time>
      </trkpt>
      <trkpt lat="45.98499" lon="4.81749">
        <ele>237</ele>
        <time>2018-10-16T10:14:09Z</time>
      </trkpt>
      <trkpt lat="45.98497" lon="4.81747">
        <ele>237</ele>
        <time>2018-10-16T10:14:10Z</time>
      </trkpt>
      <trkpt lat="45.98491" lon="4.81742">
        <ele>238</ele>
        <time>2018-10-16T10:14:11Z</time>
      </trkpt>
      <trkpt lat="45.98488" lon="4.8174">
        <ele>238</ele>
        <time>2018-10-16T10:14:12Z</time>
      </trkpt>
      <trkpt lat="45.98484" lon="4.81736">
        <ele>238</ele>
        <time>2018-10-16T10:14:13Z</time>
      </trkpt>
      <trkpt lat="45.98481" lon="4.81733">
        <ele>238</ele>
        <time>2018-10-16T10:14:14Z</time>
      </trkpt>
      <trkpt lat="45.98474" lon="4.81726">
        <ele>239</ele>
        <time>2018-10-16T10:14:17Z</time>
      </trkpt>
      <trkpt lat="45.98472" lon="4.81724">
        <ele>239</ele>
        <time>2018-10-16T10:14:18Z</time>
      </trkpt>
      <trkpt lat="45.98467" lon="4.81715">
        <ele>239</ele>
        <time>2018-10-16T10:14:21Z</time>
      </trkpt>
      <trkpt lat="45.98465" lon="4.81712">
        <ele>239</ele>
        <time>2018-10-16T10:14:22Z</time>
      </trkpt>
      <trkpt lat="45.98459" lon="4.81704">
        <ele>239</ele>
        <time>2018-10-16T10:14:25Z</time>
      </trkpt>
      <trkpt lat="45.98457" lon="4.81701">
        <ele>239</ele>
        <time>2018-10-16T10:14:26Z</time>
      </trkpt>
      <trkpt lat="45.98453" lon="4.81694">
        <ele>239</ele>
        <time>2018-10-16T10:14:28Z</time>
      </trkpt>
      <trkpt lat="45.98451" lon="4.81689">
        <ele>239</ele>
        <time>2018-10-16T10:14:29Z</time>
      </trkpt>
      <trkpt lat="45.98449" lon="4.81686">
        <ele>239</ele>
        <time>2018-10-16T10:14:30Z</time>
      </trkpt>
      <trkpt lat="45.98444" lon="4.81676">
        <ele>239</ele>
        <time>2018-10-16T10:14:31Z</time>
      </trkpt>
      <trkpt lat="45.98437" lon="4.81669">
        <ele>240</ele>
        <time>2018-10-16T10:14:33Z</time>
      </trkpt>
      <trkpt lat="45.98432" lon="4.81667">
        <ele>239</ele>
        <time>2018-10-16T10:14:34Z</time>
      </trkpt>
      <trkpt lat="45.98424" lon="4.81664">
        <ele>240</ele>
        <time>2018-10-16T10:14:36Z</time>
      </trkpt>
      <trkpt lat="45.98419" lon="4.81663">
        <ele>240</ele>
        <time>2018-10-16T10:14:37Z</time>
      </trkpt>
      <trkpt lat="45.98411" lon="4.81664">
        <ele>241</ele>
        <time>2018-10-16T10:14:39Z</time>
      </trkpt>
      <trkpt lat="45.98407" lon="4.81664">
        <ele>241</ele>
        <time>2018-10-16T10:14:40Z</time>
      </trkpt>
      <trkpt lat="45.98399" lon="4.81666">
        <ele>242</ele>
        <time>2018-10-16T10:14:42Z</time>
      </trkpt>
      <trkpt lat="45.98397" lon="4.81667">
        <ele>243</ele>
        <time>2018-10-16T10:14:43Z</time>
      </trkpt>
      <trkpt lat="45.98392" lon="4.81669">
        <ele>243</ele>
        <time>2018-10-16T10:14:44Z</time>
      </trkpt>
      <trkpt lat="45.98388" lon="4.8167">
        <ele>243</ele>
        <time>2018-10-16T10:14:45Z</time>
      </trkpt>
      <trkpt lat="45.9838" lon="4.81673">
        <ele>244</ele>
        <time>2018-10-16T10:14:47Z</time>
      </trkpt>
      <trkpt lat="45.98376" lon="4.81674">
        <ele>244</ele>
        <time>2018-10-16T10:14:48Z</time>
      </trkpt>
      <trkpt lat="45.98368" lon="4.81676">
        <ele>244</ele>
        <time>2018-10-16T10:14:50Z</time>
      </trkpt>
      <trkpt lat="45.98363" lon="4.81677">
        <ele>244</ele>
        <time>2018-10-16T10:14:51Z</time>
      </trkpt>
      <trkpt lat="45.98355" lon="4.81678">
        <ele>245</ele>
        <time>2018-10-16T10:14:53Z</time>
      </trkpt>
      <trkpt lat="45.98351" lon="4.81678">
        <ele>245</ele>
        <time>2018-10-16T10:14:54Z</time>
      </trkpt>
      <trkpt lat="45.98343" lon="4.81677">
        <ele>245</ele>
        <time>2018-10-16T10:14:56Z</time>
      </trkpt>
      <trkpt lat="45.98339" lon="4.81675">
        <ele>245</ele>
        <time>2018-10-16T10:14:57Z</time>
      </trkpt>
      <trkpt lat="45.98333" lon="4.81672">
        <ele>246</ele>
        <time>2018-10-16T10:14:59Z</time>
      </trkpt>
      <trkpt lat="45.98329" lon="4.8167">
        <ele>246</ele>
        <time>2018-10-16T10:15:00Z</time>
      </trkpt>
      <trkpt lat="45.98321" lon="4.81666">
        <ele>246</ele>
        <time>2018-10-16T10:15:02Z</time>
      </trkpt>
      <trkpt lat="45.98318" lon="4.81663">
        <ele>246</ele>
        <time>2018-10-16T10:15:03Z</time>
      </trkpt>
      <trkpt lat="45.9831" lon="4.81657">
        <ele>246</ele>
        <time>2018-10-16T10:15:05Z</time>
      </trkpt>
      <trkpt lat="45.98307" lon="4.81654">
        <ele>246</ele>
        <time>2018-10-16T10:15:06Z</time>
      </trkpt>
      <trkpt lat="45.98304" lon="4.81649">
        <ele>246</ele>
        <time>2018-10-16T10:15:07Z</time>
      </trkpt>
      <trkpt lat="45.983" lon="4.81645">
        <ele>247</ele>
        <time>2018-10-16T10:15:08Z</time>
      </trkpt>
      <trkpt lat="45.98293" lon="4.81637">
        <ele>247</ele>
        <time>2018-10-16T10:15:10Z</time>
      </trkpt>
      <trkpt lat="45.98291" lon="4.81633">
        <ele>247</ele>
        <time>2018-10-16T10:15:11Z</time>
      </trkpt>
      <trkpt lat="45.98285" lon="4.81624">
        <ele>247</ele>
        <time>2018-10-16T10:15:13Z</time>
      </trkpt>
      <trkpt lat="45.98282" lon="4.8162">
        <ele>247</ele>
        <time>2018-10-16T10:15:14Z</time>
      </trkpt>
      <trkpt lat="45.98278" lon="4.81609">
        <ele>247</ele>
        <time>2018-10-16T10:15:16Z</time>
      </trkpt>
      <trkpt lat="45.98276" lon="4.81604">
        <ele>247</ele>
        <time>2018-10-16T10:15:17Z</time>
      </trkpt>
      <trkpt lat="45.98271" lon="4.81593">
        <ele>247</ele>
        <time>2018-10-16T10:15:19Z</time>
      </trkpt>
      <trkpt lat="45.98268" lon="4.81587">
        <ele>247</ele>
        <time>2018-10-16T10:15:20Z</time>
      </trkpt>
      <trkpt lat="45.98265" lon="4.81575">
        <ele>247</ele>
        <time>2018-10-16T10:15:22Z</time>
      </trkpt>
      <trkpt lat="45.98263" lon="4.8157">
        <ele>247</ele>
        <time>2018-10-16T10:15:23Z</time>
      </trkpt>
      <trkpt lat="45.98259" lon="4.81558">
        <ele>247</ele>
        <time>2018-10-16T10:15:25Z</time>
      </trkpt>
      <trkpt lat="45.98257" lon="4.81553">
        <ele>247</ele>
        <time>2018-10-16T10:15:26Z</time>
      </trkpt>
      <trkpt lat="45.98256" lon="4.81542">
        <ele>247</ele>
        <time>2018-10-16T10:15:28Z</time>
      </trkpt>
      <trkpt lat="45.98255" lon="4.81537">
        <ele>247</ele>
        <time>2018-10-16T10:15:29Z</time>
      </trkpt>
      <trkpt lat="45.98253" lon="4.81525">
        <ele>247</ele>
        <time>2018-10-16T10:15:31Z</time>
      </trkpt>
      <trkpt lat="45.98251" lon="4.8152">
        <ele>247</ele>
        <time>2018-10-16T10:15:32Z</time>
      </trkpt>
      <trkpt lat="45.98248" lon="4.81512">
        <ele>249</ele>
        <time>2018-10-16T10:15:33Z</time>
      </trkpt>
      <trkpt lat="45.98246" lon="4.81506">
        <ele>249</ele>
        <time>2018-10-16T10:15:34Z</time>
      </trkpt>
      <trkpt lat="45.98242" lon="4.81495">
        <ele>249</ele>
        <time>2018-10-16T10:15:36Z</time>
      </trkpt>
      <trkpt lat="45.9824" lon="4.81489">
        <ele>249</ele>
        <time>2018-10-16T10:15:37Z</time>
      </trkpt>
      <trkpt lat="45.98237" lon="4.81478">
        <ele>249</ele>
        <time>2018-10-16T10:15:39Z</time>
      </trkpt>
      <trkpt lat="45.98236" lon="4.81475">
        <ele>249</ele>
        <time>2018-10-16T10:15:40Z</time>
      </trkpt>
      <trkpt lat="45.98233" lon="4.81469">
        <ele>249</ele>
        <time>2018-10-16T10:15:42Z</time>
      </trkpt>
      <trkpt lat="45.98229" lon="4.81459">
        <ele>249</ele>
        <time>2018-10-16T10:15:43Z</time>
      </trkpt>
      <trkpt lat="45.98225" lon="4.81447">
        <ele>249</ele>
        <time>2018-10-16T10:15:45Z</time>
      </trkpt>
      <trkpt lat="45.98224" lon="4.81441">
        <ele>249</ele>
        <time>2018-10-16T10:15:46Z</time>
      </trkpt>
      <trkpt lat="45.98219" lon="4.8143">
        <ele>249</ele>
        <time>2018-10-16T10:15:48Z</time>
      </trkpt>
      <trkpt lat="45.98217" lon="4.81423">
        <ele>249</ele>
        <time>2018-10-16T10:15:49Z</time>
      </trkpt>
      <trkpt lat="45.98214" lon="4.81417">
        <ele>249</ele>
        <time>2018-10-16T10:15:50Z</time>
      </trkpt>
      <trkpt lat="45.98212" lon="4.81411">
        <ele>248</ele>
        <time>2018-10-16T10:15:51Z</time>
      </trkpt>
      <trkpt lat="45.9821" lon="4.81404">
        <ele>248</ele>
        <time>2018-10-16T10:15:52Z</time>
      </trkpt>
      <trkpt lat="45.98208" lon="4.81397">
        <ele>248</ele>
        <time>2018-10-16T10:15:53Z</time>
      </trkpt>
      <trkpt lat="45.98206" lon="4.81391">
        <ele>248</ele>
        <time>2018-10-16T10:15:54Z</time>
      </trkpt>
      <trkpt lat="45.98204" lon="4.81384">
        <ele>248</ele>
        <time>2018-10-16T10:15:55Z</time>
      </trkpt>
      <trkpt lat="45.98203" lon="4.81378">
        <ele>248</ele>
        <time>2018-10-16T10:15:56Z</time>
      </trkpt>
      <trkpt lat="45.98201" lon="4.81371">
        <ele>248</ele>
        <time>2018-10-16T10:15:57Z</time>
      </trkpt>
      <trkpt lat="45.98199" lon="4.81365">
        <ele>248</ele>
        <time>2018-10-16T10:15:58Z</time>
      </trkpt>
      <trkpt lat="45.98197" lon="4.81358">
        <ele>248</ele>
        <time>2018-10-16T10:15:59Z</time>
      </trkpt>
      <trkpt lat="45.98195" lon="4.81351">
        <ele>248</ele>
        <time>2018-10-16T10:16:00Z</time>
      </trkpt>
      <trkpt lat="45.98194" lon="4.81343">
        <ele>248</ele>
        <time>2018-10-16T10:16:01Z</time>
      </trkpt>
      <trkpt lat="45.98192" lon="4.81336">
        <ele>248</ele>
        <time>2018-10-16T10:16:02Z</time>
      </trkpt>
      <trkpt lat="45.98191" lon="4.81328">
        <ele>247</ele>
        <time>2018-10-16T10:16:03Z</time>
      </trkpt>
      <trkpt lat="45.98188" lon="4.8132">
        <ele>247</ele>
        <time>2018-10-16T10:16:04Z</time>
      </trkpt>
      <trkpt lat="45.98188" lon="4.81313">
        <ele>247</ele>
        <time>2018-10-16T10:16:05Z</time>
      </trkpt>
      <trkpt lat="45.98187" lon="4.81304">
        <ele>247</ele>
        <time>2018-10-16T10:16:06Z</time>
      </trkpt>
      <trkpt lat="45.98185" lon="4.81297">
        <ele>247</ele>
        <time>2018-10-16T10:16:07Z</time>
      </trkpt>
      <trkpt lat="45.98183" lon="4.81289">
        <ele>247</ele>
        <time>2018-10-16T10:16:08Z</time>
      </trkpt>
      <trkpt lat="45.98182" lon="4.8128">
        <ele>247</ele>
        <time>2018-10-16T10:16:09Z</time>
      </trkpt>
      <trkpt lat="45.98181" lon="4.81271">
        <ele>247</ele>
        <time>2018-10-16T10:16:10Z</time>
      </trkpt>
      <trkpt lat="45.9818" lon="4.81263">
        <ele>247</ele>
        <time>2018-10-16T10:16:11Z</time>
      </trkpt>
      <trkpt lat="45.98179" lon="4.81254">
        <ele>247</ele>
        <time>2018-10-16T10:16:12Z</time>
      </trkpt>
      <trkpt lat="45.98178" lon="4.81247">
        <ele>247</ele>
        <time>2018-10-16T10:16:13Z</time>
      </trkpt>
      <trkpt lat="45.98176" lon="4.81238">
        <ele>247</ele>
        <time>2018-10-16T10:16:14Z</time>
      </trkpt>
      <trkpt lat="45.98175" lon="4.8123">
        <ele>246</ele>
        <time>2018-10-16T10:16:15Z</time>
      </trkpt>
      <trkpt lat="45.98176" lon="4.81217">
        <ele>246</ele>
        <time>2018-10-16T10:16:17Z</time>
      </trkpt>
      <trkpt lat="45.98176" lon="4.81209">
        <ele>246</ele>
        <time>2018-10-16T10:16:18Z</time>
      </trkpt>
      <trkpt lat="45.98176" lon="4.81198">
        <ele>245</ele>
        <time>2018-10-16T10:16:19Z</time>
      </trkpt>
      <trkpt lat="45.98174" lon="4.81189">
        <ele>245</ele>
        <time>2018-10-16T10:16:20Z</time>
      </trkpt>
      <trkpt lat="45.98172" lon="4.81181">
        <ele>245</ele>
        <time>2018-10-16T10:16:21Z</time>
      </trkpt>
      <trkpt lat="45.9817" lon="4.81172">
        <ele>245</ele>
        <time>2018-10-16T10:16:22Z</time>
      </trkpt>
      <trkpt lat="45.98168" lon="4.81164">
        <ele>245</ele>
        <time>2018-10-16T10:16:23Z</time>
      </trkpt>
      <trkpt lat="45.98166" lon="4.81156">
        <ele>245</ele>
        <time>2018-10-16T10:16:24Z</time>
      </trkpt>
      <trkpt lat="45.98162" lon="4.81147">
        <ele>245</ele>
        <time>2018-10-16T10:16:25Z</time>
      </trkpt>
      <trkpt lat="45.98157" lon="4.8114">
        <ele>245</ele>
        <time>2018-10-16T10:16:26Z</time>
      </trkpt>
      <trkpt lat="45.98154" lon="4.81133">
        <ele>245</ele>
        <time>2018-10-16T10:16:27Z</time>
      </trkpt>
      <trkpt lat="45.98151" lon="4.81124">
        <ele>245</ele>
        <time>2018-10-16T10:16:28Z</time>
      </trkpt>
      <trkpt lat="45.98148" lon="4.81116">
        <ele>245</ele>
        <time>2018-10-16T10:16:29Z</time>
      </trkpt>
      <trkpt lat="45.98145" lon="4.81108">
        <ele>245</ele>
        <time>2018-10-16T10:16:30Z</time>
      </trkpt>
      <trkpt lat="45.98142" lon="4.81099">
        <ele>245</ele>
        <time>2018-10-16T10:16:31Z</time>
      </trkpt>
      <trkpt lat="45.98137" lon="4.81091">
        <ele>245</ele>
        <time>2018-10-16T10:16:32Z</time>
      </trkpt>
      <trkpt lat="45.98133" lon="4.81084">
        <ele>245</ele>
        <time>2018-10-16T10:16:33Z</time>
      </trkpt>
      <trkpt lat="45.9813" lon="4.81075">
        <ele>243</ele>
        <time>2018-10-16T10:16:34Z</time>
      </trkpt>
      <trkpt lat="45.98126" lon="4.81069">
        <ele>243</ele>
        <time>2018-10-16T10:16:35Z</time>
      </trkpt>
      <trkpt lat="45.98124" lon="4.81061">
        <ele>243</ele>
        <time>2018-10-16T10:16:36Z</time>
      </trkpt>
      <trkpt lat="45.98122" lon="4.81053">
        <ele>243</ele>
        <time>2018-10-16T10:16:37Z</time>
      </trkpt>
      <trkpt lat="45.9812" lon="4.81045">
        <ele>242</ele>
        <time>2018-10-16T10:16:38Z</time>
      </trkpt>
      <trkpt lat="45.98117" lon="4.81038">
        <ele>242</ele>
        <time>2018-10-16T10:16:39Z</time>
      </trkpt>
      <trkpt lat="45.98114" lon="4.81031">
        <ele>242</ele>
        <time>2018-10-16T10:16:40Z</time>
      </trkpt>
      <trkpt lat="45.98112" lon="4.81023">
        <ele>242</ele>
        <time>2018-10-16T10:16:41Z</time>
      </trkpt>
      <trkpt lat="45.98111" lon="4.81016">
        <ele>242</ele>
        <time>2018-10-16T10:16:42Z</time>
      </trkpt>
      <trkpt lat="45.98108" lon="4.81009">
        <ele>242</ele>
        <time>2018-10-16T10:16:43Z</time>
      </trkpt>
      <trkpt lat="45.98107" lon="4.81003">
        <ele>242</ele>
        <time>2018-10-16T10:16:44Z</time>
      </trkpt>
      <trkpt lat="45.98104" lon="4.80996">
        <ele>240</ele>
        <time>2018-10-16T10:16:45Z</time>
      </trkpt>
      <trkpt lat="45.98102" lon="4.80991">
        <ele>240</ele>
        <time>2018-10-16T10:16:46Z</time>
      </trkpt>
      <trkpt lat="45.98101" lon="4.80985">
        <ele>239</ele>
        <time>2018-10-16T10:16:47Z</time>
      </trkpt>
      <trkpt lat="45.98096" lon="4.8098">
        <ele>239</ele>
        <time>2018-10-16T10:16:48Z</time>
      </trkpt>
      <trkpt lat="45.98096" lon="4.80974">
        <ele>239</ele>
        <time>2018-10-16T10:16:49Z</time>
      </trkpt>
      <trkpt lat="45.98092" lon="4.80966">
        <ele>239</ele>
        <time>2018-10-16T10:16:50Z</time>
      </trkpt>
      <trkpt lat="45.98088" lon="4.80957">
        <ele>239</ele>
        <time>2018-10-16T10:16:51Z</time>
      </trkpt>
      <trkpt lat="45.98084" lon="4.80949">
        <ele>238</ele>
        <time>2018-10-16T10:16:52Z</time>
      </trkpt>
      <trkpt lat="45.98081" lon="4.8094">
        <ele>240</ele>
        <time>2018-10-16T10:16:53Z</time>
      </trkpt>
      <trkpt lat="45.9808" lon="4.8093">
        <ele>240</ele>
        <time>2018-10-16T10:16:54Z</time>
      </trkpt>
      <trkpt lat="45.98078" lon="4.80919">
        <ele>239</ele>
        <time>2018-10-16T10:16:55Z</time>
      </trkpt>
      <trkpt lat="45.98075" lon="4.80908">
        <ele>238</ele>
        <time>2018-10-16T10:16:56Z</time>
      </trkpt>
      <trkpt lat="45.98073" lon="4.80897">
        <ele>238</ele>
        <time>2018-10-16T10:16:57Z</time>
      </trkpt>
      <trkpt lat="45.98071" lon="4.80886">
        <ele>237</ele>
        <time>2018-10-16T10:16:58Z</time>
      </trkpt>
      <trkpt lat="45.98069" lon="4.80875">
        <ele>237</ele>
        <time>2018-10-16T10:16:59Z</time>
      </trkpt>
      <trkpt lat="45.98066" lon="4.80864">
        <ele>237</ele>
        <time>2018-10-16T10:17:00Z</time>
      </trkpt>
      <trkpt lat="45.98061" lon="4.80853">
        <ele>236</ele>
        <time>2018-10-16T10:17:01Z</time>
      </trkpt>
      <trkpt lat="45.98059" lon="4.80842">
        <ele>236</ele>
        <time>2018-10-16T10:17:02Z</time>
      </trkpt>
      <trkpt lat="45.98056" lon="4.80831">
        <ele>234</ele>
        <time>2018-10-16T10:17:03Z</time>
      </trkpt>
      <trkpt lat="45.98055" lon="4.80819">
        <ele>234</ele>
        <time>2018-10-16T10:17:04Z</time>
      </trkpt>
      <trkpt lat="45.98052" lon="4.80809">
        <ele>234</ele>
        <time>2018-10-16T10:17:05Z</time>
      </trkpt>
      <trkpt lat="45.9805" lon="4.80798">
        <ele>234</ele>
        <time>2018-10-16T10:17:06Z</time>
      </trkpt>
      <trkpt lat="45.98047" lon="4.80789">
        <ele>233</ele>
        <time>2018-10-16T10:17:07Z</time>
      </trkpt>
      <trkpt lat="45.98046" lon="4.80781">
        <ele>233</ele>
        <time>2018-10-16T10:17:08Z</time>
      </trkpt>
      <trkpt lat="45.98044" lon="4.80773">
        <ele>233</ele>
        <time>2018-10-16T10:17:09Z</time>
      </trkpt>
      <trkpt lat="45.98042" lon="4.80766">
        <ele>233</ele>
        <time>2018-10-16T10:17:10Z</time>
      </trkpt>
      <trkpt lat="45.9804" lon="4.80758">
        <ele>233</ele>
        <time>2018-10-16T10:17:11Z</time>
      </trkpt>
      <trkpt lat="45.98038" lon="4.80752">
        <ele>233</ele>
        <time>2018-10-16T10:17:12Z</time>
      </trkpt>
      <trkpt lat="45.98036" lon="4.80745">
        <ele>231</ele>
        <time>2018-10-16T10:17:13Z</time>
      </trkpt>
      <trkpt lat="45.98033" lon="4.80738">
        <ele>231</ele>
        <time>2018-10-16T10:17:14Z</time>
      </trkpt>
      <trkpt lat="45.98031" lon="4.80731">
        <ele>231</ele>
        <time>2018-10-16T10:17:15Z</time>
      </trkpt>
      <trkpt lat="45.98029" lon="4.8072">
        <ele>231</ele>
        <time>2018-10-16T10:17:18Z</time>
      </trkpt>
      <trkpt lat="45.98029" lon="4.80717">
        <ele>231</ele>
        <time>2018-10-16T10:17:19Z</time>
      </trkpt>
      <trkpt lat="45.98028" lon="4.80707">
        <ele>231</ele>
        <time>2018-10-16T10:17:20Z</time>
      </trkpt>
      <trkpt lat="45.98029" lon="4.80701">
        <ele>231</ele>
        <time>2018-10-16T10:17:21Z</time>
      </trkpt>
      <trkpt lat="45.98038" lon="4.80699">
        <ele>230</ele>
        <time>2018-10-16T10:17:23Z</time>
      </trkpt>
      <trkpt lat="45.98043" lon="4.80699">
        <ele>230</ele>
        <time>2018-10-16T10:17:24Z</time>
      </trkpt>
      <trkpt lat="45.98048" lon="4.80699">
        <ele>230</ele>
        <time>2018-10-16T10:17:25Z</time>
      </trkpt>
      <trkpt lat="45.98054" lon="4.80698">
        <ele>230</ele>
        <time>2018-10-16T10:17:26Z</time>
      </trkpt>
      <trkpt lat="45.98059" lon="4.80697">
        <ele>230</ele>
        <time>2018-10-16T10:17:27Z</time>
      </trkpt>
      <trkpt lat="45.98065" lon="4.80697">
        <ele>230</ele>
        <time>2018-10-16T10:17:28Z</time>
      </trkpt>
      <trkpt lat="45.98072" lon="4.80697">
        <ele>230</ele>
        <time>2018-10-16T10:17:29Z</time>
      </trkpt>
      <trkpt lat="45.98079" lon="4.80696">
        <ele>230</ele>
        <time>2018-10-16T10:17:30Z</time>
      </trkpt>
      <trkpt lat="45.98085" lon="4.80696">
        <ele>228</ele>
        <time>2018-10-16T10:17:31Z</time>
      </trkpt>
      <trkpt lat="45.98092" lon="4.80696">
        <ele>228</ele>
        <time>2018-10-16T10:17:32Z</time>
      </trkpt>
      <trkpt lat="45.98098" lon="4.80696">
        <ele>228</ele>
        <time>2018-10-16T10:17:33Z</time>
      </trkpt>
      <trkpt lat="45.98105" lon="4.80697">
        <ele>228</ele>
        <time>2018-10-16T10:17:34Z</time>
      </trkpt>
      <trkpt lat="45.98113" lon="4.80696">
        <ele>228</ele>
        <time>2018-10-16T10:17:35Z</time>
      </trkpt>
      <trkpt lat="45.9812" lon="4.80696">
        <ele>228</ele>
        <time>2018-10-16T10:17:36Z</time>
      </trkpt>
      <trkpt lat="45.98127" lon="4.80696">
        <ele>228</ele>
        <time>2018-10-16T10:17:37Z</time>
      </trkpt>
      <trkpt lat="45.98134" lon="4.80693">
        <ele>228</ele>
        <time>2018-10-16T10:17:38Z</time>
      </trkpt>
      <trkpt lat="45.98142" lon="4.80693">
        <ele>228</ele>
        <time>2018-10-16T10:17:39Z</time>
      </trkpt>
      <trkpt lat="45.98149" lon="4.80692">
        <ele>228</ele>
        <time>2018-10-16T10:17:40Z</time>
      </trkpt>
      <trkpt lat="45.98155" lon="4.80691">
        <ele>227</ele>
        <time>2018-10-16T10:17:41Z</time>
      </trkpt>
      <trkpt lat="45.98161" lon="4.80689">
        <ele>227</ele>
        <time>2018-10-16T10:17:42Z</time>
      </trkpt>
      <trkpt lat="45.98167" lon="4.80689">
        <ele>225</ele>
        <time>2018-10-16T10:17:43Z</time>
      </trkpt>
      <trkpt lat="45.98174" lon="4.80688">
        <ele>225</ele>
        <time>2018-10-16T10:17:44Z</time>
      </trkpt>
      <trkpt lat="45.98181" lon="4.80686">
        <ele>225</ele>
        <time>2018-10-16T10:17:45Z</time>
      </trkpt>
      <trkpt lat="45.98188" lon="4.80684">
        <ele>225</ele>
        <time>2018-10-16T10:17:46Z</time>
      </trkpt>
      <trkpt lat="45.98196" lon="4.80682">
        <ele>225</ele>
        <time>2018-10-16T10:17:47Z</time>
      </trkpt>
      <trkpt lat="45.98203" lon="4.8068">
        <ele>225</ele>
        <time>2018-10-16T10:17:48Z</time>
      </trkpt>
      <trkpt lat="45.98211" lon="4.80675">
        <ele>224</ele>
        <time>2018-10-16T10:17:49Z</time>
      </trkpt>
      <trkpt lat="45.98217" lon="4.80671">
        <ele>224</ele>
        <time>2018-10-16T10:17:50Z</time>
      </trkpt>
      <trkpt lat="45.98221" lon="4.80666">
        <ele>224</ele>
        <time>2018-10-16T10:17:51Z</time>
      </trkpt>
      <trkpt lat="45.98227" lon="4.80661">
        <ele>223</ele>
        <time>2018-10-16T10:17:52Z</time>
      </trkpt>
      <trkpt lat="45.98229" lon="4.80651">
        <ele>223</ele>
        <time>2018-10-16T10:17:53Z</time>
      </trkpt>
      <trkpt lat="45.98232" lon="4.80643">
        <ele>224</ele>
        <time>2018-10-16T10:17:54Z</time>
      </trkpt>
      <trkpt lat="45.98236" lon="4.80633">
        <ele>224</ele>
        <time>2018-10-16T10:17:55Z</time>
      </trkpt>
      <trkpt lat="45.9824" lon="4.80623">
        <ele>224</ele>
        <time>2018-10-16T10:17:56Z</time>
      </trkpt>
      <trkpt lat="45.98243" lon="4.80614">
        <ele>224</ele>
        <time>2018-10-16T10:17:57Z</time>
      </trkpt>
      <trkpt lat="45.98246" lon="4.80604">
        <ele>224</ele>
        <time>2018-10-16T10:17:58Z</time>
      </trkpt>
      <trkpt lat="45.98248" lon="4.80594">
        <ele>224</ele>
        <time>2018-10-16T10:17:59Z</time>
      </trkpt>
      <trkpt lat="45.98251" lon="4.80585">
        <ele>224</ele>
        <time>2018-10-16T10:18:00Z</time>
      </trkpt>
      <trkpt lat="45.98254" lon="4.80575">
        <ele>224</ele>
        <time>2018-10-16T10:18:01Z</time>
      </trkpt>
      <trkpt lat="45.98257" lon="4.80566">
        <ele>224</ele>
        <time>2018-10-16T10:18:02Z</time>
      </trkpt>
      <trkpt lat="45.9826" lon="4.80557">
        <ele>224</ele>
        <time>2018-10-16T10:18:03Z</time>
      </trkpt>
      <trkpt lat="45.98263" lon="4.80548">
        <ele>224</ele>
        <time>2018-10-16T10:18:04Z</time>
      </trkpt>
      <trkpt lat="45.98264" lon="4.80539">
        <ele>224</ele>
        <time>2018-10-16T10:18:05Z</time>
      </trkpt>
      <trkpt lat="45.98266" lon="4.8053">
        <ele>224</ele>
        <time>2018-10-16T10:18:06Z</time>
      </trkpt>
      <trkpt lat="45.98269" lon="4.80522">
        <ele>224</ele>
        <time>2018-10-16T10:18:07Z</time>
      </trkpt>
      <trkpt lat="45.98271" lon="4.80513">
        <ele>223</ele>
        <time>2018-10-16T10:18:08Z</time>
      </trkpt>
      <trkpt lat="45.98273" lon="4.80506">
        <ele>223</ele>
        <time>2018-10-16T10:18:09Z</time>
      </trkpt>
      <trkpt lat="45.98275" lon="4.80499">
        <ele>223</ele>
        <time>2018-10-16T10:18:10Z</time>
      </trkpt>
      <trkpt lat="45.98276" lon="4.8049">
        <ele>223</ele>
        <time>2018-10-16T10:18:11Z</time>
      </trkpt>
      <trkpt lat="45.98279" lon="4.80484">
        <ele>223</ele>
        <time>2018-10-16T10:18:12Z</time>
      </trkpt>
      <trkpt lat="45.98281" lon="4.80477">
        <ele>223</ele>
        <time>2018-10-16T10:18:13Z</time>
      </trkpt>
      <trkpt lat="45.98285" lon="4.80471">
        <ele>224</ele>
        <time>2018-10-16T10:18:14Z</time>
      </trkpt>
      <trkpt lat="45.9829" lon="4.80461">
        <ele>224</ele>
        <time>2018-10-16T10:18:16Z</time>
      </trkpt>
      <trkpt lat="45.98291" lon="4.80453">
        <ele>224</ele>
        <time>2018-10-16T10:18:17Z</time>
      </trkpt>
      <trkpt lat="45.98294" lon="4.80441">
        <ele>224</ele>
        <time>2018-10-16T10:18:19Z</time>
      </trkpt>
      <trkpt lat="45.98296" lon="4.80437">
        <ele>224</ele>
        <time>2018-10-16T10:18:20Z</time>
      </trkpt>
      <trkpt lat="45.98296" lon="4.8043">
        <ele>224</ele>
        <time>2018-10-16T10:18:21Z</time>
      </trkpt>
      <trkpt lat="45.98297" lon="4.80424">
        <ele>224</ele>
        <time>2018-10-16T10:18:22Z</time>
      </trkpt>
      <trkpt lat="45.98297" lon="4.80416">
        <ele>225</ele>
        <time>2018-10-16T10:18:23Z</time>
      </trkpt>
      <trkpt lat="45.98298" lon="4.8041">
        <ele>225</ele>
        <time>2018-10-16T10:18:24Z</time>
      </trkpt>
      <trkpt lat="45.98301" lon="4.804">
        <ele>225</ele>
        <time>2018-10-16T10:18:26Z</time>
      </trkpt>
      <trkpt lat="45.98302" lon="4.80392">
        <ele>225</ele>
        <time>2018-10-16T10:18:27Z</time>
      </trkpt>
      <trkpt lat="45.98304" lon="4.80382">
        <ele>225</ele>
        <time>2018-10-16T10:18:30Z</time>
      </trkpt>
      <trkpt lat="45.98306" lon="4.8037">
        <ele>225</ele>
        <time>2018-10-16T10:18:31Z</time>
      </trkpt>
      <trkpt lat="45.98309" lon="4.80361">
        <ele>225</ele>
        <time>2018-10-16T10:18:33Z</time>
      </trkpt>
      <trkpt lat="45.9831" lon="4.80356">
        <ele>226</ele>
        <time>2018-10-16T10:18:34Z</time>
      </trkpt>
      <trkpt lat="45.98312" lon="4.80345">
        <ele>226</ele>
        <time>2018-10-16T10:18:36Z</time>
      </trkpt>
      <trkpt lat="45.98313" lon="4.80338">
        <ele>227</ele>
        <time>2018-10-16T10:18:37Z</time>
      </trkpt>
      <trkpt lat="45.98315" lon="4.80326">
        <ele>227</ele>
        <time>2018-10-16T10:18:39Z</time>
      </trkpt>
      <trkpt lat="45.98316" lon="4.80322">
        <ele>227</ele>
        <time>2018-10-16T10:18:40Z</time>
      </trkpt>
      <trkpt lat="45.9832" lon="4.80311">
        <ele>227</ele>
        <time>2018-10-16T10:18:42Z</time>
      </trkpt>
      <trkpt lat="45.98321" lon="4.80306">
        <ele>227</ele>
        <time>2018-10-16T10:18:43Z</time>
      </trkpt>
      <trkpt lat="45.98322" lon="4.80302">
        <ele>227</ele>
        <time>2018-10-16T10:18:45Z</time>
      </trkpt>
      <trkpt lat="45.98325" lon="4.80294">
        <ele>227</ele>
        <time>2018-10-16T10:18:46Z</time>
      </trkpt>
      <trkpt lat="45.98329" lon="4.80283">
        <ele>227</ele>
        <time>2018-10-16T10:18:48Z</time>
      </trkpt>
      <trkpt lat="45.9833" lon="4.80277">
        <ele>227</ele>
        <time>2018-10-16T10:18:49Z</time>
      </trkpt>
      <trkpt lat="45.98332" lon="4.80266">
        <ele>228</ele>
        <time>2018-10-16T10:18:51Z</time>
      </trkpt>
      <trkpt lat="45.98333" lon="4.80263">
        <ele>228</ele>
        <time>2018-10-16T10:18:52Z</time>
      </trkpt>
      <trkpt lat="45.98335" lon="4.80252">
        <ele>230</ele>
        <time>2018-10-16T10:18:55Z</time>
      </trkpt>
      <trkpt lat="45.98336" lon="4.80249">
        <ele>230</ele>
        <time>2018-10-16T10:18:56Z</time>
      </trkpt>
      <trkpt lat="45.98339" lon="4.80237">
        <ele>230</ele>
        <time>2018-10-16T10:18:57Z</time>
      </trkpt>
      <trkpt lat="45.9834" lon="4.80231">
        <ele>230</ele>
        <time>2018-10-16T10:18:58Z</time>
      </trkpt>
      <trkpt lat="45.98337" lon="4.80219">
        <ele>230</ele>
        <time>2018-10-16T10:19:00Z</time>
      </trkpt>
      <trkpt lat="45.98335" lon="4.80213">
        <ele>230</ele>
        <time>2018-10-16T10:19:01Z</time>
      </trkpt>
      <trkpt lat="45.98333" lon="4.8021">
        <ele>230</ele>
        <time>2018-10-16T10:19:02Z</time>
      </trkpt>
      <trkpt lat="45.9833" lon="4.80202">
        <ele>227</ele>
        <time>2018-10-16T10:19:03Z</time>
      </trkpt>
      <trkpt lat="45.98328" lon="4.80196">
        <ele>227</ele>
        <time>2018-10-16T10:19:04Z</time>
      </trkpt>
      <trkpt lat="45.98326" lon="4.80189">
        <ele>227</ele>
        <time>2018-10-16T10:19:05Z</time>
      </trkpt>
      <trkpt lat="45.98324" lon="4.80183">
        <ele>227</ele>
        <time>2018-10-16T10:19:06Z</time>
      </trkpt>
      <trkpt lat="45.9832" lon="4.80174">
        <ele>227</ele>
        <time>2018-10-16T10:19:07Z</time>
      </trkpt>
      <trkpt lat="45.98318" lon="4.80167">
        <ele>228</ele>
        <time>2018-10-16T10:19:08Z</time>
      </trkpt>
      <trkpt lat="45.98316" lon="4.8016">
        <ele>228</ele>
        <time>2018-10-16T10:19:09Z</time>
      </trkpt>
      <trkpt lat="45.98312" lon="4.80154">
        <ele>228</ele>
        <time>2018-10-16T10:19:10Z</time>
      </trkpt>
      <trkpt lat="45.9831" lon="4.80147">
        <ele>228</ele>
        <time>2018-10-16T10:19:11Z</time>
      </trkpt>
      <trkpt lat="45.98308" lon="4.80141">
        <ele>228</ele>
        <time>2018-10-16T10:19:12Z</time>
      </trkpt>
      <trkpt lat="45.98306" lon="4.80134">
        <ele>228</ele>
        <time>2018-10-16T10:19:13Z</time>
      </trkpt>
      <trkpt lat="45.98303" lon="4.80127">
        <ele>228</ele>
        <time>2018-10-16T10:19:14Z</time>
      </trkpt>
      <trkpt lat="45.983" lon="4.80121">
        <ele>228</ele>
        <time>2018-10-16T10:19:15Z</time>
      </trkpt>
      <trkpt lat="45.98297" lon="4.80113">
        <ele>228</ele>
        <time>2018-10-16T10:19:16Z</time>
      </trkpt>
      <trkpt lat="45.98297" lon="4.80107">
        <ele>228</ele>
        <time>2018-10-16T10:19:17Z</time>
      </trkpt>
      <trkpt lat="45.98295" lon="4.801">
        <ele>228</ele>
        <time>2018-10-16T10:19:18Z</time>
      </trkpt>
      <trkpt lat="45.98293" lon="4.80094">
        <ele>228</ele>
        <time>2018-10-16T10:19:19Z</time>
      </trkpt>
      <trkpt lat="45.98292" lon="4.80092">
        <ele>228</ele>
        <time>2018-10-16T10:19:20Z</time>
      </trkpt>
      <trkpt lat="45.98288" lon="4.80083">
        <ele>229</ele>
        <time>2018-10-16T10:19:21Z</time>
      </trkpt>
      <trkpt lat="45.98284" lon="4.80077">
        <ele>229</ele>
        <time>2018-10-16T10:19:22Z</time>
      </trkpt>
      <trkpt lat="45.98281" lon="4.8007">
        <ele>229</ele>
        <time>2018-10-16T10:19:23Z</time>
      </trkpt>
      <trkpt lat="45.98276" lon="4.80062">
        <ele>229</ele>
        <time>2018-10-16T10:19:24Z</time>
      </trkpt>
      <trkpt lat="45.98274" lon="4.80056">
        <ele>229</ele>
        <time>2018-10-16T10:19:25Z</time>
      </trkpt>
      <trkpt lat="45.98272" lon="4.80049">
        <ele>229</ele>
        <time>2018-10-16T10:19:26Z</time>
      </trkpt>
      <trkpt lat="45.9827" lon="4.80042">
        <ele>229</ele>
        <time>2018-10-16T10:19:27Z</time>
      </trkpt>
      <trkpt lat="45.98267" lon="4.80034">
        <ele>229</ele>
        <time>2018-10-16T10:19:28Z</time>
      </trkpt>
      <trkpt lat="45.98264" lon="4.80027">
        <ele>228</ele>
        <time>2018-10-16T10:19:29Z</time>
      </trkpt>
      <trkpt lat="45.98262" lon="4.80018">
        <ele>228</ele>
        <time>2018-10-16T10:19:30Z</time>
      </trkpt>
      <trkpt lat="45.98259" lon="4.80011">
        <ele>228</ele>
        <time>2018-10-16T10:19:31Z</time>
      </trkpt>
      <trkpt lat="45.98257" lon="4.80005">
        <ele>227</ele>
        <time>2018-10-16T10:19:32Z</time>
      </trkpt>
      <trkpt lat="45.98253" lon="4.79999">
        <ele>226</ele>
        <time>2018-10-16T10:19:33Z</time>
      </trkpt>
      <trkpt lat="45.98249" lon="4.79992">
        <ele>226</ele>
        <time>2018-10-16T10:19:34Z</time>
      </trkpt>
      <trkpt lat="45.98248" lon="4.79985">
        <ele>225</ele>
        <time>2018-10-16T10:19:35Z</time>
      </trkpt>
      <trkpt lat="45.98244" lon="4.79974">
        <ele>225</ele>
        <time>2018-10-16T10:19:37Z</time>
      </trkpt>
      <trkpt lat="45.98241" lon="4.79968">
        <ele>225</ele>
        <time>2018-10-16T10:19:38Z</time>
      </trkpt>
      <trkpt lat="45.98238" lon="4.79958">
        <ele>225</ele>
        <time>2018-10-16T10:19:40Z</time>
      </trkpt>
      <trkpt lat="45.98237" lon="4.79951">
        <ele>225</ele>
        <time>2018-10-16T10:19:41Z</time>
      </trkpt>
      <trkpt lat="45.98236" lon="4.79945">
        <ele>225</ele>
        <time>2018-10-16T10:19:42Z</time>
      </trkpt>
      <trkpt lat="45.98233" lon="4.79939">
        <ele>225</ele>
        <time>2018-10-16T10:19:43Z</time>
      </trkpt>
      <trkpt lat="45.98231" lon="4.79932">
        <ele>225</ele>
        <time>2018-10-16T10:19:44Z</time>
      </trkpt>
      <trkpt lat="45.98229" lon="4.79926">
        <ele>225</ele>
        <time>2018-10-16T10:19:45Z</time>
      </trkpt>
      <trkpt lat="45.98223" lon="4.79917">
        <ele>225</ele>
        <time>2018-10-16T10:19:46Z</time>
      </trkpt>
      <trkpt lat="45.9822" lon="4.7991">
        <ele>225</ele>
        <time>2018-10-16T10:19:47Z</time>
      </trkpt>
      <trkpt lat="45.98219" lon="4.79902">
        <ele>225</ele>
        <time>2018-10-16T10:19:48Z</time>
      </trkpt>
      <trkpt lat="45.98216" lon="4.79894">
        <ele>225</ele>
        <time>2018-10-16T10:19:49Z</time>
      </trkpt>
      <trkpt lat="45.98213" lon="4.79887">
        <ele>225</ele>
        <time>2018-10-16T10:19:50Z</time>
      </trkpt>
      <trkpt lat="45.98212" lon="4.7988">
        <ele>225</ele>
        <time>2018-10-16T10:19:51Z</time>
      </trkpt>
      <trkpt lat="45.98209" lon="4.79874">
        <ele>225</ele>
        <time>2018-10-16T10:19:52Z</time>
      </trkpt>
      <trkpt lat="45.98208" lon="4.79867">
        <ele>225</ele>
        <time>2018-10-16T10:19:53Z</time>
      </trkpt>
      <trkpt lat="45.98208" lon="4.79861">
        <ele>225</ele>
        <time>2018-10-16T10:19:54Z</time>
      </trkpt>
      <trkpt lat="45.98205" lon="4.79855">
        <ele>225</ele>
        <time>2018-10-16T10:19:55Z</time>
      </trkpt>
      <trkpt lat="45.98203" lon="4.79848">
        <ele>225</ele>
        <time>2018-10-16T10:19:56Z</time>
      </trkpt>
      <trkpt lat="45.98198" lon="4.7984">
        <ele>225</ele>
        <time>2018-10-16T10:19:57Z</time>
      </trkpt>
      <trkpt lat="45.98194" lon="4.79831">
        <ele>225</ele>
        <time>2018-10-16T10:19:59Z</time>
      </trkpt>
      <trkpt lat="45.98193" lon="4.79824">
        <ele>225</ele>
        <time>2018-10-16T10:20:00Z</time>
      </trkpt>
      <trkpt lat="45.98188" lon="4.79816">
        <ele>225</ele>
        <time>2018-10-16T10:20:02Z</time>
      </trkpt>
      <trkpt lat="45.98187" lon="4.79813">
        <ele>225</ele>
        <time>2018-10-16T10:20:03Z</time>
      </trkpt>
      <trkpt lat="45.98182" lon="4.79807">
        <ele>225</ele>
        <time>2018-10-16T10:20:04Z</time>
      </trkpt>
      <trkpt lat="45.98181" lon="4.79802">
        <ele>226</ele>
        <time>2018-10-16T10:20:05Z</time>
      </trkpt>
      <trkpt lat="45.9818" lon="4.79791">
        <ele>226</ele>
        <time>2018-10-16T10:20:07Z</time>
      </trkpt>
      <trkpt lat="45.98179" lon="4.79785">
        <ele>226</ele>
        <time>2018-10-16T10:20:08Z</time>
      </trkpt>
      <trkpt lat="45.9818" lon="4.79774">
        <ele>226</ele>
        <time>2018-10-16T10:20:10Z</time>
      </trkpt>
      <trkpt lat="45.9818" lon="4.79771">
        <ele>226</ele>
        <time>2018-10-16T10:20:11Z</time>
      </trkpt>
      <trkpt lat="45.98181" lon="4.79762">
        <ele>226</ele>
        <time>2018-10-16T10:20:14Z</time>
      </trkpt>
      <trkpt lat="45.98181" lon="4.79748">
        <ele>227</ele>
        <time>2018-10-16T10:20:15Z</time>
      </trkpt>
      <trkpt lat="45.98175" lon="4.7974">
        <ele>227</ele>
        <time>2018-10-16T10:20:17Z</time>
      </trkpt>
      <trkpt lat="45.98169" lon="4.79741">
        <ele>227</ele>
        <time>2018-10-16T10:20:18Z</time>
      </trkpt>
      <trkpt lat="45.98164" lon="4.79742">
        <ele>226</ele>
        <time>2018-10-16T10:20:19Z</time>
      </trkpt>
      <trkpt lat="45.98159" lon="4.79745">
        <ele>226</ele>
        <time>2018-10-16T10:20:20Z</time>
      </trkpt>
      <trkpt lat="45.98155" lon="4.79749">
        <ele>226</ele>
        <time>2018-10-16T10:20:21Z</time>
      </trkpt>
      <trkpt lat="45.9815" lon="4.79751">
        <ele>225</ele>
        <time>2018-10-16T10:20:22Z</time>
      </trkpt>
      <trkpt lat="45.98144" lon="4.79754">
        <ele>225</ele>
        <time>2018-10-16T10:20:23Z</time>
      </trkpt>
      <trkpt lat="45.98139" lon="4.79755">
        <ele>224</ele>
        <time>2018-10-16T10:20:24Z</time>
      </trkpt>
      <trkpt lat="45.98133" lon="4.79757">
        <ele>224</ele>
        <time>2018-10-16T10:20:25Z</time>
      </trkpt>
      <trkpt lat="45.98127" lon="4.79758">
        <ele>224</ele>
        <time>2018-10-16T10:20:26Z</time>
      </trkpt>
      <trkpt lat="45.98122" lon="4.79759">
        <ele>224</ele>
        <time>2018-10-16T10:20:27Z</time>
      </trkpt>
      <trkpt lat="45.98115" lon="4.79759">
        <ele>224</ele>
        <time>2018-10-16T10:20:28Z</time>
      </trkpt>
      <trkpt lat="45.98109" lon="4.79761">
        <ele>224</ele>
        <time>2018-10-16T10:20:29Z</time>
      </trkpt>
      <trkpt lat="45.98103" lon="4.79762">
        <ele>224</ele>
        <time>2018-10-16T10:20:30Z</time>
      </trkpt>
      <trkpt lat="45.98096" lon="4.79763">
        <ele>223</ele>
        <time>2018-10-16T10:20:31Z</time>
      </trkpt>
      <trkpt lat="45.9809" lon="4.79764">
        <ele>223</ele>
        <time>2018-10-16T10:20:32Z</time>
      </trkpt>
      <trkpt lat="45.98083" lon="4.79764">
        <ele>223</ele>
        <time>2018-10-16T10:20:33Z</time>
      </trkpt>
      <trkpt lat="45.98077" lon="4.79765">
        <ele>223</ele>
        <time>2018-10-16T10:20:34Z</time>
      </trkpt>
      <trkpt lat="45.98071" lon="4.79766">
        <ele>223</ele>
        <time>2018-10-16T10:20:35Z</time>
      </trkpt>
      <trkpt lat="45.98064" lon="4.79767">
        <ele>223</ele>
        <time>2018-10-16T10:20:36Z</time>
      </trkpt>
      <trkpt lat="45.98059" lon="4.79768">
        <ele>223</ele>
        <time>2018-10-16T10:20:37Z</time>
      </trkpt>
      <trkpt lat="45.98054" lon="4.7977">
        <ele>223</ele>
        <time>2018-10-16T10:20:38Z</time>
      </trkpt>
      <trkpt lat="45.98048" lon="4.79771">
        <ele>223</ele>
        <time>2018-10-16T10:20:39Z</time>
      </trkpt>
      <trkpt lat="45.98042" lon="4.79771">
        <ele>223</ele>
        <time>2018-10-16T10:20:40Z</time>
      </trkpt>
      <trkpt lat="45.98036" lon="4.79771">
        <ele>223</ele>
        <time>2018-10-16T10:20:41Z</time>
      </trkpt>
      <trkpt lat="45.9803" lon="4.79771">
        <ele>223</ele>
        <time>2018-10-16T10:20:42Z</time>
      </trkpt>
      <trkpt lat="45.98025" lon="4.7977">
        <ele>223</ele>
        <time>2018-10-16T10:20:43Z</time>
      </trkpt>
      <trkpt lat="45.9802" lon="4.79771">
        <ele>223</ele>
        <time>2018-10-16T10:20:44Z</time>
      </trkpt>
      <trkpt lat="45.98015" lon="4.79771">
        <ele>223</ele>
        <time>2018-10-16T10:20:45Z</time>
      </trkpt>
      <trkpt lat="45.98009" lon="4.7977">
        <ele>223</ele>
        <time>2018-10-16T10:20:46Z</time>
      </trkpt>
      <trkpt lat="45.98003" lon="4.7977">
        <ele>223</ele>
        <time>2018-10-16T10:20:47Z</time>
      </trkpt>
      <trkpt lat="45.97997" lon="4.79771">
        <ele>224</ele>
        <time>2018-10-16T10:20:48Z</time>
      </trkpt>
      <trkpt lat="45.9799" lon="4.79772">
        <ele>224</ele>
        <time>2018-10-16T10:20:49Z</time>
      </trkpt>
      <trkpt lat="45.97984" lon="4.79774">
        <ele>224</ele>
        <time>2018-10-16T10:20:50Z</time>
      </trkpt>
      <trkpt lat="45.97978" lon="4.79772">
        <ele>224</ele>
        <time>2018-10-16T10:20:51Z</time>
      </trkpt>
      <trkpt lat="45.97972" lon="4.79773">
        <ele>224</ele>
        <time>2018-10-16T10:20:52Z</time>
      </trkpt>
      <trkpt lat="45.97964" lon="4.79784">
        <ele>224</ele>
        <time>2018-10-16T10:20:53Z</time>
      </trkpt>
      <trkpt lat="45.97958" lon="4.79785">
        <ele>224</ele>
        <time>2018-10-16T10:20:54Z</time>
      </trkpt>
      <trkpt lat="45.97953" lon="4.79786">
        <ele>224</ele>
        <time>2018-10-16T10:20:55Z</time>
      </trkpt>
      <trkpt lat="45.97949" lon="4.79784">
        <ele>224</ele>
        <time>2018-10-16T10:20:56Z</time>
      </trkpt>
      <trkpt lat="45.97942" lon="4.79785">
        <ele>224</ele>
        <time>2018-10-16T10:20:57Z</time>
      </trkpt>
      <trkpt lat="45.97936" lon="4.79787">
        <ele>224</ele>
        <time>2018-10-16T10:20:58Z</time>
      </trkpt>
      <trkpt lat="45.97929" lon="4.79788">
        <ele>224</ele>
        <time>2018-10-16T10:20:59Z</time>
      </trkpt>
      <trkpt lat="45.97919" lon="4.79787">
        <ele>225</ele>
        <time>2018-10-16T10:21:00Z</time>
      </trkpt>
      <trkpt lat="45.97913" lon="4.79788">
        <ele>225</ele>
        <time>2018-10-16T10:21:01Z</time>
      </trkpt>
      <trkpt lat="45.97907" lon="4.79788">
        <ele>225</ele>
        <time>2018-10-16T10:21:02Z</time>
      </trkpt>
      <trkpt lat="45.97901" lon="4.7979">
        <ele>225</ele>
        <time>2018-10-16T10:21:03Z</time>
      </trkpt>
      <trkpt lat="45.97896" lon="4.79791">
        <ele>224</ele>
        <time>2018-10-16T10:21:04Z</time>
      </trkpt>
      <trkpt lat="45.9789" lon="4.79793">
        <ele>224</ele>
        <time>2018-10-16T10:21:05Z</time>
      </trkpt>
      <trkpt lat="45.97885" lon="4.79792">
        <ele>224</ele>
        <time>2018-10-16T10:21:06Z</time>
      </trkpt>
      <trkpt lat="45.9788" lon="4.79792">
        <ele>224</ele>
        <time>2018-10-16T10:21:07Z</time>
      </trkpt>
      <trkpt lat="45.97874" lon="4.79794">
        <ele>224</ele>
        <time>2018-10-16T10:21:08Z</time>
      </trkpt>
      <trkpt lat="45.97868" lon="4.79795">
        <ele>224</ele>
        <time>2018-10-16T10:21:09Z</time>
      </trkpt>
      <trkpt lat="45.97864" lon="4.79795">
        <ele>224</ele>
        <time>2018-10-16T10:21:10Z</time>
      </trkpt>
      <trkpt lat="45.97858" lon="4.79796">
        <ele>224</ele>
        <time>2018-10-16T10:21:11Z</time>
      </trkpt>
      <trkpt lat="45.97852" lon="4.79798">
        <ele>224</ele>
        <time>2018-10-16T10:21:12Z</time>
      </trkpt>
      <trkpt lat="45.97845" lon="4.79799">
        <ele>224</ele>
        <time>2018-10-16T10:21:13Z</time>
      </trkpt>
      <trkpt lat="45.9784" lon="4.79801">
        <ele>224</ele>
        <time>2018-10-16T10:21:14Z</time>
      </trkpt>
      <trkpt lat="45.97833" lon="4.79802">
        <ele>223</ele>
        <time>2018-10-16T10:21:15Z</time>
      </trkpt>
      <trkpt lat="45.97827" lon="4.79804">
        <ele>223</ele>
        <time>2018-10-16T10:21:16Z</time>
      </trkpt>
      <trkpt lat="45.97821" lon="4.79805">
        <ele>223</ele>
        <time>2018-10-16T10:21:17Z</time>
      </trkpt>
      <trkpt lat="45.97814" lon="4.79805">
        <ele>223</ele>
        <time>2018-10-16T10:21:18Z</time>
      </trkpt>
      <trkpt lat="45.97808" lon="4.79806">
        <ele>223</ele>
        <time>2018-10-16T10:21:19Z</time>
      </trkpt>
      <trkpt lat="45.97802" lon="4.79811">
        <ele>223</ele>
        <time>2018-10-16T10:21:20Z</time>
      </trkpt>
      <trkpt lat="45.97795" lon="4.79812">
        <ele>223</ele>
        <time>2018-10-16T10:21:21Z</time>
      </trkpt>
      <trkpt lat="45.97789" lon="4.79811">
        <ele>223</ele>
        <time>2018-10-16T10:21:22Z</time>
      </trkpt>
      <trkpt lat="45.97781" lon="4.79816">
        <ele>223</ele>
        <time>2018-10-16T10:21:24Z</time>
      </trkpt>
      <trkpt lat="45.97775" lon="4.79817">
        <ele>223</ele>
        <time>2018-10-16T10:21:25Z</time>
      </trkpt>
      <trkpt lat="45.9777" lon="4.7982">
        <ele>223</ele>
        <time>2018-10-16T10:21:26Z</time>
      </trkpt>
      <trkpt lat="45.97764" lon="4.79819">
        <ele>223</ele>
        <time>2018-10-16T10:21:27Z</time>
      </trkpt>
      <trkpt lat="45.97758" lon="4.7982">
        <ele>223</ele>
        <time>2018-10-16T10:21:28Z</time>
      </trkpt>
      <trkpt lat="45.97753" lon="4.7982">
        <ele>223</ele>
        <time>2018-10-16T10:21:29Z</time>
      </trkpt>
      <trkpt lat="45.97747" lon="4.79821">
        <ele>223</ele>
        <time>2018-10-16T10:21:30Z</time>
      </trkpt>
      <trkpt lat="45.97741" lon="4.79822">
        <ele>223</ele>
        <time>2018-10-16T10:21:31Z</time>
      </trkpt>
      <trkpt lat="45.97734" lon="4.79823">
        <ele>223</ele>
        <time>2018-10-16T10:21:32Z</time>
      </trkpt>
      <trkpt lat="45.97729" lon="4.79824">
        <ele>223</ele>
        <time>2018-10-16T10:21:33Z</time>
      </trkpt>
      <trkpt lat="45.97722" lon="4.79827">
        <ele>223</ele>
        <time>2018-10-16T10:21:34Z</time>
      </trkpt>
      <trkpt lat="45.97716" lon="4.79828">
        <ele>223</ele>
        <time>2018-10-16T10:21:35Z</time>
      </trkpt>
      <trkpt lat="45.97709" lon="4.79829">
        <ele>223</ele>
        <time>2018-10-16T10:21:36Z</time>
      </trkpt>
      <trkpt lat="45.97703" lon="4.7983">
        <ele>223</ele>
        <time>2018-10-16T10:21:37Z</time>
      </trkpt>
      <trkpt lat="45.97696" lon="4.79829">
        <ele>223</ele>
        <time>2018-10-16T10:21:38Z</time>
      </trkpt>
      <trkpt lat="45.9769" lon="4.7983">
        <ele>223</ele>
        <time>2018-10-16T10:21:39Z</time>
      </trkpt>
      <trkpt lat="45.97682" lon="4.79831">
        <ele>223</ele>
        <time>2018-10-16T10:21:40Z</time>
      </trkpt>
      <trkpt lat="45.97676" lon="4.79833">
        <ele>222</ele>
        <time>2018-10-16T10:21:41Z</time>
      </trkpt>
      <trkpt lat="45.97671" lon="4.79838">
        <ele>221</ele>
        <time>2018-10-16T10:21:42Z</time>
      </trkpt>
      <trkpt lat="45.97665" lon="4.79839">
        <ele>222</ele>
        <time>2018-10-16T10:21:43Z</time>
      </trkpt>
      <trkpt lat="45.97659" lon="4.79841">
        <ele>221</ele>
        <time>2018-10-16T10:21:44Z</time>
      </trkpt>
      <trkpt lat="45.97651" lon="4.79842">
        <ele>221</ele>
        <time>2018-10-16T10:21:45Z</time>
      </trkpt>
      <trkpt lat="45.97647" lon="4.79842">
        <ele>221</ele>
        <time>2018-10-16T10:21:46Z</time>
      </trkpt>
      <trkpt lat="45.97641" lon="4.79844">
        <ele>221</ele>
        <time>2018-10-16T10:21:47Z</time>
      </trkpt>
      <trkpt lat="45.97636" lon="4.79846">
        <ele>221</ele>
        <time>2018-10-16T10:21:48Z</time>
      </trkpt>
      <trkpt lat="45.97629" lon="4.79849">
        <ele>221</ele>
        <time>2018-10-16T10:21:49Z</time>
      </trkpt>
      <trkpt lat="45.97623" lon="4.79851">
        <ele>221</ele>
        <time>2018-10-16T10:21:50Z</time>
      </trkpt>
      <trkpt lat="45.97617" lon="4.79852">
        <ele>221</ele>
        <time>2018-10-16T10:21:51Z</time>
      </trkpt>
      <trkpt lat="45.97611" lon="4.79854">
        <ele>221</ele>
        <time>2018-10-16T10:21:52Z</time>
      </trkpt>
      <trkpt lat="45.97605" lon="4.79857">
        <ele>221</ele>
        <time>2018-10-16T10:21:53Z</time>
      </trkpt>
      <trkpt lat="45.976" lon="4.79859">
        <ele>221</ele>
        <time>2018-10-16T10:21:54Z</time>
      </trkpt>
      <trkpt lat="45.97593" lon="4.79862">
        <ele>221</ele>
        <time>2018-10-16T10:21:55Z</time>
      </trkpt>
      <trkpt lat="45.97587" lon="4.79863">
        <ele>221</ele>
        <time>2018-10-16T10:21:56Z</time>
      </trkpt>
      <trkpt lat="45.9758" lon="4.79866">
        <ele>222</ele>
        <time>2018-10-16T10:21:57Z</time>
      </trkpt>
      <trkpt lat="45.97574" lon="4.79867">
        <ele>222</ele>
        <time>2018-10-16T10:21:58Z</time>
      </trkpt>
      <trkpt lat="45.97568" lon="4.7987">
        <ele>222</ele>
        <time>2018-10-16T10:21:59Z</time>
      </trkpt>
      <trkpt lat="45.97562" lon="4.79872">
        <ele>222</ele>
        <time>2018-10-16T10:22:00Z</time>
      </trkpt>
      <trkpt lat="45.97556" lon="4.79875">
        <ele>222</ele>
        <time>2018-10-16T10:22:01Z</time>
      </trkpt>
      <trkpt lat="45.97548" lon="4.79876">
        <ele>222</ele>
        <time>2018-10-16T10:22:02Z</time>
      </trkpt>
      <trkpt lat="45.97542" lon="4.79877">
        <ele>222</ele>
        <time>2018-10-16T10:22:03Z</time>
      </trkpt>
      <trkpt lat="45.97535" lon="4.79877">
        <ele>222</ele>
        <time>2018-10-16T10:22:04Z</time>
      </trkpt>
      <trkpt lat="45.97528" lon="4.79878">
        <ele>222</ele>
        <time>2018-10-16T10:22:05Z</time>
      </trkpt>
      <trkpt lat="45.97521" lon="4.79878">
        <ele>222</ele>
        <time>2018-10-16T10:22:06Z</time>
      </trkpt>
      <trkpt lat="45.97513" lon="4.79878">
        <ele>222</ele>
        <time>2018-10-16T10:22:07Z</time>
      </trkpt>
      <trkpt lat="45.97506" lon="4.79882">
        <ele>222</ele>
        <time>2018-10-16T10:22:08Z</time>
      </trkpt>
      <trkpt lat="45.97498" lon="4.79882">
        <ele>221</ele>
        <time>2018-10-16T10:22:09Z</time>
      </trkpt>
      <trkpt lat="45.9749" lon="4.79883">
        <ele>221</ele>
        <time>2018-10-16T10:22:10Z</time>
      </trkpt>
      <trkpt lat="45.97482" lon="4.79883">
        <ele>221</ele>
        <time>2018-10-16T10:22:11Z</time>
      </trkpt>
      <trkpt lat="45.97473" lon="4.79883">
        <ele>221</ele>
        <time>2018-10-16T10:22:12Z</time>
      </trkpt>
      <trkpt lat="45.97464" lon="4.79884">
        <ele>221</ele>
        <time>2018-10-16T10:22:13Z</time>
      </trkpt>
      <trkpt lat="45.97455" lon="4.79884">
        <ele>221</ele>
        <time>2018-10-16T10:22:14Z</time>
      </trkpt>
      <trkpt lat="45.97446" lon="4.79884">
        <ele>221</ele>
        <time>2018-10-16T10:22:15Z</time>
      </trkpt>
      <trkpt lat="45.97438" lon="4.79884">
        <ele>220</ele>
        <time>2018-10-16T10:22:16Z</time>
      </trkpt>
      <trkpt lat="45.9743" lon="4.79886">
        <ele>220</ele>
        <time>2018-10-16T10:22:17Z</time>
      </trkpt>
      <trkpt lat="45.97422" lon="4.79889">
        <ele>220</ele>
        <time>2018-10-16T10:22:18Z</time>
      </trkpt>
      <trkpt lat="45.97413" lon="4.79891">
        <ele>218</ele>
        <time>2018-10-16T10:22:19Z</time>
      </trkpt>
      <trkpt lat="45.97405" lon="4.79893">
        <ele>217</ele>
        <time>2018-10-16T10:22:20Z</time>
      </trkpt>
      <trkpt lat="45.97397" lon="4.79894">
        <ele>217</ele>
        <time>2018-10-16T10:22:21Z</time>
      </trkpt>
      <trkpt lat="45.97389" lon="4.79895">
        <ele>217</ele>
        <time>2018-10-16T10:22:22Z</time>
      </trkpt>
      <trkpt lat="45.97381" lon="4.79901">
        <ele>217</ele>
        <time>2018-10-16T10:22:23Z</time>
      </trkpt>
      <trkpt lat="45.97372" lon="4.79903">
        <ele>217</ele>
        <time>2018-10-16T10:22:24Z</time>
      </trkpt>
      <trkpt lat="45.97365" lon="4.79904">
        <ele>216</ele>
        <time>2018-10-16T10:22:25Z</time>
      </trkpt>
      <trkpt lat="45.97356" lon="4.79905">
        <ele>216</ele>
        <time>2018-10-16T10:22:26Z</time>
      </trkpt>
      <trkpt lat="45.97347" lon="4.79905">
        <ele>215</ele>
        <time>2018-10-16T10:22:27Z</time>
      </trkpt>
      <trkpt lat="45.97338" lon="4.79905">
        <ele>215</ele>
        <time>2018-10-16T10:22:28Z</time>
      </trkpt>
      <trkpt lat="45.97332" lon="4.79906">
        <ele>213</ele>
        <time>2018-10-16T10:22:29Z</time>
      </trkpt>
      <trkpt lat="45.97324" lon="4.79909">
        <ele>213</ele>
        <time>2018-10-16T10:22:30Z</time>
      </trkpt>
      <trkpt lat="45.97316" lon="4.7991">
        <ele>213</ele>
        <time>2018-10-16T10:22:31Z</time>
      </trkpt>
      <trkpt lat="45.97307" lon="4.79912">
        <ele>213</ele>
        <time>2018-10-16T10:22:32Z</time>
      </trkpt>
      <trkpt lat="45.97299" lon="4.79913">
        <ele>213</ele>
        <time>2018-10-16T10:22:33Z</time>
      </trkpt>
      <trkpt lat="45.97291" lon="4.79916">
        <ele>213</ele>
        <time>2018-10-16T10:22:34Z</time>
      </trkpt>
      <trkpt lat="45.97284" lon="4.79918">
        <ele>212</ele>
        <time>2018-10-16T10:22:35Z</time>
      </trkpt>
      <trkpt lat="45.97277" lon="4.79919">
        <ele>212</ele>
        <time>2018-10-16T10:22:36Z</time>
      </trkpt>
      <trkpt lat="45.9727" lon="4.79921">
        <ele>212</ele>
        <time>2018-10-16T10:22:37Z</time>
      </trkpt>
      <trkpt lat="45.97265" lon="4.79921">
        <ele>212</ele>
        <time>2018-10-16T10:22:38Z</time>
      </trkpt>
      <trkpt lat="45.97256" lon="4.79918">
        <ele>212</ele>
        <time>2018-10-16T10:22:40Z</time>
      </trkpt>
      <trkpt lat="45.97255" lon="4.79908">
        <ele>213</ele>
        <time>2018-10-16T10:22:41Z</time>
      </trkpt>
      <trkpt lat="45.97253" lon="4.79901">
        <ele>213</ele>
        <time>2018-10-16T10:22:42Z</time>
      </trkpt>
      <trkpt lat="45.97253" lon="4.79894">
        <ele>213</ele>
        <time>2018-10-16T10:22:43Z</time>
      </trkpt>
      <trkpt lat="45.97252" lon="4.79887">
        <ele>213</ele>
        <time>2018-10-16T10:22:44Z</time>
      </trkpt>
      <trkpt lat="45.97248" lon="4.79879">
        <ele>211</ele>
        <time>2018-10-16T10:22:45Z</time>
      </trkpt>
      <trkpt lat="45.97245" lon="4.7987">
        <ele>211</ele>
        <time>2018-10-16T10:22:46Z</time>
      </trkpt>
      <trkpt lat="45.97244" lon="4.79862">
        <ele>211</ele>
        <time>2018-10-16T10:22:47Z</time>
      </trkpt>
      <trkpt lat="45.97242" lon="4.79855">
        <ele>211</ele>
        <time>2018-10-16T10:22:48Z</time>
      </trkpt>
      <trkpt lat="45.97242" lon="4.79846">
        <ele>211</ele>
        <time>2018-10-16T10:22:49Z</time>
      </trkpt>
      <trkpt lat="45.97242" lon="4.79838">
        <ele>212</ele>
        <time>2018-10-16T10:22:50Z</time>
      </trkpt>
      <trkpt lat="45.97243" lon="4.7983">
        <ele>211</ele>
        <time>2018-10-16T10:22:51Z</time>
      </trkpt>
      <trkpt lat="45.97243" lon="4.79822">
        <ele>211</ele>
        <time>2018-10-16T10:22:52Z</time>
      </trkpt>
      <trkpt lat="45.97241" lon="4.79814">
        <ele>211</ele>
        <time>2018-10-16T10:22:53Z</time>
      </trkpt>
      <trkpt lat="45.97242" lon="4.79807">
        <ele>210</ele>
        <time>2018-10-16T10:22:54Z</time>
      </trkpt>
      <trkpt lat="45.97243" lon="4.798">
        <ele>210</ele>
        <time>2018-10-16T10:22:55Z</time>
      </trkpt>
      <trkpt lat="45.97244" lon="4.79791">
        <ele>210</ele>
        <time>2018-10-16T10:22:56Z</time>
      </trkpt>
      <trkpt lat="45.97244" lon="4.79783">
        <ele>210</ele>
        <time>2018-10-16T10:22:57Z</time>
      </trkpt>
      <trkpt lat="45.97245" lon="4.79774">
        <ele>210</ele>
        <time>2018-10-16T10:22:58Z</time>
      </trkpt>
      <trkpt lat="45.97246" lon="4.79766">
        <ele>209</ele>
        <time>2018-10-16T10:22:59Z</time>
      </trkpt>
      <trkpt lat="45.97245" lon="4.79756">
        <ele>209</ele>
        <time>2018-10-16T10:23:00Z</time>
      </trkpt>
      <trkpt lat="45.97245" lon="4.79748">
        <ele>209</ele>
        <time>2018-10-16T10:23:01Z</time>
      </trkpt>
      <trkpt lat="45.97248" lon="4.79744">
        <ele>209</ele>
        <time>2018-10-16T10:23:02Z</time>
      </trkpt>
      <trkpt lat="45.97249" lon="4.79735">
        <ele>209</ele>
        <time>2018-10-16T10:23:03Z</time>
      </trkpt>
      <trkpt lat="45.9725" lon="4.79728">
        <ele>209</ele>
        <time>2018-10-16T10:23:04Z</time>
      </trkpt>
      <trkpt lat="45.9725" lon="4.79719">
        <ele>212</ele>
        <time>2018-10-16T10:23:05Z</time>
      </trkpt>
      <trkpt lat="45.97251" lon="4.79711">
        <ele>212</ele>
        <time>2018-10-16T10:23:06Z</time>
      </trkpt>
      <trkpt lat="45.97251" lon="4.79703">
        <ele>212</ele>
        <time>2018-10-16T10:23:07Z</time>
      </trkpt>
      <trkpt lat="45.97253" lon="4.79695">
        <ele>212</ele>
        <time>2018-10-16T10:23:08Z</time>
      </trkpt>
      <trkpt lat="45.97255" lon="4.79686">
        <ele>211</ele>
        <time>2018-10-16T10:23:09Z</time>
      </trkpt>
      <trkpt lat="45.97255" lon="4.79675">
        <ele>210</ele>
        <time>2018-10-16T10:23:10Z</time>
      </trkpt>
      <trkpt lat="45.97256" lon="4.79667">
        <ele>209</ele>
        <time>2018-10-16T10:23:11Z</time>
      </trkpt>
      <trkpt lat="45.97258" lon="4.79658">
        <ele>211</ele>
        <time>2018-10-16T10:23:12Z</time>
      </trkpt>
      <trkpt lat="45.97258" lon="4.7965">
        <ele>212</ele>
        <time>2018-10-16T10:23:13Z</time>
      </trkpt>
      <trkpt lat="45.97259" lon="4.79643">
        <ele>212</ele>
        <time>2018-10-16T10:23:14Z</time>
      </trkpt>
      <trkpt lat="45.97259" lon="4.79635">
        <ele>213</ele>
        <time>2018-10-16T10:23:15Z</time>
      </trkpt>
      <trkpt lat="45.97259" lon="4.79625">
        <ele>213</ele>
        <time>2018-10-16T10:23:16Z</time>
      </trkpt>
      <trkpt lat="45.97259" lon="4.79618">
        <ele>213</ele>
        <time>2018-10-16T10:23:17Z</time>
      </trkpt>
      <trkpt lat="45.97258" lon="4.7961">
        <ele>213</ele>
        <time>2018-10-16T10:23:18Z</time>
      </trkpt>
      <trkpt lat="45.97259" lon="4.79602">
        <ele>213</ele>
        <time>2018-10-16T10:23:19Z</time>
      </trkpt>
      <trkpt lat="45.97259" lon="4.79595">
        <ele>212</ele>
        <time>2018-10-16T10:23:20Z</time>
      </trkpt>
      <trkpt lat="45.97259" lon="4.79588">
        <ele>212</ele>
        <time>2018-10-16T10:23:21Z</time>
      </trkpt>
      <trkpt lat="45.97259" lon="4.7958">
        <ele>212</ele>
        <time>2018-10-16T10:23:22Z</time>
      </trkpt>
      <trkpt lat="45.97259" lon="4.79575">
        <ele>212</ele>
        <time>2018-10-16T10:23:23Z</time>
      </trkpt>
      <trkpt lat="45.97258" lon="4.79568">
        <ele>213</ele>
        <time>2018-10-16T10:23:24Z</time>
      </trkpt>
      <trkpt lat="45.97258" lon="4.79561">
        <ele>213</ele>
        <time>2018-10-16T10:23:25Z</time>
      </trkpt>
      <trkpt lat="45.97257" lon="4.79555">
        <ele>214</ele>
        <time>2018-10-16T10:23:26Z</time>
      </trkpt>
      <trkpt lat="45.97255" lon="4.79548">
        <ele>214</ele>
        <time>2018-10-16T10:23:27Z</time>
      </trkpt>
      <trkpt lat="45.97255" lon="4.7954">
        <ele>214</ele>
        <time>2018-10-16T10:23:28Z</time>
      </trkpt>
      <trkpt lat="45.97255" lon="4.79532">
        <ele>214</ele>
        <time>2018-10-16T10:23:29Z</time>
      </trkpt>
      <trkpt lat="45.97254" lon="4.79523">
        <ele>214</ele>
        <time>2018-10-16T10:23:30Z</time>
      </trkpt>
      <trkpt lat="45.97252" lon="4.79514">
        <ele>213</ele>
        <time>2018-10-16T10:23:31Z</time>
      </trkpt>
      <trkpt lat="45.97251" lon="4.79506">
        <ele>212</ele>
        <time>2018-10-16T10:23:32Z</time>
      </trkpt>
      <trkpt lat="45.97251" lon="4.79498">
        <ele>211</ele>
        <time>2018-10-16T10:23:33Z</time>
      </trkpt>
      <trkpt lat="45.97247" lon="4.79489">
        <ele>210</ele>
        <time>2018-10-16T10:23:34Z</time>
      </trkpt>
      <trkpt lat="45.97245" lon="4.79481">
        <ele>210</ele>
        <time>2018-10-16T10:23:35Z</time>
      </trkpt>
      <trkpt lat="45.97243" lon="4.79473">
        <ele>209</ele>
        <time>2018-10-16T10:23:36Z</time>
      </trkpt>
      <trkpt lat="45.97241" lon="4.79466">
        <ele>209</ele>
        <time>2018-10-16T10:23:37Z</time>
      </trkpt>
      <trkpt lat="45.97239" lon="4.79458">
        <ele>209</ele>
        <time>2018-10-16T10:23:38Z</time>
      </trkpt>
      <trkpt lat="45.97236" lon="4.79451">
        <ele>209</ele>
        <time>2018-10-16T10:23:39Z</time>
      </trkpt>
      <trkpt lat="45.97233" lon="4.79442">
        <ele>209</ele>
        <time>2018-10-16T10:23:40Z</time>
      </trkpt>
      <trkpt lat="45.97229" lon="4.79434">
        <ele>209</ele>
        <time>2018-10-16T10:23:41Z</time>
      </trkpt>
      <trkpt lat="45.97225" lon="4.79426">
        <ele>209</ele>
        <time>2018-10-16T10:23:42Z</time>
      </trkpt>
      <trkpt lat="45.97222" lon="4.79418">
        <ele>209</ele>
        <time>2018-10-16T10:23:43Z</time>
      </trkpt>
      <trkpt lat="45.97219" lon="4.7941">
        <ele>208</ele>
        <time>2018-10-16T10:23:44Z</time>
      </trkpt>
      <trkpt lat="45.97217" lon="4.79403">
        <ele>208</ele>
        <time>2018-10-16T10:23:45Z</time>
      </trkpt>
      <trkpt lat="45.97213" lon="4.79397">
        <ele>208</ele>
        <time>2018-10-16T10:23:46Z</time>
      </trkpt>
      <trkpt lat="45.9721" lon="4.79392">
        <ele>208</ele>
        <time>2018-10-16T10:23:47Z</time>
      </trkpt>
      <trkpt lat="45.97207" lon="4.79385">
        <ele>208</ele>
        <time>2018-10-16T10:23:48Z</time>
      </trkpt>
      <trkpt lat="45.97203" lon="4.79377">
        <ele>208</ele>
        <time>2018-10-16T10:23:49Z</time>
      </trkpt>
      <trkpt lat="45.97199" lon="4.79366">
        <ele>207</ele>
        <time>2018-10-16T10:23:51Z</time>
      </trkpt>
      <trkpt lat="45.97197" lon="4.7936">
        <ele>207</ele>
        <time>2018-10-16T10:23:52Z</time>
      </trkpt>
      <trkpt lat="45.97194" lon="4.79355">
        <ele>207</ele>
        <time>2018-10-16T10:23:53Z</time>
      </trkpt>
      <trkpt lat="45.97192" lon="4.79346">
        <ele>207</ele>
        <time>2018-10-16T10:23:54Z</time>
      </trkpt>
      <trkpt lat="45.97189" lon="4.7934">
        <ele>207</ele>
        <time>2018-10-16T10:23:55Z</time>
      </trkpt>
      <trkpt lat="45.97186" lon="4.79333">
        <ele>207</ele>
        <time>2018-10-16T10:23:56Z</time>
      </trkpt>
      <trkpt lat="45.97184" lon="4.79326">
        <ele>207</ele>
        <time>2018-10-16T10:23:57Z</time>
      </trkpt>
      <trkpt lat="45.9718" lon="4.79318">
        <ele>207</ele>
        <time>2018-10-16T10:23:58Z</time>
      </trkpt>
      <trkpt lat="45.97175" lon="4.79312">
        <ele>207</ele>
        <time>2018-10-16T10:23:59Z</time>
      </trkpt>
      <trkpt lat="45.97172" lon="4.79305">
        <ele>207</ele>
        <time>2018-10-16T10:24:00Z</time>
      </trkpt>
      <trkpt lat="45.97169" lon="4.79297">
        <ele>207</ele>
        <time>2018-10-16T10:24:01Z</time>
      </trkpt>
      <trkpt lat="45.97167" lon="4.79291">
        <ele>204</ele>
        <time>2018-10-16T10:24:02Z</time>
      </trkpt>
      <trkpt lat="45.97163" lon="4.79284">
        <ele>204</ele>
        <time>2018-10-16T10:24:03Z</time>
      </trkpt>
      <trkpt lat="45.97161" lon="4.79277">
        <ele>204</ele>
        <time>2018-10-16T10:24:04Z</time>
      </trkpt>
      <trkpt lat="45.97159" lon="4.79271">
        <ele>204</ele>
        <time>2018-10-16T10:24:05Z</time>
      </trkpt>
      <trkpt lat="45.97157" lon="4.79264">
        <ele>205</ele>
        <time>2018-10-16T10:24:06Z</time>
      </trkpt>
      <trkpt lat="45.97155" lon="4.79258">
        <ele>205</ele>
        <time>2018-10-16T10:24:07Z</time>
      </trkpt>
      <trkpt lat="45.97152" lon="4.79252">
        <ele>205</ele>
        <time>2018-10-16T10:24:08Z</time>
      </trkpt>
      <trkpt lat="45.97149" lon="4.79245">
        <ele>205</ele>
        <time>2018-10-16T10:24:09Z</time>
      </trkpt>
      <trkpt lat="45.97144" lon="4.79237">
        <ele>205</ele>
        <time>2018-10-16T10:24:10Z</time>
      </trkpt>
      <trkpt lat="45.97143" lon="4.7923">
        <ele>205</ele>
        <time>2018-10-16T10:24:11Z</time>
      </trkpt>
      <trkpt lat="45.97137" lon="4.79223">
        <ele>205</ele>
        <time>2018-10-16T10:24:12Z</time>
      </trkpt>
      <trkpt lat="45.97134" lon="4.79214">
        <ele>206</ele>
        <time>2018-10-16T10:24:13Z</time>
      </trkpt>
      <trkpt lat="45.9713" lon="4.79207">
        <ele>206</ele>
        <time>2018-10-16T10:24:14Z</time>
      </trkpt>
      <trkpt lat="45.97127" lon="4.79199">
        <ele>206</ele>
        <time>2018-10-16T10:24:15Z</time>
      </trkpt>
      <trkpt lat="45.97125" lon="4.79191">
        <ele>206</ele>
        <time>2018-10-16T10:24:16Z</time>
      </trkpt>
      <trkpt lat="45.9712" lon="4.79182">
        <ele>206</ele>
        <time>2018-10-16T10:24:17Z</time>
      </trkpt>
      <trkpt lat="45.97116" lon="4.79175">
        <ele>206</ele>
        <time>2018-10-16T10:24:18Z</time>
      </trkpt>
      <trkpt lat="45.97111" lon="4.79167">
        <ele>205</ele>
        <time>2018-10-16T10:24:19Z</time>
      </trkpt>
      <trkpt lat="45.97108" lon="4.79161">
        <ele>206</ele>
        <time>2018-10-16T10:24:20Z</time>
      </trkpt>
      <trkpt lat="45.97104" lon="4.79155">
        <ele>206</ele>
        <time>2018-10-16T10:24:21Z</time>
      </trkpt>
      <trkpt lat="45.97101" lon="4.79148">
        <ele>206</ele>
        <time>2018-10-16T10:24:22Z</time>
      </trkpt>
      <trkpt lat="45.97097" lon="4.79142">
        <ele>206</ele>
        <time>2018-10-16T10:24:23Z</time>
      </trkpt>
      <trkpt lat="45.97093" lon="4.79136">
        <ele>206</ele>
        <time>2018-10-16T10:24:24Z</time>
      </trkpt>
      <trkpt lat="45.9709" lon="4.7913">
        <ele>206</ele>
        <time>2018-10-16T10:24:25Z</time>
      </trkpt>
      <trkpt lat="45.97087" lon="4.79123">
        <ele>206</ele>
        <time>2018-10-16T10:24:26Z</time>
      </trkpt>
      <trkpt lat="45.97084" lon="4.79117">
        <ele>206</ele>
        <time>2018-10-16T10:24:27Z</time>
      </trkpt>
      <trkpt lat="45.97081" lon="4.79111">
        <ele>204</ele>
        <time>2018-10-16T10:24:28Z</time>
      </trkpt>
      <trkpt lat="45.97081" lon="4.79104">
        <ele>204</ele>
        <time>2018-10-16T10:24:29Z</time>
      </trkpt>
      <trkpt lat="45.97081" lon="4.79097">
        <ele>204</ele>
        <time>2018-10-16T10:24:30Z</time>
      </trkpt>
      <trkpt lat="45.97079" lon="4.79089">
        <ele>204</ele>
        <time>2018-10-16T10:24:31Z</time>
      </trkpt>
      <trkpt lat="45.97077" lon="4.79081">
        <ele>204</ele>
        <time>2018-10-16T10:24:32Z</time>
      </trkpt>
      <trkpt lat="45.97075" lon="4.79075">
        <ele>204</ele>
        <time>2018-10-16T10:24:33Z</time>
      </trkpt>
      <trkpt lat="45.97073" lon="4.79067">
        <ele>204</ele>
        <time>2018-10-16T10:24:34Z</time>
      </trkpt>
      <trkpt lat="45.97072" lon="4.7906">
        <ele>203</ele>
        <time>2018-10-16T10:24:35Z</time>
      </trkpt>
      <trkpt lat="45.9707" lon="4.79052">
        <ele>203</ele>
        <time>2018-10-16T10:24:36Z</time>
      </trkpt>
      <trkpt lat="45.97068" lon="4.79045">
        <ele>203</ele>
        <time>2018-10-16T10:24:37Z</time>
      </trkpt>
      <trkpt lat="45.97067" lon="4.79037">
        <ele>203</ele>
        <time>2018-10-16T10:24:38Z</time>
      </trkpt>
      <trkpt lat="45.97063" lon="4.79029">
        <ele>203</ele>
        <time>2018-10-16T10:24:39Z</time>
      </trkpt>
      <trkpt lat="45.97061" lon="4.79021">
        <ele>203</ele>
        <time>2018-10-16T10:24:40Z</time>
      </trkpt>
      <trkpt lat="45.9706" lon="4.79013">
        <ele>204</ele>
        <time>2018-10-16T10:24:41Z</time>
      </trkpt>
      <trkpt lat="45.97058" lon="4.79006">
        <ele>204</ele>
        <time>2018-10-16T10:24:42Z</time>
      </trkpt>
      <trkpt lat="45.97054" lon="4.78995">
        <ele>205</ele>
        <time>2018-10-16T10:24:44Z</time>
      </trkpt>
      <trkpt lat="45.97051" lon="4.78988">
        <ele>205</ele>
        <time>2018-10-16T10:24:45Z</time>
      </trkpt>
      <trkpt lat="45.97046" lon="4.7898">
        <ele>205</ele>
        <time>2018-10-16T10:24:46Z</time>
      </trkpt>
      <trkpt lat="45.97044" lon="4.78971">
        <ele>205</ele>
        <time>2018-10-16T10:24:47Z</time>
      </trkpt>
      <trkpt lat="45.97041" lon="4.78964">
        <ele>205</ele>
        <time>2018-10-16T10:24:48Z</time>
      </trkpt>
      <trkpt lat="45.97036" lon="4.78957">
        <ele>205</ele>
        <time>2018-10-16T10:24:49Z</time>
      </trkpt>
      <trkpt lat="45.97032" lon="4.78951">
        <ele>205</ele>
        <time>2018-10-16T10:24:50Z</time>
      </trkpt>
      <trkpt lat="45.97028" lon="4.78945">
        <ele>205</ele>
        <time>2018-10-16T10:24:51Z</time>
      </trkpt>
      <trkpt lat="45.97023" lon="4.78938">
        <ele>205</ele>
        <time>2018-10-16T10:24:52Z</time>
      </trkpt>
      <trkpt lat="45.97019" lon="4.78932">
        <ele>205</ele>
        <time>2018-10-16T10:24:53Z</time>
      </trkpt>
      <trkpt lat="45.97015" lon="4.78928">
        <ele>205</ele>
        <time>2018-10-16T10:24:54Z</time>
      </trkpt>
      <trkpt lat="45.9701" lon="4.78922">
        <ele>204</ele>
        <time>2018-10-16T10:24:55Z</time>
      </trkpt>
      <trkpt lat="45.97006" lon="4.78916">
        <ele>205</ele>
        <time>2018-10-16T10:24:56Z</time>
      </trkpt>
      <trkpt lat="45.97" lon="4.78909">
        <ele>205</ele>
        <time>2018-10-16T10:24:57Z</time>
      </trkpt>
      <trkpt lat="45.96995" lon="4.78902">
        <ele>204</ele>
        <time>2018-10-16T10:24:58Z</time>
      </trkpt>
      <trkpt lat="45.96991" lon="4.78896">
        <ele>203</ele>
        <time>2018-10-16T10:24:59Z</time>
      </trkpt>
      <trkpt lat="45.96985" lon="4.78889">
        <ele>203</ele>
        <time>2018-10-16T10:25:00Z</time>
      </trkpt>
      <trkpt lat="45.9698" lon="4.78883">
        <ele>203</ele>
        <time>2018-10-16T10:25:01Z</time>
      </trkpt>
      <trkpt lat="45.96975" lon="4.78876">
        <ele>203</ele>
        <time>2018-10-16T10:25:02Z</time>
      </trkpt>
      <trkpt lat="45.9697" lon="4.7887">
        <ele>203</ele>
        <time>2018-10-16T10:25:03Z</time>
      </trkpt>
      <trkpt lat="45.96966" lon="4.78865">
        <ele>203</ele>
        <time>2018-10-16T10:25:04Z</time>
      </trkpt>
      <trkpt lat="45.96962" lon="4.78859">
        <ele>203</ele>
        <time>2018-10-16T10:25:05Z</time>
      </trkpt>
      <trkpt lat="45.96957" lon="4.78855">
        <ele>203</ele>
        <time>2018-10-16T10:25:06Z</time>
      </trkpt>
      <trkpt lat="45.96952" lon="4.78851">
        <ele>203</ele>
        <time>2018-10-16T10:25:07Z</time>
      </trkpt>
      <trkpt lat="45.96947" lon="4.78845">
        <ele>202</ele>
        <time>2018-10-16T10:25:08Z</time>
      </trkpt>
      <trkpt lat="45.96942" lon="4.78839">
        <ele>202</ele>
        <time>2018-10-16T10:25:09Z</time>
      </trkpt>
      <trkpt lat="45.96938" lon="4.78832">
        <ele>202</ele>
        <time>2018-10-16T10:25:10Z</time>
      </trkpt>
      <trkpt lat="45.96932" lon="4.78826">
        <ele>202</ele>
        <time>2018-10-16T10:25:11Z</time>
      </trkpt>
      <trkpt lat="45.96928" lon="4.7882">
        <ele>202</ele>
        <time>2018-10-16T10:25:12Z</time>
      </trkpt>
      <trkpt lat="45.96924" lon="4.78814">
        <ele>202</ele>
        <time>2018-10-16T10:25:13Z</time>
      </trkpt>
      <trkpt lat="45.96918" lon="4.78806">
        <ele>203</ele>
        <time>2018-10-16T10:25:14Z</time>
      </trkpt>
      <trkpt lat="45.96913" lon="4.78798">
        <ele>201</ele>
        <time>2018-10-16T10:25:15Z</time>
      </trkpt>
      <trkpt lat="45.96908" lon="4.78791">
        <ele>201</ele>
        <time>2018-10-16T10:25:16Z</time>
      </trkpt>
      <trkpt lat="45.96904" lon="4.78783">
        <ele>201</ele>
        <time>2018-10-16T10:25:17Z</time>
      </trkpt>
      <trkpt lat="45.96901" lon="4.78776">
        <ele>201</ele>
        <time>2018-10-16T10:25:18Z</time>
      </trkpt>
      <trkpt lat="45.96898" lon="4.78768">
        <ele>201</ele>
        <time>2018-10-16T10:25:19Z</time>
      </trkpt>
      <trkpt lat="45.96895" lon="4.7876">
        <ele>201</ele>
        <time>2018-10-16T10:25:20Z</time>
      </trkpt>
      <trkpt lat="45.96894" lon="4.78752">
        <ele>201</ele>
        <time>2018-10-16T10:25:21Z</time>
      </trkpt>
      <trkpt lat="45.96891" lon="4.78747">
        <ele>202</ele>
        <time>2018-10-16T10:25:22Z</time>
      </trkpt>
      <trkpt lat="45.96889" lon="4.78739">
        <ele>202</ele>
        <time>2018-10-16T10:25:23Z</time>
      </trkpt>
      <trkpt lat="45.96887" lon="4.78733">
        <ele>202</ele>
        <time>2018-10-16T10:25:24Z</time>
      </trkpt>
      <trkpt lat="45.96884" lon="4.78726">
        <ele>202</ele>
        <time>2018-10-16T10:25:25Z</time>
      </trkpt>
      <trkpt lat="45.9688" lon="4.78719">
        <ele>202</ele>
        <time>2018-10-16T10:25:26Z</time>
      </trkpt>
      <trkpt lat="45.96875" lon="4.78711">
        <ele>202</ele>
        <time>2018-10-16T10:25:27Z</time>
      </trkpt>
      <trkpt lat="45.96872" lon="4.78703">
        <ele>202</ele>
        <time>2018-10-16T10:25:28Z</time>
      </trkpt>
      <trkpt lat="45.9687" lon="4.78695">
        <ele>202</ele>
        <time>2018-10-16T10:25:29Z</time>
      </trkpt>
      <trkpt lat="45.96866" lon="4.78688">
        <ele>202</ele>
        <time>2018-10-16T10:25:30Z</time>
      </trkpt>
      <trkpt lat="45.96862" lon="4.78681">
        <ele>202</ele>
        <time>2018-10-16T10:25:31Z</time>
      </trkpt>
      <trkpt lat="45.96858" lon="4.78674">
        <ele>202</ele>
        <time>2018-10-16T10:25:32Z</time>
      </trkpt>
      <trkpt lat="45.96854" lon="4.78667">
        <ele>202</ele>
        <time>2018-10-16T10:25:33Z</time>
      </trkpt>
      <trkpt lat="45.9685" lon="4.78659">
        <ele>203</ele>
        <time>2018-10-16T10:25:34Z</time>
      </trkpt>
      <trkpt lat="45.96847" lon="4.78652">
        <ele>203</ele>
        <time>2018-10-16T10:25:35Z</time>
      </trkpt>
      <trkpt lat="45.96845" lon="4.78647">
        <ele>203</ele>
        <time>2018-10-16T10:25:36Z</time>
      </trkpt>
      <trkpt lat="45.96841" lon="4.78639">
        <ele>203</ele>
        <time>2018-10-16T10:25:37Z</time>
      </trkpt>
      <trkpt lat="45.96839" lon="4.78631">
        <ele>203</ele>
        <time>2018-10-16T10:25:38Z</time>
      </trkpt>
      <trkpt lat="45.96836" lon="4.78624">
        <ele>203</ele>
        <time>2018-10-16T10:25:39Z</time>
      </trkpt>
      <trkpt lat="45.96833" lon="4.78615">
        <ele>202</ele>
        <time>2018-10-16T10:25:40Z</time>
      </trkpt>
      <trkpt lat="45.96832" lon="4.7861">
        <ele>202</ele>
        <time>2018-10-16T10:25:41Z</time>
      </trkpt>
      <trkpt lat="45.9683" lon="4.78603">
        <ele>202</ele>
        <time>2018-10-16T10:25:42Z</time>
      </trkpt>
      <trkpt lat="45.96828" lon="4.78596">
        <ele>202</ele>
        <time>2018-10-16T10:25:43Z</time>
      </trkpt>
      <trkpt lat="45.96824" lon="4.78589">
        <ele>202</ele>
        <time>2018-10-16T10:25:44Z</time>
      </trkpt>
      <trkpt lat="45.96822" lon="4.78583">
        <ele>203</ele>
        <time>2018-10-16T10:25:45Z</time>
      </trkpt>
      <trkpt lat="45.96818" lon="4.78579">
        <ele>203</ele>
        <time>2018-10-16T10:25:46Z</time>
      </trkpt>
      <trkpt lat="45.96814" lon="4.78575">
        <ele>203</ele>
        <time>2018-10-16T10:25:47Z</time>
      </trkpt>
      <trkpt lat="45.9681" lon="4.78572">
        <ele>203</ele>
        <time>2018-10-16T10:25:48Z</time>
      </trkpt>
      <trkpt lat="45.96811" lon="4.78561">
        <ele>203</ele>
        <time>2018-10-16T10:25:49Z</time>
      </trkpt>
      <trkpt lat="45.96806" lon="4.78555">
        <ele>203</ele>
        <time>2018-10-16T10:25:50Z</time>
      </trkpt>
      <trkpt lat="45.96801" lon="4.78548">
        <ele>203</ele>
        <time>2018-10-16T10:25:51Z</time>
      </trkpt>
      <trkpt lat="45.96799" lon="4.78542">
        <ele>203</ele>
        <time>2018-10-16T10:25:52Z</time>
      </trkpt>
      <trkpt lat="45.96795" lon="4.78535">
        <ele>203</ele>
        <time>2018-10-16T10:25:53Z</time>
      </trkpt>
      <trkpt lat="45.96791" lon="4.78529">
        <ele>203</ele>
        <time>2018-10-16T10:25:54Z</time>
      </trkpt>
      <trkpt lat="45.96787" lon="4.78522">
        <ele>203</ele>
        <time>2018-10-16T10:25:55Z</time>
      </trkpt>
      <trkpt lat="45.96782" lon="4.78515">
        <ele>203</ele>
        <time>2018-10-16T10:25:56Z</time>
      </trkpt>
      <trkpt lat="45.96779" lon="4.78508">
        <ele>203</ele>
        <time>2018-10-16T10:25:57Z</time>
      </trkpt>
      <trkpt lat="45.96775" lon="4.78501">
        <ele>203</ele>
        <time>2018-10-16T10:25:58Z</time>
      </trkpt>
      <trkpt lat="45.9677" lon="4.78495">
        <ele>205</ele>
        <time>2018-10-16T10:25:59Z</time>
      </trkpt>
      <trkpt lat="45.96767" lon="4.7849">
        <ele>205</ele>
        <time>2018-10-16T10:26:00Z</time>
      </trkpt>
      <trkpt lat="45.96763" lon="4.78484">
        <ele>205</ele>
        <time>2018-10-16T10:26:01Z</time>
      </trkpt>
      <trkpt lat="45.96759" lon="4.78478">
        <ele>205</ele>
        <time>2018-10-16T10:26:02Z</time>
      </trkpt>
      <trkpt lat="45.96755" lon="4.78473">
        <ele>205</ele>
        <time>2018-10-16T10:26:03Z</time>
      </trkpt>
      <trkpt lat="45.96751" lon="4.7847">
        <ele>205</ele>
        <time>2018-10-16T10:26:04Z</time>
      </trkpt>
      <trkpt lat="45.96745" lon="4.78468">
        <ele>203</ele>
        <time>2018-10-16T10:26:05Z</time>
      </trkpt>
      <trkpt lat="45.96741" lon="4.78465">
        <ele>203</ele>
        <time>2018-10-16T10:26:06Z</time>
      </trkpt>
      <trkpt lat="45.96737" lon="4.7846">
        <ele>203</ele>
        <time>2018-10-16T10:26:07Z</time>
      </trkpt>
      <trkpt lat="45.96732" lon="4.78456">
        <ele>203</ele>
        <time>2018-10-16T10:26:08Z</time>
      </trkpt>
      <trkpt lat="45.96728" lon="4.78451">
        <ele>203</ele>
        <time>2018-10-16T10:26:09Z</time>
      </trkpt>
      <trkpt lat="45.96724" lon="4.78449">
        <ele>203</ele>
        <time>2018-10-16T10:26:10Z</time>
      </trkpt>
      <trkpt lat="45.9672" lon="4.78443">
        <ele>203</ele>
        <time>2018-10-16T10:26:11Z</time>
      </trkpt>
      <trkpt lat="45.96715" lon="4.78439">
        <ele>203</ele>
        <time>2018-10-16T10:26:12Z</time>
      </trkpt>
      <trkpt lat="45.96711" lon="4.78434">
        <ele>203</ele>
        <time>2018-10-16T10:26:13Z</time>
      </trkpt>
      <trkpt lat="45.96707" lon="4.78429">
        <ele>203</ele>
        <time>2018-10-16T10:26:14Z</time>
      </trkpt>
      <trkpt lat="45.96704" lon="4.78425">
        <ele>203</ele>
        <time>2018-10-16T10:26:15Z</time>
      </trkpt>
      <trkpt lat="45.967" lon="4.78421">
        <ele>203</ele>
        <time>2018-10-16T10:26:16Z</time>
      </trkpt>
      <trkpt lat="45.96696" lon="4.78417">
        <ele>205</ele>
        <time>2018-10-16T10:26:17Z</time>
      </trkpt>
      <trkpt lat="45.96692" lon="4.78412">
        <ele>205</ele>
        <time>2018-10-16T10:26:18Z</time>
      </trkpt>
      <trkpt lat="45.96687" lon="4.78408">
        <ele>204</ele>
        <time>2018-10-16T10:26:19Z</time>
      </trkpt>
      <trkpt lat="45.96682" lon="4.78404">
        <ele>204</ele>
        <time>2018-10-16T10:26:20Z</time>
      </trkpt>
      <trkpt lat="45.96676" lon="4.784">
        <ele>204</ele>
        <time>2018-10-16T10:26:21Z</time>
      </trkpt>
      <trkpt lat="45.96671" lon="4.78395">
        <ele>204</ele>
        <time>2018-10-16T10:26:22Z</time>
      </trkpt>
      <trkpt lat="45.96666" lon="4.7839">
        <ele>201</ele>
        <time>2018-10-16T10:26:23Z</time>
      </trkpt>
      <trkpt lat="45.96661" lon="4.78385">
        <ele>201</ele>
        <time>2018-10-16T10:26:24Z</time>
      </trkpt>
      <trkpt lat="45.96655" lon="4.78381">
        <ele>201</ele>
        <time>2018-10-16T10:26:25Z</time>
      </trkpt>
      <trkpt lat="45.96648" lon="4.78377">
        <ele>201</ele>
        <time>2018-10-16T10:26:26Z</time>
      </trkpt>
      <trkpt lat="45.96643" lon="4.78372">
        <ele>201</ele>
        <time>2018-10-16T10:26:27Z</time>
      </trkpt>
      <trkpt lat="45.96638" lon="4.78367">
        <ele>201</ele>
        <time>2018-10-16T10:26:28Z</time>
      </trkpt>
      <trkpt lat="45.96632" lon="4.78362">
        <ele>201</ele>
        <time>2018-10-16T10:26:29Z</time>
      </trkpt>
      <trkpt lat="45.96627" lon="4.78358">
        <ele>201</ele>
        <time>2018-10-16T10:26:30Z</time>
      </trkpt>
      <trkpt lat="45.96624" lon="4.78351">
        <ele>201</ele>
        <time>2018-10-16T10:26:31Z</time>
      </trkpt>
      <trkpt lat="45.96619" lon="4.78346">
        <ele>201</ele>
        <time>2018-10-16T10:26:32Z</time>
      </trkpt>
      <trkpt lat="45.96612" lon="4.78341">
        <ele>200</ele>
        <time>2018-10-16T10:26:33Z</time>
      </trkpt>
      <trkpt lat="45.96607" lon="4.78336">
        <ele>200</ele>
        <time>2018-10-16T10:26:34Z</time>
      </trkpt>
      <trkpt lat="45.96603" lon="4.78332">
        <ele>203</ele>
        <time>2018-10-16T10:26:35Z</time>
      </trkpt>
      <trkpt lat="45.96597" lon="4.78327">
        <ele>202</ele>
        <time>2018-10-16T10:26:36Z</time>
      </trkpt>
      <trkpt lat="45.96592" lon="4.78323">
        <ele>202</ele>
        <time>2018-10-16T10:26:37Z</time>
      </trkpt>
      <trkpt lat="45.96588" lon="4.78318">
        <ele>202</ele>
        <time>2018-10-16T10:26:38Z</time>
      </trkpt>
      <trkpt lat="45.96583" lon="4.78312">
        <ele>199</ele>
        <time>2018-10-16T10:26:39Z</time>
      </trkpt>
      <trkpt lat="45.96579" lon="4.78307">
        <ele>200</ele>
        <time>2018-10-16T10:26:40Z</time>
      </trkpt>
      <trkpt lat="45.96575" lon="4.78302">
        <ele>200</ele>
        <time>2018-10-16T10:26:41Z</time>
      </trkpt>
      <trkpt lat="45.9657" lon="4.78297">
        <ele>200</ele>
        <time>2018-10-16T10:26:42Z</time>
      </trkpt>
      <trkpt lat="45.96564" lon="4.78294">
        <ele>200</ele>
        <time>2018-10-16T10:26:43Z</time>
      </trkpt>
      <trkpt lat="45.96559" lon="4.78286">
        <ele>200</ele>
        <time>2018-10-16T10:26:44Z</time>
      </trkpt>
      <trkpt lat="45.96553" lon="4.78281">
        <ele>200</ele>
        <time>2018-10-16T10:26:45Z</time>
      </trkpt>
      <trkpt lat="45.9655" lon="4.78274">
        <ele>200</ele>
        <time>2018-10-16T10:26:46Z</time>
      </trkpt>
      <trkpt lat="45.96545" lon="4.78268">
        <ele>200</ele>
        <time>2018-10-16T10:26:47Z</time>
      </trkpt>
      <trkpt lat="45.9654" lon="4.7826">
        <ele>200</ele>
        <time>2018-10-16T10:26:48Z</time>
      </trkpt>
      <trkpt lat="45.96536" lon="4.78254">
        <ele>200</ele>
        <time>2018-10-16T10:26:49Z</time>
      </trkpt>
      <trkpt lat="45.96531" lon="4.78249">
        <ele>204</ele>
        <time>2018-10-16T10:26:50Z</time>
      </trkpt>
      <trkpt lat="45.96527" lon="4.78243">
        <ele>204</ele>
        <time>2018-10-16T10:26:51Z</time>
      </trkpt>
      <trkpt lat="45.96522" lon="4.78237">
        <ele>204</ele>
        <time>2018-10-16T10:26:52Z</time>
      </trkpt>
      <trkpt lat="45.96518" lon="4.7823">
        <ele>204</ele>
        <time>2018-10-16T10:26:53Z</time>
      </trkpt>
      <trkpt lat="45.96515" lon="4.78223">
        <ele>204</ele>
        <time>2018-10-16T10:26:54Z</time>
      </trkpt>
      <trkpt lat="45.96511" lon="4.78216">
        <ele>205</ele>
        <time>2018-10-16T10:26:55Z</time>
      </trkpt>
      <trkpt lat="45.96506" lon="4.78211">
        <ele>205</ele>
        <time>2018-10-16T10:26:56Z</time>
      </trkpt>
      <trkpt lat="45.96502" lon="4.78205">
        <ele>205</ele>
        <time>2018-10-16T10:26:57Z</time>
      </trkpt>
      <trkpt lat="45.96496" lon="4.782">
        <ele>200</ele>
        <time>2018-10-16T10:26:58Z</time>
      </trkpt>
      <trkpt lat="45.9649" lon="4.78196">
        <ele>201</ele>
        <time>2018-10-16T10:26:59Z</time>
      </trkpt>
      <trkpt lat="45.96484" lon="4.78191">
        <ele>201</ele>
        <time>2018-10-16T10:27:00Z</time>
      </trkpt>
      <trkpt lat="45.96478" lon="4.78189">
        <ele>201</ele>
        <time>2018-10-16T10:27:01Z</time>
      </trkpt>
      <trkpt lat="45.9647" lon="4.78186">
        <ele>200</ele>
        <time>2018-10-16T10:27:02Z</time>
      </trkpt>
      <trkpt lat="45.96465" lon="4.7818">
        <ele>200</ele>
        <time>2018-10-16T10:27:03Z</time>
      </trkpt>
      <trkpt lat="45.9646" lon="4.78175">
        <ele>200</ele>
        <time>2018-10-16T10:27:04Z</time>
      </trkpt>
      <trkpt lat="45.96455" lon="4.78172">
        <ele>200</ele>
        <time>2018-10-16T10:27:05Z</time>
      </trkpt>
      <trkpt lat="45.9645" lon="4.78165">
        <ele>203</ele>
        <time>2018-10-16T10:27:06Z</time>
      </trkpt>
      <trkpt lat="45.96444" lon="4.78161">
        <ele>203</ele>
        <time>2018-10-16T10:27:07Z</time>
      </trkpt>
      <trkpt lat="45.96439" lon="4.78157">
        <ele>203</ele>
        <time>2018-10-16T10:27:08Z</time>
      </trkpt>
      <trkpt lat="45.96434" lon="4.78152">
        <ele>203</ele>
        <time>2018-10-16T10:27:09Z</time>
      </trkpt>
      <trkpt lat="45.9643" lon="4.78149">
        <ele>202</ele>
        <time>2018-10-16T10:27:10Z</time>
      </trkpt>
      <trkpt lat="45.96425" lon="4.78145">
        <ele>203</ele>
        <time>2018-10-16T10:27:11Z</time>
      </trkpt>
      <trkpt lat="45.96421" lon="4.78139">
        <ele>203</ele>
        <time>2018-10-16T10:27:12Z</time>
      </trkpt>
      <trkpt lat="45.96416" lon="4.78135">
        <ele>199</ele>
        <time>2018-10-16T10:27:13Z</time>
      </trkpt>
      <trkpt lat="45.96411" lon="4.7813">
        <ele>199</ele>
        <time>2018-10-16T10:27:14Z</time>
      </trkpt>
      <trkpt lat="45.96406" lon="4.78126">
        <ele>200</ele>
        <time>2018-10-16T10:27:15Z</time>
      </trkpt>
      <trkpt lat="45.96402" lon="4.78121">
        <ele>200</ele>
        <time>2018-10-16T10:27:16Z</time>
      </trkpt>
      <trkpt lat="45.96397" lon="4.78116">
        <ele>200</ele>
        <time>2018-10-16T10:27:17Z</time>
      </trkpt>
      <trkpt lat="45.96389" lon="4.78111">
        <ele>200</ele>
        <time>2018-10-16T10:27:18Z</time>
      </trkpt>
      <trkpt lat="45.96383" lon="4.78106">
        <ele>200</ele>
        <time>2018-10-16T10:27:19Z</time>
      </trkpt>
      <trkpt lat="45.96381" lon="4.78102">
        <ele>200</ele>
        <time>2018-10-16T10:27:20Z</time>
      </trkpt>
      <trkpt lat="45.96378" lon="4.78097">
        <ele>200</ele>
        <time>2018-10-16T10:27:21Z</time>
      </trkpt>
      <trkpt lat="45.96372" lon="4.78092">
        <ele>200</ele>
        <time>2018-10-16T10:27:22Z</time>
      </trkpt>
      <trkpt lat="45.96367" lon="4.78087">
        <ele>199</ele>
        <time>2018-10-16T10:27:23Z</time>
      </trkpt>
      <trkpt lat="45.96364" lon="4.78083">
        <ele>202</ele>
        <time>2018-10-16T10:27:24Z</time>
      </trkpt>
      <trkpt lat="45.96357" lon="4.78076">
        <ele>202</ele>
        <time>2018-10-16T10:27:25Z</time>
      </trkpt>
      <trkpt lat="45.96353" lon="4.78071">
        <ele>202</ele>
        <time>2018-10-16T10:27:26Z</time>
      </trkpt>
      <trkpt lat="45.96348" lon="4.78064">
        <ele>202</ele>
        <time>2018-10-16T10:27:27Z</time>
      </trkpt>
      <trkpt lat="45.96342" lon="4.7806">
        <ele>202</ele>
        <time>2018-10-16T10:27:28Z</time>
      </trkpt>
      <trkpt lat="45.96337" lon="4.78054">
        <ele>202</ele>
        <time>2018-10-16T10:27:29Z</time>
      </trkpt>
      <trkpt lat="45.96333" lon="4.78047">
        <ele>199</ele>
        <time>2018-10-16T10:27:30Z</time>
      </trkpt>
      <trkpt lat="45.96328" lon="4.78041">
        <ele>199</ele>
        <time>2018-10-16T10:27:31Z</time>
      </trkpt>
      <trkpt lat="45.96325" lon="4.78036">
        <ele>200</ele>
        <time>2018-10-16T10:27:32Z</time>
      </trkpt>
      <trkpt lat="45.9632" lon="4.7803">
        <ele>200</ele>
        <time>2018-10-16T10:27:33Z</time>
      </trkpt>
      <trkpt lat="45.96315" lon="4.78024">
        <ele>200</ele>
        <time>2018-10-16T10:27:34Z</time>
      </trkpt>
      <trkpt lat="45.9631" lon="4.7802">
        <ele>200</ele>
        <time>2018-10-16T10:27:35Z</time>
      </trkpt>
      <trkpt lat="45.96304" lon="4.78014">
        <ele>200</ele>
        <time>2018-10-16T10:27:36Z</time>
      </trkpt>
      <trkpt lat="45.96299" lon="4.7801">
        <ele>200</ele>
        <time>2018-10-16T10:27:37Z</time>
      </trkpt>
      <trkpt lat="45.96294" lon="4.78005">
        <ele>199</ele>
        <time>2018-10-16T10:27:38Z</time>
      </trkpt>
      <trkpt lat="45.9629" lon="4.78">
        <ele>199</ele>
        <time>2018-10-16T10:27:39Z</time>
      </trkpt>
      <trkpt lat="45.96286" lon="4.77996">
        <ele>204</ele>
        <time>2018-10-16T10:27:40Z</time>
      </trkpt>
      <trkpt lat="45.96282" lon="4.77992">
        <ele>203</ele>
        <time>2018-10-16T10:27:41Z</time>
      </trkpt>
      <trkpt lat="45.96277" lon="4.77988">
        <ele>203</ele>
        <time>2018-10-16T10:27:42Z</time>
      </trkpt>
      <trkpt lat="45.96273" lon="4.77985">
        <ele>203</ele>
        <time>2018-10-16T10:27:43Z</time>
      </trkpt>
      <trkpt lat="45.96267" lon="4.7798">
        <ele>203</ele>
        <time>2018-10-16T10:27:44Z</time>
      </trkpt>
      <trkpt lat="45.96261" lon="4.77979">
        <ele>202</ele>
        <time>2018-10-16T10:27:45Z</time>
      </trkpt>
      <trkpt lat="45.96258" lon="4.77974">
        <ele>203</ele>
        <time>2018-10-16T10:27:46Z</time>
      </trkpt>
      <trkpt lat="45.96253" lon="4.77965">
        <ele>204</ele>
        <time>2018-10-16T10:27:48Z</time>
      </trkpt>
      <trkpt lat="45.96248" lon="4.77961">
        <ele>199</ele>
        <time>2018-10-16T10:27:49Z</time>
      </trkpt>
      <trkpt lat="45.96243" lon="4.77957">
        <ele>199</ele>
        <time>2018-10-16T10:27:50Z</time>
      </trkpt>
      <trkpt lat="45.9624" lon="4.77952">
        <ele>200</ele>
        <time>2018-10-16T10:27:51Z</time>
      </trkpt>
      <trkpt lat="45.96237" lon="4.77946">
        <ele>200</ele>
        <time>2018-10-16T10:27:52Z</time>
      </trkpt>
      <trkpt lat="45.96233" lon="4.77942">
        <ele>200</ele>
        <time>2018-10-16T10:27:53Z</time>
      </trkpt>
      <trkpt lat="45.96228" lon="4.77938">
        <ele>200</ele>
        <time>2018-10-16T10:27:54Z</time>
      </trkpt>
      <trkpt lat="45.96225" lon="4.77932">
        <ele>200</ele>
        <time>2018-10-16T10:27:55Z</time>
      </trkpt>
      <trkpt lat="45.96221" lon="4.77926">
        <ele>200</ele>
        <time>2018-10-16T10:27:56Z</time>
      </trkpt>
      <trkpt lat="45.96215" lon="4.77922">
        <ele>200</ele>
        <time>2018-10-16T10:27:57Z</time>
      </trkpt>
      <trkpt lat="45.96213" lon="4.77915">
        <ele>203</ele>
        <time>2018-10-16T10:27:58Z</time>
      </trkpt>
      <trkpt lat="45.96209" lon="4.77909">
        <ele>202</ele>
        <time>2018-10-16T10:27:59Z</time>
      </trkpt>
      <trkpt lat="45.96206" lon="4.77901">
        <ele>202</ele>
        <time>2018-10-16T10:28:00Z</time>
      </trkpt>
      <trkpt lat="45.96201" lon="4.77894">
        <ele>202</ele>
        <time>2018-10-16T10:28:01Z</time>
      </trkpt>
      <trkpt lat="45.96197" lon="4.77887">
        <ele>202</ele>
        <time>2018-10-16T10:28:02Z</time>
      </trkpt>
      <trkpt lat="45.96194" lon="4.77881">
        <ele>202</ele>
        <time>2018-10-16T10:28:03Z</time>
      </trkpt>
      <trkpt lat="45.9619" lon="4.77874">
        <ele>202</ele>
        <time>2018-10-16T10:28:04Z</time>
      </trkpt>
      <trkpt lat="45.96185" lon="4.77868">
        <ele>201</ele>
        <time>2018-10-16T10:28:05Z</time>
      </trkpt>
      <trkpt lat="45.9618" lon="4.77861">
        <ele>201</ele>
        <time>2018-10-16T10:28:06Z</time>
      </trkpt>
      <trkpt lat="45.96176" lon="4.77854">
        <ele>201</ele>
        <time>2018-10-16T10:28:07Z</time>
      </trkpt>
      <trkpt lat="45.96172" lon="4.77847">
        <ele>201</ele>
        <time>2018-10-16T10:28:08Z</time>
      </trkpt>
      <trkpt lat="45.96167" lon="4.7784">
        <ele>200</ele>
        <time>2018-10-16T10:28:09Z</time>
      </trkpt>
      <trkpt lat="45.96163" lon="4.77833">
        <ele>199</ele>
        <time>2018-10-16T10:28:10Z</time>
      </trkpt>
      <trkpt lat="45.96159" lon="4.77826">
        <ele>198</ele>
        <time>2018-10-16T10:28:11Z</time>
      </trkpt>
      <trkpt lat="45.96154" lon="4.77819">
        <ele>198</ele>
        <time>2018-10-16T10:28:12Z</time>
      </trkpt>
      <trkpt lat="45.9615" lon="4.77813">
        <ele>198</ele>
        <time>2018-10-16T10:28:13Z</time>
      </trkpt>
      <trkpt lat="45.96146" lon="4.77807">
        <ele>198</ele>
        <time>2018-10-16T10:28:14Z</time>
      </trkpt>
      <trkpt lat="45.96142" lon="4.778">
        <ele>198</ele>
        <time>2018-10-16T10:28:15Z</time>
      </trkpt>
      <trkpt lat="45.96139" lon="4.77794">
        <ele>198</ele>
        <time>2018-10-16T10:28:16Z</time>
      </trkpt>
      <trkpt lat="45.96135" lon="4.77787">
        <ele>198</ele>
        <time>2018-10-16T10:28:17Z</time>
      </trkpt>
      <trkpt lat="45.96132" lon="4.77781">
        <ele>198</ele>
        <time>2018-10-16T10:28:18Z</time>
      </trkpt>
      <trkpt lat="45.96128" lon="4.77775">
        <ele>198</ele>
        <time>2018-10-16T10:28:19Z</time>
      </trkpt>
      <trkpt lat="45.96125" lon="4.77769">
        <ele>198</ele>
        <time>2018-10-16T10:28:20Z</time>
      </trkpt>
      <trkpt lat="45.96122" lon="4.77765">
        <ele>197</ele>
        <time>2018-10-16T10:28:21Z</time>
      </trkpt>
      <trkpt lat="45.96119" lon="4.77758">
        <ele>197</ele>
        <time>2018-10-16T10:28:22Z</time>
      </trkpt>
      <trkpt lat="45.96116" lon="4.77752">
        <ele>197</ele>
        <time>2018-10-16T10:28:23Z</time>
      </trkpt>
      <trkpt lat="45.96112" lon="4.77747">
        <ele>199</ele>
        <time>2018-10-16T10:28:24Z</time>
      </trkpt>
      <trkpt lat="45.96107" lon="4.77741">
        <ele>199</ele>
        <time>2018-10-16T10:28:25Z</time>
      </trkpt>
      <trkpt lat="45.96104" lon="4.77735">
        <ele>199</ele>
        <time>2018-10-16T10:28:26Z</time>
      </trkpt>
      <trkpt lat="45.961" lon="4.77728">
        <ele>199</ele>
        <time>2018-10-16T10:28:27Z</time>
      </trkpt>
      <trkpt lat="45.96096" lon="4.7772">
        <ele>199</ele>
        <time>2018-10-16T10:28:28Z</time>
      </trkpt>
      <trkpt lat="45.96092" lon="4.77714">
        <ele>200</ele>
        <time>2018-10-16T10:28:29Z</time>
      </trkpt>
      <trkpt lat="45.96087" lon="4.77707">
        <ele>200</ele>
        <time>2018-10-16T10:28:30Z</time>
      </trkpt>
      <trkpt lat="45.96083" lon="4.777">
        <ele>197</ele>
        <time>2018-10-16T10:28:31Z</time>
      </trkpt>
      <trkpt lat="45.9608" lon="4.77693">
        <ele>198</ele>
        <time>2018-10-16T10:28:32Z</time>
      </trkpt>
      <trkpt lat="45.96073" lon="4.77685">
        <ele>198</ele>
        <time>2018-10-16T10:28:33Z</time>
      </trkpt>
      <trkpt lat="45.96068" lon="4.77679">
        <ele>198</ele>
        <time>2018-10-16T10:28:34Z</time>
      </trkpt>
      <trkpt lat="45.96066" lon="4.77675">
        <ele>198</ele>
        <time>2018-10-16T10:28:35Z</time>
      </trkpt>
      <trkpt lat="45.96063" lon="4.7767">
        <ele>198</ele>
        <time>2018-10-16T10:28:36Z</time>
      </trkpt>
      <trkpt lat="45.96058" lon="4.77664">
        <ele>200</ele>
        <time>2018-10-16T10:28:37Z</time>
      </trkpt>
      <trkpt lat="45.96055" lon="4.77659">
        <ele>200</ele>
        <time>2018-10-16T10:28:38Z</time>
      </trkpt>
      <trkpt lat="45.9605" lon="4.77654">
        <ele>200</ele>
        <time>2018-10-16T10:28:39Z</time>
      </trkpt>
      <trkpt lat="45.96044" lon="4.77647">
        <ele>199</ele>
        <time>2018-10-16T10:28:40Z</time>
      </trkpt>
      <trkpt lat="45.96041" lon="4.77641">
        <ele>199</ele>
        <time>2018-10-16T10:28:41Z</time>
      </trkpt>
      <trkpt lat="45.96036" lon="4.77634">
        <ele>199</ele>
        <time>2018-10-16T10:28:42Z</time>
      </trkpt>
      <trkpt lat="45.96031" lon="4.77629">
        <ele>199</ele>
        <time>2018-10-16T10:28:43Z</time>
      </trkpt>
      <trkpt lat="45.96025" lon="4.77622">
        <ele>199</ele>
        <time>2018-10-16T10:28:44Z</time>
      </trkpt>
      <trkpt lat="45.96019" lon="4.77617">
        <ele>199</ele>
        <time>2018-10-16T10:28:45Z</time>
      </trkpt>
      <trkpt lat="45.96013" lon="4.77611">
        <ele>199</ele>
        <time>2018-10-16T10:28:46Z</time>
      </trkpt>
      <trkpt lat="45.96009" lon="4.77605">
        <ele>199</ele>
        <time>2018-10-16T10:28:47Z</time>
      </trkpt>
      <trkpt lat="45.96005" lon="4.77601">
        <ele>198</ele>
        <time>2018-10-16T10:28:48Z</time>
      </trkpt>
      <trkpt lat="45.96001" lon="4.77595">
        <ele>198</ele>
        <time>2018-10-16T10:28:49Z</time>
      </trkpt>
      <trkpt lat="45.95998" lon="4.7759">
        <ele>196</ele>
        <time>2018-10-16T10:28:50Z</time>
      </trkpt>
      <trkpt lat="45.95994" lon="4.77583">
        <ele>197</ele>
        <time>2018-10-16T10:28:51Z</time>
      </trkpt>
      <trkpt lat="45.9599" lon="4.77577">
        <ele>196</ele>
        <time>2018-10-16T10:28:52Z</time>
      </trkpt>
      <trkpt lat="45.95987" lon="4.77571">
        <ele>196</ele>
        <time>2018-10-16T10:28:53Z</time>
      </trkpt>
      <trkpt lat="45.95984" lon="4.77565">
        <ele>196</ele>
        <time>2018-10-16T10:28:54Z</time>
      </trkpt>
      <trkpt lat="45.95981" lon="4.77559">
        <ele>196</ele>
        <time>2018-10-16T10:28:55Z</time>
      </trkpt>
      <trkpt lat="45.95978" lon="4.77553">
        <ele>195</ele>
        <time>2018-10-16T10:28:56Z</time>
      </trkpt>
      <trkpt lat="45.95978" lon="4.77546">
        <ele>196</ele>
        <time>2018-10-16T10:28:57Z</time>
      </trkpt>
      <trkpt lat="45.95973" lon="4.77536">
        <ele>195</ele>
        <time>2018-10-16T10:28:59Z</time>
      </trkpt>
      <trkpt lat="45.9597" lon="4.7753">
        <ele>195</ele>
        <time>2018-10-16T10:29:00Z</time>
      </trkpt>
      <trkpt lat="45.95967" lon="4.77524">
        <ele>195</ele>
        <time>2018-10-16T10:29:01Z</time>
      </trkpt>
      <trkpt lat="45.95963" lon="4.77518">
        <ele>195</ele>
        <time>2018-10-16T10:29:02Z</time>
      </trkpt>
      <trkpt lat="45.95961" lon="4.77511">
        <ele>195</ele>
        <time>2018-10-16T10:29:03Z</time>
      </trkpt>
      <trkpt lat="45.95957" lon="4.77504">
        <ele>195</ele>
        <time>2018-10-16T10:29:04Z</time>
      </trkpt>
      <trkpt lat="45.95956" lon="4.77496">
        <ele>196</ele>
        <time>2018-10-16T10:29:05Z</time>
      </trkpt>
      <trkpt lat="45.95954" lon="4.77488">
        <ele>196</ele>
        <time>2018-10-16T10:29:06Z</time>
      </trkpt>
      <trkpt lat="45.95951" lon="4.7748">
        <ele>196</ele>
        <time>2018-10-16T10:29:07Z</time>
      </trkpt>
      <trkpt lat="45.95948" lon="4.77474">
        <ele>196</ele>
        <time>2018-10-16T10:29:08Z</time>
      </trkpt>
      <trkpt lat="45.95945" lon="4.77466">
        <ele>196</ele>
        <time>2018-10-16T10:29:09Z</time>
      </trkpt>
      <trkpt lat="45.95942" lon="4.77458">
        <ele>196</ele>
        <time>2018-10-16T10:29:10Z</time>
      </trkpt>
      <trkpt lat="45.95937" lon="4.77451">
        <ele>195</ele>
        <time>2018-10-16T10:29:11Z</time>
      </trkpt>
      <trkpt lat="45.95936" lon="4.77444">
        <ele>195</ele>
        <time>2018-10-16T10:29:12Z</time>
      </trkpt>
      <trkpt lat="45.95932" lon="4.77438">
        <ele>195</ele>
        <time>2018-10-16T10:29:13Z</time>
      </trkpt>
      <trkpt lat="45.95929" lon="4.77431">
        <ele>195</ele>
        <time>2018-10-16T10:29:14Z</time>
      </trkpt>
      <trkpt lat="45.95928" lon="4.77424">
        <ele>195</ele>
        <time>2018-10-16T10:29:15Z</time>
      </trkpt>
      <trkpt lat="45.95921" lon="4.77417">
        <ele>195</ele>
        <time>2018-10-16T10:29:16Z</time>
      </trkpt>
      <trkpt lat="45.95918" lon="4.77408">
        <ele>195</ele>
        <time>2018-10-16T10:29:17Z</time>
      </trkpt>
      <trkpt lat="45.95916" lon="4.774">
        <ele>193</ele>
        <time>2018-10-16T10:29:18Z</time>
      </trkpt>
      <trkpt lat="45.95914" lon="4.77392">
        <ele>193</ele>
        <time>2018-10-16T10:29:19Z</time>
      </trkpt>
      <trkpt lat="45.95911" lon="4.77383">
        <ele>193</ele>
        <time>2018-10-16T10:29:20Z</time>
      </trkpt>
      <trkpt lat="45.95909" lon="4.77375">
        <ele>193</ele>
        <time>2018-10-16T10:29:21Z</time>
      </trkpt>
      <trkpt lat="45.95907" lon="4.77367">
        <ele>193</ele>
        <time>2018-10-16T10:29:22Z</time>
      </trkpt>
      <trkpt lat="45.95905" lon="4.77359">
        <ele>193</ele>
        <time>2018-10-16T10:29:23Z</time>
      </trkpt>
      <trkpt lat="45.95903" lon="4.77349">
        <ele>193</ele>
        <time>2018-10-16T10:29:24Z</time>
      </trkpt>
      <trkpt lat="45.95901" lon="4.77341">
        <ele>193</ele>
        <time>2018-10-16T10:29:25Z</time>
      </trkpt>
      <trkpt lat="45.95898" lon="4.77334">
        <ele>193</ele>
        <time>2018-10-16T10:29:26Z</time>
      </trkpt>
      <trkpt lat="45.95896" lon="4.77327">
        <ele>193</ele>
        <time>2018-10-16T10:29:27Z</time>
      </trkpt>
      <trkpt lat="45.95893" lon="4.77318">
        <ele>193</ele>
        <time>2018-10-16T10:29:28Z</time>
      </trkpt>
      <trkpt lat="45.95891" lon="4.77308">
        <ele>193</ele>
        <time>2018-10-16T10:29:29Z</time>
      </trkpt>
      <trkpt lat="45.95889" lon="4.773">
        <ele>193</ele>
        <time>2018-10-16T10:29:30Z</time>
      </trkpt>
      <trkpt lat="45.95886" lon="4.7729">
        <ele>193</ele>
        <time>2018-10-16T10:29:31Z</time>
      </trkpt>
      <trkpt lat="45.95884" lon="4.7728">
        <ele>193</ele>
        <time>2018-10-16T10:29:32Z</time>
      </trkpt>
      <trkpt lat="45.95883" lon="4.77272">
        <ele>193</ele>
        <time>2018-10-16T10:29:33Z</time>
      </trkpt>
      <trkpt lat="45.95881" lon="4.77263">
        <ele>193</ele>
        <time>2018-10-16T10:29:34Z</time>
      </trkpt>
      <trkpt lat="45.95879" lon="4.77253">
        <ele>193</ele>
        <time>2018-10-16T10:29:35Z</time>
      </trkpt>
      <trkpt lat="45.95878" lon="4.77245">
        <ele>193</ele>
        <time>2018-10-16T10:29:36Z</time>
      </trkpt>
      <trkpt lat="45.95876" lon="4.77237">
        <ele>193</ele>
        <time>2018-10-16T10:29:37Z</time>
      </trkpt>
      <trkpt lat="45.95873" lon="4.77228">
        <ele>193</ele>
        <time>2018-10-16T10:29:38Z</time>
      </trkpt>
      <trkpt lat="45.95873" lon="4.77219">
        <ele>193</ele>
        <time>2018-10-16T10:29:39Z</time>
      </trkpt>
      <trkpt lat="45.9587" lon="4.7721">
        <ele>193</ele>
        <time>2018-10-16T10:29:40Z</time>
      </trkpt>
      <trkpt lat="45.95868" lon="4.77202">
        <ele>193</ele>
        <time>2018-10-16T10:29:41Z</time>
      </trkpt>
      <trkpt lat="45.95866" lon="4.77193">
        <ele>193</ele>
        <time>2018-10-16T10:29:42Z</time>
      </trkpt>
      <trkpt lat="45.95863" lon="4.77183">
        <ele>192</ele>
        <time>2018-10-16T10:29:43Z</time>
      </trkpt>
      <trkpt lat="45.9586" lon="4.77173">
        <ele>192</ele>
        <time>2018-10-16T10:29:44Z</time>
      </trkpt>
      <trkpt lat="45.95859" lon="4.77163">
        <ele>193</ele>
        <time>2018-10-16T10:29:45Z</time>
      </trkpt>
      <trkpt lat="45.95857" lon="4.77154">
        <ele>193</ele>
        <time>2018-10-16T10:29:46Z</time>
      </trkpt>
      <trkpt lat="45.95854" lon="4.77146">
        <ele>193</ele>
        <time>2018-10-16T10:29:47Z</time>
      </trkpt>
      <trkpt lat="45.95851" lon="4.77137">
        <ele>193</ele>
        <time>2018-10-16T10:29:48Z</time>
      </trkpt>
      <trkpt lat="45.95849" lon="4.77127">
        <ele>193</ele>
        <time>2018-10-16T10:29:49Z</time>
      </trkpt>
      <trkpt lat="45.95846" lon="4.77118">
        <ele>193</ele>
        <time>2018-10-16T10:29:50Z</time>
      </trkpt>
      <trkpt lat="45.95843" lon="4.77109">
        <ele>193</ele>
        <time>2018-10-16T10:29:51Z</time>
      </trkpt>
      <trkpt lat="45.9584" lon="4.771">
        <ele>193</ele>
        <time>2018-10-16T10:29:52Z</time>
      </trkpt>
      <trkpt lat="45.95836" lon="4.77092">
        <ele>193</ele>
        <time>2018-10-16T10:29:53Z</time>
      </trkpt>
      <trkpt lat="45.95833" lon="4.77084">
        <ele>192</ele>
        <time>2018-10-16T10:29:54Z</time>
      </trkpt>
      <trkpt lat="45.9583" lon="4.77075">
        <ele>191</ele>
        <time>2018-10-16T10:29:55Z</time>
      </trkpt>
      <trkpt lat="45.95828" lon="4.77067">
        <ele>191</ele>
        <time>2018-10-16T10:29:56Z</time>
      </trkpt>
      <trkpt lat="45.95821" lon="4.77061">
        <ele>190</ele>
        <time>2018-10-16T10:29:57Z</time>
      </trkpt>
      <trkpt lat="45.9582" lon="4.77051">
        <ele>190</ele>
        <time>2018-10-16T10:29:58Z</time>
      </trkpt>
      <trkpt lat="45.95817" lon="4.77044">
        <ele>190</ele>
        <time>2018-10-16T10:29:59Z</time>
      </trkpt>
      <trkpt lat="45.95813" lon="4.77036">
        <ele>190</ele>
        <time>2018-10-16T10:30:00Z</time>
      </trkpt>
      <trkpt lat="45.95809" lon="4.7703">
        <ele>190</ele>
        <time>2018-10-16T10:30:01Z</time>
      </trkpt>
      <trkpt lat="45.95804" lon="4.77023">
        <ele>190</ele>
        <time>2018-10-16T10:30:02Z</time>
      </trkpt>
      <trkpt lat="45.95802" lon="4.77015">
        <ele>190</ele>
        <time>2018-10-16T10:30:03Z</time>
      </trkpt>
      <trkpt lat="45.95801" lon="4.77007">
        <ele>190</ele>
        <time>2018-10-16T10:30:04Z</time>
      </trkpt>
      <trkpt lat="45.95801" lon="4.76999">
        <ele>189</ele>
        <time>2018-10-16T10:30:05Z</time>
      </trkpt>
      <trkpt lat="45.958" lon="4.76991">
        <ele>189</ele>
        <time>2018-10-16T10:30:06Z</time>
      </trkpt>
      <trkpt lat="45.95801" lon="4.76982">
        <ele>189</ele>
        <time>2018-10-16T10:30:07Z</time>
      </trkpt>
      <trkpt lat="45.95801" lon="4.76974">
        <ele>189</ele>
        <time>2018-10-16T10:30:08Z</time>
      </trkpt>
      <trkpt lat="45.95803" lon="4.76967">
        <ele>189</ele>
        <time>2018-10-16T10:30:09Z</time>
      </trkpt>
      <trkpt lat="45.95805" lon="4.76959">
        <ele>189</ele>
        <time>2018-10-16T10:30:10Z</time>
      </trkpt>
      <trkpt lat="45.95807" lon="4.76952">
        <ele>189</ele>
        <time>2018-10-16T10:30:11Z</time>
      </trkpt>
      <trkpt lat="45.95809" lon="4.76943">
        <ele>189</ele>
        <time>2018-10-16T10:30:12Z</time>
      </trkpt>
      <trkpt lat="45.9581" lon="4.76936">
        <ele>189</ele>
        <time>2018-10-16T10:30:13Z</time>
      </trkpt>
      <trkpt lat="45.95813" lon="4.76928">
        <ele>189</ele>
        <time>2018-10-16T10:30:14Z</time>
      </trkpt>
      <trkpt lat="45.95815" lon="4.7692">
        <ele>189</ele>
        <time>2018-10-16T10:30:15Z</time>
      </trkpt>
      <trkpt lat="45.95817" lon="4.76911">
        <ele>189</ele>
        <time>2018-10-16T10:30:16Z</time>
      </trkpt>
      <trkpt lat="45.95818" lon="4.76904">
        <ele>189</ele>
        <time>2018-10-16T10:30:17Z</time>
      </trkpt>
      <trkpt lat="45.95819" lon="4.76896">
        <ele>189</ele>
        <time>2018-10-16T10:30:18Z</time>
      </trkpt>
      <trkpt lat="45.9582" lon="4.76888">
        <ele>189</ele>
        <time>2018-10-16T10:30:19Z</time>
      </trkpt>
      <trkpt lat="45.95821" lon="4.76881">
        <ele>189</ele>
        <time>2018-10-16T10:30:20Z</time>
      </trkpt>
      <trkpt lat="45.95823" lon="4.76874">
        <ele>189</ele>
        <time>2018-10-16T10:30:21Z</time>
      </trkpt>
      <trkpt lat="45.95824" lon="4.76867">
        <ele>189</ele>
        <time>2018-10-16T10:30:22Z</time>
      </trkpt>
      <trkpt lat="45.95826" lon="4.7686">
        <ele>189</ele>
        <time>2018-10-16T10:30:23Z</time>
      </trkpt>
      <trkpt lat="45.95828" lon="4.76853">
        <ele>190</ele>
        <time>2018-10-16T10:30:24Z</time>
      </trkpt>
      <trkpt lat="45.9583" lon="4.76845">
        <ele>190</ele>
        <time>2018-10-16T10:30:25Z</time>
      </trkpt>
      <trkpt lat="45.95831" lon="4.76836">
        <ele>190</ele>
        <time>2018-10-16T10:30:26Z</time>
      </trkpt>
      <trkpt lat="45.95833" lon="4.7683">
        <ele>190</ele>
        <time>2018-10-16T10:30:27Z</time>
      </trkpt>
      <trkpt lat="45.95833" lon="4.76822">
        <ele>190</ele>
        <time>2018-10-16T10:30:28Z</time>
      </trkpt>
      <trkpt lat="45.95834" lon="4.76814">
        <ele>190</ele>
        <time>2018-10-16T10:30:29Z</time>
      </trkpt>
      <trkpt lat="45.95835" lon="4.76809">
        <ele>190</ele>
        <time>2018-10-16T10:30:30Z</time>
      </trkpt>
      <trkpt lat="45.95835" lon="4.76796">
        <ele>191</ele>
        <time>2018-10-16T10:30:32Z</time>
      </trkpt>
      <trkpt lat="45.95834" lon="4.76788">
        <ele>191</ele>
        <time>2018-10-16T10:30:33Z</time>
      </trkpt>
      <trkpt lat="45.95833" lon="4.76782">
        <ele>190</ele>
        <time>2018-10-16T10:30:34Z</time>
      </trkpt>
      <trkpt lat="45.95831" lon="4.76774">
        <ele>190</ele>
        <time>2018-10-16T10:30:35Z</time>
      </trkpt>
      <trkpt lat="45.95829" lon="4.76766">
        <ele>190</ele>
        <time>2018-10-16T10:30:36Z</time>
      </trkpt>
      <trkpt lat="45.95828" lon="4.76758">
        <ele>191</ele>
        <time>2018-10-16T10:30:37Z</time>
      </trkpt>
      <trkpt lat="45.95826" lon="4.76748">
        <ele>190</ele>
        <time>2018-10-16T10:30:38Z</time>
      </trkpt>
      <trkpt lat="45.95826" lon="4.76738">
        <ele>190</ele>
        <time>2018-10-16T10:30:39Z</time>
      </trkpt>
      <trkpt lat="45.95823" lon="4.76728">
        <ele>190</ele>
        <time>2018-10-16T10:30:40Z</time>
      </trkpt>
      <trkpt lat="45.95821" lon="4.76719">
        <ele>189</ele>
        <time>2018-10-16T10:30:41Z</time>
      </trkpt>
      <trkpt lat="45.9582" lon="4.76709">
        <ele>189</ele>
        <time>2018-10-16T10:30:42Z</time>
      </trkpt>
      <trkpt lat="45.95819" lon="4.767">
        <ele>189</ele>
        <time>2018-10-16T10:30:43Z</time>
      </trkpt>
      <trkpt lat="45.95818" lon="4.76692">
        <ele>189</ele>
        <time>2018-10-16T10:30:44Z</time>
      </trkpt>
      <trkpt lat="45.95818" lon="4.76683">
        <ele>189</ele>
        <time>2018-10-16T10:30:45Z</time>
      </trkpt>
      <trkpt lat="45.95818" lon="4.76675">
        <ele>189</ele>
        <time>2018-10-16T10:30:46Z</time>
      </trkpt>
      <trkpt lat="45.95816" lon="4.76666">
        <ele>188</ele>
        <time>2018-10-16T10:30:47Z</time>
      </trkpt>
      <trkpt lat="45.95815" lon="4.76658">
        <ele>188</ele>
        <time>2018-10-16T10:30:48Z</time>
      </trkpt>
      <trkpt lat="45.95814" lon="4.7665">
        <ele>188</ele>
        <time>2018-10-16T10:30:49Z</time>
      </trkpt>
      <trkpt lat="45.95813" lon="4.76642">
        <ele>188</ele>
        <time>2018-10-16T10:30:50Z</time>
      </trkpt>
      <trkpt lat="45.95812" lon="4.76634">
        <ele>188</ele>
        <time>2018-10-16T10:30:51Z</time>
      </trkpt>
      <trkpt lat="45.95812" lon="4.76627">
        <ele>188</ele>
        <time>2018-10-16T10:30:52Z</time>
      </trkpt>
      <trkpt lat="45.95811" lon="4.76619">
        <ele>188</ele>
        <time>2018-10-16T10:30:53Z</time>
      </trkpt>
      <trkpt lat="45.9581" lon="4.76613">
        <ele>188</ele>
        <time>2018-10-16T10:30:54Z</time>
      </trkpt>
      <trkpt lat="45.95809" lon="4.76605">
        <ele>188</ele>
        <time>2018-10-16T10:30:55Z</time>
      </trkpt>
      <trkpt lat="45.95807" lon="4.76597">
        <ele>188</ele>
        <time>2018-10-16T10:30:56Z</time>
      </trkpt>
      <trkpt lat="45.95806" lon="4.76589">
        <ele>188</ele>
        <time>2018-10-16T10:30:57Z</time>
      </trkpt>
      <trkpt lat="45.95803" lon="4.76582">
        <ele>187</ele>
        <time>2018-10-16T10:30:58Z</time>
      </trkpt>
      <trkpt lat="45.95802" lon="4.76572">
        <ele>187</ele>
        <time>2018-10-16T10:30:59Z</time>
      </trkpt>
      <trkpt lat="45.958" lon="4.76563">
        <ele>187</ele>
        <time>2018-10-16T10:31:00Z</time>
      </trkpt>
      <trkpt lat="45.95798" lon="4.76554">
        <ele>187</ele>
        <time>2018-10-16T10:31:01Z</time>
      </trkpt>
      <trkpt lat="45.95797" lon="4.76544">
        <ele>187</ele>
        <time>2018-10-16T10:31:02Z</time>
      </trkpt>
      <trkpt lat="45.95796" lon="4.76535">
        <ele>187</ele>
        <time>2018-10-16T10:31:03Z</time>
      </trkpt>
      <trkpt lat="45.95795" lon="4.76529">
        <ele>187</ele>
        <time>2018-10-16T10:31:04Z</time>
      </trkpt>
      <trkpt lat="45.95794" lon="4.7652">
        <ele>187</ele>
        <time>2018-10-16T10:31:05Z</time>
      </trkpt>
      <trkpt lat="45.95792" lon="4.76511">
        <ele>187</ele>
        <time>2018-10-16T10:31:06Z</time>
      </trkpt>
      <trkpt lat="45.9579" lon="4.76503">
        <ele>187</ele>
        <time>2018-10-16T10:31:07Z</time>
      </trkpt>
      <trkpt lat="45.95789" lon="4.76494">
        <ele>186</ele>
        <time>2018-10-16T10:31:08Z</time>
      </trkpt>
      <trkpt lat="45.95787" lon="4.76487">
        <ele>186</ele>
        <time>2018-10-16T10:31:09Z</time>
      </trkpt>
      <trkpt lat="45.95786" lon="4.76479">
        <ele>186</ele>
        <time>2018-10-16T10:31:10Z</time>
      </trkpt>
      <trkpt lat="45.95785" lon="4.7647">
        <ele>186</ele>
        <time>2018-10-16T10:31:11Z</time>
      </trkpt>
      <trkpt lat="45.95783" lon="4.76461">
        <ele>186</ele>
        <time>2018-10-16T10:31:12Z</time>
      </trkpt>
      <trkpt lat="45.95782" lon="4.76452">
        <ele>186</ele>
        <time>2018-10-16T10:31:13Z</time>
      </trkpt>
      <trkpt lat="45.95782" lon="4.76444">
        <ele>186</ele>
        <time>2018-10-16T10:31:14Z</time>
      </trkpt>
      <trkpt lat="45.95782" lon="4.76436">
        <ele>186</ele>
        <time>2018-10-16T10:31:15Z</time>
      </trkpt>
      <trkpt lat="45.95779" lon="4.76427">
        <ele>186</ele>
        <time>2018-10-16T10:31:16Z</time>
      </trkpt>
      <trkpt lat="45.95779" lon="4.76418">
        <ele>186</ele>
        <time>2018-10-16T10:31:17Z</time>
      </trkpt>
      <trkpt lat="45.95778" lon="4.7641">
        <ele>186</ele>
        <time>2018-10-16T10:31:18Z</time>
      </trkpt>
      <trkpt lat="45.95777" lon="4.76401">
        <ele>186</ele>
        <time>2018-10-16T10:31:19Z</time>
      </trkpt>
      <trkpt lat="45.95777" lon="4.76393">
        <ele>186</ele>
        <time>2018-10-16T10:31:20Z</time>
      </trkpt>
      <trkpt lat="45.95776" lon="4.76385">
        <ele>186</ele>
        <time>2018-10-16T10:31:21Z</time>
      </trkpt>
      <trkpt lat="45.95776" lon="4.76376">
        <ele>186</ele>
        <time>2018-10-16T10:31:22Z</time>
      </trkpt>
      <trkpt lat="45.95776" lon="4.76367">
        <ele>186</ele>
        <time>2018-10-16T10:31:23Z</time>
      </trkpt>
      <trkpt lat="45.95775" lon="4.76359">
        <ele>186</ele>
        <time>2018-10-16T10:31:24Z</time>
      </trkpt>
      <trkpt lat="45.95775" lon="4.7635">
        <ele>186</ele>
        <time>2018-10-16T10:31:25Z</time>
      </trkpt>
      <trkpt lat="45.95774" lon="4.76343">
        <ele>186</ele>
        <time>2018-10-16T10:31:26Z</time>
      </trkpt>
      <trkpt lat="45.95773" lon="4.76334">
        <ele>186</ele>
        <time>2018-10-16T10:31:27Z</time>
      </trkpt>
      <trkpt lat="45.95773" lon="4.76327">
        <ele>185</ele>
        <time>2018-10-16T10:31:28Z</time>
      </trkpt>
      <trkpt lat="45.95773" lon="4.76319">
        <ele>185</ele>
        <time>2018-10-16T10:31:29Z</time>
      </trkpt>
      <trkpt lat="45.95772" lon="4.76311">
        <ele>186</ele>
        <time>2018-10-16T10:31:30Z</time>
      </trkpt>
      <trkpt lat="45.95771" lon="4.76304">
        <ele>186</ele>
        <time>2018-10-16T10:31:31Z</time>
      </trkpt>
      <trkpt lat="45.9577" lon="4.76298">
        <ele>186</ele>
        <time>2018-10-16T10:31:32Z</time>
      </trkpt>
      <trkpt lat="45.95769" lon="4.76289">
        <ele>186</ele>
        <time>2018-10-16T10:31:33Z</time>
      </trkpt>
      <trkpt lat="45.95768" lon="4.7628">
        <ele>186</ele>
        <time>2018-10-16T10:31:34Z</time>
      </trkpt>
      <trkpt lat="45.95768" lon="4.76271">
        <ele>186</ele>
        <time>2018-10-16T10:31:35Z</time>
      </trkpt>
      <trkpt lat="45.95767" lon="4.76262">
        <ele>185</ele>
        <time>2018-10-16T10:31:36Z</time>
      </trkpt>
      <trkpt lat="45.95767" lon="4.76253">
        <ele>185</ele>
        <time>2018-10-16T10:31:37Z</time>
      </trkpt>
      <trkpt lat="45.95766" lon="4.76244">
        <ele>186</ele>
        <time>2018-10-16T10:31:38Z</time>
      </trkpt>
      <trkpt lat="45.95765" lon="4.76234">
        <ele>186</ele>
        <time>2018-10-16T10:31:39Z</time>
      </trkpt>
      <trkpt lat="45.95766" lon="4.76226">
        <ele>186</ele>
        <time>2018-10-16T10:31:40Z</time>
      </trkpt>
      <trkpt lat="45.95766" lon="4.76217">
        <ele>186</ele>
        <time>2018-10-16T10:31:41Z</time>
      </trkpt>
      <trkpt lat="45.95765" lon="4.76207">
        <ele>186</ele>
        <time>2018-10-16T10:31:42Z</time>
      </trkpt>
      <trkpt lat="45.95764" lon="4.76199">
        <ele>186</ele>
        <time>2018-10-16T10:31:43Z</time>
      </trkpt>
      <trkpt lat="45.95763" lon="4.7619">
        <ele>186</ele>
        <time>2018-10-16T10:31:44Z</time>
      </trkpt>
      <trkpt lat="45.95763" lon="4.76181">
        <ele>186</ele>
        <time>2018-10-16T10:31:45Z</time>
      </trkpt>
      <trkpt lat="45.95763" lon="4.76172">
        <ele>185</ele>
        <time>2018-10-16T10:31:46Z</time>
      </trkpt>
      <trkpt lat="45.95762" lon="4.76162">
        <ele>186</ele>
        <time>2018-10-16T10:31:47Z</time>
      </trkpt>
      <trkpt lat="45.95762" lon="4.76154">
        <ele>186</ele>
        <time>2018-10-16T10:31:48Z</time>
      </trkpt>
      <trkpt lat="45.95761" lon="4.76144">
        <ele>186</ele>
        <time>2018-10-16T10:31:49Z</time>
      </trkpt>
      <trkpt lat="45.9576" lon="4.76134">
        <ele>186</ele>
        <time>2018-10-16T10:31:50Z</time>
      </trkpt>
      <trkpt lat="45.95759" lon="4.76124">
        <ele>186</ele>
        <time>2018-10-16T10:31:51Z</time>
      </trkpt>
      <trkpt lat="45.95758" lon="4.76115">
        <ele>186</ele>
        <time>2018-10-16T10:31:52Z</time>
      </trkpt>
      <trkpt lat="45.95757" lon="4.76106">
        <ele>186</ele>
        <time>2018-10-16T10:31:53Z</time>
      </trkpt>
      <trkpt lat="45.95754" lon="4.76097">
        <ele>186</ele>
        <time>2018-10-16T10:31:54Z</time>
      </trkpt>
      <trkpt lat="45.95751" lon="4.76089">
        <ele>185</ele>
        <time>2018-10-16T10:31:55Z</time>
      </trkpt>
      <trkpt lat="45.95748" lon="4.76081">
        <ele>185</ele>
        <time>2018-10-16T10:31:56Z</time>
      </trkpt>
      <trkpt lat="45.95745" lon="4.76072">
        <ele>185</ele>
        <time>2018-10-16T10:31:57Z</time>
      </trkpt>
      <trkpt lat="45.95742" lon="4.76065">
        <ele>185</ele>
        <time>2018-10-16T10:31:58Z</time>
      </trkpt>
      <trkpt lat="45.9574" lon="4.76057">
        <ele>184</ele>
        <time>2018-10-16T10:31:59Z</time>
      </trkpt>
      <trkpt lat="45.95736" lon="4.7605">
        <ele>184</ele>
        <time>2018-10-16T10:32:00Z</time>
      </trkpt>
      <trkpt lat="45.95733" lon="4.76042">
        <ele>184</ele>
        <time>2018-10-16T10:32:01Z</time>
      </trkpt>
      <trkpt lat="45.9573" lon="4.76036">
        <ele>184</ele>
        <time>2018-10-16T10:32:02Z</time>
      </trkpt>
      <trkpt lat="45.95728" lon="4.7603">
        <ele>184</ele>
        <time>2018-10-16T10:32:03Z</time>
      </trkpt>
      <trkpt lat="45.95724" lon="4.76022">
        <ele>184</ele>
        <time>2018-10-16T10:32:04Z</time>
      </trkpt>
      <trkpt lat="45.95721" lon="4.76015">
        <ele>184</ele>
        <time>2018-10-16T10:32:05Z</time>
      </trkpt>
      <trkpt lat="45.95717" lon="4.76008">
        <ele>184</ele>
        <time>2018-10-16T10:32:06Z</time>
      </trkpt>
      <trkpt lat="45.95714" lon="4.76002">
        <ele>184</ele>
        <time>2018-10-16T10:32:07Z</time>
      </trkpt>
      <trkpt lat="45.9571" lon="4.75997">
        <ele>185</ele>
        <time>2018-10-16T10:32:08Z</time>
      </trkpt>
      <trkpt lat="45.95706" lon="4.7599">
        <ele>185</ele>
        <time>2018-10-16T10:32:09Z</time>
      </trkpt>
      <trkpt lat="45.95703" lon="4.75983">
        <ele>185</ele>
        <time>2018-10-16T10:32:10Z</time>
      </trkpt>
      <trkpt lat="45.95701" lon="4.75976">
        <ele>185</ele>
        <time>2018-10-16T10:32:11Z</time>
      </trkpt>
      <trkpt lat="45.95698" lon="4.75968">
        <ele>185</ele>
        <time>2018-10-16T10:32:12Z</time>
      </trkpt>
      <trkpt lat="45.95694" lon="4.75961">
        <ele>185</ele>
        <time>2018-10-16T10:32:13Z</time>
      </trkpt>
      <trkpt lat="45.95693" lon="4.75954">
        <ele>185</ele>
        <time>2018-10-16T10:32:14Z</time>
      </trkpt>
      <trkpt lat="45.95689" lon="4.75945">
        <ele>185</ele>
        <time>2018-10-16T10:32:15Z</time>
      </trkpt>
      <trkpt lat="45.95686" lon="4.75939">
        <ele>185</ele>
        <time>2018-10-16T10:32:16Z</time>
      </trkpt>
      <trkpt lat="45.95683" lon="4.75931">
        <ele>185</ele>
        <time>2018-10-16T10:32:17Z</time>
      </trkpt>
      <trkpt lat="45.9568" lon="4.75924">
        <ele>185</ele>
        <time>2018-10-16T10:32:18Z</time>
      </trkpt>
      <trkpt lat="45.95677" lon="4.75915">
        <ele>185</ele>
        <time>2018-10-16T10:32:19Z</time>
      </trkpt>
      <trkpt lat="45.95674" lon="4.75907">
        <ele>185</ele>
        <time>2018-10-16T10:32:20Z</time>
      </trkpt>
      <trkpt lat="45.95672" lon="4.75899">
        <ele>185</ele>
        <time>2018-10-16T10:32:21Z</time>
      </trkpt>
      <trkpt lat="45.95669" lon="4.75893">
        <ele>186</ele>
        <time>2018-10-16T10:32:22Z</time>
      </trkpt>
      <trkpt lat="45.95667" lon="4.75886">
        <ele>186</ele>
        <time>2018-10-16T10:32:23Z</time>
      </trkpt>
      <trkpt lat="45.95665" lon="4.7588">
        <ele>184</ele>
        <time>2018-10-16T10:32:24Z</time>
      </trkpt>
      <trkpt lat="45.95662" lon="4.75875">
        <ele>184</ele>
        <time>2018-10-16T10:32:25Z</time>
      </trkpt>
      <trkpt lat="45.95661" lon="4.75868">
        <ele>184</ele>
        <time>2018-10-16T10:32:26Z</time>
      </trkpt>
      <trkpt lat="45.95659" lon="4.75862">
        <ele>184</ele>
        <time>2018-10-16T10:32:27Z</time>
      </trkpt>
      <trkpt lat="45.95657" lon="4.75855">
        <ele>184</ele>
        <time>2018-10-16T10:32:28Z</time>
      </trkpt>
      <trkpt lat="45.95655" lon="4.75849">
        <ele>185</ele>
        <time>2018-10-16T10:32:29Z</time>
      </trkpt>
      <trkpt lat="45.95653" lon="4.75842">
        <ele>185</ele>
        <time>2018-10-16T10:32:30Z</time>
      </trkpt>
      <trkpt lat="45.95649" lon="4.75836">
        <ele>185</ele>
        <time>2018-10-16T10:32:31Z</time>
      </trkpt>
      <trkpt lat="45.95649" lon="4.75829">
        <ele>185</ele>
        <time>2018-10-16T10:32:32Z</time>
      </trkpt>
      <trkpt lat="45.95648" lon="4.75822">
        <ele>185</ele>
        <time>2018-10-16T10:32:33Z</time>
      </trkpt>
      <trkpt lat="45.95647" lon="4.75812">
        <ele>185</ele>
        <time>2018-10-16T10:32:34Z</time>
      </trkpt>
      <trkpt lat="45.95646" lon="4.75805">
        <ele>185</ele>
        <time>2018-10-16T10:32:35Z</time>
      </trkpt>
      <trkpt lat="45.95643" lon="4.75798">
        <ele>185</ele>
        <time>2018-10-16T10:32:36Z</time>
      </trkpt>
      <trkpt lat="45.95642" lon="4.7579">
        <ele>185</ele>
        <time>2018-10-16T10:32:37Z</time>
      </trkpt>
      <trkpt lat="45.95642" lon="4.75784">
        <ele>186</ele>
        <time>2018-10-16T10:32:38Z</time>
      </trkpt>
      <trkpt lat="45.9564" lon="4.75776">
        <ele>186</ele>
        <time>2018-10-16T10:32:39Z</time>
      </trkpt>
      <trkpt lat="45.95639" lon="4.75769">
        <ele>186</ele>
        <time>2018-10-16T10:32:40Z</time>
      </trkpt>
      <trkpt lat="45.95639" lon="4.75761">
        <ele>186</ele>
        <time>2018-10-16T10:32:41Z</time>
      </trkpt>
      <trkpt lat="45.95637" lon="4.75756">
        <ele>186</ele>
        <time>2018-10-16T10:32:42Z</time>
      </trkpt>
      <trkpt lat="45.95635" lon="4.75748">
        <ele>187</ele>
        <time>2018-10-16T10:32:43Z</time>
      </trkpt>
      <trkpt lat="45.95634" lon="4.75739">
        <ele>187</ele>
        <time>2018-10-16T10:32:44Z</time>
      </trkpt>
      <trkpt lat="45.95632" lon="4.75731">
        <ele>187</ele>
        <time>2018-10-16T10:32:45Z</time>
      </trkpt>
      <trkpt lat="45.95631" lon="4.75724">
        <ele>187</ele>
        <time>2018-10-16T10:32:46Z</time>
      </trkpt>
      <trkpt lat="45.9563" lon="4.75716">
        <ele>187</ele>
        <time>2018-10-16T10:32:47Z</time>
      </trkpt>
      <trkpt lat="45.95628" lon="4.75708">
        <ele>187</ele>
        <time>2018-10-16T10:32:48Z</time>
      </trkpt>
      <trkpt lat="45.95627" lon="4.757">
        <ele>187</ele>
        <time>2018-10-16T10:32:49Z</time>
      </trkpt>
      <trkpt lat="45.95625" lon="4.75693">
        <ele>187</ele>
        <time>2018-10-16T10:32:50Z</time>
      </trkpt>
      <trkpt lat="45.95623" lon="4.75686">
        <ele>187</ele>
        <time>2018-10-16T10:32:51Z</time>
      </trkpt>
      <trkpt lat="45.95622" lon="4.75678">
        <ele>187</ele>
        <time>2018-10-16T10:32:52Z</time>
      </trkpt>
      <trkpt lat="45.95621" lon="4.7567">
        <ele>187</ele>
        <time>2018-10-16T10:32:53Z</time>
      </trkpt>
      <trkpt lat="45.9562" lon="4.75662">
        <ele>188</ele>
        <time>2018-10-16T10:32:54Z</time>
      </trkpt>
      <trkpt lat="45.95618" lon="4.75655">
        <ele>188</ele>
        <time>2018-10-16T10:32:55Z</time>
      </trkpt>
      <trkpt lat="45.95616" lon="4.75647">
        <ele>188</ele>
        <time>2018-10-16T10:32:56Z</time>
      </trkpt>
      <trkpt lat="45.95615" lon="4.7564">
        <ele>188</ele>
        <time>2018-10-16T10:32:57Z</time>
      </trkpt>
      <trkpt lat="45.95613" lon="4.75633">
        <ele>188</ele>
        <time>2018-10-16T10:32:58Z</time>
      </trkpt>
      <trkpt lat="45.9561" lon="4.75625">
        <ele>188</ele>
        <time>2018-10-16T10:32:59Z</time>
      </trkpt>
      <trkpt lat="45.95608" lon="4.75617">
        <ele>188</ele>
        <time>2018-10-16T10:33:00Z</time>
      </trkpt>
      <trkpt lat="45.95605" lon="4.7561">
        <ele>187</ele>
        <time>2018-10-16T10:33:01Z</time>
      </trkpt>
      <trkpt lat="45.95603" lon="4.75602">
        <ele>187</ele>
        <time>2018-10-16T10:33:02Z</time>
      </trkpt>
      <trkpt lat="45.956" lon="4.75595">
        <ele>187</ele>
        <time>2018-10-16T10:33:03Z</time>
      </trkpt>
      <trkpt lat="45.95597" lon="4.75587">
        <ele>187</ele>
        <time>2018-10-16T10:33:04Z</time>
      </trkpt>
      <trkpt lat="45.95594" lon="4.7558">
        <ele>187</ele>
        <time>2018-10-16T10:33:05Z</time>
      </trkpt>
      <trkpt lat="45.9559" lon="4.75574">
        <ele>187</ele>
        <time>2018-10-16T10:33:06Z</time>
      </trkpt>
      <trkpt lat="45.95586" lon="4.75566">
        <ele>188</ele>
        <time>2018-10-16T10:33:07Z</time>
      </trkpt>
      <trkpt lat="45.95582" lon="4.75561">
        <ele>186</ele>
        <time>2018-10-16T10:33:08Z</time>
      </trkpt>
      <trkpt lat="45.95578" lon="4.75555">
        <ele>186</ele>
        <time>2018-10-16T10:33:09Z</time>
      </trkpt>
      <trkpt lat="45.95575" lon="4.75548">
        <ele>186</ele>
        <time>2018-10-16T10:33:10Z</time>
      </trkpt>
      <trkpt lat="45.95567" lon="4.75541">
        <ele>186</ele>
        <time>2018-10-16T10:33:11Z</time>
      </trkpt>
      <trkpt lat="45.95561" lon="4.75536">
        <ele>186</ele>
        <time>2018-10-16T10:33:12Z</time>
      </trkpt>
      <trkpt lat="45.9556" lon="4.75529">
        <ele>186</ele>
        <time>2018-10-16T10:33:13Z</time>
      </trkpt>
      <trkpt lat="45.95556" lon="4.75524">
        <ele>186</ele>
        <time>2018-10-16T10:33:14Z</time>
      </trkpt>
      <trkpt lat="45.95552" lon="4.75519">
        <ele>186</ele>
        <time>2018-10-16T10:33:15Z</time>
      </trkpt>
      <trkpt lat="45.95548" lon="4.75513">
        <ele>186</ele>
        <time>2018-10-16T10:33:16Z</time>
      </trkpt>
      <trkpt lat="45.95544" lon="4.75508">
        <ele>186</ele>
        <time>2018-10-16T10:33:17Z</time>
      </trkpt>
      <trkpt lat="45.95544" lon="4.75501">
        <ele>186</ele>
        <time>2018-10-16T10:33:18Z</time>
      </trkpt>
      <trkpt lat="45.95541" lon="4.75495">
        <ele>187</ele>
        <time>2018-10-16T10:33:19Z</time>
      </trkpt>
      <trkpt lat="45.95539" lon="4.75488">
        <ele>187</ele>
        <time>2018-10-16T10:33:20Z</time>
      </trkpt>
      <trkpt lat="45.95541" lon="4.7548">
        <ele>187</ele>
        <time>2018-10-16T10:33:21Z</time>
      </trkpt>
      <trkpt lat="45.9554" lon="4.75474">
        <ele>187</ele>
        <time>2018-10-16T10:33:22Z</time>
      </trkpt>
      <trkpt lat="45.95536" lon="4.75468">
        <ele>187</ele>
        <time>2018-10-16T10:33:23Z</time>
      </trkpt>
      <trkpt lat="45.95534" lon="4.7546">
        <ele>187</ele>
        <time>2018-10-16T10:33:24Z</time>
      </trkpt>
      <trkpt lat="45.95531" lon="4.75453">
        <ele>187</ele>
        <time>2018-10-16T10:33:25Z</time>
      </trkpt>
      <trkpt lat="45.95526" lon="4.75447">
        <ele>187</ele>
        <time>2018-10-16T10:33:26Z</time>
      </trkpt>
      <trkpt lat="45.95521" lon="4.75443">
        <ele>187</ele>
        <time>2018-10-16T10:33:27Z</time>
      </trkpt>
      <trkpt lat="45.95519" lon="4.75436">
        <ele>187</ele>
        <time>2018-10-16T10:33:28Z</time>
      </trkpt>
      <trkpt lat="45.95515" lon="4.75429">
        <ele>186</ele>
        <time>2018-10-16T10:33:29Z</time>
      </trkpt>
      <trkpt lat="45.9551" lon="4.75424">
        <ele>186</ele>
        <time>2018-10-16T10:33:30Z</time>
      </trkpt>
      <trkpt lat="45.95506" lon="4.75417">
        <ele>186</ele>
        <time>2018-10-16T10:33:31Z</time>
      </trkpt>
      <trkpt lat="45.95504" lon="4.75411">
        <ele>186</ele>
        <time>2018-10-16T10:33:32Z</time>
      </trkpt>
      <trkpt lat="45.95503" lon="4.75405">
        <ele>187</ele>
        <time>2018-10-16T10:33:33Z</time>
      </trkpt>
      <trkpt lat="45.95501" lon="4.75398">
        <ele>187</ele>
        <time>2018-10-16T10:33:34Z</time>
      </trkpt>
      <trkpt lat="45.955" lon="4.75391">
        <ele>185</ele>
        <time>2018-10-16T10:33:35Z</time>
      </trkpt>
      <trkpt lat="45.95498" lon="4.75384">
        <ele>185</ele>
        <time>2018-10-16T10:33:36Z</time>
      </trkpt>
      <trkpt lat="45.95496" lon="4.75377">
        <ele>185</ele>
        <time>2018-10-16T10:33:37Z</time>
      </trkpt>
      <trkpt lat="45.95492" lon="4.75371">
        <ele>186</ele>
        <time>2018-10-16T10:33:38Z</time>
      </trkpt>
      <trkpt lat="45.9549" lon="4.75364">
        <ele>186</ele>
        <time>2018-10-16T10:33:39Z</time>
      </trkpt>
      <trkpt lat="45.95486" lon="4.75359">
        <ele>186</ele>
        <time>2018-10-16T10:33:40Z</time>
      </trkpt>
      <trkpt lat="45.95483" lon="4.7535">
        <ele>186</ele>
        <time>2018-10-16T10:33:41Z</time>
      </trkpt>
      <trkpt lat="45.9548" lon="4.75344">
        <ele>186</ele>
        <time>2018-10-16T10:33:42Z</time>
      </trkpt>
      <trkpt lat="45.95476" lon="4.75338">
        <ele>186</ele>
        <time>2018-10-16T10:33:43Z</time>
      </trkpt>
      <trkpt lat="45.95474" lon="4.75331">
        <ele>188</ele>
        <time>2018-10-16T10:33:44Z</time>
      </trkpt>
      <trkpt lat="45.95471" lon="4.75325">
        <ele>188</ele>
        <time>2018-10-16T10:33:45Z</time>
      </trkpt>
      <trkpt lat="45.95464" lon="4.75316">
        <ele>188</ele>
        <time>2018-10-16T10:33:47Z</time>
      </trkpt>
      <trkpt lat="45.95462" lon="4.75311">
        <ele>188</ele>
        <time>2018-10-16T10:33:48Z</time>
      </trkpt>
      <trkpt lat="45.95459" lon="4.75305">
        <ele>188</ele>
        <time>2018-10-16T10:33:49Z</time>
      </trkpt>
      <trkpt lat="45.95457" lon="4.75298">
        <ele>188</ele>
        <time>2018-10-16T10:33:50Z</time>
      </trkpt>
      <trkpt lat="45.95455" lon="4.75292">
        <ele>188</ele>
        <time>2018-10-16T10:33:51Z</time>
      </trkpt>
      <trkpt lat="45.9545" lon="4.75285">
        <ele>188</ele>
        <time>2018-10-16T10:33:52Z</time>
      </trkpt>
      <trkpt lat="45.95448" lon="4.75279">
        <ele>189</ele>
        <time>2018-10-16T10:33:53Z</time>
      </trkpt>
      <trkpt lat="45.95443" lon="4.75271">
        <ele>189</ele>
        <time>2018-10-16T10:33:54Z</time>
      </trkpt>
      <trkpt lat="45.95437" lon="4.75262">
        <ele>189</ele>
        <time>2018-10-16T10:33:56Z</time>
      </trkpt>
      <trkpt lat="45.95434" lon="4.75256">
        <ele>189</ele>
        <time>2018-10-16T10:33:57Z</time>
      </trkpt>
      <trkpt lat="45.95432" lon="4.75251">
        <ele>189</ele>
        <time>2018-10-16T10:33:58Z</time>
      </trkpt>
      <trkpt lat="45.95429" lon="4.75245">
        <ele>190</ele>
        <time>2018-10-16T10:33:59Z</time>
      </trkpt>
      <trkpt lat="45.95424" lon="4.75235">
        <ele>190</ele>
        <time>2018-10-16T10:34:01Z</time>
      </trkpt>
      <trkpt lat="45.95421" lon="4.75229">
        <ele>191</ele>
        <time>2018-10-16T10:34:02Z</time>
      </trkpt>
      <trkpt lat="45.95419" lon="4.75224">
        <ele>191</ele>
        <time>2018-10-16T10:34:03Z</time>
      </trkpt>
      <trkpt lat="45.95416" lon="4.75218">
        <ele>189</ele>
        <time>2018-10-16T10:34:04Z</time>
      </trkpt>
      <trkpt lat="45.95411" lon="4.75208">
        <ele>189</ele>
        <time>2018-10-16T10:34:06Z</time>
      </trkpt>
      <trkpt lat="45.95409" lon="4.75202">
        <ele>189</ele>
        <time>2018-10-16T10:34:07Z</time>
      </trkpt>
      <trkpt lat="45.95405" lon="4.75196">
        <ele>189</ele>
        <time>2018-10-16T10:34:08Z</time>
      </trkpt>
      <trkpt lat="45.95402" lon="4.75189">
        <ele>189</ele>
        <time>2018-10-16T10:34:09Z</time>
      </trkpt>
      <trkpt lat="45.95398" lon="4.75184">
        <ele>189</ele>
        <time>2018-10-16T10:34:10Z</time>
      </trkpt>
      <trkpt lat="45.95395" lon="4.75178">
        <ele>189</ele>
        <time>2018-10-16T10:34:11Z</time>
      </trkpt>
      <trkpt lat="45.95392" lon="4.75173">
        <ele>189</ele>
        <time>2018-10-16T10:34:12Z</time>
      </trkpt>
      <trkpt lat="45.95388" lon="4.75167">
        <ele>189</ele>
        <time>2018-10-16T10:34:13Z</time>
      </trkpt>
      <trkpt lat="45.95386" lon="4.75162">
        <ele>191</ele>
        <time>2018-10-16T10:34:14Z</time>
      </trkpt>
      <trkpt lat="45.95382" lon="4.75157">
        <ele>191</ele>
        <time>2018-10-16T10:34:15Z</time>
      </trkpt>
      <trkpt lat="45.95376" lon="4.75152">
        <ele>191</ele>
        <time>2018-10-16T10:34:16Z</time>
      </trkpt>
      <trkpt lat="45.95373" lon="4.75146">
        <ele>191</ele>
        <time>2018-10-16T10:34:17Z</time>
      </trkpt>
      <trkpt lat="45.95369" lon="4.7514">
        <ele>191</ele>
        <time>2018-10-16T10:34:18Z</time>
      </trkpt>
      <trkpt lat="45.95366" lon="4.75133">
        <ele>191</ele>
        <time>2018-10-16T10:34:19Z</time>
      </trkpt>
      <trkpt lat="45.95363" lon="4.75129">
        <ele>191</ele>
        <time>2018-10-16T10:34:20Z</time>
      </trkpt>
      <trkpt lat="45.95359" lon="4.75123">
        <ele>191</ele>
        <time>2018-10-16T10:34:21Z</time>
      </trkpt>
      <trkpt lat="45.95354" lon="4.75118">
        <ele>191</ele>
        <time>2018-10-16T10:34:22Z</time>
      </trkpt>
      <trkpt lat="45.95351" lon="4.75112">
        <ele>192</ele>
        <time>2018-10-16T10:34:23Z</time>
      </trkpt>
      <trkpt lat="45.95349" lon="4.75105">
        <ele>192</ele>
        <time>2018-10-16T10:34:24Z</time>
      </trkpt>
      <trkpt lat="45.95345" lon="4.751">
        <ele>192</ele>
        <time>2018-10-16T10:34:25Z</time>
      </trkpt>
      <trkpt lat="45.95341" lon="4.75095">
        <ele>192</ele>
        <time>2018-10-16T10:34:26Z</time>
      </trkpt>
      <trkpt lat="45.95338" lon="4.75089">
        <ele>193</ele>
        <time>2018-10-16T10:34:27Z</time>
      </trkpt>
      <trkpt lat="45.95334" lon="4.75084">
        <ele>193</ele>
        <time>2018-10-16T10:34:28Z</time>
      </trkpt>
      <trkpt lat="45.9533" lon="4.75077">
        <ele>193</ele>
        <time>2018-10-16T10:34:29Z</time>
      </trkpt>
      <trkpt lat="45.95326" lon="4.75072">
        <ele>192</ele>
        <time>2018-10-16T10:34:30Z</time>
      </trkpt>
      <trkpt lat="45.95323" lon="4.75066">
        <ele>192</ele>
        <time>2018-10-16T10:34:31Z</time>
      </trkpt>
      <trkpt lat="45.95318" lon="4.75056">
        <ele>192</ele>
        <time>2018-10-16T10:34:33Z</time>
      </trkpt>
      <trkpt lat="45.95314" lon="4.75051">
        <ele>192</ele>
        <time>2018-10-16T10:34:34Z</time>
      </trkpt>
      <trkpt lat="45.95309" lon="4.75046">
        <ele>192</ele>
        <time>2018-10-16T10:34:35Z</time>
      </trkpt>
      <trkpt lat="45.95306" lon="4.75041">
        <ele>192</ele>
        <time>2018-10-16T10:34:36Z</time>
      </trkpt>
      <trkpt lat="45.95303" lon="4.75036">
        <ele>192</ele>
        <time>2018-10-16T10:34:37Z</time>
      </trkpt>
      <trkpt lat="45.95298" lon="4.75031">
        <ele>191</ele>
        <time>2018-10-16T10:34:38Z</time>
      </trkpt>
      <trkpt lat="45.95295" lon="4.75026">
        <ele>191</ele>
        <time>2018-10-16T10:34:39Z</time>
      </trkpt>
      <trkpt lat="45.95291" lon="4.75021">
        <ele>191</ele>
        <time>2018-10-16T10:34:40Z</time>
      </trkpt>
      <trkpt lat="45.95287" lon="4.75016">
        <ele>191</ele>
        <time>2018-10-16T10:34:41Z</time>
      </trkpt>
      <trkpt lat="45.95283" lon="4.75011">
        <ele>191</ele>
        <time>2018-10-16T10:34:42Z</time>
      </trkpt>
      <trkpt lat="45.9528" lon="4.75005">
        <ele>191</ele>
        <time>2018-10-16T10:34:43Z</time>
      </trkpt>
      <trkpt lat="45.95276" lon="4.74999">
        <ele>192</ele>
        <time>2018-10-16T10:34:44Z</time>
      </trkpt>
      <trkpt lat="45.95273" lon="4.74993">
        <ele>192</ele>
        <time>2018-10-16T10:34:45Z</time>
      </trkpt>
      <trkpt lat="45.9527" lon="4.74988">
        <ele>192</ele>
        <time>2018-10-16T10:34:46Z</time>
      </trkpt>
      <trkpt lat="45.95265" lon="4.74984">
        <ele>192</ele>
        <time>2018-10-16T10:34:47Z</time>
      </trkpt>
      <trkpt lat="45.95262" lon="4.74978">
        <ele>192</ele>
        <time>2018-10-16T10:34:48Z</time>
      </trkpt>
      <trkpt lat="45.95257" lon="4.74969">
        <ele>192</ele>
        <time>2018-10-16T10:34:50Z</time>
      </trkpt>
      <trkpt lat="45.95254" lon="4.74965">
        <ele>192</ele>
        <time>2018-10-16T10:34:51Z</time>
      </trkpt>
      <trkpt lat="45.95251" lon="4.7496">
        <ele>192</ele>
        <time>2018-10-16T10:34:52Z</time>
      </trkpt>
      <trkpt lat="45.95249" lon="4.74953">
        <ele>192</ele>
        <time>2018-10-16T10:34:53Z</time>
      </trkpt>
      <trkpt lat="45.95245" lon="4.74948">
        <ele>192</ele>
        <time>2018-10-16T10:34:54Z</time>
      </trkpt>
      <trkpt lat="45.95242" lon="4.74942">
        <ele>192</ele>
        <time>2018-10-16T10:34:55Z</time>
      </trkpt>
      <trkpt lat="45.95237" lon="4.74936">
        <ele>192</ele>
        <time>2018-10-16T10:34:56Z</time>
      </trkpt>
      <trkpt lat="45.95233" lon="4.74929">
        <ele>192</ele>
        <time>2018-10-16T10:34:57Z</time>
      </trkpt>
      <trkpt lat="45.95229" lon="4.74923">
        <ele>192</ele>
        <time>2018-10-16T10:34:58Z</time>
      </trkpt>
      <trkpt lat="45.95223" lon="4.74918">
        <ele>192</ele>
        <time>2018-10-16T10:34:59Z</time>
      </trkpt>
      <trkpt lat="45.95219" lon="4.74912">
        <ele>193</ele>
        <time>2018-10-16T10:35:00Z</time>
      </trkpt>
      <trkpt lat="45.95215" lon="4.74907">
        <ele>193</ele>
        <time>2018-10-16T10:35:01Z</time>
      </trkpt>
      <trkpt lat="45.95213" lon="4.74902">
        <ele>193</ele>
        <time>2018-10-16T10:35:02Z</time>
      </trkpt>
      <trkpt lat="45.9521" lon="4.74896">
        <ele>193</ele>
        <time>2018-10-16T10:35:03Z</time>
      </trkpt>
      <trkpt lat="45.95207" lon="4.7489">
        <ele>194</ele>
        <time>2018-10-16T10:35:04Z</time>
      </trkpt>
      <trkpt lat="45.95204" lon="4.74884">
        <ele>194</ele>
        <time>2018-10-16T10:35:05Z</time>
      </trkpt>
      <trkpt lat="45.95201" lon="4.74879">
        <ele>194</ele>
        <time>2018-10-16T10:35:06Z</time>
      </trkpt>
      <trkpt lat="45.95197" lon="4.74876">
        <ele>194</ele>
        <time>2018-10-16T10:35:07Z</time>
      </trkpt>
      <trkpt lat="45.95194" lon="4.7487">
        <ele>194</ele>
        <time>2018-10-16T10:35:08Z</time>
      </trkpt>
      <trkpt lat="45.95192" lon="4.74864">
        <ele>194</ele>
        <time>2018-10-16T10:35:09Z</time>
      </trkpt>
      <trkpt lat="45.95188" lon="4.74858">
        <ele>194</ele>
        <time>2018-10-16T10:35:10Z</time>
      </trkpt>
      <trkpt lat="45.95184" lon="4.74852">
        <ele>194</ele>
        <time>2018-10-16T10:35:11Z</time>
      </trkpt>
      <trkpt lat="45.9518" lon="4.74847">
        <ele>194</ele>
        <time>2018-10-16T10:35:12Z</time>
      </trkpt>
      <trkpt lat="45.95175" lon="4.7484">
        <ele>194</ele>
        <time>2018-10-16T10:35:13Z</time>
      </trkpt>
      <trkpt lat="45.95171" lon="4.74834">
        <ele>194</ele>
        <time>2018-10-16T10:35:14Z</time>
      </trkpt>
      <trkpt lat="45.95167" lon="4.74826">
        <ele>194</ele>
        <time>2018-10-16T10:35:15Z</time>
      </trkpt>
      <trkpt lat="45.95163" lon="4.74819">
        <ele>194</ele>
        <time>2018-10-16T10:35:16Z</time>
      </trkpt>
      <trkpt lat="45.95159" lon="4.74812">
        <ele>194</ele>
        <time>2018-10-16T10:35:17Z</time>
      </trkpt>
      <trkpt lat="45.95154" lon="4.74806">
        <ele>194</ele>
        <time>2018-10-16T10:35:18Z</time>
      </trkpt>
      <trkpt lat="45.95151" lon="4.748">
        <ele>194</ele>
        <time>2018-10-16T10:35:19Z</time>
      </trkpt>
      <trkpt lat="45.95147" lon="4.74793">
        <ele>194</ele>
        <time>2018-10-16T10:35:20Z</time>
      </trkpt>
      <trkpt lat="45.95144" lon="4.74788">
        <ele>194</ele>
        <time>2018-10-16T10:35:21Z</time>
      </trkpt>
      <trkpt lat="45.95138" lon="4.7478">
        <ele>194</ele>
        <time>2018-10-16T10:35:22Z</time>
      </trkpt>
      <trkpt lat="45.95134" lon="4.74774">
        <ele>194</ele>
        <time>2018-10-16T10:35:23Z</time>
      </trkpt>
      <trkpt lat="45.95131" lon="4.74768">
        <ele>194</ele>
        <time>2018-10-16T10:35:24Z</time>
      </trkpt>
      <trkpt lat="45.95127" lon="4.74762">
        <ele>194</ele>
        <time>2018-10-16T10:35:25Z</time>
      </trkpt>
      <trkpt lat="45.95124" lon="4.74756">
        <ele>194</ele>
        <time>2018-10-16T10:35:26Z</time>
      </trkpt>
      <trkpt lat="45.9512" lon="4.74751">
        <ele>194</ele>
        <time>2018-10-16T10:35:27Z</time>
      </trkpt>
      <trkpt lat="45.95117" lon="4.74744">
        <ele>194</ele>
        <time>2018-10-16T10:35:28Z</time>
      </trkpt>
      <trkpt lat="45.95115" lon="4.74738">
        <ele>194</ele>
        <time>2018-10-16T10:35:29Z</time>
      </trkpt>
      <trkpt lat="45.9511" lon="4.74733">
        <ele>194</ele>
        <time>2018-10-16T10:35:30Z</time>
      </trkpt>
      <trkpt lat="45.95107" lon="4.74726">
        <ele>194</ele>
        <time>2018-10-16T10:35:31Z</time>
      </trkpt>
      <trkpt lat="45.95103" lon="4.74719">
        <ele>194</ele>
        <time>2018-10-16T10:35:32Z</time>
      </trkpt>
      <trkpt lat="45.951" lon="4.74713">
        <ele>194</ele>
        <time>2018-10-16T10:35:33Z</time>
      </trkpt>
      <trkpt lat="45.95095" lon="4.74706">
        <ele>194</ele>
        <time>2018-10-16T10:35:34Z</time>
      </trkpt>
      <trkpt lat="45.95091" lon="4.74699">
        <ele>194</ele>
        <time>2018-10-16T10:35:35Z</time>
      </trkpt>
      <trkpt lat="45.95087" lon="4.74693">
        <ele>194</ele>
        <time>2018-10-16T10:35:36Z</time>
      </trkpt>
      <trkpt lat="45.95083" lon="4.74687">
        <ele>195</ele>
        <time>2018-10-16T10:35:37Z</time>
      </trkpt>
      <trkpt lat="45.95077" lon="4.7468">
        <ele>194</ele>
        <time>2018-10-16T10:35:38Z</time>
      </trkpt>
      <trkpt lat="45.95074" lon="4.74673">
        <ele>194</ele>
        <time>2018-10-16T10:35:39Z</time>
      </trkpt>
      <trkpt lat="45.9507" lon="4.74666">
        <ele>195</ele>
        <time>2018-10-16T10:35:40Z</time>
      </trkpt>
      <trkpt lat="45.95068" lon="4.7466">
        <ele>195</ele>
        <time>2018-10-16T10:35:41Z</time>
      </trkpt>
      <trkpt lat="45.95064" lon="4.74654">
        <ele>195</ele>
        <time>2018-10-16T10:35:42Z</time>
      </trkpt>
      <trkpt lat="45.9506" lon="4.74647">
        <ele>194</ele>
        <time>2018-10-16T10:35:43Z</time>
      </trkpt>
      <trkpt lat="45.95055" lon="4.7464">
        <ele>194</ele>
        <time>2018-10-16T10:35:44Z</time>
      </trkpt>
      <trkpt lat="45.95051" lon="4.74633">
        <ele>194</ele>
        <time>2018-10-16T10:35:45Z</time>
      </trkpt>
      <trkpt lat="45.95047" lon="4.74625">
        <ele>194</ele>
        <time>2018-10-16T10:35:46Z</time>
      </trkpt>
      <trkpt lat="45.95043" lon="4.74618">
        <ele>194</ele>
        <time>2018-10-16T10:35:47Z</time>
      </trkpt>
      <trkpt lat="45.95039" lon="4.74611">
        <ele>194</ele>
        <time>2018-10-16T10:35:48Z</time>
      </trkpt>
      <trkpt lat="45.95035" lon="4.74605">
        <ele>194</ele>
        <time>2018-10-16T10:35:49Z</time>
      </trkpt>
      <trkpt lat="45.95032" lon="4.74597">
        <ele>194</ele>
        <time>2018-10-16T10:35:50Z</time>
      </trkpt>
      <trkpt lat="45.95028" lon="4.74591">
        <ele>194</ele>
        <time>2018-10-16T10:35:51Z</time>
      </trkpt>
      <trkpt lat="45.95022" lon="4.74584">
        <ele>194</ele>
        <time>2018-10-16T10:35:52Z</time>
      </trkpt>
      <trkpt lat="45.9502" lon="4.74576">
        <ele>194</ele>
        <time>2018-10-16T10:35:53Z</time>
      </trkpt>
      <trkpt lat="45.95017" lon="4.7457">
        <ele>194</ele>
        <time>2018-10-16T10:35:54Z</time>
      </trkpt>
      <trkpt lat="45.95013" lon="4.74564">
        <ele>194</ele>
        <time>2018-10-16T10:35:55Z</time>
      </trkpt>
      <trkpt lat="45.9501" lon="4.74558">
        <ele>194</ele>
        <time>2018-10-16T10:35:56Z</time>
      </trkpt>
      <trkpt lat="45.95006" lon="4.74552">
        <ele>194</ele>
        <time>2018-10-16T10:35:57Z</time>
      </trkpt>
      <trkpt lat="45.95003" lon="4.74546">
        <ele>194</ele>
        <time>2018-10-16T10:35:58Z</time>
      </trkpt>
      <trkpt lat="45.95" lon="4.7454">
        <ele>193</ele>
        <time>2018-10-16T10:35:59Z</time>
      </trkpt>
      <trkpt lat="45.94997" lon="4.74534">
        <ele>193</ele>
        <time>2018-10-16T10:36:00Z</time>
      </trkpt>
      <trkpt lat="45.94992" lon="4.74529">
        <ele>193</ele>
        <time>2018-10-16T10:36:01Z</time>
      </trkpt>
      <trkpt lat="45.94988" lon="4.74522">
        <ele>193</ele>
        <time>2018-10-16T10:36:02Z</time>
      </trkpt>
      <trkpt lat="45.94985" lon="4.74515">
        <ele>193</ele>
        <time>2018-10-16T10:36:03Z</time>
      </trkpt>
      <trkpt lat="45.94982" lon="4.74508">
        <ele>193</ele>
        <time>2018-10-16T10:36:04Z</time>
      </trkpt>
      <trkpt lat="45.94979" lon="4.745">
        <ele>193</ele>
        <time>2018-10-16T10:36:05Z</time>
      </trkpt>
      <trkpt lat="45.94975" lon="4.74493">
        <ele>193</ele>
        <time>2018-10-16T10:36:06Z</time>
      </trkpt>
      <trkpt lat="45.94971" lon="4.74485">
        <ele>193</ele>
        <time>2018-10-16T10:36:07Z</time>
      </trkpt>
      <trkpt lat="45.94967" lon="4.74477">
        <ele>193</ele>
        <time>2018-10-16T10:36:08Z</time>
      </trkpt>
      <trkpt lat="45.94963" lon="4.74468">
        <ele>193</ele>
        <time>2018-10-16T10:36:09Z</time>
      </trkpt>
      <trkpt lat="45.94959" lon="4.7446">
        <ele>193</ele>
        <time>2018-10-16T10:36:10Z</time>
      </trkpt>
      <trkpt lat="45.94955" lon="4.74452">
        <ele>192</ele>
        <time>2018-10-16T10:36:11Z</time>
      </trkpt>
      <trkpt lat="45.94951" lon="4.74442">
        <ele>192</ele>
        <time>2018-10-16T10:36:12Z</time>
      </trkpt>
      <trkpt lat="45.94946" lon="4.74435">
        <ele>192</ele>
        <time>2018-10-16T10:36:13Z</time>
      </trkpt>
      <trkpt lat="45.94941" lon="4.74427">
        <ele>192</ele>
        <time>2018-10-16T10:36:14Z</time>
      </trkpt>
      <trkpt lat="45.94937" lon="4.74418">
        <ele>192</ele>
        <time>2018-10-16T10:36:15Z</time>
      </trkpt>
      <trkpt lat="45.94932" lon="4.7441">
        <ele>192</ele>
        <time>2018-10-16T10:36:16Z</time>
      </trkpt>
      <trkpt lat="45.94927" lon="4.74401">
        <ele>192</ele>
        <time>2018-10-16T10:36:17Z</time>
      </trkpt>
      <trkpt lat="45.94922" lon="4.74392">
        <ele>192</ele>
        <time>2018-10-16T10:36:18Z</time>
      </trkpt>
      <trkpt lat="45.94917" lon="4.74384">
        <ele>191</ele>
        <time>2018-10-16T10:36:19Z</time>
      </trkpt>
      <trkpt lat="45.94915" lon="4.74374">
        <ele>191</ele>
        <time>2018-10-16T10:36:20Z</time>
      </trkpt>
      <trkpt lat="45.9491" lon="4.74364">
        <ele>191</ele>
        <time>2018-10-16T10:36:21Z</time>
      </trkpt>
      <trkpt lat="45.94907" lon="4.74355">
        <ele>191</ele>
        <time>2018-10-16T10:36:22Z</time>
      </trkpt>
      <trkpt lat="45.94903" lon="4.74348">
        <ele>191</ele>
        <time>2018-10-16T10:36:23Z</time>
      </trkpt>
      <trkpt lat="45.94899" lon="4.74339">
        <ele>191</ele>
        <time>2018-10-16T10:36:24Z</time>
      </trkpt>
      <trkpt lat="45.94896" lon="4.74331">
        <ele>191</ele>
        <time>2018-10-16T10:36:25Z</time>
      </trkpt>
      <trkpt lat="45.94892" lon="4.74323">
        <ele>191</ele>
        <time>2018-10-16T10:36:26Z</time>
      </trkpt>
      <trkpt lat="45.94886" lon="4.74317">
        <ele>191</ele>
        <time>2018-10-16T10:36:27Z</time>
      </trkpt>
      <trkpt lat="45.94882" lon="4.7431">
        <ele>191</ele>
        <time>2018-10-16T10:36:28Z</time>
      </trkpt>
      <trkpt lat="45.94877" lon="4.74301">
        <ele>191</ele>
        <time>2018-10-16T10:36:29Z</time>
      </trkpt>
      <trkpt lat="45.94875" lon="4.74292">
        <ele>191</ele>
        <time>2018-10-16T10:36:30Z</time>
      </trkpt>
      <trkpt lat="45.94871" lon="4.74285">
        <ele>191</ele>
        <time>2018-10-16T10:36:31Z</time>
      </trkpt>
      <trkpt lat="45.94867" lon="4.74278">
        <ele>191</ele>
        <time>2018-10-16T10:36:32Z</time>
      </trkpt>
      <trkpt lat="45.94863" lon="4.74271">
        <ele>190</ele>
        <time>2018-10-16T10:36:33Z</time>
      </trkpt>
      <trkpt lat="45.9486" lon="4.74264">
        <ele>190</ele>
        <time>2018-10-16T10:36:34Z</time>
      </trkpt>
      <trkpt lat="45.94857" lon="4.74256">
        <ele>190</ele>
        <time>2018-10-16T10:36:35Z</time>
      </trkpt>
      <trkpt lat="45.94853" lon="4.74249">
        <ele>190</ele>
        <time>2018-10-16T10:36:36Z</time>
      </trkpt>
      <trkpt lat="45.94849" lon="4.74242">
        <ele>190</ele>
        <time>2018-10-16T10:36:37Z</time>
      </trkpt>
      <trkpt lat="45.94845" lon="4.74235">
        <ele>190</ele>
        <time>2018-10-16T10:36:38Z</time>
      </trkpt>
      <trkpt lat="45.94842" lon="4.74227">
        <ele>190</ele>
        <time>2018-10-16T10:36:39Z</time>
      </trkpt>
      <trkpt lat="45.94838" lon="4.74219">
        <ele>190</ele>
        <time>2018-10-16T10:36:40Z</time>
      </trkpt>
      <trkpt lat="45.94834" lon="4.74214">
        <ele>190</ele>
        <time>2018-10-16T10:36:41Z</time>
      </trkpt>
      <trkpt lat="45.94828" lon="4.74207">
        <ele>189</ele>
        <time>2018-10-16T10:36:42Z</time>
      </trkpt>
      <trkpt lat="45.94823" lon="4.742">
        <ele>189</ele>
        <time>2018-10-16T10:36:43Z</time>
      </trkpt>
      <trkpt lat="45.9482" lon="4.74194">
        <ele>189</ele>
        <time>2018-10-16T10:36:44Z</time>
      </trkpt>
      <trkpt lat="45.94816" lon="4.74187">
        <ele>189</ele>
        <time>2018-10-16T10:36:45Z</time>
      </trkpt>
      <trkpt lat="45.94813" lon="4.7418">
        <ele>189</ele>
        <time>2018-10-16T10:36:46Z</time>
      </trkpt>
      <trkpt lat="45.94809" lon="4.74172">
        <ele>189</ele>
        <time>2018-10-16T10:36:47Z</time>
      </trkpt>
      <trkpt lat="45.94805" lon="4.74167">
        <ele>189</ele>
        <time>2018-10-16T10:36:48Z</time>
      </trkpt>
      <trkpt lat="45.94801" lon="4.7416">
        <ele>189</ele>
        <time>2018-10-16T10:36:49Z</time>
      </trkpt>
      <trkpt lat="45.94798" lon="4.74154">
        <ele>189</ele>
        <time>2018-10-16T10:36:50Z</time>
      </trkpt>
      <trkpt lat="45.94795" lon="4.74146">
        <ele>189</ele>
        <time>2018-10-16T10:36:51Z</time>
      </trkpt>
      <trkpt lat="45.94791" lon="4.7414">
        <ele>189</ele>
        <time>2018-10-16T10:36:52Z</time>
      </trkpt>
      <trkpt lat="45.94785" lon="4.74135">
        <ele>189</ele>
        <time>2018-10-16T10:36:53Z</time>
      </trkpt>
      <trkpt lat="45.94781" lon="4.74129">
        <ele>189</ele>
        <time>2018-10-16T10:36:54Z</time>
      </trkpt>
      <trkpt lat="45.94777" lon="4.74123">
        <ele>189</ele>
        <time>2018-10-16T10:36:55Z</time>
      </trkpt>
      <trkpt lat="45.94774" lon="4.74117">
        <ele>189</ele>
        <time>2018-10-16T10:36:56Z</time>
      </trkpt>
      <trkpt lat="45.94769" lon="4.74111">
        <ele>189</ele>
        <time>2018-10-16T10:36:57Z</time>
      </trkpt>
      <trkpt lat="45.94765" lon="4.74104">
        <ele>189</ele>
        <time>2018-10-16T10:36:58Z</time>
      </trkpt>
      <trkpt lat="45.94761" lon="4.74097">
        <ele>189</ele>
        <time>2018-10-16T10:36:59Z</time>
      </trkpt>
      <trkpt lat="45.94756" lon="4.74089">
        <ele>189</ele>
        <time>2018-10-16T10:37:00Z</time>
      </trkpt>
      <trkpt lat="45.94751" lon="4.74083">
        <ele>189</ele>
        <time>2018-10-16T10:37:01Z</time>
      </trkpt>
      <trkpt lat="45.94747" lon="4.74076">
        <ele>188</ele>
        <time>2018-10-16T10:37:02Z</time>
      </trkpt>
      <trkpt lat="45.94743" lon="4.74069">
        <ele>188</ele>
        <time>2018-10-16T10:37:03Z</time>
      </trkpt>
      <trkpt lat="45.94739" lon="4.74062">
        <ele>188</ele>
        <time>2018-10-16T10:37:04Z</time>
      </trkpt>
      <trkpt lat="45.94734" lon="4.74055">
        <ele>188</ele>
        <time>2018-10-16T10:37:05Z</time>
      </trkpt>
      <trkpt lat="45.94729" lon="4.74049">
        <ele>188</ele>
        <time>2018-10-16T10:37:06Z</time>
      </trkpt>
      <trkpt lat="45.94724" lon="4.74042">
        <ele>187</ele>
        <time>2018-10-16T10:37:07Z</time>
      </trkpt>
      <trkpt lat="45.9472" lon="4.74037">
        <ele>187</ele>
        <time>2018-10-16T10:37:08Z</time>
      </trkpt>
      <trkpt lat="45.94715" lon="4.74032">
        <ele>187</ele>
        <time>2018-10-16T10:37:09Z</time>
      </trkpt>
      <trkpt lat="45.94712" lon="4.74027">
        <ele>187</ele>
        <time>2018-10-16T10:37:10Z</time>
      </trkpt>
      <trkpt lat="45.94708" lon="4.74022">
        <ele>187</ele>
        <time>2018-10-16T10:37:11Z</time>
      </trkpt>
      <trkpt lat="45.94703" lon="4.74017">
        <ele>187</ele>
        <time>2018-10-16T10:37:12Z</time>
      </trkpt>
      <trkpt lat="45.94699" lon="4.74012">
        <ele>187</ele>
        <time>2018-10-16T10:37:13Z</time>
      </trkpt>
      <trkpt lat="45.94695" lon="4.74009">
        <ele>187</ele>
        <time>2018-10-16T10:37:14Z</time>
      </trkpt>
      <trkpt lat="45.9469" lon="4.74003">
        <ele>187</ele>
        <time>2018-10-16T10:37:15Z</time>
      </trkpt>
      <trkpt lat="45.94686" lon="4.73999">
        <ele>187</ele>
        <time>2018-10-16T10:37:16Z</time>
      </trkpt>
      <trkpt lat="45.94682" lon="4.73993">
        <ele>187</ele>
        <time>2018-10-16T10:37:17Z</time>
      </trkpt>
      <trkpt lat="45.94677" lon="4.73986">
        <ele>187</ele>
        <time>2018-10-16T10:37:18Z</time>
      </trkpt>
      <trkpt lat="45.94672" lon="4.7398">
        <ele>187</ele>
        <time>2018-10-16T10:37:19Z</time>
      </trkpt>
      <trkpt lat="45.94667" lon="4.73974">
        <ele>187</ele>
        <time>2018-10-16T10:37:20Z</time>
      </trkpt>
      <trkpt lat="45.94663" lon="4.73967">
        <ele>187</ele>
        <time>2018-10-16T10:37:21Z</time>
      </trkpt>
      <trkpt lat="45.94658" lon="4.73961">
        <ele>187</ele>
        <time>2018-10-16T10:37:22Z</time>
      </trkpt>
      <trkpt lat="45.94654" lon="4.73954">
        <ele>187</ele>
        <time>2018-10-16T10:37:23Z</time>
      </trkpt>
      <trkpt lat="45.94651" lon="4.73948">
        <ele>187</ele>
        <time>2018-10-16T10:37:24Z</time>
      </trkpt>
      <trkpt lat="45.94646" lon="4.73944">
        <ele>187</ele>
        <time>2018-10-16T10:37:25Z</time>
      </trkpt>
      <trkpt lat="45.94643" lon="4.73938">
        <ele>187</ele>
        <time>2018-10-16T10:37:26Z</time>
      </trkpt>
      <trkpt lat="45.94638" lon="4.73932">
        <ele>187</ele>
        <time>2018-10-16T10:37:27Z</time>
      </trkpt>
      <trkpt lat="45.94633" lon="4.73927">
        <ele>187</ele>
        <time>2018-10-16T10:37:28Z</time>
      </trkpt>
      <trkpt lat="45.94629" lon="4.73922">
        <ele>187</ele>
        <time>2018-10-16T10:37:29Z</time>
      </trkpt>
      <trkpt lat="45.94625" lon="4.73916">
        <ele>187</ele>
        <time>2018-10-16T10:37:30Z</time>
      </trkpt>
      <trkpt lat="45.9462" lon="4.7391">
        <ele>187</ele>
        <time>2018-10-16T10:37:31Z</time>
      </trkpt>
      <trkpt lat="45.94616" lon="4.73904">
        <ele>187</ele>
        <time>2018-10-16T10:37:32Z</time>
      </trkpt>
      <trkpt lat="45.94611" lon="4.73898">
        <ele>187</ele>
        <time>2018-10-16T10:37:33Z</time>
      </trkpt>
      <trkpt lat="45.94606" lon="4.73892">
        <ele>187</ele>
        <time>2018-10-16T10:37:34Z</time>
      </trkpt>
      <trkpt lat="45.94601" lon="4.73887">
        <ele>187</ele>
        <time>2018-10-16T10:37:35Z</time>
      </trkpt>
      <trkpt lat="45.94598" lon="4.73882">
        <ele>187</ele>
        <time>2018-10-16T10:37:36Z</time>
      </trkpt>
      <trkpt lat="45.94593" lon="4.73877">
        <ele>187</ele>
        <time>2018-10-16T10:37:37Z</time>
      </trkpt>
      <trkpt lat="45.94588" lon="4.73871">
        <ele>187</ele>
        <time>2018-10-16T10:37:38Z</time>
      </trkpt>
      <trkpt lat="45.94583" lon="4.73867">
        <ele>186</ele>
        <time>2018-10-16T10:37:39Z</time>
      </trkpt>
      <trkpt lat="45.94579" lon="4.73861">
        <ele>186</ele>
        <time>2018-10-16T10:37:40Z</time>
      </trkpt>
      <trkpt lat="45.94573" lon="4.73856">
        <ele>186</ele>
        <time>2018-10-16T10:37:41Z</time>
      </trkpt>
      <trkpt lat="45.94569" lon="4.7385">
        <ele>186</ele>
        <time>2018-10-16T10:37:42Z</time>
      </trkpt>
      <trkpt lat="45.94564" lon="4.73845">
        <ele>186</ele>
        <time>2018-10-16T10:37:43Z</time>
      </trkpt>
      <trkpt lat="45.9456" lon="4.73841">
        <ele>186</ele>
        <time>2018-10-16T10:37:44Z</time>
      </trkpt>
      <trkpt lat="45.94555" lon="4.73836">
        <ele>186</ele>
        <time>2018-10-16T10:37:45Z</time>
      </trkpt>
      <trkpt lat="45.9455" lon="4.73831">
        <ele>186</ele>
        <time>2018-10-16T10:37:46Z</time>
      </trkpt>
      <trkpt lat="45.94546" lon="4.73826">
        <ele>186</ele>
        <time>2018-10-16T10:37:47Z</time>
      </trkpt>
      <trkpt lat="45.94542" lon="4.73822">
        <ele>186</ele>
        <time>2018-10-16T10:37:48Z</time>
      </trkpt>
      <trkpt lat="45.94537" lon="4.73818">
        <ele>186</ele>
        <time>2018-10-16T10:37:49Z</time>
      </trkpt>
      <trkpt lat="45.94533" lon="4.73812">
        <ele>186</ele>
        <time>2018-10-16T10:37:50Z</time>
      </trkpt>
      <trkpt lat="45.94529" lon="4.73807">
        <ele>186</ele>
        <time>2018-10-16T10:37:51Z</time>
      </trkpt>
      <trkpt lat="45.94526" lon="4.73802">
        <ele>186</ele>
        <time>2018-10-16T10:37:52Z</time>
      </trkpt>
      <trkpt lat="45.94521" lon="4.73797">
        <ele>186</ele>
        <time>2018-10-16T10:37:53Z</time>
      </trkpt>
      <trkpt lat="45.94517" lon="4.73795">
        <ele>186</ele>
        <time>2018-10-16T10:37:54Z</time>
      </trkpt>
      <trkpt lat="45.94513" lon="4.73791">
        <ele>186</ele>
        <time>2018-10-16T10:37:55Z</time>
      </trkpt>
      <trkpt lat="45.94509" lon="4.73785">
        <ele>186</ele>
        <time>2018-10-16T10:37:56Z</time>
      </trkpt>
      <trkpt lat="45.94504" lon="4.7378">
        <ele>186</ele>
        <time>2018-10-16T10:37:57Z</time>
      </trkpt>
      <trkpt lat="45.94501" lon="4.73774">
        <ele>186</ele>
        <time>2018-10-16T10:37:58Z</time>
      </trkpt>
      <trkpt lat="45.94497" lon="4.7377">
        <ele>186</ele>
        <time>2018-10-16T10:37:59Z</time>
      </trkpt>
      <trkpt lat="45.94494" lon="4.73764">
        <ele>186</ele>
        <time>2018-10-16T10:38:00Z</time>
      </trkpt>
      <trkpt lat="45.94492" lon="4.73757">
        <ele>186</ele>
        <time>2018-10-16T10:38:01Z</time>
      </trkpt>
      <trkpt lat="45.94491" lon="4.73749">
        <ele>186</ele>
        <time>2018-10-16T10:38:02Z</time>
      </trkpt>
      <trkpt lat="45.94488" lon="4.73742">
        <ele>186</ele>
        <time>2018-10-16T10:38:03Z</time>
      </trkpt>
      <trkpt lat="45.94489" lon="4.73733">
        <ele>186</ele>
        <time>2018-10-16T10:38:04Z</time>
      </trkpt>
      <trkpt lat="45.94489" lon="4.73725">
        <ele>186</ele>
        <time>2018-10-16T10:38:05Z</time>
      </trkpt>
      <trkpt lat="45.94491" lon="4.73715">
        <ele>186</ele>
        <time>2018-10-16T10:38:06Z</time>
      </trkpt>
      <trkpt lat="45.94492" lon="4.73706">
        <ele>186</ele>
        <time>2018-10-16T10:38:07Z</time>
      </trkpt>
      <trkpt lat="45.94493" lon="4.73698">
        <ele>186</ele>
        <time>2018-10-16T10:38:08Z</time>
      </trkpt>
      <trkpt lat="45.94495" lon="4.73689">
        <ele>186</ele>
        <time>2018-10-16T10:38:09Z</time>
      </trkpt>
      <trkpt lat="45.94495" lon="4.7368">
        <ele>185</ele>
        <time>2018-10-16T10:38:10Z</time>
      </trkpt>
      <trkpt lat="45.94496" lon="4.73672">
        <ele>185</ele>
        <time>2018-10-16T10:38:11Z</time>
      </trkpt>
      <trkpt lat="45.94497" lon="4.73663">
        <ele>185</ele>
        <time>2018-10-16T10:38:12Z</time>
      </trkpt>
      <trkpt lat="45.94498" lon="4.73655">
        <ele>185</ele>
        <time>2018-10-16T10:38:13Z</time>
      </trkpt>
      <trkpt lat="45.94499" lon="4.7365">
        <ele>185</ele>
        <time>2018-10-16T10:38:14Z</time>
      </trkpt>
      <trkpt lat="45.94499" lon="4.73641">
        <ele>186</ele>
        <time>2018-10-16T10:38:15Z</time>
      </trkpt>
      <trkpt lat="45.945" lon="4.73633">
        <ele>186</ele>
        <time>2018-10-16T10:38:16Z</time>
      </trkpt>
      <trkpt lat="45.94501" lon="4.73626">
        <ele>184</ele>
        <time>2018-10-16T10:38:17Z</time>
      </trkpt>
      <trkpt lat="45.94503" lon="4.73615">
        <ele>184</ele>
        <time>2018-10-16T10:38:18Z</time>
      </trkpt>
      <trkpt lat="45.94504" lon="4.73607">
        <ele>184</ele>
        <time>2018-10-16T10:38:19Z</time>
      </trkpt>
      <trkpt lat="45.94505" lon="4.73597">
        <ele>184</ele>
        <time>2018-10-16T10:38:20Z</time>
      </trkpt>
      <trkpt lat="45.94505" lon="4.73589">
        <ele>185</ele>
        <time>2018-10-16T10:38:21Z</time>
      </trkpt>
      <trkpt lat="45.94506" lon="4.73579">
        <ele>184</ele>
        <time>2018-10-16T10:38:22Z</time>
      </trkpt>
      <trkpt lat="45.94506" lon="4.73569">
        <ele>184</ele>
        <time>2018-10-16T10:38:23Z</time>
      </trkpt>
      <trkpt lat="45.94506" lon="4.73559">
        <ele>184</ele>
        <time>2018-10-16T10:38:24Z</time>
      </trkpt>
      <trkpt lat="45.94508" lon="4.7355">
        <ele>183</ele>
        <time>2018-10-16T10:38:25Z</time>
      </trkpt>
      <trkpt lat="45.94508" lon="4.73539">
        <ele>183</ele>
        <time>2018-10-16T10:38:26Z</time>
      </trkpt>
      <trkpt lat="45.94507" lon="4.73528">
        <ele>183</ele>
        <time>2018-10-16T10:38:27Z</time>
      </trkpt>
      <trkpt lat="45.94508" lon="4.73517">
        <ele>183</ele>
        <time>2018-10-16T10:38:28Z</time>
      </trkpt>
      <trkpt lat="45.94508" lon="4.73507">
        <ele>183</ele>
        <time>2018-10-16T10:38:29Z</time>
      </trkpt>
      <trkpt lat="45.94509" lon="4.73497">
        <ele>182</ele>
        <time>2018-10-16T10:38:30Z</time>
      </trkpt>
      <trkpt lat="45.94509" lon="4.73487">
        <ele>182</ele>
        <time>2018-10-16T10:38:31Z</time>
      </trkpt>
      <trkpt lat="45.94509" lon="4.73476">
        <ele>182</ele>
        <time>2018-10-16T10:38:32Z</time>
      </trkpt>
      <trkpt lat="45.94509" lon="4.73466">
        <ele>181</ele>
        <time>2018-10-16T10:38:33Z</time>
      </trkpt>
      <trkpt lat="45.94509" lon="4.73456">
        <ele>181</ele>
        <time>2018-10-16T10:38:34Z</time>
      </trkpt>
      <trkpt lat="45.94508" lon="4.73445">
        <ele>181</ele>
        <time>2018-10-16T10:38:35Z</time>
      </trkpt>
      <trkpt lat="45.94508" lon="4.73433">
        <ele>181</ele>
        <time>2018-10-16T10:38:36Z</time>
      </trkpt>
      <trkpt lat="45.94509" lon="4.73421">
        <ele>180</ele>
        <time>2018-10-16T10:38:37Z</time>
      </trkpt>
      <trkpt lat="45.94508" lon="4.73409">
        <ele>179</ele>
        <time>2018-10-16T10:38:38Z</time>
      </trkpt>
      <trkpt lat="45.94508" lon="4.73398">
        <ele>179</ele>
        <time>2018-10-16T10:38:39Z</time>
      </trkpt>
      <trkpt lat="45.94507" lon="4.73387">
        <ele>179</ele>
        <time>2018-10-16T10:38:40Z</time>
      </trkpt>
      <trkpt lat="45.94506" lon="4.73375">
        <ele>178</ele>
        <time>2018-10-16T10:38:41Z</time>
      </trkpt>
      <trkpt lat="45.94505" lon="4.73363">
        <ele>178</ele>
        <time>2018-10-16T10:38:42Z</time>
      </trkpt>
      <trkpt lat="45.94502" lon="4.73353">
        <ele>178</ele>
        <time>2018-10-16T10:38:43Z</time>
      </trkpt>
      <trkpt lat="45.94501" lon="4.73342">
        <ele>177</ele>
        <time>2018-10-16T10:38:44Z</time>
      </trkpt>
      <trkpt lat="45.945" lon="4.7333">
        <ele>177</ele>
        <time>2018-10-16T10:38:45Z</time>
      </trkpt>
      <trkpt lat="45.94498" lon="4.7332">
        <ele>177</ele>
        <time>2018-10-16T10:38:46Z</time>
      </trkpt>
      <trkpt lat="45.94497" lon="4.73307">
        <ele>177</ele>
        <time>2018-10-16T10:38:47Z</time>
      </trkpt>
      <trkpt lat="45.94496" lon="4.73296">
        <ele>177</ele>
        <time>2018-10-16T10:38:48Z</time>
      </trkpt>
      <trkpt lat="45.94494" lon="4.73284">
        <ele>177</ele>
        <time>2018-10-16T10:38:49Z</time>
      </trkpt>
      <trkpt lat="45.94492" lon="4.73272">
        <ele>177</ele>
        <time>2018-10-16T10:38:50Z</time>
      </trkpt>
      <trkpt lat="45.94491" lon="4.7326">
        <ele>176</ele>
        <time>2018-10-16T10:38:51Z</time>
      </trkpt>
      <trkpt lat="45.94488" lon="4.7325">
        <ele>175</ele>
        <time>2018-10-16T10:38:52Z</time>
      </trkpt>
      <trkpt lat="45.94487" lon="4.73237">
        <ele>175</ele>
        <time>2018-10-16T10:38:53Z</time>
      </trkpt>
      <trkpt lat="45.94486" lon="4.73226">
        <ele>175</ele>
        <time>2018-10-16T10:38:54Z</time>
      </trkpt>
      <trkpt lat="45.94483" lon="4.73214">
        <ele>175</ele>
        <time>2018-10-16T10:38:55Z</time>
      </trkpt>
      <trkpt lat="45.94482" lon="4.73202">
        <ele>175</ele>
        <time>2018-10-16T10:38:56Z</time>
      </trkpt>
      <trkpt lat="45.9448" lon="4.7319">
        <ele>174</ele>
        <time>2018-10-16T10:38:57Z</time>
      </trkpt>
      <trkpt lat="45.94479" lon="4.7318">
        <ele>174</ele>
        <time>2018-10-16T10:38:58Z</time>
      </trkpt>
      <trkpt lat="45.94478" lon="4.73168">
        <ele>174</ele>
        <time>2018-10-16T10:38:59Z</time>
      </trkpt>
      <trkpt lat="45.94477" lon="4.73158">
        <ele>173</ele>
        <time>2018-10-16T10:39:00Z</time>
      </trkpt>
      <trkpt lat="45.94475" lon="4.73147">
        <ele>172</ele>
        <time>2018-10-16T10:39:01Z</time>
      </trkpt>
      <trkpt lat="45.94475" lon="4.73136">
        <ele>172</ele>
        <time>2018-10-16T10:39:02Z</time>
      </trkpt>
      <trkpt lat="45.94473" lon="4.73128">
        <ele>172</ele>
        <time>2018-10-16T10:39:03Z</time>
      </trkpt>
      <trkpt lat="45.94472" lon="4.73119">
        <ele>172</ele>
        <time>2018-10-16T10:39:04Z</time>
      </trkpt>
      <trkpt lat="45.94472" lon="4.73109">
        <ele>172</ele>
        <time>2018-10-16T10:39:05Z</time>
      </trkpt>
      <trkpt lat="45.9447" lon="4.73098">
        <ele>172</ele>
        <time>2018-10-16T10:39:06Z</time>
      </trkpt>
      <trkpt lat="45.94468" lon="4.73089">
        <ele>172</ele>
        <time>2018-10-16T10:39:07Z</time>
      </trkpt>
      <trkpt lat="45.94469" lon="4.73081">
        <ele>170</ele>
        <time>2018-10-16T10:39:08Z</time>
      </trkpt>
      <trkpt lat="45.94468" lon="4.73073">
        <ele>170</ele>
        <time>2018-10-16T10:39:09Z</time>
      </trkpt>
      <trkpt lat="45.94466" lon="4.73065">
        <ele>170</ele>
        <time>2018-10-16T10:39:10Z</time>
      </trkpt>
      <trkpt lat="45.94465" lon="4.73056">
        <ele>170</ele>
        <time>2018-10-16T10:39:11Z</time>
      </trkpt>
      <trkpt lat="45.94464" lon="4.73048">
        <ele>170</ele>
        <time>2018-10-16T10:39:12Z</time>
      </trkpt>
      <trkpt lat="45.94463" lon="4.7304">
        <ele>170</ele>
        <time>2018-10-16T10:39:13Z</time>
      </trkpt>
      <trkpt lat="45.94458" lon="4.73034">
        <ele>169</ele>
        <time>2018-10-16T10:39:14Z</time>
      </trkpt>
      <trkpt lat="45.94457" lon="4.73026">
        <ele>169</ele>
        <time>2018-10-16T10:39:15Z</time>
      </trkpt>
      <trkpt lat="45.94457" lon="4.73019">
        <ele>169</ele>
        <time>2018-10-16T10:39:16Z</time>
      </trkpt>
      <trkpt lat="45.94457" lon="4.73012">
        <ele>169</ele>
        <time>2018-10-16T10:39:17Z</time>
      </trkpt>
      <trkpt lat="45.94457" lon="4.73">
        <ele>168</ele>
        <time>2018-10-16T10:39:19Z</time>
      </trkpt>
      <trkpt lat="45.94456" lon="4.72993">
        <ele>168</ele>
        <time>2018-10-16T10:39:20Z</time>
      </trkpt>
      <trkpt lat="45.94455" lon="4.72981">
        <ele>167</ele>
        <time>2018-10-16T10:39:22Z</time>
      </trkpt>
      <trkpt lat="45.94454" lon="4.72975">
        <ele>167</ele>
        <time>2018-10-16T10:39:23Z</time>
      </trkpt>
      <trkpt lat="45.94452" lon="4.72969">
        <ele>167</ele>
        <time>2018-10-16T10:39:24Z</time>
      </trkpt>
      <trkpt lat="45.94451" lon="4.72962">
        <ele>167</ele>
        <time>2018-10-16T10:39:25Z</time>
      </trkpt>
      <trkpt lat="45.9445" lon="4.72955">
        <ele>167</ele>
        <time>2018-10-16T10:39:26Z</time>
      </trkpt>
      <trkpt lat="45.94449" lon="4.72949">
        <ele>167</ele>
        <time>2018-10-16T10:39:27Z</time>
      </trkpt>
      <trkpt lat="45.94447" lon="4.72937">
        <ele>167</ele>
        <time>2018-10-16T10:39:29Z</time>
      </trkpt>
      <trkpt lat="45.94445" lon="4.72933">
        <ele>167</ele>
        <time>2018-10-16T10:39:30Z</time>
      </trkpt>
      <trkpt lat="45.94443" lon="4.72924">
        <ele>167</ele>
        <time>2018-10-16T10:39:32Z</time>
      </trkpt>
      <trkpt lat="45.94442" lon="4.72918">
        <ele>167</ele>
        <time>2018-10-16T10:39:33Z</time>
      </trkpt>
      <trkpt lat="45.94441" lon="4.72912">
        <ele>166</ele>
        <time>2018-10-16T10:39:34Z</time>
      </trkpt>
      <trkpt lat="45.9444" lon="4.72905">
        <ele>166</ele>
        <time>2018-10-16T10:39:35Z</time>
      </trkpt>
      <trkpt lat="45.94439" lon="4.72898">
        <ele>166</ele>
        <time>2018-10-16T10:39:36Z</time>
      </trkpt>
      <trkpt lat="45.94437" lon="4.72891">
        <ele>166</ele>
        <time>2018-10-16T10:39:37Z</time>
      </trkpt>
      <trkpt lat="45.94436" lon="4.72884">
        <ele>166</ele>
        <time>2018-10-16T10:39:38Z</time>
      </trkpt>
      <trkpt lat="45.94435" lon="4.72876">
        <ele>166</ele>
        <time>2018-10-16T10:39:39Z</time>
      </trkpt>
      <trkpt lat="45.94435" lon="4.72869">
        <ele>166</ele>
        <time>2018-10-16T10:39:40Z</time>
      </trkpt>
      <trkpt lat="45.94435" lon="4.72863">
        <ele>166</ele>
        <time>2018-10-16T10:39:41Z</time>
      </trkpt>
      <trkpt lat="45.94434" lon="4.72855">
        <ele>166</ele>
        <time>2018-10-16T10:39:42Z</time>
      </trkpt>
      <trkpt lat="45.94433" lon="4.72848">
        <ele>166</ele>
        <time>2018-10-16T10:39:43Z</time>
      </trkpt>
      <trkpt lat="45.94432" lon="4.72839">
        <ele>166</ele>
        <time>2018-10-16T10:39:44Z</time>
      </trkpt>
      <trkpt lat="45.9443" lon="4.7283">
        <ele>167</ele>
        <time>2018-10-16T10:39:45Z</time>
      </trkpt>
      <trkpt lat="45.94429" lon="4.7282">
        <ele>167</ele>
        <time>2018-10-16T10:39:46Z</time>
      </trkpt>
      <trkpt lat="45.94428" lon="4.7281">
        <ele>167</ele>
        <time>2018-10-16T10:39:47Z</time>
      </trkpt>
      <trkpt lat="45.94427" lon="4.72801">
        <ele>167</ele>
        <time>2018-10-16T10:39:48Z</time>
      </trkpt>
      <trkpt lat="45.94426" lon="4.72792">
        <ele>168</ele>
        <time>2018-10-16T10:39:49Z</time>
      </trkpt>
      <trkpt lat="45.94428" lon="4.72782">
        <ele>168</ele>
        <time>2018-10-16T10:39:50Z</time>
      </trkpt>
      <trkpt lat="45.94426" lon="4.72773">
        <ele>169</ele>
        <time>2018-10-16T10:39:51Z</time>
      </trkpt>
      <trkpt lat="45.94422" lon="4.7276">
        <ele>170</ele>
        <time>2018-10-16T10:39:52Z</time>
      </trkpt>
      <trkpt lat="45.94421" lon="4.72749">
        <ele>171</ele>
        <time>2018-10-16T10:39:53Z</time>
      </trkpt>
      <trkpt lat="45.94421" lon="4.72739">
        <ele>171</ele>
        <time>2018-10-16T10:39:54Z</time>
      </trkpt>
      <trkpt lat="45.94419" lon="4.7273">
        <ele>171</ele>
        <time>2018-10-16T10:39:55Z</time>
      </trkpt>
      <trkpt lat="45.94418" lon="4.72721">
        <ele>171</ele>
        <time>2018-10-16T10:39:56Z</time>
      </trkpt>
      <trkpt lat="45.94416" lon="4.72712">
        <ele>172</ele>
        <time>2018-10-16T10:39:57Z</time>
      </trkpt>
      <trkpt lat="45.94414" lon="4.72701">
        <ele>172</ele>
        <time>2018-10-16T10:39:58Z</time>
      </trkpt>
      <trkpt lat="45.94412" lon="4.7269">
        <ele>173</ele>
        <time>2018-10-16T10:39:59Z</time>
      </trkpt>
      <trkpt lat="45.94411" lon="4.72681">
        <ele>173</ele>
        <time>2018-10-16T10:40:00Z</time>
      </trkpt>
      <trkpt lat="45.94408" lon="4.72672">
        <ele>173</ele>
        <time>2018-10-16T10:40:01Z</time>
      </trkpt>
      <trkpt lat="45.9441" lon="4.72663">
        <ele>174</ele>
        <time>2018-10-16T10:40:02Z</time>
      </trkpt>
      <trkpt lat="45.94407" lon="4.72652">
        <ele>174</ele>
        <time>2018-10-16T10:40:03Z</time>
      </trkpt>
      <trkpt lat="45.94408" lon="4.72643">
        <ele>174</ele>
        <time>2018-10-16T10:40:04Z</time>
      </trkpt>
      <trkpt lat="45.94406" lon="4.72634">
        <ele>174</ele>
        <time>2018-10-16T10:40:05Z</time>
      </trkpt>
      <trkpt lat="45.94405" lon="4.72626">
        <ele>174</ele>
        <time>2018-10-16T10:40:06Z</time>
      </trkpt>
      <trkpt lat="45.94404" lon="4.72615">
        <ele>173</ele>
        <time>2018-10-16T10:40:07Z</time>
      </trkpt>
      <trkpt lat="45.94401" lon="4.72605">
        <ele>173</ele>
        <time>2018-10-16T10:40:08Z</time>
      </trkpt>
      <trkpt lat="45.94399" lon="4.72597">
        <ele>173</ele>
        <time>2018-10-16T10:40:09Z</time>
      </trkpt>
      <trkpt lat="45.94399" lon="4.72587">
        <ele>173</ele>
        <time>2018-10-16T10:40:10Z</time>
      </trkpt>
      <trkpt lat="45.94397" lon="4.72579">
        <ele>173</ele>
        <time>2018-10-16T10:40:11Z</time>
      </trkpt>
      <trkpt lat="45.94397" lon="4.72571">
        <ele>173</ele>
        <time>2018-10-16T10:40:12Z</time>
      </trkpt>
      <trkpt lat="45.94395" lon="4.72562">
        <ele>173</ele>
        <time>2018-10-16T10:40:13Z</time>
      </trkpt>
      <trkpt lat="45.94393" lon="4.72556">
        <ele>173</ele>
        <time>2018-10-16T10:40:14Z</time>
      </trkpt>
      <trkpt lat="45.94392" lon="4.72548">
        <ele>173</ele>
        <time>2018-10-16T10:40:15Z</time>
      </trkpt>
      <trkpt lat="45.94389" lon="4.72541">
        <ele>174</ele>
        <time>2018-10-16T10:40:16Z</time>
      </trkpt>
      <trkpt lat="45.94388" lon="4.72531">
        <ele>174</ele>
        <time>2018-10-16T10:40:17Z</time>
      </trkpt>
      <trkpt lat="45.94385" lon="4.72523">
        <ele>174</ele>
        <time>2018-10-16T10:40:18Z</time>
      </trkpt>
      <trkpt lat="45.94382" lon="4.72515">
        <ele>174</ele>
        <time>2018-10-16T10:40:19Z</time>
      </trkpt>
      <trkpt lat="45.9438" lon="4.72506">
        <ele>174</ele>
        <time>2018-10-16T10:40:20Z</time>
      </trkpt>
      <trkpt lat="45.94377" lon="4.72497">
        <ele>173</ele>
        <time>2018-10-16T10:40:21Z</time>
      </trkpt>
      <trkpt lat="45.94375" lon="4.72489">
        <ele>173</ele>
        <time>2018-10-16T10:40:22Z</time>
      </trkpt>
      <trkpt lat="45.94374" lon="4.72482">
        <ele>173</ele>
        <time>2018-10-16T10:40:23Z</time>
      </trkpt>
      <trkpt lat="45.94372" lon="4.72475">
        <ele>173</ele>
        <time>2018-10-16T10:40:24Z</time>
      </trkpt>
      <trkpt lat="45.94369" lon="4.72468">
        <ele>173</ele>
        <time>2018-10-16T10:40:25Z</time>
      </trkpt>
      <trkpt lat="45.94363" lon="4.72458">
        <ele>173</ele>
        <time>2018-10-16T10:40:26Z</time>
      </trkpt>
      <trkpt lat="45.94361" lon="4.72451">
        <ele>173</ele>
        <time>2018-10-16T10:40:27Z</time>
      </trkpt>
      <trkpt lat="45.94357" lon="4.72444">
        <ele>173</ele>
        <time>2018-10-16T10:40:28Z</time>
      </trkpt>
      <trkpt lat="45.94354" lon="4.72437">
        <ele>173</ele>
        <time>2018-10-16T10:40:29Z</time>
      </trkpt>
      <trkpt lat="45.94351" lon="4.72431">
        <ele>173</ele>
        <time>2018-10-16T10:40:30Z</time>
      </trkpt>
      <trkpt lat="45.94349" lon="4.72425">
        <ele>173</ele>
        <time>2018-10-16T10:40:31Z</time>
      </trkpt>
      <trkpt lat="45.94346" lon="4.72419">
        <ele>173</ele>
        <time>2018-10-16T10:40:32Z</time>
      </trkpt>
      <trkpt lat="45.94343" lon="4.72414">
        <ele>173</ele>
        <time>2018-10-16T10:40:33Z</time>
      </trkpt>
      <trkpt lat="45.9434" lon="4.72407">
        <ele>173</ele>
        <time>2018-10-16T10:40:34Z</time>
      </trkpt>
      <trkpt lat="45.94337" lon="4.724">
        <ele>173</ele>
        <time>2018-10-16T10:40:35Z</time>
      </trkpt>
      <trkpt lat="45.94335" lon="4.72392">
        <ele>172</ele>
        <time>2018-10-16T10:40:36Z</time>
      </trkpt>
      <trkpt lat="45.94332" lon="4.72384">
        <ele>172</ele>
        <time>2018-10-16T10:40:37Z</time>
      </trkpt>
      <trkpt lat="45.94329" lon="4.72379">
        <ele>172</ele>
        <time>2018-10-16T10:40:38Z</time>
      </trkpt>
      <trkpt lat="45.94325" lon="4.72371">
        <ele>172</ele>
        <time>2018-10-16T10:40:39Z</time>
      </trkpt>
      <trkpt lat="45.94321" lon="4.72363">
        <ele>172</ele>
        <time>2018-10-16T10:40:40Z</time>
      </trkpt>
      <trkpt lat="45.94318" lon="4.72356">
        <ele>172</ele>
        <time>2018-10-16T10:40:41Z</time>
      </trkpt>
      <trkpt lat="45.94315" lon="4.72349">
        <ele>172</ele>
        <time>2018-10-16T10:40:42Z</time>
      </trkpt>
      <trkpt lat="45.94311" lon="4.72343">
        <ele>172</ele>
        <time>2018-10-16T10:40:43Z</time>
      </trkpt>
      <trkpt lat="45.94306" lon="4.72336">
        <ele>172</ele>
        <time>2018-10-16T10:40:44Z</time>
      </trkpt>
      <trkpt lat="45.94303" lon="4.72329">
        <ele>171</ele>
        <time>2018-10-16T10:40:45Z</time>
      </trkpt>
      <trkpt lat="45.94299" lon="4.72322">
        <ele>171</ele>
        <time>2018-10-16T10:40:46Z</time>
      </trkpt>
      <trkpt lat="45.94295" lon="4.72315">
        <ele>171</ele>
        <time>2018-10-16T10:40:47Z</time>
      </trkpt>
      <trkpt lat="45.94293" lon="4.72308">
        <ele>171</ele>
        <time>2018-10-16T10:40:48Z</time>
      </trkpt>
      <trkpt lat="45.9429" lon="4.72302">
        <ele>171</ele>
        <time>2018-10-16T10:40:49Z</time>
      </trkpt>
      <trkpt lat="45.94287" lon="4.72295">
        <ele>171</ele>
        <time>2018-10-16T10:40:50Z</time>
      </trkpt>
      <trkpt lat="45.94284" lon="4.72288">
        <ele>171</ele>
        <time>2018-10-16T10:40:51Z</time>
      </trkpt>
      <trkpt lat="45.94282" lon="4.72284">
        <ele>171</ele>
        <time>2018-10-16T10:40:52Z</time>
      </trkpt>
      <trkpt lat="45.94278" lon="4.72273">
        <ele>171</ele>
        <time>2018-10-16T10:40:54Z</time>
      </trkpt>
      <trkpt lat="45.94275" lon="4.72268">
        <ele>171</ele>
        <time>2018-10-16T10:40:55Z</time>
      </trkpt>
      <trkpt lat="45.94267" lon="4.72265">
        <ele>171</ele>
        <time>2018-10-16T10:40:58Z</time>
      </trkpt>
      <trkpt lat="45.94263" lon="4.72267">
        <ele>171</ele>
        <time>2018-10-16T10:40:59Z</time>
      </trkpt>
      <trkpt lat="45.94256" lon="4.72273">
        <ele>171</ele>
        <time>2018-10-16T10:41:01Z</time>
      </trkpt>
      <trkpt lat="45.94252" lon="4.72275">
        <ele>171</ele>
        <time>2018-10-16T10:41:02Z</time>
      </trkpt>
      <trkpt lat="45.94247" lon="4.72277">
        <ele>171</ele>
        <time>2018-10-16T10:41:03Z</time>
      </trkpt>
      <trkpt lat="45.94242" lon="4.72279">
        <ele>171</ele>
        <time>2018-10-16T10:41:04Z</time>
      </trkpt>
      <trkpt lat="45.94237" lon="4.72281">
        <ele>171</ele>
        <time>2018-10-16T10:41:05Z</time>
      </trkpt>
      <trkpt lat="45.94231" lon="4.72284">
        <ele>171</ele>
        <time>2018-10-16T10:41:06Z</time>
      </trkpt>
      <trkpt lat="45.94226" lon="4.72285">
        <ele>171</ele>
        <time>2018-10-16T10:41:07Z</time>
      </trkpt>
      <trkpt lat="45.9422" lon="4.72286">
        <ele>171</ele>
        <time>2018-10-16T10:41:08Z</time>
      </trkpt>
      <trkpt lat="45.94213" lon="4.72288">
        <ele>171</ele>
        <time>2018-10-16T10:41:09Z</time>
      </trkpt>
      <trkpt lat="45.9421" lon="4.72288">
        <ele>171</ele>
        <time>2018-10-16T10:41:10Z</time>
      </trkpt>
      <trkpt lat="45.94204" lon="4.72288">
        <ele>171</ele>
        <time>2018-10-16T10:41:11Z</time>
      </trkpt>
      <trkpt lat="45.942" lon="4.72291">
        <ele>171</ele>
        <time>2018-10-16T10:41:12Z</time>
      </trkpt>
      <trkpt lat="45.94195" lon="4.72291">
        <ele>171</ele>
        <time>2018-10-16T10:41:13Z</time>
      </trkpt>
      <trkpt lat="45.94191" lon="4.72291">
        <ele>171</ele>
        <time>2018-10-16T10:41:14Z</time>
      </trkpt>
      <trkpt lat="45.94185" lon="4.72291">
        <ele>171</ele>
        <time>2018-10-16T10:41:15Z</time>
      </trkpt>
      <trkpt lat="45.94181" lon="4.72291">
        <ele>171</ele>
        <time>2018-10-16T10:41:16Z</time>
      </trkpt>
      <trkpt lat="45.94175" lon="4.7229">
        <ele>171</ele>
        <time>2018-10-16T10:41:17Z</time>
      </trkpt>
      <trkpt lat="45.94169" lon="4.7229">
        <ele>171</ele>
        <time>2018-10-16T10:41:18Z</time>
      </trkpt>
      <trkpt lat="45.94163" lon="4.72288">
        <ele>171</ele>
        <time>2018-10-16T10:41:19Z</time>
      </trkpt>
      <trkpt lat="45.94157" lon="4.72288">
        <ele>171</ele>
        <time>2018-10-16T10:41:20Z</time>
      </trkpt>
      <trkpt lat="45.94152" lon="4.72287">
        <ele>171</ele>
        <time>2018-10-16T10:41:21Z</time>
      </trkpt>
      <trkpt lat="45.94146" lon="4.72284">
        <ele>171</ele>
        <time>2018-10-16T10:41:22Z</time>
      </trkpt>
      <trkpt lat="45.94139" lon="4.72281">
        <ele>171</ele>
        <time>2018-10-16T10:41:23Z</time>
      </trkpt>
      <trkpt lat="45.94135" lon="4.72277">
        <ele>171</ele>
        <time>2018-10-16T10:41:24Z</time>
      </trkpt>
      <trkpt lat="45.9413" lon="4.72273">
        <ele>171</ele>
        <time>2018-10-16T10:41:25Z</time>
      </trkpt>
      <trkpt lat="45.94125" lon="4.7227">
        <ele>171</ele>
        <time>2018-10-16T10:41:26Z</time>
      </trkpt>
      <trkpt lat="45.94121" lon="4.72268">
        <ele>171</ele>
        <time>2018-10-16T10:41:27Z</time>
      </trkpt>
      <trkpt lat="45.94116" lon="4.72266">
        <ele>171</ele>
        <time>2018-10-16T10:41:28Z</time>
      </trkpt>
      <trkpt lat="45.94111" lon="4.72265">
        <ele>171</ele>
        <time>2018-10-16T10:41:29Z</time>
      </trkpt>
      <trkpt lat="45.94106" lon="4.72264">
        <ele>171</ele>
        <time>2018-10-16T10:41:30Z</time>
      </trkpt>
      <trkpt lat="45.941" lon="4.72263">
        <ele>171</ele>
        <time>2018-10-16T10:41:31Z</time>
      </trkpt>
      <trkpt lat="45.94095" lon="4.72263">
        <ele>171</ele>
        <time>2018-10-16T10:41:32Z</time>
      </trkpt>
      <trkpt lat="45.9409" lon="4.72263">
        <ele>171</ele>
        <time>2018-10-16T10:41:33Z</time>
      </trkpt>
      <trkpt lat="45.94083" lon="4.72264">
        <ele>171</ele>
        <time>2018-10-16T10:41:34Z</time>
      </trkpt>
      <trkpt lat="45.94079" lon="4.72268">
        <ele>171</ele>
        <time>2018-10-16T10:41:35Z</time>
      </trkpt>
      <trkpt lat="45.94073" lon="4.72272">
        <ele>171</ele>
        <time>2018-10-16T10:41:36Z</time>
      </trkpt>
      <trkpt lat="45.94067" lon="4.72276">
        <ele>171</ele>
        <time>2018-10-16T10:41:37Z</time>
      </trkpt>
      <trkpt lat="45.94062" lon="4.72281">
        <ele>171</ele>
        <time>2018-10-16T10:41:38Z</time>
      </trkpt>
      <trkpt lat="45.94057" lon="4.72288">
        <ele>171</ele>
        <time>2018-10-16T10:41:39Z</time>
      </trkpt>
      <trkpt lat="45.94053" lon="4.72294">
        <ele>171</ele>
        <time>2018-10-16T10:41:40Z</time>
      </trkpt>
      <trkpt lat="45.94049" lon="4.72298">
        <ele>171</ele>
        <time>2018-10-16T10:41:41Z</time>
      </trkpt>
      <trkpt lat="45.94044" lon="4.72304">
        <ele>171</ele>
        <time>2018-10-16T10:41:42Z</time>
      </trkpt>
      <trkpt lat="45.94039" lon="4.72309">
        <ele>171</ele>
        <time>2018-10-16T10:41:43Z</time>
      </trkpt>
      <trkpt lat="45.94034" lon="4.72315">
        <ele>171</ele>
        <time>2018-10-16T10:41:44Z</time>
      </trkpt>
      <trkpt lat="45.94029" lon="4.72322">
        <ele>171</ele>
        <time>2018-10-16T10:41:45Z</time>
      </trkpt>
      <trkpt lat="45.94024" lon="4.72327">
        <ele>171</ele>
        <time>2018-10-16T10:41:46Z</time>
      </trkpt>
      <trkpt lat="45.94021" lon="4.72337">
        <ele>171</ele>
        <time>2018-10-16T10:41:47Z</time>
      </trkpt>
      <trkpt lat="45.94017" lon="4.72343">
        <ele>171</ele>
        <time>2018-10-16T10:41:48Z</time>
      </trkpt>
      <trkpt lat="45.94014" lon="4.72349">
        <ele>171</ele>
        <time>2018-10-16T10:41:49Z</time>
      </trkpt>
      <trkpt lat="45.94009" lon="4.72354">
        <ele>171</ele>
        <time>2018-10-16T10:41:50Z</time>
      </trkpt>
      <trkpt lat="45.94005" lon="4.72359">
        <ele>171</ele>
        <time>2018-10-16T10:41:51Z</time>
      </trkpt>
      <trkpt lat="45.94001" lon="4.72366">
        <ele>171</ele>
        <time>2018-10-16T10:41:52Z</time>
      </trkpt>
      <trkpt lat="45.93998" lon="4.72371">
        <ele>171</ele>
        <time>2018-10-16T10:41:53Z</time>
      </trkpt>
      <trkpt lat="45.93994" lon="4.72376">
        <ele>171</ele>
        <time>2018-10-16T10:41:54Z</time>
      </trkpt>
      <trkpt lat="45.9399" lon="4.72384">
        <ele>171</ele>
        <time>2018-10-16T10:41:55Z</time>
      </trkpt>
      <trkpt lat="45.93985" lon="4.72388">
        <ele>171</ele>
        <time>2018-10-16T10:41:56Z</time>
      </trkpt>
      <trkpt lat="45.93981" lon="4.72391">
        <ele>171</ele>
        <time>2018-10-16T10:41:57Z</time>
      </trkpt>
      <trkpt lat="45.93976" lon="4.72395">
        <ele>171</ele>
        <time>2018-10-16T10:41:58Z</time>
      </trkpt>
      <trkpt lat="45.93972" lon="4.724">
        <ele>171</ele>
        <time>2018-10-16T10:41:59Z</time>
      </trkpt>
      <trkpt lat="45.93966" lon="4.72402">
        <ele>171</ele>
        <time>2018-10-16T10:42:00Z</time>
      </trkpt>
      <trkpt lat="45.93961" lon="4.72407">
        <ele>171</ele>
        <time>2018-10-16T10:42:01Z</time>
      </trkpt>
      <trkpt lat="45.93956" lon="4.72411">
        <ele>171</ele>
        <time>2018-10-16T10:42:02Z</time>
      </trkpt>
      <trkpt lat="45.93951" lon="4.72416">
        <ele>171</ele>
        <time>2018-10-16T10:42:03Z</time>
      </trkpt>
      <trkpt lat="45.93947" lon="4.7242">
        <ele>171</ele>
        <time>2018-10-16T10:42:04Z</time>
      </trkpt>
      <trkpt lat="45.93942" lon="4.72425">
        <ele>171</ele>
        <time>2018-10-16T10:42:05Z</time>
      </trkpt>
      <trkpt lat="45.93939" lon="4.72431">
        <ele>171</ele>
        <time>2018-10-16T10:42:06Z</time>
      </trkpt>
      <trkpt lat="45.93935" lon="4.72436">
        <ele>171</ele>
        <time>2018-10-16T10:42:07Z</time>
      </trkpt>
      <trkpt lat="45.9393" lon="4.72441">
        <ele>171</ele>
        <time>2018-10-16T10:42:08Z</time>
      </trkpt>
      <trkpt lat="45.93926" lon="4.72447">
        <ele>171</ele>
        <time>2018-10-16T10:42:09Z</time>
      </trkpt>
      <trkpt lat="45.93922" lon="4.72451">
        <ele>171</ele>
        <time>2018-10-16T10:42:10Z</time>
      </trkpt>
      <trkpt lat="45.93917" lon="4.72455">
        <ele>171</ele>
        <time>2018-10-16T10:42:11Z</time>
      </trkpt>
      <trkpt lat="45.93913" lon="4.7246">
        <ele>172</ele>
        <time>2018-10-16T10:42:12Z</time>
      </trkpt>
      <trkpt lat="45.93909" lon="4.72465">
        <ele>172</ele>
        <time>2018-10-16T10:42:13Z</time>
      </trkpt>
      <trkpt lat="45.93904" lon="4.72469">
        <ele>172</ele>
        <time>2018-10-16T10:42:14Z</time>
      </trkpt>
      <trkpt lat="45.939" lon="4.72474">
        <ele>172</ele>
        <time>2018-10-16T10:42:15Z</time>
      </trkpt>
      <trkpt lat="45.93898" lon="4.7248">
        <ele>172</ele>
        <time>2018-10-16T10:42:16Z</time>
      </trkpt>
      <trkpt lat="45.93894" lon="4.72485">
        <ele>172</ele>
        <time>2018-10-16T10:42:17Z</time>
      </trkpt>
      <trkpt lat="45.9389" lon="4.7249">
        <ele>172</ele>
        <time>2018-10-16T10:42:18Z</time>
      </trkpt>
      <trkpt lat="45.93886" lon="4.72494">
        <ele>172</ele>
        <time>2018-10-16T10:42:19Z</time>
      </trkpt>
      <trkpt lat="45.93883" lon="4.725">
        <ele>172</ele>
        <time>2018-10-16T10:42:20Z</time>
      </trkpt>
      <trkpt lat="45.93879" lon="4.72505">
        <ele>173</ele>
        <time>2018-10-16T10:42:21Z</time>
      </trkpt>
      <trkpt lat="45.93875" lon="4.72509">
        <ele>173</ele>
        <time>2018-10-16T10:42:22Z</time>
      </trkpt>
      <trkpt lat="45.93871" lon="4.72509">
        <ele>173</ele>
        <time>2018-10-16T10:42:23Z</time>
      </trkpt>
      <trkpt lat="45.93866" lon="4.72511">
        <ele>173</ele>
        <time>2018-10-16T10:42:24Z</time>
      </trkpt>
      <trkpt lat="45.93859" lon="4.72507">
        <ele>173</ele>
        <time>2018-10-16T10:42:26Z</time>
      </trkpt>
      <trkpt lat="45.93821" lon="4.72467">
        <ele>172</ele>
        <time>2018-10-16T10:42:34Z</time>
      </trkpt>
      <trkpt lat="45.93815" lon="4.72464">
        <ele>172</ele>
        <time>2018-10-16T10:42:35Z</time>
      </trkpt>
      <trkpt lat="45.9381" lon="4.72463">
        <ele>172</ele>
        <time>2018-10-16T10:42:36Z</time>
      </trkpt>
      <trkpt lat="45.93803" lon="4.72455">
        <ele>172</ele>
        <time>2018-10-16T10:42:38Z</time>
      </trkpt>
      <trkpt lat="45.93799" lon="4.72453">
        <ele>172</ele>
        <time>2018-10-16T10:42:39Z</time>
      </trkpt>
      <trkpt lat="45.93796" lon="4.72448">
        <ele>172</ele>
        <time>2018-10-16T10:42:41Z</time>
      </trkpt>
      <trkpt lat="45.9379" lon="4.72443">
        <ele>172</ele>
        <time>2018-10-16T10:42:42Z</time>
      </trkpt>
      <trkpt lat="45.93787" lon="4.72438">
        <ele>172</ele>
        <time>2018-10-16T10:42:43Z</time>
      </trkpt>
      <trkpt lat="45.93783" lon="4.72435">
        <ele>172</ele>
        <time>2018-10-16T10:42:44Z</time>
      </trkpt>
      <trkpt lat="45.93779" lon="4.7243">
        <ele>172</ele>
        <time>2018-10-16T10:42:45Z</time>
      </trkpt>
      <trkpt lat="45.93775" lon="4.72426">
        <ele>171</ele>
        <time>2018-10-16T10:42:46Z</time>
      </trkpt>
      <trkpt lat="45.9377" lon="4.72422">
        <ele>171</ele>
        <time>2018-10-16T10:42:47Z</time>
      </trkpt>
      <trkpt lat="45.93767" lon="4.72417">
        <ele>171</ele>
        <time>2018-10-16T10:42:48Z</time>
      </trkpt>
      <trkpt lat="45.93759" lon="4.72414">
        <ele>171</ele>
        <time>2018-10-16T10:42:50Z</time>
      </trkpt>
      <trkpt lat="45.93755" lon="4.7241">
        <ele>171</ele>
        <time>2018-10-16T10:42:51Z</time>
      </trkpt>
      <trkpt lat="45.93751" lon="4.72406">
        <ele>171</ele>
        <time>2018-10-16T10:42:52Z</time>
      </trkpt>
      <trkpt lat="45.93747" lon="4.72401">
        <ele>171</ele>
        <time>2018-10-16T10:42:53Z</time>
      </trkpt>
      <trkpt lat="45.93739" lon="4.72396">
        <ele>171</ele>
        <time>2018-10-16T10:42:55Z</time>
      </trkpt>
      <trkpt lat="45.93734" lon="4.72393">
        <ele>171</ele>
        <time>2018-10-16T10:42:56Z</time>
      </trkpt>
      <trkpt lat="45.9373" lon="4.72389">
        <ele>171</ele>
        <time>2018-10-16T10:42:57Z</time>
      </trkpt>
      <trkpt lat="45.93726" lon="4.72384">
        <ele>171</ele>
        <time>2018-10-16T10:42:58Z</time>
      </trkpt>
      <trkpt lat="45.93722" lon="4.7238">
        <ele>171</ele>
        <time>2018-10-16T10:42:59Z</time>
      </trkpt>
      <trkpt lat="45.93718" lon="4.72375">
        <ele>172</ele>
        <time>2018-10-16T10:43:00Z</time>
      </trkpt>
      <trkpt lat="45.93714" lon="4.72371">
        <ele>172</ele>
        <time>2018-10-16T10:43:01Z</time>
      </trkpt>
      <trkpt lat="45.93709" lon="4.72367">
        <ele>172</ele>
        <time>2018-10-16T10:43:02Z</time>
      </trkpt>
      <trkpt lat="45.93705" lon="4.72364">
        <ele>171</ele>
        <time>2018-10-16T10:43:03Z</time>
      </trkpt>
      <trkpt lat="45.93701" lon="4.7236">
        <ele>171</ele>
        <time>2018-10-16T10:43:04Z</time>
      </trkpt>
      <trkpt lat="45.93697" lon="4.72356">
        <ele>171</ele>
        <time>2018-10-16T10:43:05Z</time>
      </trkpt>
      <trkpt lat="45.93693" lon="4.72352">
        <ele>171</ele>
        <time>2018-10-16T10:43:06Z</time>
      </trkpt>
      <trkpt lat="45.93681" lon="4.72336">
        <ele>171</ele>
        <time>2018-10-16T10:43:09Z</time>
      </trkpt>
      <trkpt lat="45.93679" lon="4.72335">
        <ele>171</ele>
        <time>2018-10-16T10:43:10Z</time>
      </trkpt>
      <trkpt lat="45.93673" lon="4.7233">
        <ele>171</ele>
        <time>2018-10-16T10:43:11Z</time>
      </trkpt>
      <trkpt lat="45.93667" lon="4.72324">
        <ele>171</ele>
        <time>2018-10-16T10:43:13Z</time>
      </trkpt>
      <trkpt lat="45.93662" lon="4.72321">
        <ele>172</ele>
        <time>2018-10-16T10:43:14Z</time>
      </trkpt>
      <trkpt lat="45.93658" lon="4.72319">
        <ele>172</ele>
        <time>2018-10-16T10:43:15Z</time>
      </trkpt>
      <trkpt lat="45.93652" lon="4.72315">
        <ele>172</ele>
        <time>2018-10-16T10:43:16Z</time>
      </trkpt>
      <trkpt lat="45.93647" lon="4.72308">
        <ele>172</ele>
        <time>2018-10-16T10:43:18Z</time>
      </trkpt>
      <trkpt lat="45.93643" lon="4.72303">
        <ele>172</ele>
        <time>2018-10-16T10:43:19Z</time>
      </trkpt>
      <trkpt lat="45.93638" lon="4.72299">
        <ele>172</ele>
        <time>2018-10-16T10:43:20Z</time>
      </trkpt>
      <trkpt lat="45.93636" lon="4.72293">
        <ele>172</ele>
        <time>2018-10-16T10:43:21Z</time>
      </trkpt>
      <trkpt lat="45.93631" lon="4.7229">
        <ele>172</ele>
        <time>2018-10-16T10:43:22Z</time>
      </trkpt>
      <trkpt lat="45.93628" lon="4.72286">
        <ele>172</ele>
        <time>2018-10-16T10:43:23Z</time>
      </trkpt>
      <trkpt lat="45.93623" lon="4.72279">
        <ele>172</ele>
        <time>2018-10-16T10:43:25Z</time>
      </trkpt>
      <trkpt lat="45.9362" lon="4.72276">
        <ele>172</ele>
        <time>2018-10-16T10:43:26Z</time>
      </trkpt>
      <trkpt lat="45.93614" lon="4.72267">
        <ele>172</ele>
        <time>2018-10-16T10:43:28Z</time>
      </trkpt>
      <trkpt lat="45.9361" lon="4.72265">
        <ele>172</ele>
        <time>2018-10-16T10:43:29Z</time>
      </trkpt>
      <trkpt lat="45.93603" lon="4.72257">
        <ele>173</ele>
        <time>2018-10-16T10:43:31Z</time>
      </trkpt>
      <trkpt lat="45.93598" lon="4.72253">
        <ele>173</ele>
        <time>2018-10-16T10:43:32Z</time>
      </trkpt>
      <trkpt lat="45.93593" lon="4.72245">
        <ele>173</ele>
        <time>2018-10-16T10:43:34Z</time>
      </trkpt>
      <trkpt lat="45.9359" lon="4.72241">
        <ele>173</ele>
        <time>2018-10-16T10:43:35Z</time>
      </trkpt>
      <trkpt lat="45.93585" lon="4.72239">
        <ele>173</ele>
        <time>2018-10-16T10:43:36Z</time>
      </trkpt>
      <trkpt lat="45.93581" lon="4.72237">
        <ele>173</ele>
        <time>2018-10-16T10:43:37Z</time>
      </trkpt>
      <trkpt lat="45.93576" lon="4.72234">
        <ele>173</ele>
        <time>2018-10-16T10:43:38Z</time>
      </trkpt>
      <trkpt lat="45.93572" lon="4.72232">
        <ele>173</ele>
        <time>2018-10-16T10:43:39Z</time>
      </trkpt>
      <trkpt lat="45.93567" lon="4.72225">
        <ele>173</ele>
        <time>2018-10-16T10:43:41Z</time>
      </trkpt>
      <trkpt lat="45.93565" lon="4.72223">
        <ele>173</ele>
        <time>2018-10-16T10:43:42Z</time>
      </trkpt>
      <trkpt lat="45.9356" lon="4.72214">
        <ele>173</ele>
        <time>2018-10-16T10:43:52Z</time>
      </trkpt>
      <trkpt lat="45.93558" lon="4.72213">
        <ele>173</ele>
        <time>2018-10-16T10:43:53Z</time>
      </trkpt>
      <trkpt lat="45.93551" lon="4.72219">
        <ele>173</ele>
        <time>2018-10-16T10:43:57Z</time>
      </trkpt>
      <trkpt lat="45.9355" lon="4.72223">
        <ele>172</ele>
        <time>2018-10-16T10:43:58Z</time>
      </trkpt>
      <trkpt lat="45.93548" lon="4.72227">
        <ele>172</ele>
        <time>2018-10-16T10:43:59Z</time>
      </trkpt>
      <trkpt lat="45.93544" lon="4.72238">
        <ele>172</ele>
        <time>2018-10-16T10:44:00Z</time>
      </trkpt>
      <trkpt lat="45.93542" lon="4.72244">
        <ele>172</ele>
        <time>2018-10-16T10:44:01Z</time>
      </trkpt>
      <trkpt lat="45.9354" lon="4.7225">
        <ele>172</ele>
        <time>2018-10-16T10:44:02Z</time>
      </trkpt>
      <trkpt lat="45.93535" lon="4.72261">
        <ele>172</ele>
        <time>2018-10-16T10:44:04Z</time>
      </trkpt>
      <trkpt lat="45.93532" lon="4.72266">
        <ele>172</ele>
        <time>2018-10-16T10:44:05Z</time>
      </trkpt>
      <trkpt lat="45.9353" lon="4.72276">
        <ele>172</ele>
        <time>2018-10-16T10:44:06Z</time>
      </trkpt>
      <trkpt lat="45.93527" lon="4.72281">
        <ele>172</ele>
        <time>2018-10-16T10:44:07Z</time>
      </trkpt>
      <trkpt lat="45.93524" lon="4.72287">
        <ele>172</ele>
        <time>2018-10-16T10:44:08Z</time>
      </trkpt>
      <trkpt lat="45.93521" lon="4.72293">
        <ele>172</ele>
        <time>2018-10-16T10:44:09Z</time>
      </trkpt>
      <trkpt lat="45.93517" lon="4.72298">
        <ele>172</ele>
        <time>2018-10-16T10:44:10Z</time>
      </trkpt>
      <trkpt lat="45.93513" lon="4.72303">
        <ele>173</ele>
        <time>2018-10-16T10:44:11Z</time>
      </trkpt>
      <trkpt lat="45.93509" lon="4.72309">
        <ele>173</ele>
        <time>2018-10-16T10:44:12Z</time>
      </trkpt>
      <trkpt lat="45.93504" lon="4.72315">
        <ele>173</ele>
        <time>2018-10-16T10:44:13Z</time>
      </trkpt>
      <trkpt lat="45.93499" lon="4.7232">
        <ele>173</ele>
        <time>2018-10-16T10:44:14Z</time>
      </trkpt>
      <trkpt lat="45.93495" lon="4.72327">
        <ele>173</ele>
        <time>2018-10-16T10:44:15Z</time>
      </trkpt>
      <trkpt lat="45.93491" lon="4.72334">
        <ele>173</ele>
        <time>2018-10-16T10:44:16Z</time>
      </trkpt>
      <trkpt lat="45.93486" lon="4.72339">
        <ele>173</ele>
        <time>2018-10-16T10:44:17Z</time>
      </trkpt>
      <trkpt lat="45.93483" lon="4.72344">
        <ele>173</ele>
        <time>2018-10-16T10:44:18Z</time>
      </trkpt>
      <trkpt lat="45.93477" lon="4.7235">
        <ele>173</ele>
        <time>2018-10-16T10:44:19Z</time>
      </trkpt>
      <trkpt lat="45.93473" lon="4.72356">
        <ele>173</ele>
        <time>2018-10-16T10:44:20Z</time>
      </trkpt>
      <trkpt lat="45.93471" lon="4.72362">
        <ele>173</ele>
        <time>2018-10-16T10:44:21Z</time>
      </trkpt>
      <trkpt lat="45.93466" lon="4.72367">
        <ele>173</ele>
        <time>2018-10-16T10:44:22Z</time>
      </trkpt>
      <trkpt lat="45.93461" lon="4.72372">
        <ele>173</ele>
        <time>2018-10-16T10:44:23Z</time>
      </trkpt>
      <trkpt lat="45.93455" lon="4.72377">
        <ele>173</ele>
        <time>2018-10-16T10:44:24Z</time>
      </trkpt>
      <trkpt lat="45.93452" lon="4.72381">
        <ele>173</ele>
        <time>2018-10-16T10:44:25Z</time>
      </trkpt>
      <trkpt lat="45.93446" lon="4.72384">
        <ele>173</ele>
        <time>2018-10-16T10:44:26Z</time>
      </trkpt>
      <trkpt lat="45.93441" lon="4.72388">
        <ele>173</ele>
        <time>2018-10-16T10:44:27Z</time>
      </trkpt>
      <trkpt lat="45.93435" lon="4.72391">
        <ele>173</ele>
        <time>2018-10-16T10:44:28Z</time>
      </trkpt>
      <trkpt lat="45.9343" lon="4.72392">
        <ele>173</ele>
        <time>2018-10-16T10:44:29Z</time>
      </trkpt>
      <trkpt lat="45.93425" lon="4.72394">
        <ele>174</ele>
        <time>2018-10-16T10:44:30Z</time>
      </trkpt>
      <trkpt lat="45.9342" lon="4.72396">
        <ele>174</ele>
        <time>2018-10-16T10:44:31Z</time>
      </trkpt>
      <trkpt lat="45.93415" lon="4.72401">
        <ele>174</ele>
        <time>2018-10-16T10:44:32Z</time>
      </trkpt>
      <trkpt lat="45.93409" lon="4.72403">
        <ele>174</ele>
        <time>2018-10-16T10:44:33Z</time>
      </trkpt>
      <trkpt lat="45.93404" lon="4.72404">
        <ele>174</ele>
        <time>2018-10-16T10:44:34Z</time>
      </trkpt>
      <trkpt lat="45.934" lon="4.72405">
        <ele>174</ele>
        <time>2018-10-16T10:44:35Z</time>
      </trkpt>
      <trkpt lat="45.93394" lon="4.72405">
        <ele>174</ele>
        <time>2018-10-16T10:44:36Z</time>
      </trkpt>
      <trkpt lat="45.9339" lon="4.72405">
        <ele>174</ele>
        <time>2018-10-16T10:44:37Z</time>
      </trkpt>
      <trkpt lat="45.93382" lon="4.7241">
        <ele>174</ele>
        <time>2018-10-16T10:44:39Z</time>
      </trkpt>
      <trkpt lat="45.93382" lon="4.72419">
        <ele>173</ele>
        <time>2018-10-16T10:44:40Z</time>
      </trkpt>
      <trkpt lat="45.93382" lon="4.72425">
        <ele>173</ele>
        <time>2018-10-16T10:44:41Z</time>
      </trkpt>
      <trkpt lat="45.93384" lon="4.72433">
        <ele>173</ele>
        <time>2018-10-16T10:44:42Z</time>
      </trkpt>
      <trkpt lat="45.93387" lon="4.7244">
        <ele>173</ele>
        <time>2018-10-16T10:44:43Z</time>
      </trkpt>
      <trkpt lat="45.9339" lon="4.72445">
        <ele>173</ele>
        <time>2018-10-16T10:44:44Z</time>
      </trkpt>
      <trkpt lat="45.93389" lon="4.72454">
        <ele>173</ele>
        <time>2018-10-16T10:44:45Z</time>
      </trkpt>
      <trkpt lat="45.93387" lon="4.72462">
        <ele>173</ele>
        <time>2018-10-16T10:44:46Z</time>
      </trkpt>
      <trkpt lat="45.93384" lon="4.72469">
        <ele>173</ele>
        <time>2018-10-16T10:44:47Z</time>
      </trkpt>
      <trkpt lat="45.9338" lon="4.72474">
        <ele>173</ele>
        <time>2018-10-16T10:44:48Z</time>
      </trkpt>
      <trkpt lat="45.93374" lon="4.72483">
        <ele>173</ele>
        <time>2018-10-16T10:44:50Z</time>
      </trkpt>
      <trkpt lat="45.9337" lon="4.72488">
        <ele>173</ele>
        <time>2018-10-16T10:44:51Z</time>
      </trkpt>
      <trkpt lat="45.93366" lon="4.72492">
        <ele>173</ele>
        <time>2018-10-16T10:44:52Z</time>
      </trkpt>
      <trkpt lat="45.93362" lon="4.72498">
        <ele>173</ele>
        <time>2018-10-16T10:44:53Z</time>
      </trkpt>
      <trkpt lat="45.93357" lon="4.72502">
        <ele>172</ele>
        <time>2018-10-16T10:44:54Z</time>
      </trkpt>
      <trkpt lat="45.93351" lon="4.7251">
        <ele>172</ele>
        <time>2018-10-16T10:44:55Z</time>
      </trkpt>
      <trkpt lat="45.93346" lon="4.72515">
        <ele>172</ele>
        <time>2018-10-16T10:44:56Z</time>
      </trkpt>
      <trkpt lat="45.93341" lon="4.72522">
        <ele>172</ele>
        <time>2018-10-16T10:44:57Z</time>
      </trkpt>
      <trkpt lat="45.93337" lon="4.72527">
        <ele>172</ele>
        <time>2018-10-16T10:44:58Z</time>
      </trkpt>
      <trkpt lat="45.93331" lon="4.72532">
        <ele>172</ele>
        <time>2018-10-16T10:44:59Z</time>
      </trkpt>
      <trkpt lat="45.93326" lon="4.72537">
        <ele>172</ele>
        <time>2018-10-16T10:45:00Z</time>
      </trkpt>
      <trkpt lat="45.93323" lon="4.72544">
        <ele>172</ele>
        <time>2018-10-16T10:45:01Z</time>
      </trkpt>
      <trkpt lat="45.93319" lon="4.72548">
        <ele>172</ele>
        <time>2018-10-16T10:45:02Z</time>
      </trkpt>
      <trkpt lat="45.93315" lon="4.72553">
        <ele>172</ele>
        <time>2018-10-16T10:45:03Z</time>
      </trkpt>
      <trkpt lat="45.9331" lon="4.72557">
        <ele>172</ele>
        <time>2018-10-16T10:45:04Z</time>
      </trkpt>
      <trkpt lat="45.93306" lon="4.72561">
        <ele>172</ele>
        <time>2018-10-16T10:45:05Z</time>
      </trkpt>
      <trkpt lat="45.93303" lon="4.72566">
        <ele>171</ele>
        <time>2018-10-16T10:45:06Z</time>
      </trkpt>
      <trkpt lat="45.93299" lon="4.72569">
        <ele>171</ele>
        <time>2018-10-16T10:45:07Z</time>
      </trkpt>
      <trkpt lat="45.93295" lon="4.72573">
        <ele>171</ele>
        <time>2018-10-16T10:45:08Z</time>
      </trkpt>
      <trkpt lat="45.93291" lon="4.72576">
        <ele>171</ele>
        <time>2018-10-16T10:45:09Z</time>
      </trkpt>
      <trkpt lat="45.93284" lon="4.72583">
        <ele>171</ele>
        <time>2018-10-16T10:45:11Z</time>
      </trkpt>
      <trkpt lat="45.93281" lon="4.72588">
        <ele>170</ele>
        <time>2018-10-16T10:45:12Z</time>
      </trkpt>
      <trkpt lat="45.93274" lon="4.72592">
        <ele>170</ele>
        <time>2018-10-16T10:45:13Z</time>
      </trkpt>
      <trkpt lat="45.9327" lon="4.72596">
        <ele>170</ele>
        <time>2018-10-16T10:45:14Z</time>
      </trkpt>
      <trkpt lat="45.93267" lon="4.72602">
        <ele>170</ele>
        <time>2018-10-16T10:45:15Z</time>
      </trkpt>
      <trkpt lat="45.93263" lon="4.72609">
        <ele>170</ele>
        <time>2018-10-16T10:45:16Z</time>
      </trkpt>
      <trkpt lat="45.9326" lon="4.72613">
        <ele>170</ele>
        <time>2018-10-16T10:45:17Z</time>
      </trkpt>
      <trkpt lat="45.93255" lon="4.72618">
        <ele>170</ele>
        <time>2018-10-16T10:45:18Z</time>
      </trkpt>
      <trkpt lat="45.93251" lon="4.72625">
        <ele>170</ele>
        <time>2018-10-16T10:45:19Z</time>
      </trkpt>
      <trkpt lat="45.93247" lon="4.7263">
        <ele>170</ele>
        <time>2018-10-16T10:45:20Z</time>
      </trkpt>
      <trkpt lat="45.93243" lon="4.72634">
        <ele>170</ele>
        <time>2018-10-16T10:45:21Z</time>
      </trkpt>
      <trkpt lat="45.9324" lon="4.7264">
        <ele>170</ele>
        <time>2018-10-16T10:45:22Z</time>
      </trkpt>
      <trkpt lat="45.93236" lon="4.72644">
        <ele>170</ele>
        <time>2018-10-16T10:45:23Z</time>
      </trkpt>
      <trkpt lat="45.93231" lon="4.72649">
        <ele>170</ele>
        <time>2018-10-16T10:45:24Z</time>
      </trkpt>
      <trkpt lat="45.93228" lon="4.72656">
        <ele>170</ele>
        <time>2018-10-16T10:45:25Z</time>
      </trkpt>
      <trkpt lat="45.93223" lon="4.7266">
        <ele>170</ele>
        <time>2018-10-16T10:45:26Z</time>
      </trkpt>
      <trkpt lat="45.9322" lon="4.72665">
        <ele>170</ele>
        <time>2018-10-16T10:45:27Z</time>
      </trkpt>
      <trkpt lat="45.93216" lon="4.72671">
        <ele>169</ele>
        <time>2018-10-16T10:45:28Z</time>
      </trkpt>
      <trkpt lat="45.93213" lon="4.72675">
        <ele>169</ele>
        <time>2018-10-16T10:45:29Z</time>
      </trkpt>
      <trkpt lat="45.93208" lon="4.72679">
        <ele>169</ele>
        <time>2018-10-16T10:45:30Z</time>
      </trkpt>
      <trkpt lat="45.93204" lon="4.72685">
        <ele>169</ele>
        <time>2018-10-16T10:45:31Z</time>
      </trkpt>
      <trkpt lat="45.93199" lon="4.7269">
        <ele>169</ele>
        <time>2018-10-16T10:45:32Z</time>
      </trkpt>
      <trkpt lat="45.93196" lon="4.72694">
        <ele>169</ele>
        <time>2018-10-16T10:45:33Z</time>
      </trkpt>
      <trkpt lat="45.93191" lon="4.72699">
        <ele>169</ele>
        <time>2018-10-16T10:45:34Z</time>
      </trkpt>
      <trkpt lat="45.93187" lon="4.72707">
        <ele>169</ele>
        <time>2018-10-16T10:45:35Z</time>
      </trkpt>
      <trkpt lat="45.93183" lon="4.72711">
        <ele>169</ele>
        <time>2018-10-16T10:45:36Z</time>
      </trkpt>
      <trkpt lat="45.93178" lon="4.72716">
        <ele>169</ele>
        <time>2018-10-16T10:45:37Z</time>
      </trkpt>
      <trkpt lat="45.93176" lon="4.72719">
        <ele>170</ele>
        <time>2018-10-16T10:45:38Z</time>
      </trkpt>
      <trkpt lat="45.93172" lon="4.72723">
        <ele>170</ele>
        <time>2018-10-16T10:45:39Z</time>
      </trkpt>
      <trkpt lat="45.93168" lon="4.72727">
        <ele>170</ele>
        <time>2018-10-16T10:45:40Z</time>
      </trkpt>
      <trkpt lat="45.93164" lon="4.7273">
        <ele>170</ele>
        <time>2018-10-16T10:45:41Z</time>
      </trkpt>
      <trkpt lat="45.9316" lon="4.72734">
        <ele>170</ele>
        <time>2018-10-16T10:45:42Z</time>
      </trkpt>
      <trkpt lat="45.93157" lon="4.7274">
        <ele>170</ele>
        <time>2018-10-16T10:45:43Z</time>
      </trkpt>
      <trkpt lat="45.93152" lon="4.72744">
        <ele>170</ele>
        <time>2018-10-16T10:45:44Z</time>
      </trkpt>
      <trkpt lat="45.93148" lon="4.72748">
        <ele>170</ele>
        <time>2018-10-16T10:45:45Z</time>
      </trkpt>
      <trkpt lat="45.93144" lon="4.72753">
        <ele>171</ele>
        <time>2018-10-16T10:45:46Z</time>
      </trkpt>
      <trkpt lat="45.93139" lon="4.72757">
        <ele>171</ele>
        <time>2018-10-16T10:45:47Z</time>
      </trkpt>
      <trkpt lat="45.93135" lon="4.72763">
        <ele>171</ele>
        <time>2018-10-16T10:45:48Z</time>
      </trkpt>
      <trkpt lat="45.93131" lon="4.72768">
        <ele>171</ele>
        <time>2018-10-16T10:45:49Z</time>
      </trkpt>
      <trkpt lat="45.93126" lon="4.72772">
        <ele>171</ele>
        <time>2018-10-16T10:45:50Z</time>
      </trkpt>
      <trkpt lat="45.93121" lon="4.72776">
        <ele>171</ele>
        <time>2018-10-16T10:45:51Z</time>
      </trkpt>
      <trkpt lat="45.93116" lon="4.7278">
        <ele>171</ele>
        <time>2018-10-16T10:45:52Z</time>
      </trkpt>
      <trkpt lat="45.93112" lon="4.72786">
        <ele>171</ele>
        <time>2018-10-16T10:45:53Z</time>
      </trkpt>
      <trkpt lat="45.93108" lon="4.72792">
        <ele>171</ele>
        <time>2018-10-16T10:45:54Z</time>
      </trkpt>
      <trkpt lat="45.93103" lon="4.72797">
        <ele>171</ele>
        <time>2018-10-16T10:45:55Z</time>
      </trkpt>
      <trkpt lat="45.93098" lon="4.72802">
        <ele>171</ele>
        <time>2018-10-16T10:45:56Z</time>
      </trkpt>
      <trkpt lat="45.93093" lon="4.72808">
        <ele>172</ele>
        <time>2018-10-16T10:45:57Z</time>
      </trkpt>
      <trkpt lat="45.93089" lon="4.72812">
        <ele>172</ele>
        <time>2018-10-16T10:45:58Z</time>
      </trkpt>
      <trkpt lat="45.93084" lon="4.72816">
        <ele>172</ele>
        <time>2018-10-16T10:45:59Z</time>
      </trkpt>
      <trkpt lat="45.9308" lon="4.72821">
        <ele>173</ele>
        <time>2018-10-16T10:46:00Z</time>
      </trkpt>
      <trkpt lat="45.93058" lon="4.72841">
        <ele>172</ele>
        <time>2018-10-16T10:46:07Z</time>
      </trkpt>
      <trkpt lat="45.93051" lon="4.72852">
        <ele>172</ele>
        <time>2018-10-16T10:46:08Z</time>
      </trkpt>
      <trkpt lat="45.93046" lon="4.72861">
        <ele>172</ele>
        <time>2018-10-16T10:46:09Z</time>
      </trkpt>
      <trkpt lat="45.93039" lon="4.72868">
        <ele>172</ele>
        <time>2018-10-16T10:46:10Z</time>
      </trkpt>
      <trkpt lat="45.93034" lon="4.72875">
        <ele>172</ele>
        <time>2018-10-16T10:46:11Z</time>
      </trkpt>
      <trkpt lat="45.93029" lon="4.72881">
        <ele>172</ele>
        <time>2018-10-16T10:46:12Z</time>
      </trkpt>
      <trkpt lat="45.93026" lon="4.72889">
        <ele>172</ele>
        <time>2018-10-16T10:46:13Z</time>
      </trkpt>
      <trkpt lat="45.9302" lon="4.72893">
        <ele>172</ele>
        <time>2018-10-16T10:46:14Z</time>
      </trkpt>
      <trkpt lat="45.93016" lon="4.72899">
        <ele>172</ele>
        <time>2018-10-16T10:46:15Z</time>
      </trkpt>
      <trkpt lat="45.93011" lon="4.72905">
        <ele>171</ele>
        <time>2018-10-16T10:46:16Z</time>
      </trkpt>
      <trkpt lat="45.93007" lon="4.72912">
        <ele>171</ele>
        <time>2018-10-16T10:46:17Z</time>
      </trkpt>
      <trkpt lat="45.93001" lon="4.72915">
        <ele>171</ele>
        <time>2018-10-16T10:46:18Z</time>
      </trkpt>
      <trkpt lat="45.92996" lon="4.72921">
        <ele>171</ele>
        <time>2018-10-16T10:46:19Z</time>
      </trkpt>
      <trkpt lat="45.92993" lon="4.72926">
        <ele>171</ele>
        <time>2018-10-16T10:46:20Z</time>
      </trkpt>
      <trkpt lat="45.92988" lon="4.7293">
        <ele>171</ele>
        <time>2018-10-16T10:46:21Z</time>
      </trkpt>
      <trkpt lat="45.92985" lon="4.72934">
        <ele>171</ele>
        <time>2018-10-16T10:46:22Z</time>
      </trkpt>
      <trkpt lat="45.92981" lon="4.72939">
        <ele>171</ele>
        <time>2018-10-16T10:46:23Z</time>
      </trkpt>
      <trkpt lat="45.92977" lon="4.72943">
        <ele>171</ele>
        <time>2018-10-16T10:46:24Z</time>
      </trkpt>
      <trkpt lat="45.92973" lon="4.72949">
        <ele>171</ele>
        <time>2018-10-16T10:46:25Z</time>
      </trkpt>
      <trkpt lat="45.92969" lon="4.72953">
        <ele>171</ele>
        <time>2018-10-16T10:46:26Z</time>
      </trkpt>
      <trkpt lat="45.92966" lon="4.72961">
        <ele>171</ele>
        <time>2018-10-16T10:46:27Z</time>
      </trkpt>
      <trkpt lat="45.92963" lon="4.72965">
        <ele>171</ele>
        <time>2018-10-16T10:46:28Z</time>
      </trkpt>
      <trkpt lat="45.92959" lon="4.72973">
        <ele>171</ele>
        <time>2018-10-16T10:46:29Z</time>
      </trkpt>
      <trkpt lat="45.92955" lon="4.72976">
        <ele>171</ele>
        <time>2018-10-16T10:46:30Z</time>
      </trkpt>
      <trkpt lat="45.92951" lon="4.72981">
        <ele>171</ele>
        <time>2018-10-16T10:46:31Z</time>
      </trkpt>
      <trkpt lat="45.92947" lon="4.72987">
        <ele>171</ele>
        <time>2018-10-16T10:46:32Z</time>
      </trkpt>
      <trkpt lat="45.92943" lon="4.72992">
        <ele>171</ele>
        <time>2018-10-16T10:46:33Z</time>
      </trkpt>
      <trkpt lat="45.9294" lon="4.72999">
        <ele>171</ele>
        <time>2018-10-16T10:46:34Z</time>
      </trkpt>
      <trkpt lat="45.92936" lon="4.73004">
        <ele>171</ele>
        <time>2018-10-16T10:46:35Z</time>
      </trkpt>
      <trkpt lat="45.92931" lon="4.73008">
        <ele>171</ele>
        <time>2018-10-16T10:46:36Z</time>
      </trkpt>
      <trkpt lat="45.92926" lon="4.73013">
        <ele>172</ele>
        <time>2018-10-16T10:46:37Z</time>
      </trkpt>
      <trkpt lat="45.92922" lon="4.73018">
        <ele>172</ele>
        <time>2018-10-16T10:46:38Z</time>
      </trkpt>
      <trkpt lat="45.92919" lon="4.73023">
        <ele>172</ele>
        <time>2018-10-16T10:46:39Z</time>
      </trkpt>
      <trkpt lat="45.92915" lon="4.73028">
        <ele>172</ele>
        <time>2018-10-16T10:46:40Z</time>
      </trkpt>
      <trkpt lat="45.9291" lon="4.73032">
        <ele>172</ele>
        <time>2018-10-16T10:46:41Z</time>
      </trkpt>
      <trkpt lat="45.92907" lon="4.73037">
        <ele>172</ele>
        <time>2018-10-16T10:46:42Z</time>
      </trkpt>
      <trkpt lat="45.92902" lon="4.73041">
        <ele>172</ele>
        <time>2018-10-16T10:46:43Z</time>
      </trkpt>
      <trkpt lat="45.92899" lon="4.73045">
        <ele>172</ele>
        <time>2018-10-16T10:46:44Z</time>
      </trkpt>
      <trkpt lat="45.92895" lon="4.7305">
        <ele>172</ele>
        <time>2018-10-16T10:46:45Z</time>
      </trkpt>
      <trkpt lat="45.92892" lon="4.73056">
        <ele>172</ele>
        <time>2018-10-16T10:46:46Z</time>
      </trkpt>
      <trkpt lat="45.9289" lon="4.73063">
        <ele>172</ele>
        <time>2018-10-16T10:46:47Z</time>
      </trkpt>
      <trkpt lat="45.92886" lon="4.73069">
        <ele>172</ele>
        <time>2018-10-16T10:46:48Z</time>
      </trkpt>
      <trkpt lat="45.92883" lon="4.73075">
        <ele>172</ele>
        <time>2018-10-16T10:46:49Z</time>
      </trkpt>
      <trkpt lat="45.92881" lon="4.73079">
        <ele>172</ele>
        <time>2018-10-16T10:46:50Z</time>
      </trkpt>
      <trkpt lat="45.92873" lon="4.73086">
        <ele>172</ele>
        <time>2018-10-16T10:46:52Z</time>
      </trkpt>
      <trkpt lat="45.92869" lon="4.73089">
        <ele>172</ele>
        <time>2018-10-16T10:46:53Z</time>
      </trkpt>
      <trkpt lat="45.92866" lon="4.73093">
        <ele>172</ele>
        <time>2018-10-16T10:46:54Z</time>
      </trkpt>
      <trkpt lat="45.92862" lon="4.73098">
        <ele>171</ele>
        <time>2018-10-16T10:46:55Z</time>
      </trkpt>
      <trkpt lat="45.92854" lon="4.73103">
        <ele>171</ele>
        <time>2018-10-16T10:46:58Z</time>
      </trkpt>
      <trkpt lat="45.92852" lon="4.73101">
        <ele>171</ele>
        <time>2018-10-16T10:46:59Z</time>
      </trkpt>
      <trkpt lat="45.9285" lon="4.73092">
        <ele>171</ele>
        <time>2018-10-16T10:47:01Z</time>
      </trkpt>
      <trkpt lat="45.92846" lon="4.73082">
        <ele>171</ele>
        <time>2018-10-16T10:47:02Z</time>
      </trkpt>
      <trkpt lat="45.92844" lon="4.73076">
        <ele>171</ele>
        <time>2018-10-16T10:47:03Z</time>
      </trkpt>
      <trkpt lat="45.92843" lon="4.73069">
        <ele>171</ele>
        <time>2018-10-16T10:47:04Z</time>
      </trkpt>
      <trkpt lat="45.92842" lon="4.73062">
        <ele>171</ele>
        <time>2018-10-16T10:47:05Z</time>
      </trkpt>
      <trkpt lat="45.92841" lon="4.73055">
        <ele>171</ele>
        <time>2018-10-16T10:47:06Z</time>
      </trkpt>
      <trkpt lat="45.9284" lon="4.73049">
        <ele>171</ele>
        <time>2018-10-16T10:47:07Z</time>
      </trkpt>
      <trkpt lat="45.92839" lon="4.73042">
        <ele>171</ele>
        <time>2018-10-16T10:47:08Z</time>
      </trkpt>
      <trkpt lat="45.92838" lon="4.73036">
        <ele>171</ele>
        <time>2018-10-16T10:47:09Z</time>
      </trkpt>
      <trkpt lat="45.92836" lon="4.73029">
        <ele>171</ele>
        <time>2018-10-16T10:47:10Z</time>
      </trkpt>
      <trkpt lat="45.92835" lon="4.73022">
        <ele>171</ele>
        <time>2018-10-16T10:47:11Z</time>
      </trkpt>
      <trkpt lat="45.92832" lon="4.73017">
        <ele>170</ele>
        <time>2018-10-16T10:47:12Z</time>
      </trkpt>
      <trkpt lat="45.9283" lon="4.73011">
        <ele>170</ele>
        <time>2018-10-16T10:47:13Z</time>
      </trkpt>
      <trkpt lat="45.92831" lon="4.73002">
        <ele>170</ele>
        <time>2018-10-16T10:47:14Z</time>
      </trkpt>
      <trkpt lat="45.92831" lon="4.72996">
        <ele>170</ele>
        <time>2018-10-16T10:47:15Z</time>
      </trkpt>
      <trkpt lat="45.9283" lon="4.72988">
        <ele>170</ele>
        <time>2018-10-16T10:47:16Z</time>
      </trkpt>
      <trkpt lat="45.92829" lon="4.72981">
        <ele>170</ele>
        <time>2018-10-16T10:47:17Z</time>
      </trkpt>
      <trkpt lat="45.92829" lon="4.72973">
        <ele>170</ele>
        <time>2018-10-16T10:47:18Z</time>
      </trkpt>
      <trkpt lat="45.92829" lon="4.72966">
        <ele>170</ele>
        <time>2018-10-16T10:47:19Z</time>
      </trkpt>
      <trkpt lat="45.92829" lon="4.72957">
        <ele>170</ele>
        <time>2018-10-16T10:47:20Z</time>
      </trkpt>
      <trkpt lat="45.92828" lon="4.72949">
        <ele>170</ele>
        <time>2018-10-16T10:47:21Z</time>
      </trkpt>
      <trkpt lat="45.92827" lon="4.7294">
        <ele>170</ele>
        <time>2018-10-16T10:47:22Z</time>
      </trkpt>
      <trkpt lat="45.92827" lon="4.72931">
        <ele>170</ele>
        <time>2018-10-16T10:47:23Z</time>
      </trkpt>
      <trkpt lat="45.92826" lon="4.72923">
        <ele>170</ele>
        <time>2018-10-16T10:47:24Z</time>
      </trkpt>
      <trkpt lat="45.92826" lon="4.72915">
        <ele>170</ele>
        <time>2018-10-16T10:47:25Z</time>
      </trkpt>
      <trkpt lat="45.92825" lon="4.72907">
        <ele>170</ele>
        <time>2018-10-16T10:47:26Z</time>
      </trkpt>
      <trkpt lat="45.92824" lon="4.729">
        <ele>170</ele>
        <time>2018-10-16T10:47:27Z</time>
      </trkpt>
      <trkpt lat="45.92823" lon="4.72893">
        <ele>170</ele>
        <time>2018-10-16T10:47:28Z</time>
      </trkpt>
      <trkpt lat="45.92821" lon="4.72886">
        <ele>170</ele>
        <time>2018-10-16T10:47:29Z</time>
      </trkpt>
      <trkpt lat="45.9282" lon="4.72881">
        <ele>170</ele>
        <time>2018-10-16T10:47:30Z</time>
      </trkpt>
      <trkpt lat="45.92818" lon="4.72868">
        <ele>170</ele>
        <time>2018-10-16T10:47:32Z</time>
      </trkpt>
      <trkpt lat="45.92817" lon="4.72862">
        <ele>170</ele>
        <time>2018-10-16T10:47:33Z</time>
      </trkpt>
      <trkpt lat="45.92815" lon="4.72856">
        <ele>170</ele>
        <time>2018-10-16T10:47:34Z</time>
      </trkpt>
      <trkpt lat="45.92812" lon="4.72849">
        <ele>170</ele>
        <time>2018-10-16T10:47:35Z</time>
      </trkpt>
      <trkpt lat="45.9281" lon="4.72838">
        <ele>170</ele>
        <time>2018-10-16T10:47:37Z</time>
      </trkpt>
      <trkpt lat="45.92809" lon="4.72832">
        <ele>171</ele>
        <time>2018-10-16T10:47:38Z</time>
      </trkpt>
      <trkpt lat="45.92807" lon="4.72824">
        <ele>171</ele>
        <time>2018-10-16T10:47:40Z</time>
      </trkpt>
      <trkpt lat="45.92805" lon="4.72817">
        <ele>171</ele>
        <time>2018-10-16T10:47:41Z</time>
      </trkpt>
      <trkpt lat="45.92803" lon="4.72806">
        <ele>171</ele>
        <time>2018-10-16T10:47:43Z</time>
      </trkpt>
      <trkpt lat="45.92802" lon="4.72801">
        <ele>171</ele>
        <time>2018-10-16T10:47:44Z</time>
      </trkpt>
      <trkpt lat="45.92798" lon="4.72792">
        <ele>171</ele>
        <time>2018-10-16T10:47:46Z</time>
      </trkpt>
      <trkpt lat="45.92794" lon="4.72789">
        <ele>171</ele>
        <time>2018-10-16T10:47:47Z</time>
      </trkpt>
      <trkpt lat="45.92786" lon="4.7279">
        <ele>170</ele>
        <time>2018-10-16T10:47:49Z</time>
      </trkpt>
      <trkpt lat="45.92782" lon="4.72793">
        <ele>170</ele>
        <time>2018-10-16T10:47:50Z</time>
      </trkpt>
      <trkpt lat="45.92779" lon="4.72801">
        <ele>170</ele>
        <time>2018-10-16T10:47:51Z</time>
      </trkpt>
      <trkpt lat="45.92774" lon="4.72803">
        <ele>170</ele>
        <time>2018-10-16T10:47:52Z</time>
      </trkpt>
      <trkpt lat="45.92766" lon="4.72808">
        <ele>170</ele>
        <time>2018-10-16T10:47:54Z</time>
      </trkpt>
      <trkpt lat="45.92761" lon="4.72815">
        <ele>170</ele>
        <time>2018-10-16T10:47:55Z</time>
      </trkpt>
      <trkpt lat="45.92756" lon="4.7282">
        <ele>170</ele>
        <time>2018-10-16T10:47:56Z</time>
      </trkpt>
      <trkpt lat="45.92752" lon="4.72823">
        <ele>170</ele>
        <time>2018-10-16T10:47:57Z</time>
      </trkpt>
      <trkpt lat="45.92746" lon="4.72825">
        <ele>169</ele>
        <time>2018-10-16T10:47:58Z</time>
      </trkpt>
      <trkpt lat="45.92742" lon="4.72828">
        <ele>169</ele>
        <time>2018-10-16T10:47:59Z</time>
      </trkpt>
      <trkpt lat="45.92738" lon="4.72831">
        <ele>169</ele>
        <time>2018-10-16T10:48:00Z</time>
      </trkpt>
      <trkpt lat="45.92733" lon="4.72835">
        <ele>169</ele>
        <time>2018-10-16T10:48:01Z</time>
      </trkpt>
      <trkpt lat="45.92727" lon="4.72838">
        <ele>169</ele>
        <time>2018-10-16T10:48:02Z</time>
      </trkpt>
      <trkpt lat="45.92722" lon="4.72842">
        <ele>169</ele>
        <time>2018-10-16T10:48:03Z</time>
      </trkpt>
      <trkpt lat="45.92718" lon="4.72846">
        <ele>169</ele>
        <time>2018-10-16T10:48:04Z</time>
      </trkpt>
      <trkpt lat="45.92713" lon="4.7285">
        <ele>169</ele>
        <time>2018-10-16T10:48:05Z</time>
      </trkpt>
      <trkpt lat="45.92707" lon="4.72854">
        <ele>169</ele>
        <time>2018-10-16T10:48:06Z</time>
      </trkpt>
      <trkpt lat="45.92702" lon="4.72858">
        <ele>169</ele>
        <time>2018-10-16T10:48:07Z</time>
      </trkpt>
      <trkpt lat="45.92697" lon="4.72862">
        <ele>169</ele>
        <time>2018-10-16T10:48:08Z</time>
      </trkpt>
      <trkpt lat="45.92692" lon="4.72867">
        <ele>169</ele>
        <time>2018-10-16T10:48:09Z</time>
      </trkpt>
      <trkpt lat="45.92687" lon="4.7287">
        <ele>169</ele>
        <time>2018-10-16T10:48:10Z</time>
      </trkpt>
      <trkpt lat="45.92681" lon="4.72875">
        <ele>169</ele>
        <time>2018-10-16T10:48:11Z</time>
      </trkpt>
      <trkpt lat="45.92676" lon="4.7288">
        <ele>170</ele>
        <time>2018-10-16T10:48:12Z</time>
      </trkpt>
      <trkpt lat="45.92672" lon="4.72884">
        <ele>170</ele>
        <time>2018-10-16T10:48:13Z</time>
      </trkpt>
      <trkpt lat="45.92668" lon="4.72887">
        <ele>170</ele>
        <time>2018-10-16T10:48:14Z</time>
      </trkpt>
      <trkpt lat="45.92663" lon="4.7289">
        <ele>169</ele>
        <time>2018-10-16T10:48:15Z</time>
      </trkpt>
      <trkpt lat="45.92659" lon="4.72895">
        <ele>170</ele>
        <time>2018-10-16T10:48:16Z</time>
      </trkpt>
      <trkpt lat="45.92655" lon="4.72898">
        <ele>170</ele>
        <time>2018-10-16T10:48:17Z</time>
      </trkpt>
      <trkpt lat="45.92649" lon="4.72903">
        <ele>170</ele>
        <time>2018-10-16T10:48:18Z</time>
      </trkpt>
      <trkpt lat="45.92647" lon="4.72906">
        <ele>170</ele>
        <time>2018-10-16T10:48:19Z</time>
      </trkpt>
      <trkpt lat="45.92643" lon="4.7291">
        <ele>170</ele>
        <time>2018-10-16T10:48:20Z</time>
      </trkpt>
      <trkpt lat="45.92637" lon="4.72915">
        <ele>169</ele>
        <time>2018-10-16T10:48:21Z</time>
      </trkpt>
      <trkpt lat="45.92632" lon="4.72919">
        <ele>170</ele>
        <time>2018-10-16T10:48:22Z</time>
      </trkpt>
      <trkpt lat="45.92625" lon="4.72924">
        <ele>170</ele>
        <time>2018-10-16T10:48:23Z</time>
      </trkpt>
      <trkpt lat="45.92621" lon="4.72927">
        <ele>169</ele>
        <time>2018-10-16T10:48:24Z</time>
      </trkpt>
      <trkpt lat="45.92616" lon="4.7293">
        <ele>169</ele>
        <time>2018-10-16T10:48:25Z</time>
      </trkpt>
      <trkpt lat="45.92612" lon="4.72934">
        <ele>169</ele>
        <time>2018-10-16T10:48:26Z</time>
      </trkpt>
      <trkpt lat="45.92607" lon="4.72937">
        <ele>169</ele>
        <time>2018-10-16T10:48:27Z</time>
      </trkpt>
      <trkpt lat="45.92602" lon="4.72941">
        <ele>169</ele>
        <time>2018-10-16T10:48:28Z</time>
      </trkpt>
      <trkpt lat="45.92597" lon="4.72946">
        <ele>169</ele>
        <time>2018-10-16T10:48:29Z</time>
      </trkpt>
      <trkpt lat="45.92593" lon="4.72951">
        <ele>169</ele>
        <time>2018-10-16T10:48:30Z</time>
      </trkpt>
      <trkpt lat="45.92588" lon="4.72956">
        <ele>169</ele>
        <time>2018-10-16T10:48:31Z</time>
      </trkpt>
      <trkpt lat="45.92583" lon="4.7296">
        <ele>169</ele>
        <time>2018-10-16T10:48:32Z</time>
      </trkpt>
      <trkpt lat="45.9258" lon="4.72966">
        <ele>169</ele>
        <time>2018-10-16T10:48:33Z</time>
      </trkpt>
      <trkpt lat="45.92575" lon="4.72971">
        <ele>169</ele>
        <time>2018-10-16T10:48:34Z</time>
      </trkpt>
      <trkpt lat="45.92572" lon="4.72976">
        <ele>169</ele>
        <time>2018-10-16T10:48:35Z</time>
      </trkpt>
      <trkpt lat="45.92567" lon="4.72981">
        <ele>169</ele>
        <time>2018-10-16T10:48:36Z</time>
      </trkpt>
      <trkpt lat="45.92563" lon="4.72984">
        <ele>169</ele>
        <time>2018-10-16T10:48:37Z</time>
      </trkpt>
      <trkpt lat="45.92559" lon="4.72989">
        <ele>169</ele>
        <time>2018-10-16T10:48:38Z</time>
      </trkpt>
      <trkpt lat="45.92553" lon="4.72993">
        <ele>169</ele>
        <time>2018-10-16T10:48:39Z</time>
      </trkpt>
      <trkpt lat="45.9255" lon="4.73002">
        <ele>169</ele>
        <time>2018-10-16T10:48:40Z</time>
      </trkpt>
      <trkpt lat="45.92545" lon="4.73006">
        <ele>169</ele>
        <time>2018-10-16T10:48:41Z</time>
      </trkpt>
      <trkpt lat="45.9254" lon="4.73012">
        <ele>169</ele>
        <time>2018-10-16T10:48:42Z</time>
      </trkpt>
      <trkpt lat="45.92535" lon="4.73016">
        <ele>169</ele>
        <time>2018-10-16T10:48:43Z</time>
      </trkpt>
      <trkpt lat="45.9253" lon="4.73021">
        <ele>169</ele>
        <time>2018-10-16T10:48:44Z</time>
      </trkpt>
      <trkpt lat="45.92525" lon="4.73025">
        <ele>169</ele>
        <time>2018-10-16T10:48:45Z</time>
      </trkpt>
      <trkpt lat="45.9252" lon="4.73029">
        <ele>169</ele>
        <time>2018-10-16T10:48:46Z</time>
      </trkpt>
      <trkpt lat="45.92516" lon="4.73033">
        <ele>169</ele>
        <time>2018-10-16T10:48:47Z</time>
      </trkpt>
      <trkpt lat="45.92511" lon="4.73036">
        <ele>169</ele>
        <time>2018-10-16T10:48:48Z</time>
      </trkpt>
      <trkpt lat="45.92507" lon="4.73038">
        <ele>169</ele>
        <time>2018-10-16T10:48:49Z</time>
      </trkpt>
      <trkpt lat="45.925" lon="4.73046">
        <ele>170</ele>
        <time>2018-10-16T10:48:51Z</time>
      </trkpt>
      <trkpt lat="45.92496" lon="4.73049">
        <ele>170</ele>
        <time>2018-10-16T10:48:52Z</time>
      </trkpt>
      <trkpt lat="45.92492" lon="4.73053">
        <ele>170</ele>
        <time>2018-10-16T10:48:53Z</time>
      </trkpt>
      <trkpt lat="45.92487" lon="4.73057">
        <ele>170</ele>
        <time>2018-10-16T10:48:54Z</time>
      </trkpt>
      <trkpt lat="45.92482" lon="4.7306">
        <ele>170</ele>
        <time>2018-10-16T10:48:55Z</time>
      </trkpt>
      <trkpt lat="45.92478" lon="4.73064">
        <ele>170</ele>
        <time>2018-10-16T10:48:56Z</time>
      </trkpt>
      <trkpt lat="45.92473" lon="4.73068">
        <ele>170</ele>
        <time>2018-10-16T10:48:57Z</time>
      </trkpt>
      <trkpt lat="45.92468" lon="4.73072">
        <ele>170</ele>
        <time>2018-10-16T10:48:58Z</time>
      </trkpt>
      <trkpt lat="45.92464" lon="4.73076">
        <ele>170</ele>
        <time>2018-10-16T10:48:59Z</time>
      </trkpt>
      <trkpt lat="45.92459" lon="4.7308">
        <ele>170</ele>
        <time>2018-10-16T10:49:00Z</time>
      </trkpt>
      <trkpt lat="45.92454" lon="4.73082">
        <ele>170</ele>
        <time>2018-10-16T10:49:01Z</time>
      </trkpt>
      <trkpt lat="45.92449" lon="4.73087">
        <ele>170</ele>
        <time>2018-10-16T10:49:02Z</time>
      </trkpt>
      <trkpt lat="45.92443" lon="4.73093">
        <ele>170</ele>
        <time>2018-10-16T10:49:03Z</time>
      </trkpt>
      <trkpt lat="45.92438" lon="4.73097">
        <ele>170</ele>
        <time>2018-10-16T10:49:04Z</time>
      </trkpt>
      <trkpt lat="45.92432" lon="4.73101">
        <ele>171</ele>
        <time>2018-10-16T10:49:05Z</time>
      </trkpt>
      <trkpt lat="45.92429" lon="4.73104">
        <ele>171</ele>
        <time>2018-10-16T10:49:06Z</time>
      </trkpt>
      <trkpt lat="45.92424" lon="4.73108">
        <ele>170</ele>
        <time>2018-10-16T10:49:07Z</time>
      </trkpt>
      <trkpt lat="45.92419" lon="4.73115">
        <ele>170</ele>
        <time>2018-10-16T10:49:08Z</time>
      </trkpt>
      <trkpt lat="45.92414" lon="4.73125">
        <ele>171</ele>
        <time>2018-10-16T10:49:10Z</time>
      </trkpt>
      <trkpt lat="45.92411" lon="4.73132">
        <ele>171</ele>
        <time>2018-10-16T10:49:11Z</time>
      </trkpt>
      <trkpt lat="45.92409" lon="4.73141">
        <ele>171</ele>
        <time>2018-10-16T10:49:12Z</time>
      </trkpt>
      <trkpt lat="45.92409" lon="4.73147">
        <ele>171</ele>
        <time>2018-10-16T10:49:13Z</time>
      </trkpt>
      <trkpt lat="45.92408" lon="4.73156">
        <ele>170</ele>
        <time>2018-10-16T10:49:14Z</time>
      </trkpt>
      <trkpt lat="45.92409" lon="4.73163">
        <ele>170</ele>
        <time>2018-10-16T10:49:15Z</time>
      </trkpt>
      <trkpt lat="45.92411" lon="4.73178">
        <ele>171</ele>
        <time>2018-10-16T10:49:16Z</time>
      </trkpt>
      <trkpt lat="45.92411" lon="4.73185">
        <ele>171</ele>
        <time>2018-10-16T10:49:17Z</time>
      </trkpt>
      <trkpt lat="45.92412" lon="4.73192">
        <ele>171</ele>
        <time>2018-10-16T10:49:18Z</time>
      </trkpt>
      <trkpt lat="45.92412" lon="4.73199">
        <ele>171</ele>
        <time>2018-10-16T10:49:19Z</time>
      </trkpt>
      <trkpt lat="45.92412" lon="4.73208">
        <ele>171</ele>
        <time>2018-10-16T10:49:20Z</time>
      </trkpt>
      <trkpt lat="45.92414" lon="4.73215">
        <ele>171</ele>
        <time>2018-10-16T10:49:21Z</time>
      </trkpt>
      <trkpt lat="45.92414" lon="4.73221">
        <ele>171</ele>
        <time>2018-10-16T10:49:22Z</time>
      </trkpt>
      <trkpt lat="45.92414" lon="4.73228">
        <ele>171</ele>
        <time>2018-10-16T10:49:23Z</time>
      </trkpt>
      <trkpt lat="45.92415" lon="4.73236">
        <ele>171</ele>
        <time>2018-10-16T10:49:24Z</time>
      </trkpt>
      <trkpt lat="45.92414" lon="4.73242">
        <ele>171</ele>
        <time>2018-10-16T10:49:25Z</time>
      </trkpt>
      <trkpt lat="45.92415" lon="4.73249">
        <ele>171</ele>
        <time>2018-10-16T10:49:26Z</time>
      </trkpt>
      <trkpt lat="45.92415" lon="4.73256">
        <ele>171</ele>
        <time>2018-10-16T10:49:27Z</time>
      </trkpt>
      <trkpt lat="45.92416" lon="4.73263">
        <ele>171</ele>
        <time>2018-10-16T10:49:28Z</time>
      </trkpt>
      <trkpt lat="45.92416" lon="4.73276">
        <ele>171</ele>
        <time>2018-10-16T10:49:30Z</time>
      </trkpt>
      <trkpt lat="45.92416" lon="4.73282">
        <ele>171</ele>
        <time>2018-10-16T10:49:31Z</time>
      </trkpt>
      <trkpt lat="45.92416" lon="4.73293">
        <ele>171</ele>
        <time>2018-10-16T10:49:33Z</time>
      </trkpt>
      <trkpt lat="45.92417" lon="4.73301">
        <ele>171</ele>
        <time>2018-10-16T10:49:34Z</time>
      </trkpt>
      <trkpt lat="45.92417" lon="4.73308">
        <ele>171</ele>
        <time>2018-10-16T10:49:35Z</time>
      </trkpt>
      <trkpt lat="45.92417" lon="4.73315">
        <ele>171</ele>
        <time>2018-10-16T10:49:36Z</time>
      </trkpt>
      <trkpt lat="45.92417" lon="4.73321">
        <ele>171</ele>
        <time>2018-10-16T10:49:37Z</time>
      </trkpt>
      <trkpt lat="45.92419" lon="4.73328">
        <ele>171</ele>
        <time>2018-10-16T10:49:38Z</time>
      </trkpt>
      <trkpt lat="45.92419" lon="4.7334">
        <ele>171</ele>
        <time>2018-10-16T10:49:40Z</time>
      </trkpt>
      <trkpt lat="45.92421" lon="4.73346">
        <ele>171</ele>
        <time>2018-10-16T10:49:41Z</time>
      </trkpt>
      <trkpt lat="45.92421" lon="4.73357">
        <ele>171</ele>
        <time>2018-10-16T10:49:43Z</time>
      </trkpt>
      <trkpt lat="45.92424" lon="4.73364">
        <ele>172</ele>
        <time>2018-10-16T10:49:44Z</time>
      </trkpt>
      <trkpt lat="45.92426" lon="4.73376">
        <ele>172</ele>
        <time>2018-10-16T10:49:46Z</time>
      </trkpt>
      <trkpt lat="45.92427" lon="4.73382">
        <ele>172</ele>
        <time>2018-10-16T10:49:47Z</time>
      </trkpt>
      <trkpt lat="45.92428" lon="4.73393">
        <ele>172</ele>
        <time>2018-10-16T10:49:50Z</time>
      </trkpt>
      <trkpt lat="45.92431" lon="4.734">
        <ele>172</ele>
        <time>2018-10-16T10:49:51Z</time>
      </trkpt>
      <trkpt lat="45.92434" lon="4.73404">
        <ele>172</ele>
        <time>2018-10-16T10:49:52Z</time>
      </trkpt>
      <trkpt lat="45.92438" lon="4.73409">
        <ele>172</ele>
        <time>2018-10-16T10:49:53Z</time>
      </trkpt>
      <trkpt lat="45.92442" lon="4.73414">
        <ele>172</ele>
        <time>2018-10-16T10:49:54Z</time>
      </trkpt>
      <trkpt lat="45.92447" lon="4.73417">
        <ele>172</ele>
        <time>2018-10-16T10:49:55Z</time>
      </trkpt>
      <trkpt lat="45.9245" lon="4.73421">
        <ele>173</ele>
        <time>2018-10-16T10:49:56Z</time>
      </trkpt>
      <trkpt lat="45.92454" lon="4.73424">
        <ele>173</ele>
        <time>2018-10-16T10:49:57Z</time>
      </trkpt>
      <trkpt lat="45.92457" lon="4.7343">
        <ele>173</ele>
        <time>2018-10-16T10:49:58Z</time>
      </trkpt>
      <trkpt lat="45.9246" lon="4.73437">
        <ele>173</ele>
        <time>2018-10-16T10:49:59Z</time>
      </trkpt>
      <trkpt lat="45.92463" lon="4.73444">
        <ele>173</ele>
        <time>2018-10-16T10:50:00Z</time>
      </trkpt>
      <trkpt lat="45.92464" lon="4.73453">
        <ele>173</ele>
        <time>2018-10-16T10:50:01Z</time>
      </trkpt>
      <trkpt lat="45.92465" lon="4.7346">
        <ele>173</ele>
        <time>2018-10-16T10:50:02Z</time>
      </trkpt>
      <trkpt lat="45.92465" lon="4.73466">
        <ele>173</ele>
        <time>2018-10-16T10:50:03Z</time>
      </trkpt>
      <trkpt lat="45.92465" lon="4.73472">
        <ele>173</ele>
        <time>2018-10-16T10:50:04Z</time>
      </trkpt>
      <trkpt lat="45.92465" lon="4.73479">
        <ele>173</ele>
        <time>2018-10-16T10:50:05Z</time>
      </trkpt>
      <trkpt lat="45.92465" lon="4.73491">
        <ele>173</ele>
        <time>2018-10-16T10:50:07Z</time>
      </trkpt>
      <trkpt lat="45.92466" lon="4.73497">
        <ele>173</ele>
        <time>2018-10-16T10:50:08Z</time>
      </trkpt>
      <trkpt lat="45.92466" lon="4.7351">
        <ele>174</ele>
        <time>2018-10-16T10:50:10Z</time>
      </trkpt>
      <trkpt lat="45.92465" lon="4.73516">
        <ele>174</ele>
        <time>2018-10-16T10:50:11Z</time>
      </trkpt>
      <trkpt lat="45.92466" lon="4.73524">
        <ele>174</ele>
        <time>2018-10-16T10:50:12Z</time>
      </trkpt>
      <trkpt lat="45.92466" lon="4.73531">
        <ele>174</ele>
        <time>2018-10-16T10:50:13Z</time>
      </trkpt>
      <trkpt lat="45.92465" lon="4.73542">
        <ele>173</ele>
        <time>2018-10-16T10:50:15Z</time>
      </trkpt>
      <trkpt lat="45.92463" lon="4.73548">
        <ele>173</ele>
        <time>2018-10-16T10:50:16Z</time>
      </trkpt>
      <trkpt lat="45.92463" lon="4.7356">
        <ele>173</ele>
        <time>2018-10-16T10:50:18Z</time>
      </trkpt>
      <trkpt lat="45.92464" lon="4.73566">
        <ele>173</ele>
        <time>2018-10-16T10:50:19Z</time>
      </trkpt>
      <trkpt lat="45.92464" lon="4.73573">
        <ele>173</ele>
        <time>2018-10-16T10:50:20Z</time>
      </trkpt>
      <trkpt lat="45.92464" lon="4.7358">
        <ele>173</ele>
        <time>2018-10-16T10:50:21Z</time>
      </trkpt>
      <trkpt lat="45.92467" lon="4.73586">
        <ele>174</ele>
        <time>2018-10-16T10:50:22Z</time>
      </trkpt>
      <trkpt lat="45.92468" lon="4.73595">
        <ele>174</ele>
        <time>2018-10-16T10:50:23Z</time>
      </trkpt>
      <trkpt lat="45.92467" lon="4.73603">
        <ele>174</ele>
        <time>2018-10-16T10:50:24Z</time>
      </trkpt>
      <trkpt lat="45.92467" lon="4.73611">
        <ele>174</ele>
        <time>2018-10-16T10:50:25Z</time>
      </trkpt>
      <trkpt lat="45.92467" lon="4.7362">
        <ele>174</ele>
        <time>2018-10-16T10:50:26Z</time>
      </trkpt>
      <trkpt lat="45.92468" lon="4.7363">
        <ele>174</ele>
        <time>2018-10-16T10:50:27Z</time>
      </trkpt>
      <trkpt lat="45.92469" lon="4.73638">
        <ele>174</ele>
        <time>2018-10-16T10:50:28Z</time>
      </trkpt>
      <trkpt lat="45.92469" lon="4.73643">
        <ele>174</ele>
        <time>2018-10-16T10:50:29Z</time>
      </trkpt>
      <trkpt lat="45.92469" lon="4.73656">
        <ele>174</ele>
        <time>2018-10-16T10:50:31Z</time>
      </trkpt>
      <trkpt lat="45.92469" lon="4.73663">
        <ele>174</ele>
        <time>2018-10-16T10:50:32Z</time>
      </trkpt>
      <trkpt lat="45.9247" lon="4.73671">
        <ele>174</ele>
        <time>2018-10-16T10:50:33Z</time>
      </trkpt>
      <trkpt lat="45.92469" lon="4.73677">
        <ele>174</ele>
        <time>2018-10-16T10:50:34Z</time>
      </trkpt>
      <trkpt lat="45.92466" lon="4.73688">
        <ele>174</ele>
        <time>2018-10-16T10:50:36Z</time>
      </trkpt>
      <trkpt lat="45.92467" lon="4.73694">
        <ele>174</ele>
        <time>2018-10-16T10:50:37Z</time>
      </trkpt>
      <trkpt lat="45.92466" lon="4.73706">
        <ele>174</ele>
        <time>2018-10-16T10:50:40Z</time>
      </trkpt>
      <trkpt lat="45.92466" lon="4.73708">
        <ele>174</ele>
        <time>2018-10-16T10:50:41Z</time>
      </trkpt>
      <trkpt lat="45.92462" lon="4.73709">
        <ele>174</ele>
        <time>2018-10-16T10:51:23.428Z</time>
      </trkpt>
    </trkseg>
  </trk>
</gpx>